<?xml version='1.0' encoding='UTF-8'?><gpx version="1.1" creator="JPX - https://github.com/jenetics/jpx" xmlns="http://www.topografix.com/GPX/1/1"><trk><trkseg><trkpt lat="42.94671165180296" lon="13.721006787520823"><ele>302.0</ele><time>2026-05-02T07:50:26.001Z</time></trkpt><trkpt lat="42.946748306814854" lon="13.72081218408481"><ele>302.0</ele><time>2026-05-02T07:50:28.001Z</time></trkpt><trkpt lat="42.94675993291731" lon="13.720694701473063"><ele>302.0</ele><time>2026-05-02T07:50:29.001Z</time></trkpt><trkpt lat="42.94676529021359" lon="13.720575066316329"><ele>302.0</ele><time>2026-05-02T07:50:30.001Z</time></trkpt><trkpt lat="42.94677035223528" lon="13.720429878168629"><ele>302.0</ele><time>2026-05-02T07:50:31.001Z</time></trkpt><trkpt lat="42.9467723129184" lon="13.720268725178975"><ele>302.25</ele><time>2026-05-02T07:50:32.001Z</time></trkpt><trkpt lat="42.94675840004961" lon="13.720122492108473"><ele>302.5</ele><time>2026-05-02T07:50:33.001Z</time></trkpt><trkpt lat="42.94674607459163" lon="13.719969111252526"><ele>302.75</ele><time>2026-05-02T07:50:34Z</time></trkpt><trkpt lat="42.94672153114194" lon="13.71981128749063"><ele>303.0</ele><time>2026-05-02T07:50:35Z</time></trkpt><trkpt lat="42.94669569614125" lon="13.719645625283862"><ele>297.25</ele><time>2026-05-02T07:50:36Z</time></trkpt><trkpt lat="42.946668360381835" lon="13.7194748777705"><ele>291.5</ele><time>2026-05-02T07:50:37Z</time></trkpt><trkpt lat="42.94664121679886" lon="13.719291257418014"><ele>285.75</ele><time>2026-05-02T07:50:38Z</time></trkpt><trkpt lat="42.946610571708796" lon="13.719106419073595"><ele>280.0</ele><time>2026-05-02T07:50:39Z</time></trkpt><trkpt lat="42.94658372991849" lon="13.718907734687802"><ele>280.0</ele><time>2026-05-02T07:50:40Z</time></trkpt><trkpt lat="42.94656257614812" lon="13.718695192964574"><ele>280.0</ele><time>2026-05-02T07:50:41Z</time></trkpt><trkpt lat="42.94654652779689" lon="13.718478866274086"><ele>280.0</ele><time>2026-05-02T07:50:42Z</time></trkpt><trkpt lat="42.946540767700306" lon="13.718290298847144"><ele>280.25</ele><time>2026-05-02T07:50:43Z</time></trkpt><trkpt lat="42.946568549303336" lon="13.718112931205964"><ele>280.5</ele><time>2026-05-02T07:50:44Z</time></trkpt><trkpt lat="42.94659297002414" lon="13.717925566263052"><ele>280.75</ele><time>2026-05-02T07:50:45Z</time></trkpt><trkpt lat="42.94665359691894" lon="13.717724616879774"><ele>281.0</ele><time>2026-05-02T07:50:46Z</time></trkpt><trkpt lat="42.946750709908216" lon="13.717531756906022"><ele>280.0</ele><time>2026-05-02T07:50:47Z</time></trkpt><trkpt lat="42.94683842821194" lon="13.717319103114708"><ele>279.0</ele><time>2026-05-02T07:50:48Z</time></trkpt><trkpt lat="42.94695211354919" lon="13.717113133529981"><ele>278.0</ele><time>2026-05-02T07:50:49Z</time></trkpt><trkpt lat="42.947062934199096" lon="13.716906017913383"><ele>275.6666666666667</ele><time>2026-05-02T07:50:50Z</time></trkpt><trkpt lat="42.94716574597185" lon="13.716711911276533"><ele>273.3333333333333</ele><time>2026-05-02T07:50:51Z</time></trkpt><trkpt lat="42.94727041479034" lon="13.716518953703677"><ele>271.0</ele><time>2026-05-02T07:50:52Z</time></trkpt><trkpt lat="42.947380464663446" lon="13.716325831484918"><ele>271.0</ele><time>2026-05-02T07:50:53Z</time></trkpt><trkpt lat="42.947502874593205" lon="13.716146769034202"><ele>271.0</ele><time>2026-05-02T07:50:54Z</time></trkpt><trkpt lat="42.94763347188404" lon="13.715978824354732"><ele>271.0</ele><time>2026-05-02T07:50:55Z</time></trkpt><trkpt lat="42.9477585205949" lon="13.715811812607294"><ele>270.0</ele><time>2026-05-02T07:50:56Z</time></trkpt><trkpt lat="42.9479058707263" lon="13.715653620167117"><ele>269.0</ele><time>2026-05-02T07:50:57Z</time></trkpt><trkpt lat="42.94803364823598" lon="13.715501241390639"><ele>268.0</ele><time>2026-05-02T07:50:58Z</time></trkpt><trkpt lat="42.948140262417084" lon="13.715368747265106"><ele>270.75</ele><time>2026-05-02T07:50:59Z</time></trkpt><trkpt lat="42.94822675628203" lon="13.715218260276393"><ele>273.5</ele><time>2026-05-02T07:51:00Z</time></trkpt><trkpt lat="42.94828901735875" lon="13.715039962876917"><ele>276.25</ele><time>2026-05-02T07:51:01Z</time></trkpt><trkpt lat="42.94831377702254" lon="13.714830908520828"><ele>279.0</ele><time>2026-05-02T07:51:02Z</time></trkpt><trkpt lat="42.94831827616815" lon="13.714600358995135"><ele>280.6666666666667</ele><time>2026-05-02T07:51:03Z</time></trkpt><trkpt lat="42.94832779355481" lon="13.714353572255298"><ele>282.33333333333337</ele><time>2026-05-02T07:51:04Z</time></trkpt><trkpt lat="42.94839116270458" lon="13.714112022848354"><ele>284.0</ele><time>2026-05-02T07:51:05Z</time></trkpt><trkpt lat="42.94844797867213" lon="13.713855363284212"><ele>279.0</ele><time>2026-05-02T07:51:06Z</time></trkpt><trkpt lat="42.94850964021217" lon="13.71360248735039"><ele>274.0</ele><time>2026-05-02T07:51:07Z</time></trkpt><trkpt lat="42.94853044652027" lon="13.71333249464809"><ele>269.0</ele><time>2026-05-02T07:51:08Z</time></trkpt><trkpt lat="42.948530054139695" lon="13.713054583547134"><ele>269.0</ele><time>2026-05-02T07:51:09Z</time></trkpt><trkpt lat="42.948522450572696" lon="13.7127740512911"><ele>269.0</ele><time>2026-05-02T07:51:10Z</time></trkpt><trkpt lat="42.94851578597778" lon="13.712495378836909"><ele>269.0</ele><time>2026-05-02T07:51:11Z</time></trkpt><trkpt lat="42.94851020784735" lon="13.712213359565983"><ele>269.6666666666667</ele><time>2026-05-02T07:51:12Z</time></trkpt><trkpt lat="42.94850377829464" lon="13.711933402003531"><ele>270.3333333333333</ele><time>2026-05-02T07:51:13Z</time></trkpt><trkpt lat="42.94850173166314" lon="13.711648932927746"><ele>271.0</ele><time>2026-05-02T07:51:14Z</time></trkpt><trkpt lat="42.94851429301253" lon="13.711363502404813"><ele>271.66666666666663</ele><time>2026-05-02T07:51:15Z</time></trkpt><trkpt lat="42.948512707742466" lon="13.711074951176226"><ele>272.3333333333333</ele><time>2026-05-02T07:51:16Z</time></trkpt><trkpt lat="42.94851195213269" lon="13.710785231238448"><ele>273.0</ele><time>2026-05-02T07:51:17Z</time></trkpt><trkpt lat="42.94850679293629" lon="13.710501710131288"><ele>277.0</ele><time>2026-05-02T07:51:18Z</time></trkpt><trkpt lat="42.94851993530467" lon="13.710208718133014"><ele>281.0</ele><time>2026-05-02T07:51:19Z</time></trkpt><trkpt lat="42.94852855740054" lon="13.70990971474721"><ele>285.0</ele><time>2026-05-02T07:51:20Z</time></trkpt><trkpt lat="42.94853719386952" lon="13.709614031267636"><ele>286.6666666666667</ele><time>2026-05-02T07:51:21Z</time></trkpt><trkpt lat="42.94854704576047" lon="13.709325749495711"><ele>288.33333333333337</ele><time>2026-05-02T07:51:22Z</time></trkpt><trkpt lat="42.948567467243016" lon="13.709033691934316"><ele>290.0</ele><time>2026-05-02T07:51:23Z</time></trkpt><trkpt lat="42.94860719934689" lon="13.70874857317171"><ele>292.0</ele><time>2026-05-02T07:51:24Z</time></trkpt><trkpt lat="42.94865213672769" lon="13.708485559253065"><ele>294.0</ele><time>2026-05-02T07:51:25Z</time></trkpt><trkpt lat="42.94868730313892" lon="13.70825811942234"><ele>296.0</ele><time>2026-05-02T07:51:26Z</time></trkpt><trkpt lat="42.94872349442415" lon="13.708056553381793"><ele>296.0</ele><time>2026-05-02T07:51:27Z</time></trkpt><trkpt lat="42.94874439165003" lon="13.707868278382422"><ele>296.0</ele><time>2026-05-02T07:51:28Z</time></trkpt><trkpt lat="42.94874317020422" lon="13.707687524272941"><ele>296.0</ele><time>2026-05-02T07:51:29Z</time></trkpt><trkpt lat="42.94871339049791" lon="13.707528319367771"><ele>296.0</ele><time>2026-05-02T07:51:30Z</time></trkpt><trkpt lat="42.948641306547565" lon="13.70736702053611"><ele>297.0</ele><time>2026-05-02T07:51:31Z</time></trkpt><trkpt lat="42.94857414750559" lon="13.707232698618155"><ele>298.0</ele><time>2026-05-02T07:51:32Z</time></trkpt><trkpt lat="42.94851808698302" lon="13.707082773563021"><ele>299.0</ele><time>2026-05-02T07:51:33Z</time></trkpt><trkpt lat="42.9483689848599" lon="13.706976310880776"><ele>300.0</ele><time>2026-05-02T07:51:34Z</time></trkpt><trkpt lat="42.94824744052111" lon="13.706827811081153"><ele>302.0</ele><time>2026-05-02T07:51:35Z</time></trkpt><trkpt lat="42.948114405539755" lon="13.706665586320286"><ele>304.0</ele><time>2026-05-02T07:51:36Z</time></trkpt><trkpt lat="42.94797224068067" lon="13.706494091223577"><ele>306.0</ele><time>2026-05-02T07:51:37Z</time></trkpt><trkpt lat="42.94783163842463" lon="13.706337933004042"><ele>306.0</ele><time>2026-05-02T07:51:38Z</time></trkpt><trkpt lat="42.94768025743728" lon="13.706175736809724"><ele>306.0</ele><time>2026-05-02T07:51:39Z</time></trkpt><trkpt lat="42.94752586008946" lon="13.70602058461802"><ele>306.0</ele><time>2026-05-02T07:51:40Z</time></trkpt><trkpt lat="42.94737094653706" lon="13.705885230795813"><ele>302.6666666666667</ele><time>2026-05-02T07:51:41Z</time></trkpt><trkpt lat="42.9472077050144" lon="13.705757096528032"><ele>299.33333333333337</ele><time>2026-05-02T07:51:42Z</time></trkpt><trkpt lat="42.947034428047516" lon="13.705638308655903"><ele>296.0</ele><time>2026-05-02T07:51:43Z</time></trkpt><trkpt lat="42.94685368974184" lon="13.705519891210821"><ele>296.0</ele><time>2026-05-02T07:51:44Z</time></trkpt><trkpt lat="42.94667724011122" lon="13.70538319044885"><ele>296.0</ele><time>2026-05-02T07:51:45Z</time></trkpt><trkpt lat="42.94650959618194" lon="13.705233878311704"><ele>296.0</ele><time>2026-05-02T07:51:46Z</time></trkpt><trkpt lat="42.94635138534272" lon="13.705088605685187"><ele>296.0</ele><time>2026-05-02T07:51:47Z</time></trkpt><trkpt lat="42.94619468105705" lon="13.704945077285462"><ele>296.0</ele><time>2026-05-02T07:51:48Z</time></trkpt><trkpt lat="42.94604358126658" lon="13.704813197192257"><ele>296.0</ele><time>2026-05-02T07:51:49Z</time></trkpt><trkpt lat="42.945892581921484" lon="13.704688631666775"><ele>292.6666666666667</ele><time>2026-05-02T07:51:50Z</time></trkpt><trkpt lat="42.945741595937534" lon="13.704569256174352"><ele>289.3333333333333</ele><time>2026-05-02T07:51:51Z</time></trkpt><trkpt lat="42.94559068324499" lon="13.704451947109353"><ele>286.0</ele><time>2026-05-02T07:51:52Z</time></trkpt><trkpt lat="42.945440335580926" lon="13.70433690079279"><ele>286.0</ele><time>2026-05-02T07:51:53Z</time></trkpt><trkpt lat="42.9452863496847" lon="13.704220649677566"><ele>286.0</ele><time>2026-05-02T07:51:54Z</time></trkpt><trkpt lat="42.94513375763233" lon="13.704105358523561"><ele>286.0</ele><time>2026-05-02T07:51:55Z</time></trkpt><trkpt lat="42.9449811709578" lon="13.703994509491393"><ele>283.0</ele><time>2026-05-02T07:51:56Z</time></trkpt><trkpt lat="42.94482707979301" lon="13.703890257538399"><ele>280.0</ele><time>2026-05-02T07:51:57Z</time></trkpt><trkpt lat="42.944665693061005" lon="13.703788297536256"><ele>277.0</ele><time>2026-05-02T07:51:58Z</time></trkpt><trkpt lat="42.94450263705238" lon="13.70369112748468"><ele>277.0</ele><time>2026-05-02T07:51:59Z</time></trkpt><trkpt lat="42.94434265717389" lon="13.7035896996189"><ele>277.0</ele><time>2026-05-02T07:52:00Z</time></trkpt><trkpt lat="42.944180442606424" lon="13.703485358924661"><ele>277.0</ele><time>2026-05-02T07:52:01Z</time></trkpt><trkpt lat="42.94401041474363" lon="13.703381533733703"><ele>279.0</ele><time>2026-05-02T07:52:02Z</time></trkpt><trkpt lat="42.94383714690865" lon="13.703279555460965"><ele>281.0</ele><time>2026-05-02T07:52:03.001Z</time></trkpt><trkpt lat="42.94366461411723" lon="13.703178092139316"><ele>283.0</ele><time>2026-05-02T07:52:04.001Z</time></trkpt><trkpt lat="42.94349059374766" lon="13.70307258780144"><ele>281.0</ele><time>2026-05-02T07:52:05.001Z</time></trkpt><trkpt lat="42.94331333599731" lon="13.702967219657536"><ele>279.0</ele><time>2026-05-02T07:52:06.001Z</time></trkpt><trkpt lat="42.943133760350115" lon="13.702862920101282"><ele>277.0</ele><time>2026-05-02T07:52:07.001Z</time></trkpt><trkpt lat="42.942948054261805" lon="13.70275512181031"><ele>276.0</ele><time>2026-05-02T07:52:08.001Z</time></trkpt><trkpt lat="42.94275971176859" lon="13.702657913402396"><ele>275.0</ele><time>2026-05-02T07:52:09.001Z</time></trkpt><trkpt lat="42.94256716158963" lon="13.70256787619407"><ele>274.0</ele><time>2026-05-02T07:52:10.001Z</time></trkpt><trkpt lat="42.94237273022763" lon="13.702486961803487"><ele>274.0</ele><time>2026-05-02T07:52:11.001Z</time></trkpt><trkpt lat="42.94217339268301" lon="13.702409037171641"><ele>274.0</ele><time>2026-05-02T07:52:12.001Z</time></trkpt><trkpt lat="42.941972464618665" lon="13.702338594981399"><ele>274.0</ele><time>2026-05-02T07:52:13.001Z</time></trkpt><trkpt lat="42.94176000193508" lon="13.702268380797792"><ele>270.66666666666663</ele><time>2026-05-02T07:52:14.001Z</time></trkpt><trkpt lat="42.94156307019597" lon="13.702216096452876"><ele>267.3333333333333</ele><time>2026-05-02T07:52:15.001Z</time></trkpt><trkpt lat="42.941359283353755" lon="13.702169176040409"><ele>264.0</ele><time>2026-05-02T07:52:16.001Z</time></trkpt><trkpt lat="42.94116280681821" lon="13.702139993546336"><ele>264.0</ele><time>2026-05-02T07:52:17.001Z</time></trkpt><trkpt lat="42.940970378137145" lon="13.702114587581725"><ele>264.0</ele><time>2026-05-02T07:52:18.001Z</time></trkpt><trkpt lat="42.940768587209085" lon="13.70209733817566"><ele>264.0</ele><time>2026-05-02T07:52:19.001Z</time></trkpt><trkpt lat="42.94058282269643" lon="13.702076752320282"><ele>264.6666666666667</ele><time>2026-05-02T07:52:20.001Z</time></trkpt><trkpt lat="42.940387111670994" lon="13.702065001848272"><ele>265.33333333333337</ele><time>2026-05-02T07:52:21.001Z</time></trkpt><trkpt lat="42.94018740332919" lon="13.702070254435807"><ele>266.0</ele><time>2026-05-02T07:52:22.001Z</time></trkpt><trkpt lat="42.939991709857" lon="13.702084298363557"><ele>269.0</ele><time>2026-05-02T07:52:23.001Z</time></trkpt><trkpt lat="42.9397955185348" lon="13.702115345487686"><ele>272.0</ele><time>2026-05-02T07:52:24.001Z</time></trkpt><trkpt lat="42.93959321299893" lon="13.702125887663684"><ele>275.0</ele><time>2026-05-02T07:52:25.001Z</time></trkpt><trkpt lat="42.93939977471435" lon="13.70215995087277"><ele>275.0</ele><time>2026-05-02T07:52:26.001Z</time></trkpt><trkpt lat="42.93922896109972" lon="13.702196596726543"><ele>275.0</ele><time>2026-05-02T07:52:27Z</time></trkpt><trkpt lat="42.93906712996805" lon="13.702232947543338"><ele>275.0</ele><time>2026-05-02T07:52:28Z</time></trkpt><trkpt lat="42.93889979281198" lon="13.70228146579676"><ele>277.0</ele><time>2026-05-02T07:52:29Z</time></trkpt><trkpt lat="42.93873707411036" lon="13.70233622813941"><ele>279.0</ele><time>2026-05-02T07:52:30Z</time></trkpt><trkpt lat="42.938556121043554" lon="13.702385981330071"><ele>281.0</ele><time>2026-05-02T07:52:31Z</time></trkpt><trkpt lat="42.93836739702957" lon="13.702455723578286"><ele>283.0</ele><time>2026-05-02T07:52:32Z</time></trkpt><trkpt lat="42.93815596184886" lon="13.70253942072305"><ele>285.0</ele><time>2026-05-02T07:52:33Z</time></trkpt><trkpt lat="42.93794026498012" lon="13.70263207074392"><ele>287.0</ele><time>2026-05-02T07:52:34Z</time></trkpt><trkpt lat="42.937709160140656" lon="13.702734588242533"><ele>284.0</ele><time>2026-05-02T07:52:35Z</time></trkpt><trkpt lat="42.93747491924864" lon="13.702838972441954"><ele>281.0</ele><time>2026-05-02T07:52:36Z</time></trkpt><trkpt lat="42.937250977734166" lon="13.702956807695978"><ele>281.0</ele><time>2026-05-02T07:52:37Z</time></trkpt><trkpt lat="42.93702730790865" lon="13.703050125214288"><ele>281.0</ele><time>2026-05-02T07:52:38Z</time></trkpt><trkpt lat="42.9367990929304" lon="13.703145249724846"><ele>285.5</ele><time>2026-05-02T07:52:39Z</time></trkpt><trkpt lat="42.93656713845949" lon="13.70324032188394"><ele>290.0</ele><time>2026-05-02T07:52:40Z</time></trkpt><trkpt lat="42.93633692361041" lon="13.703337182964106"><ele>290.0</ele><time>2026-05-02T07:52:41Z</time></trkpt><trkpt lat="42.9361225201064" lon="13.703426394014917"><ele>290.0</ele><time>2026-05-02T07:52:42Z</time></trkpt><trkpt lat="42.935905903712964" lon="13.703514358915486"><ele>289.0</ele><time>2026-05-02T07:52:43Z</time></trkpt><trkpt lat="42.93568728257564" lon="13.703596390900142"><ele>288.0</ele><time>2026-05-02T07:52:44Z</time></trkpt><trkpt lat="42.935464346255685" lon="13.703673692315999"><ele>288.0</ele><time>2026-05-02T07:52:45Z</time></trkpt><trkpt lat="42.93523702021837" lon="13.703747686692363"><ele>288.0</ele><time>2026-05-02T07:52:46Z</time></trkpt><trkpt lat="42.93501348589541" lon="13.70381696224591"><ele>289.0</ele><time>2026-05-02T07:52:47Z</time></trkpt><trkpt lat="42.93478523154083" lon="13.703890031768891"><ele>290.0</ele><time>2026-05-02T07:52:48Z</time></trkpt><trkpt lat="42.934549738768226" lon="13.703967993022676"><ele>290.0</ele><time>2026-05-02T07:52:49Z</time></trkpt><trkpt lat="42.934325613097215" lon="13.704041405840762"><ele>290.0</ele><time>2026-05-02T07:52:50Z</time></trkpt><trkpt lat="42.93411619165899" lon="13.704107923900102"><ele>290.0</ele><time>2026-05-02T07:52:51Z</time></trkpt><trkpt lat="42.93390217401283" lon="13.704179390828266"><ele>288.0</ele><time>2026-05-02T07:52:52Z</time></trkpt><trkpt lat="42.933680046433814" lon="13.704252065907093"><ele>286.0</ele><time>2026-05-02T07:52:53Z</time></trkpt><trkpt lat="42.93346345695972" lon="13.70432332024046"><ele>285.0</ele><time>2026-05-02T07:52:54Z</time></trkpt><trkpt lat="42.93326166495518" lon="13.704383697462186"><ele>284.0</ele><time>2026-05-02T07:52:55Z</time></trkpt><trkpt lat="42.93305909214311" lon="13.704446319407824"><ele>283.0</ele><time>2026-05-02T07:52:56Z</time></trkpt><trkpt lat="42.932850324722736" lon="13.704512888404839"><ele>279.3333333333333</ele><time>2026-05-02T07:52:57Z</time></trkpt><trkpt lat="42.93264613685242" lon="13.704578006135264"><ele>275.6666666666667</ele><time>2026-05-02T07:52:58Z</time></trkpt><trkpt lat="42.93243981894259" lon="13.704644545253998"><ele>272.0</ele><time>2026-05-02T07:52:59Z</time></trkpt><trkpt lat="42.932241806173145" lon="13.704707347227428"><ele>271.0</ele><time>2026-05-02T07:53:00Z</time></trkpt><trkpt lat="42.932056700226454" lon="13.704759400110955"><ele>270.0</ele><time>2026-05-02T07:53:01Z</time></trkpt><trkpt lat="42.931876662128445" lon="13.70479594864422"><ele>269.0</ele><time>2026-05-02T07:53:02Z</time></trkpt><trkpt lat="42.931700292371104" lon="13.70479519997008"><ele>267.33333333333337</ele><time>2026-05-02T07:53:03Z</time></trkpt><trkpt lat="42.93152227615242" lon="13.704761214010356"><ele>265.6666666666667</ele><time>2026-05-02T07:53:04Z</time></trkpt><trkpt lat="42.93133070577272" lon="13.704699779290992"><ele>264.0</ele><time>2026-05-02T07:53:05Z</time></trkpt><trkpt lat="42.931140285727835" lon="13.704600673496579"><ele>264.0</ele><time>2026-05-02T07:53:06Z</time></trkpt><trkpt lat="42.93097179458744" lon="13.704477284806607"><ele>264.0</ele><time>2026-05-02T07:53:07Z</time></trkpt><trkpt lat="42.93081126077638" lon="13.704333203408744"><ele>264.0</ele><time>2026-05-02T07:53:08Z</time></trkpt><trkpt lat="42.93065332226351" lon="13.704169128704729"><ele>263.6666666666667</ele><time>2026-05-02T07:53:09Z</time></trkpt><trkpt lat="42.93052145426392" lon="13.703982662274703"><ele>263.33333333333337</ele><time>2026-05-02T07:53:10Z</time></trkpt><trkpt lat="42.930407509610994" lon="13.703782789585567"><ele>263.0</ele><time>2026-05-02T07:53:11Z</time></trkpt><trkpt lat="42.93031037472271" lon="13.703558237635885"><ele>266.33333333333337</ele><time>2026-05-02T07:53:12Z</time></trkpt><trkpt lat="42.93022809515047" lon="13.70329881650732"><ele>269.6666666666667</ele><time>2026-05-02T07:53:13Z</time></trkpt><trkpt lat="42.930164821982224" lon="13.703013299958997"><ele>273.0</ele><time>2026-05-02T07:53:14Z</time></trkpt><trkpt lat="42.9301169579676" lon="13.702717836058179"><ele>274.0</ele><time>2026-05-02T07:53:15Z</time></trkpt><trkpt lat="42.93007352236995" lon="13.702433144096336"><ele>275.0</ele><time>2026-05-02T07:53:16Z</time></trkpt><trkpt lat="42.93003017848309" lon="13.702178398592956"><ele>276.0</ele><time>2026-05-02T07:53:17Z</time></trkpt><trkpt lat="42.92997628763281" lon="13.70193870172456"><ele>271.75</ele><time>2026-05-02T07:53:18Z</time></trkpt><trkpt lat="42.92992270439092" lon="13.70174481614278"><ele>267.5</ele><time>2026-05-02T07:53:19Z</time></trkpt><trkpt lat="42.92986763496588" lon="13.701557634865358"><ele>263.25</ele><time>2026-05-02T07:53:20Z</time></trkpt><trkpt lat="42.92982451531986" lon="13.701402286280754"><ele>259.0</ele><time>2026-05-02T07:53:21Z</time></trkpt><trkpt lat="42.929783763552436" lon="13.701277989218543"><ele>259.0</ele><time>2026-05-02T07:53:22Z</time></trkpt><trkpt lat="42.929751542152516" lon="13.701168418653543"><ele>259.0</ele><time>2026-05-02T07:53:23Z</time></trkpt><trkpt lat="42.92972403329327" lon="13.701077641113447"><ele>259.0</ele><time>2026-05-02T07:53:24Z</time></trkpt><trkpt lat="42.929692333433096" lon="13.7009677074672"><ele>259.0</ele><time>2026-05-02T07:53:26Z</time></trkpt><trkpt lat="42.92965648930509" lon="13.70084640971364"><ele>259.0</ele><time>2026-05-02T07:53:40Z</time></trkpt><trkpt lat="42.929618983854894" lon="13.700776992413987"><ele>259.0</ele><time>2026-05-02T07:53:41Z</time></trkpt><trkpt lat="42.92955745128952" lon="13.700715594911289"><ele>257.4</ele><time>2026-05-02T07:53:42Z</time></trkpt><trkpt lat="42.929476517178394" lon="13.700657212296063"><ele>255.79999999999998</ele><time>2026-05-02T07:53:43Z</time></trkpt><trkpt lat="42.92938985923397" lon="13.70060463739774"><ele>254.20000000000002</ele><time>2026-05-02T07:53:44Z</time></trkpt><trkpt lat="42.92929403201461" lon="13.700542602992343"><ele>252.60000000000002</ele><time>2026-05-02T07:53:45Z</time></trkpt><trkpt lat="42.92918611739212" lon="13.70045726341484"><ele>251.0</ele><time>2026-05-02T07:53:46Z</time></trkpt><trkpt lat="42.9290753094936" lon="13.700350073297528"><ele>249.66666666666669</ele><time>2026-05-02T07:53:47Z</time></trkpt><trkpt lat="42.928978131658496" lon="13.700202671273447"><ele>248.33333333333331</ele><time>2026-05-02T07:53:48Z</time></trkpt><trkpt lat="42.92888622855516" lon="13.700025199059729"><ele>247.0</ele><time>2026-05-02T07:53:49Z</time></trkpt><trkpt lat="42.92880730048683" lon="13.69981796511744"><ele>247.0</ele><time>2026-05-02T07:53:50Z</time></trkpt><trkpt lat="42.928771593134854" lon="13.699603056530123"><ele>247.0</ele><time>2026-05-02T07:53:51Z</time></trkpt><trkpt lat="42.928755343058874" lon="13.699364297819962"><ele>247.0</ele><time>2026-05-02T07:53:52Z</time></trkpt><trkpt lat="42.92876241261132" lon="13.699134948270398"><ele>246.66666666666666</ele><time>2026-05-02T07:53:53Z</time></trkpt><trkpt lat="42.92877793790097" lon="13.698923336537602"><ele>246.33333333333331</ele><time>2026-05-02T07:53:54Z</time></trkpt><trkpt lat="42.928790461593444" lon="13.69872199160211"><ele>246.0</ele><time>2026-05-02T07:53:55Z</time></trkpt><trkpt lat="42.92880093733532" lon="13.698509332780075"><ele>245.33333333333331</ele><time>2026-05-02T07:53:56Z</time></trkpt><trkpt lat="42.92880815354879" lon="13.698272481203517"><ele>244.66666666666666</ele><time>2026-05-02T07:53:56.999Z</time></trkpt><trkpt lat="42.92881431161204" lon="13.69802051640148"><ele>244.0</ele><time>2026-05-02T07:53:57.999Z</time></trkpt><trkpt lat="42.92882489407451" lon="13.697759143601743"><ele>243.33333333333331</ele><time>2026-05-02T07:53:58.999Z</time></trkpt><trkpt lat="42.928837730763476" lon="13.69748748789793"><ele>242.66666666666669</ele><time>2026-05-02T07:53:59.999Z</time></trkpt><trkpt lat="42.92885189651195" lon="13.697224191697657"><ele>242.0</ele><time>2026-05-02T07:54:00.999Z</time></trkpt><trkpt lat="42.92886437917978" lon="13.696952357939255"><ele>240.33333333333334</ele><time>2026-05-02T07:54:01.999Z</time></trkpt><trkpt lat="42.92887542911087" lon="13.696674391668573"><ele>238.66666666666669</ele><time>2026-05-02T07:54:02.999Z</time></trkpt><trkpt lat="42.928883079718176" lon="13.696404657788685"><ele>237.0</ele><time>2026-05-02T07:54:03.999Z</time></trkpt><trkpt lat="42.92889516333196" lon="13.69615292246578"><ele>235.0</ele><time>2026-05-02T07:54:04.999Z</time></trkpt><trkpt lat="42.928908355715706" lon="13.69590968041053"><ele>233.0</ele><time>2026-05-02T07:54:05.999Z</time></trkpt><trkpt lat="42.9289182200867" lon="13.695681695206794"><ele>231.0</ele><time>2026-05-02T07:54:06.999Z</time></trkpt><trkpt lat="42.92892408673752" lon="13.69547552550917"><ele>231.0</ele><time>2026-05-02T07:54:07.999Z</time></trkpt><trkpt lat="42.92892375968343" lon="13.69528597713351"><ele>231.0</ele><time>2026-05-02T07:54:09.001Z</time></trkpt><trkpt lat="42.92890743479629" lon="13.695106368953615"><ele>231.0</ele><time>2026-05-02T07:54:10.001Z</time></trkpt><trkpt lat="42.92885543095972" lon="13.694937071253593"><ele>231.0</ele><time>2026-05-02T07:54:11.001Z</time></trkpt><trkpt lat="42.928770971660576" lon="13.694768795080293"><ele>230.33333333333331</ele><time>2026-05-02T07:54:12.001Z</time></trkpt><trkpt lat="42.92864861513212" lon="13.694602590509906"><ele>229.66666666666666</ele><time>2026-05-02T07:54:13.001Z</time></trkpt><trkpt lat="42.92850739115512" lon="13.69443375603462"><ele>229.0</ele><time>2026-05-02T07:54:14.001Z</time></trkpt><trkpt lat="42.92836427049138" lon="13.694260897255235"><ele>225.0</ele><time>2026-05-02T07:54:15.001Z</time></trkpt><trkpt lat="42.92823995366092" lon="13.694088684220057"><ele>221.0</ele><time>2026-05-02T07:54:16.001Z</time></trkpt><trkpt lat="42.92812460382218" lon="13.693890192724497"><ele>217.0</ele><time>2026-05-02T07:54:17.001Z</time></trkpt><trkpt lat="42.92802898070028" lon="13.693664903653616"><ele>219.0</ele><time>2026-05-02T07:54:18.001Z</time></trkpt><trkpt lat="42.92796233441599" lon="13.693424077163248"><ele>221.0</ele><time>2026-05-02T07:54:19.001Z</time></trkpt><trkpt lat="42.92792140996312" lon="13.693166266776123"><ele>223.0</ele><time>2026-05-02T07:54:20.001Z</time></trkpt><trkpt lat="42.92790107811238" lon="13.692886113832603"><ele>222.66666666666666</ele><time>2026-05-02T07:54:21.001Z</time></trkpt><trkpt lat="42.927889934952766" lon="13.692594364425304"><ele>222.33333333333331</ele><time>2026-05-02T07:54:22.001Z</time></trkpt><trkpt lat="42.92788346169403" lon="13.692290093411026"><ele>222.0</ele><time>2026-05-02T07:54:23.001Z</time></trkpt><trkpt lat="42.92788537612081" lon="13.691993290692025"><ele>222.66666666666669</ele><time>2026-05-02T07:54:24.001Z</time></trkpt><trkpt lat="42.92788381541236" lon="13.69169946131357"><ele>223.33333333333334</ele><time>2026-05-02T07:54:25.001Z</time></trkpt><trkpt lat="42.92788711818267" lon="13.691402840263898"><ele>224.0</ele><time>2026-05-02T07:54:26.001Z</time></trkpt><trkpt lat="42.92791374095624" lon="13.691101763036466"><ele>223.33333333333334</ele><time>2026-05-02T07:54:27.001Z</time></trkpt><trkpt lat="42.9279516601653" lon="13.690804315851695"><ele>222.66666666666669</ele><time>2026-05-02T07:54:28Z</time></trkpt><trkpt lat="42.92799125632529" lon="13.690514178727327"><ele>222.0</ele><time>2026-05-02T07:54:29Z</time></trkpt><trkpt lat="42.928016977419325" lon="13.690239560558465"><ele>219.33333333333331</ele><time>2026-05-02T07:54:30Z</time></trkpt><trkpt lat="42.92802921437191" lon="13.689961262108456"><ele>216.66666666666666</ele><time>2026-05-02T07:54:31Z</time></trkpt><trkpt lat="42.92802655466028" lon="13.689679921466054"><ele>214.0</ele><time>2026-05-02T07:54:32Z</time></trkpt><trkpt lat="42.92800713454016" lon="13.689405836806227"><ele>208.66666666666666</ele><time>2026-05-02T07:54:33Z</time></trkpt><trkpt lat="42.92798226585019" lon="13.689140279485256"><ele>203.33333333333331</ele><time>2026-05-02T07:54:34Z</time></trkpt><trkpt lat="42.9279622141136" lon="13.688889398097668"><ele>198.0</ele><time>2026-05-02T07:54:35Z</time></trkpt><trkpt lat="42.92794076604421" lon="13.688649108389813"><ele>195.33333333333334</ele><time>2026-05-02T07:54:36Z</time></trkpt><trkpt lat="42.92788932244617" lon="13.688408707792782"><ele>192.66666666666669</ele><time>2026-05-02T07:54:37Z</time></trkpt><trkpt lat="42.92780762768715" lon="13.68817120944822"><ele>190.0</ele><time>2026-05-02T07:54:38Z</time></trkpt><trkpt lat="42.92770537752583" lon="13.687951214234264"><ele>188.66666666666669</ele><time>2026-05-02T07:54:39Z</time></trkpt><trkpt lat="42.92761819303064" lon="13.687727510273021"><ele>187.33333333333334</ele><time>2026-05-02T07:54:40Z</time></trkpt><trkpt lat="42.92753475579806" lon="13.687517406266304"><ele>186.0</ele><time>2026-05-02T07:54:41Z</time></trkpt><trkpt lat="42.927448513311745" lon="13.68731625582479"><ele>185.33333333333334</ele><time>2026-05-02T07:54:42Z</time></trkpt><trkpt lat="42.92732988942128" lon="13.687142039850979"><ele>184.66666666666669</ele><time>2026-05-02T07:54:43Z</time></trkpt><trkpt lat="42.92719226298959" lon="13.686996499881056"><ele>184.0</ele><time>2026-05-02T07:54:44Z</time></trkpt><trkpt lat="42.927042627748605" lon="13.686881506617608"><ele>183.0</ele><time>2026-05-02T07:54:45Z</time></trkpt><trkpt lat="42.92689986391304" lon="13.68675813327256"><ele>182.0</ele><time>2026-05-02T07:54:46Z</time></trkpt><trkpt lat="42.9267551090091" lon="13.686642872147658"><ele>181.0</ele><time>2026-05-02T07:54:47Z</time></trkpt><trkpt lat="42.92660610684159" lon="13.686515271101973"><ele>180.33333333333334</ele><time>2026-05-02T07:54:48Z</time></trkpt><trkpt lat="42.92645424664548" lon="13.686384174308223"><ele>179.66666666666666</ele><time>2026-05-02T07:54:49Z</time></trkpt><trkpt lat="42.926295038179966" lon="13.686257812669627"><ele>179.0</ele><time>2026-05-02T07:54:50Z</time></trkpt><trkpt lat="42.92611780157978" lon="13.686145333145696"><ele>181.33333333333331</ele><time>2026-05-02T07:54:51Z</time></trkpt><trkpt lat="42.92592122023653" lon="13.686044617790627"><ele>183.66666666666666</ele><time>2026-05-02T07:54:52Z</time></trkpt><trkpt lat="42.92570257146123" lon="13.6859449487775"><ele>186.0</ele><time>2026-05-02T07:54:53Z</time></trkpt><trkpt lat="42.92547518360761" lon="13.685875313520594"><ele>186.0</ele><time>2026-05-02T07:54:54Z</time></trkpt><trkpt lat="42.92523341944201" lon="13.685818265047422"><ele>186.0</ele><time>2026-05-02T07:54:55Z</time></trkpt><trkpt lat="42.92498205339016" lon="13.685782389427649"><ele>182.5</ele><time>2026-05-02T07:54:56Z</time></trkpt><trkpt lat="42.924727508599894" lon="13.685770575601463"><ele>179.0</ele><time>2026-05-02T07:54:57Z</time></trkpt><trkpt lat="42.92448398058032" lon="13.685772611816889"><ele>179.0</ele><time>2026-05-02T07:54:58Z</time></trkpt><trkpt lat="42.92424620446801" lon="13.685791756849945"><ele>179.0</ele><time>2026-05-02T07:54:59Z</time></trkpt><trkpt lat="42.92400317371628" lon="13.68581418601222"><ele>177.0</ele><time>2026-05-02T07:55:00Z</time></trkpt><trkpt lat="42.9237608645626" lon="13.685834128554065"><ele>175.0</ele><time>2026-05-02T07:55:01Z</time></trkpt><trkpt lat="42.923517275841974" lon="13.685849893635433"><ele>175.0</ele><time>2026-05-02T07:55:02Z</time></trkpt><trkpt lat="42.92327601354944" lon="13.685830476464067"><ele>175.0</ele><time>2026-05-02T07:55:03Z</time></trkpt><trkpt lat="42.92303947171001" lon="13.685816875092973"><ele>175.0</ele><time>2026-05-02T07:55:04Z</time></trkpt><trkpt lat="42.92281409483085" lon="13.68581734478206"><ele>175.0</ele><time>2026-05-02T07:55:05Z</time></trkpt><trkpt lat="42.92257610012319" lon="13.685776929891752"><ele>174.0</ele><time>2026-05-02T07:55:06Z</time></trkpt><trkpt lat="42.92232859684192" lon="13.685723146891629"><ele>173.0</ele><time>2026-05-02T07:55:07Z</time></trkpt><trkpt lat="42.92207831480529" lon="13.685663835500872"><ele>173.0</ele><time>2026-05-02T07:55:08Z</time></trkpt><trkpt lat="42.92185127616982" lon="13.685610017296037"><ele>173.0</ele><time>2026-05-02T07:55:09Z</time></trkpt><trkpt lat="42.92163429972879" lon="13.685567264429709"><ele>171.0</ele><time>2026-05-02T07:55:10Z</time></trkpt><trkpt lat="42.9214293690222" lon="13.685539546820387"><ele>169.0</ele><time>2026-05-02T07:55:11Z</time></trkpt><trkpt lat="42.921230327413866" lon="13.68552090670915"><ele>167.0</ele><time>2026-05-02T07:55:12Z</time></trkpt><trkpt lat="42.92103755077138" lon="13.685513150486523"><ele>166.33333333333331</ele><time>2026-05-02T07:55:13Z</time></trkpt><trkpt lat="42.92084023421417" lon="13.685517662761411"><ele>165.66666666666666</ele><time>2026-05-02T07:55:14Z</time></trkpt><trkpt lat="42.92062698394048" lon="13.685547848481391"><ele>165.0</ele><time>2026-05-02T07:55:15Z</time></trkpt><trkpt lat="42.92039593119337" lon="13.685594451270058"><ele>165.0</ele><time>2026-05-02T07:55:16Z</time></trkpt><trkpt lat="42.92014168957669" lon="13.685654051383683"><ele>165.0</ele><time>2026-05-02T07:55:17Z</time></trkpt><trkpt lat="42.91986637702544" lon="13.685715042660556"><ele>164.5</ele><time>2026-05-02T07:55:18Z</time></trkpt><trkpt lat="42.91957873043829" lon="13.685738927017859"><ele>164.0</ele><time>2026-05-02T07:55:19Z</time></trkpt><trkpt lat="42.91930690129513" lon="13.685795140019904"><ele>163.0</ele><time>2026-05-02T07:55:20Z</time></trkpt><trkpt lat="42.91905152823899" lon="13.685877259795237"><ele>162.0</ele><time>2026-05-02T07:55:21Z</time></trkpt><trkpt lat="42.91880543800837" lon="13.685941631612943"><ele>162.0</ele><time>2026-05-02T07:55:22Z</time></trkpt><trkpt lat="42.91857787490899" lon="13.68602084350881"><ele>162.0</ele><time>2026-05-02T07:55:23Z</time></trkpt><trkpt lat="42.9183635046571" lon="13.686116858854493"><ele>159.0</ele><time>2026-05-02T07:55:24Z</time></trkpt><trkpt lat="42.9181622175621" lon="13.68622032219246"><ele>156.0</ele><time>2026-05-02T07:55:25Z</time></trkpt><trkpt lat="42.91797342109537" lon="13.68632218524814"><ele>153.0</ele><time>2026-05-02T07:55:26Z</time></trkpt><trkpt lat="42.9177894624964" lon="13.686395650538204"><ele>153.0</ele><time>2026-05-02T07:55:27Z</time></trkpt><trkpt lat="42.91762801366936" lon="13.686525369022291"><ele>153.0</ele><time>2026-05-02T07:55:28Z</time></trkpt><trkpt lat="42.917466392724464" lon="13.686636932178768"><ele>153.0</ele><time>2026-05-02T07:55:29Z</time></trkpt><trkpt lat="42.91730771154305" lon="13.686743687564196"><ele>153.0</ele><time>2026-05-02T07:55:30Z</time></trkpt><trkpt lat="42.91715941811858" lon="13.686852431323372"><ele>153.0</ele><time>2026-05-02T07:55:31Z</time></trkpt><trkpt lat="42.917008377838634" lon="13.68697008364866"><ele>153.0</ele><time>2026-05-02T07:55:32Z</time></trkpt><trkpt lat="42.91686093144937" lon="13.687091423346454"><ele>151.33333333333334</ele><time>2026-05-02T07:55:33Z</time></trkpt><trkpt lat="42.9167104269607" lon="13.687207250939714"><ele>149.66666666666669</ele><time>2026-05-02T07:55:34Z</time></trkpt><trkpt lat="42.91655914019499" lon="13.6873211812476"><ele>148.0</ele><time>2026-05-02T07:55:35Z</time></trkpt><trkpt lat="42.916402681193986" lon="13.687440876196657"><ele>148.0</ele><time>2026-05-02T07:55:36Z</time></trkpt><trkpt lat="42.916236924553886" lon="13.687562351326205"><ele>148.0</ele><time>2026-05-02T07:55:37Z</time></trkpt><trkpt lat="42.91606541855303" lon="13.68768336859655"><ele>148.0</ele><time>2026-05-02T07:55:38Z</time></trkpt><trkpt lat="42.915881393876134" lon="13.687808206934456"><ele>148.33333333333334</ele><time>2026-05-02T07:55:39Z</time></trkpt><trkpt lat="42.91568642869151" lon="13.68793274852328"><ele>148.66666666666666</ele><time>2026-05-02T07:55:40Z</time></trkpt><trkpt lat="42.915484543859385" lon="13.688051923104197"><ele>149.0</ele><time>2026-05-02T07:55:41Z</time></trkpt><trkpt lat="42.91527515085763" lon="13.688164000226505"><ele>153.5</ele><time>2026-05-02T07:55:42Z</time></trkpt><trkpt lat="42.91505852746074" lon="13.688265489065284"><ele>158.0</ele><time>2026-05-02T07:55:43Z</time></trkpt><trkpt lat="42.91483733009492" lon="13.688365469688192"><ele>158.0</ele><time>2026-05-02T07:55:44Z</time></trkpt><trkpt lat="42.914617528822454" lon="13.688457856254159"><ele>158.0</ele><time>2026-05-02T07:55:45Z</time></trkpt><trkpt lat="42.91439420803856" lon="13.688547179809584"><ele>153.5</ele><time>2026-05-02T07:55:46Z</time></trkpt><trkpt lat="42.91417078739863" lon="13.688631445370019"><ele>149.0</ele><time>2026-05-02T07:55:47Z</time></trkpt><trkpt lat="42.91394820519565" lon="13.688717327442887"><ele>149.0</ele><time>2026-05-02T07:55:48Z</time></trkpt><trkpt lat="42.91372567536002" lon="13.688807505153997"><ele>149.0</ele><time>2026-05-02T07:55:49Z</time></trkpt><trkpt lat="42.91350579874893" lon="13.688907088963884"><ele>152.0</ele><time>2026-05-02T07:55:50Z</time></trkpt><trkpt lat="42.91328816474559" lon="13.689016288906469"><ele>155.0</ele><time>2026-05-02T07:55:51Z</time></trkpt><trkpt lat="42.91307079017202" lon="13.689136274421113"><ele>155.0</ele><time>2026-05-02T07:55:52Z</time></trkpt><trkpt lat="42.91285601072653" lon="13.689268282245079"><ele>155.0</ele><time>2026-05-02T07:55:53Z</time></trkpt><trkpt lat="42.91264705248505" lon="13.689418844291525"><ele>152.0</ele><time>2026-05-02T07:55:54Z</time></trkpt><trkpt lat="42.912442995339" lon="13.68959001386923"><ele>149.0</ele><time>2026-05-02T07:55:54.999Z</time></trkpt><trkpt lat="42.91224217668206" lon="13.689776086767907"><ele>149.0</ele><time>2026-05-02T07:55:55.999Z</time></trkpt><trkpt lat="42.912042454878936" lon="13.689981202467141"><ele>149.0</ele><time>2026-05-02T07:55:56.999Z</time></trkpt><trkpt lat="42.911849384057284" lon="13.690203554260611"><ele>148.5</ele><time>2026-05-02T07:55:57.999Z</time></trkpt><trkpt lat="42.91166408275421" lon="13.690443995498594"><ele>148.0</ele><time>2026-05-02T07:55:58.999Z</time></trkpt><trkpt lat="42.91148882413831" lon="13.690695641212828"><ele>148.0</ele><time>2026-05-02T07:55:59.999Z</time></trkpt><trkpt lat="42.9113305654694" lon="13.690934304510396"><ele>148.0</ele><time>2026-05-02T07:56:00.999Z</time></trkpt><trkpt lat="42.91118312471701" lon="13.691163735662885"><ele>149.33333333333334</ele><time>2026-05-02T07:56:01.999Z</time></trkpt><trkpt lat="42.91103868395801" lon="13.691388045841082"><ele>150.66666666666666</ele><time>2026-05-02T07:56:02.999Z</time></trkpt><trkpt lat="42.91089924813101" lon="13.691595943969052"><ele>152.0</ele><time>2026-05-02T07:56:03.999Z</time></trkpt><trkpt lat="42.91076459273024" lon="13.69179986931219"><ele>149.0</ele><time>2026-05-02T07:56:04.999Z</time></trkpt><trkpt lat="42.910621778296175" lon="13.6920020535628"><ele>146.0</ele><time>2026-05-02T07:56:05.999Z</time></trkpt><trkpt lat="42.910482222279484" lon="13.692213342947737"><ele>143.0</ele><time>2026-05-02T07:56:06.999Z</time></trkpt><trkpt lat="42.91034643266071" lon="13.692401333969304"><ele>143.0</ele><time>2026-05-02T07:56:07.999Z</time></trkpt><trkpt lat="42.910200512178086" lon="13.692590223030026"><ele>143.0</ele><time>2026-05-02T07:56:08.999Z</time></trkpt><trkpt lat="42.91004834526744" lon="13.692778954304048"><ele>143.0</ele><time>2026-05-02T07:56:09.999Z</time></trkpt><trkpt lat="42.909897127245024" lon="13.69296275755128"><ele>142.33333333333331</ele><time>2026-05-02T07:56:10.999Z</time></trkpt><trkpt lat="42.909745992592526" lon="13.69313320943025"><ele>141.66666666666666</ele><time>2026-05-02T07:56:11.999Z</time></trkpt><trkpt lat="42.90958196717609" lon="13.693319113027666"><ele>141.0</ele><time>2026-05-02T07:56:12.999Z</time></trkpt><trkpt lat="42.90939631448361" lon="13.69351548423752"><ele>139.0</ele><time>2026-05-02T07:56:13.999Z</time></trkpt><trkpt lat="42.9091945646362" lon="13.693707411915248"><ele>137.0</ele><time>2026-05-02T07:56:15.001Z</time></trkpt><trkpt lat="42.90897336365756" lon="13.693888863663323"><ele>137.0</ele><time>2026-05-02T07:56:16.001Z</time></trkpt><trkpt lat="42.90874420024298" lon="13.694065617484798"><ele>137.0</ele><time>2026-05-02T07:56:17.001Z</time></trkpt><trkpt lat="42.90850245348462" lon="13.694239804010284"><ele>134.5</ele><time>2026-05-02T07:56:18.001Z</time></trkpt><trkpt lat="42.908258443508814" lon="13.694417574659822"><ele>132.0</ele><time>2026-05-02T07:56:19.001Z</time></trkpt><trkpt lat="42.90802536909744" lon="13.69457477897533"><ele>132.0</ele><time>2026-05-02T07:56:20.001Z</time></trkpt><trkpt lat="42.907805839471784" lon="13.694724328118147"><ele>132.0</ele><time>2026-05-02T07:56:21.001Z</time></trkpt><trkpt lat="42.907596968829964" lon="13.694859408385279"><ele>130.33333333333334</ele><time>2026-05-02T07:56:22.001Z</time></trkpt><trkpt lat="42.90740110875966" lon="13.69498955902426"><ele>128.66666666666669</ele><time>2026-05-02T07:56:23.001Z</time></trkpt><trkpt lat="42.907205837348734" lon="13.69512174654466"><ele>127.0</ele><time>2026-05-02T07:56:24.001Z</time></trkpt><trkpt lat="42.907007201191625" lon="13.695256650185536"><ele>127.0</ele><time>2026-05-02T07:56:25.001Z</time></trkpt><trkpt lat="42.906810186434456" lon="13.695391134847428"><ele>127.0</ele><time>2026-05-02T07:56:26.001Z</time></trkpt><trkpt lat="42.90662224468611" lon="13.695522060499776"><ele>127.0</ele><time>2026-05-02T07:56:27.001Z</time></trkpt><trkpt lat="42.90644654438753" lon="13.695635778483359"><ele>128.33333333333334</ele><time>2026-05-02T07:56:28.001Z</time></trkpt><trkpt lat="42.90626944006764" lon="13.695758588868483"><ele>129.66666666666666</ele><time>2026-05-02T07:56:29.001Z</time></trkpt><trkpt lat="42.90609864361922" lon="13.695873883345884"><ele>131.0</ele><time>2026-05-02T07:56:30.001Z</time></trkpt><trkpt lat="42.905927197165646" lon="13.695991833007197"><ele>129.0</ele><time>2026-05-02T07:56:31.001Z</time></trkpt><trkpt lat="42.90575549938499" lon="13.696108836658412"><ele>127.0</ele><time>2026-05-02T07:56:32Z</time></trkpt><trkpt lat="42.905587008683305" lon="13.696225580942583"><ele>125.0</ele><time>2026-05-02T07:56:33Z</time></trkpt><trkpt lat="42.90542054304512" lon="13.696342126536319"><ele>125.0</ele><time>2026-05-02T07:56:34Z</time></trkpt><trkpt lat="42.90525528483573" lon="13.69645218279131"><ele>125.0</ele><time>2026-05-02T07:56:35Z</time></trkpt><trkpt lat="42.90509006900898" lon="13.69654237258871"><ele>125.0</ele><time>2026-05-02T07:56:36Z</time></trkpt><trkpt lat="42.90492413886541" lon="13.696603074498745"><ele>126.0</ele><time>2026-05-02T07:56:37Z</time></trkpt><trkpt lat="42.904749887394246" lon="13.696630583950096"><ele>127.0</ele><time>2026-05-02T07:56:38Z</time></trkpt><trkpt lat="42.90455694839569" lon="13.696616057943341"><ele>128.0</ele><time>2026-05-02T07:56:39Z</time></trkpt><trkpt lat="42.904358519148076" lon="13.696571842743149"><ele>126.0</ele><time>2026-05-02T07:56:40Z</time></trkpt><trkpt lat="42.904176874222095" lon="13.69652181998156"><ele>124.0</ele><time>2026-05-02T07:56:41Z</time></trkpt><trkpt lat="42.904000023536206" lon="13.696486283591549"><ele>122.0</ele><time>2026-05-02T07:56:42Z</time></trkpt><trkpt lat="42.903815334236064" lon="13.696497569649742"><ele>122.0</ele><time>2026-05-02T07:56:43Z</time></trkpt><trkpt lat="42.90361850212997" lon="13.69653852710593"><ele>122.0</ele><time>2026-05-02T07:56:44Z</time></trkpt><trkpt lat="42.90340938771122" lon="13.696603597463694"><ele>122.0</ele><time>2026-05-02T07:56:45Z</time></trkpt><trkpt lat="42.90318251737536" lon="13.696620087859042"><ele>124.0</ele><time>2026-05-02T07:56:46Z</time></trkpt><trkpt lat="42.90295336216986" lon="13.696717033312787"><ele>126.0</ele><time>2026-05-02T07:56:47Z</time></trkpt><trkpt lat="42.902712413500936" lon="13.696771576272923"><ele>126.5</ele><time>2026-05-02T07:56:48Z</time></trkpt><trkpt lat="42.9024748518588" lon="13.696829550432492"><ele>127.0</ele><time>2026-05-02T07:56:49Z</time></trkpt><trkpt lat="42.902236047783965" lon="13.696892623240906"><ele>123.0</ele><time>2026-05-02T07:56:50Z</time></trkpt><trkpt lat="42.90199273843851" lon="13.696957776171837"><ele>119.0</ele><time>2026-05-02T07:56:51Z</time></trkpt><trkpt lat="42.90174741877297" lon="13.697025003673872"><ele>119.0</ele><time>2026-05-02T07:56:52Z</time></trkpt><trkpt lat="42.901497611201215" lon="13.69708995132802"><ele>119.0</ele><time>2026-05-02T07:56:53Z</time></trkpt><trkpt lat="42.901248536651636" lon="13.697155866268446"><ele>119.0</ele><time>2026-05-02T07:56:54Z</time></trkpt><trkpt lat="42.900993153105176" lon="13.697222037664641"><ele>119.0</ele><time>2026-05-02T07:56:55Z</time></trkpt><trkpt lat="42.90073751299001" lon="13.697289446135539"><ele>118.0</ele><time>2026-05-02T07:56:56Z</time></trkpt><trkpt lat="42.900479328974164" lon="13.697357012159847"><ele>117.0</ele><time>2026-05-02T07:56:57Z</time></trkpt><trkpt lat="42.90022016074379" lon="13.697428023603672"><ele>116.0</ele><time>2026-05-02T07:56:58Z</time></trkpt><trkpt lat="42.89996092678294" lon="13.69749952183079"><ele>115.0</ele><time>2026-05-02T07:56:59Z</time></trkpt><trkpt lat="42.89970042566252" lon="13.69757642671115"><ele>115.0</ele><time>2026-05-02T07:57:00Z</time></trkpt><trkpt lat="42.899445081693806" lon="13.69765190036153"><ele>115.0</ele><time>2026-05-02T07:57:01Z</time></trkpt><trkpt lat="42.89920907260474" lon="13.69772010578819"><ele>111.0</ele><time>2026-05-02T07:57:02Z</time></trkpt><trkpt lat="42.898980638879955" lon="13.697787627468037"><ele>107.0</ele><time>2026-05-02T07:57:03Z</time></trkpt><trkpt lat="42.89875598829819" lon="13.69786177365421"><ele>107.0</ele><time>2026-05-02T07:57:04Z</time></trkpt><trkpt lat="42.89852478334909" lon="13.697948312829334"><ele>107.0</ele><time>2026-05-02T07:57:05Z</time></trkpt><trkpt lat="42.89829889543011" lon="13.698051597277136"><ele>107.5</ele><time>2026-05-02T07:57:06Z</time></trkpt><trkpt lat="42.898081277905725" lon="13.698186908054678"><ele>108.0</ele><time>2026-05-02T07:57:07Z</time></trkpt><trkpt lat="42.897872496437294" lon="13.698355863220112"><ele>108.0</ele><time>2026-05-02T07:57:08Z</time></trkpt><trkpt lat="42.89766263436243" lon="13.698547945695598"><ele>108.0</ele><time>2026-05-02T07:57:09Z</time></trkpt><trkpt lat="42.89745782042485" lon="13.69875858703208"><ele>107.5</ele><time>2026-05-02T07:57:10Z</time></trkpt><trkpt lat="42.897252394763946" lon="13.698981382618445"><ele>107.0</ele><time>2026-05-02T07:57:11Z</time></trkpt><trkpt lat="42.89705038838955" lon="13.6992082717461"><ele>107.5</ele><time>2026-05-02T07:57:12Z</time></trkpt><trkpt lat="42.89684606688526" lon="13.699434152937656"><ele>108.0</ele><time>2026-05-02T07:57:13Z</time></trkpt><trkpt lat="42.89664257691788" lon="13.699660791411098"><ele>108.0</ele><time>2026-05-02T07:57:14Z</time></trkpt><trkpt lat="42.89643549942397" lon="13.699886573279528"><ele>108.0</ele><time>2026-05-02T07:57:15Z</time></trkpt><trkpt lat="42.89624143287037" lon="13.700098450541606"><ele>106.5</ele><time>2026-05-02T07:57:16Z</time></trkpt><trkpt lat="42.89605586211416" lon="13.700292475110663"><ele>105.0</ele><time>2026-05-02T07:57:17Z</time></trkpt><trkpt lat="42.89586781626872" lon="13.70047271540355"><ele>105.0</ele><time>2026-05-02T07:57:18Z</time></trkpt><trkpt lat="42.895664851947174" lon="13.700631255287083"><ele>105.0</ele><time>2026-05-02T07:57:19Z</time></trkpt><trkpt lat="42.89544350753103" lon="13.700743112888981"><ele>105.0</ele><time>2026-05-02T07:57:20Z</time></trkpt><trkpt lat="42.895210921760956" lon="13.700795191245767"><ele>105.0</ele><time>2026-05-02T07:57:21Z</time></trkpt><trkpt lat="42.894976279921615" lon="13.700856545263523"><ele>106.5</ele><time>2026-05-02T07:57:22Z</time></trkpt><trkpt lat="42.89472851759357" lon="13.700853906870812"><ele>108.0</ele><time>2026-05-02T07:57:23Z</time></trkpt><trkpt lat="42.89447892824654" lon="13.700821926530526"><ele>107.5</ele><time>2026-05-02T07:57:24Z</time></trkpt><trkpt lat="42.89423307019043" lon="13.700729322117235"><ele>107.0</ele><time>2026-05-02T07:57:25Z</time></trkpt><trkpt lat="42.8939797400381" lon="13.700648932238435"><ele>107.0</ele><time>2026-05-02T07:57:26Z</time></trkpt><trkpt lat="42.893728110351915" lon="13.700569675353636"><ele>107.0</ele><time>2026-05-02T07:57:27Z</time></trkpt><trkpt lat="42.89347424964306" lon="13.700528842761983"><ele>104.0</ele><time>2026-05-02T07:57:28Z</time></trkpt><trkpt lat="42.893214796601995" lon="13.700510370331758"><ele>101.0</ele><time>2026-05-02T07:57:29Z</time></trkpt><trkpt lat="42.89295342901013" lon="13.700513804820586"><ele>101.0</ele><time>2026-05-02T07:57:30Z</time></trkpt><trkpt lat="42.89269232813751" lon="13.70053552253503"><ele>101.0</ele><time>2026-05-02T07:57:31Z</time></trkpt><trkpt lat="42.89242934735473" lon="13.700565580746913"><ele>100.5</ele><time>2026-05-02T07:57:32Z</time></trkpt><trkpt lat="42.89216622284432" lon="13.70059127235479"><ele>100.0</ele><time>2026-05-02T07:57:33Z</time></trkpt><trkpt lat="42.89190238563099" lon="13.700613327611224"><ele>102.0</ele><time>2026-05-02T07:57:34Z</time></trkpt><trkpt lat="42.89163908269849" lon="13.700637079487402"><ele>104.0</ele><time>2026-05-02T07:57:35Z</time></trkpt><trkpt lat="42.891375593811354" lon="13.700665489276677"><ele>104.0</ele><time>2026-05-02T07:57:36Z</time></trkpt><trkpt lat="42.89112861882855" lon="13.70068186039559"><ele>104.0</ele><time>2026-05-02T07:57:37Z</time></trkpt><trkpt lat="42.89089389400863" lon="13.70070282265967"><ele>102.5</ele><time>2026-05-02T07:57:38Z</time></trkpt><trkpt lat="42.890668888845646" lon="13.700727214944742"><ele>101.0</ele><time>2026-05-02T07:57:39Z</time></trkpt><trkpt lat="42.89044546191421" lon="13.700751027398463"><ele>101.0</ele><time>2026-05-02T07:57:40Z</time></trkpt><trkpt lat="42.890233975893295" lon="13.700784997602568"><ele>101.0</ele><time>2026-05-02T07:57:41Z</time></trkpt><trkpt lat="42.89002906101037" lon="13.700845328136836"><ele>101.0</ele><time>2026-05-02T07:57:42Z</time></trkpt><trkpt lat="42.88981932362631" lon="13.700923242257954"><ele>100.66666666666666</ele><time>2026-05-02T07:57:43Z</time></trkpt><trkpt lat="42.88961784733439" lon="13.701030374987742"><ele>100.33333333333334</ele><time>2026-05-02T07:57:44Z</time></trkpt><trkpt lat="42.889427450398095" lon="13.701176061655861"><ele>100.0</ele><time>2026-05-02T07:57:45Z</time></trkpt><trkpt lat="42.889257498358845" lon="13.701346695184641"><ele>99.66666666666667</ele><time>2026-05-02T07:57:46Z</time></trkpt><trkpt lat="42.88910469787412" lon="13.701520997526984"><ele>99.33333333333334</ele><time>2026-05-02T07:57:47Z</time></trkpt><trkpt lat="42.88896325451481" lon="13.701717548402396"><ele>99.0</ele><time>2026-05-02T07:57:47.999Z</time></trkpt><trkpt lat="42.888822872767406" lon="13.701937566341059"><ele>97.5</ele><time>2026-05-02T07:57:48.999Z</time></trkpt><trkpt lat="42.88867106667356" lon="13.70217822631052"><ele>96.0</ele><time>2026-05-02T07:57:49.999Z</time></trkpt><trkpt lat="42.88850027301089" lon="13.702425062166295"><ele>96.0</ele><time>2026-05-02T07:57:50.999Z</time></trkpt><trkpt lat="42.888308268897184" lon="13.702664842696995"><ele>96.0</ele><time>2026-05-02T07:57:51.999Z</time></trkpt><trkpt lat="42.88812046778208" lon="13.702900779056035"><ele>96.0</ele><time>2026-05-02T07:57:52.999Z</time></trkpt><trkpt lat="42.887944713493674" lon="13.703116951894438"><ele>96.0</ele><time>2026-05-02T07:57:53.999Z</time></trkpt><trkpt lat="42.88776764539351" lon="13.703315975854506"><ele>94.66666666666667</ele><time>2026-05-02T07:57:54.999Z</time></trkpt><trkpt lat="42.88758580351835" lon="13.703493119077914"><ele>93.33333333333334</ele><time>2026-05-02T07:57:55.999Z</time></trkpt><trkpt lat="42.88741161678074" lon="13.703643147257484"><ele>92.0</ele><time>2026-05-02T07:57:56.999Z</time></trkpt><trkpt lat="42.887226084195" lon="13.70376658114103"><ele>92.0</ele><time>2026-05-02T07:57:57.999Z</time></trkpt><trkpt lat="42.88703267230918" lon="13.703876044862474"><ele>92.0</ele><time>2026-05-02T07:57:58.999Z</time></trkpt><trkpt lat="42.886831151532505" lon="13.703971538010096"><ele>92.0</ele><time>2026-05-02T07:57:59.999Z</time></trkpt><trkpt lat="42.886612060773075" lon="13.704051359701893"><ele>95.0</ele><time>2026-05-02T07:58:00.999Z</time></trkpt><trkpt lat="42.88637755787798" lon="13.704120051502779"><ele>98.0</ele><time>2026-05-02T07:58:01.999Z</time></trkpt><trkpt lat="42.88612841371022" lon="13.7041875225255"><ele>99.0</ele><time>2026-05-02T07:58:02.999Z</time></trkpt><trkpt lat="42.88587649146001" lon="13.70426332845325"><ele>100.0</ele><time>2026-05-02T07:58:03.999Z</time></trkpt><trkpt lat="42.88562084132632" lon="13.704344353925759"><ele>95.0</ele><time>2026-05-02T07:58:04.999Z</time></trkpt><trkpt lat="42.88536364911749" lon="13.704421780485587"><ele>90.0</ele><time>2026-05-02T07:58:05.999Z</time></trkpt><trkpt lat="42.88512572616314" lon="13.704498948308176"><ele>89.33333333333333</ele><time>2026-05-02T07:58:06.999Z</time></trkpt><trkpt lat="42.88490528455511" lon="13.704572078948386"><ele>88.66666666666666</ele><time>2026-05-02T07:58:07.999Z</time></trkpt><trkpt lat="42.884700595808795" lon="13.704650806182165"><ele>88.0</ele><time>2026-05-02T07:58:08.999Z</time></trkpt><trkpt lat="42.88448943836187" lon="13.70475523950245"><ele>88.0</ele><time>2026-05-02T07:58:09.999Z</time></trkpt><trkpt lat="42.88426984424438" lon="13.704899660108866"><ele>88.0</ele><time>2026-05-02T07:58:10.999Z</time></trkpt><trkpt lat="42.8840452719433" lon="13.705068928758974"><ele>88.5</ele><time>2026-05-02T07:58:11.999Z</time></trkpt><trkpt lat="42.88381567141014" lon="13.70524750718923"><ele>89.0</ele><time>2026-05-02T07:58:12.999Z</time></trkpt><trkpt lat="42.88358450698178" lon="13.70542535350417"><ele>90.0</ele><time>2026-05-02T07:58:13.999Z</time></trkpt><trkpt lat="42.88334986907967" lon="13.705602688602962"><ele>91.0</ele><time>2026-05-02T07:58:14.999Z</time></trkpt><trkpt lat="42.88312951519178" lon="13.705768622211169"><ele>91.0</ele><time>2026-05-02T07:58:15.999Z</time></trkpt><trkpt lat="42.88291943035154" lon="13.705926231747934"><ele>91.0</ele><time>2026-05-02T07:58:16.999Z</time></trkpt><trkpt lat="42.8827111018644" lon="13.706080453208209"><ele>89.0</ele><time>2026-05-02T07:58:17.999Z</time></trkpt><trkpt lat="42.882497442254184" lon="13.706226631121353"><ele>87.0</ele><time>2026-05-02T07:58:18.999Z</time></trkpt><trkpt lat="42.88227391156815" lon="13.706353004533177"><ele>87.0</ele><time>2026-05-02T07:58:19.999Z</time></trkpt><trkpt lat="42.8820426282651" lon="13.70645928938851"><ele>87.0</ele><time>2026-05-02T07:58:21Z</time></trkpt><trkpt lat="42.88181406301043" lon="13.706567926450383"><ele>88.0</ele><time>2026-05-02T07:58:22Z</time></trkpt><trkpt lat="42.881601664244165" lon="13.706671657031134"><ele>89.0</ele><time>2026-05-02T07:58:23Z</time></trkpt><trkpt lat="42.88139660290697" lon="13.706781652306427"><ele>90.0</ele><time>2026-05-02T07:58:24Z</time></trkpt><trkpt lat="42.881198289638725" lon="13.706921469384074"><ele>88.0</ele><time>2026-05-02T07:58:25Z</time></trkpt><trkpt lat="42.881004962162" lon="13.707086985872094"><ele>86.0</ele><time>2026-05-02T07:58:26Z</time></trkpt><trkpt lat="42.88082003360215" lon="13.707276782212348"><ele>86.0</ele><time>2026-05-02T07:58:27Z</time></trkpt><trkpt lat="42.88063435310204" lon="13.707486355348426"><ele>86.0</ele><time>2026-05-02T07:58:28Z</time></trkpt><trkpt lat="42.88044969406898" lon="13.707710483035761"><ele>85.0</ele><time>2026-05-02T07:58:29Z</time></trkpt><trkpt lat="42.88027994788661" lon="13.707925349701842"><ele>84.0</ele><time>2026-05-02T07:58:30Z</time></trkpt><trkpt lat="42.88011910004251" lon="13.708122743363123"><ele>83.0</ele><time>2026-05-02T07:58:31Z</time></trkpt><trkpt lat="42.87996374006752" lon="13.708307967574404"><ele>81.66666666666667</ele><time>2026-05-02T07:58:32Z</time></trkpt><trkpt lat="42.87982626404905" lon="13.708487754347376"><ele>80.33333333333333</ele><time>2026-05-02T07:58:33Z</time></trkpt><trkpt lat="42.87969667073294" lon="13.70866982395607"><ele>79.0</ele><time>2026-05-02T07:58:34Z</time></trkpt><trkpt lat="42.87956153922678" lon="13.708852833135575"><ele>79.0</ele><time>2026-05-02T07:58:35Z</time></trkpt><trkpt lat="42.879415867434815" lon="13.709042903504958"><ele>79.0</ele><time>2026-05-02T07:58:36Z</time></trkpt><trkpt lat="42.879272678385156" lon="13.709226326963382"><ele>79.0</ele><time>2026-05-02T07:58:37Z</time></trkpt><trkpt lat="42.879139010856505" lon="13.709398841140677"><ele>80.66666666666666</ele><time>2026-05-02T07:58:38Z</time></trkpt><trkpt lat="42.87901397545489" lon="13.709557752896764"><ele>82.33333333333333</ele><time>2026-05-02T07:58:39Z</time></trkpt><trkpt lat="42.87889575431864" lon="13.709706929872656"><ele>84.0</ele><time>2026-05-02T07:58:40Z</time></trkpt><trkpt lat="42.87878472559725" lon="13.709849451398334"><ele>84.0</ele><time>2026-05-02T07:58:41Z</time></trkpt><trkpt lat="42.87868069021816" lon="13.709984634992692"><ele>84.0</ele><time>2026-05-02T07:58:42Z</time></trkpt><trkpt lat="42.87858493131058" lon="13.710102219777061"><ele>84.0</ele><time>2026-05-02T07:58:43Z</time></trkpt><trkpt lat="42.87849631936666" lon="13.710197380681633"><ele>84.0</ele><time>2026-05-02T07:58:44Z</time></trkpt><trkpt lat="42.87840884237906" lon="13.71025918624568"><ele>83.4</ele><time>2026-05-02T07:58:45Z</time></trkpt><trkpt lat="42.87831942578077" lon="13.710278347626087"><ele>82.80000000000001</ele><time>2026-05-02T07:58:46Z</time></trkpt><trkpt lat="42.87823760662538" lon="13.710302980071834"><ele>82.19999999999999</ele><time>2026-05-02T07:58:47Z</time></trkpt><trkpt lat="42.87819386534965" lon="13.710398618105968"><ele>81.6</ele><time>2026-05-02T07:58:48Z</time></trkpt><trkpt lat="42.87815623225095" lon="13.710535284532355"><ele>81.0</ele><time>2026-05-02T07:58:49Z</time></trkpt><trkpt lat="42.87809776614065" lon="13.710676344455157"><ele>81.0</ele><time>2026-05-02T07:58:50Z</time></trkpt><trkpt lat="42.8780009450995" lon="13.710803461886787"><ele>81.0</ele><time>2026-05-02T07:58:51Z</time></trkpt><trkpt lat="42.87789335637505" lon="13.710943045836943"><ele>81.0</ele><time>2026-05-02T07:58:52Z</time></trkpt><trkpt lat="42.877763382788665" lon="13.711105655811082"><ele>82.0</ele><time>2026-05-02T07:58:53Z</time></trkpt><trkpt lat="42.87761809026215" lon="13.711319057714537"><ele>83.0</ele><time>2026-05-02T07:58:54Z</time></trkpt><trkpt lat="42.87746750003422" lon="13.71151792419789"><ele>84.0</ele><time>2026-05-02T07:58:55Z</time></trkpt><trkpt lat="42.877313643242665" lon="13.71172257110139"><ele>81.66666666666667</ele><time>2026-05-02T07:58:56Z</time></trkpt><trkpt lat="42.877161249891216" lon="13.711935422517207"><ele>79.33333333333334</ele><time>2026-05-02T07:58:57Z</time></trkpt><trkpt lat="42.87701123061976" lon="13.712150561912187"><ele>77.0</ele><time>2026-05-02T07:58:58Z</time></trkpt><trkpt lat="42.87687734634044" lon="13.712350192998201"><ele>76.0</ele><time>2026-05-02T07:58:59Z</time></trkpt><trkpt lat="42.876755135552266" lon="13.712530902802508"><ele>75.0</ele><time>2026-05-02T07:59:00Z</time></trkpt><trkpt lat="42.876633540200714" lon="13.712686453350935"><ele>74.0</ele><time>2026-05-02T07:59:01Z</time></trkpt><trkpt lat="42.876532239714415" lon="13.712841289095671"><ele>74.0</ele><time>2026-05-02T07:59:02Z</time></trkpt><trkpt lat="42.876432832201516" lon="13.712997904591639"><ele>74.0</ele><time>2026-05-02T07:59:03Z</time></trkpt><trkpt lat="42.87632836231444" lon="13.71316297216518"><ele>74.0</ele><time>2026-05-02T07:59:04Z</time></trkpt><trkpt lat="42.87621887262834" lon="13.713337288890164"><ele>74.0</ele><time>2026-05-02T07:59:05Z</time></trkpt><trkpt lat="42.8761105948488" lon="13.713510830951199"><ele>74.0</ele><time>2026-05-02T07:59:06Z</time></trkpt><trkpt lat="42.87599836486149" lon="13.713691442273388"><ele>74.0</ele><time>2026-05-02T07:59:07Z</time></trkpt><trkpt lat="42.875883708648445" lon="13.713878632479183"><ele>74.0</ele><time>2026-05-02T07:59:08Z</time></trkpt><trkpt lat="42.87576769856801" lon="13.714069328736109"><ele>74.0</ele><time>2026-05-02T07:59:09Z</time></trkpt><trkpt lat="42.87565823757464" lon="13.714249701935286"><ele>74.0</ele><time>2026-05-02T07:59:10Z</time></trkpt><trkpt lat="42.87555795327984" lon="13.71441495348844"><ele>74.0</ele><time>2026-05-02T07:59:11Z</time></trkpt><trkpt lat="42.87547712284756" lon="13.714579037546113"><ele>74.0</ele><time>2026-05-02T07:59:12Z</time></trkpt><trkpt lat="42.87538749771083" lon="13.714723733914889"><ele>74.0</ele><time>2026-05-02T07:59:13Z</time></trkpt><trkpt lat="42.87530637888195" lon="13.714862474150568"><ele>74.0</ele><time>2026-05-02T07:59:14Z</time></trkpt><trkpt lat="42.87523099858141" lon="13.714990779230803"><ele>74.0</ele><time>2026-05-02T07:59:15Z</time></trkpt><trkpt lat="42.875161555462896" lon="13.715105944910876"><ele>74.0</ele><time>2026-05-02T07:59:16Z</time></trkpt><trkpt lat="42.87509417323501" lon="13.715215663139038"><ele>74.0</ele><time>2026-05-02T07:59:17Z</time></trkpt><trkpt lat="42.87503232797606" lon="13.715313547578418"><ele>74.0</ele><time>2026-05-02T07:59:18Z</time></trkpt><trkpt lat="42.87497561051506" lon="13.715407824494916"><ele>74.0</ele><time>2026-05-02T07:59:19Z</time></trkpt><trkpt lat="42.87492021463898" lon="13.715494013895752"><ele>74.5</ele><time>2026-05-02T07:59:20Z</time></trkpt><trkpt lat="42.87486993257276" lon="13.715572726588555"><ele>75.0</ele><time>2026-05-02T07:59:21Z</time></trkpt><trkpt lat="42.8748287480521" lon="13.715639368517838"><ele>75.5</ele><time>2026-05-02T07:59:22Z</time></trkpt><trkpt lat="42.8747725222349" lon="13.7157408513525"><ele>76.0</ele><time>2026-05-02T07:59:24Z</time></trkpt><trkpt lat="42.87471699664097" lon="13.715823717152926"><ele>76.5</ele><time>2026-05-02T08:00:06.999Z</time></trkpt><trkpt lat="42.8746460177005" lon="13.715951194172094"><ele>77.0</ele><time>2026-05-02T08:00:08.999Z</time></trkpt><trkpt lat="42.87458504362212" lon="13.716063365190745"><ele>78.0</ele><time>2026-05-02T08:00:09.999Z</time></trkpt><trkpt lat="42.8745119476889" lon="13.71618953992262"><ele>79.0</ele><time>2026-05-02T08:00:10.999Z</time></trkpt><trkpt lat="42.87444206593722" lon="13.716305160546087"><ele>80.0</ele><time>2026-05-02T08:00:11.999Z</time></trkpt><trkpt lat="42.87435795848123" lon="13.716442736398607"><ele>81.0</ele><time>2026-05-02T08:00:12.999Z</time></trkpt><trkpt lat="42.874265786182626" lon="13.71660257770771"><ele>81.0</ele><time>2026-05-02T08:00:13.999Z</time></trkpt><trkpt lat="42.87418122734378" lon="13.716744556090518"><ele>81.0</ele><time>2026-05-02T08:00:14.999Z</time></trkpt><trkpt lat="42.87409748564267" lon="13.716891615658378"><ele>81.0</ele><time>2026-05-02T08:00:15.999Z</time></trkpt><trkpt lat="42.874012424986546" lon="13.717040335846528"><ele>81.0</ele><time>2026-05-02T08:00:16.999Z</time></trkpt><trkpt lat="42.87392499985298" lon="13.717195165973822"><ele>78.75</ele><time>2026-05-02T08:00:17.999Z</time></trkpt><trkpt lat="42.87383516927106" lon="13.717349051292958"><ele>76.5</ele><time>2026-05-02T08:00:18.999Z</time></trkpt><trkpt lat="42.87374112129907" lon="13.717503734659566"><ele>74.25</ele><time>2026-05-02T08:00:19.999Z</time></trkpt><trkpt lat="42.873648470041466" lon="13.717656379611567"><ele>72.0</ele><time>2026-05-02T08:00:20.999Z</time></trkpt><trkpt lat="42.873546374960554" lon="13.717815840490921"><ele>71.0</ele><time>2026-05-02T08:00:21.999Z</time></trkpt><trkpt lat="42.87344488927851" lon="13.71796354776962"><ele>70.0</ele><time>2026-05-02T08:00:22.999Z</time></trkpt><trkpt lat="42.87334771888568" lon="13.718113766433193"><ele>69.0</ele><time>2026-05-02T08:00:23.999Z</time></trkpt><trkpt lat="42.87324728409515" lon="13.718267951685215"><ele>68.0</ele><time>2026-05-02T08:00:24.999Z</time></trkpt><trkpt lat="42.87314385944365" lon="13.71842827931805"><ele>68.33333333333334</ele><time>2026-05-02T08:00:25.999Z</time></trkpt><trkpt lat="42.873036685621734" lon="13.718587150400943"><ele>68.66666666666667</ele><time>2026-05-02T08:00:27Z</time></trkpt><trkpt lat="42.87292913993478" lon="13.718746708018726"><ele>69.0</ele><time>2026-05-02T08:00:28Z</time></trkpt><trkpt lat="42.8728294710905" lon="13.718902739021578"><ele>69.0</ele><time>2026-05-02T08:00:29Z</time></trkpt><trkpt lat="42.872731833749306" lon="13.719056328898482"><ele>69.0</ele><time>2026-05-02T08:00:30Z</time></trkpt><trkpt lat="42.87262748606189" lon="13.719209246895296"><ele>69.0</ele><time>2026-05-02T08:00:31Z</time></trkpt><trkpt lat="42.87251643331744" lon="13.719366316122136"><ele>69.0</ele><time>2026-05-02T08:00:32Z</time></trkpt><trkpt lat="42.872416180379005" lon="13.719515404972299"><ele>69.0</ele><time>2026-05-02T08:00:33Z</time></trkpt><trkpt lat="42.872318823690215" lon="13.719657022779074"><ele>69.0</ele><time>2026-05-02T08:00:34Z</time></trkpt><trkpt lat="42.87223079905442" lon="13.719790225883875"><ele>69.0</ele><time>2026-05-02T08:00:35Z</time></trkpt><trkpt lat="42.872134441992465" lon="13.7199366933599"><ele>69.0</ele><time>2026-05-02T08:00:36Z</time></trkpt><trkpt lat="42.872034555746104" lon="13.72009239044588"><ele>69.0</ele><time>2026-05-02T08:00:37Z</time></trkpt><trkpt lat="42.871921425279574" lon="13.720255922974555"><ele>69.0</ele><time>2026-05-02T08:00:38Z</time></trkpt><trkpt lat="42.87178459462649" lon="13.720423510296513"><ele>70.0</ele><time>2026-05-02T08:00:39Z</time></trkpt><trkpt lat="42.871635469354146" lon="13.720589583085708"><ele>71.0</ele><time>2026-05-02T08:00:40Z</time></trkpt><trkpt lat="42.87147047729418" lon="13.720759580432254"><ele>72.0</ele><time>2026-05-02T08:00:41Z</time></trkpt><trkpt lat="42.87129722342968" lon="13.720935386804332"><ele>72.33333333333333</ele><time>2026-05-02T08:00:42Z</time></trkpt><trkpt lat="42.87113081027265" lon="13.721113100895119"><ele>72.66666666666666</ele><time>2026-05-02T08:00:43Z</time></trkpt><trkpt lat="42.87096875564051" lon="13.721281668249613"><ele>73.0</ele><time>2026-05-02T08:00:44Z</time></trkpt><trkpt lat="42.87081151345766" lon="13.721444699690762"><ele>73.0</ele><time>2026-05-02T08:00:45Z</time></trkpt><trkpt lat="42.870661092711195" lon="13.72160137006616"><ele>73.0</ele><time>2026-05-02T08:00:46Z</time></trkpt><trkpt lat="42.87050167220224" lon="13.721755888187255"><ele>73.0</ele><time>2026-05-02T08:00:47Z</time></trkpt><trkpt lat="42.870334259051695" lon="13.721907845168458"><ele>73.66666666666666</ele><time>2026-05-02T08:00:48Z</time></trkpt><trkpt lat="42.870158940023884" lon="13.722054587492716"><ele>74.33333333333333</ele><time>2026-05-02T08:00:49Z</time></trkpt><trkpt lat="42.869976913691005" lon="13.722191363590074"><ele>75.0</ele><time>2026-05-02T08:00:50Z</time></trkpt><trkpt lat="42.86980529544994" lon="13.722317224083449"><ele>75.0</ele><time>2026-05-02T08:00:51Z</time></trkpt><trkpt lat="42.86963755186132" lon="13.722444542875255"><ele>75.0</ele><time>2026-05-02T08:00:52Z</time></trkpt><trkpt lat="42.86948532776886" lon="13.722554326731892"><ele>75.0</ele><time>2026-05-02T08:00:53Z</time></trkpt><trkpt lat="42.869338628479255" lon="13.722663031594767"><ele>72.66666666666667</ele><time>2026-05-02T08:00:54Z</time></trkpt><trkpt lat="42.86919341239521" lon="13.722768473676794"><ele>70.33333333333334</ele><time>2026-05-02T08:00:55Z</time></trkpt><trkpt lat="42.86905073088114" lon="13.722869232569963"><ele>68.0</ele><time>2026-05-02T08:00:56Z</time></trkpt><trkpt lat="42.868911495386335" lon="13.722951745465709"><ele>68.0</ele><time>2026-05-02T08:00:57Z</time></trkpt><trkpt lat="42.868754677757344" lon="13.723002180298137"><ele>68.0</ele><time>2026-05-02T08:00:58Z</time></trkpt><trkpt lat="42.8685980384514" lon="13.72303509689781"><ele>68.0</ele><time>2026-05-02T08:00:59Z</time></trkpt><trkpt lat="42.868442822042795" lon="13.723038837393254"><ele>68.25</ele><time>2026-05-02T08:01:00Z</time></trkpt><trkpt lat="42.868292190504505" lon="13.723041271791935"><ele>68.5</ele><time>2026-05-02T08:01:01Z</time></trkpt><trkpt lat="42.86814129995045" lon="13.723026146666882"><ele>68.75</ele><time>2026-05-02T08:01:02Z</time></trkpt><trkpt lat="42.86799601075381" lon="13.723061449026604"><ele>69.0</ele><time>2026-05-02T08:01:03Z</time></trkpt><trkpt lat="42.86785850883676" lon="13.723101571470377"><ele>69.0</ele><time>2026-05-02T08:01:04Z</time></trkpt><trkpt lat="42.86772356221103" lon="13.723188550532806"><ele>69.0</ele><time>2026-05-02T08:01:05Z</time></trkpt><trkpt lat="42.86758696638953" lon="13.723308997432659"><ele>69.0</ele><time>2026-05-02T08:01:06Z</time></trkpt><trkpt lat="42.8674512597862" lon="13.72344068323865"><ele>66.66666666666667</ele><time>2026-05-02T08:01:07Z</time></trkpt><trkpt lat="42.86731606766261" lon="13.723583492753272"><ele>64.33333333333334</ele><time>2026-05-02T08:01:08Z</time></trkpt><trkpt lat="42.86717825667358" lon="13.72371518568378"><ele>62.0</ele><time>2026-05-02T08:01:09Z</time></trkpt><trkpt lat="42.86704331342733" lon="13.723835499884169"><ele>62.0</ele><time>2026-05-02T08:01:10Z</time></trkpt><trkpt lat="42.86693223436328" lon="13.723953236206041"><ele>62.0</ele><time>2026-05-02T08:01:11Z</time></trkpt><trkpt lat="42.8668181427949" lon="13.72405626171244"><ele>62.0</ele><time>2026-05-02T08:01:12Z</time></trkpt><trkpt lat="42.86671176240676" lon="13.724147125718607"><ele>62.0</ele><time>2026-05-02T08:01:13Z</time></trkpt><trkpt lat="42.86660520730811" lon="13.724233480112746"><ele>62.0</ele><time>2026-05-02T08:01:14Z</time></trkpt><trkpt lat="42.86649777672158" lon="13.724300870516018"><ele>62.0</ele><time>2026-05-02T08:01:15Z</time></trkpt><trkpt lat="42.86637763743415" lon="13.72435703812909"><ele>62.0</ele><time>2026-05-02T08:01:16Z</time></trkpt><trkpt lat="42.86625058674677" lon="13.724376748331984"><ele>62.0</ele><time>2026-05-02T08:01:17Z</time></trkpt><trkpt lat="42.86613436610312" lon="13.72442159424676"><ele>62.0</ele><time>2026-05-02T08:01:18Z</time></trkpt><trkpt lat="42.86601902213839" lon="13.72442609322746"><ele>62.0</ele><time>2026-05-02T08:01:19Z</time></trkpt><trkpt lat="42.865908210986575" lon="13.724418979188414"><ele>62.0</ele><time>2026-05-02T08:01:20Z</time></trkpt><trkpt lat="42.86580581653463" lon="13.724406649614833"><ele>62.0</ele><time>2026-05-02T08:01:21Z</time></trkpt><trkpt lat="42.86570802171618" lon="13.724385153311829"><ele>62.0</ele><time>2026-05-02T08:01:22Z</time></trkpt><trkpt lat="42.86562456611331" lon="13.72437744614516"><ele>61.8</ele><time>2026-05-02T08:01:23Z</time></trkpt><trkpt lat="42.8655520933682" lon="13.724378141173588"><ele>61.6</ele><time>2026-05-02T08:01:24Z</time></trkpt><trkpt lat="42.86543862045726" lon="13.724410163950278"><ele>61.39999999999999</ele><time>2026-05-02T08:01:26Z</time></trkpt><trkpt lat="42.86537616251683" lon="13.72444089530365"><ele>61.199999999999996</ele><time>2026-05-02T08:01:29Z</time></trkpt><trkpt lat="42.865286167637045" lon="13.724423544578551"><ele>61.0</ele><time>2026-05-02T08:01:33Z</time></trkpt><trkpt lat="42.865182121809234" lon="13.724395375014392"><ele>60.49999999999999</ele><time>2026-05-02T08:01:35Z</time></trkpt><trkpt lat="42.86508882958803" lon="13.724418939298916"><ele>60.0</ele><time>2026-05-02T08:01:37Z</time></trkpt><trkpt lat="42.86500582437568" lon="13.724498884617084"><ele>59.5</ele><time>2026-05-02T08:01:39Z</time></trkpt><trkpt lat="42.864949295020054" lon="13.72453882299672"><ele>59.0</ele><time>2026-05-02T08:01:40Z</time></trkpt><trkpt lat="42.864883245262895" lon="13.724558943269466"><ele>58.49999999999999</ele><time>2026-05-02T08:01:41Z</time></trkpt><trkpt lat="42.8647957611184" lon="13.724549046791521"><ele>58.0</ele><time>2026-05-02T08:01:42Z</time></trkpt><trkpt lat="42.86467053099187" lon="13.724553753064809"><ele>58.0</ele><time>2026-05-02T08:01:43Z</time></trkpt><trkpt lat="42.86452516279272" lon="13.72455921789486"><ele>58.0</ele><time>2026-05-02T08:01:44Z</time></trkpt><trkpt lat="42.86437846996596" lon="13.724564803557337"><ele>58.0</ele><time>2026-05-02T08:01:45Z</time></trkpt><trkpt lat="42.864236423018426" lon="13.724592012564305"><ele>58.0</ele><time>2026-05-02T08:01:46Z</time></trkpt><trkpt lat="42.86410246968677" lon="13.724593929114254"><ele>57.5</ele><time>2026-05-02T08:01:47Z</time></trkpt><trkpt lat="42.86397316213246" lon="13.72459384753275"><ele>57.0</ele><time>2026-05-02T08:01:48Z</time></trkpt><trkpt lat="42.8638352658818" lon="13.724597072590784"><ele>56.5</ele><time>2026-05-02T08:01:49Z</time></trkpt><trkpt lat="42.86368992037923" lon="13.724601269096816"><ele>56.0</ele><time>2026-05-02T08:01:50Z</time></trkpt><trkpt lat="42.863535316008374" lon="13.724608268742145"><ele>56.66666666666667</ele><time>2026-05-02T08:01:51Z</time></trkpt><trkpt lat="42.86338328261041" lon="13.724613213982224"><ele>57.33333333333333</ele><time>2026-05-02T08:01:52Z</time></trkpt><trkpt lat="42.86323564979776" lon="13.724605812688692"><ele>58.0</ele><time>2026-05-02T08:01:53Z</time></trkpt><trkpt lat="42.86307832337871" lon="13.724604720415488"><ele>58.0</ele><time>2026-05-02T08:01:54Z</time></trkpt><trkpt lat="42.8629172120927" lon="13.724596154663946"><ele>58.0</ele><time>2026-05-02T08:01:54.999Z</time></trkpt><trkpt lat="42.86275254708571" lon="13.724580388419025"><ele>58.0</ele><time>2026-05-02T08:01:55.999Z</time></trkpt><trkpt lat="42.86259296134805" lon="13.72457019448156"><ele>58.0</ele><time>2026-05-02T08:01:56.999Z</time></trkpt><trkpt lat="42.86244612683809" lon="13.724531439304078"><ele>58.0</ele><time>2026-05-02T08:01:57.999Z</time></trkpt><trkpt lat="42.862321158324136" lon="13.724498051777735"><ele>58.0</ele><time>2026-05-02T08:01:58.999Z</time></trkpt><trkpt lat="42.86220624687231" lon="13.724464591781972"><ele>58.0</ele><time>2026-05-02T08:01:59.999Z</time></trkpt><trkpt lat="42.86210007352332" lon="13.724429169837197"><ele>58.599999999999994</ele><time>2026-05-02T08:02:00.999Z</time></trkpt><trkpt lat="42.861993811281444" lon="13.724389381574175"><ele>59.199999999999996</ele><time>2026-05-02T08:02:01.999Z</time></trkpt><trkpt lat="42.86188542272321" lon="13.724343360517047"><ele>59.8</ele><time>2026-05-02T08:02:02.999Z</time></trkpt><trkpt lat="42.86177980028165" lon="13.724296359377279"><ele>60.4</ele><time>2026-05-02T08:02:03.999Z</time></trkpt><trkpt lat="42.861682593706654" lon="13.72425034005089"><ele>61.0</ele><time>2026-05-02T08:02:04.999Z</time></trkpt><trkpt lat="42.86159094721691" lon="13.7242068169885"><ele>61.199999999999996</ele><time>2026-05-02T08:02:05.999Z</time></trkpt><trkpt lat="42.86149992939072" lon="13.724163045962056"><ele>61.39999999999999</ele><time>2026-05-02T08:02:06.999Z</time></trkpt><trkpt lat="42.86140150490377" lon="13.724087358061855"><ele>61.6</ele><time>2026-05-02T08:02:07.999Z</time></trkpt><trkpt lat="42.86128759783256" lon="13.724045195923795"><ele>61.8</ele><time>2026-05-02T08:02:08.999Z</time></trkpt><trkpt lat="42.86118764922397" lon="13.723994287902476"><ele>62.0</ele><time>2026-05-02T08:02:09.999Z</time></trkpt><trkpt lat="42.86109352680641" lon="13.723936576861268"><ele>62.0</ele><time>2026-05-02T08:02:10.999Z</time></trkpt><trkpt lat="42.86100114641285" lon="13.723877241768731"><ele>62.0</ele><time>2026-05-02T08:02:11.999Z</time></trkpt><trkpt lat="42.86090971837028" lon="13.723821421761121"><ele>62.0</ele><time>2026-05-02T08:02:12.999Z</time></trkpt><trkpt lat="42.86082025611771" lon="13.72377138683356"><ele>62.0</ele><time>2026-05-02T08:02:13.999Z</time></trkpt><trkpt lat="42.86072693054455" lon="13.723723400780882"><ele>62.0</ele><time>2026-05-02T08:02:14.999Z</time></trkpt><trkpt lat="42.8606298469348" lon="13.723670587134333"><ele>61.8</ele><time>2026-05-02T08:02:15.999Z</time></trkpt><trkpt lat="42.86052903049254" lon="13.723609293661161"><ele>61.6</ele><time>2026-05-02T08:02:16.999Z</time></trkpt><trkpt lat="42.86042366081292" lon="13.723545149394958"><ele>61.39999999999999</ele><time>2026-05-02T08:02:17.999Z</time></trkpt><trkpt lat="42.86031974552947" lon="13.723486863329022"><ele>61.199999999999996</ele><time>2026-05-02T08:02:18.999Z</time></trkpt><trkpt lat="42.86022094193328" lon="13.723433440966652"><ele>61.0</ele><time>2026-05-02T08:02:19.999Z</time></trkpt><trkpt lat="42.86012637560189" lon="13.723372455905455"><ele>60.75</ele><time>2026-05-02T08:02:20.999Z</time></trkpt><trkpt lat="42.860035781275506" lon="13.723303622281799"><ele>60.5</ele><time>2026-05-02T08:02:21.999Z</time></trkpt><trkpt lat="42.85993702959981" lon="13.723223265388999"><ele>60.25</ele><time>2026-05-02T08:02:22.999Z</time></trkpt><trkpt lat="42.85983137946131" lon="13.72313727517392"><ele>60.0</ele><time>2026-05-02T08:02:23.999Z</time></trkpt><trkpt lat="42.859723326590384" lon="13.723046516287567"><ele>60.0</ele><time>2026-05-02T08:02:24.999Z</time></trkpt><trkpt lat="42.85961545970445" lon="13.722947043782492"><ele>60.0</ele><time>2026-05-02T08:02:25.999Z</time></trkpt><trkpt lat="42.859508925433666" lon="13.722836120807239"><ele>60.0</ele><time>2026-05-02T08:02:26.999Z</time></trkpt><trkpt lat="42.85940336267588" lon="13.722714699318066"><ele>60.0</ele><time>2026-05-02T08:02:27.999Z</time></trkpt><trkpt lat="42.85931321854453" lon="13.722594832027047"><ele>60.0</ele><time>2026-05-02T08:02:28.999Z</time></trkpt><trkpt lat="42.85923611942134" lon="13.722477313743497"><ele>60.0</ele><time>2026-05-02T08:02:29.999Z</time></trkpt><trkpt lat="42.859162611013666" lon="13.722360883694668"><ele>60.0</ele><time>2026-05-02T08:02:30.999Z</time></trkpt><trkpt lat="42.859094171008486" lon="13.72224385108346"><ele>60.0</ele><time>2026-05-02T08:02:31.999Z</time></trkpt><trkpt lat="42.85902873867673" lon="13.72212273312281"><ele>60.0</ele><time>2026-05-02T08:02:33Z</time></trkpt><trkpt lat="42.85896400384288" lon="13.722008810055133"><ele>60.0</ele><time>2026-05-02T08:02:34Z</time></trkpt><trkpt lat="42.858900527926394" lon="13.72189680153406"><ele>60.0</ele><time>2026-05-02T08:02:35Z</time></trkpt><trkpt lat="42.858836034277935" lon="13.721787024322202"><ele>60.0</ele><time>2026-05-02T08:02:36Z</time></trkpt><trkpt lat="42.85877131700146" lon="13.721674678464662"><ele>60.0</ele><time>2026-05-02T08:02:37Z</time></trkpt><trkpt lat="42.858708521215824" lon="13.721560310943978"><ele>60.0</ele><time>2026-05-02T08:02:38Z</time></trkpt><trkpt lat="42.858656506407904" lon="13.721438691815415"><ele>60.0</ele><time>2026-05-02T08:02:39Z</time></trkpt><trkpt lat="42.858581341087344" lon="13.721337869284335"><ele>60.0</ele><time>2026-05-02T08:02:40Z</time></trkpt><trkpt lat="42.858533637030696" lon="13.721232573840352"><ele>60.0</ele><time>2026-05-02T08:02:41Z</time></trkpt><trkpt lat="42.85848631564225" lon="13.721142927315698"><ele>60.0</ele><time>2026-05-02T08:02:42Z</time></trkpt><trkpt lat="42.8584453172828" lon="13.72105861710598"><ele>60.0</ele><time>2026-05-02T08:02:43Z</time></trkpt><trkpt lat="42.85841438095853" lon="13.720961571645848"><ele>60.0</ele><time>2026-05-02T08:02:44Z</time></trkpt><trkpt lat="42.85840198011481" lon="13.720851188677278"><ele>60.0</ele><time>2026-05-02T08:02:45Z</time></trkpt><trkpt lat="42.858404981131976" lon="13.720726343618718"><ele>60.0</ele><time>2026-05-02T08:02:46Z</time></trkpt><trkpt lat="42.8584250369207" lon="13.720590980251577"><ele>60.0</ele><time>2026-05-02T08:02:47Z</time></trkpt><trkpt lat="42.85845719862597" lon="13.720474730722092"><ele>60.0</ele><time>2026-05-02T08:02:48Z</time></trkpt><trkpt lat="42.85849338275421" lon="13.720360920186064"><ele>60.0</ele><time>2026-05-02T08:02:49Z</time></trkpt><trkpt lat="42.85850380264495" lon="13.720253000505583"><ele>60.166666666666664</ele><time>2026-05-02T08:02:50Z</time></trkpt><trkpt lat="42.8584905018866" lon="13.720161093442883"><ele>60.33333333333333</ele><time>2026-05-02T08:02:51Z</time></trkpt><trkpt lat="42.858394692510174" lon="13.720052947532736"><ele>60.5</ele><time>2026-05-02T08:02:53Z</time></trkpt><trkpt lat="42.85832836286941" lon="13.720053302458206"><ele>60.666666666666664</ele><time>2026-05-02T08:02:54Z</time></trkpt><trkpt lat="42.85826095223171" lon="13.720088480498305"><ele>60.83333333333333</ele><time>2026-05-02T08:02:55Z</time></trkpt><trkpt lat="42.85820070859836" lon="13.720136887849495"><ele>61.0</ele><time>2026-05-02T08:02:56Z</time></trkpt><trkpt lat="42.85818286351327" lon="13.720286746393665"><ele>61.0</ele><time>2026-05-02T08:02:57Z</time></trkpt><trkpt lat="42.858166031594685" lon="13.72042741223218"><ele>61.0</ele><time>2026-05-02T08:02:58Z</time></trkpt><trkpt lat="42.858149145100725" lon="13.720582621627425"><ele>61.0</ele><time>2026-05-02T08:02:59Z</time></trkpt><trkpt lat="42.85811558039785" lon="13.72075653264664"><ele>61.0</ele><time>2026-05-02T08:03:00Z</time></trkpt><trkpt lat="42.85807180704589" lon="13.720922655861264"><ele>60.25</ele><time>2026-05-02T08:03:01Z</time></trkpt><trkpt lat="42.85802711391544" lon="13.721073498398367"><ele>59.5</ele><time>2026-05-02T08:03:02Z</time></trkpt><trkpt lat="42.857970245275546" lon="13.721230842346493"><ele>58.75</ele><time>2026-05-02T08:03:03Z</time></trkpt><trkpt lat="42.85790283197674" lon="13.721387988625827"><ele>58.0</ele><time>2026-05-02T08:03:04Z</time></trkpt><trkpt lat="42.857827733047586" lon="13.72154512249172"><ele>58.0</ele><time>2026-05-02T08:03:05Z</time></trkpt><trkpt lat="42.85774914622763" lon="13.721699595460388"><ele>58.0</ele><time>2026-05-02T08:03:06Z</time></trkpt><trkpt lat="42.85766607029405" lon="13.721855908262375"><ele>58.0</ele><time>2026-05-02T08:03:07Z</time></trkpt><trkpt lat="42.85757931594439" lon="13.722021347716465"><ele>58.0</ele><time>2026-05-02T08:03:08Z</time></trkpt><trkpt lat="42.85748978826736" lon="13.722181481885846"><ele>56.5</ele><time>2026-05-02T08:03:09Z</time></trkpt><trkpt lat="42.85740012040306" lon="13.722340744587571"><ele>55.0</ele><time>2026-05-02T08:03:10Z</time></trkpt><trkpt lat="42.85731439646642" lon="13.722506937093861"><ele>53.5</ele><time>2026-05-02T08:03:11Z</time></trkpt><trkpt lat="42.8572249699811" lon="13.72267662032108"><ele>52.0</ele><time>2026-05-02T08:03:12Z</time></trkpt><trkpt lat="42.857133700053275" lon="13.722843741026825"><ele>51.0</ele><time>2026-05-02T08:03:13Z</time></trkpt><trkpt lat="42.85705328152293" lon="13.72299307076418"><ele>50.0</ele><time>2026-05-02T08:03:14Z</time></trkpt><trkpt lat="42.85697717769534" lon="13.723134456037835"><ele>49.0</ele><time>2026-05-02T08:03:15Z</time></trkpt><trkpt lat="42.85690649223546" lon="13.723255426398167"><ele>48.0</ele><time>2026-05-02T08:03:16Z</time></trkpt><trkpt lat="42.856843286028685" lon="13.723356974951615"><ele>48.0</ele><time>2026-05-02T08:03:17Z</time></trkpt><trkpt lat="42.85679400708197" lon="13.723429473638314"><ele>48.0</ele><time>2026-05-02T08:03:18Z</time></trkpt><trkpt lat="42.856746986289785" lon="13.723489294444484"><ele>48.0</ele><time>2026-05-02T08:03:19Z</time></trkpt><trkpt lat="42.856677687339996" lon="13.723560099198174"><ele>48.0</ele><time>2026-05-02T08:03:21Z</time></trkpt><trkpt lat="42.85662537995182" lon="13.723608267038385"><ele>48.0</ele><time>2026-05-02T08:03:23Z</time></trkpt><trkpt lat="42.856541929267536" lon="13.723665640822928"><ele>48.0</ele><time>2026-05-02T08:03:26Z</time></trkpt><trkpt lat="42.85646248508198" lon="13.72371570025596"><ele>48.333333333333336</ele><time>2026-05-02T08:03:29Z</time></trkpt><trkpt lat="42.856390098135996" lon="13.723761947603885"><ele>48.66666666666667</ele><time>2026-05-02T08:03:32Z</time></trkpt><trkpt lat="42.85632642852568" lon="13.7238104052851"><ele>49.0</ele><time>2026-05-02T08:03:35Z</time></trkpt><trkpt lat="42.85626543788249" lon="13.723849084266535"><ele>49.333333333333336</ele><time>2026-05-02T08:03:54Z</time></trkpt><trkpt lat="42.85619577425313" lon="13.723876056534385"><ele>49.66666666666667</ele><time>2026-05-02T08:03:56Z</time></trkpt><trkpt lat="42.85611465649509" lon="13.723917242932211"><ele>50.0</ele><time>2026-05-02T08:03:57Z</time></trkpt><trkpt lat="42.8560206519709" lon="13.72395638792236"><ele>49.66666666666667</ele><time>2026-05-02T08:03:57.999Z</time></trkpt><trkpt lat="42.85595150096765" lon="13.723975622079596"><ele>49.333333333333336</ele><time>2026-05-02T08:03:58.999Z</time></trkpt><trkpt lat="42.85588240956242" lon="13.7239933466992"><ele>49.0</ele><time>2026-05-02T08:03:59.999Z</time></trkpt><trkpt lat="42.85581457072278" lon="13.724015094772819"><ele>48.66666666666667</ele><time>2026-05-02T08:04:00.999Z</time></trkpt><trkpt lat="42.85572828775977" lon="13.724042051939346"><ele>48.333333333333336</ele><time>2026-05-02T08:04:01.999Z</time></trkpt><trkpt lat="42.85562605222557" lon="13.724067588649614"><ele>48.0</ele><time>2026-05-02T08:04:02.999Z</time></trkpt><trkpt lat="42.85552555869085" lon="13.724082612047827"><ele>48.0</ele><time>2026-05-02T08:04:03.999Z</time></trkpt><trkpt lat="42.855428715624925" lon="13.724088817007065"><ele>48.0</ele><time>2026-05-02T08:04:04.999Z</time></trkpt><trkpt lat="42.85533524468495" lon="13.724091872616004"><ele>48.0</ele><time>2026-05-02T08:04:05.999Z</time></trkpt><trkpt lat="42.8552395274638" lon="13.724102253195825"><ele>48.0</ele><time>2026-05-02T08:04:06.999Z</time></trkpt><trkpt lat="42.85514333309204" lon="13.724111046269176"><ele>48.0</ele><time>2026-05-02T08:04:07.999Z</time></trkpt><trkpt lat="42.85504055032878" lon="13.72411904548531"><ele>47.4</ele><time>2026-05-02T08:04:08.999Z</time></trkpt><trkpt lat="42.85494060055414" lon="13.724131076282683"><ele>46.8</ele><time>2026-05-02T08:04:09.999Z</time></trkpt><trkpt lat="42.85483147202834" lon="13.724136129178978"><ele>46.2</ele><time>2026-05-02T08:04:10.999Z</time></trkpt><trkpt lat="42.85472077987121" lon="13.72414284876263"><ele>45.6</ele><time>2026-05-02T08:04:11.999Z</time></trkpt><trkpt lat="42.85461948819639" lon="13.72414941180875"><ele>45.0</ele><time>2026-05-02T08:04:12.999Z</time></trkpt><trkpt lat="42.854519448618674" lon="13.724161723477897"><ele>45.0</ele><time>2026-05-02T08:04:13.999Z</time></trkpt><trkpt lat="42.854407860719405" lon="13.724166601699682"><ele>45.0</ele><time>2026-05-02T08:04:14.999Z</time></trkpt><trkpt lat="42.85430159148587" lon="13.724173561471666"><ele>45.0</ele><time>2026-05-02T08:04:15.999Z</time></trkpt><trkpt lat="42.85418815404416" lon="13.72418044877979"><ele>45.0</ele><time>2026-05-02T08:04:16.999Z</time></trkpt><trkpt lat="42.85406998278214" lon="13.724189729826058"><ele>45.25</ele><time>2026-05-02T08:04:17.999Z</time></trkpt><trkpt lat="42.85394077907662" lon="13.72420068780333"><ele>45.5</ele><time>2026-05-02T08:04:18.999Z</time></trkpt><trkpt lat="42.853819594921916" lon="13.724215057905985"><ele>45.75</ele><time>2026-05-02T08:04:19.999Z</time></trkpt><trkpt lat="42.853700648788795" lon="13.724225049313159"><ele>46.0</ele><time>2026-05-02T08:04:20.999Z</time></trkpt><trkpt lat="42.85358677848741" lon="13.724242094405694"><ele>46.0</ele><time>2026-05-02T08:04:21.999Z</time></trkpt><trkpt lat="42.853469619454515" lon="13.724252859402052"><ele>46.0</ele><time>2026-05-02T08:04:22.999Z</time></trkpt><trkpt lat="42.853354451416386" lon="13.724264294634617"><ele>46.0</ele><time>2026-05-02T08:04:23.999Z</time></trkpt><trkpt lat="42.853218176948765" lon="13.724273696413436"><ele>46.0</ele><time>2026-05-02T08:04:24.999Z</time></trkpt><trkpt lat="42.853076636829435" lon="13.724288406120682"><ele>47.25</ele><time>2026-05-02T08:04:25.999Z</time></trkpt><trkpt lat="42.85293714702209" lon="13.724314008335822"><ele>48.5</ele><time>2026-05-02T08:04:26.999Z</time></trkpt><trkpt lat="42.85280416036097" lon="13.724331104198933"><ele>49.75</ele><time>2026-05-02T08:04:27.999Z</time></trkpt><trkpt lat="42.8526794809087" lon="13.72434814246122"><ele>51.0</ele><time>2026-05-02T08:04:28.999Z</time></trkpt><trkpt lat="42.85255729903371" lon="13.72436744170602"><ele>50.5</ele><time>2026-05-02T08:04:29.999Z</time></trkpt><trkpt lat="42.85241728296536" lon="13.724384296809669"><ele>50.0</ele><time>2026-05-02T08:04:30.999Z</time></trkpt><trkpt lat="42.85227727146987" lon="13.724409281865583"><ele>49.5</ele><time>2026-05-02T08:04:31.999Z</time></trkpt><trkpt lat="42.85212922273092" lon="13.724428859848757"><ele>49.0</ele><time>2026-05-02T08:04:32.999Z</time></trkpt><trkpt lat="42.85196943337156" lon="13.724449808625055"><ele>49.0</ele><time>2026-05-02T08:04:33.999Z</time></trkpt><trkpt lat="42.85180068756606" lon="13.724472717277337"><ele>49.0</ele><time>2026-05-02T08:04:34.999Z</time></trkpt><trkpt lat="42.851626264860855" lon="13.72449234686954"><ele>49.0</ele><time>2026-05-02T08:04:35.999Z</time></trkpt><trkpt lat="42.85145056867917" lon="13.724514893120537"><ele>48.666666666666664</ele><time>2026-05-02T08:04:36.999Z</time></trkpt><trkpt lat="42.85127542843887" lon="13.724540678074348"><ele>48.33333333333333</ele><time>2026-05-02T08:04:38Z</time></trkpt><trkpt lat="42.851114234090446" lon="13.72456834818655"><ele>48.0</ele><time>2026-05-02T08:04:39Z</time></trkpt><trkpt lat="42.85097009766723" lon="13.724588809516442"><ele>48.8</ele><time>2026-05-02T08:04:40Z</time></trkpt><trkpt lat="42.85083744458184" lon="13.724580584046295"><ele>49.599999999999994</ele><time>2026-05-02T08:04:41Z</time></trkpt><trkpt lat="42.85072610308708" lon="13.724589726074502"><ele>50.400000000000006</ele><time>2026-05-02T08:04:42Z</time></trkpt><trkpt lat="42.85063129784633" lon="13.724597159617158"><ele>51.2</ele><time>2026-05-02T08:04:43Z</time></trkpt><trkpt lat="42.85054879919265" lon="13.724603594326506"><ele>52.0</ele><time>2026-05-02T08:04:44Z</time></trkpt><trkpt lat="42.850478147850545" lon="13.724609104959326"><ele>52.0</ele><time>2026-05-02T08:04:45Z</time></trkpt><trkpt lat="42.8504157115986" lon="13.724636729498494"><ele>52.0</ele><time>2026-05-02T08:04:47Z</time></trkpt><trkpt lat="42.85045190222673" lon="13.724969983112446"><ele>52.0</ele><time>2026-05-02T08:04:48Z</time></trkpt><trkpt lat="42.850475099100755" lon="13.725119562705526"><ele>52.0</ele><time>2026-05-02T08:04:49Z</time></trkpt><trkpt lat="42.850516795334755" lon="13.725273311656675"><ele>51.6</ele><time>2026-05-02T08:04:50Z</time></trkpt><trkpt lat="42.85054307467582" lon="13.725430827893671"><ele>51.2</ele><time>2026-05-02T08:04:51Z</time></trkpt><trkpt lat="42.850555348375686" lon="13.725574407226292"><ele>50.8</ele><time>2026-05-02T08:04:52Z</time></trkpt><trkpt lat="42.850536851519394" lon="13.725709176107749"><ele>50.4</ele><time>2026-05-02T08:04:53Z</time></trkpt><trkpt lat="42.85048026221391" lon="13.725842337427446"><ele>50.0</ele><time>2026-05-02T08:04:54Z</time></trkpt><trkpt lat="42.85039016076761" lon="13.725954196788091"><ele>50.0</ele><time>2026-05-02T08:04:55Z</time></trkpt><trkpt lat="42.85028171702683" lon="13.726002439561706"><ele>50.0</ele><time>2026-05-02T08:04:56Z</time></trkpt><trkpt lat="42.850180522828786" lon="13.726032426169947"><ele>50.0</ele><time>2026-05-02T08:04:57Z</time></trkpt><trkpt lat="42.8500681962214" lon="13.726004364068338"><ele>50.0</ele><time>2026-05-02T08:04:58Z</time></trkpt><trkpt lat="42.849956449424305" lon="13.725920320360501"><ele>50.333333333333336</ele><time>2026-05-02T08:04:59Z</time></trkpt><trkpt lat="42.84985391703922" lon="13.725781470227968"><ele>50.66666666666667</ele><time>2026-05-02T08:05:00Z</time></trkpt><trkpt lat="42.84976075618479" lon="13.725615981104761"><ele>51.0</ele><time>2026-05-02T08:05:01Z</time></trkpt><trkpt lat="42.84968402301013" lon="13.725417907323193"><ele>51.33333333333333</ele><time>2026-05-02T08:05:02Z</time></trkpt><trkpt lat="42.84962399970115" lon="13.725188495666837"><ele>51.666666666666664</ele><time>2026-05-02T08:05:03Z</time></trkpt><trkpt lat="42.84957102892965" lon="13.724941976473218"><ele>52.0</ele><time>2026-05-02T08:05:04Z</time></trkpt><trkpt lat="42.84950194665067" lon="13.724663833852588"><ele>52.0</ele><time>2026-05-02T08:05:05Z</time></trkpt><trkpt lat="42.849415339601194" lon="13.724368144687574"><ele>52.0</ele><time>2026-05-02T08:05:06Z</time></trkpt><trkpt lat="42.84934575400516" lon="13.72411345929474"><ele>52.0</ele><time>2026-05-02T08:05:07Z</time></trkpt><trkpt lat="42.84927830109231" lon="13.7238159431454"><ele>52.0</ele><time>2026-05-02T08:05:08Z</time></trkpt><trkpt lat="42.849198913271564" lon="13.723498236531743"><ele>52.0</ele><time>2026-05-02T08:05:09Z</time></trkpt><trkpt lat="42.84911845239366" lon="13.723176203335592"><ele>52.0</ele><time>2026-05-02T08:05:10Z</time></trkpt><trkpt lat="42.849052268509666" lon="13.722850493452361"><ele>52.0</ele><time>2026-05-02T08:05:11Z</time></trkpt><trkpt lat="42.84900151152651" lon="13.722521099832571"><ele>52.0</ele><time>2026-05-02T08:05:12Z</time></trkpt><trkpt lat="42.848898384596424" lon="13.722250891026972"><ele>52.0</ele><time>2026-05-02T08:05:13Z</time></trkpt><trkpt lat="42.84882458320618" lon="13.721950001644398"><ele>52.5</ele><time>2026-05-02T08:05:14Z</time></trkpt><trkpt lat="42.8487542213249" lon="13.721650909937015"><ele>53.0</ele><time>2026-05-02T08:05:15Z</time></trkpt><trkpt lat="42.84868217182937" lon="13.721353311552178"><ele>52.0</ele><time>2026-05-02T08:05:16Z</time></trkpt><trkpt lat="42.84860655089097" lon="13.721050779006458"><ele>51.0</ele><time>2026-05-02T08:05:17Z</time></trkpt><trkpt lat="42.848535258261855" lon="13.720755181909151"><ele>51.0</ele><time>2026-05-02T08:05:18Z</time></trkpt><trkpt lat="42.84846257075093" lon="13.72045740434409"><ele>51.0</ele><time>2026-05-02T08:05:19Z</time></trkpt><trkpt lat="42.84839379357184" lon="13.720161479065315"><ele>54.5</ele><time>2026-05-02T08:05:20Z</time></trkpt><trkpt lat="42.84832167023528" lon="13.719863410879938"><ele>58.0</ele><time>2026-05-02T08:05:21Z</time></trkpt><trkpt lat="42.848251790775" lon="13.71957284580085"><ele>57.33333333333333</ele><time>2026-05-02T08:05:22Z</time></trkpt><trkpt lat="42.848187273037404" lon="13.719294169998737"><ele>56.66666666666667</ele><time>2026-05-02T08:05:23Z</time></trkpt><trkpt lat="42.84812057611719" lon="13.71901548260238"><ele>56.0</ele><time>2026-05-02T08:05:24Z</time></trkpt><trkpt lat="42.84804899542032" lon="13.718738258663471"><ele>56.333333333333336</ele><time>2026-05-02T08:05:25Z</time></trkpt><trkpt lat="42.84798286386142" lon="13.718452200876005"><ele>56.66666666666667</ele><time>2026-05-02T08:05:26Z</time></trkpt><trkpt lat="42.847915771776044" lon="13.718161592447874"><ele>57.0</ele><time>2026-05-02T08:05:27Z</time></trkpt><trkpt lat="42.84784844136348" lon="13.717872626598455"><ele>56.33333333333333</ele><time>2026-05-02T08:05:28Z</time></trkpt><trkpt lat="42.84778062236174" lon="13.71758632510697"><ele>55.666666666666664</ele><time>2026-05-02T08:05:29Z</time></trkpt><trkpt lat="42.847710086233675" lon="13.717295612541765"><ele>55.0</ele><time>2026-05-02T08:05:30Z</time></trkpt><trkpt lat="42.84764173450489" lon="13.7170053072422"><ele>64.0</ele><time>2026-05-02T08:05:31Z</time></trkpt><trkpt lat="42.84757201651168" lon="13.716711680819701"><ele>73.0</ele><time>2026-05-02T08:05:32Z</time></trkpt><trkpt lat="42.84750593667366" lon="13.716414796678013"><ele>73.0</ele><time>2026-05-02T08:05:33Z</time></trkpt><trkpt lat="42.847438895227505" lon="13.716113072360343"><ele>73.0</ele><time>2026-05-02T08:05:34Z</time></trkpt><trkpt lat="42.84736048223214" lon="13.715813704820595"><ele>73.5</ele><time>2026-05-02T08:05:35Z</time></trkpt><trkpt lat="42.84728387294259" lon="13.715513401041736"><ele>74.0</ele><time>2026-05-02T08:05:36Z</time></trkpt><trkpt lat="42.84721338766792" lon="13.715211803996477"><ele>76.0</ele><time>2026-05-02T08:05:37Z</time></trkpt><trkpt lat="42.847143263677054" lon="13.714912617633289"><ele>78.0</ele><time>2026-05-02T08:05:38Z</time></trkpt><trkpt lat="42.84706794129268" lon="13.714617834886868"><ele>78.0</ele><time>2026-05-02T08:05:39Z</time></trkpt><trkpt lat="42.84699732387644" lon="13.714321632673407"><ele>78.0</ele><time>2026-05-02T08:05:40Z</time></trkpt><trkpt lat="42.84692711417212" lon="13.71402385438951"><ele>78.0</ele><time>2026-05-02T08:05:41Z</time></trkpt><trkpt lat="42.846859093634365" lon="13.713733631643688"><ele>78.0</ele><time>2026-05-02T08:05:42Z</time></trkpt><trkpt lat="42.84678912143659" lon="13.713434140035352"><ele>78.5</ele><time>2026-05-02T08:05:43Z</time></trkpt><trkpt lat="42.8467127975445" lon="13.71313739284914"><ele>79.0</ele><time>2026-05-02T08:05:44Z</time></trkpt><trkpt lat="42.846638372556185" lon="13.71283675467164"><ele>80.0</ele><time>2026-05-02T08:05:45Z</time></trkpt><trkpt lat="42.84657032648313" lon="13.71253360336754"><ele>81.0</ele><time>2026-05-02T08:05:46Z</time></trkpt><trkpt lat="42.84649637283882" lon="13.712231903987057"><ele>81.0</ele><time>2026-05-02T08:05:47Z</time></trkpt><trkpt lat="42.84642182919267" lon="13.71192391825325"><ele>81.0</ele><time>2026-05-02T08:05:48Z</time></trkpt><trkpt lat="42.84635396859704" lon="13.711614667263754"><ele>82.0</ele><time>2026-05-02T08:05:49Z</time></trkpt><trkpt lat="42.84628947835566" lon="13.711299467175433"><ele>83.0</ele><time>2026-05-02T08:05:50Z</time></trkpt><trkpt lat="42.846228331095595" lon="13.710981790303242"><ele>83.0</ele><time>2026-05-02T08:05:51Z</time></trkpt><trkpt lat="42.846177702886315" lon="13.710660928983977"><ele>83.0</ele><time>2026-05-02T08:05:52Z</time></trkpt><trkpt lat="42.84613822057802" lon="13.710333655093908"><ele>82.5</ele><time>2026-05-02T08:05:53Z</time></trkpt><trkpt lat="42.84609538525379" lon="13.71000242637334"><ele>82.0</ele><time>2026-05-02T08:05:54Z</time></trkpt><trkpt lat="42.84606155029056" lon="13.709673322304907"><ele>81.0</ele><time>2026-05-02T08:05:55Z</time></trkpt><trkpt lat="42.84603698226547" lon="13.709338424481995"><ele>80.0</ele><time>2026-05-02T08:05:56Z</time></trkpt><trkpt lat="42.8460156391058" lon="13.709005412005851"><ele>80.0</ele><time>2026-05-02T08:05:57Z</time></trkpt><trkpt lat="42.8459972881208" lon="13.708666828089033"><ele>80.0</ele><time>2026-05-02T08:05:58Z</time></trkpt><trkpt lat="42.845990742359675" lon="13.708329542136664"><ele>80.5</ele><time>2026-05-02T08:05:59Z</time></trkpt><trkpt lat="42.84598993030559" lon="13.707989922897445"><ele>81.0</ele><time>2026-05-02T08:06:00Z</time></trkpt><trkpt lat="42.84598043530828" lon="13.707645812017814"><ele>80.0</ele><time>2026-05-02T08:06:01Z</time></trkpt><trkpt lat="42.84596852031197" lon="13.707298296876376"><ele>79.0</ele><time>2026-05-02T08:06:02Z</time></trkpt><trkpt lat="42.84596719391688" lon="13.706958144463247"><ele>78.0</ele><time>2026-05-02T08:06:03Z</time></trkpt><trkpt lat="42.84597078386365" lon="13.706615553829236"><ele>77.0</ele><time>2026-05-02T08:06:03.999Z</time></trkpt><trkpt lat="42.84596551444465" lon="13.70625860031189"><ele>75.0</ele><time>2026-05-02T08:06:04.999Z</time></trkpt><trkpt lat="42.84596018812492" lon="13.705898137260773"><ele>73.0</ele><time>2026-05-02T08:06:05.999Z</time></trkpt><trkpt lat="42.845960180740796" lon="13.705547354325509"><ele>76.0</ele><time>2026-05-02T08:06:06.999Z</time></trkpt><trkpt lat="42.845956754797825" lon="13.705184283412212"><ele>79.0</ele><time>2026-05-02T08:06:07.999Z</time></trkpt><trkpt lat="42.84595116416812" lon="13.704825515646517"><ele>79.0</ele><time>2026-05-02T08:06:08.999Z</time></trkpt><trkpt lat="42.84594727218847" lon="13.704464496993559"><ele>79.0</ele><time>2026-05-02T08:06:09.999Z</time></trkpt><trkpt lat="42.84594400929425" lon="13.704100058003345"><ele>81.0</ele><time>2026-05-02T08:06:10.999Z</time></trkpt><trkpt lat="42.845940424797455" lon="13.703733001693077"><ele>83.0</ele><time>2026-05-02T08:06:11.999Z</time></trkpt><trkpt lat="42.84593557350786" lon="13.703365513179273"><ele>83.5</ele><time>2026-05-02T08:06:12.999Z</time></trkpt><trkpt lat="42.84593276813679" lon="13.702996840246843"><ele>84.0</ele><time>2026-05-02T08:06:13.999Z</time></trkpt><trkpt lat="42.845930328248684" lon="13.702630637418174"><ele>84.0</ele><time>2026-05-02T08:06:14.999Z</time></trkpt><trkpt lat="42.845928662319515" lon="13.702267279086877"><ele>84.0</ele><time>2026-05-02T08:06:15.999Z</time></trkpt><trkpt lat="42.84592536646773" lon="13.701906570015895"><ele>85.0</ele><time>2026-05-02T08:06:16.999Z</time></trkpt><trkpt lat="42.84592116721688" lon="13.701546419056207"><ele>86.0</ele><time>2026-05-02T08:06:17.999Z</time></trkpt><trkpt lat="42.84591450522421" lon="13.701191195538831"><ele>86.5</ele><time>2026-05-02T08:06:18.999Z</time></trkpt><trkpt lat="42.845908932093565" lon="13.700837775759137"><ele>87.0</ele><time>2026-05-02T08:06:19.999Z</time></trkpt><trkpt lat="42.84590716851144" lon="13.700479842823169"><ele>86.5</ele><time>2026-05-02T08:06:20.999Z</time></trkpt><trkpt lat="42.845901779201185" lon="13.700127028467117"><ele>86.0</ele><time>2026-05-02T08:06:21.999Z</time></trkpt><trkpt lat="42.845897120641716" lon="13.699766824312265"><ele>86.0</ele><time>2026-05-02T08:06:22.999Z</time></trkpt><trkpt lat="42.8458935802152" lon="13.699394178495417"><ele>86.0</ele><time>2026-05-02T08:06:23.999Z</time></trkpt><trkpt lat="42.84589095379619" lon="13.699018195287703"><ele>86.0</ele><time>2026-05-02T08:06:24.999Z</time></trkpt><trkpt lat="42.84588456749743" lon="13.698630861816742"><ele>86.0</ele><time>2026-05-02T08:06:25.999Z</time></trkpt><trkpt lat="42.84588189178182" lon="13.698243937353519"><ele>86.0</ele><time>2026-05-02T08:06:26.999Z</time></trkpt><trkpt lat="42.84587585299219" lon="13.697855241223735"><ele>86.0</ele><time>2026-05-02T08:06:27.999Z</time></trkpt><trkpt lat="42.8458737093425" lon="13.697459488202634"><ele>86.0</ele><time>2026-05-02T08:06:28.999Z</time></trkpt><trkpt lat="42.84586053170247" lon="13.697067023878477"><ele>86.0</ele><time>2026-05-02T08:06:29.999Z</time></trkpt><trkpt lat="42.84585685224196" lon="13.696675387004092"><ele>86.5</ele><time>2026-05-02T08:06:30.999Z</time></trkpt><trkpt lat="42.84584332807849" lon="13.696307461436898"><ele>87.0</ele><time>2026-05-02T08:06:31.999Z</time></trkpt><trkpt lat="42.84581572833614" lon="13.695927842426261"><ele>86.0</ele><time>2026-05-02T08:06:32.999Z</time></trkpt><trkpt lat="42.845783718739305" lon="13.695551059324975"><ele>85.0</ele><time>2026-05-02T08:06:33.999Z</time></trkpt><trkpt lat="42.84574161843598" lon="13.695162028338835"><ele>85.0</ele><time>2026-05-02T08:06:34.999Z</time></trkpt><trkpt lat="42.84568370786404" lon="13.694778080550844"><ele>85.0</ele><time>2026-05-02T08:06:35.999Z</time></trkpt><trkpt lat="42.845621271940686" lon="13.69438961366594"><ele>83.5</ele><time>2026-05-02T08:06:36.999Z</time></trkpt><trkpt lat="42.84554593345624" lon="13.694006988118193"><ele>82.0</ele><time>2026-05-02T08:06:37.999Z</time></trkpt><trkpt lat="42.845470990404465" lon="13.693629611980127"><ele>79.0</ele><time>2026-05-02T08:06:38.999Z</time></trkpt><trkpt lat="42.84539576075568" lon="13.693259409487766"><ele>76.0</ele><time>2026-05-02T08:06:39.999Z</time></trkpt><trkpt lat="42.84532452285376" lon="13.692891883539298"><ele>78.5</ele><time>2026-05-02T08:06:40.999Z</time></trkpt><trkpt lat="42.84525713454011" lon="13.692528783044464"><ele>81.0</ele><time>2026-05-02T08:06:41.999Z</time></trkpt><trkpt lat="42.845187939886536" lon="13.692170547286041"><ele>84.5</ele><time>2026-05-02T08:06:42.999Z</time></trkpt><trkpt lat="42.84511474366532" lon="13.691820801400102"><ele>88.0</ele><time>2026-05-02T08:06:44Z</time></trkpt><trkpt lat="42.845048691276624" lon="13.691469610628069"><ele>88.0</ele><time>2026-05-02T08:06:45Z</time></trkpt><trkpt lat="42.844982243827076" lon="13.691123692335854"><ele>88.0</ele><time>2026-05-02T08:06:46Z</time></trkpt><trkpt lat="42.84491382503059" lon="13.690775422636614"><ele>88.0</ele><time>2026-05-02T08:06:47Z</time></trkpt><trkpt lat="42.84484636074607" lon="13.690428858109884"><ele>88.0</ele><time>2026-05-02T08:06:48Z</time></trkpt><trkpt lat="42.84477657645061" lon="13.690078017273034"><ele>89.0</ele><time>2026-05-02T08:06:49Z</time></trkpt><trkpt lat="42.84470685903502" lon="13.689713886177136"><ele>90.0</ele><time>2026-05-02T08:06:50Z</time></trkpt><trkpt lat="42.844635167686626" lon="13.689350701117142"><ele>91.0</ele><time>2026-05-02T08:06:50.999Z</time></trkpt><trkpt lat="42.8445614254214" lon="13.68897511152039"><ele>92.0</ele><time>2026-05-02T08:06:51.999Z</time></trkpt><trkpt lat="42.844487375064354" lon="13.688585116217777"><ele>90.0</ele><time>2026-05-02T08:06:52.999Z</time></trkpt><trkpt lat="42.844412234992575" lon="13.688190770763345"><ele>88.0</ele><time>2026-05-02T08:06:53.999Z</time></trkpt><trkpt lat="42.844333561390165" lon="13.687790194218307"><ele>90.5</ele><time>2026-05-02T08:06:54.999Z</time></trkpt><trkpt lat="42.84425647618145" lon="13.687388233542608"><ele>93.0</ele><time>2026-05-02T08:06:55.999Z</time></trkpt><trkpt lat="42.84417534391434" lon="13.68698201878291"><ele>93.0</ele><time>2026-05-02T08:06:56.999Z</time></trkpt><trkpt lat="42.84409561209965" lon="13.68657343020032"><ele>93.0</ele><time>2026-05-02T08:06:57.999Z</time></trkpt><trkpt lat="42.84401919243632" lon="13.68616345463718"><ele>94.5</ele><time>2026-05-02T08:06:58.999Z</time></trkpt><trkpt lat="42.84394636157779" lon="13.685754742452271"><ele>96.0</ele><time>2026-05-02T08:06:59.999Z</time></trkpt><trkpt lat="42.843878434926786" lon="13.68534384351035"><ele>94.5</ele><time>2026-05-02T08:07:00.999Z</time></trkpt><trkpt lat="42.84381585370742" lon="13.684930988365654"><ele>93.0</ele><time>2026-05-02T08:07:01.999Z</time></trkpt><trkpt lat="42.84375577275789" lon="13.68452361508948"><ele>88.5</ele><time>2026-05-02T08:07:02.999Z</time></trkpt><trkpt lat="42.84369840897157" lon="13.684119348852475"><ele>84.0</ele><time>2026-05-02T08:07:03.999Z</time></trkpt><trkpt lat="42.84364675728751" lon="13.68371588179005"><ele>79.0</ele><time>2026-05-02T08:07:04.999Z</time></trkpt><trkpt lat="42.84360256480239" lon="13.683307467847401"><ele>74.0</ele><time>2026-05-02T08:07:05.999Z</time></trkpt><trkpt lat="42.84356903295849" lon="13.682916719119167"><ele>72.0</ele><time>2026-05-02T08:07:06.999Z</time></trkpt><trkpt lat="42.84353300174872" lon="13.682519812908291"><ele>70.0</ele><time>2026-05-02T08:07:07.999Z</time></trkpt><trkpt lat="42.84350347889626" lon="13.682120400507229"><ele>70.0</ele><time>2026-05-02T08:07:08.999Z</time></trkpt><trkpt lat="42.84348073514432" lon="13.681707520241991"><ele>70.0</ele><time>2026-05-02T08:07:09.999Z</time></trkpt><trkpt lat="42.8434533745472" lon="13.681302690292725"><ele>79.0</ele><time>2026-05-02T08:07:10.999Z</time></trkpt><trkpt lat="42.843437460996235" lon="13.680880011530208"><ele>88.0</ele><time>2026-05-02T08:07:11.999Z</time></trkpt><trkpt lat="42.84342343567047" lon="13.680457132604886"><ele>90.0</ele><time>2026-05-02T08:07:12.999Z</time></trkpt><trkpt lat="42.84341789116117" lon="13.68001736480258"><ele>92.0</ele><time>2026-05-02T08:07:13.999Z</time></trkpt><trkpt lat="42.84341999385873" lon="13.679589205787323"><ele>93.0</ele><time>2026-05-02T08:07:14.999Z</time></trkpt><trkpt lat="42.84342071649333" lon="13.679154405042079"><ele>94.0</ele><time>2026-05-02T08:07:15.999Z</time></trkpt><trkpt lat="42.84341156806893" lon="13.678693432040985"><ele>94.5</ele><time>2026-05-02T08:07:16.999Z</time></trkpt><trkpt lat="42.843396353807705" lon="13.67822622641931"><ele>95.0</ele><time>2026-05-02T08:07:17.999Z</time></trkpt><trkpt lat="42.84344924101272" lon="13.677795203116434"><ele>86.5</ele><time>2026-05-02T08:07:18.999Z</time></trkpt><trkpt lat="42.84347407243563" lon="13.677344844718062"><ele>78.0</ele><time>2026-05-02T08:07:19.999Z</time></trkpt><trkpt lat="42.843505687158405" lon="13.676898755671612"><ele>77.0</ele><time>2026-05-02T08:07:20.999Z</time></trkpt><trkpt lat="42.84354231851296" lon="13.676453273079055"><ele>76.0</ele><time>2026-05-02T08:07:21.999Z</time></trkpt><trkpt lat="42.84358348120258" lon="13.676011355529806"><ele>78.5</ele><time>2026-05-02T08:07:22.999Z</time></trkpt><trkpt lat="42.843629158825976" lon="13.67556878509604"><ele>81.0</ele><time>2026-05-02T08:07:23.999Z</time></trkpt><trkpt lat="42.84367230828968" lon="13.675124915741485"><ele>81.5</ele><time>2026-05-02T08:07:24.999Z</time></trkpt><trkpt lat="42.8437148815195" lon="13.67468584580909"><ele>82.0</ele><time>2026-05-02T08:07:25.999Z</time></trkpt><trkpt lat="42.84375898894999" lon="13.674251856045963"><ele>83.0</ele><time>2026-05-02T08:07:26.999Z</time></trkpt><trkpt lat="42.843799011810496" lon="13.673819882584857"><ele>84.0</ele><time>2026-05-02T08:07:27.999Z</time></trkpt><trkpt lat="42.84383782079404" lon="13.67339214071202"><ele>84.0</ele><time>2026-05-02T08:07:28.999Z</time></trkpt><trkpt lat="42.84387681827978" lon="13.67296707306973"><ele>84.0</ele><time>2026-05-02T08:07:29.999Z</time></trkpt><trkpt lat="42.843923951650034" lon="13.67254561279229"><ele>87.5</ele><time>2026-05-02T08:07:30.999Z</time></trkpt><trkpt lat="42.843961873697026" lon="13.67212910469739"><ele>91.0</ele><time>2026-05-02T08:07:31.999Z</time></trkpt><trkpt lat="42.843986684407064" lon="13.67171413017747"><ele>94.0</ele><time>2026-05-02T08:07:32.999Z</time></trkpt><trkpt lat="42.843998934871635" lon="13.671301269984841"><ele>97.0</ele><time>2026-05-02T08:07:33.999Z</time></trkpt><trkpt lat="42.84399655258873" lon="13.670895388861066"><ele>98.5</ele><time>2026-05-02T08:07:34.999Z</time></trkpt><trkpt lat="42.84399112132954" lon="13.670500433975201"><ele>100.0</ele><time>2026-05-02T08:07:35.999Z</time></trkpt><trkpt lat="42.843975019700515" lon="13.670110797367393"><ele>100.5</ele><time>2026-05-02T08:07:36.999Z</time></trkpt><trkpt lat="42.84395173077613" lon="13.669736017088423"><ele>101.0</ele><time>2026-05-02T08:07:37.999Z</time></trkpt><trkpt lat="42.843919783507566" lon="13.669362826758167"><ele>98.5</ele><time>2026-05-02T08:07:38.999Z</time></trkpt><trkpt lat="42.84388125286184" lon="13.668994103201047"><ele>96.0</ele><time>2026-05-02T08:07:39.999Z</time></trkpt><trkpt lat="42.84383748964428" lon="13.668639534399757"><ele>94.5</ele><time>2026-05-02T08:07:40.999Z</time></trkpt><trkpt lat="42.843771246908325" lon="13.668299537513512"><ele>93.0</ele><time>2026-05-02T08:07:41.999Z</time></trkpt><trkpt lat="42.8437082697252" lon="13.66795654878538"><ele>92.5</ele><time>2026-05-02T08:07:42.999Z</time></trkpt><trkpt lat="42.843641438156226" lon="13.667615332394213"><ele>92.0</ele><time>2026-05-02T08:07:43.999Z</time></trkpt><trkpt lat="42.843572601792246" lon="13.667285464927279"><ele>92.0</ele><time>2026-05-02T08:07:44.999Z</time></trkpt><trkpt lat="42.843492796252484" lon="13.666963145721573"><ele>92.0</ele><time>2026-05-02T08:07:45.999Z</time></trkpt><trkpt lat="42.84341131534161" lon="13.666646481978537"><ele>94.5</ele><time>2026-05-02T08:07:46.999Z</time></trkpt><trkpt lat="42.843315983853756" lon="13.66633204801317"><ele>97.0</ele><time>2026-05-02T08:07:47.999Z</time></trkpt><trkpt lat="42.84321712027736" lon="13.666022341076904"><ele>97.0</ele><time>2026-05-02T08:07:48.999Z</time></trkpt><trkpt lat="42.843110841416504" lon="13.665721848757117"><ele>97.0</ele><time>2026-05-02T08:07:49.999Z</time></trkpt><trkpt lat="42.843013898305905" lon="13.665430018085015"><ele>97.0</ele><time>2026-05-02T08:07:50.999Z</time></trkpt><trkpt lat="42.84291874129357" lon="13.665138069593217"><ele>97.0</ele><time>2026-05-02T08:07:51.999Z</time></trkpt><trkpt lat="42.842823408996104" lon="13.664853072076562"><ele>97.0</ele><time>2026-05-02T08:07:52.999Z</time></trkpt><trkpt lat="42.84272942914717" lon="13.664568206307258"><ele>97.0</ele><time>2026-05-02T08:07:53.999Z</time></trkpt><trkpt lat="42.842635178793415" lon="13.664286441596179"><ele>98.0</ele><time>2026-05-02T08:07:54.999Z</time></trkpt><trkpt lat="42.84254159745785" lon="13.664007515874095"><ele>99.0</ele><time>2026-05-02T08:07:55.999Z</time></trkpt><trkpt lat="42.84244796109314" lon="13.66372986579226"><ele>100.0</ele><time>2026-05-02T08:07:56.999Z</time></trkpt><trkpt lat="42.84235884932769" lon="13.663451499202784"><ele>100.0</ele><time>2026-05-02T08:07:57.999Z</time></trkpt><trkpt lat="42.84226991585259" lon="13.66317242208427"><ele>100.0</ele><time>2026-05-02T08:07:58.999Z</time></trkpt><trkpt lat="42.84218071752706" lon="13.66289651986993"><ele>100.0</ele><time>2026-05-02T08:07:59.999Z</time></trkpt><trkpt lat="42.84209094630425" lon="13.662613349342363"><ele>98.33333333333334</ele><time>2026-05-02T08:08:00.999Z</time></trkpt><trkpt lat="42.84200124152376" lon="13.662335590612878"><ele>96.66666666666667</ele><time>2026-05-02T08:08:01.999Z</time></trkpt><trkpt lat="42.84190998832127" lon="13.662055069737562"><ele>95.0</ele><time>2026-05-02T08:08:02.999Z</time></trkpt><trkpt lat="42.84181827247698" lon="13.661781365224515"><ele>100.66666666666667</ele><time>2026-05-02T08:08:03.999Z</time></trkpt><trkpt lat="42.84172219101647" lon="13.661528590984283"><ele>106.33333333333334</ele><time>2026-05-02T08:08:04.999Z</time></trkpt><trkpt lat="42.84164180484534" lon="13.661259606928912"><ele>112.0</ele><time>2026-05-02T08:08:05.999Z</time></trkpt><trkpt lat="42.84155670364668" lon="13.660976276161225"><ele>112.0</ele><time>2026-05-02T08:08:06.999Z</time></trkpt><trkpt lat="42.84146708242091" lon="13.660701956546289"><ele>112.0</ele><time>2026-05-02T08:08:07.999Z</time></trkpt><trkpt lat="42.84138075418104" lon="13.660430947206518"><ele>112.0</ele><time>2026-05-02T08:08:08.999Z</time></trkpt><trkpt lat="42.84129197381694" lon="13.660177792480905"><ele>110.5</ele><time>2026-05-02T08:08:09.999Z</time></trkpt><trkpt lat="42.84119867035128" lon="13.659883411523541"><ele>109.0</ele><time>2026-05-02T08:08:10.999Z</time></trkpt><trkpt lat="42.84110650650981" lon="13.659603431221218"><ele>109.66666666666667</ele><time>2026-05-02T08:08:11.999Z</time></trkpt><trkpt lat="42.84101596325579" lon="13.659334659421766"><ele>110.33333333333334</ele><time>2026-05-02T08:08:12.999Z</time></trkpt><trkpt lat="42.84092517497909" lon="13.659052187991723"><ele>111.0</ele><time>2026-05-02T08:08:13.999Z</time></trkpt><trkpt lat="42.840829909048416" lon="13.65877439464865"><ele>109.0</ele><time>2026-05-02T08:08:14.999Z</time></trkpt><trkpt lat="42.84074595226493" lon="13.658486655143967"><ele>107.0</ele><time>2026-05-02T08:08:15.999Z</time></trkpt><trkpt lat="42.84066764711546" lon="13.658195702090456"><ele>107.0</ele><time>2026-05-02T08:08:16.999Z</time></trkpt><trkpt lat="42.840588393234796" lon="13.657898695924441"><ele>107.0</ele><time>2026-05-02T08:08:17.999Z</time></trkpt><trkpt lat="42.84051180650208" lon="13.657590267506603"><ele>107.0</ele><time>2026-05-02T08:08:18.999Z</time></trkpt><trkpt lat="42.84044091914344" lon="13.65728981829408"><ele>107.0</ele><time>2026-05-02T08:08:19.999Z</time></trkpt><trkpt lat="42.8403734643734" lon="13.656987750260217"><ele>107.5</ele><time>2026-05-02T08:08:20.999Z</time></trkpt><trkpt lat="42.84031066867931" lon="13.656680829800754"><ele>108.0</ele><time>2026-05-02T08:08:21.999Z</time></trkpt><trkpt lat="42.84025725524455" lon="13.656375142828407"><ele>108.5</ele><time>2026-05-02T08:08:22.999Z</time></trkpt><trkpt lat="42.84020295495355" lon="13.656062390754313"><ele>109.0</ele><time>2026-05-02T08:08:23.999Z</time></trkpt><trkpt lat="42.840155074567484" lon="13.655752094655892"><ele>110.5</ele><time>2026-05-02T08:08:24.999Z</time></trkpt><trkpt lat="42.84011232329884" lon="13.655439559683701"><ele>112.0</ele><time>2026-05-02T08:08:25.999Z</time></trkpt><trkpt lat="42.84007353774945" lon="13.655121336092495"><ele>112.0</ele><time>2026-05-02T08:08:26.999Z</time></trkpt><trkpt lat="42.84003571495718" lon="13.654810075172739"><ele>112.0</ele><time>2026-05-02T08:08:27.999Z</time></trkpt><trkpt lat="42.8400069570325" lon="13.654487662152391"><ele>112.5</ele><time>2026-05-02T08:08:28.999Z</time></trkpt><trkpt lat="42.839982791051476" lon="13.654182606824628"><ele>113.0</ele><time>2026-05-02T08:08:29.999Z</time></trkpt><trkpt lat="42.8399616238054" lon="13.653849588737144"><ele>111.0</ele><time>2026-05-02T08:08:30.998Z</time></trkpt><trkpt lat="42.839951354993104" lon="13.653526005324645"><ele>109.0</ele><time>2026-05-02T08:08:31.998Z</time></trkpt><trkpt lat="42.839938149761714" lon="13.653214185081204"><ele>109.0</ele><time>2026-05-02T08:08:32.998Z</time></trkpt><trkpt lat="42.83993245841735" lon="13.652899119231353"><ele>109.0</ele><time>2026-05-02T08:08:33.998Z</time></trkpt><trkpt lat="42.839930468181805" lon="13.652585927922313"><ele>108.5</ele><time>2026-05-02T08:08:34.998Z</time></trkpt><trkpt lat="42.83993308756475" lon="13.652273101949294"><ele>108.0</ele><time>2026-05-02T08:08:35.998Z</time></trkpt><trkpt lat="42.83994364647424" lon="13.651961309972785"><ele>110.0</ele><time>2026-05-02T08:08:36.998Z</time></trkpt><trkpt lat="42.839950594479234" lon="13.6516448200682"><ele>112.0</ele><time>2026-05-02T08:08:37.998Z</time></trkpt><trkpt lat="42.83996874155926" lon="13.651329665046836"><ele>113.0</ele><time>2026-05-02T08:08:38.998Z</time></trkpt><trkpt lat="42.839982317583654" lon="13.651008473012798"><ele>114.0</ele><time>2026-05-02T08:08:39.998Z</time></trkpt><trkpt lat="42.83999056192318" lon="13.650685940009888"><ele>114.0</ele><time>2026-05-02T08:08:40.998Z</time></trkpt><trkpt lat="42.83999962328721" lon="13.650345930289125"><ele>114.0</ele><time>2026-05-02T08:08:41.998Z</time></trkpt><trkpt lat="42.84001255400521" lon="13.649997256393968"><ele>114.0</ele><time>2026-05-02T08:08:42.998Z</time></trkpt><trkpt lat="42.84001987304627" lon="13.649645124639504"><ele>114.0</ele><time>2026-05-02T08:08:43.998Z</time></trkpt><trkpt lat="42.84002887276844" lon="13.649289273569032"><ele>114.0</ele><time>2026-05-02T08:08:44.998Z</time></trkpt><trkpt lat="42.840039789819194" lon="13.648920979000726"><ele>114.0</ele><time>2026-05-02T08:08:45.998Z</time></trkpt><trkpt lat="42.840053215641824" lon="13.648546989759975"><ele>115.0</ele><time>2026-05-02T08:08:46.998Z</time></trkpt><trkpt lat="42.84006616945028" lon="13.648170746893625"><ele>116.0</ele><time>2026-05-02T08:08:47.998Z</time></trkpt><trkpt lat="42.840079830803965" lon="13.64778563049066"><ele>118.5</ele><time>2026-05-02T08:08:49Z</time></trkpt><trkpt lat="42.840092103420616" lon="13.647405063571249"><ele>121.0</ele><time>2026-05-02T08:08:50Z</time></trkpt><trkpt lat="42.84010545452175" lon="13.647027653643287"><ele>120.0</ele><time>2026-05-02T08:08:51Z</time></trkpt><trkpt lat="42.84011858442015" lon="13.646651901561267"><ele>119.0</ele><time>2026-05-02T08:08:52Z</time></trkpt><trkpt lat="42.84013108184789" lon="13.646278902618713"><ele>118.0</ele><time>2026-05-02T08:08:53Z</time></trkpt><trkpt lat="42.840142673404465" lon="13.645920164458573"><ele>117.0</ele><time>2026-05-02T08:08:54Z</time></trkpt><trkpt lat="42.8401543669423" lon="13.64554408444459"><ele>117.0</ele><time>2026-05-02T08:08:55Z</time></trkpt><trkpt lat="42.8401621457775" lon="13.64520502600558"><ele>117.0</ele><time>2026-05-02T08:08:56Z</time></trkpt><trkpt lat="42.84016974654292" lon="13.644880197524355"><ele>117.0</ele><time>2026-05-02T08:08:57Z</time></trkpt><trkpt lat="42.84017764334662" lon="13.644550199394232"><ele>117.0</ele><time>2026-05-02T08:08:58Z</time></trkpt><trkpt lat="42.840188986005025" lon="13.64422082193706"><ele>116.5</ele><time>2026-05-02T08:08:59Z</time></trkpt><trkpt lat="42.84019814234507" lon="13.643890741344944"><ele>116.0</ele><time>2026-05-02T08:09:00Z</time></trkpt><trkpt lat="42.840207583858245" lon="13.643560350964306"><ele>113.5</ele><time>2026-05-02T08:09:01Z</time></trkpt><trkpt lat="42.84021968068829" lon="13.643233481611672"><ele>111.0</ele><time>2026-05-02T08:09:02Z</time></trkpt><trkpt lat="42.84023416560288" lon="13.64290400755202"><ele>111.0</ele><time>2026-05-02T08:09:03Z</time></trkpt><trkpt lat="42.84024615398599" lon="13.642576611530728"><ele>111.0</ele><time>2026-05-02T08:09:04Z</time></trkpt><trkpt lat="42.840256526443106" lon="13.642250137071319"><ele>109.5</ele><time>2026-05-02T08:09:05Z</time></trkpt><trkpt lat="42.84026220092895" lon="13.641925760097655"><ele>108.0</ele><time>2026-05-02T08:09:06Z</time></trkpt><trkpt lat="42.840267514027175" lon="13.641601879346867"><ele>108.0</ele><time>2026-05-02T08:09:07Z</time></trkpt><trkpt lat="42.84026917513742" lon="13.641277842304977"><ele>108.0</ele><time>2026-05-02T08:09:08Z</time></trkpt><trkpt lat="42.84026621490612" lon="13.640956473512215"><ele>108.0</ele><time>2026-05-02T08:09:08.999Z</time></trkpt><trkpt lat="42.84025658348548" lon="13.640636540247854"><ele>108.0</ele><time>2026-05-02T08:09:09.999Z</time></trkpt><trkpt lat="42.84023955380903" lon="13.64031706518934"><ele>110.5</ele><time>2026-05-02T08:09:10.999Z</time></trkpt><trkpt lat="42.840213562489524" lon="13.639999464673554"><ele>113.0</ele><time>2026-05-02T08:09:11.999Z</time></trkpt><trkpt lat="42.84018256220351" lon="13.639684898026033"><ele>114.5</ele><time>2026-05-02T08:09:12.999Z</time></trkpt><trkpt lat="42.8401487970229" lon="13.63937126283142"><ele>116.0</ele><time>2026-05-02T08:09:13.999Z</time></trkpt><trkpt lat="42.84011066499548" lon="13.639065081065388"><ele>119.0</ele><time>2026-05-02T08:09:14.999Z</time></trkpt><trkpt lat="42.84006585158687" lon="13.638758377910321"><ele>122.0</ele><time>2026-05-02T08:09:15.999Z</time></trkpt><trkpt lat="42.840016798324726" lon="13.638454791464723"><ele>123.66666666666666</ele><time>2026-05-02T08:09:16.999Z</time></trkpt><trkpt lat="42.839960743188335" lon="13.638157279690313"><ele>125.33333333333334</ele><time>2026-05-02T08:09:17.999Z</time></trkpt><trkpt lat="42.83989944275326" lon="13.637864586357825"><ele>127.0</ele><time>2026-05-02T08:09:18.999Z</time></trkpt><trkpt lat="42.83983311409013" lon="13.637573497866136"><ele>127.0</ele><time>2026-05-02T08:09:19.999Z</time></trkpt><trkpt lat="42.839759060193806" lon="13.637279793848128"><ele>127.0</ele><time>2026-05-02T08:09:20.999Z</time></trkpt><trkpt lat="42.839682154350015" lon="13.63698601671412"><ele>126.0</ele><time>2026-05-02T08:09:21.999Z</time></trkpt><trkpt lat="42.83960280878425" lon="13.636693215891638"><ele>125.0</ele><time>2026-05-02T08:09:22.999Z</time></trkpt><trkpt lat="42.839520531733264" lon="13.636398462724479"><ele>124.5</ele><time>2026-05-02T08:09:23.999Z</time></trkpt><trkpt lat="42.839434648976514" lon="13.6361028563946"><ele>124.0</ele><time>2026-05-02T08:09:24.999Z</time></trkpt><trkpt lat="42.83934915481891" lon="13.63580338254379"><ele>126.0</ele><time>2026-05-02T08:09:25.999Z</time></trkpt><trkpt lat="42.83926497008346" lon="13.635502947394363"><ele>128.0</ele><time>2026-05-02T08:09:26.999Z</time></trkpt><trkpt lat="42.83918011012689" lon="13.63519617735341"><ele>128.0</ele><time>2026-05-02T08:09:27.999Z</time></trkpt><trkpt lat="42.83909111089457" lon="13.634871280790216"><ele>128.0</ele><time>2026-05-02T08:09:28.999Z</time></trkpt><trkpt lat="42.83899924099024" lon="13.634544132405177"><ele>127.5</ele><time>2026-05-02T08:09:29.999Z</time></trkpt><trkpt lat="42.838903242403596" lon="13.634207849070236"><ele>127.0</ele><time>2026-05-02T08:09:30.999Z</time></trkpt><trkpt lat="42.838805564045366" lon="13.633865148787784"><ele>125.5</ele><time>2026-05-02T08:09:31.999Z</time></trkpt><trkpt lat="42.83870808152317" lon="13.63351757511639"><ele>124.0</ele><time>2026-05-02T08:09:32.999Z</time></trkpt><trkpt lat="42.83861327892977" lon="13.633181417516905"><ele>124.0</ele><time>2026-05-02T08:09:33.999Z</time></trkpt><trkpt lat="42.83852690155206" lon="13.63287634840726"><ele>124.0</ele><time>2026-05-02T08:09:34.999Z</time></trkpt><trkpt lat="42.83844510218515" lon="13.632588872429077"><ele>126.0</ele><time>2026-05-02T08:09:35.999Z</time></trkpt><trkpt lat="42.838363886582755" lon="13.632301602259965"><ele>128.0</ele><time>2026-05-02T08:09:36.999Z</time></trkpt><trkpt lat="42.83827991808011" lon="13.632013342352792"><ele>128.5</ele><time>2026-05-02T08:09:37.999Z</time></trkpt><trkpt lat="42.83819663565363" lon="13.631725537431945"><ele>129.0</ele><time>2026-05-02T08:09:38.999Z</time></trkpt><trkpt lat="42.83811516289848" lon="13.631440868388218"><ele>129.0</ele><time>2026-05-02T08:09:39.999Z</time></trkpt><trkpt lat="42.838036916770484" lon="13.631153217703947"><ele>129.0</ele><time>2026-05-02T08:09:40.999Z</time></trkpt><trkpt lat="42.83796198932877" lon="13.630870563362475"><ele>129.0</ele><time>2026-05-02T08:09:41.999Z</time></trkpt><trkpt lat="42.83788850678453" lon="13.63058715333086"><ele>128.66666666666666</ele><time>2026-05-02T08:09:42.999Z</time></trkpt><trkpt lat="42.83782254366593" lon="13.630300693498233"><ele>128.33333333333331</ele><time>2026-05-02T08:09:43.999Z</time></trkpt><trkpt lat="42.83776757157183" lon="13.630018800788847"><ele>128.0</ele><time>2026-05-02T08:09:44.999Z</time></trkpt><trkpt lat="42.837710872852895" lon="13.629737607681685"><ele>128.33333333333331</ele><time>2026-05-02T08:09:45.999Z</time></trkpt><trkpt lat="42.83765885314799" lon="13.629468977067345"><ele>128.66666666666666</ele><time>2026-05-02T08:09:46.999Z</time></trkpt><trkpt lat="42.837610292678384" lon="13.629212042962902"><ele>129.0</ele><time>2026-05-02T08:09:47.999Z</time></trkpt><trkpt lat="42.8375685597469" lon="13.628970820721978"><ele>133.33333333333334</ele><time>2026-05-02T08:09:48.999Z</time></trkpt><trkpt lat="42.83753195603765" lon="13.628740975985748"><ele>137.66666666666669</ele><time>2026-05-02T08:09:49.999Z</time></trkpt><trkpt lat="42.83749798962447" lon="13.628497139646276"><ele>142.0</ele><time>2026-05-02T08:09:50.999Z</time></trkpt><trkpt lat="42.837458081798616" lon="13.628240265165697"><ele>144.33333333333334</ele><time>2026-05-02T08:09:51.999Z</time></trkpt><trkpt lat="42.837416002422124" lon="13.627985264698365"><ele>146.66666666666666</ele><time>2026-05-02T08:09:52.999Z</time></trkpt><trkpt lat="42.837374089221356" lon="13.627734065242867"><ele>149.0</ele><time>2026-05-02T08:09:53.999Z</time></trkpt><trkpt lat="42.83733762805925" lon="13.62748468094482"><ele>154.0</ele><time>2026-05-02T08:09:54.999Z</time></trkpt><trkpt lat="42.83730314899499" lon="13.627246279358763"><ele>159.0</ele><time>2026-05-02T08:09:55.999Z</time></trkpt><trkpt lat="42.83727418934116" lon="13.627010986163175"><ele>164.0</ele><time>2026-05-02T08:09:56.999Z</time></trkpt><trkpt lat="42.8372398788318" lon="13.626786145959317"><ele>165.66666666666666</ele><time>2026-05-02T08:09:57.999Z</time></trkpt><trkpt lat="42.83720725542182" lon="13.62652678307507"><ele>167.33333333333334</ele><time>2026-05-02T08:09:58.999Z</time></trkpt><trkpt lat="42.837175887110035" lon="13.626289489758372"><ele>169.0</ele><time>2026-05-02T08:09:59.999Z</time></trkpt><trkpt lat="42.83713327752785" lon="13.626065517737995"><ele>169.0</ele><time>2026-05-02T08:10:01.071Z</time></trkpt><trkpt lat="42.837095090115554" lon="13.625830724170427"><ele>169.0</ele><time>2026-05-02T08:10:02.065Z</time></trkpt><trkpt lat="42.837066316261534" lon="13.625587400549342"><ele>169.0</ele><time>2026-05-02T08:10:03.058Z</time></trkpt><trkpt lat="42.83703754891527" lon="13.625349558146981"><ele>165.33333333333334</ele><time>2026-05-02T08:10:04.045Z</time></trkpt><trkpt lat="42.83700697582293" lon="13.625103544108633"><ele>161.66666666666666</ele><time>2026-05-02T08:10:05.032Z</time></trkpt><trkpt lat="42.83697643343477" lon="13.624851467868062"><ele>158.0</ele><time>2026-05-02T08:10:06.026Z</time></trkpt><trkpt lat="42.836941187412904" lon="13.624588949554246"><ele>153.0</ele><time>2026-05-02T08:10:07.025Z</time></trkpt><trkpt lat="42.83690629736688" lon="13.624333328359493"><ele>148.0</ele><time>2026-05-02T08:10:08.026Z</time></trkpt><trkpt lat="42.83678464624253" lon="13.623393893149704"><ele>148.0</ele><time>2026-05-02T08:10:09.999Z</time></trkpt><trkpt lat="42.836767425908796" lon="13.623122970730268"><ele>148.0</ele><time>2026-05-02T08:10:10.999Z</time></trkpt><trkpt lat="42.836731211642615" lon="13.622857016180618"><ele>148.0</ele><time>2026-05-02T08:10:11.999Z</time></trkpt><trkpt lat="42.836737588342" lon="13.622574279493517"><ele>148.33333333333334</ele><time>2026-05-02T08:10:12.999Z</time></trkpt><trkpt lat="42.83673109999147" lon="13.622291350442534"><ele>148.66666666666666</ele><time>2026-05-02T08:10:13.999Z</time></trkpt><trkpt lat="42.83673131878242" lon="13.622012191491876"><ele>149.0</ele><time>2026-05-02T08:10:14.999Z</time></trkpt><trkpt lat="42.83671740488624" lon="13.621725024398772"><ele>148.33333333333331</ele><time>2026-05-02T08:10:15.999Z</time></trkpt><trkpt lat="42.83671573909559" lon="13.621446795809065"><ele>147.66666666666666</ele><time>2026-05-02T08:10:16.999Z</time></trkpt><trkpt lat="42.836717541523605" lon="13.621168148473455"><ele>147.0</ele><time>2026-05-02T08:10:17.999Z</time></trkpt><trkpt lat="42.836724044109225" lon="13.620890808859693"><ele>147.0</ele><time>2026-05-02T08:10:18.999Z</time></trkpt><trkpt lat="42.83673246777703" lon="13.620608266208833"><ele>147.0</ele><time>2026-05-02T08:10:19.999Z</time></trkpt><trkpt lat="42.83674471081084" lon="13.620320963604692"><ele>147.0</ele><time>2026-05-02T08:10:20.999Z</time></trkpt><trkpt lat="42.83675878741289" lon="13.620024231883049"><ele>148.0</ele><time>2026-05-02T08:10:21.999Z</time></trkpt><trkpt lat="42.83677648885605" lon="13.619712022997032"><ele>149.0</ele><time>2026-05-02T08:10:22.999Z</time></trkpt><trkpt lat="42.836799476855425" lon="13.619397877380067"><ele>149.5</ele><time>2026-05-02T08:10:23.999Z</time></trkpt><trkpt lat="42.83682628386549" lon="13.619079058121898"><ele>150.0</ele><time>2026-05-02T08:10:24.999Z</time></trkpt><trkpt lat="42.83685433162294" lon="13.618761247560524"><ele>152.0</ele><time>2026-05-02T08:10:25.999Z</time></trkpt><trkpt lat="42.83688835041307" lon="13.618440220235934"><ele>154.0</ele><time>2026-05-02T08:10:26.999Z</time></trkpt><trkpt lat="42.836923273813525" lon="13.618129451599092"><ele>154.0</ele><time>2026-05-02T08:10:27.999Z</time></trkpt><trkpt lat="42.83695935474057" lon="13.617838208395606"><ele>154.0</ele><time>2026-05-02T08:10:28.999Z</time></trkpt><trkpt lat="42.8369997835254" lon="13.617550245711087"><ele>154.0</ele><time>2026-05-02T08:10:29.999Z</time></trkpt><trkpt lat="42.83704434695248" lon="13.617260582933138"><ele>153.33333333333334</ele><time>2026-05-02T08:10:30.999Z</time></trkpt><trkpt lat="42.83709164982128" lon="13.616967179153155"><ele>152.66666666666666</ele><time>2026-05-02T08:10:31.999Z</time></trkpt><trkpt lat="42.83714291592542" lon="13.616672557700264"><ele>152.0</ele><time>2026-05-02T08:10:32.999Z</time></trkpt><trkpt lat="42.83719865933944" lon="13.616386465429413"><ele>153.0</ele><time>2026-05-02T08:10:33.999Z</time></trkpt><trkpt lat="42.8372524106833" lon="13.616109869518223"><ele>154.0</ele><time>2026-05-02T08:10:34.999Z</time></trkpt><trkpt lat="42.83730448755397" lon="13.615848773410788"><ele>155.0</ele><time>2026-05-02T08:10:35.999Z</time></trkpt><trkpt lat="42.83735820151808" lon="13.615589031451027"><ele>155.0</ele><time>2026-05-02T08:10:36.999Z</time></trkpt><trkpt lat="42.83741425031052" lon="13.615337437564634"><ele>155.0</ele><time>2026-05-02T08:10:37.999Z</time></trkpt><trkpt lat="42.837469024374876" lon="13.615089823579378"><ele>155.0</ele><time>2026-05-02T08:10:38.999Z</time></trkpt><trkpt lat="42.8375207016481" lon="13.614834320115953"><ele>155.66666666666666</ele><time>2026-05-02T08:10:39.999Z</time></trkpt><trkpt lat="42.83757803465413" lon="13.614557832527643"><ele>156.33333333333334</ele><time>2026-05-02T08:10:40.999Z</time></trkpt><trkpt lat="42.837639012896055" lon="13.6142646969375"><ele>157.0</ele><time>2026-05-02T08:10:41.999Z</time></trkpt><trkpt lat="42.837702804288405" lon="13.613954940971398"><ele>158.5</ele><time>2026-05-02T08:10:42.999Z</time></trkpt><trkpt lat="42.83776759763248" lon="13.613629701799766"><ele>160.0</ele><time>2026-05-02T08:10:43.999Z</time></trkpt><trkpt lat="42.83783597027668" lon="13.613303251243714"><ele>160.0</ele><time>2026-05-02T08:10:44.999Z</time></trkpt><trkpt lat="42.837903162815806" lon="13.612991800994806"><ele>160.0</ele><time>2026-05-02T08:10:45.999Z</time></trkpt><trkpt lat="42.83796253066191" lon="13.612709844441142"><ele>161.0</ele><time>2026-05-02T08:10:46.999Z</time></trkpt><trkpt lat="42.838017727832664" lon="13.612446408177592"><ele>162.0</ele><time>2026-05-02T08:10:47.999Z</time></trkpt><trkpt lat="42.83807358573735" lon="13.612185338591972"><ele>163.0</ele><time>2026-05-02T08:10:48.999Z</time></trkpt><trkpt lat="42.83813142325653" lon="13.611925639588886"><ele>163.66666666666669</ele><time>2026-05-02T08:10:49.999Z</time></trkpt><trkpt lat="42.838186786234395" lon="13.611666585277876"><ele>164.33333333333334</ele><time>2026-05-02T08:10:50.999Z</time></trkpt><trkpt lat="42.83823943412301" lon="13.611406845439712"><ele>165.0</ele><time>2026-05-02T08:10:51.998Z</time></trkpt><trkpt lat="42.83829308534459" lon="13.611148522484225"><ele>166.0</ele><time>2026-05-02T08:10:52.998Z</time></trkpt><trkpt lat="42.83834971720522" lon="13.610891426012776"><ele>167.0</ele><time>2026-05-02T08:10:53.998Z</time></trkpt><trkpt lat="42.838405803966985" lon="13.610634658854952"><ele>168.0</ele><time>2026-05-02T08:10:55Z</time></trkpt><trkpt lat="42.83846332402808" lon="13.610371510617545"><ele>168.66666666666666</ele><time>2026-05-02T08:10:56Z</time></trkpt><trkpt lat="42.83851790304212" lon="13.6101080676963"><ele>169.33333333333331</ele><time>2026-05-02T08:10:57Z</time></trkpt><trkpt lat="42.838571455491895" lon="13.60984973556404"><ele>170.0</ele><time>2026-05-02T08:10:58Z</time></trkpt><trkpt lat="42.83862600212055" lon="13.609586101412859"><ele>171.0</ele><time>2026-05-02T08:10:59Z</time></trkpt><trkpt lat="42.83868235477275" lon="13.609310743019723"><ele>172.0</ele><time>2026-05-02T08:11:00Z</time></trkpt><trkpt lat="42.838742105113546" lon="13.609035344869005"><ele>173.0</ele><time>2026-05-02T08:11:01Z</time></trkpt><trkpt lat="42.8388041633478" lon="13.608761011076078"><ele>174.66666666666666</ele><time>2026-05-02T08:11:02Z</time></trkpt><trkpt lat="42.838867049711595" lon="13.60848647509471"><ele>176.33333333333334</ele><time>2026-05-02T08:11:03Z</time></trkpt><trkpt lat="42.838936189828416" lon="13.60820566096403"><ele>178.0</ele><time>2026-05-02T08:11:04Z</time></trkpt><trkpt lat="42.83900967932185" lon="13.60792544377913"><ele>179.33333333333334</ele><time>2026-05-02T08:11:05Z</time></trkpt><trkpt lat="42.83908396541823" lon="13.607655436826878"><ele>180.66666666666666</ele><time>2026-05-02T08:11:06Z</time></trkpt><trkpt lat="42.839164984489756" lon="13.607365095964392"><ele>182.0</ele><time>2026-05-02T08:11:07Z</time></trkpt><trkpt lat="42.83924715144189" lon="13.607081938448657"><ele>181.66666666666666</ele><time>2026-05-02T08:11:08Z</time></trkpt><trkpt lat="42.83931811190853" lon="13.606815884121108"><ele>181.33333333333334</ele><time>2026-05-02T08:11:09Z</time></trkpt><trkpt lat="42.83940284507181" lon="13.606572544202288"><ele>181.0</ele><time>2026-05-02T08:11:10Z</time></trkpt><trkpt lat="42.83948329592716" lon="13.606323932637977"><ele>182.33333333333334</ele><time>2026-05-02T08:11:11Z</time></trkpt><trkpt lat="42.83956113009691" lon="13.606058440841844"><ele>183.66666666666666</ele><time>2026-05-02T08:11:12Z</time></trkpt><trkpt lat="42.839638561837546" lon="13.605804527204283"><ele>185.0</ele><time>2026-05-02T08:11:13Z</time></trkpt><trkpt lat="42.83971728835369" lon="13.605544996455183"><ele>186.33333333333331</ele><time>2026-05-02T08:11:14Z</time></trkpt><trkpt lat="42.83979396691543" lon="13.60529331984576"><ele>187.66666666666666</ele><time>2026-05-02T08:11:15Z</time></trkpt><trkpt lat="42.8398725411056" lon="13.605036763406702"><ele>189.0</ele><time>2026-05-02T08:11:16Z</time></trkpt><trkpt lat="42.83995254957912" lon="13.604772983912158"><ele>189.0</ele><time>2026-05-02T08:11:17Z</time></trkpt><trkpt lat="42.84003522485177" lon="13.604508901068648"><ele>189.0</ele><time>2026-05-02T08:11:18Z</time></trkpt><trkpt lat="42.840118933356294" lon="13.604246467369858"><ele>189.0</ele><time>2026-05-02T08:11:19Z</time></trkpt><trkpt lat="42.84020489119581" lon="13.603983226396634"><ele>191.0</ele><time>2026-05-02T08:11:20Z</time></trkpt><trkpt lat="42.84029203905488" lon="13.603721197622818"><ele>193.0</ele><time>2026-05-02T08:11:21Z</time></trkpt><trkpt lat="42.840382551984945" lon="13.603459817349307"><ele>195.0</ele><time>2026-05-02T08:11:22Z</time></trkpt><trkpt lat="42.84047433265413" lon="13.603201210859948"><ele>195.33333333333331</ele><time>2026-05-02T08:11:23Z</time></trkpt><trkpt lat="42.84056765082765" lon="13.602941033974195"><ele>195.66666666666666</ele><time>2026-05-02T08:11:24Z</time></trkpt><trkpt lat="42.84066256361132" lon="13.602686109626788"><ele>196.0</ele><time>2026-05-02T08:11:25Z</time></trkpt><trkpt lat="42.840755156279535" lon="13.602448475880148"><ele>196.33333333333331</ele><time>2026-05-02T08:11:26Z</time></trkpt><trkpt lat="42.84084942885791" lon="13.60221571183291"><ele>196.66666666666669</ele><time>2026-05-02T08:11:27Z</time></trkpt><trkpt lat="42.840945544426944" lon="13.60199013599556"><ele>197.0</ele><time>2026-05-02T08:11:28Z</time></trkpt><trkpt lat="42.84104526884484" lon="13.60176385693892"><ele>199.0</ele><time>2026-05-02T08:11:29Z</time></trkpt><trkpt lat="42.841141606888876" lon="13.601540174259082"><ele>201.0</ele><time>2026-05-02T08:11:30Z</time></trkpt><trkpt lat="42.84124551645927" lon="13.601316623201495"><ele>203.0</ele><time>2026-05-02T08:11:31Z</time></trkpt><trkpt lat="42.84135127750996" lon="13.601087971052383"><ele>203.66666666666669</ele><time>2026-05-02T08:11:31.999Z</time></trkpt><trkpt lat="42.84146610200894" lon="13.600856459634585"><ele>204.33333333333331</ele><time>2026-05-02T08:11:32.999Z</time></trkpt><trkpt lat="42.84158855669455" lon="13.600622405131976"><ele>205.0</ele><time>2026-05-02T08:11:33.999Z</time></trkpt><trkpt lat="42.84170572562996" lon="13.600404432799422"><ele>205.0</ele><time>2026-05-02T08:11:34.999Z</time></trkpt><trkpt lat="42.84181513587618" lon="13.600212530722805"><ele>205.0</ele><time>2026-05-02T08:11:35.999Z</time></trkpt><trkpt lat="42.841918663123245" lon="13.600033776560073"><ele>205.0</ele><time>2026-05-02T08:11:36.999Z</time></trkpt><trkpt lat="42.842025306678806" lon="13.599855880154415"><ele>205.0</ele><time>2026-05-02T08:11:37.999Z</time></trkpt><trkpt lat="42.842136546265486" lon="13.599679913259084"><ele>205.0</ele><time>2026-05-02T08:11:38.999Z</time></trkpt><trkpt lat="42.84224913553303" lon="13.59951215564849"><ele>205.0</ele><time>2026-05-02T08:11:39.999Z</time></trkpt><trkpt lat="42.842366824617656" lon="13.5993310248916"><ele>206.0</ele><time>2026-05-02T08:11:40.999Z</time></trkpt><trkpt lat="42.84249150436126" lon="13.599148139644726"><ele>207.0</ele><time>2026-05-02T08:11:41.999Z</time></trkpt><trkpt lat="42.8426229183292" lon="13.598962801898805"><ele>208.0</ele><time>2026-05-02T08:11:42.999Z</time></trkpt><trkpt lat="42.84276129694784" lon="13.598776571304679"><ele>208.0</ele><time>2026-05-02T08:11:43.999Z</time></trkpt><trkpt lat="42.84290548295146" lon="13.598588348887828"><ele>208.0</ele><time>2026-05-02T08:11:44.999Z</time></trkpt><trkpt lat="42.84305616904553" lon="13.598392681374436"><ele>208.0</ele><time>2026-05-02T08:11:45.999Z</time></trkpt><trkpt lat="42.84321462134463" lon="13.598196170940795"><ele>208.0</ele><time>2026-05-02T08:11:46.999Z</time></trkpt><trkpt lat="42.843382843489124" lon="13.597991838098485"><ele>208.0</ele><time>2026-05-02T08:11:47.999Z</time></trkpt><trkpt lat="42.843555684874076" lon="13.597791113759108"><ele>201.0</ele><time>2026-05-02T08:11:48.999Z</time></trkpt><trkpt lat="42.84373704043988" lon="13.597586585470696"><ele>194.0</ele><time>2026-05-02T08:11:49.999Z</time></trkpt><trkpt lat="42.84392092696799" lon="13.597371678947491"><ele>194.0</ele><time>2026-05-02T08:11:50.999Z</time></trkpt><trkpt lat="42.84409711107802" lon="13.597168774388665"><ele>194.0</ele><time>2026-05-02T08:11:51.999Z</time></trkpt><trkpt lat="42.84426768054901" lon="13.596966404299852"><ele>193.0</ele><time>2026-05-02T08:11:52.999Z</time></trkpt><trkpt lat="42.844440403839" lon="13.596747597595138"><ele>192.0</ele><time>2026-05-02T08:11:53.999Z</time></trkpt><trkpt lat="42.84461760239855" lon="13.596506979868938"><ele>192.0</ele><time>2026-05-02T08:11:54.999Z</time></trkpt><trkpt lat="42.844795888484256" lon="13.596242210553173"><ele>192.0</ele><time>2026-05-02T08:11:55.999Z</time></trkpt><trkpt lat="42.84497034251104" lon="13.595955137287236"><ele>191.5</ele><time>2026-05-02T08:11:56.999Z</time></trkpt><trkpt lat="42.845137969336825" lon="13.595653146424098"><ele>191.0</ele><time>2026-05-02T08:11:57.999Z</time></trkpt><trkpt lat="42.845306250173586" lon="13.59534423555758"><ele>194.5</ele><time>2026-05-02T08:11:58.999Z</time></trkpt><trkpt lat="42.84546319570194" lon="13.595052761983919"><ele>198.0</ele><time>2026-05-02T08:11:59.999Z</time></trkpt><trkpt lat="42.845608851782465" lon="13.594772212504418"><ele>199.0</ele><time>2026-05-02T08:12:00.999Z</time></trkpt><trkpt lat="42.84574757654861" lon="13.59448599081191"><ele>200.0</ele><time>2026-05-02T08:12:01.999Z</time></trkpt><trkpt lat="42.84587215789654" lon="13.594170798266191"><ele>196.0</ele><time>2026-05-02T08:12:02.999Z</time></trkpt><trkpt lat="42.84599039658102" lon="13.593837970855727"><ele>192.0</ele><time>2026-05-02T08:12:03.999Z</time></trkpt><trkpt lat="42.84610361532997" lon="13.593481573824018"><ele>192.0</ele><time>2026-05-02T08:12:04.999Z</time></trkpt><trkpt lat="42.846213930357685" lon="13.59311711267216"><ele>192.0</ele><time>2026-05-02T08:12:05.999Z</time></trkpt><trkpt lat="42.84632242390533" lon="13.592758478092053"><ele>195.0</ele><time>2026-05-02T08:12:06.999Z</time></trkpt><trkpt lat="42.84642180286949" lon="13.592392757201987"><ele>198.0</ele><time>2026-05-02T08:12:07.999Z</time></trkpt><trkpt lat="42.84649665364092" lon="13.592038451565685"><ele>199.5</ele><time>2026-05-02T08:12:08.999Z</time></trkpt><trkpt lat="42.84655226404822" lon="13.591674369873509"><ele>201.0</ele><time>2026-05-02T08:12:09.999Z</time></trkpt><trkpt lat="42.846590150427566" lon="13.591296304734827"><ele>199.0</ele><time>2026-05-02T08:12:10.999Z</time></trkpt><trkpt lat="42.84660011106321" lon="13.590905217185618"><ele>197.0</ele><time>2026-05-02T08:12:11.999Z</time></trkpt><trkpt lat="42.84660018346602" lon="13.59050855419442"><ele>196.0</ele><time>2026-05-02T08:12:12.999Z</time></trkpt><trkpt lat="42.84660775195211" lon="13.59011748991476"><ele>195.0</ele><time>2026-05-02T08:12:13.999Z</time></trkpt><trkpt lat="42.84661037003057" lon="13.589723106913745"><ele>194.0</ele><time>2026-05-02T08:12:14.999Z</time></trkpt><trkpt lat="42.84661433023325" lon="13.589328776108314"><ele>193.0</ele><time>2026-05-02T08:12:15.999Z</time></trkpt><trkpt lat="42.84661746617033" lon="13.588932647378368"><ele>192.0</ele><time>2026-05-02T08:12:16.999Z</time></trkpt><trkpt lat="42.84662034533562" lon="13.588537190451554"><ele>191.0</ele><time>2026-05-02T08:12:17.999Z</time></trkpt><trkpt lat="42.84662947657897" lon="13.58813728536875"><ele>192.0</ele><time>2026-05-02T08:12:18.999Z</time></trkpt><trkpt lat="42.84664394942404" lon="13.58774345098213"><ele>193.0</ele><time>2026-05-02T08:12:19.999Z</time></trkpt><trkpt lat="42.84666922501222" lon="13.587350378584294"><ele>198.5</ele><time>2026-05-02T08:12:20.999Z</time></trkpt><trkpt lat="42.846702967176114" lon="13.586957875629238"><ele>204.0</ele><time>2026-05-02T08:12:21.999Z</time></trkpt><trkpt lat="42.84674533592027" lon="13.586566187959935"><ele>197.0</ele><time>2026-05-02T08:12:22.999Z</time></trkpt><trkpt lat="42.84679719267197" lon="13.586186632186292"><ele>190.0</ele><time>2026-05-02T08:12:23.999Z</time></trkpt><trkpt lat="42.8468611100297" lon="13.585819430791727"><ele>190.0</ele><time>2026-05-02T08:12:24.999Z</time></trkpt><trkpt lat="42.84692373867147" lon="13.585413571075755"><ele>190.0</ele><time>2026-05-02T08:12:25.999Z</time></trkpt><trkpt lat="42.84700866176938" lon="13.585044278293953"><ele>191.0</ele><time>2026-05-02T08:12:26.999Z</time></trkpt><trkpt lat="42.84711527249062" lon="13.584669056029654"><ele>192.0</ele><time>2026-05-02T08:12:27.999Z</time></trkpt><trkpt lat="42.84722136674744" lon="13.584290018067131"><ele>193.0</ele><time>2026-05-02T08:12:28.999Z</time></trkpt><trkpt lat="42.84734911609897" lon="13.583925052869876"><ele>194.0</ele><time>2026-05-02T08:12:29.999Z</time></trkpt><trkpt lat="42.847488586549694" lon="13.583565833160819"><ele>194.5</ele><time>2026-05-02T08:12:30.999Z</time></trkpt><trkpt lat="42.84762586075716" lon="13.583208072146324"><ele>195.0</ele><time>2026-05-02T08:12:31.999Z</time></trkpt><trkpt lat="42.84775945237319" lon="13.582899816645059"><ele>193.0</ele><time>2026-05-02T08:12:32.999Z</time></trkpt><trkpt lat="42.84789195965332" lon="13.582579393961772"><ele>191.0</ele><time>2026-05-02T08:12:33.999Z</time></trkpt><trkpt lat="42.84801518033847" lon="13.58228652946138"><ele>197.0</ele><time>2026-05-02T08:12:34.999Z</time></trkpt><trkpt lat="42.8481302710245" lon="13.582006757009658"><ele>203.0</ele><time>2026-05-02T08:12:35.999Z</time></trkpt><trkpt lat="42.84823247297091" lon="13.581743442385456"><ele>203.0</ele><time>2026-05-02T08:12:36.999Z</time></trkpt><trkpt lat="42.84832645039094" lon="13.581490843827103"><ele>203.0</ele><time>2026-05-02T08:12:37.999Z</time></trkpt><trkpt lat="42.84841116979225" lon="13.58124633098545"><ele>203.0</ele><time>2026-05-02T08:12:38.999Z</time></trkpt><trkpt lat="42.8484893982517" lon="13.581001690809574"><ele>201.0</ele><time>2026-05-02T08:12:39.999Z</time></trkpt><trkpt lat="42.84855353596441" lon="13.580739666049007"><ele>199.0</ele><time>2026-05-02T08:12:40.999Z</time></trkpt><trkpt lat="42.84859661612035" lon="13.580453588366192"><ele>197.0</ele><time>2026-05-02T08:12:41.999Z</time></trkpt><trkpt lat="42.84862084546907" lon="13.580145953505419"><ele>197.0</ele><time>2026-05-02T08:12:42.999Z</time></trkpt><trkpt lat="42.84862810078632" lon="13.579822016128022"><ele>197.0</ele><time>2026-05-02T08:12:43.999Z</time></trkpt><trkpt lat="42.848624646343616" lon="13.579492092604886"><ele>198.0</ele><time>2026-05-02T08:12:44.999Z</time></trkpt><trkpt lat="42.848596482973086" lon="13.579152638542341"><ele>199.0</ele><time>2026-05-02T08:12:45.999Z</time></trkpt><trkpt lat="42.84857410685098" lon="13.578803794618706"><ele>195.0</ele><time>2026-05-02T08:12:46.999Z</time></trkpt><trkpt lat="42.848533340006774" lon="13.578465939188138"><ele>191.0</ele><time>2026-05-02T08:12:47.999Z</time></trkpt><trkpt lat="42.84848228871401" lon="13.578120360005093"><ele>195.5</ele><time>2026-05-02T08:12:48.999Z</time></trkpt><trkpt lat="42.84840891646888" lon="13.577781853254082"><ele>200.0</ele><time>2026-05-02T08:12:49.999Z</time></trkpt><trkpt lat="42.84831481089825" lon="13.5774437979959"><ele>200.0</ele><time>2026-05-02T08:12:50.999Z</time></trkpt><trkpt lat="42.84820692615324" lon="13.577108356114351"><ele>200.0</ele><time>2026-05-02T08:12:51.999Z</time></trkpt><trkpt lat="42.84808897109988" lon="13.5767763362506"><ele>195.5</ele><time>2026-05-02T08:12:52.999Z</time></trkpt><trkpt lat="42.847968713925525" lon="13.576439362655199"><ele>191.0</ele><time>2026-05-02T08:12:53.999Z</time></trkpt><trkpt lat="42.84785041572123" lon="13.5761003285632"><ele>183.5</ele><time>2026-05-02T08:12:54.999Z</time></trkpt><trkpt lat="42.84773601954092" lon="13.575754354486925"><ele>176.0</ele><time>2026-05-02T08:12:55.999Z</time></trkpt><trkpt lat="42.84764651959324" lon="13.575400925289804"><ele>184.0</ele><time>2026-05-02T08:12:56.999Z</time></trkpt><trkpt lat="42.8475622930863" lon="13.57505285753093"><ele>192.0</ele><time>2026-05-02T08:12:57.999Z</time></trkpt><trkpt lat="42.84749131203485" lon="13.574692300370037"><ele>190.0</ele><time>2026-05-02T08:12:58.999Z</time></trkpt><trkpt lat="42.84743678991083" lon="13.574327844187694"><ele>188.0</ele><time>2026-05-02T08:12:59.999Z</time></trkpt><trkpt lat="42.847391244515094" lon="13.573949975607595"><ele>189.0</ele><time>2026-05-02T08:13:01Z</time></trkpt><trkpt lat="42.84734042116755" lon="13.573574680849356"><ele>190.0</ele><time>2026-05-02T08:13:02Z</time></trkpt><trkpt lat="42.847306619576216" lon="13.573191454876547"><ele>188.5</ele><time>2026-05-02T08:13:03Z</time></trkpt><trkpt lat="42.84727101332129" lon="13.572807920593817"><ele>187.0</ele><time>2026-05-02T08:13:04Z</time></trkpt><trkpt lat="42.8472359698272" lon="13.572430263169515"><ele>187.0</ele><time>2026-05-02T08:13:05Z</time></trkpt><trkpt lat="42.847192828187865" lon="13.572051036401394"><ele>187.0</ele><time>2026-05-02T08:13:06Z</time></trkpt><trkpt lat="42.84714192842968" lon="13.57167431517626"><ele>185.5</ele><time>2026-05-02T08:13:07Z</time></trkpt><trkpt lat="42.847080720079376" lon="13.571298984514987"><ele>184.0</ele><time>2026-05-02T08:13:08Z</time></trkpt><trkpt lat="42.84701639997988" lon="13.570923159251176"><ele>183.5</ele><time>2026-05-02T08:13:09Z</time></trkpt><trkpt lat="42.84694772603774" lon="13.570552965218317"><ele>183.0</ele><time>2026-05-02T08:13:10Z</time></trkpt><trkpt lat="42.8468711315747" lon="13.570178715419205"><ele>191.5</ele><time>2026-05-02T08:13:11Z</time></trkpt><trkpt lat="42.84679215510809" lon="13.569813622281602"><ele>200.0</ele><time>2026-05-02T08:13:12Z</time></trkpt><trkpt lat="42.846707283553265" lon="13.56944840744032"><ele>200.0</ele><time>2026-05-02T08:13:13Z</time></trkpt><trkpt lat="42.846622730575326" lon="13.569084410012684"><ele>200.0</ele><time>2026-05-02T08:13:14Z</time></trkpt><trkpt lat="42.8465425525344" lon="13.56871903255274"><ele>196.0</ele><time>2026-05-02T08:13:15Z</time></trkpt><trkpt lat="42.84646456791168" lon="13.568355025811718"><ele>192.0</ele><time>2026-05-02T08:13:16Z</time></trkpt><trkpt lat="42.8463926510915" lon="13.568020145598323"><ele>187.5</ele><time>2026-05-02T08:13:17Z</time></trkpt><trkpt lat="42.84633648932692" lon="13.567709101759789"><ele>183.0</ele><time>2026-05-02T08:13:18Z</time></trkpt><trkpt lat="42.846297391238416" lon="13.567402582078781"><ele>183.0</ele><time>2026-05-02T08:13:19Z</time></trkpt><trkpt lat="42.84626968110369" lon="13.56709502089776"><ele>183.0</ele><time>2026-05-02T08:13:20Z</time></trkpt><trkpt lat="42.846255247602905" lon="13.566784046460056"><ele>180.0</ele><time>2026-05-02T08:13:21Z</time></trkpt><trkpt lat="42.84625401427186" lon="13.566477699634142"><ele>177.0</ele><time>2026-05-02T08:13:22Z</time></trkpt><trkpt lat="42.846264154065736" lon="13.566165616517496"><ele>176.5</ele><time>2026-05-02T08:13:23Z</time></trkpt><trkpt lat="42.84628754616086" lon="13.565844914935829"><ele>176.0</ele><time>2026-05-02T08:13:24Z</time></trkpt><trkpt lat="42.84632741288027" lon="13.56554270694542"><ele>178.66666666666666</ele><time>2026-05-02T08:13:25Z</time></trkpt><trkpt lat="42.846377673869796" lon="13.565249645460396"><ele>181.33333333333334</ele><time>2026-05-02T08:13:26Z</time></trkpt><trkpt lat="42.84643373047646" lon="13.564980468057694"><ele>184.0</ele><time>2026-05-02T08:13:27Z</time></trkpt><trkpt lat="42.84649099915078" lon="13.564731313766199"><ele>186.66666666666669</ele><time>2026-05-02T08:13:28Z</time></trkpt><trkpt lat="42.84655064383519" lon="13.564496254578854"><ele>189.33333333333334</ele><time>2026-05-02T08:13:29Z</time></trkpt><trkpt lat="42.846610292128425" lon="13.564281118412275"><ele>192.0</ele><time>2026-05-02T08:13:30Z</time></trkpt><trkpt lat="42.846669893200136" lon="13.564082956032221"><ele>192.0</ele><time>2026-05-02T08:13:31Z</time></trkpt><trkpt lat="42.84672811461942" lon="13.563894820917968"><ele>192.0</ele><time>2026-05-02T08:13:32Z</time></trkpt><trkpt lat="42.846784626934294" lon="13.563709995090068"><ele>192.0</ele><time>2026-05-02T08:13:33Z</time></trkpt><trkpt lat="42.846843804918045" lon="13.563518688758359"><ele>192.0</ele><time>2026-05-02T08:13:34Z</time></trkpt><trkpt lat="42.8469039231192" lon="13.563328682111504"><ele>189.33333333333334</ele><time>2026-05-02T08:13:35Z</time></trkpt><trkpt lat="42.84696407117233" lon="13.563136341361483"><ele>186.66666666666669</ele><time>2026-05-02T08:13:36Z</time></trkpt><trkpt lat="42.847022950858616" lon="13.562938809768369"><ele>184.0</ele><time>2026-05-02T08:13:37Z</time></trkpt><trkpt lat="42.847084652808185" lon="13.562739938516524"><ele>184.0</ele><time>2026-05-02T08:13:38Z</time></trkpt><trkpt lat="42.84714600300018" lon="13.562542835115433"><ele>184.0</ele><time>2026-05-02T08:13:39Z</time></trkpt><trkpt lat="42.84720254079444" lon="13.56234330584329"><ele>184.0</ele><time>2026-05-02T08:13:40Z</time></trkpt><trkpt lat="42.84726293053418" lon="13.562131809872257"><ele>190.66666666666669</ele><time>2026-05-02T08:13:41Z</time></trkpt><trkpt lat="42.847322998590684" lon="13.561898399086889"><ele>197.33333333333334</ele><time>2026-05-02T08:13:42Z</time></trkpt><trkpt lat="42.84738793667466" lon="13.561660653392964"><ele>204.0</ele><time>2026-05-02T08:13:43Z</time></trkpt><trkpt lat="42.84744717347041" lon="13.561429305877194"><ele>209.33333333333331</ele><time>2026-05-02T08:13:44Z</time></trkpt><trkpt lat="42.84750307105281" lon="13.561186852313895"><ele>214.66666666666666</ele><time>2026-05-02T08:13:45Z</time></trkpt><trkpt lat="42.84755664241017" lon="13.560938202780132"><ele>220.0</ele><time>2026-05-02T08:13:46Z</time></trkpt><trkpt lat="42.84760413754321" lon="13.56069231612045"><ele>224.66666666666666</ele><time>2026-05-02T08:13:46.999Z</time></trkpt><trkpt lat="42.847658340314595" lon="13.560447099188197"><ele>229.33333333333331</ele><time>2026-05-02T08:13:47.999Z</time></trkpt><trkpt lat="42.84770479837593" lon="13.560207419640914"><ele>234.0</ele><time>2026-05-02T08:13:48.999Z</time></trkpt><trkpt lat="42.847757896306206" lon="13.55995133870374"><ele>243.0</ele><time>2026-05-02T08:13:50.066Z</time></trkpt><trkpt lat="42.84780092365435" lon="13.559719251568268"><ele>252.0</ele><time>2026-05-02T08:13:51.061Z</time></trkpt><trkpt lat="42.847837592101385" lon="13.5594970377826"><ele>261.0</ele><time>2026-05-02T08:13:52.062Z</time></trkpt><trkpt lat="42.847876751820465" lon="13.559270168610604"><ele>277.0</ele><time>2026-05-02T08:13:53.06Z</time></trkpt><trkpt lat="42.848089030075414" lon="13.556529311425841"><ele>280.0</ele><time>2026-05-02T08:13:56.895Z</time></trkpt><trkpt lat="42.848175380319724" lon="13.555554012057089"><ele>286.0</ele><time>2026-05-02T08:13:57.898Z</time></trkpt><trkpt lat="42.848258675592746" lon="13.554581721456225"><ele>291.0</ele><time>2026-05-02T08:13:58.899Z</time></trkpt><trkpt lat="42.84834384972394" lon="13.55360987286246"><ele>286.0</ele><time>2026-05-02T08:13:59.899Z</time></trkpt><trkpt lat="42.848426838457016" lon="13.552641555618372"><ele>248.0</ele><time>2026-05-02T08:14:00.895Z</time></trkpt><trkpt lat="42.8485140050117" lon="13.55166752373282"><ele>228.0</ele><time>2026-05-02T08:14:01.897Z</time></trkpt><trkpt lat="42.84859736563025" lon="13.550694727445965"><ele>211.0</ele><time>2026-05-02T08:14:02.898Z</time></trkpt><trkpt lat="42.84868151237133" lon="13.549722145107316"><ele>190.0</ele><time>2026-05-02T08:14:03.899Z</time></trkpt><trkpt lat="42.8488144297729" lon="13.54862357457669"><ele>190.0</ele><time>2026-05-02T08:14:30.999Z</time></trkpt><trkpt lat="42.848849442742775" lon="13.548324012016538"><ele>190.0</ele><time>2026-05-02T08:14:31.999Z</time></trkpt><trkpt lat="42.84879096071505" lon="13.548367688660193"><ele>190.0</ele><time>2026-05-02T08:14:32.999Z</time></trkpt><trkpt lat="42.848841847148286" lon="13.548151075869868"><ele>187.66666666666669</ele><time>2026-05-02T08:14:33.999Z</time></trkpt><trkpt lat="42.84885448621784" lon="13.547866574421676"><ele>185.33333333333334</ele><time>2026-05-02T08:14:34.999Z</time></trkpt><trkpt lat="42.8488905151414" lon="13.547556778804703"><ele>183.0</ele><time>2026-05-02T08:14:35.999Z</time></trkpt><trkpt lat="42.848914077797254" lon="13.547242516039718"><ele>182.66666666666666</ele><time>2026-05-02T08:14:36.999Z</time></trkpt><trkpt lat="42.848928336039585" lon="13.54694274213246"><ele>182.33333333333331</ele><time>2026-05-02T08:14:37.999Z</time></trkpt><trkpt lat="42.84893464803866" lon="13.546637781388702"><ele>182.0</ele><time>2026-05-02T08:14:38.999Z</time></trkpt><trkpt lat="42.848930728918376" lon="13.54633510508254"><ele>182.33333333333331</ele><time>2026-05-02T08:14:39.999Z</time></trkpt><trkpt lat="42.8489224688323" lon="13.546045210649671"><ele>182.66666666666666</ele><time>2026-05-02T08:14:40.999Z</time></trkpt><trkpt lat="42.84891597470617" lon="13.545726285435292"><ele>183.0</ele><time>2026-05-02T08:14:41.999Z</time></trkpt><trkpt lat="42.84890484407974" lon="13.545426367269194"><ele>180.0</ele><time>2026-05-02T08:14:42.999Z</time></trkpt><trkpt lat="42.84890599019262" lon="13.545140156804816"><ele>177.0</ele><time>2026-05-02T08:14:43.999Z</time></trkpt><trkpt lat="42.84890792971163" lon="13.544879493245933"><ele>174.0</ele><time>2026-05-02T08:14:44.999Z</time></trkpt><trkpt lat="42.848911932770854" lon="13.544629305059965"><ele>171.66666666666666</ele><time>2026-05-02T08:14:45.999Z</time></trkpt><trkpt lat="42.848910629016785" lon="13.544371162942454"><ele>169.33333333333331</ele><time>2026-05-02T08:14:46.999Z</time></trkpt><trkpt lat="42.848926011174214" lon="13.544105397924376"><ele>167.0</ele><time>2026-05-02T08:14:47.999Z</time></trkpt><trkpt lat="42.84896017272527" lon="13.543835229468792"><ele>168.33333333333331</ele><time>2026-05-02T08:14:48.999Z</time></trkpt><trkpt lat="42.84900254215809" lon="13.54355663971909"><ele>169.66666666666666</ele><time>2026-05-02T08:14:49.999Z</time></trkpt><trkpt lat="42.84905729076881" lon="13.543285112613237"><ele>171.0</ele><time>2026-05-02T08:14:50.999Z</time></trkpt><trkpt lat="42.84912459039193" lon="13.543014941271688"><ele>170.33333333333334</ele><time>2026-05-02T08:14:51.999Z</time></trkpt><trkpt lat="42.84920592577783" lon="13.542743816752665"><ele>169.66666666666669</ele><time>2026-05-02T08:14:52.999Z</time></trkpt><trkpt lat="42.84929565643251" lon="13.54247197050922"><ele>169.0</ele><time>2026-05-02T08:14:53.999Z</time></trkpt><trkpt lat="42.84938915112372" lon="13.542199536313998"><ele>170.33333333333334</ele><time>2026-05-02T08:14:54.999Z</time></trkpt><trkpt lat="42.849483890079355" lon="13.54192792901833"><ele>171.66666666666666</ele><time>2026-05-02T08:14:55.999Z</time></trkpt><trkpt lat="42.849580992313975" lon="13.541658357076205"><ele>173.0</ele><time>2026-05-02T08:14:56.999Z</time></trkpt><trkpt lat="42.84967739755875" lon="13.541390164549831"><ele>173.33333333333331</ele><time>2026-05-02T08:14:57.999Z</time></trkpt><trkpt lat="42.84977375672433" lon="13.541125361706728"><ele>173.66666666666666</ele><time>2026-05-02T08:14:58.999Z</time></trkpt><trkpt lat="42.84986373754546" lon="13.540854160703011"><ele>174.0</ele><time>2026-05-02T08:14:59.999Z</time></trkpt><trkpt lat="42.849944523188896" lon="13.540574376355009"><ele>176.33333333333334</ele><time>2026-05-02T08:15:00.999Z</time></trkpt><trkpt lat="42.8500154207783" lon="13.540290107861885"><ele>178.66666666666669</ele><time>2026-05-02T08:15:01.999Z</time></trkpt><trkpt lat="42.85007484431103" lon="13.539991306784195"><ele>181.0</ele><time>2026-05-02T08:15:02.999Z</time></trkpt><trkpt lat="42.85012023425721" lon="13.539667268627465"><ele>178.0</ele><time>2026-05-02T08:15:03.999Z</time></trkpt><trkpt lat="42.8501488603614" lon="13.539324437830759"><ele>175.0</ele><time>2026-05-02T08:15:04.999Z</time></trkpt><trkpt lat="42.850165784675305" lon="13.538959682730724"><ele>174.0</ele><time>2026-05-02T08:15:05.999Z</time></trkpt><trkpt lat="42.8501703274384" lon="13.53857951615777"><ele>173.0</ele><time>2026-05-02T08:15:07Z</time></trkpt><trkpt lat="42.850165917851754" lon="13.538190828546288"><ele>173.0</ele><time>2026-05-02T08:15:08Z</time></trkpt><trkpt lat="42.85015766306389" lon="13.537796743387004"><ele>173.0</ele><time>2026-05-02T08:15:09Z</time></trkpt><trkpt lat="42.850158451280954" lon="13.537396350675643"><ele>174.0</ele><time>2026-05-02T08:15:10Z</time></trkpt><trkpt lat="42.85020905347918" lon="13.53691362687776"><ele>175.0</ele><time>2026-05-02T08:15:11Z</time></trkpt><trkpt lat="42.850233138024585" lon="13.536408607779222"><ele>175.0</ele><time>2026-05-02T08:15:12Z</time></trkpt><trkpt lat="42.85013225637049" lon="13.536204458844837"><ele>175.0</ele><time>2026-05-02T08:15:13Z</time></trkpt><trkpt lat="42.85011947823678" lon="13.535817681972318"><ele>178.0</ele><time>2026-05-02T08:15:14Z</time></trkpt><trkpt lat="42.85011062720129" lon="13.535435055387422"><ele>181.0</ele><time>2026-05-02T08:15:15Z</time></trkpt><trkpt lat="42.850106566711986" lon="13.535044334002725"><ele>181.0</ele><time>2026-05-02T08:15:16Z</time></trkpt><trkpt lat="42.85010129588617" lon="13.53465846475109"><ele>181.0</ele><time>2026-05-02T08:15:17Z</time></trkpt><trkpt lat="42.85009267689602" lon="13.534279838234424"><ele>182.0</ele><time>2026-05-02T08:15:18Z</time></trkpt><trkpt lat="42.85008827653176" lon="13.533932643297836"><ele>183.0</ele><time>2026-05-02T08:15:19Z</time></trkpt><trkpt lat="42.85008391413675" lon="13.533587779422822"><ele>186.0</ele><time>2026-05-02T08:15:20Z</time></trkpt><trkpt lat="42.85008310084786" lon="13.533236971098352"><ele>189.0</ele><time>2026-05-02T08:15:21Z</time></trkpt><trkpt lat="42.850074759680126" lon="13.53289656367521"><ele>190.5</ele><time>2026-05-02T08:15:22Z</time></trkpt><trkpt lat="42.850065138200655" lon="13.532553004991605"><ele>192.0</ele><time>2026-05-02T08:15:23Z</time></trkpt><trkpt lat="42.8500483308522" lon="13.53221965474049"><ele>190.0</ele><time>2026-05-02T08:15:24Z</time></trkpt><trkpt lat="42.85000885594307" lon="13.531899542249407"><ele>188.0</ele><time>2026-05-02T08:15:25Z</time></trkpt><trkpt lat="42.84995340907562" lon="13.531589014512496"><ele>188.0</ele><time>2026-05-02T08:15:26Z</time></trkpt><trkpt lat="42.84987893095831" lon="13.531289070358168"><ele>188.0</ele><time>2026-05-02T08:15:27Z</time></trkpt><trkpt lat="42.84979192680956" lon="13.530993546622085"><ele>184.5</ele><time>2026-05-02T08:15:28Z</time></trkpt><trkpt lat="42.849687518922615" lon="13.5307070410252"><ele>181.0</ele><time>2026-05-02T08:15:29Z</time></trkpt><trkpt lat="42.84957237701302" lon="13.530433710052371"><ele>182.0</ele><time>2026-05-02T08:15:30Z</time></trkpt><trkpt lat="42.849455355717794" lon="13.530188175855006"><ele>183.0</ele><time>2026-05-02T08:15:31Z</time></trkpt><trkpt lat="42.849328677756176" lon="13.529960446940592"><ele>184.0</ele><time>2026-05-02T08:15:32Z</time></trkpt><trkpt lat="42.849179812453876" lon="13.529759584047031"><ele>184.0</ele><time>2026-05-02T08:15:33Z</time></trkpt><trkpt lat="42.84900612526633" lon="13.52957184120384"><ele>184.0</ele><time>2026-05-02T08:15:34Z</time></trkpt><trkpt lat="42.848784467491754" lon="13.529392352759034"><ele>176.0</ele><time>2026-05-02T08:15:35Z</time></trkpt><trkpt lat="42.84856882531676" lon="13.529211150255321"><ele>168.0</ele><time>2026-05-02T08:15:36Z</time></trkpt><trkpt lat="42.84834005587017" lon="13.529040537429635"><ele>168.0</ele><time>2026-05-02T08:15:37Z</time></trkpt><trkpt lat="42.848115348427264" lon="13.528880542970603"><ele>168.0</ele><time>2026-05-02T08:15:38Z</time></trkpt><trkpt lat="42.847913889315656" lon="13.528739253658328"><ele>168.0</ele><time>2026-05-02T08:15:39Z</time></trkpt><trkpt lat="42.84772167069399" lon="13.528602328070152"><ele>168.0</ele><time>2026-05-02T08:15:40Z</time></trkpt><trkpt lat="42.84753649497032" lon="13.528468162100253"><ele>168.0</ele><time>2026-05-02T08:15:41Z</time></trkpt><trkpt lat="42.84735199200244" lon="13.528335098306576"><ele>168.0</ele><time>2026-05-02T08:15:42Z</time></trkpt><trkpt lat="42.84716583842571" lon="13.528201212119487"><ele>168.0</ele><time>2026-05-02T08:15:43Z</time></trkpt><trkpt lat="42.846980261841665" lon="13.528070779143986"><ele>168.0</ele><time>2026-05-02T08:15:44Z</time></trkpt><trkpt lat="42.846797880202075" lon="13.527941272556502"><ele>167.33333333333334</ele><time>2026-05-02T08:15:45Z</time></trkpt><trkpt lat="42.84661358987473" lon="13.527810469413346"><ele>166.66666666666669</ele><time>2026-05-02T08:15:46Z</time></trkpt><trkpt lat="42.84642671229422" lon="13.527677072483115"><ele>166.0</ele><time>2026-05-02T08:15:47Z</time></trkpt><trkpt lat="42.84624011727434" lon="13.527545743031999"><ele>166.0</ele><time>2026-05-02T08:15:48Z</time></trkpt><trkpt lat="42.84604926237038" lon="13.527409844579179"><ele>166.0</ele><time>2026-05-02T08:15:49Z</time></trkpt><trkpt lat="42.84585333474971" lon="13.527269668016551"><ele>166.0</ele><time>2026-05-02T08:15:50Z</time></trkpt><trkpt lat="42.845654924162794" lon="13.527125876731539"><ele>168.0</ele><time>2026-05-02T08:15:51Z</time></trkpt><trkpt lat="42.845454078866005" lon="13.526980779502471"><ele>170.0</ele><time>2026-05-02T08:15:52Z</time></trkpt><trkpt lat="42.84525390775367" lon="13.526834501290445"><ele>177.5</ele><time>2026-05-02T08:15:53Z</time></trkpt><trkpt lat="42.84505238405313" lon="13.526687223889004"><ele>185.0</ele><time>2026-05-02T08:15:54Z</time></trkpt><trkpt lat="42.84485444467311" lon="13.526538370022537"><ele>185.0</ele><time>2026-05-02T08:15:55Z</time></trkpt><trkpt lat="42.844663401279604" lon="13.526395600430293"><ele>185.0</ele><time>2026-05-02T08:15:55.999Z</time></trkpt><trkpt lat="42.84447224572714" lon="13.526255104347094"><ele>185.0</ele><time>2026-05-02T08:15:56.999Z</time></trkpt><trkpt lat="42.84428348985299" lon="13.526109353986138"><ele>184.66666666666666</ele><time>2026-05-02T08:15:57.999Z</time></trkpt><trkpt lat="42.84409821623815" lon="13.525960938224312"><ele>184.33333333333334</ele><time>2026-05-02T08:15:58.999Z</time></trkpt><trkpt lat="42.843913684705136" lon="13.525810603098492"><ele>184.0</ele><time>2026-05-02T08:15:59.999Z</time></trkpt><trkpt lat="42.84373349919754" lon="13.525656207503749"><ele>184.0</ele><time>2026-05-02T08:16:00.999Z</time></trkpt><trkpt lat="42.8435577907086" lon="13.525499255846618"><ele>184.0</ele><time>2026-05-02T08:16:01.999Z</time></trkpt><trkpt lat="42.843382521928035" lon="13.525335846732391"><ele>184.0</ele><time>2026-05-02T08:16:02.999Z</time></trkpt><trkpt lat="42.843210067530514" lon="13.525176505365168"><ele>184.33333333333334</ele><time>2026-05-02T08:16:03.999Z</time></trkpt><trkpt lat="42.84304521545913" lon="13.525009765244818"><ele>184.66666666666666</ele><time>2026-05-02T08:16:04.999Z</time></trkpt><trkpt lat="42.84287643595507" lon="13.524845023293835"><ele>185.0</ele><time>2026-05-02T08:16:05.999Z</time></trkpt><trkpt lat="42.84271378751544" lon="13.524673588599677"><ele>186.0</ele><time>2026-05-02T08:16:06.999Z</time></trkpt><trkpt lat="42.84254594005778" lon="13.524496742737139"><ele>187.0</ele><time>2026-05-02T08:16:07.999Z</time></trkpt><trkpt lat="42.84238399058152" lon="13.524326421997037"><ele>188.0</ele><time>2026-05-02T08:16:08.999Z</time></trkpt><trkpt lat="42.84222081360031" lon="13.52416244442405"><ele>188.0</ele><time>2026-05-02T08:16:09.999Z</time></trkpt><trkpt lat="42.842053718033924" lon="13.523984021596727"><ele>188.0</ele><time>2026-05-02T08:16:10.999Z</time></trkpt><trkpt lat="42.841893673251015" lon="13.523804419225153"><ele>188.0</ele><time>2026-05-02T08:16:11.999Z</time></trkpt><trkpt lat="42.84173747727612" lon="13.523616791253545"><ele>189.33333333333331</ele><time>2026-05-02T08:16:12.999Z</time></trkpt><trkpt lat="42.84158659490273" lon="13.523411177064558"><ele>190.66666666666666</ele><time>2026-05-02T08:16:13.999Z</time></trkpt><trkpt lat="42.84143561232025" lon="13.523204232350437"><ele>192.0</ele><time>2026-05-02T08:16:14.999Z</time></trkpt><trkpt lat="42.841283981477304" lon="13.523004083315996"><ele>192.0</ele><time>2026-05-02T08:16:15.999Z</time></trkpt><trkpt lat="42.841141332221454" lon="13.522788760897745"><ele>192.0</ele><time>2026-05-02T08:16:16.999Z</time></trkpt><trkpt lat="42.841000754294825" lon="13.522567887284595"><ele>192.0</ele><time>2026-05-02T08:16:17.999Z</time></trkpt><trkpt lat="42.8408575969241" lon="13.522349549760966"><ele>192.0</ele><time>2026-05-02T08:16:18.999Z</time></trkpt><trkpt lat="42.84070773185868" lon="13.522140213989298"><ele>192.0</ele><time>2026-05-02T08:16:19.999Z</time></trkpt><trkpt lat="42.840546742389805" lon="13.521940129844314"><ele>192.0</ele><time>2026-05-02T08:16:20.999Z</time></trkpt><trkpt lat="42.84037768339083" lon="13.521752545792635"><ele>191.33333333333334</ele><time>2026-05-02T08:16:21.999Z</time></trkpt><trkpt lat="42.840203144959844" lon="13.521570244902174"><ele>190.66666666666669</ele><time>2026-05-02T08:16:22.999Z</time></trkpt><trkpt lat="42.84003593831578" lon="13.52137387607006"><ele>190.0</ele><time>2026-05-02T08:16:23.999Z</time></trkpt><trkpt lat="42.839851926842535" lon="13.521215639156974"><ele>187.66666666666669</ele><time>2026-05-02T08:16:24.999Z</time></trkpt><trkpt lat="42.839660455904344" lon="13.521084741917923"><ele>185.33333333333334</ele><time>2026-05-02T08:16:25.999Z</time></trkpt><trkpt lat="42.83949475446471" lon="13.520959995530085"><ele>183.0</ele><time>2026-05-02T08:16:26.999Z</time></trkpt><trkpt lat="42.839329000608714" lon="13.520843422710666"><ele>187.0</ele><time>2026-05-02T08:16:27.999Z</time></trkpt><trkpt lat="42.839165173061595" lon="13.520734268729363"><ele>191.0</ele><time>2026-05-02T08:16:28.999Z</time></trkpt><trkpt lat="42.83900605008215" lon="13.520633913530938"><ele>195.0</ele><time>2026-05-02T08:16:29.999Z</time></trkpt><trkpt lat="42.838847112479804" lon="13.520538050519855"><ele>195.0</ele><time>2026-05-02T08:16:30.999Z</time></trkpt><trkpt lat="42.83868052434366" lon="13.52044491353466"><ele>195.0</ele><time>2026-05-02T08:16:31.999Z</time></trkpt><trkpt lat="42.83850953459862" lon="13.520351452763647"><ele>195.0</ele><time>2026-05-02T08:16:32.999Z</time></trkpt><trkpt lat="42.83833384289548" lon="13.520263265356117"><ele>195.66666666666669</ele><time>2026-05-02T08:16:33.999Z</time></trkpt><trkpt lat="42.83815513743168" lon="13.520177508385085"><ele>196.33333333333334</ele><time>2026-05-02T08:16:34.999Z</time></trkpt><trkpt lat="42.83796691635841" lon="13.520090408099291"><ele>197.0</ele><time>2026-05-02T08:16:35.999Z</time></trkpt><trkpt lat="42.83777009358313" lon="13.520002157953124"><ele>201.0</ele><time>2026-05-02T08:16:36.999Z</time></trkpt><trkpt lat="42.83756431882274" lon="13.519916045855702"><ele>205.0</ele><time>2026-05-02T08:16:37.999Z</time></trkpt><trkpt lat="42.83735279492313" lon="13.519829806884994"><ele>209.0</ele><time>2026-05-02T08:16:38.999Z</time></trkpt><trkpt lat="42.83715118429171" lon="13.519749269156682"><ele>209.0</ele><time>2026-05-02T08:16:39.999Z</time></trkpt><trkpt lat="42.83695040124589" lon="13.51966715939641"><ele>209.0</ele><time>2026-05-02T08:16:40.999Z</time></trkpt><trkpt lat="42.836747695296864" lon="13.519581753141752"><ele>209.0</ele><time>2026-05-02T08:16:41.999Z</time></trkpt><trkpt lat="42.83654025271642" lon="13.519497595389993"><ele>210.0</ele><time>2026-05-02T08:16:42.999Z</time></trkpt><trkpt lat="42.83633374863819" lon="13.51940848829521"><ele>211.0</ele><time>2026-05-02T08:16:43.999Z</time></trkpt><trkpt lat="42.83612512432239" lon="13.519313727908637"><ele>212.0</ele><time>2026-05-02T08:16:44.999Z</time></trkpt><trkpt lat="42.83591720556506" lon="13.519217122607644"><ele>212.0</ele><time>2026-05-02T08:16:45.999Z</time></trkpt><trkpt lat="42.835710526366235" lon="13.519121450475827"><ele>212.0</ele><time>2026-05-02T08:16:46.999Z</time></trkpt><trkpt lat="42.835497124276365" lon="13.519029876072077"><ele>212.0</ele><time>2026-05-02T08:16:47.999Z</time></trkpt><trkpt lat="42.83528764903546" lon="13.518934579657325"><ele>212.5</ele><time>2026-05-02T08:16:48.999Z</time></trkpt><trkpt lat="42.835083280247304" lon="13.518808487893155"><ele>213.0</ele><time>2026-05-02T08:16:49.999Z</time></trkpt><trkpt lat="42.83487330347164" lon="13.518695385687964"><ele>213.0</ele><time>2026-05-02T08:16:50.999Z</time></trkpt><trkpt lat="42.83466547653686" lon="13.518579092397061"><ele>213.0</ele><time>2026-05-02T08:16:51.999Z</time></trkpt><trkpt lat="42.83446356869662" lon="13.518466033785188"><ele>213.0</ele><time>2026-05-02T08:16:52.999Z</time></trkpt><trkpt lat="42.83427076857878" lon="13.518379827621137"><ele>216.33333333333331</ele><time>2026-05-02T08:16:53.999Z</time></trkpt><trkpt lat="42.83409622182878" lon="13.51827757714853"><ele>219.66666666666666</ele><time>2026-05-02T08:16:54.999Z</time></trkpt><trkpt lat="42.83392883433431" lon="13.518160874039399"><ele>223.0</ele><time>2026-05-02T08:16:55.999Z</time></trkpt><trkpt lat="42.83375420713473" lon="13.518056899634253"><ele>223.0</ele><time>2026-05-02T08:16:56.999Z</time></trkpt><trkpt lat="42.833578048862286" lon="13.517948548282021"><ele>223.0</ele><time>2026-05-02T08:16:57.999Z</time></trkpt><trkpt lat="42.833403279075974" lon="13.517837141678815"><ele>223.0</ele><time>2026-05-02T08:16:58.999Z</time></trkpt><trkpt lat="42.83322407135059" lon="13.51772157284542"><ele>220.33333333333331</ele><time>2026-05-02T08:16:59.999Z</time></trkpt><trkpt lat="42.83304458482704" lon="13.517605070879204"><ele>217.66666666666669</ele><time>2026-05-02T08:17:00.999Z</time></trkpt><trkpt lat="42.832861803062734" lon="13.517480942176523"><ele>215.0</ele><time>2026-05-02T08:17:01.999Z</time></trkpt><trkpt lat="42.83268035022129" lon="13.517351710022146"><ele>211.33333333333334</ele><time>2026-05-02T08:17:02.999Z</time></trkpt><trkpt lat="42.8324978856215" lon="13.517214268668534"><ele>207.66666666666669</ele><time>2026-05-02T08:17:03.999Z</time></trkpt><trkpt lat="42.83231671033762" lon="13.517070171057751"><ele>204.0</ele><time>2026-05-02T08:17:04.999Z</time></trkpt><trkpt lat="42.83213553629697" lon="13.516922174439372"><ele>204.0</ele><time>2026-05-02T08:17:05.999Z</time></trkpt><trkpt lat="42.8319529022" lon="13.51675949639545"><ele>204.0</ele><time>2026-05-02T08:17:06.999Z</time></trkpt><trkpt lat="42.831767292586115" lon="13.516584529852041"><ele>204.0</ele><time>2026-05-02T08:17:07.999Z</time></trkpt><trkpt lat="42.83156856686724" lon="13.516418938638955"><ele>201.5</ele><time>2026-05-02T08:17:08.999Z</time></trkpt><trkpt lat="42.83137822804068" lon="13.516223468773385"><ele>199.0</ele><time>2026-05-02T08:17:09.999Z</time></trkpt><trkpt lat="42.83118733133919" lon="13.516030610130622"><ele>199.0</ele><time>2026-05-02T08:17:10.999Z</time></trkpt><trkpt lat="42.83100128145383" lon="13.51584086360405"><ele>199.0</ele><time>2026-05-02T08:17:12Z</time></trkpt><trkpt lat="42.830830784489955" lon="13.51565545974895"><ele>202.66666666666666</ele><time>2026-05-02T08:17:13Z</time></trkpt><trkpt lat="42.83066682495865" lon="13.515455618077496"><ele>206.33333333333331</ele><time>2026-05-02T08:17:14Z</time></trkpt><trkpt lat="42.83050465483877" lon="13.51525847354131"><ele>210.0</ele><time>2026-05-02T08:17:15Z</time></trkpt><trkpt lat="42.83034604727606" lon="13.515069033137106"><ele>210.0</ele><time>2026-05-02T08:17:16Z</time></trkpt><trkpt lat="42.83018078044382" lon="13.514866696258776"><ele>210.0</ele><time>2026-05-02T08:17:17Z</time></trkpt><trkpt lat="42.83001535842048" lon="13.514659727637914"><ele>210.0</ele><time>2026-05-02T08:17:18Z</time></trkpt><trkpt lat="42.82983790423678" lon="13.514455490061614"><ele>216.0</ele><time>2026-05-02T08:17:19Z</time></trkpt><trkpt lat="42.829671221684464" lon="13.514247005788251"><ele>222.0</ele><time>2026-05-02T08:17:20Z</time></trkpt><trkpt lat="42.829499757786515" lon="13.514045185208786"><ele>222.0</ele><time>2026-05-02T08:17:21Z</time></trkpt><trkpt lat="42.829330454437425" lon="13.51384922782412"><ele>222.0</ele><time>2026-05-02T08:17:22Z</time></trkpt><trkpt lat="42.82921035745188" lon="13.513617076897033"><ele>222.0</ele><time>2026-05-02T08:17:23Z</time></trkpt><trkpt lat="42.829077887926175" lon="13.513276659907742"><ele>220.0</ele><time>2026-05-02T08:17:24Z</time></trkpt><trkpt lat="42.828920014546135" lon="13.513007035096393"><ele>218.0</ele><time>2026-05-02T08:17:25Z</time></trkpt><trkpt lat="42.82877609210218" lon="13.512768052846832"><ele>218.33333333333334</ele><time>2026-05-02T08:17:26Z</time></trkpt><trkpt lat="42.828646278002694" lon="13.51256693999531"><ele>218.66666666666669</ele><time>2026-05-02T08:17:27Z</time></trkpt><trkpt lat="42.82852061260474" lon="13.512368937877415"><ele>219.0</ele><time>2026-05-02T08:17:28Z</time></trkpt><trkpt lat="42.82839585634443" lon="13.512169883178274"><ele>213.33333333333331</ele><time>2026-05-02T08:17:29Z</time></trkpt><trkpt lat="42.82826392559864" lon="13.511961821170381"><ele>207.66666666666666</ele><time>2026-05-02T08:17:30Z</time></trkpt><trkpt lat="42.82812400276129" lon="13.511737880363196"><ele>202.0</ele><time>2026-05-02T08:17:31Z</time></trkpt><trkpt lat="42.82799302899083" lon="13.511529154195077"><ele>202.0</ele><time>2026-05-02T08:17:32Z</time></trkpt><trkpt lat="42.82786217024473" lon="13.511324356152777"><ele>202.0</ele><time>2026-05-02T08:17:33Z</time></trkpt><trkpt lat="42.82773066048615" lon="13.511120083660852"><ele>202.0</ele><time>2026-05-02T08:17:34Z</time></trkpt><trkpt lat="42.827609427309525" lon="13.51092838295706"><ele>202.0</ele><time>2026-05-02T08:17:35Z</time></trkpt><trkpt lat="42.82749144814705" lon="13.510733542923525"><ele>202.0</ele><time>2026-05-02T08:17:36Z</time></trkpt><trkpt lat="42.827371261579195" lon="13.510534475940345"><ele>202.0</ele><time>2026-05-02T08:17:37Z</time></trkpt><trkpt lat="42.827248924414626" lon="13.510338476323309"><ele>202.0</ele><time>2026-05-02T08:17:38Z</time></trkpt><trkpt lat="42.82712312377463" lon="13.510143716893486"><ele>202.0</ele><time>2026-05-02T08:17:39Z</time></trkpt><trkpt lat="42.82699430501631" lon="13.509949431363657"><ele>202.0</ele><time>2026-05-02T08:17:40Z</time></trkpt><trkpt lat="42.82685966096233" lon="13.509761803647125"><ele>202.66666666666666</ele><time>2026-05-02T08:17:41Z</time></trkpt><trkpt lat="42.826742020615306" lon="13.509579189992422"><ele>203.33333333333331</ele><time>2026-05-02T08:17:42Z</time></trkpt><trkpt lat="42.82660584000019" lon="13.509446016139314"><ele>204.0</ele><time>2026-05-02T08:17:43Z</time></trkpt><trkpt lat="42.826479388728416" lon="13.509308660661578"><ele>206.66666666666669</ele><time>2026-05-02T08:17:44Z</time></trkpt><trkpt lat="42.826348853533666" lon="13.509181051996071"><ele>209.33333333333334</ele><time>2026-05-02T08:17:45Z</time></trkpt><trkpt lat="42.82621048703767" lon="13.5090549302308"><ele>212.0</ele><time>2026-05-02T08:17:46Z</time></trkpt><trkpt lat="42.82607435187255" lon="13.508929763591084"><ele>212.25</ele><time>2026-05-02T08:17:47Z</time></trkpt><trkpt lat="42.82594210153428" lon="13.508829528542417"><ele>212.5</ele><time>2026-05-02T08:17:48Z</time></trkpt><trkpt lat="42.82581608360015" lon="13.508746727259151"><ele>212.75</ele><time>2026-05-02T08:17:49Z</time></trkpt><trkpt lat="42.82569533204339" lon="13.508654794103002"><ele>213.0</ele><time>2026-05-02T08:17:50Z</time></trkpt><trkpt lat="42.82556389749394" lon="13.508578912777836"><ele>216.75</ele><time>2026-05-02T08:17:51Z</time></trkpt><trkpt lat="42.82542949473553" lon="13.50850942110424"><ele>220.5</ele><time>2026-05-02T08:17:52Z</time></trkpt><trkpt lat="42.82530571749473" lon="13.508473168738124"><ele>224.25</ele><time>2026-05-02T08:17:53Z</time></trkpt><trkpt lat="42.82517832586574" lon="13.508453571964631"><ele>228.0</ele><time>2026-05-02T08:17:54Z</time></trkpt><trkpt lat="42.8250417783572" lon="13.508444029359138"><ele>228.0</ele><time>2026-05-02T08:17:55Z</time></trkpt><trkpt lat="42.824898985600896" lon="13.508450979083149"><ele>228.0</ele><time>2026-05-02T08:17:56Z</time></trkpt><trkpt lat="42.82476258715851" lon="13.508472036696961"><ele>228.0</ele><time>2026-05-02T08:17:57Z</time></trkpt><trkpt lat="42.824636854959294" lon="13.508501419748496"><ele>228.0</ele><time>2026-05-02T08:17:58Z</time></trkpt><trkpt lat="42.82451225958306" lon="13.508540272868446"><ele>228.0</ele><time>2026-05-02T08:17:59Z</time></trkpt><trkpt lat="42.82438929661452" lon="13.508579724227342"><ele>228.0</ele><time>2026-05-02T08:18:00Z</time></trkpt><trkpt lat="42.824274395183195" lon="13.50860709595257"><ele>228.0</ele><time>2026-05-02T08:18:01Z</time></trkpt><trkpt lat="42.82415545862436" lon="13.508631460358107"><ele>228.0</ele><time>2026-05-02T08:18:02Z</time></trkpt><trkpt lat="42.82403180771079" lon="13.508652513502838"><ele>225.0</ele><time>2026-05-02T08:18:03Z</time></trkpt><trkpt lat="42.823916508292506" lon="13.508663452190449"><ele>222.0</ele><time>2026-05-02T08:18:04Z</time></trkpt><trkpt lat="42.82379980303067" lon="13.508658013360822"><ele>219.0</ele><time>2026-05-02T08:18:05Z</time></trkpt><trkpt lat="42.82367739099924" lon="13.508630109635858"><ele>216.0</ele><time>2026-05-02T08:18:06Z</time></trkpt><trkpt lat="42.82355921825369" lon="13.50857937197303"><ele>213.5</ele><time>2026-05-02T08:18:07Z</time></trkpt><trkpt lat="42.8234526557714" lon="13.508530177808236"><ele>211.0</ele><time>2026-05-02T08:18:08Z</time></trkpt><trkpt lat="42.82333934508264" lon="13.508494154661031"><ele>208.5</ele><time>2026-05-02T08:18:09Z</time></trkpt><trkpt lat="42.82322549848303" lon="13.508459327183022"><ele>206.0</ele><time>2026-05-02T08:18:10Z</time></trkpt><trkpt lat="42.823121208453024" lon="13.508421547119958"><ele>206.0</ele><time>2026-05-02T08:18:10.999Z</time></trkpt><trkpt lat="42.823012182787394" lon="13.50838509556248"><ele>206.0</ele><time>2026-05-02T08:18:11.999Z</time></trkpt><trkpt lat="42.822906856032795" lon="13.508352912215802"><ele>206.0</ele><time>2026-05-02T08:18:12.999Z</time></trkpt><trkpt lat="42.82280236903128" lon="13.508311879140043"><ele>206.0</ele><time>2026-05-02T08:18:13.999Z</time></trkpt><trkpt lat="42.82268830528046" lon="13.50826800172761"><ele>206.0</ele><time>2026-05-02T08:18:14.999Z</time></trkpt><trkpt lat="42.82258329606501" lon="13.508229007656452"><ele>206.20000000000002</ele><time>2026-05-02T08:18:15.999Z</time></trkpt><trkpt lat="42.82248592043038" lon="13.508196889278542"><ele>206.4</ele><time>2026-05-02T08:18:16.999Z</time></trkpt><trkpt lat="42.822392521171444" lon="13.508164194755057"><ele>206.6</ele><time>2026-05-02T08:18:17.999Z</time></trkpt><trkpt lat="42.82230322173109" lon="13.508123709746375"><ele>206.8</ele><time>2026-05-02T08:18:18.999Z</time></trkpt><trkpt lat="42.82221336756003" lon="13.508052457647139"><ele>207.0</ele><time>2026-05-02T08:18:19.999Z</time></trkpt><trkpt lat="42.82212854869827" lon="13.507948400400812"><ele>206.39999999999998</ele><time>2026-05-02T08:18:20.999Z</time></trkpt><trkpt lat="42.822062759205394" lon="13.507833157745692"><ele>205.79999999999998</ele><time>2026-05-02T08:18:21.999Z</time></trkpt><trkpt lat="42.82201983749821" lon="13.507693899491313"><ele>205.2</ele><time>2026-05-02T08:18:22.999Z</time></trkpt><trkpt lat="42.82198808434164" lon="13.507546626801496"><ele>204.6</ele><time>2026-05-02T08:18:23.999Z</time></trkpt><trkpt lat="42.82195648848497" lon="13.507393827082646"><ele>204.0</ele><time>2026-05-02T08:18:24.999Z</time></trkpt><trkpt lat="42.82191841161203" lon="13.507222663741159"><ele>205.25</ele><time>2026-05-02T08:18:25.999Z</time></trkpt><trkpt lat="42.82187508104283" lon="13.507030536301416"><ele>206.5</ele><time>2026-05-02T08:18:26.999Z</time></trkpt><trkpt lat="42.82183452348614" lon="13.506842654568413"><ele>207.75</ele><time>2026-05-02T08:18:27.999Z</time></trkpt><trkpt lat="42.82179770415527" lon="13.506683687789872"><ele>209.0</ele><time>2026-05-02T08:18:28.999Z</time></trkpt><trkpt lat="42.82176522357712" lon="13.50653268891157"><ele>209.25</ele><time>2026-05-02T08:18:29.999Z</time></trkpt><trkpt lat="42.82173147777991" lon="13.506372120545237"><ele>209.5</ele><time>2026-05-02T08:18:30.999Z</time></trkpt><trkpt lat="42.82170263360289" lon="13.506208090873722"><ele>209.75</ele><time>2026-05-02T08:18:31.999Z</time></trkpt><trkpt lat="42.82168140511206" lon="13.506027867538945"><ele>210.0</ele><time>2026-05-02T08:18:32.999Z</time></trkpt><trkpt lat="42.82166012241525" lon="13.505819557808803"><ele>212.0</ele><time>2026-05-02T08:18:33.999Z</time></trkpt><trkpt lat="42.821630814349476" lon="13.50558679928056"><ele>214.0</ele><time>2026-05-02T08:18:34.999Z</time></trkpt><trkpt lat="42.821600201660054" lon="13.505327575883392"><ele>216.0</ele><time>2026-05-02T08:18:35.999Z</time></trkpt><trkpt lat="42.821569857773355" lon="13.505056824152744"><ele>216.0</ele><time>2026-05-02T08:18:36.999Z</time></trkpt><trkpt lat="42.82154100479197" lon="13.504793988496276"><ele>216.0</ele><time>2026-05-02T08:18:37.999Z</time></trkpt><trkpt lat="42.821510497888426" lon="13.504527323097825"><ele>216.0</ele><time>2026-05-02T08:18:38.999Z</time></trkpt><trkpt lat="42.8214741104288" lon="13.504257860509941"><ele>216.0</ele><time>2026-05-02T08:18:39.999Z</time></trkpt><trkpt lat="42.821436184817905" lon="13.50398328164298"><ele>216.0</ele><time>2026-05-02T08:18:40.999Z</time></trkpt><trkpt lat="42.821405276132225" lon="13.503722759142274"><ele>216.0</ele><time>2026-05-02T08:18:41.999Z</time></trkpt><trkpt lat="42.82137530183151" lon="13.503484638001328"><ele>216.0</ele><time>2026-05-02T08:18:42.999Z</time></trkpt><trkpt lat="42.821353181217496" lon="13.503246561346055"><ele>216.0</ele><time>2026-05-02T08:18:43.999Z</time></trkpt><trkpt lat="42.82135541430006" lon="13.503025893744896"><ele>216.0</ele><time>2026-05-02T08:18:44.999Z</time></trkpt><trkpt lat="42.821387746587625" lon="13.50282433558881"><ele>219.0</ele><time>2026-05-02T08:18:45.999Z</time></trkpt><trkpt lat="42.82145520827217" lon="13.502624632844356"><ele>222.0</ele><time>2026-05-02T08:18:46.999Z</time></trkpt><trkpt lat="42.82155422224942" lon="13.502430102501547"><ele>225.0</ele><time>2026-05-02T08:18:47.999Z</time></trkpt><trkpt lat="42.8216774155498" lon="13.502252717140253"><ele>225.33333333333331</ele><time>2026-05-02T08:18:48.999Z</time></trkpt><trkpt lat="42.82182434832454" lon="13.502095520018461"><ele>225.66666666666666</ele><time>2026-05-02T08:18:49.999Z</time></trkpt><trkpt lat="42.821996485259284" lon="13.502020802516256"><ele>226.0</ele><time>2026-05-02T08:18:50.999Z</time></trkpt><trkpt lat="42.822171322645566" lon="13.501926049156493"><ele>226.0</ele><time>2026-05-02T08:18:51.999Z</time></trkpt><trkpt lat="42.82236101523925" lon="13.501835928334552"><ele>226.0</ele><time>2026-05-02T08:18:52.999Z</time></trkpt><trkpt lat="42.82255203278866" lon="13.501711755652572"><ele>226.0</ele><time>2026-05-02T08:18:53.999Z</time></trkpt><trkpt lat="42.82274483750556" lon="13.50156087400985"><ele>223.5</ele><time>2026-05-02T08:18:54.999Z</time></trkpt><trkpt lat="42.82293581592745" lon="13.501396074539405"><ele>221.0</ele><time>2026-05-02T08:18:55.999Z</time></trkpt><trkpt lat="42.8231310947027" lon="13.501216567073447"><ele>221.0</ele><time>2026-05-02T08:18:56.999Z</time></trkpt><trkpt lat="42.823320766893005" lon="13.501051971474169"><ele>221.0</ele><time>2026-05-02T08:18:57.999Z</time></trkpt><trkpt lat="42.82350875701013" lon="13.50091396639658"><ele>221.0</ele><time>2026-05-02T08:18:58.999Z</time></trkpt><trkpt lat="42.82369861672452" lon="13.500801522264055"><ele>219.33333333333334</ele><time>2026-05-02T08:18:59.999Z</time></trkpt><trkpt lat="42.82387657655438" lon="13.500706076747857"><ele>217.66666666666669</ele><time>2026-05-02T08:19:00.999Z</time></trkpt><trkpt lat="42.82402627488966" lon="13.500602249637573"><ele>216.0</ele><time>2026-05-02T08:19:01.999Z</time></trkpt><trkpt lat="42.82415416306867" lon="13.50046501330871"><ele>216.0</ele><time>2026-05-02T08:19:02.999Z</time></trkpt><trkpt lat="42.824255256727724" lon="13.500297685889924"><ele>216.0</ele><time>2026-05-02T08:19:03.999Z</time></trkpt><trkpt lat="42.82433203948709" lon="13.50003817236463"><ele>216.0</ele><time>2026-05-02T08:19:04.999Z</time></trkpt><trkpt lat="42.82442583662007" lon="13.499767281425246"><ele>215.33333333333331</ele><time>2026-05-02T08:19:05.999Z</time></trkpt><trkpt lat="42.82451154698337" lon="13.499503123840363"><ele>214.66666666666666</ele><time>2026-05-02T08:19:06.999Z</time></trkpt><trkpt lat="42.82460119732029" lon="13.499247344992774"><ele>214.0</ele><time>2026-05-02T08:19:07.999Z</time></trkpt><trkpt lat="42.824692581535594" lon="13.498992855355887"><ele>214.0</ele><time>2026-05-02T08:19:08.999Z</time></trkpt><trkpt lat="42.824788118492016" lon="13.498769754251057"><ele>214.0</ele><time>2026-05-02T08:19:09.999Z</time></trkpt><trkpt lat="42.82491879494857" lon="13.498564404399993"><ele>214.0</ele><time>2026-05-02T08:19:10.999Z</time></trkpt><trkpt lat="42.825078113618154" lon="13.498366543608265"><ele>217.0</ele><time>2026-05-02T08:19:11.999Z</time></trkpt><trkpt lat="42.82524400554087" lon="13.498168030524905"><ele>220.0</ele><time>2026-05-02T08:19:12.999Z</time></trkpt><trkpt lat="42.82541185378456" lon="13.49795587322808"><ele>222.0</ele><time>2026-05-02T08:19:13.999Z</time></trkpt><trkpt lat="42.825576945149734" lon="13.49773235549391"><ele>224.0</ele><time>2026-05-02T08:19:14.999Z</time></trkpt><trkpt lat="42.82574747446761" lon="13.497506528808115"><ele>224.0</ele><time>2026-05-02T08:19:15.999Z</time></trkpt><trkpt lat="42.82590472270309" lon="13.497286916119082"><ele>224.0</ele><time>2026-05-02T08:19:16.999Z</time></trkpt><trkpt lat="42.82605763979908" lon="13.497095980751867"><ele>224.0</ele><time>2026-05-02T08:19:18Z</time></trkpt><trkpt lat="42.82621268792349" lon="13.496920590147978"><ele>226.66666666666669</ele><time>2026-05-02T08:19:19Z</time></trkpt><trkpt lat="42.826378782613865" lon="13.496769876520899"><ele>229.33333333333331</ele><time>2026-05-02T08:19:20Z</time></trkpt><trkpt lat="42.8265826799246" lon="13.496656411496806"><ele>232.0</ele><time>2026-05-02T08:19:21Z</time></trkpt><trkpt lat="42.82680213992374" lon="13.496555114815857"><ele>227.0</ele><time>2026-05-02T08:19:22Z</time></trkpt><trkpt lat="42.82702913933563" lon="13.496459631677006"><ele>222.0</ele><time>2026-05-02T08:19:23Z</time></trkpt><trkpt lat="42.82725407310062" lon="13.496379222388718"><ele>222.0</ele><time>2026-05-02T08:19:24Z</time></trkpt><trkpt lat="42.82747867197063" lon="13.496289188177567"><ele>222.0</ele><time>2026-05-02T08:19:25Z</time></trkpt><trkpt lat="42.82771315119764" lon="13.49620199156288"><ele>226.0</ele><time>2026-05-02T08:19:26Z</time></trkpt><trkpt lat="42.82795029144561" lon="13.496117651892167"><ele>230.0</ele><time>2026-05-02T08:19:27Z</time></trkpt><trkpt lat="42.8281925795899" lon="13.496071738772057"><ele>230.0</ele><time>2026-05-02T08:19:28Z</time></trkpt><trkpt lat="42.828442336232705" lon="13.496046218251081"><ele>230.0</ele><time>2026-05-02T08:19:29Z</time></trkpt><trkpt lat="42.828732716229744" lon="13.49607802070006"><ele>230.5</ele><time>2026-05-02T08:19:30Z</time></trkpt><trkpt lat="42.82902035998629" lon="13.496146817862428"><ele>231.0</ele><time>2026-05-02T08:19:31Z</time></trkpt><trkpt lat="42.82930909641466" lon="13.496181138043745"><ele>231.33333333333331</ele><time>2026-05-02T08:19:32Z</time></trkpt><trkpt lat="42.82947068077077" lon="13.49610809277386"><ele>231.66666666666666</ele><time>2026-05-02T08:19:33Z</time></trkpt><trkpt lat="42.82973702359289" lon="13.496129160213863"><ele>232.0</ele><time>2026-05-02T08:19:34Z</time></trkpt><trkpt lat="42.82999336876656" lon="13.496151240718913"><ele>232.5</ele><time>2026-05-02T08:19:35Z</time></trkpt><trkpt lat="42.8302230518479" lon="13.49616724367869"><ele>233.0</ele><time>2026-05-02T08:19:36Z</time></trkpt><trkpt lat="42.83044309992423" lon="13.496188287832288"><ele>233.0</ele><time>2026-05-02T08:19:37Z</time></trkpt><trkpt lat="42.83067467341167" lon="13.496174474290907"><ele>233.0</ele><time>2026-05-02T08:19:38Z</time></trkpt><trkpt lat="42.83091914291599" lon="13.496129370264084"><ele>232.0</ele><time>2026-05-02T08:19:39Z</time></trkpt><trkpt lat="42.83116909982633" lon="13.496066156662842"><ele>231.0</ele><time>2026-05-02T08:19:40Z</time></trkpt><trkpt lat="42.83141551329978" lon="13.495994288904035"><ele>231.0</ele><time>2026-05-02T08:19:41Z</time></trkpt><trkpt lat="42.831642231585384" lon="13.495927580438583"><ele>231.0</ele><time>2026-05-02T08:19:42Z</time></trkpt><trkpt lat="42.831846009794624" lon="13.495873306478906"><ele>231.0</ele><time>2026-05-02T08:19:43Z</time></trkpt><trkpt lat="42.83202962165111" lon="13.495809491758171"><ele>230.66666666666669</ele><time>2026-05-02T08:19:44Z</time></trkpt><trkpt lat="42.8322046250614" lon="13.495706264084909"><ele>230.33333333333334</ele><time>2026-05-02T08:19:45Z</time></trkpt><trkpt lat="42.83236920361781" lon="13.49554424779734"><ele>230.0</ele><time>2026-05-02T08:19:46Z</time></trkpt><trkpt lat="42.832534716582835" lon="13.495341449104345"><ele>229.0</ele><time>2026-05-02T08:19:47Z</time></trkpt><trkpt lat="42.832697889366585" lon="13.49511975968104"><ele>228.0</ele><time>2026-05-02T08:19:48Z</time></trkpt><trkpt lat="42.832879950178054" lon="13.494908113215585"><ele>228.0</ele><time>2026-05-02T08:19:49Z</time></trkpt><trkpt lat="42.83307943249777" lon="13.494679703894512"><ele>228.0</ele><time>2026-05-02T08:19:50Z</time></trkpt><trkpt lat="42.83328238130308" lon="13.494453487035805"><ele>229.5</ele><time>2026-05-02T08:19:51Z</time></trkpt><trkpt lat="42.83347719547357" lon="13.494238067244845"><ele>231.0</ele><time>2026-05-02T08:19:52Z</time></trkpt><trkpt lat="42.83366953653697" lon="13.494023377215756"><ele>231.0</ele><time>2026-05-02T08:19:53Z</time></trkpt><trkpt lat="42.83386336317209" lon="13.493811908726874"><ele>231.0</ele><time>2026-05-02T08:19:54Z</time></trkpt><trkpt lat="42.83404646299998" lon="13.493614045325357"><ele>232.33333333333331</ele><time>2026-05-02T08:19:55Z</time></trkpt><trkpt lat="42.83421135646431" lon="13.493430712117407"><ele>233.66666666666666</ele><time>2026-05-02T08:19:56Z</time></trkpt><trkpt lat="42.834364756610036" lon="13.493264115845763"><ele>235.0</ele><time>2026-05-02T08:19:57Z</time></trkpt><trkpt lat="42.834508886721515" lon="13.493130620374925"><ele>235.0</ele><time>2026-05-02T08:19:58Z</time></trkpt><trkpt lat="42.83467589960191" lon="13.493056487350739"><ele>235.0</ele><time>2026-05-02T08:19:59Z</time></trkpt><trkpt lat="42.83486462350482" lon="13.49302993168372"><ele>235.0</ele><time>2026-05-02T08:20:00Z</time></trkpt><trkpt lat="42.83507250741548" lon="13.493045105210784"><ele>233.5</ele><time>2026-05-02T08:20:01Z</time></trkpt><trkpt lat="42.835291657670126" lon="13.493083014469036"><ele>232.0</ele><time>2026-05-02T08:20:02Z</time></trkpt><trkpt lat="42.83552217418138" lon="13.493115588347742"><ele>232.0</ele><time>2026-05-02T08:20:03Z</time></trkpt><trkpt lat="42.83575968073473" lon="13.493134114235366"><ele>232.0</ele><time>2026-05-02T08:20:04Z</time></trkpt><trkpt lat="42.83600807605925" lon="13.493150839330578"><ele>234.5</ele><time>2026-05-02T08:20:05Z</time></trkpt><trkpt lat="42.83625177457113" lon="13.493174590165847"><ele>237.0</ele><time>2026-05-02T08:20:06Z</time></trkpt><trkpt lat="42.83647322117086" lon="13.493189473305433"><ele>237.0</ele><time>2026-05-02T08:20:07Z</time></trkpt><trkpt lat="42.83667585821262" lon="13.493208220323446"><ele>237.0</ele><time>2026-05-02T08:20:08Z</time></trkpt><trkpt lat="42.836877845353335" lon="13.493199996984432"><ele>237.0</ele><time>2026-05-02T08:20:09Z</time></trkpt><trkpt lat="42.83707109548522" lon="13.493175341600836"><ele>237.0</ele><time>2026-05-02T08:20:10Z</time></trkpt><trkpt lat="42.83726639781125" lon="13.493122903280405"><ele>237.0</ele><time>2026-05-02T08:20:10.999Z</time></trkpt><trkpt lat="42.83747207911135" lon="13.493033500601062"><ele>237.0</ele><time>2026-05-02T08:20:11.999Z</time></trkpt><trkpt lat="42.837676963427555" lon="13.492920164516079"><ele>241.0</ele><time>2026-05-02T08:20:12.999Z</time></trkpt><trkpt lat="42.83788954677982" lon="13.492801729212418"><ele>245.0</ele><time>2026-05-02T08:20:13.999Z</time></trkpt><trkpt lat="42.8381109903321" lon="13.492687685294646"><ele>245.0</ele><time>2026-05-02T08:20:14.999Z</time></trkpt><trkpt lat="42.83832743434939" lon="13.492576069098742"><ele>245.0</ele><time>2026-05-02T08:20:15.999Z</time></trkpt><trkpt lat="42.83851537368708" lon="13.492464965466826"><ele>245.0</ele><time>2026-05-02T08:20:16.999Z</time></trkpt><trkpt lat="42.838680463470055" lon="13.492337712916786"><ele>245.33333333333334</ele><time>2026-05-02T08:20:17.999Z</time></trkpt><trkpt lat="42.83882890003733" lon="13.492207988979043"><ele>245.66666666666669</ele><time>2026-05-02T08:20:18.999Z</time></trkpt><trkpt lat="42.838975961643264" lon="13.492084663535833"><ele>246.0</ele><time>2026-05-02T08:20:19.999Z</time></trkpt><trkpt lat="42.8391205256185" lon="13.491930500387609"><ele>246.0</ele><time>2026-05-02T08:20:20.999Z</time></trkpt><trkpt lat="42.83925224225638" lon="13.491743862840618"><ele>246.0</ele><time>2026-05-02T08:20:21.999Z</time></trkpt><trkpt lat="42.83937081039179" lon="13.491539902322309"><ele>246.0</ele><time>2026-05-02T08:20:22.999Z</time></trkpt><trkpt lat="42.83947708201169" lon="13.491367348517247"><ele>245.33333333333331</ele><time>2026-05-02T08:20:23.999Z</time></trkpt><trkpt lat="42.83958209141904" lon="13.491197182690879"><ele>244.66666666666666</ele><time>2026-05-02T08:20:24.999Z</time></trkpt><trkpt lat="42.83971137397288" lon="13.491043694921705"><ele>244.0</ele><time>2026-05-02T08:20:25.999Z</time></trkpt><trkpt lat="42.83983473820473" lon="13.490916571928839"><ele>244.0</ele><time>2026-05-02T08:20:26.999Z</time></trkpt><trkpt lat="42.839949586761236" lon="13.490775031615541"><ele>244.0</ele><time>2026-05-02T08:20:27.999Z</time></trkpt><trkpt lat="42.84004327209819" lon="13.490607537528073"><ele>244.0</ele><time>2026-05-02T08:20:28.999Z</time></trkpt><trkpt lat="42.84012353429663" lon="13.49040296454264"><ele>244.0</ele><time>2026-05-02T08:20:29.999Z</time></trkpt><trkpt lat="42.84020000525126" lon="13.490192074641953"><ele>244.0</ele><time>2026-05-02T08:20:30.999Z</time></trkpt><trkpt lat="42.84027266610197" lon="13.489985452346424"><ele>244.0</ele><time>2026-05-02T08:20:31.999Z</time></trkpt><trkpt lat="42.840350801740826" lon="13.489799637180012"><ele>244.0</ele><time>2026-05-02T08:20:32.999Z</time></trkpt><trkpt lat="42.84043299449356" lon="13.48962299961441"><ele>244.0</ele><time>2026-05-02T08:20:33.999Z</time></trkpt><trkpt lat="42.840533678656236" lon="13.489458026561493"><ele>244.0</ele><time>2026-05-02T08:20:34.999Z</time></trkpt><trkpt lat="42.840656366508256" lon="13.489335645121326"><ele>245.0</ele><time>2026-05-02T08:20:35.999Z</time></trkpt><trkpt lat="42.840794719960016" lon="13.489239086765032"><ele>246.0</ele><time>2026-05-02T08:20:36.999Z</time></trkpt><trkpt lat="42.84094154031908" lon="13.489155960333136"><ele>247.0</ele><time>2026-05-02T08:20:37.999Z</time></trkpt><trkpt lat="42.84109754906592" lon="13.489072952083296"><ele>247.0</ele><time>2026-05-02T08:20:38.999Z</time></trkpt><trkpt lat="42.841248953714576" lon="13.488994472696412"><ele>247.0</ele><time>2026-05-02T08:20:39.999Z</time></trkpt><trkpt lat="42.841379574037354" lon="13.488921844746821"><ele>247.0</ele><time>2026-05-02T08:20:40.999Z</time></trkpt><trkpt lat="42.841514275660806" lon="13.48883807291771"><ele>247.0</ele><time>2026-05-02T08:20:41.999Z</time></trkpt><trkpt lat="42.8416593138344" lon="13.488775439171134"><ele>247.0</ele><time>2026-05-02T08:20:42.999Z</time></trkpt><trkpt lat="42.841829114504286" lon="13.488723025008989"><ele>247.0</ele><time>2026-05-02T08:20:43.999Z</time></trkpt><trkpt lat="42.842008200716" lon="13.488618377311578"><ele>252.5</ele><time>2026-05-02T08:20:44.999Z</time></trkpt><trkpt lat="42.84221943678033" lon="13.488558752800692"><ele>258.0</ele><time>2026-05-02T08:20:45.999Z</time></trkpt><trkpt lat="42.84245671293172" lon="13.488495657152864"><ele>256.0</ele><time>2026-05-02T08:20:46.999Z</time></trkpt><trkpt lat="42.84270607859385" lon="13.48843240174351"><ele>254.0</ele><time>2026-05-02T08:20:47.999Z</time></trkpt><trkpt lat="42.842940015136236" lon="13.488377896758468"><ele>254.0</ele><time>2026-05-02T08:20:48.999Z</time></trkpt><trkpt lat="42.843148633124144" lon="13.488353000723269"><ele>254.0</ele><time>2026-05-02T08:20:49.999Z</time></trkpt><trkpt lat="42.84331668035701" lon="13.488289285659256"><ele>254.0</ele><time>2026-05-02T08:20:50.999Z</time></trkpt><trkpt lat="42.84347764606882" lon="13.48824472646992"><ele>252.66666666666669</ele><time>2026-05-02T08:20:51.999Z</time></trkpt><trkpt lat="42.84363627220221" lon="13.488215206453992"><ele>251.33333333333331</ele><time>2026-05-02T08:20:52.999Z</time></trkpt><trkpt lat="42.84383728502864" lon="13.488157836921225"><ele>250.0</ele><time>2026-05-02T08:20:53.999Z</time></trkpt><trkpt lat="42.84406900349859" lon="13.488091392991352"><ele>248.5</ele><time>2026-05-02T08:20:54.999Z</time></trkpt><trkpt lat="42.84431700436084" lon="13.48802033356942"><ele>247.0</ele><time>2026-05-02T08:20:55.999Z</time></trkpt><trkpt lat="42.84456589909596" lon="13.487948906714543"><ele>255.0</ele><time>2026-05-02T08:20:56.999Z</time></trkpt><trkpt lat="42.84482352999847" lon="13.48787497278826"><ele>263.0</ele><time>2026-05-02T08:20:57.999Z</time></trkpt><trkpt lat="42.84508110290074" lon="13.48778410996673"><ele>262.5</ele><time>2026-05-02T08:20:58.999Z</time></trkpt><trkpt lat="42.84533775028741" lon="13.48772088244705"><ele>262.0</ele><time>2026-05-02T08:20:59.999Z</time></trkpt><trkpt lat="42.8455930829636" lon="13.487721234380054"><ele>262.0</ele><time>2026-05-02T08:21:00.999Z</time></trkpt><trkpt lat="42.84585195573691" lon="13.487719430690582"><ele>262.0</ele><time>2026-05-02T08:21:01.999Z</time></trkpt><trkpt lat="42.846098688348135" lon="13.48772975722122"><ele>263.3333333333333</ele><time>2026-05-02T08:21:02.999Z</time></trkpt><trkpt lat="42.846321585598496" lon="13.487748286408141"><ele>264.6666666666667</ele><time>2026-05-02T08:21:03.999Z</time></trkpt><trkpt lat="42.846510064186454" lon="13.487812516845764"><ele>266.0</ele><time>2026-05-02T08:21:04.999Z</time></trkpt><trkpt lat="42.846672093913284" lon="13.487916078935505"><ele>264.33333333333337</ele><time>2026-05-02T08:21:05.999Z</time></trkpt><trkpt lat="42.84685296209615" lon="13.48804574314078"><ele>262.6666666666667</ele><time>2026-05-02T08:21:06.999Z</time></trkpt><trkpt lat="42.84703947914448" lon="13.488186337797758"><ele>261.0</ele><time>2026-05-02T08:21:07.999Z</time></trkpt><trkpt lat="42.84721293169381" lon="13.488316712018559"><ele>261.0</ele><time>2026-05-02T08:21:08.999Z</time></trkpt><trkpt lat="42.847387507732634" lon="13.488452223640218"><ele>261.0</ele><time>2026-05-02T08:21:09.999Z</time></trkpt><trkpt lat="42.847557823650995" lon="13.488610091528834"><ele>261.0</ele><time>2026-05-02T08:21:10.999Z</time></trkpt><trkpt lat="42.84772705115453" lon="13.488803237767902"><ele>260.0</ele><time>2026-05-02T08:21:11.999Z</time></trkpt><trkpt lat="42.847896577822326" lon="13.488998295260945"><ele>259.0</ele><time>2026-05-02T08:21:12.999Z</time></trkpt><trkpt lat="42.84806142085513" lon="13.489169659168656"><ele>258.0</ele><time>2026-05-02T08:21:13.999Z</time></trkpt><trkpt lat="42.84820303566311" lon="13.489331636980642"><ele>258.0</ele><time>2026-05-02T08:21:14.999Z</time></trkpt><trkpt lat="42.8483314554444" lon="13.489470653998955"><ele>258.0</ele><time>2026-05-02T08:21:15.999Z</time></trkpt><trkpt lat="42.848439790453604" lon="13.489572957462538"><ele>258.0</ele><time>2026-05-02T08:21:16.999Z</time></trkpt><trkpt lat="42.84856088401227" lon="13.489652555780113"><ele>258.0</ele><time>2026-05-02T08:21:17.999Z</time></trkpt><trkpt lat="42.84869248462768" lon="13.489678284789557"><ele>258.5</ele><time>2026-05-02T08:21:18.999Z</time></trkpt><trkpt lat="42.84881747827251" lon="13.489654007417812"><ele>259.0</ele><time>2026-05-02T08:21:19.999Z</time></trkpt><trkpt lat="42.84892506771633" lon="13.489570995917198"><ele>259.5</ele><time>2026-05-02T08:21:20.999Z</time></trkpt><trkpt lat="42.84901680714028" lon="13.489432452661704"><ele>260.0</ele><time>2026-05-02T08:21:21.999Z</time></trkpt><trkpt lat="42.84909773414926" lon="13.489229681384007"><ele>260.0</ele><time>2026-05-02T08:21:22.999Z</time></trkpt><trkpt lat="42.849193264998384" lon="13.48901709206558"><ele>260.0</ele><time>2026-05-02T08:21:24Z</time></trkpt><trkpt lat="42.849304158749725" lon="13.488785199268024"><ele>260.0</ele><time>2026-05-02T08:21:25Z</time></trkpt><trkpt lat="42.84944320220978" lon="13.488558525816252"><ele>261.0</ele><time>2026-05-02T08:21:26Z</time></trkpt><trkpt lat="42.849586949529595" lon="13.488329803711714"><ele>262.0</ele><time>2026-05-02T08:21:27Z</time></trkpt><trkpt lat="42.84971140285423" lon="13.48807984752024"><ele>263.0</ele><time>2026-05-02T08:21:28Z</time></trkpt><trkpt lat="42.84978891685103" lon="13.487796926692024"><ele>263.0</ele><time>2026-05-02T08:21:29Z</time></trkpt><trkpt lat="42.84985376805594" lon="13.487518776145356"><ele>263.0</ele><time>2026-05-02T08:21:30Z</time></trkpt><trkpt lat="42.84991436705997" lon="13.48724083013932"><ele>263.0</ele><time>2026-05-02T08:21:31Z</time></trkpt><trkpt lat="42.84998914373233" lon="13.486997402944882"><ele>262.0</ele><time>2026-05-02T08:21:32Z</time></trkpt><trkpt lat="42.85011079350118" lon="13.486755692946115"><ele>261.0</ele><time>2026-05-02T08:21:33Z</time></trkpt><trkpt lat="42.85025170154958" lon="13.486523565218583"><ele>260.0</ele><time>2026-05-02T08:21:34Z</time></trkpt><trkpt lat="42.850390167295856" lon="13.486325129690943"><ele>261.33333333333337</ele><time>2026-05-02T08:21:35Z</time></trkpt><trkpt lat="42.85051154849133" lon="13.486145715828226"><ele>262.6666666666667</ele><time>2026-05-02T08:21:36Z</time></trkpt><trkpt lat="42.85062294456481" lon="13.485974565371746"><ele>264.0</ele><time>2026-05-02T08:21:37Z</time></trkpt><trkpt lat="42.85074402239718" lon="13.485779087063154"><ele>264.0</ele><time>2026-05-02T08:21:38Z</time></trkpt><trkpt lat="42.85088014795628" lon="13.485545515861292"><ele>264.0</ele><time>2026-05-02T08:21:39Z</time></trkpt><trkpt lat="42.85104677656675" lon="13.485324573064483"><ele>264.0</ele><time>2026-05-02T08:21:40Z</time></trkpt><trkpt lat="42.85119052312066" lon="13.485073460865866"><ele>264.0</ele><time>2026-05-02T08:21:41Z</time></trkpt><trkpt lat="42.85133177299116" lon="13.484870360464729"><ele>264.0</ele><time>2026-05-02T08:21:42Z</time></trkpt><trkpt lat="42.85145927503788" lon="13.484682690945663"><ele>265.6666666666667</ele><time>2026-05-02T08:21:43Z</time></trkpt><trkpt lat="42.85158486093358" lon="13.48451460849451"><ele>267.33333333333337</ele><time>2026-05-02T08:21:44Z</time></trkpt><trkpt lat="42.85170186089297" lon="13.484363352855045"><ele>269.0</ele><time>2026-05-02T08:21:45Z</time></trkpt><trkpt lat="42.85181700066018" lon="13.484232514642082"><ele>269.0</ele><time>2026-05-02T08:21:46Z</time></trkpt><trkpt lat="42.85194291433081" lon="13.48412935466029"><ele>269.0</ele><time>2026-05-02T08:21:47Z</time></trkpt><trkpt lat="42.85207829639062" lon="13.484068084783363"><ele>269.0</ele><time>2026-05-02T08:21:48Z</time></trkpt><trkpt lat="42.85220954877064" lon="13.48405453172971"><ele>269.0</ele><time>2026-05-02T08:21:49Z</time></trkpt><trkpt lat="42.85233940907903" lon="13.484074947230871"><ele>269.0</ele><time>2026-05-02T08:21:50Z</time></trkpt><trkpt lat="42.85246920242062" lon="13.484114819082166"><ele>269.0</ele><time>2026-05-02T08:21:51Z</time></trkpt><trkpt lat="42.85259843603897" lon="13.484159241924864"><ele>269.0</ele><time>2026-05-02T08:21:52Z</time></trkpt><trkpt lat="42.85272674260346" lon="13.484192311154528"><ele>269.0</ele><time>2026-05-02T08:21:53Z</time></trkpt><trkpt lat="42.85285230620566" lon="13.484217770304419"><ele>270.5</ele><time>2026-05-02T08:21:54Z</time></trkpt><trkpt lat="42.85298504754401" lon="13.4842183134444"><ele>272.0</ele><time>2026-05-02T08:21:55Z</time></trkpt><trkpt lat="42.853127206922984" lon="13.48419014384047"><ele>273.5</ele><time>2026-05-02T08:21:56Z</time></trkpt><trkpt lat="42.85325604635396" lon="13.48414592323038"><ele>275.0</ele><time>2026-05-02T08:21:57Z</time></trkpt><trkpt lat="42.85337342564952" lon="13.484092941441828"><ele>273.25</ele><time>2026-05-02T08:21:58Z</time></trkpt><trkpt lat="42.85349354738887" lon="13.484039944838816"><ele>271.5</ele><time>2026-05-02T08:21:59Z</time></trkpt><trkpt lat="42.85361793541606" lon="13.483980849252692"><ele>269.75</ele><time>2026-05-02T08:22:00Z</time></trkpt><trkpt lat="42.853743699876155" lon="13.483908677602992"><ele>268.0</ele><time>2026-05-02T08:22:01Z</time></trkpt><trkpt lat="42.85385919348013" lon="13.483833539425436"><ele>270.0</ele><time>2026-05-02T08:22:02Z</time></trkpt><trkpt lat="42.85395942241902" lon="13.483751201882114"><ele>272.0</ele><time>2026-05-02T08:22:03Z</time></trkpt><trkpt lat="42.85405665471879" lon="13.483655551335037"><ele>274.0</ele><time>2026-05-02T08:22:04Z</time></trkpt><trkpt lat="42.85414426111212" lon="13.483532013708892"><ele>276.0</ele><time>2026-05-02T08:22:05Z</time></trkpt><trkpt lat="42.854212234751756" lon="13.483378328211055"><ele>276.0</ele><time>2026-05-02T08:22:06Z</time></trkpt><trkpt lat="42.85426299464876" lon="13.483209767717613"><ele>276.0</ele><time>2026-05-02T08:22:07Z</time></trkpt><trkpt lat="42.854310637820326" lon="13.48303884061396"><ele>276.0</ele><time>2026-05-02T08:22:08Z</time></trkpt><trkpt lat="42.85435482512117" lon="13.482869915106361"><ele>276.0</ele><time>2026-05-02T08:22:09Z</time></trkpt><trkpt lat="42.85439336167683" lon="13.482695114292328"><ele>275.5</ele><time>2026-05-02T08:22:10Z</time></trkpt><trkpt lat="42.85442605267858" lon="13.482513097295133"><ele>275.0</ele><time>2026-05-02T08:22:11Z</time></trkpt><trkpt lat="42.85445521290746" lon="13.482325711394397"><ele>274.5</ele><time>2026-05-02T08:22:12Z</time></trkpt><trkpt lat="42.85448566867183" lon="13.482130439891133"><ele>274.0</ele><time>2026-05-02T08:22:13Z</time></trkpt><trkpt lat="42.85453125830291" lon="13.481932962764361"><ele>274.0</ele><time>2026-05-02T08:22:14Z</time></trkpt><trkpt lat="42.854589348079614" lon="13.481740945133044"><ele>274.0</ele><time>2026-05-02T08:22:15Z</time></trkpt><trkpt lat="42.85466571834794" lon="13.48158528566955"><ele>274.0</ele><time>2026-05-02T08:22:16Z</time></trkpt><trkpt lat="42.85475425518916" lon="13.481452684954787"><ele>274.0</ele><time>2026-05-02T08:22:17Z</time></trkpt><trkpt lat="42.85483699513794" lon="13.481330264357293"><ele>274.25</ele><time>2026-05-02T08:22:18Z</time></trkpt><trkpt lat="42.854921301428476" lon="13.481195833797097"><ele>274.5</ele><time>2026-05-02T08:22:19Z</time></trkpt><trkpt lat="42.85500643727981" lon="13.481055060334594"><ele>274.75</ele><time>2026-05-02T08:22:20Z</time></trkpt><trkpt lat="42.8550917290837" lon="13.480924202814016"><ele>275.0</ele><time>2026-05-02T08:22:21Z</time></trkpt><trkpt lat="42.85518140817608" lon="13.480799791260827"><ele>275.0</ele><time>2026-05-02T08:22:22Z</time></trkpt><trkpt lat="42.85527374400106" lon="13.480685223917549"><ele>275.0</ele><time>2026-05-02T08:22:23Z</time></trkpt><trkpt lat="42.85535785274493" lon="13.480589913553885"><ele>275.0</ele><time>2026-05-02T08:22:23.999Z</time></trkpt><trkpt lat="42.855433861616135" lon="13.48050189836828"><ele>275.0</ele><time>2026-05-02T08:22:24.999Z</time></trkpt><trkpt lat="42.855506061011944" lon="13.480420717025854"><ele>275.0</ele><time>2026-05-02T08:22:25.999Z</time></trkpt><trkpt lat="42.85557139102699" lon="13.480340970588577"><ele>274.8</ele><time>2026-05-02T08:22:26.999Z</time></trkpt><trkpt lat="42.85563342565311" lon="13.480257492028924"><ele>274.6</ele><time>2026-05-02T08:22:27.999Z</time></trkpt><trkpt lat="42.85570896269818" lon="13.480166952608306"><ele>274.4</ele><time>2026-05-02T08:22:28.999Z</time></trkpt><trkpt lat="42.85579225713663" lon="13.48006531976638"><ele>274.2</ele><time>2026-05-02T08:22:29.999Z</time></trkpt><trkpt lat="42.855878693222415" lon="13.479963398916691"><ele>274.0</ele><time>2026-05-02T08:22:30.999Z</time></trkpt><trkpt lat="42.85597192520261" lon="13.479858370355466"><ele>274.0</ele><time>2026-05-02T08:22:31.999Z</time></trkpt><trkpt lat="42.85607281744964" lon="13.47975120920485"><ele>274.0</ele><time>2026-05-02T08:22:32.999Z</time></trkpt><trkpt lat="42.856175477803745" lon="13.479632936594694"><ele>274.0</ele><time>2026-05-02T08:22:33.999Z</time></trkpt><trkpt lat="42.85628978065107" lon="13.479527682482347"><ele>274.0</ele><time>2026-05-02T08:22:34.999Z</time></trkpt><trkpt lat="42.856398174355284" lon="13.479403474784448"><ele>274.75</ele><time>2026-05-02T08:22:35.999Z</time></trkpt><trkpt lat="42.85650654725155" lon="13.479280460854447"><ele>275.5</ele><time>2026-05-02T08:22:36.999Z</time></trkpt><trkpt lat="42.85660800708932" lon="13.47916703231728"><ele>276.25</ele><time>2026-05-02T08:22:37.999Z</time></trkpt><trkpt lat="42.85669807095" lon="13.47903893577191"><ele>277.0</ele><time>2026-05-02T08:22:38.999Z</time></trkpt><trkpt lat="42.856806753197894" lon="13.478964041084051"><ele>277.0</ele><time>2026-05-02T08:22:39.999Z</time></trkpt><trkpt lat="42.85689468770635" lon="13.47885740867875"><ele>277.0</ele><time>2026-05-02T08:22:40.999Z</time></trkpt><trkpt lat="42.856999853596946" lon="13.478793699303058"><ele>277.0</ele><time>2026-05-02T08:22:41.999Z</time></trkpt><trkpt lat="42.85709326477811" lon="13.47869585803408"><ele>277.0</ele><time>2026-05-02T08:22:42.999Z</time></trkpt><trkpt lat="42.857195857006595" lon="13.478609413317274"><ele>278.0</ele><time>2026-05-02T08:22:43.999Z</time></trkpt><trkpt lat="42.85729313917908" lon="13.478536908196379"><ele>279.0</ele><time>2026-05-02T08:22:44.999Z</time></trkpt><trkpt lat="42.85738624441625" lon="13.478451322657044"><ele>280.0</ele><time>2026-05-02T08:22:45.999Z</time></trkpt><trkpt lat="42.85747244356432" lon="13.478382205936091"><ele>281.0</ele><time>2026-05-02T08:22:46.999Z</time></trkpt><trkpt lat="42.857548365489734" lon="13.478329165938188"><ele>282.0</ele><time>2026-05-02T08:22:47.999Z</time></trkpt><trkpt lat="42.857632835434714" lon="13.478259504896334"><ele>282.0</ele><time>2026-05-02T08:22:48.999Z</time></trkpt><trkpt lat="42.85771277789311" lon="13.478211549946625"><ele>282.0</ele><time>2026-05-02T08:22:49.999Z</time></trkpt><trkpt lat="42.85777672055479" lon="13.478159591703335"><ele>282.0</ele><time>2026-05-02T08:22:50.999Z</time></trkpt><trkpt lat="42.85784111504584" lon="13.478093935526593"><ele>282.0</ele><time>2026-05-02T08:22:51.999Z</time></trkpt><trkpt lat="42.85792473436222" lon="13.478049174359223"><ele>282.0</ele><time>2026-05-02T08:22:52.999Z</time></trkpt><trkpt lat="42.8580092719141" lon="13.477969990251136"><ele>282.0</ele><time>2026-05-02T08:22:53.999Z</time></trkpt><trkpt lat="42.858093130646736" lon="13.477886142274475"><ele>282.8</ele><time>2026-05-02T08:22:54.999Z</time></trkpt><trkpt lat="42.858167942867475" lon="13.477826378106268"><ele>283.6</ele><time>2026-05-02T08:22:55.999Z</time></trkpt><trkpt lat="42.85826234790575" lon="13.477760031525635"><ele>284.40000000000003</ele><time>2026-05-02T08:22:56.999Z</time></trkpt><trkpt lat="42.858345514354525" lon="13.477678184497773"><ele>285.2</ele><time>2026-05-02T08:22:57.999Z</time></trkpt><trkpt lat="42.85843352694697" lon="13.477612890806107"><ele>286.0</ele><time>2026-05-02T08:22:58.999Z</time></trkpt><trkpt lat="42.858528822143015" lon="13.477535896926598"><ele>286.0</ele><time>2026-05-02T08:22:59.999Z</time></trkpt><trkpt lat="42.858621532270284" lon="13.477455235392537"><ele>286.0</ele><time>2026-05-02T08:23:00.999Z</time></trkpt><trkpt lat="42.8587284687546" lon="13.47736787210822"><ele>286.0</ele><time>2026-05-02T08:23:01.999Z</time></trkpt><trkpt lat="42.85884669223848" lon="13.477259498025596"><ele>286.0</ele><time>2026-05-02T08:23:02.999Z</time></trkpt><trkpt lat="42.85897439450043" lon="13.477144553145628"><ele>286.3333333333333</ele><time>2026-05-02T08:23:03.999Z</time></trkpt><trkpt lat="42.8591199641791" lon="13.477019860597023"><ele>286.6666666666667</ele><time>2026-05-02T08:23:04.999Z</time></trkpt><trkpt lat="42.8592704998152" lon="13.476906915376157"><ele>287.0</ele><time>2026-05-02T08:23:05.999Z</time></trkpt><trkpt lat="42.85941934543482" lon="13.476801682120934"><ele>287.0</ele><time>2026-05-02T08:23:06.999Z</time></trkpt><trkpt lat="42.85955610994895" lon="13.476707670496339"><ele>287.0</ele><time>2026-05-02T08:23:07.999Z</time></trkpt><trkpt lat="42.85968409929202" lon="13.476613831168304"><ele>287.0</ele><time>2026-05-02T08:23:08.999Z</time></trkpt><trkpt lat="42.85982402019851" lon="13.4765268874472"><ele>287.0</ele><time>2026-05-02T08:23:09.999Z</time></trkpt><trkpt lat="42.859960535561214" lon="13.476452135518603"><ele>287.0</ele><time>2026-05-02T08:23:10.999Z</time></trkpt><trkpt lat="42.86009458899034" lon="13.476380505968912"><ele>287.0</ele><time>2026-05-02T08:23:11.999Z</time></trkpt><trkpt lat="42.8602251298514" lon="13.47631012474409"><ele>287.0</ele><time>2026-05-02T08:23:12.999Z</time></trkpt><trkpt lat="42.860348986814834" lon="13.476239043591418"><ele>289.25</ele><time>2026-05-02T08:23:13.999Z</time></trkpt><trkpt lat="42.86046716100485" lon="13.476165430460584"><ele>291.5</ele><time>2026-05-02T08:23:14.999Z</time></trkpt><trkpt lat="42.86058042655972" lon="13.476085992925979"><ele>293.75</ele><time>2026-05-02T08:23:15.999Z</time></trkpt><trkpt lat="42.86069995586085" lon="13.476011972554858"><ele>296.0</ele><time>2026-05-02T08:23:16.999Z</time></trkpt><trkpt lat="42.86082294090286" lon="13.475948538753972"><ele>296.0</ele><time>2026-05-02T08:23:17.999Z</time></trkpt><trkpt lat="42.86094377997598" lon="13.475878400537221"><ele>296.0</ele><time>2026-05-02T08:23:18.999Z</time></trkpt><trkpt lat="42.86107366369715" lon="13.475801274899473"><ele>296.0</ele><time>2026-05-02T08:23:19.999Z</time></trkpt><trkpt lat="42.86120122289244" lon="13.475747907026443"><ele>296.0</ele><time>2026-05-02T08:23:20.999Z</time></trkpt><trkpt lat="42.861341835835475" lon="13.475668259794606"><ele>296.33333333333337</ele><time>2026-05-02T08:23:21.999Z</time></trkpt><trkpt lat="42.861494843129115" lon="13.475582367684442"><ele>296.6666666666667</ele><time>2026-05-02T08:23:22.999Z</time></trkpt><trkpt lat="42.86165070997738" lon="13.475493179106442"><ele>297.0</ele><time>2026-05-02T08:23:23.999Z</time></trkpt><trkpt lat="42.86179367548561" lon="13.475406475272168"><ele>297.0</ele><time>2026-05-02T08:23:24.999Z</time></trkpt><trkpt lat="42.861960608972375" lon="13.475301426629239"><ele>297.0</ele><time>2026-05-02T08:23:25.999Z</time></trkpt><trkpt lat="42.86212689435788" lon="13.475191064404079"><ele>297.0</ele><time>2026-05-02T08:23:26.999Z</time></trkpt><trkpt lat="42.86227430617168" lon="13.475100481112637"><ele>297.0</ele><time>2026-05-02T08:23:27.999Z</time></trkpt><trkpt lat="42.86243287937382" lon="13.475016040751633"><ele>297.0</ele><time>2026-05-02T08:23:28.999Z</time></trkpt><trkpt lat="42.86258935599055" lon="13.47492599633754"><ele>297.0</ele><time>2026-05-02T08:23:30Z</time></trkpt><trkpt lat="42.8627393965518" lon="13.474842132157432"><ele>295.6666666666667</ele><time>2026-05-02T08:23:31Z</time></trkpt><trkpt lat="42.86287847830668" lon="13.474760790483753"><ele>294.33333333333337</ele><time>2026-05-02T08:23:32Z</time></trkpt><trkpt lat="42.863014186406026" lon="13.47467955416774"><ele>293.0</ele><time>2026-05-02T08:23:33Z</time></trkpt><trkpt lat="42.86315527094835" lon="13.474589595631889"><ele>294.6666666666667</ele><time>2026-05-02T08:23:34Z</time></trkpt><trkpt lat="42.86330791471232" lon="13.474511522621809"><ele>296.3333333333333</ele><time>2026-05-02T08:23:35Z</time></trkpt><trkpt lat="42.863461377031435" lon="13.474431333441686"><ele>298.0</ele><time>2026-05-02T08:23:36Z</time></trkpt><trkpt lat="42.86361884729022" lon="13.474342434837427"><ele>298.0</ele><time>2026-05-02T08:23:37Z</time></trkpt><trkpt lat="42.8637629773073" lon="13.474249766566093"><ele>298.0</ele><time>2026-05-02T08:23:38Z</time></trkpt><trkpt lat="42.86389235534481" lon="13.474176564653416"><ele>298.0</ele><time>2026-05-02T08:23:39Z</time></trkpt><trkpt lat="42.86400477375966" lon="13.474098039060271"><ele>298.0</ele><time>2026-05-02T08:23:40Z</time></trkpt><trkpt lat="42.86409205347165" lon="13.47399163774463"><ele>298.0</ele><time>2026-05-02T08:23:41Z</time></trkpt><trkpt lat="42.86417142093768" lon="13.473831743521565"><ele>298.0</ele><time>2026-05-02T08:23:42Z</time></trkpt><trkpt lat="42.86424295884074" lon="13.473623558042549"><ele>298.0</ele><time>2026-05-02T08:23:43Z</time></trkpt><trkpt lat="42.86430504870033" lon="13.473391266014454"><ele>297.3333333333333</ele><time>2026-05-02T08:23:44Z</time></trkpt><trkpt lat="42.86438686294504" lon="13.473155264581743"><ele>296.6666666666667</ele><time>2026-05-02T08:23:45Z</time></trkpt><trkpt lat="42.864442430779214" lon="13.47290033061757"><ele>296.0</ele><time>2026-05-02T08:23:46Z</time></trkpt><trkpt lat="42.86451977792704" lon="13.47265466155485"><ele>296.0</ele><time>2026-05-02T08:23:47Z</time></trkpt><trkpt lat="42.86458806454082" lon="13.472412231973124"><ele>296.0</ele><time>2026-05-02T08:23:48Z</time></trkpt><trkpt lat="42.864642397370616" lon="13.47215952901367"><ele>296.0</ele><time>2026-05-02T08:23:49Z</time></trkpt><trkpt lat="42.864705155060385" lon="13.471905921167796"><ele>296.6666666666667</ele><time>2026-05-02T08:23:50Z</time></trkpt><trkpt lat="42.86472000427606" lon="13.471649711023147"><ele>297.3333333333333</ele><time>2026-05-02T08:23:51Z</time></trkpt><trkpt lat="42.86471739953711" lon="13.471417535717762"><ele>298.0</ele><time>2026-05-02T08:23:52Z</time></trkpt><trkpt lat="42.86470957524205" lon="13.471190881340743"><ele>299.0</ele><time>2026-05-02T08:23:53Z</time></trkpt><trkpt lat="42.86471251837931" lon="13.470996361324618"><ele>300.0</ele><time>2026-05-02T08:23:54Z</time></trkpt><trkpt lat="42.86473809150342" lon="13.470828664192519"><ele>301.0</ele><time>2026-05-02T08:23:55Z</time></trkpt><trkpt lat="42.86480584386946" lon="13.470687052278379"><ele>302.0</ele><time>2026-05-02T08:23:56Z</time></trkpt><trkpt lat="42.86489796647479" lon="13.470510289103107"><ele>297.6666666666667</ele><time>2026-05-02T08:23:57Z</time></trkpt><trkpt lat="42.86498677177391" lon="13.470325346266058"><ele>293.3333333333333</ele><time>2026-05-02T08:23:58Z</time></trkpt><trkpt lat="42.86509114778776" lon="13.470104748942699"><ele>289.0</ele><time>2026-05-02T08:23:59Z</time></trkpt><trkpt lat="42.865202715954446" lon="13.469871104470707"><ele>289.0</ele><time>2026-05-02T08:24:00Z</time></trkpt><trkpt lat="42.865324067730285" lon="13.469632190422839"><ele>289.0</ele><time>2026-05-02T08:24:01Z</time></trkpt><trkpt lat="42.865456452648125" lon="13.469368747055636"><ele>289.0</ele><time>2026-05-02T08:24:02Z</time></trkpt><trkpt lat="42.86559518074761" lon="13.469089445369017"><ele>298.5</ele><time>2026-05-02T08:24:03Z</time></trkpt><trkpt lat="42.86572337463039" lon="13.468798745665694"><ele>308.0</ele><time>2026-05-02T08:24:04Z</time></trkpt><trkpt lat="42.8658578313816" lon="13.468537776201565"><ele>304.5</ele><time>2026-05-02T08:24:05Z</time></trkpt><trkpt lat="42.86599505901795" lon="13.468275649234293"><ele>301.0</ele><time>2026-05-02T08:24:06Z</time></trkpt><trkpt lat="42.8661375732952" lon="13.468013767568552"><ele>304.0</ele><time>2026-05-02T08:24:07Z</time></trkpt><trkpt lat="42.86631040759598" lon="13.467783853501773"><ele>307.0</ele><time>2026-05-02T08:24:08Z</time></trkpt><trkpt lat="42.86648133355169" lon="13.467538944483286"><ele>307.0</ele><time>2026-05-02T08:24:09Z</time></trkpt><trkpt lat="42.86666449062156" lon="13.467294348472905"><ele>307.0</ele><time>2026-05-02T08:24:10Z</time></trkpt><trkpt lat="42.866861182058244" lon="13.467050470006278"><ele>306.0</ele><time>2026-05-02T08:24:11Z</time></trkpt><trkpt lat="42.867051790622234" lon="13.466807477981845"><ele>305.0</ele><time>2026-05-02T08:24:12Z</time></trkpt><trkpt lat="42.867246826027326" lon="13.466560368261222"><ele>305.0</ele><time>2026-05-02T08:24:13Z</time></trkpt><trkpt lat="42.86744246221237" lon="13.466311240106911"><ele>305.0</ele><time>2026-05-02T08:24:14Z</time></trkpt><trkpt lat="42.86763754028118" lon="13.466062637129864"><ele>305.0</ele><time>2026-05-02T08:24:15Z</time></trkpt><trkpt lat="42.867834861826495" lon="13.465809185470153"><ele>305.0</ele><time>2026-05-02T08:24:16Z</time></trkpt><trkpt lat="42.868025433038234" lon="13.465560002443924"><ele>309.5</ele><time>2026-05-02T08:24:17Z</time></trkpt><trkpt lat="42.86821364251091" lon="13.4653247887447"><ele>314.0</ele><time>2026-05-02T08:24:18Z</time></trkpt><trkpt lat="42.868400252399944" lon="13.46508233705185"><ele>310.0</ele><time>2026-05-02T08:24:19Z</time></trkpt><trkpt lat="42.86859153122971" lon="13.464836587439095"><ele>306.0</ele><time>2026-05-02T08:24:20Z</time></trkpt><trkpt lat="42.86878079161576" lon="13.464606489771013"><ele>306.0</ele><time>2026-05-02T08:24:21Z</time></trkpt><trkpt lat="42.86895181841921" lon="13.464389243514184"><ele>306.0</ele><time>2026-05-02T08:24:22Z</time></trkpt><trkpt lat="42.86910857889695" lon="13.464186732729116"><ele>306.0</ele><time>2026-05-02T08:24:23Z</time></trkpt><trkpt lat="42.86925235246133" lon="13.463984223466525"><ele>306.0</ele><time>2026-05-02T08:24:24Z</time></trkpt><trkpt lat="42.86938080212174" lon="13.463764120583049"><ele>306.0</ele><time>2026-05-02T08:24:25Z</time></trkpt><trkpt lat="42.86948870263642" lon="13.463513803916111"><ele>305.0</ele><time>2026-05-02T08:24:26Z</time></trkpt><trkpt lat="42.86957880044145" lon="13.46322813260051"><ele>304.0</ele><time>2026-05-02T08:24:27Z</time></trkpt><trkpt lat="42.86966322722922" lon="13.46291958350876"><ele>307.0</ele><time>2026-05-02T08:24:27.999Z</time></trkpt><trkpt lat="42.8697538707423" lon="13.462594839306895"><ele>310.0</ele><time>2026-05-02T08:24:28.999Z</time></trkpt><trkpt lat="42.8698522663428" lon="13.462263613212285"><ele>313.5</ele><time>2026-05-02T08:24:29.999Z</time></trkpt><trkpt lat="42.86995851628471" lon="13.461924381491363"><ele>317.0</ele><time>2026-05-02T08:24:30.999Z</time></trkpt><trkpt lat="42.87006440037119" lon="13.461587742951059"><ele>312.5</ele><time>2026-05-02T08:24:31.999Z</time></trkpt><trkpt lat="42.8701709817975" lon="13.461228843790828"><ele>308.0</ele><time>2026-05-02T08:24:32.999Z</time></trkpt><trkpt lat="42.87027277635093" lon="13.460880282714331"><ele>308.0</ele><time>2026-05-02T08:24:33.999Z</time></trkpt><trkpt lat="42.87037982773361" lon="13.46053476339808"><ele>308.0</ele><time>2026-05-02T08:24:34.999Z</time></trkpt><trkpt lat="42.87048495911675" lon="13.460206291128067"><ele>311.0</ele><time>2026-05-02T08:24:35.999Z</time></trkpt><trkpt lat="42.870575473956336" lon="13.459904128892484"><ele>314.0</ele><time>2026-05-02T08:24:36.999Z</time></trkpt><trkpt lat="42.870665081624594" lon="13.459632493306234"><ele>314.6666666666667</ele><time>2026-05-02T08:24:37.999Z</time></trkpt><trkpt lat="42.87074328367098" lon="13.45935864754606"><ele>315.3333333333333</ele><time>2026-05-02T08:24:38.999Z</time></trkpt><trkpt lat="42.87080232283029" lon="13.459104435712954"><ele>316.0</ele><time>2026-05-02T08:24:39.999Z</time></trkpt><trkpt lat="42.87084318044515" lon="13.458867627267056"><ele>318.0</ele><time>2026-05-02T08:24:40.999Z</time></trkpt><trkpt lat="42.870852272051245" lon="13.458603560363024"><ele>320.0</ele><time>2026-05-02T08:24:41.999Z</time></trkpt><trkpt lat="42.870843215195855" lon="13.458310293047354"><ele>322.0</ele><time>2026-05-02T08:24:42.999Z</time></trkpt><trkpt lat="42.87081637878549" lon="13.457984764075904"><ele>323.0</ele><time>2026-05-02T08:24:43.999Z</time></trkpt><trkpt lat="42.87080482896373" lon="13.457668248923047"><ele>324.0</ele><time>2026-05-02T08:24:44.999Z</time></trkpt><trkpt lat="42.87080573224464" lon="13.457341284605853"><ele>324.5</ele><time>2026-05-02T08:24:45.999Z</time></trkpt><trkpt lat="42.87080753962753" lon="13.45702563838121"><ele>325.0</ele><time>2026-05-02T08:24:46.999Z</time></trkpt><trkpt lat="42.87082448156342" lon="13.456704374040157"><ele>325.0</ele><time>2026-05-02T08:24:47.999Z</time></trkpt><trkpt lat="42.87085054303738" lon="13.45642302169864"><ele>325.0</ele><time>2026-05-02T08:24:48.999Z</time></trkpt><trkpt lat="42.87089085733871" lon="13.456136145278398"><ele>325.0</ele><time>2026-05-02T08:24:49.999Z</time></trkpt><trkpt lat="42.8709269155571" lon="13.45584816750556"><ele>324.3333333333333</ele><time>2026-05-02T08:24:50.999Z</time></trkpt><trkpt lat="42.870959901015866" lon="13.455579409819954"><ele>323.6666666666667</ele><time>2026-05-02T08:24:51.999Z</time></trkpt><trkpt lat="42.8709897303454" lon="13.455354830099013"><ele>323.0</ele><time>2026-05-02T08:24:52.999Z</time></trkpt><trkpt lat="42.87100770880828" lon="13.455160932652005"><ele>323.0</ele><time>2026-05-02T08:24:53.999Z</time></trkpt><trkpt lat="42.871012549997154" lon="13.454981010119301"><ele>323.0</ele><time>2026-05-02T08:24:54.999Z</time></trkpt><trkpt lat="42.870986813036794" lon="13.45480014003045"><ele>323.0</ele><time>2026-05-02T08:24:55.999Z</time></trkpt><trkpt lat="42.87092117447997" lon="13.454644696149039"><ele>323.0</ele><time>2026-05-02T08:24:56.999Z</time></trkpt><trkpt lat="42.87083100927075" lon="13.454506373512336"><ele>324.6666666666667</ele><time>2026-05-02T08:24:57.999Z</time></trkpt><trkpt lat="42.87068699742216" lon="13.454374325389768"><ele>326.3333333333333</ele><time>2026-05-02T08:24:58.999Z</time></trkpt><trkpt lat="42.87055248295318" lon="13.454252927093505"><ele>328.0</ele><time>2026-05-02T08:24:59.999Z</time></trkpt><trkpt lat="42.87043429337408" lon="13.454150813822562"><ele>328.0</ele><time>2026-05-02T08:25:00.999Z</time></trkpt><trkpt lat="42.87035836988457" lon="13.454058493465013"><ele>328.0</ele><time>2026-05-02T08:25:01.999Z</time></trkpt><trkpt lat="42.87030621665855" lon="13.453948694409334"><ele>328.0</ele><time>2026-05-02T08:25:02.999Z</time></trkpt><trkpt lat="42.87029057673503" lon="13.453809113935947"><ele>328.0</ele><time>2026-05-02T08:25:03.999Z</time></trkpt><trkpt lat="42.87032644229396" lon="13.453676955735844"><ele>328.0</ele><time>2026-05-02T08:25:04.999Z</time></trkpt><trkpt lat="42.87040981527844" lon="13.45355819974016"><ele>327.0</ele><time>2026-05-02T08:25:05.999Z</time></trkpt><trkpt lat="42.87052515702324" lon="13.453445857241382"><ele>326.0</ele><time>2026-05-02T08:25:06.999Z</time></trkpt><trkpt lat="42.870669959224365" lon="13.453330504608223"><ele>325.0</ele><time>2026-05-02T08:25:07.999Z</time></trkpt><trkpt lat="42.87082682197779" lon="13.45319343022295"><ele>331.0</ele><time>2026-05-02T08:25:08.999Z</time></trkpt><trkpt lat="42.870956162140274" lon="13.453045077280786"><ele>337.0</ele><time>2026-05-02T08:25:09.999Z</time></trkpt><trkpt lat="42.87106871273398" lon="13.452930510638211"><ele>343.0</ele><time>2026-05-02T08:25:10.999Z</time></trkpt><trkpt lat="42.871171160536704" lon="13.452826803184449"><ele>349.0</ele><time>2026-05-02T08:25:11.999Z</time></trkpt><trkpt lat="42.871236562662176" lon="13.452739543338042"><ele>352.0</ele><time>2026-05-02T08:25:12.999Z</time></trkpt><trkpt lat="42.8712289779664" lon="13.452530403810927"><ele>355.0</ele><time>2026-05-02T08:25:14.999Z</time></trkpt><trkpt lat="42.871171093619985" lon="13.452395142767035"><ele>358.0</ele><time>2026-05-02T08:25:15.999Z</time></trkpt><trkpt lat="42.87104896705628" lon="13.452306162291743"><ele>361.0</ele><time>2026-05-02T08:25:16.999Z</time></trkpt><trkpt lat="42.870906092463244" lon="13.452271853933553"><ele>355.0</ele><time>2026-05-02T08:25:17.999Z</time></trkpt><trkpt lat="42.87078562062888" lon="13.452274327164558"><ele>349.0</ele><time>2026-05-02T08:25:18.999Z</time></trkpt><trkpt lat="42.87067729500739" lon="13.452316490835361"><ele>343.0</ele><time>2026-05-02T08:25:19.999Z</time></trkpt><trkpt lat="42.87061116659052" lon="13.452326544262865"><ele>337.0</ele><time>2026-05-02T08:25:20.999Z</time></trkpt><trkpt lat="42.87053439722327" lon="13.452306062992134"><ele>331.0</ele><time>2026-05-02T08:25:21.999Z</time></trkpt><trkpt lat="42.87044553797944" lon="13.45219946285041"><ele>335.0</ele><time>2026-05-02T08:25:22.999Z</time></trkpt><trkpt lat="42.87038043595752" lon="13.452053351776069"><ele>339.0</ele><time>2026-05-02T08:25:23.999Z</time></trkpt><trkpt lat="42.87034122499845" lon="13.451866066832261"><ele>343.0</ele><time>2026-05-02T08:25:24.999Z</time></trkpt><trkpt lat="42.87028769223627" lon="13.451659498969473"><ele>347.0</ele><time>2026-05-02T08:25:25.999Z</time></trkpt><trkpt lat="42.87019641146881" lon="13.451463467170624"><ele>344.6666666666667</ele><time>2026-05-02T08:25:26.999Z</time></trkpt><trkpt lat="42.87010438755513" lon="13.451249315763063"><ele>342.3333333333333</ele><time>2026-05-02T08:25:27.999Z</time></trkpt><trkpt lat="42.87000846443536" lon="13.451045269680863"><ele>340.0</ele><time>2026-05-02T08:25:28.999Z</time></trkpt><trkpt lat="42.86998825033898" lon="13.450715444092046"><ele>343.3333333333333</ele><time>2026-05-02T08:25:29.999Z</time></trkpt><trkpt lat="42.86990831171185" lon="13.450431564367118"><ele>346.6666666666667</ele><time>2026-05-02T08:25:30.999Z</time></trkpt><trkpt lat="42.86980872902805" lon="13.450169502949818"><ele>350.0</ele><time>2026-05-02T08:25:31.999Z</time></trkpt><trkpt lat="42.869657876658955" lon="13.449917650887766"><ele>350.0</ele><time>2026-05-02T08:25:32.999Z</time></trkpt><trkpt lat="42.86949329059272" lon="13.449670553109716"><ele>350.0</ele><time>2026-05-02T08:25:33.999Z</time></trkpt><trkpt lat="42.869347282757275" lon="13.449397527505173"><ele>351.5</ele><time>2026-05-02T08:25:35Z</time></trkpt><trkpt lat="42.86919131295659" lon="13.449118189588328"><ele>353.0</ele><time>2026-05-02T08:25:36Z</time></trkpt><trkpt lat="42.869044641854025" lon="13.448840355495578"><ele>355.33333333333337</ele><time>2026-05-02T08:25:37Z</time></trkpt><trkpt lat="42.86890743498289" lon="13.448588187580029"><ele>357.6666666666667</ele><time>2026-05-02T08:25:38Z</time></trkpt><trkpt lat="42.868784370483574" lon="13.448377104697139"><ele>360.0</ele><time>2026-05-02T08:25:39Z</time></trkpt><trkpt lat="42.86867640584139" lon="13.44818610891564"><ele>360.0</ele><time>2026-05-02T08:25:40Z</time></trkpt><trkpt lat="42.868597498865356" lon="13.447966514564182"><ele>360.0</ele><time>2026-05-02T08:25:41Z</time></trkpt><trkpt lat="42.86853721432499" lon="13.447772306942344"><ele>360.0</ele><time>2026-05-02T08:25:42Z</time></trkpt><trkpt lat="42.86849657583431" lon="13.447558308002973"><ele>363.0</ele><time>2026-05-02T08:25:43Z</time></trkpt><trkpt lat="42.86846968262071" lon="13.447295661077836"><ele>366.0</ele><time>2026-05-02T08:25:44Z</time></trkpt><trkpt lat="42.8684589521945" lon="13.447036282507492"><ele>369.0</ele><time>2026-05-02T08:25:45Z</time></trkpt><trkpt lat="42.8684838582455" lon="13.446795389431552"><ele>369.0</ele><time>2026-05-02T08:25:46Z</time></trkpt><trkpt lat="42.86853418853567" lon="13.446630265227732"><ele>369.0</ele><time>2026-05-02T08:25:47Z</time></trkpt><trkpt lat="42.86860817480539" lon="13.446473811462193"><ele>369.0</ele><time>2026-05-02T08:25:48Z</time></trkpt><trkpt lat="42.86872384353124" lon="13.446344916690425"><ele>369.0</ele><time>2026-05-02T08:25:49Z</time></trkpt><trkpt lat="42.86886311576939" lon="13.446249006572573"><ele>369.0</ele><time>2026-05-02T08:25:50Z</time></trkpt><trkpt lat="42.869009469609665" lon="13.44618646569849"><ele>369.0</ele><time>2026-05-02T08:25:51Z</time></trkpt><trkpt lat="42.86916355485586" lon="13.446119539473427"><ele>369.0</ele><time>2026-05-02T08:25:52Z</time></trkpt><trkpt lat="42.86928653023254" lon="13.446024688734218"><ele>372.75</ele><time>2026-05-02T08:25:53Z</time></trkpt><trkpt lat="42.869392871027046" lon="13.445923582949982"><ele>376.5</ele><time>2026-05-02T08:25:54Z</time></trkpt><trkpt lat="42.86947530724252" lon="13.445752033182096"><ele>380.25</ele><time>2026-05-02T08:25:55Z</time></trkpt><trkpt lat="42.86954432011143" lon="13.445560633862128"><ele>384.0</ele><time>2026-05-02T08:25:56Z</time></trkpt><trkpt lat="42.869596233082284" lon="13.44535362431756"><ele>384.33333333333337</ele><time>2026-05-02T08:25:57Z</time></trkpt><trkpt lat="42.869645477504" lon="13.445133477397698"><ele>384.6666666666667</ele><time>2026-05-02T08:25:58Z</time></trkpt><trkpt lat="42.869718927602854" lon="13.444916067797466"><ele>385.0</ele><time>2026-05-02T08:25:59Z</time></trkpt><trkpt lat="42.869838149196255" lon="13.444733977754113"><ele>383.0</ele><time>2026-05-02T08:26:00Z</time></trkpt><trkpt lat="42.86995097449161" lon="13.444539127398864"><ele>381.0</ele><time>2026-05-02T08:26:01Z</time></trkpt><trkpt lat="42.870090988590896" lon="13.444372635630966"><ele>379.0</ele><time>2026-05-02T08:26:02Z</time></trkpt><trkpt lat="42.8702615798065" lon="13.444262387820535"><ele>388.0</ele><time>2026-05-02T08:26:03Z</time></trkpt><trkpt lat="42.8704129515064" lon="13.444162208958824"><ele>397.0</ele><time>2026-05-02T08:26:04Z</time></trkpt><trkpt lat="42.87057212287495" lon="13.444118741742814"><ele>406.0</ele><time>2026-05-02T08:26:05Z</time></trkpt><trkpt lat="42.870735352852684" lon="13.444082357015791"><ele>406.0</ele><time>2026-05-02T08:26:06Z</time></trkpt><trkpt lat="42.87090345509768" lon="13.444065563994133"><ele>406.0</ele><time>2026-05-02T08:26:07Z</time></trkpt><trkpt lat="42.87106300129314" lon="13.444070254307809"><ele>406.0</ele><time>2026-05-02T08:26:08Z</time></trkpt><trkpt lat="42.87122090329796" lon="13.444087556168242"><ele>411.0</ele><time>2026-05-02T08:26:09Z</time></trkpt><trkpt lat="42.8713861665974" lon="13.444109839629084"><ele>416.0</ele><time>2026-05-02T08:26:10Z</time></trkpt><trkpt lat="42.8715571295239" lon="13.444134509366439"><ele>421.0</ele><time>2026-05-02T08:26:11Z</time></trkpt><trkpt lat="42.87173951882908" lon="13.444159584128908"><ele>426.5</ele><time>2026-05-02T08:26:12.065Z</time></trkpt><trkpt lat="42.87190691807266" lon="13.44418259802244"><ele>432.0</ele><time>2026-05-02T08:26:13.067Z</time></trkpt><trkpt lat="42.873598107555765" lon="13.44384475221253"><ele>438.0</ele><time>2026-05-02T08:26:16.886Z</time></trkpt><trkpt lat="42.87400631447401" lon="13.443583445164457"><ele>430.5</ele><time>2026-05-02T08:26:17.889Z</time></trkpt><trkpt lat="42.87438661442686" lon="13.443257009279067"><ele>423.0</ele><time>2026-05-02T08:26:18.889Z</time></trkpt><trkpt lat="42.87473264437766" lon="13.442867999347996"><ele>423.0</ele><time>2026-05-02T08:26:19.888Z</time></trkpt><trkpt lat="42.875050530838834" lon="13.44243663443442"><ele>423.0</ele><time>2026-05-02T08:26:20.886Z</time></trkpt><trkpt lat="42.87536702897907" lon="13.441810532981206"><ele>412.0</ele><time>2026-05-02T08:26:35Z</time></trkpt><trkpt lat="42.87551563563752" lon="13.441799685958973"><ele>412.0</ele><time>2026-05-02T08:26:36Z</time></trkpt><trkpt lat="42.87561050928556" lon="13.441559674744132"><ele>412.0</ele><time>2026-05-02T08:26:37Z</time></trkpt></trkseg><trkseg><trkpt lat="42.89216910021727" lon="13.428353227521406"><ele>507.0</ele><time>2026-05-02T08:35:37.999Z</time></trkpt><trkpt lat="42.89227724779807" lon="13.42826767135928"><ele>507.00000000000006</ele><time>2026-05-02T08:35:39.999Z</time></trkpt><trkpt lat="42.892349059997514" lon="13.428216213273995"><ele>507.00000000000006</ele><time>2026-05-02T08:35:40.999Z</time></trkpt><trkpt lat="42.892437657632705" lon="13.428165956417859"><ele>507.0</ele><time>2026-05-02T08:35:41.999Z</time></trkpt><trkpt lat="42.892534863692674" lon="13.428109221380954"><ele>507.0</ele><time>2026-05-02T08:35:42.999Z</time></trkpt><trkpt lat="42.89262639961992" lon="13.428051034453782"><ele>508.0</ele><time>2026-05-02T08:35:43.999Z</time></trkpt><trkpt lat="42.89273004030338" lon="13.427985559773518"><ele>509.0</ele><time>2026-05-02T08:35:44.999Z</time></trkpt><trkpt lat="42.89284330853278" lon="13.427913294098444"><ele>510.0</ele><time>2026-05-02T08:35:45.999Z</time></trkpt><trkpt lat="42.89296638291104" lon="13.427835908475341"><ele>511.0</ele><time>2026-05-02T08:35:46.999Z</time></trkpt><trkpt lat="42.89310246402051" lon="13.427749664938993"><ele>511.0</ele><time>2026-05-02T08:35:47.999Z</time></trkpt><trkpt lat="42.893251583281526" lon="13.427654745506167"><ele>511.0</ele><time>2026-05-02T08:35:48.999Z</time></trkpt><trkpt lat="42.89341245390829" lon="13.427549015489065"><ele>511.0</ele><time>2026-05-02T08:35:49.999Z</time></trkpt><trkpt lat="42.893572308352475" lon="13.427455339900618"><ele>514.6666666666667</ele><time>2026-05-02T08:35:50.999Z</time></trkpt><trkpt lat="42.89372476880581" lon="13.427358036272777"><ele>518.3333333333334</ele><time>2026-05-02T08:35:51.999Z</time></trkpt><trkpt lat="42.89387853003928" lon="13.427265140883312"><ele>522.0</ele><time>2026-05-02T08:35:52.999Z</time></trkpt><trkpt lat="42.8940359942265" lon="13.427159190933889"><ele>522.3333333333334</ele><time>2026-05-02T08:35:53.999Z</time></trkpt><trkpt lat="42.89419408165919" lon="13.427057194671933"><ele>522.6666666666667</ele><time>2026-05-02T08:35:54.999Z</time></trkpt><trkpt lat="42.894350525353396" lon="13.42695321969377"><ele>523.0</ele><time>2026-05-02T08:35:55.999Z</time></trkpt><trkpt lat="42.89450967931329" lon="13.426849378133639"><ele>523.0</ele><time>2026-05-02T08:35:56.999Z</time></trkpt><trkpt lat="42.894674148723084" lon="13.426744325168064"><ele>523.0</ele><time>2026-05-02T08:35:57.999Z</time></trkpt><trkpt lat="42.8948357292695" lon="13.426640428381917"><ele>523.0</ele><time>2026-05-02T08:35:58.999Z</time></trkpt><trkpt lat="42.89499990354287" lon="13.426528142651975"><ele>524.0</ele><time>2026-05-02T08:35:59.999Z</time></trkpt><trkpt lat="42.89517085855265" lon="13.426420428056787"><ele>525.0</ele><time>2026-05-02T08:36:00.999Z</time></trkpt><trkpt lat="42.89534118475205" lon="13.4263114830871"><ele>526.0</ele><time>2026-05-02T08:36:01.999Z</time></trkpt><trkpt lat="42.8955134973065" lon="13.426202518606594"><ele>526.0</ele><time>2026-05-02T08:36:02.999Z</time></trkpt><trkpt lat="42.895660639804994" lon="13.426111682804084"><ele>526.0</ele><time>2026-05-02T08:36:04Z</time></trkpt><trkpt lat="42.89578659457659" lon="13.426032862019683"><ele>526.0</ele><time>2026-05-02T08:36:05Z</time></trkpt><trkpt lat="42.89589825468229" lon="13.42596525838662"><ele>526.0</ele><time>2026-05-02T08:36:06Z</time></trkpt><trkpt lat="42.89599065842121" lon="13.425894059324785"><ele>527.4</ele><time>2026-05-02T08:36:07Z</time></trkpt><trkpt lat="42.89607051425604" lon="13.425838304798004"><ele>528.8</ele><time>2026-05-02T08:36:08Z</time></trkpt><trkpt lat="42.89613536599311" lon="13.425791909828074"><ele>530.1999999999999</ele><time>2026-05-02T08:36:09Z</time></trkpt><trkpt lat="42.89624266634431" lon="13.425708328376393"><ele>531.6</ele><time>2026-05-02T08:36:11Z</time></trkpt><trkpt lat="42.89630872977541" lon="13.4256578437461"><ele>533.0</ele><time>2026-05-02T08:36:11.999Z</time></trkpt><trkpt lat="42.896403241394694" lon="13.425588625839413"><ele>533.0</ele><time>2026-05-02T08:36:13.999Z</time></trkpt><trkpt lat="42.89647847339684" lon="13.425559319967403"><ele>533.0</ele><time>2026-05-02T08:36:29Z</time></trkpt><trkpt lat="42.89657952854951" lon="13.42550579603041"><ele>533.0</ele><time>2026-05-02T08:36:31Z</time></trkpt><trkpt lat="42.89666797535175" lon="13.425457497655367"><ele>533.0</ele><time>2026-05-02T08:36:32Z</time></trkpt><trkpt lat="42.89677470572066" lon="13.425402300213019"><ele>533.0</ele><time>2026-05-02T08:36:33Z</time></trkpt><trkpt lat="42.896881357554925" lon="13.425339470384559"><ele>536.0</ele><time>2026-05-02T08:36:34Z</time></trkpt><trkpt lat="42.89701630462876" lon="13.42526458291504"><ele>539.0</ele><time>2026-05-02T08:36:35Z</time></trkpt><trkpt lat="42.897165203096314" lon="13.425184438898306"><ele>542.0</ele><time>2026-05-02T08:36:36Z</time></trkpt><trkpt lat="42.89731600618613" lon="13.42510594570624"><ele>542.0</ele><time>2026-05-02T08:36:37Z</time></trkpt><trkpt lat="42.89746135551765" lon="13.425031339360846"><ele>542.0</ele><time>2026-05-02T08:36:38Z</time></trkpt><trkpt lat="42.897603215864144" lon="13.42496276820719"><ele>542.0</ele><time>2026-05-02T08:36:39Z</time></trkpt><trkpt lat="42.89774665868954" lon="13.424889704909935"><ele>545.0</ele><time>2026-05-02T08:36:40Z</time></trkpt><trkpt lat="42.89789961195878" lon="13.424812653716579"><ele>548.0</ele><time>2026-05-02T08:36:41Z</time></trkpt><trkpt lat="42.89806779951488" lon="13.424730934975749"><ele>551.0</ele><time>2026-05-02T08:36:42Z</time></trkpt><trkpt lat="42.89825619410171" lon="13.424645713416146"><ele>552.0</ele><time>2026-05-02T08:36:43Z</time></trkpt><trkpt lat="42.89846325425633" lon="13.424559500218457"><ele>553.0</ele><time>2026-05-02T08:36:44Z</time></trkpt><trkpt lat="42.89868287670466" lon="13.42446181897444"><ele>554.0</ele><time>2026-05-02T08:36:45Z</time></trkpt><trkpt lat="42.89889538365281" lon="13.424385007692258"><ele>554.0</ele><time>2026-05-02T08:36:46Z</time></trkpt><trkpt lat="42.89910171074441" lon="13.424313423829892"><ele>554.0</ele><time>2026-05-02T08:36:47Z</time></trkpt><trkpt lat="42.89931268304208" lon="13.424240012314355"><ele>554.0</ele><time>2026-05-02T08:36:48Z</time></trkpt><trkpt lat="42.899528876359746" lon="13.424171228453963"><ele>555.5</ele><time>2026-05-02T08:36:49Z</time></trkpt><trkpt lat="42.89975357911609" lon="13.424103914874575"><ele>557.0</ele><time>2026-05-02T08:36:50Z</time></trkpt><trkpt lat="42.89999094235853" lon="13.424037615895308"><ele>561.0</ele><time>2026-05-02T08:36:51Z</time></trkpt><trkpt lat="42.90023743977725" lon="13.423969515591985"><ele>565.0</ele><time>2026-05-02T08:36:52Z</time></trkpt><trkpt lat="42.90048813939816" lon="13.42390439629395"><ele>565.0</ele><time>2026-05-02T08:36:53Z</time></trkpt><trkpt lat="42.90074157637172" lon="13.423850704484567"><ele>565.0</ele><time>2026-05-02T08:36:54Z</time></trkpt><trkpt lat="42.90098639057718" lon="13.423801377792534"><ele>574.0</ele><time>2026-05-02T08:36:55Z</time></trkpt><trkpt lat="42.901204801264925" lon="13.42374752331773"><ele>583.0</ele><time>2026-05-02T08:36:56Z</time></trkpt><trkpt lat="42.90143096559156" lon="13.423690947349188"><ele>583.0</ele><time>2026-05-02T08:36:57Z</time></trkpt><trkpt lat="42.90170077742389" lon="13.423629224538951"><ele>583.0</ele><time>2026-05-02T08:36:58Z</time></trkpt><trkpt lat="42.90194218457763" lon="13.423567198801516"><ele>598.5</ele><time>2026-05-02T08:36:59Z</time></trkpt><trkpt lat="42.902186340593815" lon="13.423500296202054"><ele>614.0</ele><time>2026-05-02T08:37:00Z</time></trkpt><trkpt lat="42.90241823754212" lon="13.423432927407884"><ele>627.0</ele><time>2026-05-02T08:37:01Z</time></trkpt><trkpt lat="42.90265343794903" lon="13.423362233501603"><ele>640.0</ele><time>2026-05-02T08:37:02Z</time></trkpt><trkpt lat="42.90287767090451" lon="13.42329344837917"><ele>640.0</ele><time>2026-05-02T08:37:03Z</time></trkpt><trkpt lat="42.90312752220101" lon="13.423214922632521"><ele>640.0</ele><time>2026-05-02T08:37:04.066Z</time></trkpt><trkpt lat="42.90336658248313" lon="13.423135036371077"><ele>646.5</ele><time>2026-05-02T08:37:05.058Z</time></trkpt><trkpt lat="42.90360525186045" lon="13.423050463871322"><ele>653.0</ele><time>2026-05-02T08:37:06.058Z</time></trkpt><trkpt lat="42.903842584493496" lon="13.422963654826413"><ele>653.0</ele><time>2026-05-02T08:37:07.052Z</time></trkpt><trkpt lat="42.90407978408607" lon="13.422875327901163"><ele>653.0</ele><time>2026-05-02T08:37:08.049Z</time></trkpt><trkpt lat="42.905730157105026" lon="13.422240024254185"><ele>684.0</ele><time>2026-05-02T08:37:11.883Z</time></trkpt><trkpt lat="42.90616429672673" lon="13.422078643909924"><ele>684.0</ele><time>2026-05-02T08:37:12.883Z</time></trkpt><trkpt lat="42.906598400791985" lon="13.421917276782867"><ele>696.0</ele><time>2026-05-02T08:37:13.883Z</time></trkpt><trkpt lat="42.90703192693887" lon="13.42175640905507"><ele>708.0</ele><time>2026-05-02T08:37:14.881Z</time></trkpt><trkpt lat="42.90746554617292" lon="13.421596078315345"><ele>716.0</ele><time>2026-05-02T08:37:15.88Z</time></trkpt><trkpt lat="42.9079000808686" lon="13.421433949582758"><ele>716.0</ele><time>2026-05-02T08:37:16.881Z</time></trkpt><trkpt lat="42.9081601" lon="13.4213362"><ele>716.0</ele><time>2026-05-02T08:37:17.883Z</time></trkpt><trkpt lat="42.91548384420895" lon="13.418343909029238"><ele>686.0</ele><time>2026-05-02T08:37:50.999Z</time></trkpt><trkpt lat="42.91564918365216" lon="13.418222023562077"><ele>656.0</ele><time>2026-05-02T08:37:51.999Z</time></trkpt><trkpt lat="42.915858747241174" lon="13.418163543296414"><ele>626.0</ele><time>2026-05-02T08:37:52.998Z</time></trkpt><trkpt lat="42.91597205552159" lon="13.418082602897456"><ele>623.4</ele><time>2026-05-02T08:37:53.998Z</time></trkpt><trkpt lat="42.91606698596475" lon="13.417980465736072"><ele>620.8</ele><time>2026-05-02T08:37:54.998Z</time></trkpt><trkpt lat="42.916132753738" lon="13.41786164203915"><ele>618.1999999999999</ele><time>2026-05-02T08:37:55.998Z</time></trkpt><trkpt lat="42.9161802985192" lon="13.417742039492259"><ele>615.6</ele><time>2026-05-02T08:37:56.998Z</time></trkpt><trkpt lat="42.91622757648529" lon="13.417614893591807"><ele>613.0</ele><time>2026-05-02T08:37:57.998Z</time></trkpt><trkpt lat="42.91632575815873" lon="13.417706782040558"><ele>613.0</ele><time>2026-05-02T08:38:50.999Z</time></trkpt><trkpt lat="42.916379103957304" lon="13.417762007566987"><ele>613.0</ele><time>2026-05-02T08:38:51.999Z</time></trkpt><trkpt lat="42.91642256727346" lon="13.417859772471687"><ele>613.0</ele><time>2026-05-02T08:38:52.999Z</time></trkpt><trkpt lat="42.91642965539673" lon="13.417977576903775"><ele>613.0</ele><time>2026-05-02T08:38:53.999Z</time></trkpt><trkpt lat="42.916411028066506" lon="13.41809552260471"><ele>613.0</ele><time>2026-05-02T08:38:54.999Z</time></trkpt><trkpt lat="42.91636542009243" lon="13.418216040375121"><ele>613.0</ele><time>2026-05-02T08:38:55.999Z</time></trkpt><trkpt lat="42.91631327164549" lon="13.418325122146081"><ele>610.0</ele><time>2026-05-02T08:38:56.999Z</time></trkpt><trkpt lat="42.91624267601157" lon="13.418428951492897"><ele>607.0</ele><time>2026-05-02T08:38:57.999Z</time></trkpt><trkpt lat="42.91613562647347" lon="13.418501045683211"><ele>604.0</ele><time>2026-05-02T08:38:58.999Z</time></trkpt><trkpt lat="42.91601940065473" lon="13.418595013528078"><ele>601.0</ele><time>2026-05-02T08:38:59.999Z</time></trkpt><trkpt lat="42.9158934718592" lon="13.41866420460588"><ele>601.0</ele><time>2026-05-02T08:39:00.999Z</time></trkpt><trkpt lat="42.9157813868364" lon="13.418745273469021"><ele>601.0</ele><time>2026-05-02T08:39:01.999Z</time></trkpt><trkpt lat="42.91570127062701" lon="13.418874627594544"><ele>601.0</ele><time>2026-05-02T08:39:02.999Z</time></trkpt><trkpt lat="42.915634043583196" lon="13.419043809118033"><ele>601.0</ele><time>2026-05-02T08:39:03.999Z</time></trkpt><trkpt lat="42.91559125296771" lon="13.419209709027102"><ele>604.25</ele><time>2026-05-02T08:39:04.999Z</time></trkpt><trkpt lat="42.91557271958715" lon="13.419355974239616"><ele>607.5</ele><time>2026-05-02T08:39:05.999Z</time></trkpt><trkpt lat="42.91558784333706" lon="13.419508741474646"><ele>610.75</ele><time>2026-05-02T08:39:06.999Z</time></trkpt><trkpt lat="42.915647572295285" lon="13.419674840640292"><ele>614.0</ele><time>2026-05-02T08:39:07.999Z</time></trkpt><trkpt lat="42.91572402732311" lon="13.419844633906461"><ele>614.0</ele><time>2026-05-02T08:39:08.999Z</time></trkpt><trkpt lat="42.91580781402828" lon="13.420019196109465"><ele>614.0</ele><time>2026-05-02T08:39:09.999Z</time></trkpt><trkpt lat="42.91589915304531" lon="13.420213641589893"><ele>614.0</ele><time>2026-05-02T08:39:10.999Z</time></trkpt><trkpt lat="42.91600729600268" lon="13.420400919002205"><ele>616.3333333333333</ele><time>2026-05-02T08:39:11.999Z</time></trkpt><trkpt lat="42.916116317150404" lon="13.420572431763038"><ele>618.6666666666666</ele><time>2026-05-02T08:39:12.999Z</time></trkpt><trkpt lat="42.91623081333994" lon="13.420743384274061"><ele>621.0</ele><time>2026-05-02T08:39:13.999Z</time></trkpt><trkpt lat="42.91634208622747" lon="13.420919319917168"><ele>621.0</ele><time>2026-05-02T08:39:14.999Z</time></trkpt><trkpt lat="42.91644388663156" lon="13.42109531716344"><ele>621.0</ele><time>2026-05-02T08:39:15.999Z</time></trkpt><trkpt lat="42.91653348008459" lon="13.42124752392416"><ele>621.0</ele><time>2026-05-02T08:39:16.999Z</time></trkpt><trkpt lat="42.916612213462635" lon="13.421368249440322"><ele>621.0</ele><time>2026-05-02T08:39:17.999Z</time></trkpt><trkpt lat="42.916697508517345" lon="13.4214583792511"><ele>622.0</ele><time>2026-05-02T08:39:18.999Z</time></trkpt><trkpt lat="42.916815188519514" lon="13.421482429013537"><ele>623.0</ele><time>2026-05-02T08:39:19.999Z</time></trkpt><trkpt lat="42.91694093116019" lon="13.421445108242978"><ele>624.0</ele><time>2026-05-02T08:39:20.999Z</time></trkpt><trkpt lat="42.91706904776275" lon="13.421365826216622"><ele>625.0</ele><time>2026-05-02T08:39:21.999Z</time></trkpt><trkpt lat="42.91720535384751" lon="13.421303447836161"><ele>625.0</ele><time>2026-05-02T08:39:22.999Z</time></trkpt><trkpt lat="42.91734956538272" lon="13.421313356600898"><ele>625.0</ele><time>2026-05-02T08:39:23.999Z</time></trkpt><trkpt lat="42.91747433962949" lon="13.421395755156803"><ele>625.0</ele><time>2026-05-02T08:39:24.999Z</time></trkpt><trkpt lat="42.91755799465201" lon="13.421556460050535"><ele>625.0</ele><time>2026-05-02T08:39:25.999Z</time></trkpt><trkpt lat="42.917615269188644" lon="13.421740494216326"><ele>629.6666666666667</ele><time>2026-05-02T08:39:26.999Z</time></trkpt><trkpt lat="42.91764762321591" lon="13.421956174521974"><ele>634.3333333333334</ele><time>2026-05-02T08:39:27.999Z</time></trkpt><trkpt lat="42.9176870925127" lon="13.42219346300449"><ele>639.0</ele><time>2026-05-02T08:39:28.999Z</time></trkpt><trkpt lat="42.91769874240289" lon="13.422451976986126"><ele>639.0</ele><time>2026-05-02T08:39:29.999Z</time></trkpt><trkpt lat="42.91771431924929" lon="13.422725689364896"><ele>639.0</ele><time>2026-05-02T08:39:30.999Z</time></trkpt><trkpt lat="42.91770212677564" lon="13.423012149383489"><ele>639.0</ele><time>2026-05-02T08:39:31.999Z</time></trkpt><trkpt lat="42.91769743230009" lon="13.423274666018216"><ele>636.6666666666666</ele><time>2026-05-02T08:39:32.999Z</time></trkpt><trkpt lat="42.91769232953363" lon="13.423561722929417"><ele>634.3333333333333</ele><time>2026-05-02T08:39:33.999Z</time></trkpt><trkpt lat="42.9176859981691" lon="13.423846915942917"><ele>632.0</ele><time>2026-05-02T08:39:34.999Z</time></trkpt><trkpt lat="42.917695994897606" lon="13.424131837682587"><ele>640.0</ele><time>2026-05-02T08:39:35.999Z</time></trkpt><trkpt lat="42.91768826329871" lon="13.424385653857753"><ele>648.0</ele><time>2026-05-02T08:39:36.999Z</time></trkpt><trkpt lat="42.91768615308524" lon="13.424630312741876"><ele>656.0</ele><time>2026-05-02T08:39:37.999Z</time></trkpt><trkpt lat="42.917699096140886" lon="13.424879642528058"><ele>659.6666666666666</ele><time>2026-05-02T08:39:38.999Z</time></trkpt><trkpt lat="42.91774085412225" lon="13.425123829529525"><ele>663.3333333333334</ele><time>2026-05-02T08:39:39.999Z</time></trkpt><trkpt lat="42.9177824327093" lon="13.42537017320501"><ele>667.0</ele><time>2026-05-02T08:39:40.999Z</time></trkpt><trkpt lat="42.917821441467474" lon="13.425597997705147"><ele>667.75</ele><time>2026-05-02T08:39:41.999Z</time></trkpt><trkpt lat="42.91785621169342" lon="13.425796580619242"><ele>668.5</ele><time>2026-05-02T08:39:42.999Z</time></trkpt><trkpt lat="42.917881851333284" lon="13.425974664087116"><ele>669.25</ele><time>2026-05-02T08:39:43.999Z</time></trkpt><trkpt lat="42.91789303991417" lon="13.426120179143602"><ele>670.0</ele><time>2026-05-02T08:39:44.999Z</time></trkpt><trkpt lat="42.91787341992276" lon="13.426237754271614"><ele>670.0</ele><time>2026-05-02T08:39:45.999Z</time></trkpt><trkpt lat="42.91781516478716" lon="13.42632001405776"><ele>670.0</ele><time>2026-05-02T08:39:46.999Z</time></trkpt><trkpt lat="42.917732167351055" lon="13.426345296586817"><ele>670.0</ele><time>2026-05-02T08:39:47.999Z</time></trkpt><trkpt lat="42.917647207136305" lon="13.426303432178647"><ele>670.0</ele><time>2026-05-02T08:39:48.999Z</time></trkpt><trkpt lat="42.917585699054904" lon="13.42619754358286"><ele>670.0</ele><time>2026-05-02T08:39:49.999Z</time></trkpt><trkpt lat="42.91755553620308" lon="13.426048889669612"><ele>667.0</ele><time>2026-05-02T08:39:50.999Z</time></trkpt><trkpt lat="42.917546190316635" lon="13.42588108941463"><ele>664.0</ele><time>2026-05-02T08:39:51.999Z</time></trkpt><trkpt lat="42.91752514873907" lon="13.425699569983795"><ele>661.0</ele><time>2026-05-02T08:39:52.999Z</time></trkpt><trkpt lat="42.917463887942354" lon="13.425530275761531"><ele>658.0</ele><time>2026-05-02T08:39:53.999Z</time></trkpt><trkpt lat="42.917365412374174" lon="13.425405658074359"><ele>655.0</ele><time>2026-05-02T08:39:54.999Z</time></trkpt><trkpt lat="42.91724708651466" lon="13.425324263304276"><ele>652.0</ele><time>2026-05-02T08:39:55.999Z</time></trkpt><trkpt lat="42.91711793188498" lon="13.425246240876845"><ele>649.0</ele><time>2026-05-02T08:39:56.999Z</time></trkpt><trkpt lat="42.91700362469803" lon="13.425116897907419"><ele>646.0</ele><time>2026-05-02T08:39:57.999Z</time></trkpt><trkpt lat="42.91694287135158" lon="13.424945811471797"><ele>646.0</ele><time>2026-05-02T08:39:58.999Z</time></trkpt><trkpt lat="42.91691326747754" lon="13.424739197351249"><ele>646.0</ele><time>2026-05-02T08:39:59.999Z</time></trkpt><trkpt lat="42.9168986823793" lon="13.424510017805973"><ele>646.0</ele><time>2026-05-02T08:40:00.999Z</time></trkpt><trkpt lat="42.91689041310711" lon="13.424266428989746"><ele>643.6666666666667</ele><time>2026-05-02T08:40:01.999Z</time></trkpt><trkpt lat="42.916866149091966" lon="13.424020879843889"><ele>641.3333333333334</ele><time>2026-05-02T08:40:02.999Z</time></trkpt><trkpt lat="42.91682191028863" lon="13.423781133595252"><ele>639.0</ele><time>2026-05-02T08:40:03.999Z</time></trkpt><trkpt lat="42.91677654564929" lon="13.42358598257534"><ele>643.8</ele><time>2026-05-02T08:40:04.999Z</time></trkpt><trkpt lat="42.91673028036339" lon="13.423431181692417"><ele>648.5999999999999</ele><time>2026-05-02T08:40:05.999Z</time></trkpt><trkpt lat="42.91667779441043" lon="13.423313347508172"><ele>653.4</ele><time>2026-05-02T08:40:06.999Z</time></trkpt><trkpt lat="42.916612109089954" lon="13.423256864683003"><ele>658.1999999999999</ele><time>2026-05-02T08:40:07.999Z</time></trkpt><trkpt lat="42.9165173084183" lon="13.4232385815921"><ele>663.0</ele><time>2026-05-02T08:40:08.999Z</time></trkpt><trkpt lat="42.91637927075904" lon="13.423228571519722"><ele>663.0</ele><time>2026-05-02T08:40:09.999Z</time></trkpt><trkpt lat="42.91622390913775" lon="13.423191627148391"><ele>663.0</ele><time>2026-05-02T08:40:10.999Z</time></trkpt><trkpt lat="42.916068368590956" lon="13.423084080237471"><ele>663.0</ele><time>2026-05-02T08:40:11.999Z</time></trkpt><trkpt lat="42.91593299815313" lon="13.42295663241628"><ele>660.3333333333334</ele><time>2026-05-02T08:40:12.999Z</time></trkpt><trkpt lat="42.9158088855795" lon="13.422793770728543"><ele>657.6666666666667</ele><time>2026-05-02T08:40:13.999Z</time></trkpt><trkpt lat="42.91567412741139" lon="13.422671697166821"><ele>655.0</ele><time>2026-05-02T08:40:15Z</time></trkpt><trkpt lat="42.91557109071572" lon="13.42258877320376"><ele>655.0</ele><time>2026-05-02T08:40:16Z</time></trkpt><trkpt lat="42.915490312886256" lon="13.422538029683729"><ele>655.0</ele><time>2026-05-02T08:40:17Z</time></trkpt><trkpt lat="42.91540936871388" lon="13.422553444373115"><ele>655.0</ele><time>2026-05-02T08:40:18Z</time></trkpt><trkpt lat="42.91534479058951" lon="13.422616484960038"><ele>655.0</ele><time>2026-05-02T08:40:19Z</time></trkpt><trkpt lat="42.91530118084472" lon="13.422678651992037"><ele>655.0</ele><time>2026-05-02T08:40:20Z</time></trkpt><trkpt lat="42.91537799192683" lon="13.422853753350543"><ele>655.0</ele><time>2026-05-02T08:40:21Z</time></trkpt><trkpt lat="42.9154494844659" lon="13.422944798843446"><ele>655.0</ele><time>2026-05-02T08:40:22Z</time></trkpt><trkpt lat="42.915546208617435" lon="13.423071605797727"><ele>655.0</ele><time>2026-05-02T08:40:23Z</time></trkpt><trkpt lat="42.91567347586618" lon="13.42320261460361"><ele>655.0</ele><time>2026-05-02T08:40:24Z</time></trkpt><trkpt lat="42.91578726553965" lon="13.42337835507013"><ele>661.0</ele><time>2026-05-02T08:40:25Z</time></trkpt><trkpt lat="42.915843222635814" lon="13.423581110464431"><ele>667.0</ele><time>2026-05-02T08:40:26Z</time></trkpt><trkpt lat="42.91589968958508" lon="13.423794838709311"><ele>673.0</ele><time>2026-05-02T08:40:27Z</time></trkpt><trkpt lat="42.91592715103621" lon="13.424020542618358"><ele>674.5</ele><time>2026-05-02T08:40:28Z</time></trkpt><trkpt lat="42.91592972507989" lon="13.424219216574368"><ele>676.0</ele><time>2026-05-02T08:40:29Z</time></trkpt><trkpt lat="42.915915094235416" lon="13.42441208487551"><ele>677.5</ele><time>2026-05-02T08:40:30Z</time></trkpt><trkpt lat="42.91587120655916" lon="13.424568069352555"><ele>679.0</ele><time>2026-05-02T08:40:31Z</time></trkpt><trkpt lat="42.91580246887648" lon="13.424701446353698"><ele>684.75</ele><time>2026-05-02T08:40:32Z</time></trkpt><trkpt lat="42.91569806875519" lon="13.424776643246481"><ele>690.5</ele><time>2026-05-02T08:40:33Z</time></trkpt><trkpt lat="42.91557614446599" lon="13.424814527056162"><ele>696.25</ele><time>2026-05-02T08:40:34Z</time></trkpt><trkpt lat="42.91543379613651" lon="13.42484806429681"><ele>702.0</ele><time>2026-05-02T08:40:35Z</time></trkpt><trkpt lat="42.91530444238057" lon="13.424835136867959"><ele>702.0</ele><time>2026-05-02T08:40:36Z</time></trkpt><trkpt lat="42.91519152566267" lon="13.424808170990314"><ele>702.0</ele><time>2026-05-02T08:40:37Z</time></trkpt><trkpt lat="42.91509529935302" lon="13.424798526875112"><ele>702.0</ele><time>2026-05-02T08:40:38Z</time></trkpt><trkpt lat="42.915006773604645" lon="13.42488195822078"><ele>702.0</ele><time>2026-05-02T08:40:39Z</time></trkpt><trkpt lat="42.914990223123226" lon="13.425040030223004"><ele>702.0</ele><time>2026-05-02T08:40:40Z</time></trkpt><trkpt lat="42.91496404630139" lon="13.425200412016858"><ele>699.8</ele><time>2026-05-02T08:40:41Z</time></trkpt><trkpt lat="42.91492105297854" lon="13.425380663821533"><ele>697.6</ele><time>2026-05-02T08:40:42Z</time></trkpt><trkpt lat="42.914842734073716" lon="13.425496016554737"><ele>695.4</ele><time>2026-05-02T08:40:43Z</time></trkpt><trkpt lat="42.91475852185561" lon="13.425545303693733"><ele>693.1999999999999</ele><time>2026-05-02T08:40:44Z</time></trkpt><trkpt lat="42.91467322825323" lon="13.425522450479773"><ele>691.0</ele><time>2026-05-02T08:40:45Z</time></trkpt><trkpt lat="42.9145893674908" lon="13.425413391855095"><ele>691.0</ele><time>2026-05-02T08:40:46Z</time></trkpt><trkpt lat="42.91447361421083" lon="13.425316294220682"><ele>691.0</ele><time>2026-05-02T08:40:47Z</time></trkpt><trkpt lat="42.9143633308933" lon="13.425180607677596"><ele>691.0</ele><time>2026-05-02T08:40:48Z</time></trkpt><trkpt lat="42.91424328690751" lon="13.425038127121214"><ele>691.0</ele><time>2026-05-02T08:40:49Z</time></trkpt><trkpt lat="42.91415884396912" lon="13.424884191338693"><ele>689.0</ele><time>2026-05-02T08:40:49.999Z</time></trkpt><trkpt lat="42.91410391650029" lon="13.424744432714084"><ele>687.0</ele><time>2026-05-02T08:40:50.999Z</time></trkpt><trkpt lat="42.91404752132526" lon="13.424633768045396"><ele>685.0</ele><time>2026-05-02T08:40:51.999Z</time></trkpt><trkpt lat="42.91398599203669" lon="13.424567698610442"><ele>683.0</ele><time>2026-05-02T08:40:52.999Z</time></trkpt><trkpt lat="42.913915730484455" lon="13.42457094728881"><ele>681.0</ele><time>2026-05-02T08:40:53.999Z</time></trkpt><trkpt lat="42.91384889771385" lon="13.424652489273312"><ele>687.0</ele><time>2026-05-02T08:40:54.999Z</time></trkpt><trkpt lat="42.91378227910347" lon="13.424796376129946"><ele>693.0</ele><time>2026-05-02T08:40:55.999Z</time></trkpt><trkpt lat="42.91372856947074" lon="13.424945283758445"><ele>699.0</ele><time>2026-05-02T08:40:56.999Z</time></trkpt><trkpt lat="42.913619885844554" lon="13.425040364426275"><ele>705.0</ele><time>2026-05-02T08:40:57.999Z</time></trkpt><trkpt lat="42.913480245041" lon="13.425051986268185"><ele>706.25</ele><time>2026-05-02T08:40:58.999Z</time></trkpt><trkpt lat="42.91334602639863" lon="13.425077911989739"><ele>707.5</ele><time>2026-05-02T08:40:59.999Z</time></trkpt><trkpt lat="42.91320763272876" lon="13.425046884852133"><ele>708.75</ele><time>2026-05-02T08:41:00.999Z</time></trkpt><trkpt lat="42.913058507116844" lon="13.42498435851495"><ele>710.0</ele><time>2026-05-02T08:41:01.999Z</time></trkpt><trkpt lat="42.91289980791601" lon="13.424957068575434"><ele>710.0</ele><time>2026-05-02T08:41:02.999Z</time></trkpt><trkpt lat="42.91272825199501" lon="13.424986600281194"><ele>710.0</ele><time>2026-05-02T08:41:03.999Z</time></trkpt><trkpt lat="42.912548042821335" lon="13.42501648377918"><ele>710.0</ele><time>2026-05-02T08:41:04.999Z</time></trkpt><trkpt lat="42.912363346426325" lon="13.425046249026266"><ele>708.75</ele><time>2026-05-02T08:41:05.999Z</time></trkpt><trkpt lat="42.912203941370024" lon="13.425093489145995"><ele>707.5</ele><time>2026-05-02T08:41:06.999Z</time></trkpt><trkpt lat="42.912054624519165" lon="13.425090349010002"><ele>706.25</ele><time>2026-05-02T08:41:07.999Z</time></trkpt><trkpt lat="42.91192667191054" lon="13.425077695415984"><ele>705.0</ele><time>2026-05-02T08:41:08.999Z</time></trkpt><trkpt lat="42.91180211079843" lon="13.425022132422086"><ele>707.25</ele><time>2026-05-02T08:41:09.999Z</time></trkpt><trkpt lat="42.911680134135665" lon="13.424933570581077"><ele>709.5</ele><time>2026-05-02T08:41:10.999Z</time></trkpt><trkpt lat="42.91156879735043" lon="13.42484288138894"><ele>711.75</ele><time>2026-05-02T08:41:11.999Z</time></trkpt><trkpt lat="42.91146780692006" lon="13.424728056323133"><ele>714.0</ele><time>2026-05-02T08:41:12.999Z</time></trkpt><trkpt lat="42.91140766366077" lon="13.4245930695903"><ele>714.0</ele><time>2026-05-02T08:41:13.999Z</time></trkpt><trkpt lat="42.91136398912443" lon="13.424468199596197"><ele>714.0</ele><time>2026-05-02T08:41:14.999Z</time></trkpt><trkpt lat="42.911383655126855" lon="13.424305807142563"><ele>714.0</ele><time>2026-05-02T08:41:15.999Z</time></trkpt><trkpt lat="42.91146298708085" lon="13.424148074659842"><ele>714.0</ele><time>2026-05-02T08:41:16.999Z</time></trkpt><trkpt lat="42.91154270191047" lon="13.423966311026579"><ele>717.3333333333334</ele><time>2026-05-02T08:41:17.999Z</time></trkpt><trkpt lat="42.91164407482843" lon="13.42378477618779"><ele>720.6666666666667</ele><time>2026-05-02T08:41:18.999Z</time></trkpt><trkpt lat="42.91174974768386" lon="13.423586213509315"><ele>724.0</ele><time>2026-05-02T08:41:19.999Z</time></trkpt><trkpt lat="42.91185501031132" lon="13.423377683138161"><ele>717.0</ele><time>2026-05-02T08:41:20.999Z</time></trkpt><trkpt lat="42.9119534636384" lon="13.423206554213218"><ele>710.0</ele><time>2026-05-02T08:41:21.999Z</time></trkpt><trkpt lat="42.912046936785956" lon="13.423066607691737"><ele>703.0</ele><time>2026-05-02T08:41:22.999Z</time></trkpt><trkpt lat="42.912116729031574" lon="13.42295190699257"><ele>696.0</ele><time>2026-05-02T08:41:23.999Z</time></trkpt><trkpt lat="42.912150533449235" lon="13.422834133065743"><ele>696.0</ele><time>2026-05-02T08:41:24.999Z</time></trkpt><trkpt lat="42.91213947134281" lon="13.422719701192543"><ele>696.0</ele><time>2026-05-02T08:41:25.999Z</time></trkpt><trkpt lat="42.912080962400616" lon="13.422630858969518"><ele>696.0</ele><time>2026-05-02T08:41:26.999Z</time></trkpt><trkpt lat="42.91197809326086" lon="13.422583219198676"><ele>696.0</ele><time>2026-05-02T08:41:27.999Z</time></trkpt><trkpt lat="42.911853761119666" lon="13.422582564126332"><ele>696.0</ele><time>2026-05-02T08:41:28.999Z</time></trkpt><trkpt lat="42.91172189983824" lon="13.422635275630244"><ele>700.6666666666666</ele><time>2026-05-02T08:41:29.999Z</time></trkpt><trkpt lat="42.91158150763707" lon="13.422723162719132"><ele>705.3333333333333</ele><time>2026-05-02T08:41:30.999Z</time></trkpt><trkpt lat="42.91143834335382" lon="13.422839040466082"><ele>710.0</ele><time>2026-05-02T08:41:31.999Z</time></trkpt><trkpt lat="42.911301908469724" lon="13.422978232425834"><ele>712.75</ele><time>2026-05-02T08:41:32.999Z</time></trkpt><trkpt lat="42.91118563235759" lon="13.42311601977623"><ele>715.5</ele><time>2026-05-02T08:41:33.999Z</time></trkpt><trkpt lat="42.911073260493545" lon="13.42323650240119"><ele>718.25</ele><time>2026-05-02T08:41:34.999Z</time></trkpt><trkpt lat="42.9109743801" lon="13.423332947692526"><ele>721.0</ele><time>2026-05-02T08:41:35.999Z</time></trkpt><trkpt lat="42.91088526061853" lon="13.42341198357419"><ele>721.0</ele><time>2026-05-02T08:41:36.999Z</time></trkpt><trkpt lat="42.910805477354934" lon="13.423469879182335"><ele>721.0</ele><time>2026-05-02T08:41:37.999Z</time></trkpt><trkpt lat="42.91073519001153" lon="13.42346210462096"><ele>721.0</ele><time>2026-05-02T08:41:38.999Z</time></trkpt><trkpt lat="42.91067067469251" lon="13.423473531615334"><ele>721.0</ele><time>2026-05-02T08:41:39.999Z</time></trkpt><trkpt lat="42.91060093642578" lon="13.423503072449144"><ele>721.0</ele><time>2026-05-02T08:41:40.999Z</time></trkpt><trkpt lat="42.910525651906234" lon="13.423508955919793"><ele>721.0</ele><time>2026-05-02T08:41:41.999Z</time></trkpt><trkpt lat="42.91045086195706" lon="13.423518966972233"><ele>721.0</ele><time>2026-05-02T08:41:42.999Z</time></trkpt><trkpt lat="42.910347498840906" lon="13.423544674970115"><ele>721.0</ele><time>2026-05-02T08:41:44.999Z</time></trkpt><trkpt lat="42.91035325557117" lon="13.423706861811926"><ele>721.0</ele><time>2026-05-02T08:41:48.999Z</time></trkpt><trkpt lat="42.91037405343596" lon="13.42379799266653"><ele>721.0</ele><time>2026-05-02T08:41:49.999Z</time></trkpt><trkpt lat="42.910424092641875" lon="13.423867598791773"><ele>721.0</ele><time>2026-05-02T08:41:50.999Z</time></trkpt><trkpt lat="42.91046835582316" lon="13.423993733269825"><ele>721.0</ele><time>2026-05-02T08:41:52.999Z</time></trkpt><trkpt lat="42.91049182751386" lon="13.424097782720198"><ele>721.0</ele><time>2026-05-02T08:41:54.999Z</time></trkpt><trkpt lat="42.91052511249532" lon="13.424183588653653"><ele>723.0</ele><time>2026-05-02T08:43:03Z</time></trkpt><trkpt lat="42.91054602601936" lon="13.424303145412374"><ele>725.0</ele><time>2026-05-02T08:43:06Z</time></trkpt><trkpt lat="42.9105338962387" lon="13.424483401365618"><ele>727.0</ele><time>2026-05-02T08:43:08Z</time></trkpt><trkpt lat="42.91051660718345" lon="13.424605805112531"><ele>729.0</ele><time>2026-05-02T08:43:09Z</time></trkpt><trkpt lat="42.91048368154394" lon="13.424733616313894"><ele>731.0</ele><time>2026-05-02T08:43:10Z</time></trkpt><trkpt lat="42.910433780448706" lon="13.424862267504665"><ele>732.5</ele><time>2026-05-02T08:43:11Z</time></trkpt><trkpt lat="42.91036527412057" lon="13.424986907094304"><ele>734.0</ele><time>2026-05-02T08:43:12Z</time></trkpt><trkpt lat="42.910274946123636" lon="13.42509623798608"><ele>735.5</ele><time>2026-05-02T08:43:13Z</time></trkpt><trkpt lat="42.91017532679763" lon="13.425186552741085"><ele>737.0</ele><time>2026-05-02T08:43:14Z</time></trkpt><trkpt lat="42.9100696887653" lon="13.42526174139046"><ele>732.25</ele><time>2026-05-02T08:43:15Z</time></trkpt><trkpt lat="42.909949673473264" lon="13.425293347671017"><ele>727.5</ele><time>2026-05-02T08:43:16Z</time></trkpt><trkpt lat="42.90982295317365" lon="13.425293593681875"><ele>722.75</ele><time>2026-05-02T08:43:17Z</time></trkpt><trkpt lat="42.90969957761088" lon="13.42527513533276"><ele>718.0</ele><time>2026-05-02T08:43:18Z</time></trkpt><trkpt lat="42.90958494137349" lon="13.425257863492316"><ele>718.0</ele><time>2026-05-02T08:43:19Z</time></trkpt><trkpt lat="42.90947572600158" lon="13.425251347687896"><ele>718.0</ele><time>2026-05-02T08:43:20Z</time></trkpt><trkpt lat="42.90937726169012" lon="13.425252367262498"><ele>718.0</ele><time>2026-05-02T08:43:21Z</time></trkpt><trkpt lat="42.90929146528278" lon="13.425262125868437"><ele>718.0</ele><time>2026-05-02T08:43:22Z</time></trkpt><trkpt lat="42.90922270472741" lon="13.425302805976807"><ele>718.0</ele><time>2026-05-02T08:43:23Z</time></trkpt><trkpt lat="42.909181642907285" lon="13.42539157837845"><ele>718.0</ele><time>2026-05-02T08:43:24Z</time></trkpt><trkpt lat="42.909183805130574" lon="13.425512025120485"><ele>716.4</ele><time>2026-05-02T08:43:25Z</time></trkpt><trkpt lat="42.909215371676495" lon="13.42564693206385"><ele>714.8</ele><time>2026-05-02T08:43:26Z</time></trkpt><trkpt lat="42.90930771582327" lon="13.425737002621974"><ele>713.2</ele><time>2026-05-02T08:43:26.999Z</time></trkpt><trkpt lat="42.909390639925164" lon="13.425856623227684"><ele>711.6</ele><time>2026-05-02T08:43:27.999Z</time></trkpt><trkpt lat="42.90943208537097" lon="13.425978344643601"><ele>710.0</ele><time>2026-05-02T08:43:28.999Z</time></trkpt><trkpt lat="42.90941033691208" lon="13.426116138239742"><ele>712.5</ele><time>2026-05-02T08:43:29.999Z</time></trkpt><trkpt lat="42.90936331820136" lon="13.426254582155188"><ele>715.0</ele><time>2026-05-02T08:43:30.999Z</time></trkpt><trkpt lat="42.90924146604537" lon="13.42634188037678"><ele>717.5</ele><time>2026-05-02T08:43:31.999Z</time></trkpt><trkpt lat="42.909100197005735" lon="13.426425441417324"><ele>720.0</ele><time>2026-05-02T08:43:32.999Z</time></trkpt><trkpt lat="42.908943300037194" lon="13.426519855260855"><ele>720.0</ele><time>2026-05-02T08:43:33.999Z</time></trkpt><trkpt lat="42.90877131221952" lon="13.426613825647221"><ele>720.0</ele><time>2026-05-02T08:43:34.999Z</time></trkpt><trkpt lat="42.908612834784066" lon="13.426715927802086"><ele>720.0</ele><time>2026-05-02T08:43:35.999Z</time></trkpt><trkpt lat="42.90845769347978" lon="13.426816955596124"><ele>717.3333333333334</ele><time>2026-05-02T08:43:36.999Z</time></trkpt><trkpt lat="42.908313236291946" lon="13.42692091112387"><ele>714.6666666666667</ele><time>2026-05-02T08:43:37.999Z</time></trkpt><trkpt lat="42.90818891974785" lon="13.42704003675969"><ele>712.0</ele><time>2026-05-02T08:43:38.999Z</time></trkpt><trkpt lat="42.90807968778368" lon="13.427168105292306"><ele>712.0</ele><time>2026-05-02T08:43:39.999Z</time></trkpt><trkpt lat="42.907951741557" lon="13.427270871547607"><ele>712.0</ele><time>2026-05-02T08:43:40.999Z</time></trkpt><trkpt lat="42.9077933756224" lon="13.427300192099981"><ele>712.0</ele><time>2026-05-02T08:43:41.999Z</time></trkpt><trkpt lat="42.90762981589812" lon="13.427331925588245"><ele>708.6666666666667</ele><time>2026-05-02T08:43:42.999Z</time></trkpt><trkpt lat="42.90747370850087" lon="13.427379595418287"><ele>705.3333333333334</ele><time>2026-05-02T08:43:43.999Z</time></trkpt><trkpt lat="42.90732002050763" lon="13.427451976305836"><ele>702.0</ele><time>2026-05-02T08:43:44.999Z</time></trkpt><trkpt lat="42.907157639915106" lon="13.427572658873801"><ele>702.0</ele><time>2026-05-02T08:43:45.999Z</time></trkpt><trkpt lat="42.90699168627994" lon="13.427722670814038"><ele>702.0</ele><time>2026-05-02T08:43:46.999Z</time></trkpt><trkpt lat="42.90682476514378" lon="13.427857477188585"><ele>702.0</ele><time>2026-05-02T08:43:47.999Z</time></trkpt><trkpt lat="42.9066661709565" lon="13.427960090474933"><ele>699.3333333333334</ele><time>2026-05-02T08:43:48.999Z</time></trkpt><trkpt lat="42.9065127421417" lon="13.428042715603095"><ele>696.6666666666667</ele><time>2026-05-02T08:43:49.999Z</time></trkpt><trkpt lat="42.906363225591605" lon="13.428114391736427"><ele>694.0</ele><time>2026-05-02T08:43:50.999Z</time></trkpt><trkpt lat="42.90622051363089" lon="13.428204394809892"><ele>694.0</ele><time>2026-05-02T08:43:51.999Z</time></trkpt><trkpt lat="42.90608401132666" lon="13.428340660843805"><ele>694.0</ele><time>2026-05-02T08:43:52.999Z</time></trkpt><trkpt lat="42.90595592018156" lon="13.42851206051742"><ele>694.0</ele><time>2026-05-02T08:43:53.999Z</time></trkpt><trkpt lat="42.90583240098403" lon="13.428693293787807"><ele>688.6666666666667</ele><time>2026-05-02T08:43:54.999Z</time></trkpt><trkpt lat="42.905719728393656" lon="13.42886039861701"><ele>683.3333333333334</ele><time>2026-05-02T08:43:55.999Z</time></trkpt><trkpt lat="42.905614569171256" lon="13.42902131018884"><ele>678.0</ele><time>2026-05-02T08:43:56.999Z</time></trkpt><trkpt lat="42.90551017563402" lon="13.429169879176127"><ele>678.0</ele><time>2026-05-02T08:43:57.999Z</time></trkpt><trkpt lat="42.90538969812573" lon="13.429293308656414"><ele>678.0</ele><time>2026-05-02T08:43:58.999Z</time></trkpt><trkpt lat="42.9052478439554" lon="13.429383520311648"><ele>678.0</ele><time>2026-05-02T08:43:59.999Z</time></trkpt><trkpt lat="42.905109546813755" lon="13.429434411121186"><ele>677.0</ele><time>2026-05-02T08:44:00.999Z</time></trkpt><trkpt lat="42.90498174601847" lon="13.42947950107016"><ele>676.0</ele><time>2026-05-02T08:44:01.999Z</time></trkpt><trkpt lat="42.90487818719228" lon="13.429582277577161"><ele>675.0</ele><time>2026-05-02T08:44:02.999Z</time></trkpt><trkpt lat="42.90478837031106" lon="13.429721014746454"><ele>674.0</ele><time>2026-05-02T08:44:03.999Z</time></trkpt><trkpt lat="42.90470735201724" lon="13.429863741926761"><ele>674.0</ele><time>2026-05-02T08:44:04.999Z</time></trkpt><trkpt lat="42.904611326100365" lon="13.429959571620842"><ele>674.0</ele><time>2026-05-02T08:44:05.999Z</time></trkpt><trkpt lat="42.904490300571446" lon="13.429977557467174"><ele>674.0</ele><time>2026-05-02T08:44:06.999Z</time></trkpt><trkpt lat="42.90435895695481" lon="13.429947029951267"><ele>674.0</ele><time>2026-05-02T08:44:07.999Z</time></trkpt><trkpt lat="42.90422212647799" lon="13.429910119226854"><ele>676.5</ele><time>2026-05-02T08:44:08.999Z</time></trkpt><trkpt lat="42.90408972457786" lon="13.429934448410808"><ele>679.0</ele><time>2026-05-02T08:44:09.999Z</time></trkpt><trkpt lat="42.903968300499535" lon="13.430005617049567"><ele>681.5</ele><time>2026-05-02T08:44:10.999Z</time></trkpt><trkpt lat="42.90382239169925" lon="13.430147059436194"><ele>684.0</ele><time>2026-05-02T08:44:11.999Z</time></trkpt><trkpt lat="42.903708218155984" lon="13.43025161842857"><ele>684.0</ele><time>2026-05-02T08:44:12.999Z</time></trkpt><trkpt lat="42.903573223628946" lon="13.4303287698775"><ele>684.0</ele><time>2026-05-02T08:44:13.999Z</time></trkpt><trkpt lat="42.9034024037573" lon="13.430403831655953"><ele>684.0</ele><time>2026-05-02T08:44:14.999Z</time></trkpt><trkpt lat="42.90326431817528" lon="13.4305237379239"><ele>677.0</ele><time>2026-05-02T08:44:15.999Z</time></trkpt><trkpt lat="42.90315390986394" lon="13.430708114846214"><ele>670.0</ele><time>2026-05-02T08:44:16.999Z</time></trkpt><trkpt lat="42.90305103056683" lon="13.430880922334058"><ele>663.0</ele><time>2026-05-02T08:44:17.999Z</time></trkpt><trkpt lat="42.90291324419537" lon="13.430983860809699"><ele>663.0</ele><time>2026-05-02T08:44:18.999Z</time></trkpt><trkpt lat="42.90279168600786" lon="13.43102893915206"><ele>663.0</ele><time>2026-05-02T08:44:19.999Z</time></trkpt><trkpt lat="42.902622232492966" lon="13.431057228716583"><ele>663.0</ele><time>2026-05-02T08:44:20.999Z</time></trkpt><trkpt lat="42.902459333144954" lon="13.431092714961512"><ele>662.25</ele><time>2026-05-02T08:44:21.999Z</time></trkpt><trkpt lat="42.90231302494595" lon="13.431101462826224"><ele>661.5</ele><time>2026-05-02T08:44:22.999Z</time></trkpt><trkpt lat="42.90219504818919" lon="13.43111767472235"><ele>660.75</ele><time>2026-05-02T08:44:23.999Z</time></trkpt><trkpt lat="42.90209249322906" lon="13.431187576432723"><ele>660.0</ele><time>2026-05-02T08:44:24.999Z</time></trkpt><trkpt lat="42.90201967686976" lon="13.431329964626663"><ele>663.6666666666666</ele><time>2026-05-02T08:44:25.999Z</time></trkpt><trkpt lat="42.90195119886371" lon="13.431532995716983"><ele>667.3333333333333</ele><time>2026-05-02T08:44:27Z</time></trkpt><trkpt lat="42.901873552945304" lon="13.431755193645367"><ele>671.0</ele><time>2026-05-02T08:44:28Z</time></trkpt><trkpt lat="42.90178046061783" lon="13.431978579306762"><ele>672.6666666666666</ele><time>2026-05-02T08:44:29Z</time></trkpt><trkpt lat="42.901664429419036" lon="13.432138673737509"><ele>674.3333333333334</ele><time>2026-05-02T08:44:30Z</time></trkpt><trkpt lat="42.901552286382596" lon="13.432285701624135"><ele>676.0</ele><time>2026-05-02T08:44:31Z</time></trkpt><trkpt lat="42.90141397310707" lon="13.432385067204358"><ele>676.0</ele><time>2026-05-02T08:44:32Z</time></trkpt><trkpt lat="42.90127088480793" lon="13.432473463461907"><ele>676.0</ele><time>2026-05-02T08:44:33Z</time></trkpt><trkpt lat="42.90110436881682" lon="13.432555597980667"><ele>676.0</ele><time>2026-05-02T08:44:34Z</time></trkpt><trkpt lat="42.900937645290234" lon="13.432601275985554"><ele>669.3333333333334</ele><time>2026-05-02T08:44:35Z</time></trkpt><trkpt lat="42.900768480763496" lon="13.432624561552778"><ele>662.6666666666666</ele><time>2026-05-02T08:44:36Z</time></trkpt><trkpt lat="42.900588778277346" lon="13.432594244025577"><ele>656.0</ele><time>2026-05-02T08:44:37Z</time></trkpt><trkpt lat="42.900411199461224" lon="13.432576675741942"><ele>656.0</ele><time>2026-05-02T08:44:38Z</time></trkpt><trkpt lat="42.9002649460408" lon="13.432585731329434"><ele>656.0</ele><time>2026-05-02T08:44:39Z</time></trkpt><trkpt lat="42.90013295510575" lon="13.432605217110657"><ele>656.0</ele><time>2026-05-02T08:44:40Z</time></trkpt><trkpt lat="42.9000122512232" lon="13.432683970980701"><ele>656.0</ele><time>2026-05-02T08:44:41Z</time></trkpt><trkpt lat="42.899899837981266" lon="13.43281307611314"><ele>654.0</ele><time>2026-05-02T08:44:42Z</time></trkpt><trkpt lat="42.899794684566345" lon="13.432976865304202"><ele>652.0</ele><time>2026-05-02T08:44:43Z</time></trkpt><trkpt lat="42.89969549497645" lon="13.433160761040314"><ele>650.0</ele><time>2026-05-02T08:44:44Z</time></trkpt><trkpt lat="42.89959414241803" lon="13.433314072120636"><ele>650.0</ele><time>2026-05-02T08:44:45Z</time></trkpt><trkpt lat="42.899461974578955" lon="13.433395728333632"><ele>650.0</ele><time>2026-05-02T08:44:46Z</time></trkpt><trkpt lat="42.899337447435826" lon="13.433442265561453"><ele>650.0</ele><time>2026-05-02T08:44:47Z</time></trkpt><trkpt lat="42.899216889353475" lon="13.433445467109038"><ele>650.0</ele><time>2026-05-02T08:44:48Z</time></trkpt><trkpt lat="42.89908377275918" lon="13.433419184591274"><ele>652.0</ele><time>2026-05-02T08:44:49Z</time></trkpt><trkpt lat="42.89892823825631" lon="13.433386219044918"><ele>654.0</ele><time>2026-05-02T08:44:50Z</time></trkpt><trkpt lat="42.898771545292696" lon="13.433372321116535"><ele>656.0</ele><time>2026-05-02T08:44:51Z</time></trkpt><trkpt lat="42.89863270655316" lon="13.43334745212398"><ele>656.0</ele><time>2026-05-02T08:44:52Z</time></trkpt><trkpt lat="42.89849930696688" lon="13.433365817360686"><ele>656.0</ele><time>2026-05-02T08:44:53Z</time></trkpt><trkpt lat="42.898362132902115" lon="13.433446129523002"><ele>656.0</ele><time>2026-05-02T08:44:54Z</time></trkpt><trkpt lat="42.89822064128701" lon="13.433571895365963"><ele>656.6666666666666</ele><time>2026-05-02T08:44:55Z</time></trkpt><trkpt lat="42.89806949089309" lon="13.433700371847241"><ele>657.3333333333334</ele><time>2026-05-02T08:44:56Z</time></trkpt><trkpt lat="42.89792965502697" lon="13.43379301212422"><ele>658.0</ele><time>2026-05-02T08:44:57Z</time></trkpt><trkpt lat="42.89781942910665" lon="13.433891146733956"><ele>658.0</ele><time>2026-05-02T08:44:58Z</time></trkpt><trkpt lat="42.89771767029888" lon="13.433959834449066"><ele>658.0</ele><time>2026-05-02T08:44:59Z</time></trkpt><trkpt lat="42.89761507363301" lon="13.434041332769937"><ele>658.0</ele><time>2026-05-02T08:45:00Z</time></trkpt><trkpt lat="42.897512020094595" lon="13.43376248136759"><ele>652.3333333333334</ele><time>2026-05-02T08:45:01Z</time></trkpt><trkpt lat="42.89735797893958" lon="13.433618916471312"><ele>646.6666666666666</ele><time>2026-05-02T08:45:02Z</time></trkpt><trkpt lat="42.89723232331234" lon="13.433502549367898"><ele>641.0</ele><time>2026-05-02T08:45:03Z</time></trkpt><trkpt lat="42.897118936246194" lon="13.433407339299983"><ele>641.0</ele><time>2026-05-02T08:45:04Z</time></trkpt><trkpt lat="42.897010781038055" lon="13.43332552259452"><ele>641.0</ele><time>2026-05-02T08:45:05Z</time></trkpt><trkpt lat="42.896888650570155" lon="13.433254178975076"><ele>641.0</ele><time>2026-05-02T08:45:06Z</time></trkpt><trkpt lat="42.89675296421389" lon="13.433194664894481"><ele>641.0</ele><time>2026-05-02T08:45:07Z</time></trkpt><trkpt lat="42.89662471222442" lon="13.433140402370332"><ele>641.25</ele><time>2026-05-02T08:45:08Z</time></trkpt><trkpt lat="42.89646378333007" lon="13.43313383674158"><ele>641.5</ele><time>2026-05-02T08:45:09Z</time></trkpt><trkpt lat="42.89631887885727" lon="13.433129738131353"><ele>641.75</ele><time>2026-05-02T08:45:10Z</time></trkpt><trkpt lat="42.896189827897665" lon="13.433120475818347"><ele>642.0</ele><time>2026-05-02T08:45:11Z</time></trkpt><trkpt lat="42.89607187586795" lon="13.433129322584712"><ele>642.0</ele><time>2026-05-02T08:45:12Z</time></trkpt><trkpt lat="42.89598222321442" lon="13.433168506592738"><ele>642.0</ele><time>2026-05-02T08:45:13Z</time></trkpt><trkpt lat="42.89592280695496" lon="13.433237393469307"><ele>642.0</ele><time>2026-05-02T08:45:14Z</time></trkpt><trkpt lat="42.895895491974116" lon="13.433360250250779"><ele>642.0</ele><time>2026-05-02T08:45:15Z</time></trkpt><trkpt lat="42.895900542708056" lon="13.433480255663463"><ele>642.0</ele><time>2026-05-02T08:45:16Z</time></trkpt><trkpt lat="42.895979992107705" lon="13.433581467249736"><ele>642.0</ele><time>2026-05-02T08:45:17Z</time></trkpt><trkpt lat="42.8960205863057" lon="13.433779260348524"><ele>642.0</ele><time>2026-05-02T08:45:18Z</time></trkpt><trkpt lat="42.89603832231733" lon="13.433948134080245"><ele>642.0</ele><time>2026-05-02T08:45:19Z</time></trkpt><trkpt lat="42.895979368116606" lon="13.434102145028588"><ele>642.0</ele><time>2026-05-02T08:45:20Z</time></trkpt><trkpt lat="42.89587753043689" lon="13.43421245327572"><ele>641.25</ele><time>2026-05-02T08:45:21Z</time></trkpt><trkpt lat="42.89576935642498" lon="13.434244685595962"><ele>640.5</ele><time>2026-05-02T08:45:22Z</time></trkpt><trkpt lat="42.89561181045932" lon="13.434302236522143"><ele>639.75</ele><time>2026-05-02T08:45:23Z</time></trkpt><trkpt lat="42.895477179597954" lon="13.434364814885674"><ele>639.0</ele><time>2026-05-02T08:45:24Z</time></trkpt><trkpt lat="42.89535033101754" lon="13.434358023623876"><ele>639.0</ele><time>2026-05-02T08:45:25Z</time></trkpt><trkpt lat="42.89524305052471" lon="13.434324350770353"><ele>639.0</ele><time>2026-05-02T08:45:26Z</time></trkpt><trkpt lat="42.89515006510352" lon="13.434225291059953"><ele>639.0</ele><time>2026-05-02T08:45:27Z</time></trkpt><trkpt lat="42.895024884839174" lon="13.434114800857294"><ele>639.0</ele><time>2026-05-02T08:45:28Z</time></trkpt><trkpt lat="42.89492801695567" lon="13.434019765971234"><ele>636.0</ele><time>2026-05-02T08:45:29Z</time></trkpt><trkpt lat="42.89482590036535" lon="13.433975462053441"><ele>633.0</ele><time>2026-05-02T08:45:30Z</time></trkpt><trkpt lat="42.894718678015124" lon="13.434014219473923"><ele>630.0</ele><time>2026-05-02T08:45:31Z</time></trkpt><trkpt lat="42.894604648302476" lon="13.434138139244576"><ele>627.0</ele><time>2026-05-02T08:45:32Z</time></trkpt><trkpt lat="42.89449439004111" lon="13.434262632307622"><ele>627.0</ele><time>2026-05-02T08:45:33Z</time></trkpt><trkpt lat="42.89438931628063" lon="13.434453324502739"><ele>627.0</ele><time>2026-05-02T08:45:34Z</time></trkpt><trkpt lat="42.894319640260285" lon="13.434644778657672"><ele>627.0</ele><time>2026-05-02T08:45:35Z</time></trkpt><trkpt lat="42.89426223830893" lon="13.434834831758497"><ele>624.5</ele><time>2026-05-02T08:45:36Z</time></trkpt><trkpt lat="42.89424860443739" lon="13.435010192500389"><ele>622.0</ele><time>2026-05-02T08:45:37Z</time></trkpt><trkpt lat="42.89425251643032" lon="13.435187340653263"><ele>619.5</ele><time>2026-05-02T08:45:38Z</time></trkpt><trkpt lat="42.894205771930885" lon="13.435325758062628"><ele>617.0</ele><time>2026-05-02T08:45:39Z</time></trkpt><trkpt lat="42.89412228059488" lon="13.435418884721843"><ele>617.0</ele><time>2026-05-02T08:45:39.999Z</time></trkpt><trkpt lat="42.89401328529565" lon="13.435487859590019"><ele>617.0</ele><time>2026-05-02T08:45:40.999Z</time></trkpt><trkpt lat="42.893872185307444" lon="13.43553226976184"><ele>617.0</ele><time>2026-05-02T08:45:41.999Z</time></trkpt><trkpt lat="42.893760465021245" lon="13.435525132778233"><ele>617.0</ele><time>2026-05-02T08:45:42.999Z</time></trkpt><trkpt lat="42.89364650144376" lon="13.435462737646953"><ele>617.0</ele><time>2026-05-02T08:45:43.999Z</time></trkpt><trkpt lat="42.89350981382766" lon="13.435365090909444"><ele>617.0</ele><time>2026-05-02T08:45:44.999Z</time></trkpt><trkpt lat="42.8934030742778" lon="13.435258242410873"><ele>617.0</ele><time>2026-05-02T08:45:45.999Z</time></trkpt><trkpt lat="42.8933235632812" lon="13.435153605906029"><ele>617.0</ele><time>2026-05-02T08:45:46.999Z</time></trkpt><trkpt lat="42.89325683122259" lon="13.435027366276724"><ele>617.5</ele><time>2026-05-02T08:45:47.999Z</time></trkpt><trkpt lat="42.89318868987201" lon="13.43485864405849"><ele>618.0</ele><time>2026-05-02T08:45:48.999Z</time></trkpt><trkpt lat="42.89313245537226" lon="13.434671244832675"><ele>618.5</ele><time>2026-05-02T08:45:49.999Z</time></trkpt><trkpt lat="42.89308842812263" lon="13.434468561971181"><ele>619.0</ele><time>2026-05-02T08:45:50.999Z</time></trkpt><trkpt lat="42.893053904677146" lon="13.434283682658156"><ele>613.3333333333334</ele><time>2026-05-02T08:45:51.999Z</time></trkpt><trkpt lat="42.89301018482181" lon="13.434104809873174"><ele>607.6666666666666</ele><time>2026-05-02T08:45:52.999Z</time></trkpt><trkpt lat="42.89295129933644" lon="13.433897910284804"><ele>602.0</ele><time>2026-05-02T08:45:53.999Z</time></trkpt><trkpt lat="42.892864789721415" lon="13.433690115660623"><ele>605.3333333333333</ele><time>2026-05-02T08:45:54.999Z</time></trkpt><trkpt lat="42.892748068147576" lon="13.433488285905886"><ele>608.6666666666666</ele><time>2026-05-02T08:45:55.999Z</time></trkpt><trkpt lat="42.89262716359606" lon="13.433288287415944"><ele>612.0</ele><time>2026-05-02T08:45:56.999Z</time></trkpt><trkpt lat="42.89252051642774" lon="13.433099158981944"><ele>610.0</ele><time>2026-05-02T08:45:57.999Z</time></trkpt><trkpt lat="42.89242345460259" lon="13.432926948660425"><ele>608.0</ele><time>2026-05-02T08:45:58.999Z</time></trkpt><trkpt lat="42.892346791468945" lon="13.432788610076697"><ele>606.0</ele><time>2026-05-02T08:45:59.999Z</time></trkpt><trkpt lat="42.892285101621724" lon="13.432674252664512"><ele>604.0</ele><time>2026-05-02T08:46:00.999Z</time></trkpt><trkpt lat="42.89223325954085" lon="13.432588161065485"><ele>604.0</ele><time>2026-05-02T08:46:01.999Z</time></trkpt><trkpt lat="42.892168993727836" lon="13.432551524598235"><ele>604.0</ele><time>2026-05-02T08:46:02.999Z</time></trkpt><trkpt lat="42.89207682007239" lon="13.432582000733047"><ele>604.0</ele><time>2026-05-02T08:46:03.999Z</time></trkpt><trkpt lat="42.89201513518005" lon="13.432706184626769"><ele>604.0</ele><time>2026-05-02T08:46:04.999Z</time></trkpt><trkpt lat="42.89192339034019" lon="13.43284736177641"><ele>604.0</ele><time>2026-05-02T08:46:05.999Z</time></trkpt><trkpt lat="42.89183668452596" lon="13.43303990155418"><ele>604.0</ele><time>2026-05-02T08:46:06.999Z</time></trkpt><trkpt lat="42.891700155668566" lon="13.433278334601253"><ele>604.0</ele><time>2026-05-02T08:46:07.999Z</time></trkpt><trkpt lat="42.89154276124849" lon="13.433447829108708"><ele>604.0</ele><time>2026-05-02T08:46:08.999Z</time></trkpt><trkpt lat="42.89140291968003" lon="13.433598031368787"><ele>604.0</ele><time>2026-05-02T08:46:09.999Z</time></trkpt><trkpt lat="42.891278826350494" lon="13.433751035529378"><ele>604.0</ele><time>2026-05-02T08:46:10.999Z</time></trkpt><trkpt lat="42.891157931702615" lon="13.433884489887932"><ele>604.0</ele><time>2026-05-02T08:46:11.999Z</time></trkpt><trkpt lat="42.89105496787449" lon="13.433986522382352"><ele>605.0</ele><time>2026-05-02T08:46:12.999Z</time></trkpt><trkpt lat="42.89095305547487" lon="13.434042952384143"><ele>606.0</ele><time>2026-05-02T08:46:13.999Z</time></trkpt><trkpt lat="42.89086700616106" lon="13.43406943893316"><ele>607.0</ele><time>2026-05-02T08:46:14.999Z</time></trkpt><trkpt lat="42.890794956917844" lon="13.434001869676864"><ele>608.0</ele><time>2026-05-02T08:46:15.999Z</time></trkpt><trkpt lat="42.89072607706744" lon="13.433903104038086"><ele>609.0</ele><time>2026-05-02T08:46:16.999Z</time></trkpt><trkpt lat="42.890609726336706" lon="13.433803767204626"><ele>602.3333333333334</ele><time>2026-05-02T08:46:17.999Z</time></trkpt><trkpt lat="42.89049446315076" lon="13.433660239671344"><ele>595.6666666666667</ele><time>2026-05-02T08:46:18.999Z</time></trkpt><trkpt lat="42.89036459519123" lon="13.433511713262364"><ele>589.0</ele><time>2026-05-02T08:46:19.999Z</time></trkpt><trkpt lat="42.8902300000277" lon="13.433362768130122"><ele>589.0</ele><time>2026-05-02T08:46:20.999Z</time></trkpt><trkpt lat="42.89011102411185" lon="13.433232381400739"><ele>589.0</ele><time>2026-05-02T08:46:21.999Z</time></trkpt><trkpt lat="42.88997886376062" lon="13.433140644450775"><ele>589.0</ele><time>2026-05-02T08:46:22.999Z</time></trkpt><trkpt lat="42.88983897459897" lon="13.433088623335147"><ele>589.0</ele><time>2026-05-02T08:46:23.999Z</time></trkpt><trkpt lat="42.88969369566151" lon="13.433081858746492"><ele>588.6666666666667</ele><time>2026-05-02T08:46:24.999Z</time></trkpt><trkpt lat="42.88954241708197" lon="13.433123030206467"><ele>588.3333333333334</ele><time>2026-05-02T08:46:25.999Z</time></trkpt><trkpt lat="42.88939491126217" lon="13.433202215220515"><ele>588.0</ele><time>2026-05-02T08:46:26.999Z</time></trkpt><trkpt lat="42.88923803683378" lon="13.433310480437072"><ele>588.0</ele><time>2026-05-02T08:46:27.999Z</time></trkpt><trkpt lat="42.88906222104971" lon="13.433397548817597"><ele>588.0</ele><time>2026-05-02T08:46:28.999Z</time></trkpt><trkpt lat="42.88887529196708" lon="13.433410269900886"><ele>588.0</ele><time>2026-05-02T08:46:29.999Z</time></trkpt><trkpt lat="42.88872048433944" lon="13.433483484085876"><ele>588.0</ele><time>2026-05-02T08:46:30.999Z</time></trkpt><trkpt lat="42.88856344667646" lon="13.433568013985793"><ele>588.0</ele><time>2026-05-02T08:46:31.999Z</time></trkpt><trkpt lat="42.88840792755026" lon="13.433666691483145"><ele>588.0</ele><time>2026-05-02T08:46:33Z</time></trkpt><trkpt lat="42.888265260469346" lon="13.433744128288648"><ele>586.75</ele><time>2026-05-02T08:46:34Z</time></trkpt><trkpt lat="42.88813941525235" lon="13.433741821560345"><ele>585.5</ele><time>2026-05-02T08:46:35Z</time></trkpt><trkpt lat="42.888025065872455" lon="13.433704162582666"><ele>584.25</ele><time>2026-05-02T08:46:36Z</time></trkpt><trkpt lat="42.887916594883066" lon="13.43361751103747"><ele>583.0</ele><time>2026-05-02T08:46:37Z</time></trkpt><trkpt lat="42.88781780687013" lon="13.433504004393338"><ele>583.0</ele><time>2026-05-02T08:46:38Z</time></trkpt><trkpt lat="42.8877614911528" lon="13.433350270799552"><ele>583.0</ele><time>2026-05-02T08:46:39Z</time></trkpt><trkpt lat="42.887765447689496" lon="13.433189203858275"><ele>583.0</ele><time>2026-05-02T08:46:40Z</time></trkpt><trkpt lat="42.88778467436788" lon="13.433004760199708"><ele>583.0</ele><time>2026-05-02T08:46:41Z</time></trkpt><trkpt lat="42.88779349463674" lon="13.432780394768534"><ele>576.6666666666667</ele><time>2026-05-02T08:46:42Z</time></trkpt><trkpt lat="42.88780965641226" lon="13.432530707928935"><ele>570.3333333333334</ele><time>2026-05-02T08:46:43Z</time></trkpt><trkpt lat="42.88780268014663" lon="13.432275395160254"><ele>564.0</ele><time>2026-05-02T08:46:44Z</time></trkpt><trkpt lat="42.8877785112921" lon="13.432023488042319"><ele>561.0</ele><time>2026-05-02T08:46:45Z</time></trkpt><trkpt lat="42.88774873414242" lon="13.431785031394806"><ele>558.0</ele><time>2026-05-02T08:46:46Z</time></trkpt><trkpt lat="42.887704835812556" lon="13.43156976452978"><ele>555.0</ele><time>2026-05-02T08:46:47Z</time></trkpt><trkpt lat="42.887655155469105" lon="13.431393156567452"><ele>557.25</ele><time>2026-05-02T08:46:48Z</time></trkpt><trkpt lat="42.887592339805046" lon="13.43126769733397"><ele>559.5</ele><time>2026-05-02T08:46:49Z</time></trkpt><trkpt lat="42.887501622527765" lon="13.43117462347262"><ele>561.75</ele><time>2026-05-02T08:46:50Z</time></trkpt><trkpt lat="42.88737389395665" lon="13.431095090392601"><ele>564.0</ele><time>2026-05-02T08:46:51Z</time></trkpt><trkpt lat="42.887224122819624" lon="13.431020417122346"><ele>564.0</ele><time>2026-05-02T08:46:52Z</time></trkpt><trkpt lat="42.887069521774045" lon="13.43091396276175"><ele>564.0</ele><time>2026-05-02T08:46:53Z</time></trkpt><trkpt lat="42.88693132896194" lon="13.430828363681645"><ele>564.0</ele><time>2026-05-02T08:46:54Z</time></trkpt><trkpt lat="42.88680134753215" lon="13.430777724621873"><ele>566.0</ele><time>2026-05-02T08:46:55Z</time></trkpt><trkpt lat="42.886682411788826" lon="13.430731258705688"><ele>568.0</ele><time>2026-05-02T08:46:56Z</time></trkpt><trkpt lat="42.88654918927107" lon="13.430743177310658"><ele>570.0</ele><time>2026-05-02T08:46:57Z</time></trkpt><trkpt lat="42.886405940329176" lon="13.430807008407818"><ele>572.0</ele><time>2026-05-02T08:46:58Z</time></trkpt><trkpt lat="42.88625216487985" lon="13.430844344349627"><ele>572.0</ele><time>2026-05-02T08:46:59Z</time></trkpt><trkpt lat="42.886104539152015" lon="13.4308412305984"><ele>572.0</ele><time>2026-05-02T08:47:00Z</time></trkpt><trkpt lat="42.8859735340388" lon="13.430786644694516"><ele>572.0</ele><time>2026-05-02T08:47:01Z</time></trkpt><trkpt lat="42.88585200409358" lon="13.430698674280249"><ele>572.0</ele><time>2026-05-02T08:47:02Z</time></trkpt><trkpt lat="42.88571612501207" lon="13.430603306484231"><ele>570.75</ele><time>2026-05-02T08:47:03Z</time></trkpt><trkpt lat="42.88558520119511" lon="13.430556556538221"><ele>569.5</ele><time>2026-05-02T08:47:04Z</time></trkpt><trkpt lat="42.88543938541486" lon="13.430558336513595"><ele>568.25</ele><time>2026-05-02T08:47:05Z</time></trkpt><trkpt lat="42.88529823182778" lon="13.430590118851724"><ele>567.0</ele><time>2026-05-02T08:47:06Z</time></trkpt><trkpt lat="42.88517218493882" lon="13.430638794172832"><ele>562.5</ele><time>2026-05-02T08:47:07Z</time></trkpt><trkpt lat="42.885071925263354" lon="13.430713042023353"><ele>558.0</ele><time>2026-05-02T08:47:08Z</time></trkpt><trkpt lat="42.88500426135062" lon="13.430819364652528"><ele>553.5</ele><time>2026-05-02T08:47:09Z</time></trkpt><trkpt lat="42.88497125939447" lon="13.43097603111434"><ele>549.0</ele><time>2026-05-02T08:47:10Z</time></trkpt><trkpt lat="42.884960842546455" lon="13.431177562204716"><ele>552.75</ele><time>2026-05-02T08:47:11Z</time></trkpt><trkpt lat="42.8849638935966" lon="13.431398906201732"><ele>556.5</ele><time>2026-05-02T08:47:12Z</time></trkpt><trkpt lat="42.884917486612" lon="13.431565846151075"><ele>560.25</ele><time>2026-05-02T08:47:13Z</time></trkpt><trkpt lat="42.8848451229605" lon="13.431718639768334"><ele>564.0</ele><time>2026-05-02T08:47:14Z</time></trkpt><trkpt lat="42.88473277758577" lon="13.431844035284838"><ele>564.0</ele><time>2026-05-02T08:47:15Z</time></trkpt><trkpt lat="42.884613236359336" lon="13.431945384992828"><ele>564.0</ele><time>2026-05-02T08:47:16Z</time></trkpt><trkpt lat="42.88447019204443" lon="13.431989903173616"><ele>564.0</ele><time>2026-05-02T08:47:17Z</time></trkpt><trkpt lat="42.88431390471532" lon="13.431973580416283"><ele>564.0</ele><time>2026-05-02T08:47:18Z</time></trkpt><trkpt lat="42.884137518099465" lon="13.431954187558043"><ele>556.0</ele><time>2026-05-02T08:47:19Z</time></trkpt><trkpt lat="42.8839488559544" lon="13.431925135614916"><ele>548.0</ele><time>2026-05-02T08:47:20Z</time></trkpt><trkpt lat="42.88374601665658" lon="13.431909214807433"><ele>540.0</ele><time>2026-05-02T08:47:21Z</time></trkpt><trkpt lat="42.88355205247435" lon="13.431834665490154"><ele>540.0</ele><time>2026-05-02T08:47:22Z</time></trkpt><trkpt lat="42.8833831717866" lon="13.431769436976884"><ele>540.0</ele><time>2026-05-02T08:47:23Z</time></trkpt><trkpt lat="42.88321414248035" lon="13.431715703242086"><ele>540.0</ele><time>2026-05-02T08:47:24Z</time></trkpt><trkpt lat="42.883063593970974" lon="13.43164702629795"><ele>540.0</ele><time>2026-05-02T08:47:25Z</time></trkpt><trkpt lat="42.88292720564712" lon="13.431585294813491"><ele>540.0</ele><time>2026-05-02T08:47:26Z</time></trkpt><trkpt lat="42.88281982934628" lon="13.43154212978647"><ele>540.0</ele><time>2026-05-02T08:47:27Z</time></trkpt><trkpt lat="42.882713604641985" lon="13.43153760198391"><ele>540.0</ele><time>2026-05-02T08:47:28Z</time></trkpt><trkpt lat="42.882596285159835" lon="13.431595466847641"><ele>538.6666666666666</ele><time>2026-05-02T08:47:29Z</time></trkpt><trkpt lat="42.88246947095918" lon="13.431708717179054"><ele>537.3333333333333</ele><time>2026-05-02T08:47:30Z</time></trkpt><trkpt lat="42.88234188292485" lon="13.431857489713593"><ele>536.0</ele><time>2026-05-02T08:47:31Z</time></trkpt><trkpt lat="42.882204557850095" lon="13.432027281606558"><ele>541.6666666666666</ele><time>2026-05-02T08:47:32Z</time></trkpt><trkpt lat="42.88208011352296" lon="13.432165391803077"><ele>547.3333333333334</ele><time>2026-05-02T08:47:33Z</time></trkpt><trkpt lat="42.88195597813458" lon="13.432280613539941"><ele>553.0</ele><time>2026-05-02T08:47:34Z</time></trkpt><trkpt lat="42.88182201219195" lon="13.432332051762994"><ele>548.3333333333334</ele><time>2026-05-02T08:47:35Z</time></trkpt><trkpt lat="42.881670669190584" lon="13.432366925649134"><ele>543.6666666666666</ele><time>2026-05-02T08:47:36Z</time></trkpt><trkpt lat="42.88149413455258" lon="13.432397559992685"><ele>539.0</ele><time>2026-05-02T08:47:37Z</time></trkpt><trkpt lat="42.8813059639168" lon="13.432398765723464"><ele>539.0</ele><time>2026-05-02T08:47:38Z</time></trkpt><trkpt lat="42.88112470636279" lon="13.432396070742518"><ele>539.0</ele><time>2026-05-02T08:47:39Z</time></trkpt><trkpt lat="42.8809496947231" lon="13.43241219637191"><ele>539.0</ele><time>2026-05-02T08:47:40Z</time></trkpt><trkpt lat="42.88079786137179" lon="13.432447893052487"><ele>536.25</ele><time>2026-05-02T08:47:41Z</time></trkpt><trkpt lat="42.88066324494315" lon="13.432489125323912"><ele>533.5</ele><time>2026-05-02T08:47:41.999Z</time></trkpt><trkpt lat="42.880539152843504" lon="13.432540172474182"><ele>530.75</ele><time>2026-05-02T08:47:42.999Z</time></trkpt><trkpt lat="42.88042653921899" lon="13.432593276031064"><ele>528.0</ele><time>2026-05-02T08:47:43.999Z</time></trkpt><trkpt lat="42.88030451381862" lon="13.432652269856158"><ele>528.0</ele><time>2026-05-02T08:47:44.999Z</time></trkpt><trkpt lat="42.88016515935924" lon="13.43268693690707"><ele>528.0</ele><time>2026-05-02T08:47:45.999Z</time></trkpt><trkpt lat="42.880029956751684" lon="13.432757277930166"><ele>528.0</ele><time>2026-05-02T08:47:46.999Z</time></trkpt><trkpt lat="42.87989955712729" lon="13.432802434574649"><ele>528.0</ele><time>2026-05-02T08:47:47.999Z</time></trkpt><trkpt lat="42.87978035575363" lon="13.43285257560336"><ele>527.75</ele><time>2026-05-02T08:47:48.999Z</time></trkpt><trkpt lat="42.879669134918515" lon="13.432951821885574"><ele>527.5</ele><time>2026-05-02T08:47:49.999Z</time></trkpt><trkpt lat="42.87956846038465" lon="13.433109106540103"><ele>527.25</ele><time>2026-05-02T08:47:50.999Z</time></trkpt><trkpt lat="42.87948384596577" lon="13.433294621040945"><ele>527.0</ele><time>2026-05-02T08:47:51.999Z</time></trkpt><trkpt lat="42.87941253809562" lon="13.433459072938696"><ele>527.0</ele><time>2026-05-02T08:47:52.999Z</time></trkpt><trkpt lat="42.87934693911773" lon="13.433586547590057"><ele>527.0</ele><time>2026-05-02T08:47:53.999Z</time></trkpt><trkpt lat="42.87929710734501" lon="13.433688780069417"><ele>527.0</ele><time>2026-05-02T08:47:54.999Z</time></trkpt><trkpt lat="42.879278761275145" lon="13.433791792654599"><ele>527.0</ele><time>2026-05-02T08:47:55.999Z</time></trkpt><trkpt lat="42.87932391911854" lon="13.433890581733623"><ele>527.0</ele><time>2026-05-02T08:47:56.999Z</time></trkpt><trkpt lat="42.8794198487665" lon="13.433978693625802"><ele>522.0</ele><time>2026-05-02T08:47:57.999Z</time></trkpt><trkpt lat="42.87954477820304" lon="13.434028434347951"><ele>517.0</ele><time>2026-05-02T08:47:58.999Z</time></trkpt><trkpt lat="42.879691177989486" lon="13.434075727825576"><ele>512.0</ele><time>2026-05-02T08:47:59.999Z</time></trkpt><trkpt lat="42.879862019195684" lon="13.434135699895318"><ele>512.0</ele><time>2026-05-02T08:48:00.999Z</time></trkpt><trkpt lat="42.88002821404658" lon="13.434214168825614"><ele>512.0</ele><time>2026-05-02T08:48:01.999Z</time></trkpt><trkpt lat="42.88021059425477" lon="13.434301080849467"><ele>512.0</ele><time>2026-05-02T08:48:02.999Z</time></trkpt><trkpt lat="42.88038683998987" lon="13.434380731304387"><ele>517.0</ele><time>2026-05-02T08:48:03.999Z</time></trkpt><trkpt lat="42.88054654384137" lon="13.434455580862204"><ele>522.0</ele><time>2026-05-02T08:48:04.999Z</time></trkpt><trkpt lat="42.88068702345608" lon="13.434533718834672"><ele>527.0</ele><time>2026-05-02T08:48:05.999Z</time></trkpt><trkpt lat="42.8808010232929" lon="13.434634273692696"><ele>521.75</ele><time>2026-05-02T08:48:06.999Z</time></trkpt><trkpt lat="42.880851501661795" lon="13.4347942417692"><ele>516.5</ele><time>2026-05-02T08:48:07.999Z</time></trkpt><trkpt lat="42.880910969975986" lon="13.434951882010825"><ele>511.25</ele><time>2026-05-02T08:48:08.999Z</time></trkpt><trkpt lat="42.88089334822256" lon="13.435133623363148"><ele>506.0</ele><time>2026-05-02T08:48:09.999Z</time></trkpt><trkpt lat="42.88083800410648" lon="13.43528108449051"><ele>505.99999999999994</ele><time>2026-05-02T08:48:10.999Z</time></trkpt><trkpt lat="42.88073832537559" lon="13.435377830772739"><ele>506.0</ele><time>2026-05-02T08:48:11.999Z</time></trkpt><trkpt lat="42.880697145615535" lon="13.435496334784636"><ele>506.0</ele><time>2026-05-02T08:48:12.999Z</time></trkpt><trkpt lat="42.880657073669234" lon="13.435575948986939"><ele>506.0</ele><time>2026-05-02T08:48:13.999Z</time></trkpt><trkpt lat="42.8806585019124" lon="13.435670670642839"><ele>505.99999999999994</ele><time>2026-05-02T08:48:14.999Z</time></trkpt><trkpt lat="42.88071305408961" lon="13.435752707034071"><ele>506.0</ele><time>2026-05-02T08:48:15.999Z</time></trkpt><trkpt lat="42.88081167803078" lon="13.435784433104635"><ele>503.66666666666663</ele><time>2026-05-02T08:48:16.999Z</time></trkpt><trkpt lat="42.88095085630629" lon="13.435743213238386"><ele>501.33333333333337</ele><time>2026-05-02T08:48:17.999Z</time></trkpt><trkpt lat="42.881098111728704" lon="13.435701594615367"><ele>499.0</ele><time>2026-05-02T08:48:18.999Z</time></trkpt><trkpt lat="42.8812617080004" lon="13.435686557363114"><ele>499.0</ele><time>2026-05-02T08:48:19.999Z</time></trkpt><trkpt lat="42.88141917795729" lon="13.435671711975168"><ele>499.0</ele><time>2026-05-02T08:48:20.999Z</time></trkpt><trkpt lat="42.88158637697" lon="13.435695262334303"><ele>499.0</ele><time>2026-05-02T08:48:21.999Z</time></trkpt><trkpt lat="42.8817615598829" lon="13.43576254182559"><ele>500.0</ele><time>2026-05-02T08:48:22.999Z</time></trkpt><trkpt lat="42.881951022650064" lon="13.435846164523465"><ele>501.0</ele><time>2026-05-02T08:48:23.999Z</time></trkpt><trkpt lat="42.88211749002086" lon="13.43593464186802"><ele>502.0</ele><time>2026-05-02T08:48:24.999Z</time></trkpt><trkpt lat="42.88227844478527" lon="13.436026174339206"><ele>502.0</ele><time>2026-05-02T08:48:25.999Z</time></trkpt><trkpt lat="42.882429973577324" lon="13.436102523404575"><ele>502.0</ele><time>2026-05-02T08:48:26.999Z</time></trkpt><trkpt lat="42.88260020778239" lon="13.436130396215658"><ele>502.0</ele><time>2026-05-02T08:48:27.999Z</time></trkpt><trkpt lat="42.88277495927392" lon="13.436135982352994"><ele>502.0</ele><time>2026-05-02T08:48:28.999Z</time></trkpt><trkpt lat="42.88296637189796" lon="13.436153160854996"><ele>502.0</ele><time>2026-05-02T08:48:29.999Z</time></trkpt><trkpt lat="42.88315875860652" lon="13.43621358416649"><ele>502.0</ele><time>2026-05-02T08:48:30.999Z</time></trkpt><trkpt lat="42.88336880521418" lon="13.436289956894866"><ele>497.6666666666667</ele><time>2026-05-02T08:48:31.999Z</time></trkpt><trkpt lat="42.883556640658036" lon="13.436381873089923"><ele>493.33333333333337</ele><time>2026-05-02T08:48:32.999Z</time></trkpt><trkpt lat="42.88373540039213" lon="13.436433865219408"><ele>489.0</ele><time>2026-05-02T08:48:33.999Z</time></trkpt><trkpt lat="42.88389753868735" lon="13.436495846276966"><ele>489.0</ele><time>2026-05-02T08:48:34.999Z</time></trkpt><trkpt lat="42.884049206802025" lon="13.436558218529527"><ele>489.0</ele><time>2026-05-02T08:48:35.999Z</time></trkpt><trkpt lat="42.88416786891247" lon="13.436608957127202"><ele>489.0</ele><time>2026-05-02T08:48:36.999Z</time></trkpt><trkpt lat="42.88424553704078" lon="13.436701582152944"><ele>489.0</ele><time>2026-05-02T08:48:37.999Z</time></trkpt><trkpt lat="42.88429372507379" lon="13.436790367158562"><ele>489.0</ele><time>2026-05-02T08:48:39Z</time></trkpt><trkpt lat="42.884305639093476" lon="13.43688352739505"><ele>489.0</ele><time>2026-05-02T08:48:40Z</time></trkpt><trkpt lat="42.88428007714981" lon="13.436985823774368"><ele>489.0</ele><time>2026-05-02T08:48:41Z</time></trkpt><trkpt lat="42.88419783809382" lon="13.437069863404036"><ele>489.0</ele><time>2026-05-02T08:48:42Z</time></trkpt><trkpt lat="42.884071856549724" lon="13.437108848673228"><ele>489.0</ele><time>2026-05-02T08:48:43Z</time></trkpt><trkpt lat="42.8839272174338" lon="13.437201218956368"><ele>490.0</ele><time>2026-05-02T08:48:44Z</time></trkpt><trkpt lat="42.88375696829738" lon="13.43730308250804"><ele>491.0</ele><time>2026-05-02T08:48:45Z</time></trkpt><trkpt lat="42.883577327838566" lon="13.43740702234509"><ele>492.0</ele><time>2026-05-02T08:48:46Z</time></trkpt><trkpt lat="42.88343153515594" lon="13.437473204943432"><ele>490.5</ele><time>2026-05-02T08:48:47Z</time></trkpt><trkpt lat="42.8833112056467" lon="13.437479613443863"><ele>489.0</ele><time>2026-05-02T08:48:48Z</time></trkpt><trkpt lat="42.88320987574526" lon="13.437415886282206"><ele>487.5</ele><time>2026-05-02T08:48:49Z</time></trkpt><trkpt lat="42.883096886143974" lon="13.43739164735141"><ele>486.0</ele><time>2026-05-02T08:48:50Z</time></trkpt><trkpt lat="42.882979267408864" lon="13.437409934097616"><ele>486.0</ele><time>2026-05-02T08:48:51Z</time></trkpt><trkpt lat="42.882867240828396" lon="13.437479454833797"><ele>486.0</ele><time>2026-05-02T08:48:52Z</time></trkpt><trkpt lat="42.882768134397104" lon="13.437627458927777"><ele>486.0</ele><time>2026-05-02T08:48:53Z</time></trkpt><trkpt lat="42.88265622021981" lon="13.437726132655644"><ele>486.0</ele><time>2026-05-02T08:48:54Z</time></trkpt><trkpt lat="42.88253002861626" lon="13.437744143286439"><ele>482.66666666666663</ele><time>2026-05-02T08:48:55Z</time></trkpt><trkpt lat="42.8823783954405" lon="13.43772605037855"><ele>479.3333333333333</ele><time>2026-05-02T08:48:56Z</time></trkpt><trkpt lat="42.882215446082746" lon="13.43767895789324"><ele>476.0</ele><time>2026-05-02T08:48:57Z</time></trkpt><trkpt lat="42.8820484951689" lon="13.437596772432773"><ele>476.0</ele><time>2026-05-02T08:48:58Z</time></trkpt><trkpt lat="42.881879280590866" lon="13.437538305525111"><ele>476.0</ele><time>2026-05-02T08:48:59Z</time></trkpt><trkpt lat="42.881723913968656" lon="13.437471977501346"><ele>476.0</ele><time>2026-05-02T08:49:00Z</time></trkpt><trkpt lat="42.881575553453594" lon="13.437444514600847"><ele>476.0</ele><time>2026-05-02T08:49:01Z</time></trkpt><trkpt lat="42.881442758679306" lon="13.437444015842864"><ele>476.0</ele><time>2026-05-02T08:49:02Z</time></trkpt><trkpt lat="42.8813179763309" lon="13.437509062880757"><ele>476.0</ele><time>2026-05-02T08:49:03Z</time></trkpt><trkpt lat="42.881160383014226" lon="13.43761594259427"><ele>476.0</ele><time>2026-05-02T08:49:04Z</time></trkpt><trkpt lat="42.880994778230644" lon="13.437689821815633"><ele>471.66666666666663</ele><time>2026-05-02T08:49:05Z</time></trkpt><trkpt lat="42.88083064207887" lon="13.437771852860081"><ele>467.33333333333337</ele><time>2026-05-02T08:49:06Z</time></trkpt><trkpt lat="42.88065561865384" lon="13.437822812858144"><ele>463.0</ele><time>2026-05-02T08:49:07Z</time></trkpt><trkpt lat="42.88046106599715" lon="13.437855208338407"><ele>463.0</ele><time>2026-05-02T08:49:08Z</time></trkpt><trkpt lat="42.88025808857591" lon="13.43788408793643"><ele>463.0</ele><time>2026-05-02T08:49:09Z</time></trkpt><trkpt lat="42.880046541889755" lon="13.437912093818532"><ele>463.0</ele><time>2026-05-02T08:49:10Z</time></trkpt><trkpt lat="42.87984367746618" lon="13.437934978717337"><ele>461.5</ele><time>2026-05-02T08:49:11Z</time></trkpt><trkpt lat="42.87967040135793" lon="13.437936028077713"><ele>460.0</ele><time>2026-05-02T08:49:12Z</time></trkpt><trkpt lat="42.879546569515554" lon="13.43790689817906"><ele>458.5</ele><time>2026-05-02T08:49:13Z</time></trkpt><trkpt lat="42.87943764531981" lon="13.437874400368583"><ele>457.0</ele><time>2026-05-02T08:49:14Z</time></trkpt><trkpt lat="42.879337342878244" lon="13.437847915389977"><ele>456.20000000000005</ele><time>2026-05-02T08:49:15Z</time></trkpt><trkpt lat="42.8792515583513" lon="13.437847176307844"><ele>455.40000000000003</ele><time>2026-05-02T08:49:16Z</time></trkpt><trkpt lat="42.879180239529454" lon="13.437925170491724"><ele>454.59999999999997</ele><time>2026-05-02T08:49:17Z</time></trkpt><trkpt lat="42.87913478955031" lon="13.438054087908638"><ele>453.79999999999995</ele><time>2026-05-02T08:49:18Z</time></trkpt><trkpt lat="42.87912119418828" lon="13.438220963649457"><ele>453.0</ele><time>2026-05-02T08:49:19Z</time></trkpt><trkpt lat="42.879093678035005" lon="13.438370037549987"><ele>456.75</ele><time>2026-05-02T08:49:20Z</time></trkpt><trkpt lat="42.879038911854614" lon="13.438501769125976"><ele>460.5</ele><time>2026-05-02T08:49:21Z</time></trkpt><trkpt lat="42.878948126744596" lon="13.438570351494004"><ele>464.25</ele><time>2026-05-02T08:49:22Z</time></trkpt><trkpt lat="42.878825404679496" lon="13.438579320250287"><ele>468.0</ele><time>2026-05-02T08:49:23Z</time></trkpt><trkpt lat="42.878692269694085" lon="13.438572272547965"><ele>468.0</ele><time>2026-05-02T08:49:24Z</time></trkpt><trkpt lat="42.87853746100721" lon="13.438537540574352"><ele>468.0</ele><time>2026-05-02T08:49:25Z</time></trkpt><trkpt lat="42.87838075336304" lon="13.438479105123331"><ele>468.0</ele><time>2026-05-02T08:49:26Z</time></trkpt><trkpt lat="42.87822727402308" lon="13.438410249402098"><ele>465.79999999999995</ele><time>2026-05-02T08:49:27Z</time></trkpt><trkpt lat="42.87810133449775" lon="13.438329584797806"><ele>463.59999999999997</ele><time>2026-05-02T08:49:28Z</time></trkpt><trkpt lat="42.87798674897276" lon="13.43827682783521"><ele>461.40000000000003</ele><time>2026-05-02T08:49:29Z</time></trkpt><trkpt lat="42.877898283602825" lon="13.43823350065866"><ele>459.20000000000005</ele><time>2026-05-02T08:49:30Z</time></trkpt><trkpt lat="42.87781621480318" lon="13.438240496501978"><ele>457.0</ele><time>2026-05-02T08:49:31Z</time></trkpt><trkpt lat="42.87773887930846" lon="13.43831849014136"><ele>457.0</ele><time>2026-05-02T08:49:32Z</time></trkpt><trkpt lat="42.87767344382927" lon="13.438456713313313"><ele>457.0</ele><time>2026-05-02T08:49:33Z</time></trkpt><trkpt lat="42.877624811017064" lon="13.438628870092744"><ele>457.0</ele><time>2026-05-02T08:49:34Z</time></trkpt><trkpt lat="42.87760314623653" lon="13.43879181656307"><ele>457.0</ele><time>2026-05-02T08:49:35Z</time></trkpt><trkpt lat="42.877585309866596" lon="13.438934820488099"><ele>461.5</ele><time>2026-05-02T08:49:36Z</time></trkpt><trkpt lat="42.87763020034259" lon="13.439064150016874"><ele>466.0</ele><time>2026-05-02T08:49:37Z</time></trkpt><trkpt lat="42.877710205262225" lon="13.439195118980486"><ele>470.5</ele><time>2026-05-02T08:49:38Z</time></trkpt><trkpt lat="42.877793654680474" lon="13.439321932735474"><ele>475.0</ele><time>2026-05-02T08:49:39Z</time></trkpt><trkpt lat="42.87780711906962" lon="13.439474390915828"><ele>475.0</ele><time>2026-05-02T08:49:40Z</time></trkpt><trkpt lat="42.87780244127645" lon="13.439607300898238"><ele>475.0</ele><time>2026-05-02T08:49:41Z</time></trkpt><trkpt lat="42.877783943952956" lon="13.43971910588204"><ele>475.0</ele><time>2026-05-02T08:49:42Z</time></trkpt><trkpt lat="42.877680385915944" lon="13.439756375668683"><ele>475.0</ele><time>2026-05-02T08:49:43Z</time></trkpt><trkpt lat="42.877565741960346" lon="13.439771371288387"><ele>475.0</ele><time>2026-05-02T08:49:44Z</time></trkpt><trkpt lat="42.87741276404555" lon="13.439752539684072"><ele>471.75</ele><time>2026-05-02T08:49:45Z</time></trkpt><trkpt lat="42.877276013474265" lon="13.439755302566263"><ele>468.5</ele><time>2026-05-02T08:49:46Z</time></trkpt><trkpt lat="42.877139809041275" lon="13.439724244577462"><ele>465.25</ele><time>2026-05-02T08:49:47Z</time></trkpt><trkpt lat="42.877008041596255" lon="13.439716652157946"><ele>462.0</ele><time>2026-05-02T08:49:48Z</time></trkpt><trkpt lat="42.87688383859279" lon="13.439729161982793"><ele>462.0</ele><time>2026-05-02T08:49:49Z</time></trkpt><trkpt lat="42.876786412881756" lon="13.439763228952252"><ele>462.00000000000006</ele><time>2026-05-02T08:49:50Z</time></trkpt><trkpt lat="42.87671290742364" lon="13.439845611688298"><ele>462.00000000000006</ele><time>2026-05-02T08:49:51Z</time></trkpt><trkpt lat="42.876657566588754" lon="13.439990613104962"><ele>462.0</ele><time>2026-05-02T08:49:51.999Z</time></trkpt><trkpt lat="42.87662320349126" lon="13.44016485105352"><ele>462.0</ele><time>2026-05-02T08:49:52.999Z</time></trkpt><trkpt lat="42.87659028263526" lon="13.440311221684695"><ele>463.25</ele><time>2026-05-02T08:49:53.999Z</time></trkpt><trkpt lat="42.876594860010925" lon="13.440437454493521"><ele>464.5</ele><time>2026-05-02T08:49:54.999Z</time></trkpt><trkpt lat="42.876652547594645" lon="13.440582337798201"><ele>465.75</ele><time>2026-05-02T08:49:55.999Z</time></trkpt><trkpt lat="42.87673643494903" lon="13.440741708049678"><ele>467.0</ele><time>2026-05-02T08:49:56.999Z</time></trkpt><trkpt lat="42.87681035248755" lon="13.440886249157284"><ele>467.0</ele><time>2026-05-02T08:49:57.999Z</time></trkpt><trkpt lat="42.876894390525756" lon="13.441010883796391"><ele>467.0</ele><time>2026-05-02T08:49:58.999Z</time></trkpt><trkpt lat="42.87700067828907" lon="13.441101056783655"><ele>467.0</ele><time>2026-05-02T08:49:59.999Z</time></trkpt><trkpt lat="42.87715241759172" lon="13.441165556193388"><ele>467.0</ele><time>2026-05-02T08:50:00.999Z</time></trkpt><trkpt lat="42.87732802393345" lon="13.441222004234296"><ele>467.0</ele><time>2026-05-02T08:50:01.999Z</time></trkpt><trkpt lat="42.87750294050044" lon="13.441283418306197"><ele>467.0</ele><time>2026-05-02T08:50:02.999Z</time></trkpt><trkpt lat="42.87766186993604" lon="13.441347212192555"><ele>467.0</ele><time>2026-05-02T08:50:03.999Z</time></trkpt><trkpt lat="42.87778556298133" lon="13.441441619603694"><ele>464.6</ele><time>2026-05-02T08:50:04.999Z</time></trkpt><trkpt lat="42.87789802394744" lon="13.441514942099984"><ele>462.20000000000005</ele><time>2026-05-02T08:50:05.999Z</time></trkpt><trkpt lat="42.877970141283186" lon="13.441602039708972"><ele>459.8</ele><time>2026-05-02T08:50:06.999Z</time></trkpt><trkpt lat="42.87801917698754" lon="13.441705042920411"><ele>457.4</ele><time>2026-05-02T08:50:07.999Z</time></trkpt><trkpt lat="42.878030244191606" lon="13.441830226317647"><ele>455.0</ele><time>2026-05-02T08:50:08.999Z</time></trkpt><trkpt lat="42.87799850228487" lon="13.441963431144893"><ele>455.0</ele><time>2026-05-02T08:50:09.999Z</time></trkpt><trkpt lat="42.87793203544589" lon="13.442050882744079"><ele>455.0</ele><time>2026-05-02T08:50:10.999Z</time></trkpt><trkpt lat="42.877827998612005" lon="13.442057534034866"><ele>455.0</ele><time>2026-05-02T08:50:11.999Z</time></trkpt><trkpt lat="42.87771397765952" lon="13.442031883361604"><ele>455.0</ele><time>2026-05-02T08:50:12.999Z</time></trkpt><trkpt lat="42.877573294270206" lon="13.442035113732317"><ele>450.3333333333333</ele><time>2026-05-02T08:50:13.999Z</time></trkpt><trkpt lat="42.877414428416046" lon="13.442025937818842"><ele>445.66666666666663</ele><time>2026-05-02T08:50:14.999Z</time></trkpt><trkpt lat="42.87726279967599" lon="13.442049558444854"><ele>441.0</ele><time>2026-05-02T08:50:15.999Z</time></trkpt><trkpt lat="42.87711086389796" lon="13.442115960558331"><ele>442.0</ele><time>2026-05-02T08:50:16.999Z</time></trkpt><trkpt lat="42.87695494348575" lon="13.44220865146084"><ele>443.0</ele><time>2026-05-02T08:50:17.999Z</time></trkpt><trkpt lat="42.87678064167982" lon="13.44229764671066"><ele>444.0</ele><time>2026-05-02T08:50:18.999Z</time></trkpt><trkpt lat="42.87660997481912" lon="13.442355079986397"><ele>444.0</ele><time>2026-05-02T08:50:19.999Z</time></trkpt><trkpt lat="42.87646454625847" lon="13.442376177995571"><ele>444.0</ele><time>2026-05-02T08:50:20.999Z</time></trkpt><trkpt lat="42.87635109366582" lon="13.442343186386598"><ele>444.0</ele><time>2026-05-02T08:50:21.999Z</time></trkpt><trkpt lat="42.87625202231744" lon="13.44223610947077"><ele>444.0</ele><time>2026-05-02T08:50:22.999Z</time></trkpt><trkpt lat="42.87612833086114" lon="13.442142641183812"><ele>438.5</ele><time>2026-05-02T08:50:23.999Z</time></trkpt><trkpt lat="42.87600861216672" lon="13.442052408678054"><ele>433.0</ele><time>2026-05-02T08:50:24.999Z</time></trkpt><trkpt lat="42.87588639905235" lon="13.442006032469223"><ele>427.5</ele><time>2026-05-02T08:50:25.999Z</time></trkpt><trkpt lat="42.875762197194454" lon="13.4419870623674"><ele>422.0</ele><time>2026-05-02T08:50:26.999Z</time></trkpt><trkpt lat="42.875625804570994" lon="13.442015074075314"><ele>419.5</ele><time>2026-05-02T08:50:27.999Z</time></trkpt><trkpt lat="42.875478068449254" lon="13.442097864796319"><ele>417.0</ele><time>2026-05-02T08:50:28.999Z</time></trkpt><trkpt lat="42.87534922718579" lon="13.442194892433301"><ele>414.5</ele><time>2026-05-02T08:50:29.999Z</time></trkpt><trkpt lat="42.87525497835207" lon="13.442317806639917"><ele>412.0</ele><time>2026-05-02T08:50:30.999Z</time></trkpt><trkpt lat="42.8751735130962" lon="13.442441864855523"><ele>414.75</ele><time>2026-05-02T08:50:31.999Z</time></trkpt><trkpt lat="42.87508244385677" lon="13.442498508376676"><ele>417.5</ele><time>2026-05-02T08:50:32.999Z</time></trkpt><trkpt lat="42.874980486225894" lon="13.44241862679204"><ele>420.25</ele><time>2026-05-02T08:50:33.999Z</time></trkpt><trkpt lat="42.87484711639828" lon="13.442414971811022"><ele>423.0</ele><time>2026-05-02T08:50:34.999Z</time></trkpt><trkpt lat="42.874733559484795" lon="13.442384927177546"><ele>423.0</ele><time>2026-05-02T08:50:35.999Z</time></trkpt><trkpt lat="42.87461582461243" lon="13.442402351184542"><ele>423.0</ele><time>2026-05-02T08:50:36.999Z</time></trkpt><trkpt lat="42.874487915052846" lon="13.442449945975818"><ele>423.0</ele><time>2026-05-02T08:50:37.999Z</time></trkpt><trkpt lat="42.87437253793689" lon="13.442551039220149"><ele>423.0</ele><time>2026-05-02T08:50:38.999Z</time></trkpt><trkpt lat="42.87424507528599" lon="13.442661170899628"><ele>418.66666666666663</ele><time>2026-05-02T08:50:39.999Z</time></trkpt><trkpt lat="42.87409718585976" lon="13.442765396696021"><ele>414.3333333333333</ele><time>2026-05-02T08:50:40.999Z</time></trkpt><trkpt lat="42.87395772706607" lon="13.442860111801124"><ele>410.0</ele><time>2026-05-02T08:50:41.999Z</time></trkpt><trkpt lat="42.87382435452425" lon="13.442922494893978"><ele>410.0</ele><time>2026-05-02T08:50:42.999Z</time></trkpt><trkpt lat="42.873695862737215" lon="13.442930758602595"><ele>410.0</ele><time>2026-05-02T08:50:43.999Z</time></trkpt><trkpt lat="42.87356854323835" lon="13.442889502034191"><ele>410.0</ele><time>2026-05-02T08:50:45Z</time></trkpt><trkpt lat="42.87344588952463" lon="13.442845534649798"><ele>410.0</ele><time>2026-05-02T08:50:46Z</time></trkpt><trkpt lat="42.87332992308565" lon="13.442833665844978"><ele>412.75</ele><time>2026-05-02T08:50:47Z</time></trkpt><trkpt lat="42.873217065217744" lon="13.442886024582911"><ele>415.5</ele><time>2026-05-02T08:50:48Z</time></trkpt><trkpt lat="42.873090655879146" lon="13.443002968972833"><ele>418.25</ele><time>2026-05-02T08:50:49Z</time></trkpt><trkpt lat="42.87294779694133" lon="13.443135962599449"><ele>421.0</ele><time>2026-05-02T08:50:50Z</time></trkpt><trkpt lat="42.87279182442914" lon="13.443240820910056"><ele>421.0</ele><time>2026-05-02T08:50:51Z</time></trkpt><trkpt lat="42.87263380482885" lon="13.443343689104493"><ele>421.0</ele><time>2026-05-02T08:50:52Z</time></trkpt><trkpt lat="42.872469150375444" lon="13.443405966506448"><ele>421.0</ele><time>2026-05-02T08:50:53Z</time></trkpt><trkpt lat="42.87231832789192" lon="13.443447980285615"><ele>413.6666666666667</ele><time>2026-05-02T08:50:54Z</time></trkpt><trkpt lat="42.87217418757183" lon="13.443483306831897"><ele>406.33333333333337</ele><time>2026-05-02T08:50:55Z</time></trkpt><trkpt lat="42.87202235019594" lon="13.44346471304111"><ele>399.0</ele><time>2026-05-02T08:50:56Z</time></trkpt><trkpt lat="42.87184950424175" lon="13.443435668592132"><ele>396.33333333333337</ele><time>2026-05-02T08:50:57Z</time></trkpt><trkpt lat="42.8716873367447" lon="13.443450011168869"><ele>393.6666666666667</ele><time>2026-05-02T08:50:58Z</time></trkpt><trkpt lat="42.87153850142209" lon="13.443469017429223"><ele>391.0</ele><time>2026-05-02T08:50:59Z</time></trkpt><trkpt lat="42.87139705908172" lon="13.443480098519286"><ele>391.0</ele><time>2026-05-02T08:51:00Z</time></trkpt><trkpt lat="42.87126982742249" lon="13.443474893139411"><ele>391.0</ele><time>2026-05-02T08:51:01Z</time></trkpt><trkpt lat="42.87114505869037" lon="13.443389503868092"><ele>391.0</ele><time>2026-05-02T08:51:02Z</time></trkpt><trkpt lat="42.87101834560886" lon="13.443307958498691"><ele>391.0</ele><time>2026-05-02T08:51:03Z</time></trkpt><trkpt lat="42.870913535116266" lon="13.443211977232584"><ele>390.25</ele><time>2026-05-02T08:51:04Z</time></trkpt><trkpt lat="42.87081168056345" lon="13.443143405179478"><ele>389.5</ele><time>2026-05-02T08:51:05Z</time></trkpt><trkpt lat="42.87070365335202" lon="13.44312671635801"><ele>388.75</ele><time>2026-05-02T08:51:06Z</time></trkpt><trkpt lat="42.87058001063478" lon="13.44316706570834"><ele>388.0</ele><time>2026-05-02T08:51:07Z</time></trkpt><trkpt lat="42.870465888107454" lon="13.443237957237672"><ele>388.0</ele><time>2026-05-02T08:51:08Z</time></trkpt><trkpt lat="42.87035369880184" lon="13.443350803726798"><ele>388.0</ele><time>2026-05-02T08:51:09Z</time></trkpt><trkpt lat="42.870257852976415" lon="13.443484643926865"><ele>388.0</ele><time>2026-05-02T08:51:10Z</time></trkpt><trkpt lat="42.87018036021534" lon="13.44362179472552"><ele>388.0</ele><time>2026-05-02T08:51:11Z</time></trkpt><trkpt lat="42.87012914781017" lon="13.443779120841892"><ele>385.75</ele><time>2026-05-02T08:51:12Z</time></trkpt><trkpt lat="42.870113546444145" lon="13.443954957300171"><ele>383.5</ele><time>2026-05-02T08:51:13Z</time></trkpt><trkpt lat="42.87011671344396" lon="13.444119485058987"><ele>381.25</ele><time>2026-05-02T08:51:14Z</time></trkpt><trkpt lat="42.870098627824326" lon="13.444259508185294"><ele>379.0</ele><time>2026-05-02T08:51:15Z</time></trkpt><trkpt lat="42.87001474515391" lon="13.444364460743293"><ele>379.0</ele><time>2026-05-02T08:51:16Z</time></trkpt><trkpt lat="42.86991699106627" lon="13.444468706006251"><ele>379.0</ele><time>2026-05-02T08:51:17Z</time></trkpt><trkpt lat="42.869828792678526" lon="13.444567541687995"><ele>379.0</ele><time>2026-05-02T08:51:18Z</time></trkpt><trkpt lat="42.86976050231164" lon="13.44467317179473"><ele>379.0</ele><time>2026-05-02T08:51:19Z</time></trkpt><trkpt lat="42.86976098055563" lon="13.444805067061477"><ele>379.0</ele><time>2026-05-02T08:51:20Z</time></trkpt><trkpt lat="42.869673950728476" lon="13.44492415455062"><ele>380.25</ele><time>2026-05-02T08:51:21Z</time></trkpt><trkpt lat="42.8696450951011" lon="13.445067221949039"><ele>381.5</ele><time>2026-05-02T08:51:22Z</time></trkpt><trkpt lat="42.86958781642789" lon="13.44521440161966"><ele>382.75</ele><time>2026-05-02T08:51:23Z</time></trkpt><trkpt lat="42.86953073604202" lon="13.44540382068891"><ele>384.0</ele><time>2026-05-02T08:51:24Z</time></trkpt><trkpt lat="42.86951592086321" lon="13.44562667912651"><ele>384.0</ele><time>2026-05-02T08:51:25Z</time></trkpt><trkpt lat="42.869476540154885" lon="13.445819557054197"><ele>384.0</ele><time>2026-05-02T08:51:26Z</time></trkpt><trkpt lat="42.86935440474595" lon="13.445923673245888"><ele>384.0</ele><time>2026-05-02T08:51:27Z</time></trkpt><trkpt lat="42.869243117341426" lon="13.446058657404205"><ele>384.0</ele><time>2026-05-02T08:51:28Z</time></trkpt><trkpt lat="42.8690860605217" lon="13.446110309920943"><ele>381.75</ele><time>2026-05-02T08:51:29Z</time></trkpt><trkpt lat="42.86893295820953" lon="13.44616836667486"><ele>379.5</ele><time>2026-05-02T08:51:30Z</time></trkpt><trkpt lat="42.86879708895292" lon="13.44623898992725"><ele>377.25</ele><time>2026-05-02T08:51:31Z</time></trkpt><trkpt lat="42.8686832952075" lon="13.446325478948305"><ele>375.0</ele><time>2026-05-02T08:51:32Z</time></trkpt><trkpt lat="42.86857565251869" lon="13.446434216161894"><ele>375.0</ele><time>2026-05-02T08:51:33Z</time></trkpt><trkpt lat="42.86848297918124" lon="13.446585242666167"><ele>375.0</ele><time>2026-05-02T08:51:34Z</time></trkpt><trkpt lat="42.86842463673825" lon="13.44676339124723"><ele>375.0</ele><time>2026-05-02T08:51:35Z</time></trkpt><trkpt lat="42.86839441997606" lon="13.446953781722305"><ele>375.0</ele><time>2026-05-02T08:51:36Z</time></trkpt><trkpt lat="42.86838930784945" lon="13.447167414542955"><ele>373.0</ele><time>2026-05-02T08:51:37Z</time></trkpt><trkpt lat="42.868408301533506" lon="13.447389819799863"><ele>371.0</ele><time>2026-05-02T08:51:38Z</time></trkpt><trkpt lat="42.86843049894047" lon="13.44759676762475"><ele>369.0</ele><time>2026-05-02T08:51:39Z</time></trkpt><trkpt lat="42.86847085216135" lon="13.447806127092711"><ele>366.0</ele><time>2026-05-02T08:51:40Z</time></trkpt><trkpt lat="42.868531986543644" lon="13.448011991454017"><ele>363.0</ele><time>2026-05-02T08:51:41Z</time></trkpt><trkpt lat="42.868623065542" lon="13.44820920632591"><ele>360.0</ele><time>2026-05-02T08:51:42Z</time></trkpt><trkpt lat="42.86874548723497" lon="13.44839184328305"><ele>360.0</ele><time>2026-05-02T08:51:43Z</time></trkpt><trkpt lat="42.868866892955054" lon="13.44858567876677"><ele>360.0</ele><time>2026-05-02T08:51:44Z</time></trkpt><trkpt lat="42.86898586785153" lon="13.448789150296086"><ele>360.0</ele><time>2026-05-02T08:51:45Z</time></trkpt><trkpt lat="42.86909579604063" lon="13.448997842775372"><ele>359.6666666666667</ele><time>2026-05-02T08:51:46Z</time></trkpt><trkpt lat="42.86922188613027" lon="13.449216576520463"><ele>359.33333333333337</ele><time>2026-05-02T08:51:47Z</time></trkpt><trkpt lat="42.869344908679665" lon="13.449432825136963"><ele>359.0</ele><time>2026-05-02T08:51:48Z</time></trkpt><trkpt lat="42.86945477657301" lon="13.44965197942757"><ele>356.0</ele><time>2026-05-02T08:51:49Z</time></trkpt><trkpt lat="42.8695761336964" lon="13.449839328479342"><ele>353.0</ele><time>2026-05-02T08:51:50Z</time></trkpt><trkpt lat="42.86967488002883" lon="13.450036961496359"><ele>350.0</ele><time>2026-05-02T08:51:51Z</time></trkpt><trkpt lat="42.86977292701465" lon="13.450223228250671"><ele>350.0</ele><time>2026-05-02T08:51:52Z</time></trkpt><trkpt lat="42.869866637392846" lon="13.450393148385368"><ele>350.0</ele><time>2026-05-02T08:51:53Z</time></trkpt><trkpt lat="42.86995526957109" lon="13.450588573568627"><ele>350.0</ele><time>2026-05-02T08:51:54Z</time></trkpt><trkpt lat="42.870014140334874" lon="13.450829537443887"><ele>349.0</ele><time>2026-05-02T08:51:55Z</time></trkpt><trkpt lat="42.87009938110096" lon="13.45105004503008"><ele>348.0</ele><time>2026-05-02T08:51:56Z</time></trkpt><trkpt lat="42.87017185700306" lon="13.451303029848404"><ele>347.0</ele><time>2026-05-02T08:51:56.999Z</time></trkpt><trkpt lat="42.87024837482688" lon="13.451535920858644"><ele>347.0</ele><time>2026-05-02T08:51:57.999Z</time></trkpt><trkpt lat="42.870303468094505" lon="13.45175254224964"><ele>347.0</ele><time>2026-05-02T08:51:58.999Z</time></trkpt><trkpt lat="42.87036586170342" lon="13.451914473533877"><ele>347.0</ele><time>2026-05-02T08:51:59.999Z</time></trkpt><trkpt lat="42.8704096769498" lon="13.452063531137403"><ele>347.0</ele><time>2026-05-02T08:52:00.999Z</time></trkpt><trkpt lat="42.870469113999384" lon="13.452185799297773"><ele>350.5</ele><time>2026-05-02T08:52:01.999Z</time></trkpt><trkpt lat="42.870569465476244" lon="13.452277524983755"><ele>354.0</ele><time>2026-05-02T08:52:02.999Z</time></trkpt><trkpt lat="42.87068855727158" lon="13.452306193430488"><ele>357.5</ele><time>2026-05-02T08:52:03.999Z</time></trkpt><trkpt lat="42.87081555980077" lon="13.452296028009135"><ele>361.0</ele><time>2026-05-02T08:52:04.999Z</time></trkpt><trkpt lat="42.87094663409662" lon="13.452292862146404"><ele>361.0</ele><time>2026-05-02T08:52:05.999Z</time></trkpt><trkpt lat="42.87103738487998" lon="13.452320405713486"><ele>361.0</ele><time>2026-05-02T08:52:06.999Z</time></trkpt><trkpt lat="42.87111240779757" lon="13.452371131313802"><ele>361.0</ele><time>2026-05-02T08:52:07.999Z</time></trkpt><trkpt lat="42.8712219020136" lon="13.452449405474496"><ele>361.0</ele><time>2026-05-02T08:52:08.999Z</time></trkpt><trkpt lat="42.871264900733614" lon="13.45255175422014"><ele>361.0</ele><time>2026-05-02T08:52:09.999Z</time></trkpt><trkpt lat="42.87123410922733" lon="13.45268914165866"><ele>361.0</ele><time>2026-05-02T08:52:10.999Z</time></trkpt><trkpt lat="42.87117317112666" lon="13.452800296077635"><ele>361.0</ele><time>2026-05-02T08:52:11.999Z</time></trkpt><trkpt lat="42.871057188453655" lon="13.452880861049545"><ele>361.0</ele><time>2026-05-02T08:52:12.999Z</time></trkpt><trkpt lat="42.8709202893072" lon="13.453014983015827"><ele>361.0</ele><time>2026-05-02T08:52:13.999Z</time></trkpt><trkpt lat="42.870783963751954" lon="13.453172812468273"><ele>349.0</ele><time>2026-05-02T08:52:14.999Z</time></trkpt><trkpt lat="42.87063145275631" lon="13.453314984431003"><ele>337.0</ele><time>2026-05-02T08:52:15.999Z</time></trkpt><trkpt lat="42.87050752871431" lon="13.453436158928465"><ele>325.0</ele><time>2026-05-02T08:52:16.999Z</time></trkpt><trkpt lat="42.870404351299165" lon="13.453534396235193"><ele>325.0</ele><time>2026-05-02T08:52:17.999Z</time></trkpt><trkpt lat="42.87031585383028" lon="13.453618503852969"><ele>325.0</ele><time>2026-05-02T08:52:18.999Z</time></trkpt><trkpt lat="42.87027115758206" lon="13.453699751807926"><ele>325.0</ele><time>2026-05-02T08:52:19.999Z</time></trkpt><trkpt lat="42.87025117172592" lon="13.453845774978788"><ele>325.0</ele><time>2026-05-02T08:52:20.999Z</time></trkpt><trkpt lat="42.870268552330515" lon="13.453988221577157"><ele>325.0</ele><time>2026-05-02T08:52:21.999Z</time></trkpt><trkpt lat="42.87034239512724" lon="13.454133003288844"><ele>326.0</ele><time>2026-05-02T08:52:22.999Z</time></trkpt><trkpt lat="42.870447644831046" lon="13.454249426669392"><ele>327.0</ele><time>2026-05-02T08:52:23.999Z</time></trkpt><trkpt lat="42.870583589105294" lon="13.454354875396644"><ele>328.0</ele><time>2026-05-02T08:52:24.999Z</time></trkpt><trkpt lat="42.87072268498037" lon="13.45447086310733"><ele>328.0</ele><time>2026-05-02T08:52:25.999Z</time></trkpt><trkpt lat="42.87083388034604" lon="13.454586371428622"><ele>328.0</ele><time>2026-05-02T08:52:26.999Z</time></trkpt><trkpt lat="42.870927737408365" lon="13.454702373336062"><ele>328.0</ele><time>2026-05-02T08:52:27.999Z</time></trkpt><trkpt lat="42.8709623557808" lon="13.454849304760396"><ele>328.0</ele><time>2026-05-02T08:52:28.999Z</time></trkpt><trkpt lat="42.870979618578176" lon="13.455009621032174"><ele>329.0</ele><time>2026-05-02T08:52:29.999Z</time></trkpt><trkpt lat="42.870972980370176" lon="13.455228267395354"><ele>330.0</ele><time>2026-05-02T08:52:30.999Z</time></trkpt><trkpt lat="42.87095404601512" lon="13.45546394829942"><ele>331.0</ele><time>2026-05-02T08:52:31.999Z</time></trkpt><trkpt lat="42.870929530661776" lon="13.455709321708877"><ele>331.0</ele><time>2026-05-02T08:52:32.999Z</time></trkpt><trkpt lat="42.870902873546655" lon="13.455950341908114"><ele>331.0</ele><time>2026-05-02T08:52:33.999Z</time></trkpt><trkpt lat="42.870875003707276" lon="13.456200241342335"><ele>331.0</ele><time>2026-05-02T08:52:34.999Z</time></trkpt><trkpt lat="42.87086041600295" lon="13.456457309224897"><ele>329.0</ele><time>2026-05-02T08:52:35.999Z</time></trkpt><trkpt lat="42.87082589534204" lon="13.456719781098114"><ele>327.0</ele><time>2026-05-02T08:52:36.999Z</time></trkpt><trkpt lat="42.87079369486492" lon="13.456990665769027"><ele>325.0</ele><time>2026-05-02T08:52:37.999Z</time></trkpt><trkpt lat="42.87077960776869" lon="13.457272879392137"><ele>324.66666666666663</ele><time>2026-05-02T08:52:38.999Z</time></trkpt><trkpt lat="42.87077836994837" lon="13.457554995492275"><ele>324.3333333333333</ele><time>2026-05-02T08:52:39.999Z</time></trkpt><trkpt lat="42.8707880401174" lon="13.457828369162547"><ele>324.0</ele><time>2026-05-02T08:52:40.999Z</time></trkpt><trkpt lat="42.87080085564943" lon="13.458105907005626"><ele>323.3333333333333</ele><time>2026-05-02T08:52:41.999Z</time></trkpt><trkpt lat="42.8708109706048" lon="13.458388654834076"><ele>322.66666666666663</ele><time>2026-05-02T08:52:42.999Z</time></trkpt><trkpt lat="42.87080888441461" lon="13.458657958935976"><ele>322.0</ele><time>2026-05-02T08:52:43.999Z</time></trkpt><trkpt lat="42.87079957025953" lon="13.458919419419946"><ele>320.0</ele><time>2026-05-02T08:52:44.999Z</time></trkpt><trkpt lat="42.870769494677745" lon="13.459154051837752"><ele>318.0</ele><time>2026-05-02T08:52:45.999Z</time></trkpt><trkpt lat="42.870696924537754" lon="13.459379792962045"><ele>316.0</ele><time>2026-05-02T08:52:46.999Z</time></trkpt><trkpt lat="42.87063563044798" lon="13.459622675991058"><ele>315.3333333333333</ele><time>2026-05-02T08:52:47.999Z</time></trkpt><trkpt lat="42.87055426733868" lon="13.459864618208368"><ele>314.6666666666667</ele><time>2026-05-02T08:52:48.999Z</time></trkpt><trkpt lat="42.87047419876659" lon="13.460113151946125"><ele>314.0</ele><time>2026-05-02T08:52:49.999Z</time></trkpt><trkpt lat="42.870396528911904" lon="13.460369157934132"><ele>312.0</ele><time>2026-05-02T08:52:51Z</time></trkpt><trkpt lat="42.87031815917098" lon="13.46062643408691"><ele>310.0</ele><time>2026-05-02T08:52:52Z</time></trkpt><trkpt lat="42.87024141800382" lon="13.460891468845317"><ele>308.0</ele><time>2026-05-02T08:52:53Z</time></trkpt><trkpt lat="42.8701626495875" lon="13.461157776340409"><ele>311.0</ele><time>2026-05-02T08:52:54Z</time></trkpt><trkpt lat="42.8700822736564" lon="13.461426726593281"><ele>314.0</ele><time>2026-05-02T08:52:55Z</time></trkpt><trkpt lat="42.86999996598125" lon="13.461696610817294"><ele>317.0</ele><time>2026-05-02T08:52:56Z</time></trkpt><trkpt lat="42.86991910055424" lon="13.461961635438808"><ele>314.6666666666667</ele><time>2026-05-02T08:52:57Z</time></trkpt><trkpt lat="42.86983694716256" lon="13.462231443179064"><ele>312.3333333333333</ele><time>2026-05-02T08:52:58Z</time></trkpt><trkpt lat="42.86975308216686" lon="13.46250924555217"><ele>310.0</ele><time>2026-05-02T08:52:59Z</time></trkpt><trkpt lat="42.86967369548445" lon="13.462792378563348"><ele>308.0</ele><time>2026-05-02T08:53:00Z</time></trkpt><trkpt lat="42.86958899493145" lon="13.463076217703176"><ele>306.0</ele><time>2026-05-02T08:53:01Z</time></trkpt><trkpt lat="42.869509685143306" lon="13.463350729075904"><ele>304.0</ele><time>2026-05-02T08:53:02Z</time></trkpt><trkpt lat="42.869424588246694" lon="13.463599836665896"><ele>304.66666666666663</ele><time>2026-05-02T08:53:03Z</time></trkpt><trkpt lat="42.86932664258494" lon="13.463819373029892"><ele>305.3333333333333</ele><time>2026-05-02T08:53:04Z</time></trkpt><trkpt lat="42.8692063876273" lon="13.464013991446393"><ele>306.0</ele><time>2026-05-02T08:53:05Z</time></trkpt><trkpt lat="42.869066994942095" lon="13.464205668277792"><ele>306.0</ele><time>2026-05-02T08:53:06Z</time></trkpt><trkpt lat="42.868921354865826" lon="13.46439522174213"><ele>306.0</ele><time>2026-05-02T08:53:07Z</time></trkpt><trkpt lat="42.86876504352522" lon="13.464592579156324"><ele>306.0</ele><time>2026-05-02T08:53:08Z</time></trkpt><trkpt lat="42.868606771004366" lon="13.464791260887285"><ele>308.6666666666667</ele><time>2026-05-02T08:53:09Z</time></trkpt><trkpt lat="42.868441874405384" lon="13.464994783077113"><ele>311.33333333333337</ele><time>2026-05-02T08:53:10Z</time></trkpt><trkpt lat="42.868275474097196" lon="13.465201994796077"><ele>314.0</ele><time>2026-05-02T08:53:11Z</time></trkpt><trkpt lat="42.868102592236355" lon="13.465425338675814"><ele>309.5</ele><time>2026-05-02T08:53:12Z</time></trkpt><trkpt lat="42.86792992260063" lon="13.465655119203511"><ele>305.0</ele><time>2026-05-02T08:53:13Z</time></trkpt><trkpt lat="42.86774808233687" lon="13.465879657666758"><ele>305.0</ele><time>2026-05-02T08:53:13.999Z</time></trkpt><trkpt lat="42.86757354311307" lon="13.466115740042873"><ele>305.0</ele><time>2026-05-02T08:53:14.999Z</time></trkpt><trkpt lat="42.867381519534256" lon="13.46635409167753"><ele>305.0</ele><time>2026-05-02T08:53:15.999Z</time></trkpt><trkpt lat="42.86720092885776" lon="13.466580598683588"><ele>305.0</ele><time>2026-05-02T08:53:16.999Z</time></trkpt><trkpt lat="42.86703665110405" lon="13.46678691439716"><ele>305.0</ele><time>2026-05-02T08:53:17.999Z</time></trkpt><trkpt lat="42.86687739938426" lon="13.466995564379374"><ele>305.0</ele><time>2026-05-02T08:53:18.999Z</time></trkpt><trkpt lat="42.866724122987705" lon="13.46720444706435"><ele>305.0</ele><time>2026-05-02T08:53:19.999Z</time></trkpt><trkpt lat="42.86657118894656" lon="13.467410245255289"><ele>305.6666666666667</ele><time>2026-05-02T08:53:20.999Z</time></trkpt><trkpt lat="42.866414936420654" lon="13.46761026266292"><ele>306.3333333333333</ele><time>2026-05-02T08:53:21.999Z</time></trkpt><trkpt lat="42.86625993365645" lon="13.467814099914516"><ele>307.0</ele><time>2026-05-02T08:53:22.999Z</time></trkpt><trkpt lat="42.86610833159921" lon="13.468029952252746"><ele>305.0</ele><time>2026-05-02T08:53:23.999Z</time></trkpt><trkpt lat="42.86597130478208" lon="13.468253803147565"><ele>303.0</ele><time>2026-05-02T08:53:24.999Z</time></trkpt><trkpt lat="42.865853038791016" lon="13.468480967319323"><ele>301.0</ele><time>2026-05-02T08:53:25.999Z</time></trkpt><trkpt lat="42.86575340092025" lon="13.468701398016334"><ele>303.3333333333333</ele><time>2026-05-02T08:53:26.999Z</time></trkpt><trkpt lat="42.86566424602074" lon="13.468888819083777"><ele>305.6666666666667</ele><time>2026-05-02T08:53:27.999Z</time></trkpt><trkpt lat="42.86558367804856" lon="13.469063606939539"><ele>308.0</ele><time>2026-05-02T08:53:28.999Z</time></trkpt><trkpt lat="42.8654967454809" lon="13.469236227502643"><ele>308.0</ele><time>2026-05-02T08:53:29.999Z</time></trkpt><trkpt lat="42.86541337637943" lon="13.469400366040604"><ele>308.0</ele><time>2026-05-02T08:53:30.999Z</time></trkpt><trkpt lat="42.865333967329725" lon="13.469557073897585"><ele>308.0</ele><time>2026-05-02T08:53:31.999Z</time></trkpt><trkpt lat="42.865261481735665" lon="13.469698263176136"><ele>308.0</ele><time>2026-05-02T08:53:32.999Z</time></trkpt><trkpt lat="42.86519122790615" lon="13.469836774961653"><ele>310.5</ele><time>2026-05-02T08:53:33.999Z</time></trkpt><trkpt lat="42.865120296118725" lon="13.469980390333227"><ele>313.0</ele><time>2026-05-02T08:53:34.999Z</time></trkpt><trkpt lat="42.865048472262764" lon="13.470128754049137"><ele>315.5</ele><time>2026-05-02T08:53:35.999Z</time></trkpt><trkpt lat="42.86497531162388" lon="13.47027498391021"><ele>318.0</ele><time>2026-05-02T08:53:36.999Z</time></trkpt><trkpt lat="42.8649041419686" lon="13.470424144570538"><ele>314.0</ele><time>2026-05-02T08:53:37.998Z</time></trkpt><trkpt lat="42.86483426636691" lon="13.470565293986628"><ele>310.0</ele><time>2026-05-02T08:53:38.998Z</time></trkpt><trkpt lat="42.86477136238749" lon="13.470693258461957"><ele>306.0</ele><time>2026-05-02T08:53:39.998Z</time></trkpt><trkpt lat="42.86471382446602" lon="13.470827821291929"><ele>302.0</ele><time>2026-05-02T08:53:40.998Z</time></trkpt><trkpt lat="42.86467069596455" lon="13.470964646938453"><ele>302.0</ele><time>2026-05-02T08:53:41.998Z</time></trkpt><trkpt lat="42.864651477694885" lon="13.471106098441052"><ele>302.0</ele><time>2026-05-02T08:53:42.998Z</time></trkpt><trkpt lat="42.86466464468669" lon="13.471260541532883"><ele>302.0</ele><time>2026-05-02T08:53:43.998Z</time></trkpt><trkpt lat="42.864685565886845" lon="13.471428509241832"><ele>302.0</ele><time>2026-05-02T08:53:44.998Z</time></trkpt><trkpt lat="42.864687818758114" lon="13.471602539620875"><ele>301.0</ele><time>2026-05-02T08:53:45.998Z</time></trkpt><trkpt lat="42.8646738152369" lon="13.471788365406494"><ele>300.0</ele><time>2026-05-02T08:53:46.998Z</time></trkpt><trkpt lat="42.86465672613949" lon="13.471977244847015"><ele>299.0</ele><time>2026-05-02T08:53:47.998Z</time></trkpt><trkpt lat="42.86463439076949" lon="13.472155646510128"><ele>298.0</ele><time>2026-05-02T08:53:48.998Z</time></trkpt><trkpt lat="42.86460322309616" lon="13.472314137525712"><ele>297.5</ele><time>2026-05-02T08:53:49.998Z</time></trkpt><trkpt lat="42.864558263477704" lon="13.472474707739973"><ele>297.0</ele><time>2026-05-02T08:53:50.998Z</time></trkpt><trkpt lat="42.86451324851476" lon="13.472636725936976"><ele>296.5</ele><time>2026-05-02T08:53:51.998Z</time></trkpt><trkpt lat="42.86446687577226" lon="13.472786926720339"><ele>296.0</ele><time>2026-05-02T08:53:52.998Z</time></trkpt><trkpt lat="42.86442178824083" lon="13.47292851523528"><ele>294.75</ele><time>2026-05-02T08:53:53.998Z</time></trkpt><trkpt lat="42.86437926694261" lon="13.47307033155722"><ele>293.5</ele><time>2026-05-02T08:53:54.998Z</time></trkpt><trkpt lat="42.864338040176" lon="13.473212763045094"><ele>292.25</ele><time>2026-05-02T08:53:55.998Z</time></trkpt><trkpt lat="42.86429550183392" lon="13.473359805602696"><ele>291.0</ele><time>2026-05-02T08:53:56.998Z</time></trkpt><trkpt lat="42.864248893352524" lon="13.473510541705817"><ele>292.40000000000003</ele><time>2026-05-02T08:53:57.998Z</time></trkpt><trkpt lat="42.86420194980063" lon="13.47366228536055"><ele>293.8</ele><time>2026-05-02T08:53:58.998Z</time></trkpt><trkpt lat="42.86415739756156" lon="13.473803069112744"><ele>295.20000000000005</ele><time>2026-05-02T08:53:59.998Z</time></trkpt><trkpt lat="42.864111666405" lon="13.473918895787861"><ele>296.6</ele><time>2026-05-02T08:54:00.998Z</time></trkpt><trkpt lat="42.86405036375733" lon="13.474030503533044"><ele>298.0</ele><time>2026-05-02T08:54:01.998Z</time></trkpt><trkpt lat="42.863942989387574" lon="13.474092401253369"><ele>298.0</ele><time>2026-05-02T08:54:02.998Z</time></trkpt><trkpt lat="42.86384052787224" lon="13.474150013300955"><ele>298.0</ele><time>2026-05-02T08:54:03.998Z</time></trkpt><trkpt lat="42.86374139245848" lon="13.474208281048929"><ele>298.0</ele><time>2026-05-02T08:54:04.998Z</time></trkpt><trkpt lat="42.863633835776575" lon="13.474271498455956"><ele>298.0</ele><time>2026-05-02T08:54:05.998Z</time></trkpt><trkpt lat="42.86353717312482" lon="13.47435242552732"><ele>298.0</ele><time>2026-05-02T08:54:06.998Z</time></trkpt><trkpt lat="42.86344032432327" lon="13.474383656773153"><ele>298.6</ele><time>2026-05-02T08:54:07.998Z</time></trkpt><trkpt lat="42.86335347740228" lon="13.474434188828377"><ele>299.20000000000005</ele><time>2026-05-02T08:54:08.998Z</time></trkpt><trkpt lat="42.86326003241862" lon="13.474488564762124"><ele>299.8</ele><time>2026-05-02T08:54:09.998Z</time></trkpt><trkpt lat="42.86316229996041" lon="13.474545435620788"><ele>300.40000000000003</ele><time>2026-05-02T08:54:10.998Z</time></trkpt><trkpt lat="42.8630580978271" lon="13.474606938925032"><ele>301.0</ele><time>2026-05-02T08:54:11.998Z</time></trkpt><trkpt lat="42.86295866548436" lon="13.474666211423775"><ele>300.2</ele><time>2026-05-02T08:54:12.998Z</time></trkpt><trkpt lat="42.862852672763275" lon="13.47472939470287"><ele>299.40000000000003</ele><time>2026-05-02T08:54:13.998Z</time></trkpt><trkpt lat="42.862747661522235" lon="13.474791992845786"><ele>298.6</ele><time>2026-05-02T08:54:14.998Z</time></trkpt><trkpt lat="42.862646546052254" lon="13.474852268682293"><ele>297.8</ele><time>2026-05-02T08:54:15.998Z</time></trkpt><trkpt lat="42.862550900100956" lon="13.474909285343873"><ele>297.0</ele><time>2026-05-02T08:54:16.998Z</time></trkpt><trkpt lat="42.86246860965078" lon="13.474958689704039"><ele>297.0</ele><time>2026-05-02T08:54:17.998Z</time></trkpt><trkpt lat="42.862396000712195" lon="13.475019082982662"><ele>297.0</ele><time>2026-05-02T08:54:18.998Z</time></trkpt><trkpt lat="42.86231605639002" lon="13.475067899008533"><ele>297.0</ele><time>2026-05-02T08:54:19.998Z</time></trkpt><trkpt lat="42.86222594548103" lon="13.475124821317515"><ele>297.0</ele><time>2026-05-02T08:54:20.998Z</time></trkpt><trkpt lat="42.862150173569674" lon="13.475183963172059"><ele>297.0</ele><time>2026-05-02T08:54:21.998Z</time></trkpt><trkpt lat="42.86207224942843" lon="13.475228593440967"><ele>297.0</ele><time>2026-05-02T08:54:22.998Z</time></trkpt><trkpt lat="42.86197401000592" lon="13.475247434746255"><ele>297.0</ele><time>2026-05-02T08:54:23.998Z</time></trkpt><trkpt lat="42.86189151106634" lon="13.475297510149169"><ele>297.0</ele><time>2026-05-02T08:54:24.998Z</time></trkpt><trkpt lat="42.86181120122928" lon="13.475346256734483"><ele>297.0</ele><time>2026-05-02T08:54:25.998Z</time></trkpt><trkpt lat="42.86172794417718" lon="13.475396792149875"><ele>297.0</ele><time>2026-05-02T08:54:26.998Z</time></trkpt><trkpt lat="42.86164912576915" lon="13.475444633502914"><ele>297.0</ele><time>2026-05-02T08:54:27.998Z</time></trkpt><trkpt lat="42.8615665266329" lon="13.475492229612176"><ele>297.0</ele><time>2026-05-02T08:54:28.998Z</time></trkpt><trkpt lat="42.86148704145163" lon="13.475537711889789"><ele>296.0</ele><time>2026-05-02T08:54:29.998Z</time></trkpt><trkpt lat="42.86140744747105" lon="13.47558261344018"><ele>295.0</ele><time>2026-05-02T08:54:30.998Z</time></trkpt><trkpt lat="42.86132717055042" lon="13.475627507188301"><ele>294.0</ele><time>2026-05-02T08:54:31.998Z</time></trkpt><trkpt lat="42.86125030888285" lon="13.475670491041479"><ele>293.0</ele><time>2026-05-02T08:54:32.998Z</time></trkpt><trkpt lat="42.86116848965517" lon="13.475716246338948"><ele>292.0</ele><time>2026-05-02T08:54:33.998Z</time></trkpt><trkpt lat="42.86108993080311" lon="13.475800434285354"><ele>291.0</ele><time>2026-05-02T08:54:34.998Z</time></trkpt><trkpt lat="42.86100179824661" lon="13.47584283174358"><ele>292.0</ele><time>2026-05-02T08:54:35.998Z</time></trkpt><trkpt lat="42.860923632881054" lon="13.47588628193385"><ele>293.0</ele><time>2026-05-02T08:54:36.998Z</time></trkpt><trkpt lat="42.860846972735565" lon="13.475932304900297"><ele>294.0</ele><time>2026-05-02T08:54:37.998Z</time></trkpt><trkpt lat="42.86076018117383" lon="13.475982963120916"><ele>295.0</ele><time>2026-05-02T08:54:38.998Z</time></trkpt><trkpt lat="42.860667996141515" lon="13.476001653459349"><ele>296.0</ele><time>2026-05-02T08:54:39.998Z</time></trkpt><trkpt lat="42.860589393289075" lon="13.476080497091063"><ele>296.0</ele><time>2026-05-02T08:54:40.998Z</time></trkpt><trkpt lat="42.86049652434022" lon="13.476133866483288"><ele>296.0</ele><time>2026-05-02T08:54:41.998Z</time></trkpt><trkpt lat="42.86039797033627" lon="13.476192674375778"><ele>296.0</ele><time>2026-05-02T08:54:42.998Z</time></trkpt><trkpt lat="42.86029521571027" lon="13.476248567698955"><ele>296.0</ele><time>2026-05-02T08:54:43.998Z</time></trkpt><trkpt lat="42.86018837135841" lon="13.476304477356033"><ele>296.0</ele><time>2026-05-02T08:54:44.998Z</time></trkpt><trkpt lat="42.86007657129296" lon="13.476369406172763"><ele>293.75</ele><time>2026-05-02T08:54:45.998Z</time></trkpt><trkpt lat="42.85995313933916" lon="13.476444608212313"><ele>291.5</ele><time>2026-05-02T08:54:46.998Z</time></trkpt><trkpt lat="42.859830578634416" lon="13.47651171374769"><ele>289.25</ele><time>2026-05-02T08:54:47.998Z</time></trkpt><trkpt lat="42.85970884998869" lon="13.47658922906369"><ele>287.0</ele><time>2026-05-02T08:54:48.998Z</time></trkpt><trkpt lat="42.859588917741306" lon="13.476666802828642"><ele>287.0</ele><time>2026-05-02T08:54:49.998Z</time></trkpt><trkpt lat="42.859478055899565" lon="13.476745752026494"><ele>287.0</ele><time>2026-05-02T08:54:50.997Z</time></trkpt><trkpt lat="42.85937597620065" lon="13.476827676437676"><ele>287.0</ele><time>2026-05-02T08:54:51.997Z</time></trkpt><trkpt lat="42.85927741366729" lon="13.476905642932914"><ele>287.0</ele><time>2026-05-02T08:54:52.997Z</time></trkpt><trkpt lat="42.85917790040979" lon="13.476972477214844"><ele>286.8</ele><time>2026-05-02T08:54:53.997Z</time></trkpt><trkpt lat="42.8590904285269" lon="13.477039740761867"><ele>286.6</ele><time>2026-05-02T08:54:54.997Z</time></trkpt><trkpt lat="42.85900315010222" lon="13.47712289232162"><ele>286.40000000000003</ele><time>2026-05-02T08:54:55.997Z</time></trkpt><trkpt lat="42.85890789464106" lon="13.477201110506604"><ele>286.2</ele><time>2026-05-02T08:54:56.999Z</time></trkpt><trkpt lat="42.858807879872046" lon="13.477284685599152"><ele>286.0</ele><time>2026-05-02T08:54:57.999Z</time></trkpt><trkpt lat="42.858707827253795" lon="13.477369624965455"><ele>286.0</ele><time>2026-05-02T08:54:58.999Z</time></trkpt><trkpt lat="42.858609200634795" lon="13.477453689323104"><ele>286.0</ele><time>2026-05-02T08:54:59.999Z</time></trkpt><trkpt lat="42.858502965275484" lon="13.47751561494704"><ele>286.0</ele><time>2026-05-02T08:55:00.999Z</time></trkpt><trkpt lat="42.858403917025434" lon="13.477595321760809"><ele>286.0</ele><time>2026-05-02T08:55:01.999Z</time></trkpt><trkpt lat="42.85830615314558" lon="13.477673995077716"><ele>286.5</ele><time>2026-05-02T08:55:02.999Z</time></trkpt><trkpt lat="42.85821556878821" lon="13.477768781516593"><ele>287.0</ele><time>2026-05-02T08:55:03.999Z</time></trkpt><trkpt lat="42.85811443792786" lon="13.477842684010744"><ele>287.5</ele><time>2026-05-02T08:55:04.999Z</time></trkpt><trkpt lat="42.858015338837134" lon="13.477924355393114"><ele>288.0</ele><time>2026-05-02T08:55:05.999Z</time></trkpt><trkpt lat="42.857916982828904" lon="13.47800782317137"><ele>287.25</ele><time>2026-05-02T08:55:06.999Z</time></trkpt><trkpt lat="42.85780903110862" lon="13.47807458142549"><ele>286.5</ele><time>2026-05-02T08:55:07.999Z</time></trkpt><trkpt lat="42.857713000484026" lon="13.478175151018199"><ele>285.75</ele><time>2026-05-02T08:55:08.999Z</time></trkpt><trkpt lat="42.85760970825124" lon="13.478259282182524"><ele>285.0</ele><time>2026-05-02T08:55:10Z</time></trkpt><trkpt lat="42.85750565812361" lon="13.478345011946587"><ele>285.0</ele><time>2026-05-02T08:55:11Z</time></trkpt><trkpt lat="42.857396227268104" lon="13.478429933613615"><ele>285.0</ele><time>2026-05-02T08:55:12Z</time></trkpt><trkpt lat="42.857284983926945" lon="13.478511323950045"><ele>285.0</ele><time>2026-05-02T08:55:13Z</time></trkpt><trkpt lat="42.85716952022175" lon="13.478573335493692"><ele>285.0</ele><time>2026-05-02T08:55:14Z</time></trkpt><trkpt lat="42.85706483105376" lon="13.47862307234135"><ele>285.0</ele><time>2026-05-02T08:55:15Z</time></trkpt><trkpt lat="42.856962017047884" lon="13.478685497983664"><ele>285.0</ele><time>2026-05-02T08:55:16Z</time></trkpt><trkpt lat="42.85685893461988" lon="13.478758276800777"><ele>285.0</ele><time>2026-05-02T08:55:17Z</time></trkpt><trkpt lat="42.85676241661514" lon="13.478834645497058"><ele>285.0</ele><time>2026-05-02T08:55:18Z</time></trkpt><trkpt lat="42.856659816326925" lon="13.478888686394853"><ele>284.25</ele><time>2026-05-02T08:55:19Z</time></trkpt><trkpt lat="42.856643429728614" lon="13.479090189044745"><ele>283.5</ele><time>2026-05-02T08:55:20Z</time></trkpt><trkpt lat="42.85656525742003" lon="13.479177553732974"><ele>282.75</ele><time>2026-05-02T08:55:21Z</time></trkpt><trkpt lat="42.85647812858712" lon="13.479253617697276"><ele>282.0</ele><time>2026-05-02T08:55:22Z</time></trkpt><trkpt lat="42.85638439187662" lon="13.479368738243576"><ele>282.0</ele><time>2026-05-02T08:55:23Z</time></trkpt><trkpt lat="42.856276911367544" lon="13.47947624917275"><ele>282.0</ele><time>2026-05-02T08:55:24Z</time></trkpt><trkpt lat="42.85617180173271" lon="13.47960155008247"><ele>282.0</ele><time>2026-05-02T08:55:25Z</time></trkpt><trkpt lat="42.85606191327278" lon="13.479730765338617"><ele>282.0</ele><time>2026-05-02T08:55:26Z</time></trkpt><trkpt lat="42.855948148793054" lon="13.479860140924826"><ele>281.5</ele><time>2026-05-02T08:55:27Z</time></trkpt><trkpt lat="42.85583783101998" lon="13.479994557532457"><ele>281.0</ele><time>2026-05-02T08:55:28Z</time></trkpt><trkpt lat="42.85572169258065" lon="13.480121415003618"><ele>280.5</ele><time>2026-05-02T08:55:29Z</time></trkpt><trkpt lat="42.855611628869354" lon="13.4802602504049"><ele>280.0</ele><time>2026-05-02T08:55:30Z</time></trkpt><trkpt lat="42.8554993522671" lon="13.480393242306947"><ele>280.5</ele><time>2026-05-02T08:55:31Z</time></trkpt><trkpt lat="42.85538436792279" lon="13.480522064538636"><ele>281.0</ele><time>2026-05-02T08:55:32Z</time></trkpt><trkpt lat="42.855276537373086" lon="13.480651521509184"><ele>281.5</ele><time>2026-05-02T08:55:33Z</time></trkpt><trkpt lat="42.855178596885985" lon="13.480798100528611"><ele>282.0</ele><time>2026-05-02T08:55:34Z</time></trkpt><trkpt lat="42.855062867389535" lon="13.480921665617718"><ele>282.0</ele><time>2026-05-02T08:55:35Z</time></trkpt><trkpt lat="42.854978668890396" lon="13.481070273679576"><ele>282.0</ele><time>2026-05-02T08:55:36Z</time></trkpt><trkpt lat="42.854894340522456" lon="13.481201304587621"><ele>282.0</ele><time>2026-05-02T08:55:37Z</time></trkpt><trkpt lat="42.85481791598756" lon="13.481326026392992"><ele>282.0</ele><time>2026-05-02T08:55:38Z</time></trkpt><trkpt lat="42.85473804138469" lon="13.48145303935872"><ele>280.0</ele><time>2026-05-02T08:55:39Z</time></trkpt><trkpt lat="42.854655541859195" lon="13.48159225050814"><ele>278.0</ele><time>2026-05-02T08:55:40Z</time></trkpt><trkpt lat="42.85457617935792" lon="13.481737893518334"><ele>276.0</ele><time>2026-05-02T08:55:41Z</time></trkpt><trkpt lat="42.854512209630236" lon="13.481914044472997"><ele>274.0</ele><time>2026-05-02T08:55:42Z</time></trkpt><trkpt lat="42.85446384889363" lon="13.482103065840342"><ele>272.5</ele><time>2026-05-02T08:55:43Z</time></trkpt><trkpt lat="42.85443016549605" lon="13.482299522226986"><ele>271.0</ele><time>2026-05-02T08:55:44Z</time></trkpt><trkpt lat="42.85440140862826" lon="13.482485360305619"><ele>269.5</ele><time>2026-05-02T08:55:45Z</time></trkpt><trkpt lat="42.85437295877826" lon="13.482658492262635"><ele>268.0</ele><time>2026-05-02T08:55:46Z</time></trkpt><trkpt lat="42.85434069698779" lon="13.482826832054691"><ele>267.5</ele><time>2026-05-02T08:55:47Z</time></trkpt><trkpt lat="42.85429734135265" lon="13.482992579375226"><ele>267.0</ele><time>2026-05-02T08:55:48Z</time></trkpt><trkpt lat="42.85424848693242" lon="13.483170840808484"><ele>266.5</ele><time>2026-05-02T08:55:49Z</time></trkpt><trkpt lat="42.85419073946216" lon="13.483337173431627"><ele>266.0</ele><time>2026-05-02T08:55:50Z</time></trkpt><trkpt lat="42.85412848997208" lon="13.483490523799752"><ele>266.5</ele><time>2026-05-02T08:55:51Z</time></trkpt><trkpt lat="42.85405677486371" lon="13.483622571844716"><ele>267.0</ele><time>2026-05-02T08:55:52Z</time></trkpt><trkpt lat="42.85394329431069" lon="13.483712067901715"><ele>267.5</ele><time>2026-05-02T08:55:53Z</time></trkpt><trkpt lat="42.85382369444491" lon="13.483806187519827"><ele>268.0</ele><time>2026-05-02T08:55:54Z</time></trkpt><trkpt lat="42.85369863039684" lon="13.48390622025019"><ele>268.0</ele><time>2026-05-02T08:55:55Z</time></trkpt><trkpt lat="42.85355891222205" lon="13.48395551874996"><ele>268.0</ele><time>2026-05-02T08:55:56Z</time></trkpt><trkpt lat="42.85341626345659" lon="13.484020807991051"><ele>268.0</ele><time>2026-05-02T08:55:57Z</time></trkpt><trkpt lat="42.85327391254914" lon="13.484100092221627"><ele>268.0</ele><time>2026-05-02T08:55:58Z</time></trkpt><trkpt lat="42.85313157095352" lon="13.484141858676892"><ele>268.25</ele><time>2026-05-02T08:55:59Z</time></trkpt><trkpt lat="42.8529933376396" lon="13.484172744362322"><ele>268.5</ele><time>2026-05-02T08:56:00Z</time></trkpt><trkpt lat="42.85285042302147" lon="13.484180266964733"><ele>268.75</ele><time>2026-05-02T08:56:01Z</time></trkpt><trkpt lat="42.85270962045488" lon="13.484153546989257"><ele>269.0</ele><time>2026-05-02T08:56:02Z</time></trkpt><trkpt lat="42.85258023145606" lon="13.484108963186388"><ele>269.0</ele><time>2026-05-02T08:56:03Z</time></trkpt><trkpt lat="42.8524539448733" lon="13.484066182313807"><ele>269.0</ele><time>2026-05-02T08:56:04Z</time></trkpt><trkpt lat="42.852319810715386" lon="13.484035925627591"><ele>269.0</ele><time>2026-05-02T08:56:05Z</time></trkpt><trkpt lat="42.85219538113837" lon="13.484020742473378"><ele>269.0</ele><time>2026-05-02T08:56:06Z</time></trkpt><trkpt lat="42.85207525004774" lon="13.484034111765212"><ele>269.0</ele><time>2026-05-02T08:56:07Z</time></trkpt><trkpt lat="42.851958056114455" lon="13.484076268696782"><ele>269.0</ele><time>2026-05-02T08:56:07.999Z</time></trkpt><trkpt lat="42.85183818869028" lon="13.484160359814718"><ele>269.0</ele><time>2026-05-02T08:56:08.999Z</time></trkpt><trkpt lat="42.851718162530254" lon="13.484279814086774"><ele>269.0</ele><time>2026-05-02T08:56:09.999Z</time></trkpt><trkpt lat="42.851603973406476" lon="13.484424707853355"><ele>267.33333333333337</ele><time>2026-05-02T08:56:10.999Z</time></trkpt><trkpt lat="42.85149419152399" lon="13.484586258847838"><ele>265.6666666666667</ele><time>2026-05-02T08:56:11.999Z</time></trkpt><trkpt lat="42.851382510829744" lon="13.484760021334662"><ele>264.0</ele><time>2026-05-02T08:56:12.999Z</time></trkpt><trkpt lat="42.851266408837446" lon="13.484936261824474"><ele>264.0</ele><time>2026-05-02T08:56:13.999Z</time></trkpt><trkpt lat="42.851146768717065" lon="13.485116646672047"><ele>264.0</ele><time>2026-05-02T08:56:14.999Z</time></trkpt><trkpt lat="42.851032363400584" lon="13.485290683845568"><ele>264.0</ele><time>2026-05-02T08:56:15.999Z</time></trkpt><trkpt lat="42.85091935862111" lon="13.485468930889155"><ele>264.0</ele><time>2026-05-02T08:56:16.999Z</time></trkpt><trkpt lat="42.850804679019575" lon="13.485650056412597"><ele>264.0</ele><time>2026-05-02T08:56:17.999Z</time></trkpt><trkpt lat="42.850690707006564" lon="13.485830265527362"><ele>264.0</ele><time>2026-05-02T08:56:18.999Z</time></trkpt><trkpt lat="42.85057381179004" lon="13.486005647039024"><ele>264.0</ele><time>2026-05-02T08:56:19.999Z</time></trkpt><trkpt lat="42.85045764298869" lon="13.486180842936937"><ele>264.0</ele><time>2026-05-02T08:56:20.999Z</time></trkpt><trkpt lat="42.850345690570556" lon="13.486352966685187"><ele>264.0</ele><time>2026-05-02T08:56:21.999Z</time></trkpt><trkpt lat="42.85024116395977" lon="13.48651571790366"><ele>263.75</ele><time>2026-05-02T08:56:22.999Z</time></trkpt><trkpt lat="42.850142271022435" lon="13.486669792362237"><ele>263.5</ele><time>2026-05-02T08:56:23.999Z</time></trkpt><trkpt lat="42.850053428741354" lon="13.486821748827602"><ele>263.25</ele><time>2026-05-02T08:56:24.999Z</time></trkpt><trkpt lat="42.84997753262332" lon="13.486975955212786"><ele>263.0</ele><time>2026-05-02T08:56:25.999Z</time></trkpt><trkpt lat="42.84991403941373" lon="13.48713108552836"><ele>263.0</ele><time>2026-05-02T08:56:26.999Z</time></trkpt><trkpt lat="42.849860292266726" lon="13.487284080234184"><ele>263.0</ele><time>2026-05-02T08:56:27.999Z</time></trkpt><trkpt lat="42.84981841955085" lon="13.487438299350432"><ele>263.0</ele><time>2026-05-02T08:56:28.999Z</time></trkpt><trkpt lat="42.84978977336325" lon="13.48758811349633"><ele>263.0</ele><time>2026-05-02T08:56:29.999Z</time></trkpt><trkpt lat="42.84975868869749" lon="13.487739577538335"><ele>263.0</ele><time>2026-05-02T08:56:30.999Z</time></trkpt><trkpt lat="42.84972204021667" lon="13.487885125941629"><ele>263.0</ele><time>2026-05-02T08:56:31.999Z</time></trkpt><trkpt lat="42.84967341167379" lon="13.488024554033363"><ele>263.0</ele><time>2026-05-02T08:56:32.999Z</time></trkpt><trkpt lat="42.84961511285698" lon="13.488172569795356"><ele>263.0</ele><time>2026-05-02T08:56:33.999Z</time></trkpt><trkpt lat="42.84954800827183" lon="13.48830587333369"><ele>262.4</ele><time>2026-05-02T08:56:34.999Z</time></trkpt><trkpt lat="42.84947803013327" lon="13.488426136715127"><ele>261.8</ele><time>2026-05-02T08:56:35.999Z</time></trkpt><trkpt lat="42.84941124502916" lon="13.48854692637176"><ele>261.2</ele><time>2026-05-02T08:56:36.999Z</time></trkpt><trkpt lat="42.84934931827038" lon="13.488663530706756"><ele>260.6</ele><time>2026-05-02T08:56:37.999Z</time></trkpt><trkpt lat="42.84929233134486" lon="13.488779310157842"><ele>260.0</ele><time>2026-05-02T08:56:38.999Z</time></trkpt><trkpt lat="42.84923434553971" lon="13.48889422309913"><ele>260.0</ele><time>2026-05-02T08:56:39.999Z</time></trkpt><trkpt lat="42.849175353964156" lon="13.488996669760022"><ele>260.0</ele><time>2026-05-02T08:56:40.999Z</time></trkpt><trkpt lat="42.84911999429441" lon="13.489100258428683"><ele>260.0</ele><time>2026-05-02T08:56:41.999Z</time></trkpt><trkpt lat="42.849067909545255" lon="13.489202454149556"><ele>260.0</ele><time>2026-05-02T08:56:42.999Z</time></trkpt><trkpt lat="42.84901651318722" lon="13.48929949258011"><ele>260.0</ele><time>2026-05-02T08:56:43.999Z</time></trkpt><trkpt lat="42.84896325982122" lon="13.489393497746503"><ele>260.0</ele><time>2026-05-02T08:56:44.999Z</time></trkpt><trkpt lat="42.848910255019916" lon="13.489480948139834"><ele>260.0</ele><time>2026-05-02T08:56:45.999Z</time></trkpt><trkpt lat="42.848850031441366" lon="13.48954671508638"><ele>260.0</ele><time>2026-05-02T08:56:46.999Z</time></trkpt><trkpt lat="42.848779864971625" lon="13.489595306356088"><ele>260.0</ele><time>2026-05-02T08:56:47.999Z</time></trkpt><trkpt lat="42.848686886074546" lon="13.489615425535085"><ele>260.0</ele><time>2026-05-02T08:56:48.999Z</time></trkpt><trkpt lat="42.848573730146924" lon="13.489607750006872"><ele>260.0</ele><time>2026-05-02T08:56:49.999Z</time></trkpt><trkpt lat="42.84846767022861" lon="13.489530559726203"><ele>259.5</ele><time>2026-05-02T08:56:50.999Z</time></trkpt><trkpt lat="42.848350602718284" lon="13.489436329569093"><ele>259.0</ele><time>2026-05-02T08:56:51.999Z</time></trkpt><trkpt lat="42.848236731210875" lon="13.489321746559401"><ele>258.5</ele><time>2026-05-02T08:56:52.999Z</time></trkpt><trkpt lat="42.8481087374601" lon="13.489201879736736"><ele>258.0</ele><time>2026-05-02T08:56:53.999Z</time></trkpt><trkpt lat="42.84798236175747" lon="13.489049233264497"><ele>258.0</ele><time>2026-05-02T08:56:54.999Z</time></trkpt><trkpt lat="42.84784438507263" lon="13.488891246131168"><ele>258.0</ele><time>2026-05-02T08:56:55.999Z</time></trkpt><trkpt lat="42.847696437454665" lon="13.488726780693097"><ele>258.0</ele><time>2026-05-02T08:56:56.999Z</time></trkpt><trkpt lat="42.84754988016972" lon="13.488566791828363"><ele>259.0</ele><time>2026-05-02T08:56:57.999Z</time></trkpt><trkpt lat="42.84738999906922" lon="13.488408031780738"><ele>260.0</ele><time>2026-05-02T08:56:58.999Z</time></trkpt><trkpt lat="42.84720651503359" lon="13.488272662228665"><ele>261.0</ele><time>2026-05-02T08:56:59.999Z</time></trkpt><trkpt lat="42.84702094955576" lon="13.48813899080124"><ele>261.0</ele><time>2026-05-02T08:57:00.999Z</time></trkpt><trkpt lat="42.84685687493456" lon="13.48801734811192"><ele>261.0</ele><time>2026-05-02T08:57:01.999Z</time></trkpt><trkpt lat="42.8467012024847" lon="13.487903530601448"><ele>261.0</ele><time>2026-05-02T08:57:03Z</time></trkpt><trkpt lat="42.84655684002698" lon="13.487807441719537"><ele>262.6666666666667</ele><time>2026-05-02T08:57:04Z</time></trkpt><trkpt lat="42.84640632343333" lon="13.487733729497464"><ele>264.33333333333337</ele><time>2026-05-02T08:57:05Z</time></trkpt><trkpt lat="42.84624169156269" lon="13.487691217476828"><ele>266.0</ele><time>2026-05-02T08:57:06Z</time></trkpt><trkpt lat="42.84606245748246" lon="13.48768097751033"><ele>264.6666666666667</ele><time>2026-05-02T08:57:07Z</time></trkpt><trkpt lat="42.84586563900405" lon="13.487679688362665"><ele>263.3333333333333</ele><time>2026-05-02T08:57:08Z</time></trkpt><trkpt lat="42.845657140028436" lon="13.48769154801399"><ele>262.0</ele><time>2026-05-02T08:57:09Z</time></trkpt><trkpt lat="42.84546599960814" lon="13.487698052751513"><ele>262.0</ele><time>2026-05-02T08:57:10Z</time></trkpt><trkpt lat="42.84529272377764" lon="13.487722726098783"><ele>262.0</ele><time>2026-05-02T08:57:11Z</time></trkpt><trkpt lat="42.84511378908814" lon="13.487768029299321"><ele>262.0</ele><time>2026-05-02T08:57:12Z</time></trkpt><trkpt lat="42.84492243187869" lon="13.487800331794448"><ele>262.3333333333333</ele><time>2026-05-02T08:57:13Z</time></trkpt><trkpt lat="42.84473031011942" lon="13.487855466152322"><ele>262.6666666666667</ele><time>2026-05-02T08:57:14Z</time></trkpt><trkpt lat="42.844535832212074" lon="13.487932818140994"><ele>263.0</ele><time>2026-05-02T08:57:15Z</time></trkpt><trkpt lat="42.84432962860507" lon="13.4879921876991"><ele>258.6666666666667</ele><time>2026-05-02T08:57:16Z</time></trkpt><trkpt lat="42.844119599579635" lon="13.488030713743818"><ele>254.33333333333331</ele><time>2026-05-02T08:57:17Z</time></trkpt><trkpt lat="42.84391074079487" lon="13.488090288509595"><ele>250.0</ele><time>2026-05-02T08:57:18Z</time></trkpt><trkpt lat="42.843719314779825" lon="13.48814552193955"><ele>250.0</ele><time>2026-05-02T08:57:19Z</time></trkpt><trkpt lat="42.84353995467547" lon="13.488196188635955"><ele>250.0</ele><time>2026-05-02T08:57:20Z</time></trkpt><trkpt lat="42.84338781711254" lon="13.488255041402299"><ele>250.0</ele><time>2026-05-02T08:57:21Z</time></trkpt><trkpt lat="42.84325751644619" lon="13.488294579738099"><ele>250.8</ele><time>2026-05-02T08:57:22Z</time></trkpt><trkpt lat="42.84315107002822" lon="13.48831708258524"><ele>251.6</ele><time>2026-05-02T08:57:23Z</time></trkpt><trkpt lat="42.84304115508225" lon="13.488353370363283"><ele>252.39999999999998</ele><time>2026-05-02T08:57:24Z</time></trkpt><trkpt lat="42.8429391468056" lon="13.488378806723913"><ele>253.2</ele><time>2026-05-02T08:57:25Z</time></trkpt><trkpt lat="42.84285750727647" lon="13.488401240795973"><ele>254.0</ele><time>2026-05-02T08:57:26Z</time></trkpt><trkpt lat="42.84275310085827" lon="13.488450753958306"><ele>254.0</ele><time>2026-05-02T08:57:28Z</time></trkpt><trkpt lat="42.84274871780154" lon="13.488547998567864"><ele>254.0</ele><time>2026-05-02T08:57:30Z</time></trkpt><trkpt lat="42.84284763605965" lon="13.488573377935667"><ele>254.0</ele><time>2026-05-02T08:57:34Z</time></trkpt><trkpt lat="42.84291154345982" lon="13.488595187651365"><ele>254.0</ele><time>2026-05-02T08:57:53Z</time></trkpt><trkpt lat="42.84297954880819" lon="13.488582131495688"><ele>254.0</ele><time>2026-05-02T09:02:17Z</time></trkpt><trkpt lat="42.8430458306742" lon="13.488562013153437"><ele>254.0</ele><time>2026-05-02T09:02:20Z</time></trkpt><trkpt lat="42.84309978970173" lon="13.488505314641278"><ele>254.0</ele><time>2026-05-02T09:02:24Z</time></trkpt><trkpt lat="42.8430795015613" lon="13.488400983335072"><ele>254.0</ele><time>2026-05-02T09:08:28.999Z</time></trkpt><trkpt lat="42.84299650943029" lon="13.488385684866937"><ele>253.99999999999997</ele><time>2026-05-02T09:09:25.998Z</time></trkpt><trkpt lat="42.84290750872331" lon="13.488371121214799"><ele>253.99999999999997</ele><time>2026-05-02T09:09:27.998Z</time></trkpt><trkpt lat="42.84283287953708" lon="13.488395455344754"><ele>254.0</ele><time>2026-05-02T09:09:28.998Z</time></trkpt><trkpt lat="42.84273532119898" lon="13.488422728381302"><ele>254.0</ele><time>2026-05-02T09:09:29.998Z</time></trkpt><trkpt lat="42.84263659091595" lon="13.48845404559768"><ele>255.0</ele><time>2026-05-02T09:09:30.998Z</time></trkpt><trkpt lat="42.84252793771621" lon="13.488485142150369"><ele>256.0</ele><time>2026-05-02T09:09:31.998Z</time></trkpt><trkpt lat="42.8424083920268" lon="13.48851718546235"><ele>257.0</ele><time>2026-05-02T09:09:32.998Z</time></trkpt><trkpt lat="42.84227597619468" lon="13.488555702820566"><ele>258.0</ele><time>2026-05-02T09:09:33.998Z</time></trkpt><trkpt lat="42.842149201566556" lon="13.48859263355511"><ele>258.0</ele><time>2026-05-02T09:09:34.998Z</time></trkpt><trkpt lat="42.84203266306874" lon="13.488626608565221"><ele>258.0</ele><time>2026-05-02T09:09:35.998Z</time></trkpt><trkpt lat="42.84191022368264" lon="13.488661563308874"><ele>258.0</ele><time>2026-05-02T09:09:36.998Z</time></trkpt><trkpt lat="42.84178596684774" lon="13.488698288956646"><ele>258.0</ele><time>2026-05-02T09:09:38Z</time></trkpt><trkpt lat="42.841658751333355" lon="13.488744826620293"><ele>255.25</ele><time>2026-05-02T09:09:39Z</time></trkpt><trkpt lat="42.84152641588773" lon="13.48880123053057"><ele>252.5</ele><time>2026-05-02T09:09:40Z</time></trkpt><trkpt lat="42.84138847013386" lon="13.488879320796913"><ele>249.75</ele><time>2026-05-02T09:09:41Z</time></trkpt><trkpt lat="42.841246754944905" lon="13.488964595191412"><ele>247.0</ele><time>2026-05-02T09:09:42Z</time></trkpt><trkpt lat="42.84111455257376" lon="13.489048820122509"><ele>247.0</ele><time>2026-05-02T09:09:43Z</time></trkpt><trkpt lat="42.840978677407236" lon="13.489120441760798"><ele>247.0</ele><time>2026-05-02T09:09:44Z</time></trkpt><trkpt lat="42.84084224827542" lon="13.489201891844012"><ele>247.0</ele><time>2026-05-02T09:09:45Z</time></trkpt><trkpt lat="42.840707425780344" lon="13.489286729484014"><ele>247.0</ele><time>2026-05-02T09:09:46Z</time></trkpt><trkpt lat="42.840590407028614" lon="13.489375922938478"><ele>246.25</ele><time>2026-05-02T09:09:47Z</time></trkpt><trkpt lat="42.84048347213317" lon="13.48950154059763"><ele>245.5</ele><time>2026-05-02T09:09:48Z</time></trkpt><trkpt lat="42.84038932344436" lon="13.489657844165636"><ele>244.75</ele><time>2026-05-02T09:09:49Z</time></trkpt><trkpt lat="42.8403035788752" lon="13.489830796617964"><ele>244.0</ele><time>2026-05-02T09:09:50Z</time></trkpt><trkpt lat="42.84023085205407" lon="13.490025794955912"><ele>244.0</ele><time>2026-05-02T09:09:51Z</time></trkpt><trkpt lat="42.84015427658406" lon="13.490220813318865"><ele>244.0</ele><time>2026-05-02T09:09:52Z</time></trkpt><trkpt lat="42.84007378194633" lon="13.490411864568497"><ele>244.0</ele><time>2026-05-02T09:09:53Z</time></trkpt><trkpt lat="42.83998795041524" lon="13.490607555275009"><ele>244.0</ele><time>2026-05-02T09:09:54Z</time></trkpt><trkpt lat="42.83989595137588" lon="13.49078913252538"><ele>244.0</ele><time>2026-05-02T09:09:55Z</time></trkpt><trkpt lat="42.83977271694268" lon="13.490939126807746"><ele>244.0</ele><time>2026-05-02T09:09:56Z</time></trkpt><trkpt lat="42.839643517310336" lon="13.49109322700854"><ele>244.0</ele><time>2026-05-02T09:09:57Z</time></trkpt><trkpt lat="42.83951124023934" lon="13.491251347643722"><ele>244.0</ele><time>2026-05-02T09:09:58Z</time></trkpt><trkpt lat="42.83939318266184" lon="13.49142652271896"><ele>244.0</ele><time>2026-05-02T09:09:59Z</time></trkpt><trkpt lat="42.839287997968434" lon="13.491591929717657"><ele>244.66666666666666</ele><time>2026-05-02T09:10:00Z</time></trkpt><trkpt lat="42.8391794863638" lon="13.491748045080548"><ele>245.33333333333331</ele><time>2026-05-02T09:10:01Z</time></trkpt><trkpt lat="42.83906510510943" lon="13.491894959920609"><ele>246.0</ele><time>2026-05-02T09:10:02Z</time></trkpt><trkpt lat="42.83894028586113" lon="13.4920335796605"><ele>243.66666666666669</ele><time>2026-05-02T09:10:02.999Z</time></trkpt><trkpt lat="42.83880584139993" lon="13.492157074244206"><ele>241.33333333333334</ele><time>2026-05-02T09:10:03.999Z</time></trkpt><trkpt lat="42.83866529142555" lon="13.492268107643717"><ele>239.0</ele><time>2026-05-02T09:10:04.999Z</time></trkpt><trkpt lat="42.838526091708665" lon="13.492397855444038"><ele>241.0</ele><time>2026-05-02T09:10:05.999Z</time></trkpt><trkpt lat="42.83837212258295" lon="13.49249363304954"><ele>243.0</ele><time>2026-05-02T09:10:06.999Z</time></trkpt><trkpt lat="42.838203937005446" lon="13.49258105368488"><ele>245.0</ele><time>2026-05-02T09:10:07.999Z</time></trkpt><trkpt lat="42.83802640807002" lon="13.492646293086258"><ele>245.0</ele><time>2026-05-02T09:10:08.999Z</time></trkpt><trkpt lat="42.837853140626365" lon="13.492709488746135"><ele>245.0</ele><time>2026-05-02T09:10:09.999Z</time></trkpt><trkpt lat="42.83770015697942" lon="13.492769113024451"><ele>245.0</ele><time>2026-05-02T09:10:10.999Z</time></trkpt><trkpt lat="42.83754160284995" lon="13.492825128956358"><ele>246.66666666666669</ele><time>2026-05-02T09:10:11.999Z</time></trkpt><trkpt lat="42.837381288091066" lon="13.492894600123321"><ele>248.33333333333331</ele><time>2026-05-02T09:10:12.999Z</time></trkpt><trkpt lat="42.83725881968129" lon="13.493043127378753"><ele>250.0</ele><time>2026-05-02T09:10:13.999Z</time></trkpt><trkpt lat="42.83710176770956" lon="13.493110089578405"><ele>245.66666666666666</ele><time>2026-05-02T09:10:14.999Z</time></trkpt><trkpt lat="42.8369322661241" lon="13.493133280947117"><ele>241.33333333333331</ele><time>2026-05-02T09:10:15.999Z</time></trkpt><trkpt lat="42.836754330962584" lon="13.493151087715697"><ele>237.0</ele><time>2026-05-02T09:10:16.999Z</time></trkpt><trkpt lat="42.83657459905764" lon="13.493159820982832"><ele>237.0</ele><time>2026-05-02T09:10:17.999Z</time></trkpt><trkpt lat="42.83638976786213" lon="13.493157012258912"><ele>237.0</ele><time>2026-05-02T09:10:18.999Z</time></trkpt><trkpt lat="42.83618504638078" lon="13.493142791452494"><ele>237.0</ele><time>2026-05-02T09:10:19.999Z</time></trkpt><trkpt lat="42.83596846812075" lon="13.493121757883568"><ele>235.33333333333331</ele><time>2026-05-02T09:10:20.999Z</time></trkpt><trkpt lat="42.83574739808656" lon="13.493120432268682"><ele>233.66666666666666</ele><time>2026-05-02T09:10:21.999Z</time></trkpt><trkpt lat="42.835541753533874" lon="13.493094240146489"><ele>232.0</ele><time>2026-05-02T09:10:22.999Z</time></trkpt><trkpt lat="42.835330792578596" lon="13.493077197643615"><ele>233.0</ele><time>2026-05-02T09:10:23.999Z</time></trkpt><trkpt lat="42.835131314263876" lon="13.493059922718837"><ele>234.0</ele><time>2026-05-02T09:10:24.999Z</time></trkpt><trkpt lat="42.83494976742859" lon="13.493050053530801"><ele>235.0</ele><time>2026-05-02T09:10:25.999Z</time></trkpt><trkpt lat="42.83477814107179" lon="13.493045600814364"><ele>235.0</ele><time>2026-05-02T09:10:26.999Z</time></trkpt><trkpt lat="42.83461650776301" lon="13.493068907288743"><ele>235.0</ele><time>2026-05-02T09:10:27.999Z</time></trkpt><trkpt lat="42.834458950542775" lon="13.493127165880466"><ele>235.0</ele><time>2026-05-02T09:10:28.999Z</time></trkpt><trkpt lat="42.83430697922915" lon="13.493215481641682"><ele>237.66666666666666</ele><time>2026-05-02T09:10:29.999Z</time></trkpt><trkpt lat="42.83416924384876" lon="13.49334972542981"><ele>240.33333333333331</ele><time>2026-05-02T09:10:30.999Z</time></trkpt><trkpt lat="42.834034579519574" lon="13.493517979064906"><ele>243.0</ele><time>2026-05-02T09:10:31.999Z</time></trkpt><trkpt lat="42.83388858698825" lon="13.49369766203027"><ele>240.66666666666669</ele><time>2026-05-02T09:10:32.999Z</time></trkpt><trkpt lat="42.83373344945438" lon="13.493879738824669"><ele>238.33333333333334</ele><time>2026-05-02T09:10:33.999Z</time></trkpt><trkpt lat="42.83357289540656" lon="13.494064433357046"><ele>236.0</ele><time>2026-05-02T09:10:34.999Z</time></trkpt><trkpt lat="42.83340818915149" lon="13.494268432033534"><ele>236.0</ele><time>2026-05-02T09:10:35.999Z</time></trkpt><trkpt lat="42.83323987199212" lon="13.494450332229432"><ele>236.0</ele><time>2026-05-02T09:10:36.999Z</time></trkpt><trkpt lat="42.8330700257436" lon="13.494634383601372"><ele>236.0</ele><time>2026-05-02T09:10:37.999Z</time></trkpt><trkpt lat="42.832919932664204" lon="13.494810108774091"><ele>235.0</ele><time>2026-05-02T09:10:38.999Z</time></trkpt><trkpt lat="42.83277960618182" lon="13.494972250234456"><ele>234.0</ele><time>2026-05-02T09:10:39.999Z</time></trkpt><trkpt lat="42.832642117092036" lon="13.495132966874174"><ele>233.0</ele><time>2026-05-02T09:10:40.999Z</time></trkpt><trkpt lat="42.832500080741696" lon="13.495287114422228"><ele>232.0</ele><time>2026-05-02T09:10:41.999Z</time></trkpt><trkpt lat="42.8323652905201" lon="13.495429670556492"><ele>231.0</ele><time>2026-05-02T09:10:42.999Z</time></trkpt><trkpt lat="42.83224064074582" lon="13.495565645952462"><ele>230.0</ele><time>2026-05-02T09:10:43.999Z</time></trkpt><trkpt lat="42.832109686012494" lon="13.4956936990931"><ele>230.0</ele><time>2026-05-02T09:10:44.999Z</time></trkpt><trkpt lat="42.83196837023683" lon="13.495761870788666"><ele>230.0</ele><time>2026-05-02T09:10:45.999Z</time></trkpt><trkpt lat="42.83181014424541" lon="13.495821680766756"><ele>230.0</ele><time>2026-05-02T09:10:46.999Z</time></trkpt><trkpt lat="42.831637676350745" lon="13.495866481940752"><ele>230.33333333333334</ele><time>2026-05-02T09:10:47.999Z</time></trkpt><trkpt lat="42.83145164005761" lon="13.495931868475331"><ele>230.66666666666669</ele><time>2026-05-02T09:10:48.999Z</time></trkpt><trkpt lat="42.83125740453181" lon="13.495983579368689"><ele>231.0</ele><time>2026-05-02T09:10:49.999Z</time></trkpt><trkpt lat="42.83105629721929" lon="13.496029991719418"><ele>231.66666666666669</ele><time>2026-05-02T09:10:50.999Z</time></trkpt><trkpt lat="42.83085361181901" lon="13.496080875485772"><ele>232.33333333333334</ele><time>2026-05-02T09:10:51.999Z</time></trkpt><trkpt lat="42.83065628921211" lon="13.496126372576407"><ele>233.0</ele><time>2026-05-02T09:10:52.999Z</time></trkpt><trkpt lat="42.8304592037783" lon="13.49613153704701"><ele>233.0</ele><time>2026-05-02T09:10:53.999Z</time></trkpt><trkpt lat="42.830261511713765" lon="13.496134292733327"><ele>233.0</ele><time>2026-05-02T09:10:54.999Z</time></trkpt><trkpt lat="42.83005475743562" lon="13.49612008913366"><ele>233.0</ele><time>2026-05-02T09:10:55.999Z</time></trkpt><trkpt lat="42.829838502321536" lon="13.496122844400915"><ele>232.66666666666669</ele><time>2026-05-02T09:10:56.999Z</time></trkpt><trkpt lat="42.82962279550704" lon="13.496096423825637"><ele>232.33333333333331</ele><time>2026-05-02T09:10:57.999Z</time></trkpt><trkpt lat="42.829404896739646" lon="13.496082292656343"><ele>232.0</ele><time>2026-05-02T09:10:58.999Z</time></trkpt><trkpt lat="42.8291845142147" lon="13.496064624357306"><ele>231.66666666666666</ele><time>2026-05-02T09:10:59.999Z</time></trkpt><trkpt lat="42.828965122102886" lon="13.496026996694678"><ele>231.33333333333331</ele><time>2026-05-02T09:11:00.999Z</time></trkpt><trkpt lat="42.828744231539005" lon="13.496032168775482"><ele>231.0</ele><time>2026-05-02T09:11:01.999Z</time></trkpt><trkpt lat="42.828524517016255" lon="13.49602048771366"><ele>230.66666666666669</ele><time>2026-05-02T09:11:02.999Z</time></trkpt><trkpt lat="42.828303576398035" lon="13.496028630259023"><ele>230.33333333333334</ele><time>2026-05-02T09:11:03.999Z</time></trkpt><trkpt lat="42.828088254839116" lon="13.496065940752162"><ele>230.0</ele><time>2026-05-02T09:11:04.999Z</time></trkpt><trkpt lat="42.82788132067417" lon="13.496122848481143"><ele>230.0</ele><time>2026-05-02T09:11:05.999Z</time></trkpt><trkpt lat="42.827687908146586" lon="13.496184340602763"><ele>230.0</ele><time>2026-05-02T09:11:06.999Z</time></trkpt><trkpt lat="42.82750647493496" lon="13.496251180685487"><ele>230.0</ele><time>2026-05-02T09:11:07.999Z</time></trkpt><trkpt lat="42.827325692584736" lon="13.496303060364916"><ele>230.66666666666669</ele><time>2026-05-02T09:11:08.999Z</time></trkpt><trkpt lat="42.827151517514444" lon="13.496373472318114"><ele>231.33333333333331</ele><time>2026-05-02T09:11:09.999Z</time></trkpt><trkpt lat="42.82698328265921" lon="13.496462704158363"><ele>232.0</ele><time>2026-05-02T09:11:10.999Z</time></trkpt><trkpt lat="42.82680917222563" lon="13.496513619294403"><ele>232.0</ele><time>2026-05-02T09:11:11.999Z</time></trkpt><trkpt lat="42.82664085750734" lon="13.496593909217161"><ele>232.0</ele><time>2026-05-02T09:11:12.999Z</time></trkpt><trkpt lat="42.826484423479364" lon="13.496695297916288"><ele>232.0</ele><time>2026-05-02T09:11:13.999Z</time></trkpt><trkpt lat="42.82633041117026" lon="13.496784978184442"><ele>232.0</ele><time>2026-05-02T09:11:14.999Z</time></trkpt><trkpt lat="42.8261772124166" lon="13.496904812118833"><ele>232.0</ele><time>2026-05-02T09:11:15.999Z</time></trkpt><trkpt lat="42.82602740869088" lon="13.497073190226475"><ele>232.0</ele><time>2026-05-02T09:11:16.999Z</time></trkpt><trkpt lat="42.82586902251658" lon="13.497276227009955"><ele>229.33333333333331</ele><time>2026-05-02T09:11:17.999Z</time></trkpt><trkpt lat="42.825723075631394" lon="13.497480521444954"><ele>226.66666666666669</ele><time>2026-05-02T09:11:18.999Z</time></trkpt><trkpt lat="42.8255697850772" lon="13.497676104718888"><ele>224.0</ele><time>2026-05-02T09:11:19.999Z</time></trkpt><trkpt lat="42.82542105280387" lon="13.497876323761767"><ele>222.66666666666669</ele><time>2026-05-02T09:11:20.999Z</time></trkpt><trkpt lat="42.82527304086354" lon="13.498072221230617"><ele>221.33333333333331</ele><time>2026-05-02T09:11:21.999Z</time></trkpt><trkpt lat="42.8251337155253" lon="13.498263092872635"><ele>220.0</ele><time>2026-05-02T09:11:22.999Z</time></trkpt><trkpt lat="42.82500289569479" lon="13.498434523099641"><ele>220.0</ele><time>2026-05-02T09:11:23.999Z</time></trkpt><trkpt lat="42.82487815905067" lon="13.498598959639072"><ele>220.0</ele><time>2026-05-02T09:11:24.999Z</time></trkpt><trkpt lat="42.824772184446715" lon="13.498778064692784"><ele>220.0</ele><time>2026-05-02T09:11:25.999Z</time></trkpt><trkpt lat="42.82466764058666" lon="13.498972725194825"><ele>220.33333333333331</ele><time>2026-05-02T09:11:26.998Z</time></trkpt><trkpt lat="42.82458588001862" lon="13.499196930856153"><ele>220.66666666666669</ele><time>2026-05-02T09:11:27.998Z</time></trkpt><trkpt lat="42.8245093301828" lon="13.49943135070061"><ele>221.0</ele><time>2026-05-02T09:11:28.998Z</time></trkpt><trkpt lat="42.82442571092738" lon="13.499671628832166"><ele>221.0</ele><time>2026-05-02T09:11:29.998Z</time></trkpt><trkpt lat="42.82434085773983" lon="13.49992028205002"><ele>221.0</ele><time>2026-05-02T09:11:30.998Z</time></trkpt><trkpt lat="42.82425307952786" lon="13.500140652344346"><ele>221.0</ele><time>2026-05-02T09:11:31.998Z</time></trkpt><trkpt lat="42.8241508772932" lon="13.500333117024967"><ele>219.33333333333334</ele><time>2026-05-02T09:11:32.998Z</time></trkpt><trkpt lat="42.82405127658601" lon="13.500504947355827"><ele>217.66666666666669</ele><time>2026-05-02T09:11:33.998Z</time></trkpt><trkpt lat="42.82390857824238" lon="13.500629336203222"><ele>216.0</ele><time>2026-05-02T09:11:34.998Z</time></trkpt><trkpt lat="42.823764318034485" lon="13.500718462988088"><ele>216.0</ele><time>2026-05-02T09:11:35.998Z</time></trkpt><trkpt lat="42.82361068503556" lon="13.500836606236252"><ele>216.0</ele><time>2026-05-02T09:11:36.998Z</time></trkpt><trkpt lat="42.823448028491455" lon="13.500920387539292"><ele>216.0</ele><time>2026-05-02T09:11:37.998Z</time></trkpt><trkpt lat="42.82329549655707" lon="13.501024641982038"><ele>217.0</ele><time>2026-05-02T09:11:38.998Z</time></trkpt><trkpt lat="42.82315195909142" lon="13.501146019498997"><ele>218.0</ele><time>2026-05-02T09:11:39.998Z</time></trkpt><trkpt lat="42.823012233503164" lon="13.50127520992751"><ele>219.0</ele><time>2026-05-02T09:11:40.998Z</time></trkpt><trkpt lat="42.822876532885246" lon="13.501400080961519"><ele>219.0</ele><time>2026-05-02T09:11:41.998Z</time></trkpt><trkpt lat="42.82273913065842" lon="13.501511579866127"><ele>219.0</ele><time>2026-05-02T09:11:42.998Z</time></trkpt><trkpt lat="42.82259318944992" lon="13.501626134383688"><ele>219.0</ele><time>2026-05-02T09:11:44Z</time></trkpt><trkpt lat="42.82245813291069" lon="13.501723522713686"><ele>220.75</ele><time>2026-05-02T09:11:45Z</time></trkpt><trkpt lat="42.822323443374046" lon="13.501805899690007"><ele>222.5</ele><time>2026-05-02T09:11:46Z</time></trkpt><trkpt lat="42.822188208473754" lon="13.501889703520051"><ele>224.25</ele><time>2026-05-02T09:11:47Z</time></trkpt><trkpt lat="42.822050198883666" lon="13.501960095602898"><ele>226.0</ele><time>2026-05-02T09:11:48Z</time></trkpt><trkpt lat="42.8219145808537" lon="13.502033745468522"><ele>225.75</ele><time>2026-05-02T09:11:49Z</time></trkpt><trkpt lat="42.82178175964179" lon="13.502111986592915"><ele>225.5</ele><time>2026-05-02T09:11:50Z</time></trkpt><trkpt lat="42.82166667704967" lon="13.502207026075101"><ele>225.25</ele><time>2026-05-02T09:11:51Z</time></trkpt><trkpt lat="42.82157030374943" lon="13.502338867860402"><ele>225.0</ele><time>2026-05-02T09:11:52Z</time></trkpt><trkpt lat="42.82148667547249" lon="13.502503184171772"><ele>225.0</ele><time>2026-05-02T09:11:53Z</time></trkpt><trkpt lat="42.82141363203842" lon="13.50267404153918"><ele>225.0</ele><time>2026-05-02T09:11:54Z</time></trkpt><trkpt lat="42.82135138450787" lon="13.502855677578536"><ele>225.0</ele><time>2026-05-02T09:11:55Z</time></trkpt><trkpt lat="42.82131918124133" lon="13.503036184643824"><ele>225.0</ele><time>2026-05-02T09:11:56Z</time></trkpt><trkpt lat="42.82131466160247" lon="13.50321821282605"><ele>222.75</ele><time>2026-05-02T09:11:57Z</time></trkpt><trkpt lat="42.82133227008038" lon="13.503403672893814"><ele>220.5</ele><time>2026-05-02T09:11:58Z</time></trkpt><trkpt lat="42.821355711219375" lon="13.503594317275347"><ele>218.25</ele><time>2026-05-02T09:11:59Z</time></trkpt><trkpt lat="42.82138393922661" lon="13.503786270777079"><ele>216.0</ele><time>2026-05-02T09:12:00Z</time></trkpt><trkpt lat="42.82141380587293" lon="13.503974289754526"><ele>216.0</ele><time>2026-05-02T09:12:01Z</time></trkpt><trkpt lat="42.82143761732591" lon="13.504151500914075"><ele>216.0</ele><time>2026-05-02T09:12:02Z</time></trkpt><trkpt lat="42.821457746844324" lon="13.504318769891658"><ele>216.0</ele><time>2026-05-02T09:12:03Z</time></trkpt><trkpt lat="42.82147723301273" lon="13.5044898125679"><ele>216.0</ele><time>2026-05-02T09:12:04Z</time></trkpt><trkpt lat="42.82149914824264" lon="13.504665617943255"><ele>216.60000000000002</ele><time>2026-05-02T09:12:05Z</time></trkpt><trkpt lat="42.82152289702122" lon="13.504826285270719"><ele>217.20000000000002</ele><time>2026-05-02T09:12:06Z</time></trkpt><trkpt lat="42.821538074765385" lon="13.504972364738009"><ele>217.79999999999998</ele><time>2026-05-02T09:12:07Z</time></trkpt><trkpt lat="42.821539128643344" lon="13.505107082182526"><ele>218.39999999999998</ele><time>2026-05-02T09:12:08Z</time></trkpt><trkpt lat="42.82152781376254" lon="13.505219297445212"><ele>219.0</ele><time>2026-05-02T09:12:09Z</time></trkpt><trkpt lat="42.82150026476671" lon="13.505311560859125"><ele>219.0</ele><time>2026-05-02T09:12:10Z</time></trkpt><trkpt lat="42.82143905086384" lon="13.505410844406034"><ele>218.99999999999997</ele><time>2026-05-02T09:12:11.999Z</time></trkpt><trkpt lat="42.82137428788777" lon="13.505473096303293"><ele>218.99999999999997</ele><time>2026-05-02T09:12:21.999Z</time></trkpt><trkpt lat="42.821360276516764" lon="13.50557591483659"><ele>219.0</ele><time>2026-05-02T09:12:24.999Z</time></trkpt><trkpt lat="42.82141427817801" lon="13.505694216503585"><ele>219.0</ele><time>2026-05-02T09:12:25.999Z</time></trkpt><trkpt lat="42.82147294279927" lon="13.505807018500184"><ele>218.25</ele><time>2026-05-02T09:12:26.999Z</time></trkpt><trkpt lat="42.82153124135299" lon="13.505939923905931"><ele>217.5</ele><time>2026-05-02T09:12:27.999Z</time></trkpt><trkpt lat="42.821591928013625" lon="13.506078672294684"><ele>216.75</ele><time>2026-05-02T09:12:28.999Z</time></trkpt><trkpt lat="42.82164248903087" lon="13.506260674854012"><ele>216.0</ele><time>2026-05-02T09:12:29.999Z</time></trkpt><trkpt lat="42.82169011961271" lon="13.506461492152203"><ele>214.5</ele><time>2026-05-02T09:12:30.999Z</time></trkpt><trkpt lat="42.82172607435773" lon="13.506659936472497"><ele>213.0</ele><time>2026-05-02T09:12:31.999Z</time></trkpt><trkpt lat="42.82176959772621" lon="13.506855827074027"><ele>211.5</ele><time>2026-05-02T09:12:32.999Z</time></trkpt><trkpt lat="42.821810411564485" lon="13.50704906183295"><ele>210.0</ele><time>2026-05-02T09:12:33.999Z</time></trkpt><trkpt lat="42.82184961976017" lon="13.507236025997974"><ele>208.5</ele><time>2026-05-02T09:12:34.999Z</time></trkpt><trkpt lat="42.82188417544126" lon="13.5074124488275"><ele>207.0</ele><time>2026-05-02T09:12:35.999Z</time></trkpt><trkpt lat="42.82192166803082" lon="13.507578737961241"><ele>205.5</ele><time>2026-05-02T09:12:36.999Z</time></trkpt><trkpt lat="42.821967745876826" lon="13.507721407062144"><ele>204.0</ele><time>2026-05-02T09:12:37.999Z</time></trkpt><trkpt lat="42.822013491832394" lon="13.50785011226316"><ele>204.6</ele><time>2026-05-02T09:12:38.999Z</time></trkpt><trkpt lat="42.82207177613915" lon="13.507969145347053"><ele>205.2</ele><time>2026-05-02T09:12:39.999Z</time></trkpt><trkpt lat="42.82214581879657" lon="13.508064457007752"><ele>205.79999999999998</ele><time>2026-05-02T09:12:40.999Z</time></trkpt><trkpt lat="42.822236803438535" lon="13.508140154906574"><ele>206.39999999999998</ele><time>2026-05-02T09:12:41.999Z</time></trkpt><trkpt lat="42.82234344501636" lon="13.508192655077135"><ele>207.0</ele><time>2026-05-02T09:12:42.999Z</time></trkpt><trkpt lat="42.82246162879119" lon="13.508233873954886"><ele>207.0</ele><time>2026-05-02T09:12:43.999Z</time></trkpt><trkpt lat="42.82258502897042" lon="13.508273578095977"><ele>207.0</ele><time>2026-05-02T09:12:44.999Z</time></trkpt><trkpt lat="42.82273651106975" lon="13.508319980184567"><ele>207.0</ele><time>2026-05-02T09:12:45.999Z</time></trkpt><trkpt lat="42.82288028454843" lon="13.508380837781147"><ele>207.0</ele><time>2026-05-02T09:12:46.999Z</time></trkpt><trkpt lat="42.823031267437216" lon="13.508442943322208"><ele>206.66666666666669</ele><time>2026-05-02T09:12:47.999Z</time></trkpt><trkpt lat="42.82320643587048" lon="13.508491372748821"><ele>206.33333333333334</ele><time>2026-05-02T09:12:49.999Z</time></trkpt><trkpt lat="42.82333107267424" lon="13.508539549582341"><ele>206.0</ele><time>2026-05-02T09:12:50.999Z</time></trkpt><trkpt lat="42.823468289529636" lon="13.508616206313873"><ele>205.25</ele><time>2026-05-02T09:12:51.999Z</time></trkpt><trkpt lat="42.82361456536687" lon="13.5086495515396"><ele>204.5</ele><time>2026-05-02T09:12:52.999Z</time></trkpt><trkpt lat="42.82376423569919" lon="13.508698257334352"><ele>203.75</ele><time>2026-05-02T09:12:53.999Z</time></trkpt><trkpt lat="42.82390494496139" lon="13.508745135795852"><ele>203.0</ele><time>2026-05-02T09:12:54.999Z</time></trkpt><trkpt lat="42.8240403226389" lon="13.50873557856955"><ele>207.33333333333334</ele><time>2026-05-02T09:12:55.999Z</time></trkpt><trkpt lat="42.82419797820928" lon="13.508707906704563"><ele>211.66666666666669</ele><time>2026-05-02T09:12:56.999Z</time></trkpt><trkpt lat="42.82436741450185" lon="13.508661579287285"><ele>216.0</ele><time>2026-05-02T09:12:57.999Z</time></trkpt><trkpt lat="42.82454849359431" lon="13.508601103713234"><ele>220.0</ele><time>2026-05-02T09:12:58.999Z</time></trkpt><trkpt lat="42.824713906412434" lon="13.508544536391604"><ele>224.0</ele><time>2026-05-02T09:12:59.999Z</time></trkpt><trkpt lat="42.8248727831018" lon="13.508503103793434"><ele>228.0</ele><time>2026-05-02T09:13:00.999Z</time></trkpt><trkpt lat="42.82506900231094" lon="13.508475875139462"><ele>228.33333333333331</ele><time>2026-05-02T09:13:01.999Z</time></trkpt><trkpt lat="42.82527546957182" lon="13.508525788540606"><ele>228.66666666666666</ele><time>2026-05-02T09:13:02.999Z</time></trkpt><trkpt lat="42.82546045630536" lon="13.508584266033047"><ele>229.0</ele><time>2026-05-02T09:13:03.999Z</time></trkpt><trkpt lat="42.82563354765244" lon="13.508669588250282"><ele>223.66666666666666</ele><time>2026-05-02T09:13:04.999Z</time></trkpt><trkpt lat="42.825810270586416" lon="13.508789680242344"><ele>218.33333333333331</ele><time>2026-05-02T09:13:05.999Z</time></trkpt><trkpt lat="42.825996014779825" lon="13.50892996291425"><ele>213.0</ele><time>2026-05-02T09:13:06.999Z</time></trkpt><trkpt lat="42.826192542053974" lon="13.509074663367622"><ele>212.5</ele><time>2026-05-02T09:13:07.999Z</time></trkpt><trkpt lat="42.82636675042708" lon="13.509264795799572"><ele>212.0</ele><time>2026-05-02T09:13:08.999Z</time></trkpt><trkpt lat="42.826552647395644" lon="13.509457871196343"><ele>208.0</ele><time>2026-05-02T09:13:09.999Z</time></trkpt><trkpt lat="42.82673448843815" lon="13.509653094012302"><ele>204.0</ele><time>2026-05-02T09:13:10.999Z</time></trkpt><trkpt lat="42.82690331892137" lon="13.509869535238183"><ele>203.0</ele><time>2026-05-02T09:13:11.999Z</time></trkpt><trkpt lat="42.82706063122906" lon="13.510095889279526"><ele>202.0</ele><time>2026-05-02T09:13:12.999Z</time></trkpt><trkpt lat="42.82720267852598" lon="13.510339393330213"><ele>199.5</ele><time>2026-05-02T09:13:13.999Z</time></trkpt><trkpt lat="42.827360670475294" lon="13.51056898165941"><ele>197.0</ele><time>2026-05-02T09:13:14.999Z</time></trkpt><trkpt lat="42.82751141319303" lon="13.510804474715815"><ele>196.0</ele><time>2026-05-02T09:13:15.999Z</time></trkpt><trkpt lat="42.82765203161027" lon="13.511031366101717"><ele>195.0</ele><time>2026-05-02T09:13:16.999Z</time></trkpt><trkpt lat="42.82778434166887" lon="13.511273355854865"><ele>194.0</ele><time>2026-05-02T09:13:17.999Z</time></trkpt><trkpt lat="42.82793233210904" lon="13.511496903507819"><ele>196.66666666666669</ele><time>2026-05-02T09:13:18.999Z</time></trkpt><trkpt lat="42.82807733556631" lon="13.511722652758106"><ele>199.33333333333331</ele><time>2026-05-02T09:13:19.999Z</time></trkpt><trkpt lat="42.828218735675236" lon="13.51194924261628"><ele>202.0</ele><time>2026-05-02T09:13:20.999Z</time></trkpt><trkpt lat="42.82836309246628" lon="13.512179064639682"><ele>203.5</ele><time>2026-05-02T09:13:21.999Z</time></trkpt><trkpt lat="42.8285036206973" lon="13.51241533328938"><ele>205.0</ele><time>2026-05-02T09:13:22.999Z</time></trkpt><trkpt lat="42.82865211839831" lon="13.512651909041255"><ele>205.0</ele><time>2026-05-02T09:13:23.999Z</time></trkpt><trkpt lat="42.82879957325805" lon="13.512884777827995"><ele>205.0</ele><time>2026-05-02T09:13:24.999Z</time></trkpt><trkpt lat="42.82894596500164" lon="13.513118200536594"><ele>211.5</ele><time>2026-05-02T09:13:25.999Z</time></trkpt><trkpt lat="42.829095360589655" lon="13.513351786981417"><ele>218.0</ele><time>2026-05-02T09:13:26.999Z</time></trkpt><trkpt lat="42.829248857748794" lon="13.513589781958014"><ele>220.0</ele><time>2026-05-02T09:13:27.999Z</time></trkpt><trkpt lat="42.829404147292436" lon="13.513827229141485"><ele>222.0</ele><time>2026-05-02T09:13:28.999Z</time></trkpt><trkpt lat="42.82956331027257" lon="13.514062706645005"><ele>222.0</ele><time>2026-05-02T09:13:29.999Z</time></trkpt><trkpt lat="42.82974069444077" lon="13.5142754844922"><ele>222.0</ele><time>2026-05-02T09:13:30.999Z</time></trkpt><trkpt lat="42.8299100327564" lon="13.514514897170498"><ele>216.0</ele><time>2026-05-02T09:13:31.999Z</time></trkpt><trkpt lat="42.83008308109594" lon="13.514749550244057"><ele>210.0</ele><time>2026-05-02T09:13:32.999Z</time></trkpt><trkpt lat="42.83026394170419" lon="13.51499729894126"><ele>210.0</ele><time>2026-05-02T09:13:33.999Z</time></trkpt><trkpt lat="42.830439122666846" lon="13.51521627064482"><ele>210.0</ele><time>2026-05-02T09:13:34.999Z</time></trkpt><trkpt lat="42.83062495345523" lon="13.515437904440088"><ele>213.5</ele><time>2026-05-02T09:13:35.999Z</time></trkpt><trkpt lat="42.83080829030249" lon="13.515645913032667"><ele>217.0</ele><time>2026-05-02T09:13:36.999Z</time></trkpt><trkpt lat="42.83099798267079" lon="13.515851631936151"><ele>217.0</ele><time>2026-05-02T09:13:37.998Z</time></trkpt><trkpt lat="42.831187359791976" lon="13.516060197206865"><ele>217.0</ele><time>2026-05-02T09:13:38.998Z</time></trkpt><trkpt lat="42.83139219983165" lon="13.51627938527389"><ele>217.0</ele><time>2026-05-02T09:13:39.998Z</time></trkpt><trkpt lat="42.83159768168236" lon="13.516491631583513"><ele>217.0</ele><time>2026-05-02T09:13:40.998Z</time></trkpt><trkpt lat="42.831758092929206" lon="13.516628424962228"><ele>217.0</ele><time>2026-05-02T09:13:41.998Z</time></trkpt><trkpt lat="42.83194156576227" lon="13.516797795339269"><ele>210.5</ele><time>2026-05-02T09:13:42.998Z</time></trkpt><trkpt lat="42.83212729820583" lon="13.51696943748318"><ele>204.0</ele><time>2026-05-02T09:13:43.998Z</time></trkpt><trkpt lat="42.832319273565545" lon="13.517134535031017"><ele>209.5</ele><time>2026-05-02T09:13:44.998Z</time></trkpt><trkpt lat="42.83251851781506" lon="13.517286875722366"><ele>215.0</ele><time>2026-05-02T09:13:45.998Z</time></trkpt><trkpt lat="42.832715662051356" lon="13.517430543394896"><ele>215.0</ele><time>2026-05-02T09:13:46.998Z</time></trkpt><trkpt lat="42.83291181770517" lon="13.517567542971875"><ele>215.0</ele><time>2026-05-02T09:13:47.998Z</time></trkpt><trkpt lat="42.833083916929446" lon="13.5176838800385"><ele>215.0</ele><time>2026-05-02T09:13:48.998Z</time></trkpt><trkpt lat="42.8332476046382" lon="13.517794955285382"><ele>215.0</ele><time>2026-05-02T09:13:50Z</time></trkpt><trkpt lat="42.83339143025669" lon="13.517882026194492"><ele>215.0</ele><time>2026-05-02T09:13:51Z</time></trkpt><trkpt lat="42.83356093000267" lon="13.517989157210833"><ele>215.0</ele><time>2026-05-02T09:13:52Z</time></trkpt><trkpt lat="42.83373790236912" lon="13.518095801180554"><ele>217.66666666666669</ele><time>2026-05-02T09:13:53Z</time></trkpt><trkpt lat="42.83391404769102" lon="13.518197955782608"><ele>220.33333333333331</ele><time>2026-05-02T09:13:54Z</time></trkpt><trkpt lat="42.83409194135848" lon="13.518300905632003"><ele>223.0</ele><time>2026-05-02T09:13:55Z</time></trkpt><trkpt lat="42.834272566881666" lon="13.518408891232138"><ele>219.66666666666666</ele><time>2026-05-02T09:13:56Z</time></trkpt><trkpt lat="42.83446297348368" lon="13.518511539930932"><ele>216.33333333333331</ele><time>2026-05-02T09:13:57Z</time></trkpt><trkpt lat="42.83464617267822" lon="13.518621039207254"><ele>213.0</ele><time>2026-05-02T09:13:58Z</time></trkpt><trkpt lat="42.834831124167295" lon="13.518725480065203"><ele>212.66666666666669</ele><time>2026-05-02T09:13:59Z</time></trkpt><trkpt lat="42.835000981909246" lon="13.518818839768992"><ele>212.33333333333334</ele><time>2026-05-02T09:14:00Z</time></trkpt><trkpt lat="42.835173274370746" lon="13.518909711228325"><ele>212.0</ele><time>2026-05-02T09:14:01Z</time></trkpt><trkpt lat="42.83534892828811" lon="13.51900204494643"><ele>212.0</ele><time>2026-05-02T09:14:02Z</time></trkpt><trkpt lat="42.83553195749331" lon="13.519088633022621"><ele>212.0</ele><time>2026-05-02T09:14:03Z</time></trkpt><trkpt lat="42.83572121600474" lon="13.51916748559219"><ele>212.0</ele><time>2026-05-02T09:14:04Z</time></trkpt><trkpt lat="42.83591243503434" lon="13.519250197661087"><ele>207.33333333333334</ele><time>2026-05-02T09:14:05Z</time></trkpt><trkpt lat="42.836104835837546" lon="13.51934051141236"><ele>202.66666666666669</ele><time>2026-05-02T09:14:06Z</time></trkpt><trkpt lat="42.836299392357226" lon="13.519432337832825"><ele>198.0</ele><time>2026-05-02T09:14:07Z</time></trkpt><trkpt lat="42.8364982748618" lon="13.519520352601699"><ele>201.66666666666669</ele><time>2026-05-02T09:14:08Z</time></trkpt><trkpt lat="42.836697833191245" lon="13.519606793930627"><ele>205.33333333333334</ele><time>2026-05-02T09:14:09Z</time></trkpt><trkpt lat="42.83689746070611" lon="13.519689385749048"><ele>209.0</ele><time>2026-05-02T09:14:10Z</time></trkpt><trkpt lat="42.83708943190995" lon="13.519771251040927"><ele>209.0</ele><time>2026-05-02T09:14:11Z</time></trkpt><trkpt lat="42.837273159928095" lon="13.51984386989515"><ele>209.0</ele><time>2026-05-02T09:14:12Z</time></trkpt><trkpt lat="42.83745322039663" lon="13.519913839412567"><ele>209.0</ele><time>2026-05-02T09:14:13Z</time></trkpt><trkpt lat="42.837627339785506" lon="13.519983128087343"><ele>205.0</ele><time>2026-05-02T09:14:14Z</time></trkpt><trkpt lat="42.837796337084924" lon="13.520053143937893"><ele>201.0</ele><time>2026-05-02T09:14:15Z</time></trkpt><trkpt lat="42.83796116394276" lon="13.520127583294594"><ele>197.0</ele><time>2026-05-02T09:14:16Z</time></trkpt><trkpt lat="42.838118163790995" lon="13.520206157124235"><ele>197.0</ele><time>2026-05-02T09:14:17Z</time></trkpt><trkpt lat="42.83827535359394" lon="13.52028556870716"><ele>197.0</ele><time>2026-05-02T09:14:18Z</time></trkpt><trkpt lat="42.83843213490857" lon="13.520360821808591"><ele>197.0</ele><time>2026-05-02T09:14:19Z</time></trkpt><trkpt lat="42.83858766265963" lon="13.520438631537093"><ele>196.33333333333334</ele><time>2026-05-02T09:14:20Z</time></trkpt><trkpt lat="42.83873846394422" lon="13.52051824082298"><ele>195.66666666666669</ele><time>2026-05-02T09:14:21Z</time></trkpt><trkpt lat="42.838885532915626" lon="13.520600894311661"><ele>195.0</ele><time>2026-05-02T09:14:22Z</time></trkpt><trkpt lat="42.8390323208909" lon="13.520693912847287"><ele>195.0</ele><time>2026-05-02T09:14:23Z</time></trkpt><trkpt lat="42.8391857046598" lon="13.520789478981081"><ele>195.0</ele><time>2026-05-02T09:14:24Z</time></trkpt><trkpt lat="42.83933663600422" lon="13.520894254910468"><ele>195.0</ele><time>2026-05-02T09:14:25Z</time></trkpt><trkpt lat="42.839493420818805" lon="13.521008335493024"><ele>193.33333333333334</ele><time>2026-05-02T09:14:26Z</time></trkpt><trkpt lat="42.83965727591385" lon="13.521132465651425"><ele>191.66666666666669</ele><time>2026-05-02T09:14:27Z</time></trkpt><trkpt lat="42.839830571730104" lon="13.521267996175471"><ele>190.0</ele><time>2026-05-02T09:14:27.999Z</time></trkpt><trkpt lat="42.84001209396416" lon="13.521420638996759"><ele>185.0</ele><time>2026-05-02T09:14:28.999Z</time></trkpt><trkpt lat="42.840199096414345" lon="13.521593472919312"><ele>180.0</ele><time>2026-05-02T09:14:29.999Z</time></trkpt><trkpt lat="42.840383657241894" lon="13.521782123900175"><ele>180.0</ele><time>2026-05-02T09:14:30.999Z</time></trkpt><trkpt lat="42.84056783393464" lon="13.521986311345955"><ele>180.0</ele><time>2026-05-02T09:14:31.999Z</time></trkpt><trkpt lat="42.84074532630143" lon="13.522208673460888"><ele>181.0</ele><time>2026-05-02T09:14:32.999Z</time></trkpt><trkpt lat="42.840915077667084" lon="13.522447661362685"><ele>182.0</ele><time>2026-05-02T09:14:33.999Z</time></trkpt><trkpt lat="42.84108061572528" lon="13.52270250949541"><ele>187.0</ele><time>2026-05-02T09:14:34.999Z</time></trkpt><trkpt lat="42.841242600446144" lon="13.522960916125106"><ele>192.0</ele><time>2026-05-02T09:14:35.999Z</time></trkpt><trkpt lat="42.8414089807266" lon="13.523214310381364"><ele>192.0</ele><time>2026-05-02T09:14:36.999Z</time></trkpt><trkpt lat="42.84158624829756" lon="13.5234553495811"><ele>192.0</ele><time>2026-05-02T09:14:37.999Z</time></trkpt><trkpt lat="42.841769451035866" lon="13.52368370603329"><ele>190.0</ele><time>2026-05-02T09:14:38.999Z</time></trkpt><trkpt lat="42.84195719835725" lon="13.52390483348926"><ele>188.0</ele><time>2026-05-02T09:14:39.999Z</time></trkpt><trkpt lat="42.84214954697452" lon="13.524119119139876"><ele>188.0</ele><time>2026-05-02T09:14:40.999Z</time></trkpt><trkpt lat="42.842332717595546" lon="13.52431901443789"><ele>188.0</ele><time>2026-05-02T09:14:41.999Z</time></trkpt><trkpt lat="42.842503874986754" lon="13.524502175074337"><ele>187.0</ele><time>2026-05-02T09:14:42.999Z</time></trkpt><trkpt lat="42.842676761098154" lon="13.524679643502727"><ele>186.0</ele><time>2026-05-02T09:14:43.999Z</time></trkpt><trkpt lat="42.84285193700752" lon="13.524855953680259"><ele>185.0</ele><time>2026-05-02T09:14:44.999Z</time></trkpt><trkpt lat="42.843030102330694" lon="13.525036316021902"><ele>185.0</ele><time>2026-05-02T09:14:45.999Z</time></trkpt><trkpt lat="42.843212334576364" lon="13.525213745793616"><ele>185.0</ele><time>2026-05-02T09:14:46.999Z</time></trkpt><trkpt lat="42.84339152729715" lon="13.525381671894193"><ele>185.0</ele><time>2026-05-02T09:14:47.999Z</time></trkpt><trkpt lat="42.84357478615" lon="13.525546487706412"><ele>184.66666666666666</ele><time>2026-05-02T09:14:48.999Z</time></trkpt><trkpt lat="42.84375980114713" lon="13.525705859560324"><ele>184.33333333333334</ele><time>2026-05-02T09:14:49.999Z</time></trkpt><trkpt lat="42.843943502748004" lon="13.52586634729986"><ele>184.0</ele><time>2026-05-02T09:14:50.999Z</time></trkpt><trkpt lat="42.844125011529535" lon="13.52602176143521"><ele>184.33333333333334</ele><time>2026-05-02T09:14:51.999Z</time></trkpt><trkpt lat="42.84430044291083" lon="13.526165936742133"><ele>184.66666666666666</ele><time>2026-05-02T09:14:52.999Z</time></trkpt><trkpt lat="42.844476629235785" lon="13.526301492985322"><ele>185.0</ele><time>2026-05-02T09:14:53.999Z</time></trkpt><trkpt lat="42.8446662172066" lon="13.526444794635873"><ele>185.0</ele><time>2026-05-02T09:14:54.999Z</time></trkpt><trkpt lat="42.84486137209831" lon="13.52659129373692"><ele>185.0</ele><time>2026-05-02T09:14:55.999Z</time></trkpt><trkpt lat="42.84505751132111" lon="13.526732572171698"><ele>185.0</ele><time>2026-05-02T09:14:56.999Z</time></trkpt><trkpt lat="42.84525712166015" lon="13.526866819078641"><ele>182.5</ele><time>2026-05-02T09:14:57.999Z</time></trkpt><trkpt lat="42.845459190936566" lon="13.526997514356186"><ele>180.0</ele><time>2026-05-02T09:14:58.999Z</time></trkpt><trkpt lat="42.8456722974022" lon="13.527142228873455"><ele>180.0</ele><time>2026-05-02T09:14:59.999Z</time></trkpt><trkpt lat="42.84588382112301" lon="13.527318007551425"><ele>180.0</ele><time>2026-05-02T09:15:00.999Z</time></trkpt><trkpt lat="42.846114460226644" lon="13.527486495119849"><ele>173.0</ele><time>2026-05-02T09:15:01.999Z</time></trkpt><trkpt lat="42.84635192676061" lon="13.527660677017492"><ele>166.0</ele><time>2026-05-02T09:15:02.999Z</time></trkpt><trkpt lat="42.84660562700906" lon="13.527823104724577"><ele>167.0</ele><time>2026-05-02T09:15:03.999Z</time></trkpt><trkpt lat="42.846852882910376" lon="13.528012296580874"><ele>168.0</ele><time>2026-05-02T09:15:04.999Z</time></trkpt><trkpt lat="42.84710504587772" lon="13.528200300385128"><ele>168.0</ele><time>2026-05-02T09:15:05.999Z</time></trkpt><trkpt lat="42.847351698488936" lon="13.5283770365357"><ele>168.0</ele><time>2026-05-02T09:15:06.999Z</time></trkpt><trkpt lat="42.847576995818066" lon="13.528538551789746"><ele>168.0</ele><time>2026-05-02T09:15:07.999Z</time></trkpt><trkpt lat="42.847799534572594" lon="13.528700565390388"><ele>168.0</ele><time>2026-05-02T09:15:08.999Z</time></trkpt><trkpt lat="42.848021117044716" lon="13.528860627244738"><ele>168.0</ele><time>2026-05-02T09:15:09.999Z</time></trkpt><trkpt lat="42.8482443208556" lon="13.52902154839851"><ele>168.0</ele><time>2026-05-02T09:15:10.999Z</time></trkpt><trkpt lat="42.848466573376264" lon="13.529187497547086"><ele>165.0</ele><time>2026-05-02T09:15:11.999Z</time></trkpt><trkpt lat="42.848686519897264" lon="13.529362021029828"><ele>162.0</ele><time>2026-05-02T09:15:12.999Z</time></trkpt><trkpt lat="42.84890596932877" lon="13.529550907274489"><ele>163.5</ele><time>2026-05-02T09:15:13.999Z</time></trkpt><trkpt lat="42.849112238889084" lon="13.529762052800216"><ele>165.0</ele><time>2026-05-02T09:15:14.999Z</time></trkpt><trkpt lat="42.84929699997707" lon="13.529999160786568"><ele>165.0</ele><time>2026-05-02T09:15:15.999Z</time></trkpt><trkpt lat="42.849457380507445" lon="13.530262242541227"><ele>165.0</ele><time>2026-05-02T09:15:16.999Z</time></trkpt><trkpt lat="42.84957495272404" lon="13.530554576258691"><ele>170.33333333333334</ele><time>2026-05-02T09:15:17.999Z</time></trkpt><trkpt lat="42.84969249374814" lon="13.530812410762017"><ele>175.66666666666669</ele><time>2026-05-02T09:15:18.999Z</time></trkpt><trkpt lat="42.84977473158048" lon="13.531088195341933"><ele>181.0</ele><time>2026-05-02T09:15:19.999Z</time></trkpt><trkpt lat="42.84985348393452" lon="13.53138769464301"><ele>184.5</ele><time>2026-05-02T09:15:20.999Z</time></trkpt><trkpt lat="42.84992391738165" lon="13.531706703482888"><ele>188.0</ele><time>2026-05-02T09:15:21.999Z</time></trkpt><trkpt lat="42.84997853001266" lon="13.532031847648783"><ele>190.0</ele><time>2026-05-02T09:15:22.999Z</time></trkpt><trkpt lat="42.850024051604535" lon="13.532367867070839"><ele>192.0</ele><time>2026-05-02T09:15:23.999Z</time></trkpt><trkpt lat="42.850043342193324" lon="13.532723891102664"><ele>190.5</ele><time>2026-05-02T09:15:24.999Z</time></trkpt><trkpt lat="42.85004923189219" lon="13.533079404334094"><ele>189.0</ele><time>2026-05-02T09:15:25.999Z</time></trkpt><trkpt lat="42.85004925296751" lon="13.533441103231366"><ele>186.0</ele><time>2026-05-02T09:15:26.999Z</time></trkpt><trkpt lat="42.85004874028877" lon="13.5338072063566"><ele>183.0</ele><time>2026-05-02T09:15:27.999Z</time></trkpt><trkpt lat="42.85006098189036" lon="13.5341772796223"><ele>183.0</ele><time>2026-05-02T09:15:28.999Z</time></trkpt><trkpt lat="42.85006547032966" lon="13.534542042705935"><ele>183.0</ele><time>2026-05-02T09:15:29.999Z</time></trkpt><trkpt lat="42.850074673639014" lon="13.534908956723827"><ele>183.0</ele><time>2026-05-02T09:15:30.999Z</time></trkpt><trkpt lat="42.85008299293684" lon="13.535274555497123"><ele>183.0</ele><time>2026-05-02T09:15:31.999Z</time></trkpt><trkpt lat="42.850091842349926" lon="13.535624211022895"><ele>183.0</ele><time>2026-05-02T09:15:32.999Z</time></trkpt><trkpt lat="42.85009815437732" lon="13.535949153917484"><ele>183.0</ele><time>2026-05-02T09:15:33.999Z</time></trkpt><trkpt lat="42.85010675383232" lon="13.536249817482108"><ele>182.0</ele><time>2026-05-02T09:15:34.999Z</time></trkpt><trkpt lat="42.85011020930416" lon="13.536543370575153"><ele>181.0</ele><time>2026-05-02T09:15:35.999Z</time></trkpt><trkpt lat="42.850113910784955" lon="13.536829577797688"><ele>180.0</ele><time>2026-05-02T09:15:36.999Z</time></trkpt><trkpt lat="42.85011687355622" lon="13.537104403859665"><ele>179.66666666666666</ele><time>2026-05-02T09:15:37.999Z</time></trkpt><trkpt lat="42.85011568955541" lon="13.537358265070484"><ele>179.33333333333331</ele><time>2026-05-02T09:15:38.999Z</time></trkpt><trkpt lat="42.850108173574824" lon="13.53759995413764"><ele>179.0</ele><time>2026-05-02T09:15:39.999Z</time></trkpt><trkpt lat="42.850092634595654" lon="13.537844738140684"><ele>179.0</ele><time>2026-05-02T09:15:40.999Z</time></trkpt><trkpt lat="42.8500742066054" lon="13.5380951646517"><ele>179.0</ele><time>2026-05-02T09:15:41.999Z</time></trkpt><trkpt lat="42.85005313848177" lon="13.538347151050568"><ele>179.0</ele><time>2026-05-02T09:15:42.999Z</time></trkpt><trkpt lat="42.85002896333105" lon="13.538593656799396"><ele>179.5</ele><time>2026-05-02T09:15:43.999Z</time></trkpt><trkpt lat="42.850007456822205" lon="13.538809325250588"><ele>180.0</ele><time>2026-05-02T09:15:44.999Z</time></trkpt><trkpt lat="42.84998772993496" lon="13.53899736916129"><ele>180.5</ele><time>2026-05-02T09:15:45.999Z</time></trkpt><trkpt lat="42.849960022955415" lon="13.539171241643919"><ele>181.0</ele><time>2026-05-02T09:15:46.999Z</time></trkpt><trkpt lat="42.84991297510239" lon="13.539326410656688"><ele>181.0</ele><time>2026-05-02T09:15:47.999Z</time></trkpt><trkpt lat="42.849839204305255" lon="13.53943776788405"><ele>181.0</ele><time>2026-05-02T09:15:48.999Z</time></trkpt><trkpt lat="42.84975563948787" lon="13.53949259188274"><ele>181.0</ele><time>2026-05-02T09:15:49.998Z</time></trkpt><trkpt lat="42.84967704610677" lon="13.539491930114805"><ele>181.0</ele><time>2026-05-02T09:15:50.998Z</time></trkpt><trkpt lat="42.849604768609" lon="13.539457653667817"><ele>181.0</ele><time>2026-05-02T09:15:51.998Z</time></trkpt><trkpt lat="42.84954124290121" lon="13.539408124874138"><ele>181.0</ele><time>2026-05-02T09:15:52.998Z</time></trkpt><trkpt lat="42.84948944039671" lon="13.53934324980178"><ele>181.0</ele><time>2026-05-02T09:15:53.998Z</time></trkpt><trkpt lat="42.84944675095639" lon="13.53926181447221"><ele>181.0</ele><time>2026-05-02T09:15:54.998Z</time></trkpt><trkpt lat="42.84943042974793" lon="13.539094240089163"><ele>181.0</ele><time>2026-05-02T09:15:57Z</time></trkpt><trkpt lat="42.849435360881984" lon="13.53896391281521"><ele>181.0</ele><time>2026-05-02T09:15:59Z</time></trkpt><trkpt lat="42.849377262113066" lon="13.538918738141282"><ele>181.0</ele><time>2026-05-02T09:16:07Z</time></trkpt><trkpt lat="42.84933125314975" lon="13.538993404973962"><ele>181.0</ele><time>2026-05-02T09:16:09Z</time></trkpt><trkpt lat="42.849312021538154" lon="13.539170985594026"><ele>181.0</ele><time>2026-05-02T09:16:11Z</time></trkpt><trkpt lat="42.84930924743078" lon="13.539282872630068"><ele>181.0</ele><time>2026-05-02T09:16:12Z</time></trkpt><trkpt lat="42.84931003708197" lon="13.539392485132973"><ele>181.0</ele><time>2026-05-02T09:16:13Z</time></trkpt><trkpt lat="42.849313976541275" lon="13.539503584426072"><ele>181.0</ele><time>2026-05-02T09:16:14Z</time></trkpt><trkpt lat="42.84932037242446" lon="13.539620241363126"><ele>181.0</ele><time>2026-05-02T09:16:15Z</time></trkpt><trkpt lat="42.84933671431245" lon="13.539847602732202"><ele>181.0</ele><time>2026-05-02T09:16:16Z</time></trkpt><trkpt lat="42.84935197783303" lon="13.540023536609022"><ele>181.0</ele><time>2026-05-02T09:16:17Z</time></trkpt><trkpt lat="42.84936502061364" lon="13.54020490110505"><ele>181.0</ele><time>2026-05-02T09:16:18Z</time></trkpt><trkpt lat="42.84937964655441" lon="13.540386264548847"><ele>181.0</ele><time>2026-05-02T09:16:19Z</time></trkpt><trkpt lat="42.84938992893355" lon="13.540592812726777"><ele>178.66666666666669</ele><time>2026-05-02T09:16:20Z</time></trkpt><trkpt lat="42.84937735734382" lon="13.540817700660423"><ele>176.33333333333334</ele><time>2026-05-02T09:16:21Z</time></trkpt><trkpt lat="42.84934765700266" lon="13.541043168214964"><ele>174.0</ele><time>2026-05-02T09:16:22Z</time></trkpt><trkpt lat="42.84930062585397" lon="13.541269850428225"><ele>176.66666666666666</ele><time>2026-05-02T09:16:23Z</time></trkpt><trkpt lat="42.849229581381024" lon="13.541490301168489"><ele>179.33333333333331</ele><time>2026-05-02T09:16:24Z</time></trkpt><trkpt lat="42.84914192129073" lon="13.54170602048117"><ele>182.0</ele><time>2026-05-02T09:16:25Z</time></trkpt><trkpt lat="42.84905632281102" lon="13.541898674840148"><ele>180.66666666666666</ele><time>2026-05-02T09:16:26Z</time></trkpt><trkpt lat="42.848984668256236" lon="13.54208865752876"><ele>179.33333333333334</ele><time>2026-05-02T09:16:27Z</time></trkpt><trkpt lat="42.848930939817315" lon="13.54228800969162"><ele>178.0</ele><time>2026-05-02T09:16:28Z</time></trkpt><trkpt lat="42.84889312196893" lon="13.54251288785182"><ele>178.0</ele><time>2026-05-02T09:16:29Z</time></trkpt><trkpt lat="42.848876236747444" lon="13.542742544846918"><ele>178.0</ele><time>2026-05-02T09:16:30Z</time></trkpt><trkpt lat="42.84888257888435" lon="13.54297324566603"><ele>178.0</ele><time>2026-05-02T09:16:31Z</time></trkpt><trkpt lat="42.848908647878176" lon="13.543205153597622"><ele>175.66666666666669</ele><time>2026-05-02T09:16:32Z</time></trkpt><trkpt lat="42.848954869637886" lon="13.543447097732559"><ele>173.33333333333334</ele><time>2026-05-02T09:16:33Z</time></trkpt><trkpt lat="42.84901656913417" lon="13.543698460983354"><ele>171.0</ele><time>2026-05-02T09:16:34Z</time></trkpt><trkpt lat="42.84908309053431" lon="13.543960221726357"><ele>172.0</ele><time>2026-05-02T09:16:35Z</time></trkpt><trkpt lat="42.84913715101546" lon="13.544211589978433"><ele>173.0</ele><time>2026-05-02T09:16:36Z</time></trkpt><trkpt lat="42.84920312762284" lon="13.544451868233978"><ele>174.0</ele><time>2026-05-02T09:16:37Z</time></trkpt><trkpt lat="42.849276501615265" lon="13.544700873275099"><ele>169.33333333333334</ele><time>2026-05-02T09:16:38Z</time></trkpt><trkpt lat="42.84935737471141" lon="13.544949557976864"><ele>164.66666666666669</ele><time>2026-05-02T09:16:39Z</time></trkpt><trkpt lat="42.84944432224834" lon="13.54518929299981"><ele>160.0</ele><time>2026-05-02T09:16:39.999Z</time></trkpt><trkpt lat="42.849529776546355" lon="13.545425893162562"><ele>160.0</ele><time>2026-05-02T09:16:40.999Z</time></trkpt><trkpt lat="42.8496034580234" lon="13.545676964505004"><ele>160.0</ele><time>2026-05-02T09:16:41.999Z</time></trkpt><trkpt lat="42.84966027811323" lon="13.54594678994187"><ele>160.0</ele><time>2026-05-02T09:16:42.999Z</time></trkpt><trkpt lat="42.84967582657311" lon="13.54622840164916"><ele>160.0</ele><time>2026-05-02T09:16:43.999Z</time></trkpt><trkpt lat="42.849712454482464" lon="13.546511255139405"><ele>160.0</ele><time>2026-05-02T09:16:44.999Z</time></trkpt><trkpt lat="42.849731713476196" lon="13.546798500860831"><ele>160.0</ele><time>2026-05-02T09:16:45.999Z</time></trkpt><trkpt lat="42.84975797902603" lon="13.547079219030136"><ele>160.0</ele><time>2026-05-02T09:16:46.999Z</time></trkpt><trkpt lat="42.84978578867604" lon="13.547335096236253"><ele>160.0</ele><time>2026-05-02T09:16:47.999Z</time></trkpt><trkpt lat="42.84981316761311" lon="13.54757487328985"><ele>160.0</ele><time>2026-05-02T09:16:48.999Z</time></trkpt><trkpt lat="42.84983287969094" lon="13.547801069035904"><ele>162.25</ele><time>2026-05-02T09:16:49.999Z</time></trkpt><trkpt lat="42.84985187851069" lon="13.54800657290901"><ele>164.5</ele><time>2026-05-02T09:16:50.999Z</time></trkpt><trkpt lat="42.84985351963717" lon="13.548194734333352"><ele>166.75</ele><time>2026-05-02T09:16:51.999Z</time></trkpt><trkpt lat="42.8498854432412" lon="13.54835588897102"><ele>169.0</ele><time>2026-05-02T09:16:52.999Z</time></trkpt><trkpt lat="42.84996691617744" lon="13.548505667524841"><ele>169.0</ele><time>2026-05-02T09:16:53.999Z</time></trkpt><trkpt lat="42.8500900698378" lon="13.548635042007765"><ele>169.0</ele><time>2026-05-02T09:16:54.999Z</time></trkpt><trkpt lat="42.8502218979818" lon="13.548762807056272"><ele>169.0</ele><time>2026-05-02T09:16:55.999Z</time></trkpt><trkpt lat="42.85036324611139" lon="13.548873207001378"><ele>168.0</ele><time>2026-05-02T09:16:56.999Z</time></trkpt><trkpt lat="42.85047496449575" lon="13.549007295342689"><ele>167.0</ele><time>2026-05-02T09:16:57.999Z</time></trkpt><trkpt lat="42.85058659245587" lon="13.549131119903716"><ele>166.0</ele><time>2026-05-02T09:16:58.999Z</time></trkpt><trkpt lat="42.850674963518614" lon="13.54926914997459"><ele>165.0</ele><time>2026-05-02T09:16:59.999Z</time></trkpt><trkpt lat="42.850763017163544" lon="13.54944008119873"><ele>169.0</ele><time>2026-05-02T09:17:00.999Z</time></trkpt><trkpt lat="42.85079864836331" lon="13.54967201555831"><ele>173.0</ele><time>2026-05-02T09:17:01.999Z</time></trkpt><trkpt lat="42.85085731473238" lon="13.54991483850599"><ele>177.0</ele><time>2026-05-02T09:17:02.999Z</time></trkpt><trkpt lat="42.850904406454866" lon="13.550180241418824"><ele>178.33333333333334</ele><time>2026-05-02T09:17:03.999Z</time></trkpt><trkpt lat="42.85095111977568" lon="13.55045683398517"><ele>179.66666666666669</ele><time>2026-05-02T09:17:04.999Z</time></trkpt><trkpt lat="42.85098992455466" lon="13.550716153743958"><ele>181.0</ele><time>2026-05-02T09:17:05.999Z</time></trkpt><trkpt lat="42.85102859967752" lon="13.550964434606186"><ele>176.0</ele><time>2026-05-02T09:17:06.999Z</time></trkpt><trkpt lat="42.85108206658017" lon="13.551202281487232"><ele>171.0</ele><time>2026-05-02T09:17:07.999Z</time></trkpt><trkpt lat="42.85113958960434" lon="13.551429286258621"><ele>166.0</ele><time>2026-05-02T09:17:08.999Z</time></trkpt><trkpt lat="42.85119169612937" lon="13.551647776786965"><ele>166.0</ele><time>2026-05-02T09:17:09.999Z</time></trkpt><trkpt lat="42.851254919085996" lon="13.551840257368413"><ele>166.0</ele><time>2026-05-02T09:17:10.999Z</time></trkpt><trkpt lat="42.851329715585244" lon="13.552021308147102"><ele>166.0</ele><time>2026-05-02T09:17:11.999Z</time></trkpt><trkpt lat="42.85142740876088" lon="13.552181763451706"><ele>168.25</ele><time>2026-05-02T09:17:12.999Z</time></trkpt><trkpt lat="42.85154812628901" lon="13.552314371498028"><ele>170.5</ele><time>2026-05-02T09:17:13.999Z</time></trkpt><trkpt lat="42.85165247110736" lon="13.55244301113362"><ele>172.75</ele><time>2026-05-02T09:17:14.999Z</time></trkpt><trkpt lat="42.85172567477491" lon="13.552590503893557"><ele>175.0</ele><time>2026-05-02T09:17:15.999Z</time></trkpt><trkpt lat="42.851762051755955" lon="13.552776694999075"><ele>178.0</ele><time>2026-05-02T09:17:16.999Z</time></trkpt><trkpt lat="42.85176770650087" lon="13.552982843185271"><ele>181.0</ele><time>2026-05-02T09:17:17.999Z</time></trkpt><trkpt lat="42.851758005585744" lon="13.553194781944148"><ele>184.0</ele><time>2026-05-02T09:17:18.999Z</time></trkpt><trkpt lat="42.851763559285246" lon="13.553403408308288"><ele>184.0</ele><time>2026-05-02T09:17:19.999Z</time></trkpt><trkpt lat="42.85177626629981" lon="13.55361419602751"><ele>184.0</ele><time>2026-05-02T09:17:20.999Z</time></trkpt><trkpt lat="42.85180897373826" lon="13.553815298144373"><ele>184.0</ele><time>2026-05-02T09:17:21.999Z</time></trkpt><trkpt lat="42.85186732481891" lon="13.554007086380677"><ele>179.66666666666669</ele><time>2026-05-02T09:17:22.999Z</time></trkpt><trkpt lat="42.85194200774332" lon="13.554190309523328"><ele>175.33333333333334</ele><time>2026-05-02T09:17:23.999Z</time></trkpt><trkpt lat="42.85202929751271" lon="13.554364334698187"><ele>171.0</ele><time>2026-05-02T09:17:24.999Z</time></trkpt><trkpt lat="42.85212042409788" lon="13.554546355326138"><ele>171.0</ele><time>2026-05-02T09:17:25.999Z</time></trkpt><trkpt lat="42.85221186328421" lon="13.55473989345492"><ele>171.0</ele><time>2026-05-02T09:17:26.999Z</time></trkpt><trkpt lat="42.852304152195885" lon="13.554944153045026"><ele>171.0</ele><time>2026-05-02T09:17:27.999Z</time></trkpt><trkpt lat="42.85240237412318" lon="13.555150706261228"><ele>171.0</ele><time>2026-05-02T09:17:28.999Z</time></trkpt><trkpt lat="42.8524979070092" lon="13.555360524315992"><ele>171.0</ele><time>2026-05-02T09:17:29.999Z</time></trkpt><trkpt lat="42.85259606684858" lon="13.555563360990579"><ele>171.0</ele><time>2026-05-02T09:17:30.999Z</time></trkpt><trkpt lat="42.852690774237814" lon="13.555755996186457"><ele>170.0</ele><time>2026-05-02T09:17:31.999Z</time></trkpt><trkpt lat="42.852779698297994" lon="13.555941409144626"><ele>169.0</ele><time>2026-05-02T09:17:32.999Z</time></trkpt><trkpt lat="42.852863738919446" lon="13.556121966416688"><ele>168.0</ele><time>2026-05-02T09:17:33.999Z</time></trkpt><trkpt lat="42.85294394740731" lon="13.556293876431459"><ele>168.0</ele><time>2026-05-02T09:17:34.999Z</time></trkpt><trkpt lat="42.85302633039089" lon="13.556466010757628"><ele>168.0</ele><time>2026-05-02T09:17:35.999Z</time></trkpt><trkpt lat="42.85311110684427" lon="13.556640125203119"><ele>168.0</ele><time>2026-05-02T09:17:36.999Z</time></trkpt><trkpt lat="42.85319039276893" lon="13.556816836252816"><ele>168.0</ele><time>2026-05-02T09:17:37.999Z</time></trkpt><trkpt lat="42.85326886411878" lon="13.556996929118707"><ele>168.0</ele><time>2026-05-02T09:17:38.999Z</time></trkpt><trkpt lat="42.85333749797799" lon="13.557185604609392"><ele>168.0</ele><time>2026-05-02T09:17:39.999Z</time></trkpt><trkpt lat="42.85339194967899" lon="13.557393187450588"><ele>170.0</ele><time>2026-05-02T09:17:40.999Z</time></trkpt><trkpt lat="42.85343014057056" lon="13.557614452554171"><ele>172.0</ele><time>2026-05-02T09:17:41.999Z</time></trkpt><trkpt lat="42.853463845643546" lon="13.557820828955006"><ele>174.0</ele><time>2026-05-02T09:17:42.999Z</time></trkpt><trkpt lat="42.85349302163214" lon="13.558034413199076"><ele>169.75</ele><time>2026-05-02T09:17:43.999Z</time></trkpt><trkpt lat="42.85351278112745" lon="13.55823839477697"><ele>165.5</ele><time>2026-05-02T09:17:44.999Z</time></trkpt><trkpt lat="42.85354075182119" lon="13.558434790316673"><ele>161.25</ele><time>2026-05-02T09:17:45.999Z</time></trkpt><trkpt lat="42.853571145402576" lon="13.558630581114015"><ele>157.0</ele><time>2026-05-02T09:17:46.999Z</time></trkpt><trkpt lat="42.85360183603167" lon="13.558830196063449"><ele>157.0</ele><time>2026-05-02T09:17:47.999Z</time></trkpt><trkpt lat="42.85363617644522" lon="13.559027051052276"><ele>157.0</ele><time>2026-05-02T09:17:48.999Z</time></trkpt><trkpt lat="42.85367883471757" lon="13.559220197985393"><ele>157.0</ele><time>2026-05-02T09:17:49.999Z</time></trkpt><trkpt lat="42.85373533346426" lon="13.55939673007837"><ele>157.0</ele><time>2026-05-02T09:17:50.999Z</time></trkpt><trkpt lat="42.8538061161637" lon="13.55955551445412"><ele>158.0</ele><time>2026-05-02T09:17:51.999Z</time></trkpt><trkpt lat="42.85388310634795" lon="13.559709347458336"><ele>159.0</ele><time>2026-05-02T09:17:52.999Z</time></trkpt><trkpt lat="42.85396602305405" lon="13.559859781682091"><ele>160.0</ele><time>2026-05-02T09:17:53.999Z</time></trkpt><trkpt lat="42.85405723863566" lon="13.559998430687145"><ele>161.0</ele><time>2026-05-02T09:17:54.999Z</time></trkpt><trkpt lat="42.854158779696085" lon="13.560125824775378"><ele>161.0</ele><time>2026-05-02T09:17:55.999Z</time></trkpt><trkpt lat="42.85426966391929" lon="13.560235302818434"><ele>161.0</ele><time>2026-05-02T09:17:56.999Z</time></trkpt><trkpt lat="42.854391732966825" lon="13.560337717664165"><ele>161.0</ele><time>2026-05-02T09:17:57.999Z</time></trkpt><trkpt lat="42.85452541592671" lon="13.560423490229946"><ele>161.0</ele><time>2026-05-02T09:17:58.999Z</time></trkpt><trkpt lat="42.8546780151134" lon="13.560515616629225"><ele>159.0</ele><time>2026-05-02T09:17:59.999Z</time></trkpt><trkpt lat="42.85484834231505" lon="13.560601178015956"><ele>157.0</ele><time>2026-05-02T09:18:01Z</time></trkpt><trkpt lat="42.85503072335827" lon="13.560687716612264"><ele>155.0</ele><time>2026-05-02T09:18:02Z</time></trkpt><trkpt lat="42.85520993798326" lon="13.56077142255333"><ele>151.66666666666666</ele><time>2026-05-02T09:18:03Z</time></trkpt><trkpt lat="42.85538981850627" lon="13.560846902290113"><ele>148.33333333333334</ele><time>2026-05-02T09:18:04Z</time></trkpt><trkpt lat="42.85555862060555" lon="13.560925153136685"><ele>145.0</ele><time>2026-05-02T09:18:05Z</time></trkpt><trkpt lat="42.85572335312529" lon="13.561008942862486"><ele>145.0</ele><time>2026-05-02T09:18:06Z</time></trkpt><trkpt lat="42.85590370926602" lon="13.561094443729987"><ele>145.0</ele><time>2026-05-02T09:18:07Z</time></trkpt><trkpt lat="42.85606366900008" lon="13.561177048228764"><ele>145.0</ele><time>2026-05-02T09:18:08Z</time></trkpt><trkpt lat="42.85621441644374" lon="13.561251728790149"><ele>147.66666666666669</ele><time>2026-05-02T09:18:09Z</time></trkpt><trkpt lat="42.856369212373636" lon="13.561312869941506"><ele>150.33333333333334</ele><time>2026-05-02T09:18:10Z</time></trkpt><trkpt lat="42.85652118186864" lon="13.561382922789981"><ele>153.0</ele><time>2026-05-02T09:18:11Z</time></trkpt><trkpt lat="42.8566859953388" lon="13.561456345470994"><ele>154.66666666666666</ele><time>2026-05-02T09:18:12Z</time></trkpt><trkpt lat="42.85684858128705" lon="13.561531424865056"><ele>156.33333333333331</ele><time>2026-05-02T09:18:13Z</time></trkpt><trkpt lat="42.857016327642285" lon="13.561608488954345"><ele>158.0</ele><time>2026-05-02T09:18:14Z</time></trkpt><trkpt lat="42.8571943930328" lon="13.56169298571264"><ele>158.0</ele><time>2026-05-02T09:18:15Z</time></trkpt><trkpt lat="42.857367941652726" lon="13.561772433961732"><ele>158.0</ele><time>2026-05-02T09:18:16Z</time></trkpt><trkpt lat="42.85753100586547" lon="13.561848441578348"><ele>158.0</ele><time>2026-05-02T09:18:17Z</time></trkpt><trkpt lat="42.8576900620811" lon="13.561921743287638"><ele>158.66666666666666</ele><time>2026-05-02T09:18:18Z</time></trkpt><trkpt lat="42.85784693469893" lon="13.561995678997897"><ele>159.33333333333334</ele><time>2026-05-02T09:18:19Z</time></trkpt><trkpt lat="42.8580024493313" lon="13.562075591631427"><ele>160.0</ele><time>2026-05-02T09:18:20Z</time></trkpt><trkpt lat="42.858160033863484" lon="13.56216454138349"><ele>160.0</ele><time>2026-05-02T09:18:21Z</time></trkpt><trkpt lat="42.85831238812188" lon="13.562261946980602"><ele>160.0</ele><time>2026-05-02T09:18:22Z</time></trkpt><trkpt lat="42.858452642560685" lon="13.562365382932915"><ele>160.0</ele><time>2026-05-02T09:18:23Z</time></trkpt><trkpt lat="42.858571582807954" lon="13.562460514997873"><ele>161.0</ele><time>2026-05-02T09:18:24Z</time></trkpt><trkpt lat="42.85866969272861" lon="13.562543252684291"><ele>162.0</ele><time>2026-05-02T09:18:25Z</time></trkpt><trkpt lat="42.85875529081654" lon="13.56261691714954"><ele>163.0</ele><time>2026-05-02T09:18:26Z</time></trkpt><trkpt lat="42.85884124506334" lon="13.56270396241796"><ele>164.0</ele><time>2026-05-02T09:18:27Z</time></trkpt><trkpt lat="42.85894073909293" lon="13.56280676069676"><ele>165.0</ele><time>2026-05-02T09:18:28Z</time></trkpt><trkpt lat="42.859043167637324" lon="13.562928724254155"><ele>165.0</ele><time>2026-05-02T09:18:29Z</time></trkpt><trkpt lat="42.85914271442535" lon="13.563044362439774"><ele>165.0</ele><time>2026-05-02T09:18:30Z</time></trkpt><trkpt lat="42.85923520026457" lon="13.563150847932244"><ele>165.0</ele><time>2026-05-02T09:18:31Z</time></trkpt><trkpt lat="42.85932384937385" lon="13.563267405890548"><ele>165.0</ele><time>2026-05-02T09:18:32Z</time></trkpt><trkpt lat="42.85941480843845" lon="13.563399162097179"><ele>165.5</ele><time>2026-05-02T09:18:33Z</time></trkpt><trkpt lat="42.859509495797084" lon="13.56353853319722"><ele>166.0</ele><time>2026-05-02T09:18:34Z</time></trkpt><trkpt lat="42.859608641857584" lon="13.563688246898927"><ele>166.5</ele><time>2026-05-02T09:18:35Z</time></trkpt><trkpt lat="42.859719268386804" lon="13.563847948243376"><ele>167.0</ele><time>2026-05-02T09:18:36Z</time></trkpt><trkpt lat="42.859828219496684" lon="13.564018066575672"><ele>167.0</ele><time>2026-05-02T09:18:37Z</time></trkpt><trkpt lat="42.85994396144099" lon="13.564195189771732"><ele>167.0</ele><time>2026-05-02T09:18:38Z</time></trkpt><trkpt lat="42.86006557930341" lon="13.564380276744535"><ele>167.0</ele><time>2026-05-02T09:18:39Z</time></trkpt><trkpt lat="42.86019582368452" lon="13.564576773676034"><ele>167.0</ele><time>2026-05-02T09:18:40Z</time></trkpt><trkpt lat="42.8603293601126" lon="13.564784354210584"><ele>167.0</ele><time>2026-05-02T09:18:41Z</time></trkpt><trkpt lat="42.860462213908335" lon="13.565006294806905"><ele>167.0</ele><time>2026-05-02T09:18:42Z</time></trkpt><trkpt lat="42.8605953698764" lon="13.56521211558301"><ele>167.0</ele><time>2026-05-02T09:18:43Z</time></trkpt><trkpt lat="42.860722121977105" lon="13.56540833233229"><ele>167.0</ele><time>2026-05-02T09:18:44Z</time></trkpt><trkpt lat="42.8608451708034" lon="13.565599677326052"><ele>167.0</ele><time>2026-05-02T09:18:44.999Z</time></trkpt><trkpt lat="42.8609537436625" lon="13.565776869259546"><ele>172.33333333333331</ele><time>2026-05-02T09:18:45.999Z</time></trkpt><trkpt lat="42.861064440043116" lon="13.565948240100157"><ele>177.66666666666666</ele><time>2026-05-02T09:18:46.999Z</time></trkpt><trkpt lat="42.861175674425496" lon="13.56611459405607"><ele>183.0</ele><time>2026-05-02T09:18:47.999Z</time></trkpt><trkpt lat="42.86127087801188" lon="13.566313354071783"><ele>183.33333333333334</ele><time>2026-05-02T09:18:48.999Z</time></trkpt><trkpt lat="42.861321017218984" lon="13.566515886269165"><ele>183.66666666666669</ele><time>2026-05-02T09:18:49.999Z</time></trkpt><trkpt lat="42.86138460969151" lon="13.566722827011326"><ele>184.0</ele><time>2026-05-02T09:18:50.999Z</time></trkpt><trkpt lat="42.861410793723685" lon="13.566951726098901"><ele>180.33333333333334</ele><time>2026-05-02T09:18:51.999Z</time></trkpt><trkpt lat="42.86141951242949" lon="13.567195238220776"><ele>176.66666666666666</ele><time>2026-05-02T09:18:52.999Z</time></trkpt><trkpt lat="42.86138538406932" lon="13.56744598902566"><ele>173.0</ele><time>2026-05-02T09:18:53.999Z</time></trkpt><trkpt lat="42.86135921657904" lon="13.567696053604198"><ele>171.33333333333331</ele><time>2026-05-02T09:18:54.999Z</time></trkpt><trkpt lat="42.86133774157487" lon="13.567970968650295"><ele>169.66666666666666</ele><time>2026-05-02T09:18:55.999Z</time></trkpt><trkpt lat="42.86129474374102" lon="13.568243194806103"><ele>168.0</ele><time>2026-05-02T09:18:56.999Z</time></trkpt><trkpt lat="42.86125996865181" lon="13.568525841376445"><ele>171.33333333333334</ele><time>2026-05-02T09:18:57.999Z</time></trkpt><trkpt lat="42.86123021486821" lon="13.568783864713017"><ele>174.66666666666669</ele><time>2026-05-02T09:18:58.999Z</time></trkpt><trkpt lat="42.86120212620993" lon="13.569043851668281"><ele>178.0</ele><time>2026-05-02T09:18:59.999Z</time></trkpt><trkpt lat="42.8611759195393" lon="13.569315364607068"><ele>181.33333333333334</ele><time>2026-05-02T09:19:00.999Z</time></trkpt><trkpt lat="42.86115333730059" lon="13.569596459214042"><ele>184.66666666666666</ele><time>2026-05-02T09:19:01.999Z</time></trkpt><trkpt lat="42.861132130491875" lon="13.569898660937646"><ele>188.0</ele><time>2026-05-02T09:19:02.999Z</time></trkpt><trkpt lat="42.86111173600605" lon="13.570201722712964"><ele>187.5</ele><time>2026-05-02T09:19:03.999Z</time></trkpt><trkpt lat="42.86109237406585" lon="13.570524736864407"><ele>187.0</ele><time>2026-05-02T09:19:04.999Z</time></trkpt><trkpt lat="42.86108245110089" lon="13.570852862802465"><ele>187.0</ele><time>2026-05-02T09:19:05.999Z</time></trkpt><trkpt lat="42.86108898926717" lon="13.571175054441307"><ele>187.0</ele><time>2026-05-02T09:19:06.999Z</time></trkpt><trkpt lat="42.86108071595706" lon="13.571480887183696"><ele>186.0</ele><time>2026-05-02T09:19:07.999Z</time></trkpt><trkpt lat="42.86107590649031" lon="13.571781103546517"><ele>185.0</ele><time>2026-05-02T09:19:08.999Z</time></trkpt><trkpt lat="42.86107458339997" lon="13.572059911357112"><ele>184.0</ele><time>2026-05-02T09:19:09.999Z</time></trkpt><trkpt lat="42.86107757869239" lon="13.572363550512826"><ele>179.66666666666669</ele><time>2026-05-02T09:19:10.999Z</time></trkpt><trkpt lat="42.86110111629852" lon="13.572630036419627"><ele>175.33333333333334</ele><time>2026-05-02T09:19:11.999Z</time></trkpt><trkpt lat="42.86112405304031" lon="13.572881131258542"><ele>171.0</ele><time>2026-05-02T09:19:12.999Z</time></trkpt><trkpt lat="42.86114134020785" lon="13.573164895597591"><ele>170.33333333333334</ele><time>2026-05-02T09:19:13.999Z</time></trkpt><trkpt lat="42.86115432043348" lon="13.573417479910397"><ele>169.66666666666669</ele><time>2026-05-02T09:19:14.999Z</time></trkpt><trkpt lat="42.86116376839168" lon="13.573671144646413"><ele>169.0</ele><time>2026-05-02T09:19:15.999Z</time></trkpt><trkpt lat="42.861173822709034" lon="13.573931878981563"><ele>169.0</ele><time>2026-05-02T09:19:16.999Z</time></trkpt><trkpt lat="42.86118131738776" lon="13.574174594419816"><ele>169.0</ele><time>2026-05-02T09:19:17.999Z</time></trkpt><trkpt lat="42.8611854847228" lon="13.574415750191077"><ele>169.0</ele><time>2026-05-02T09:19:18.999Z</time></trkpt><trkpt lat="42.86118206283666" lon="13.574676483101026"><ele>169.66666666666669</ele><time>2026-05-02T09:19:19.999Z</time></trkpt><trkpt lat="42.861170902613836" lon="13.574939782729405"><ele>170.33333333333334</ele><time>2026-05-02T09:19:20.999Z</time></trkpt><trkpt lat="42.86115334265285" lon="13.575227290385454"><ele>171.0</ele><time>2026-05-02T09:19:21.999Z</time></trkpt><trkpt lat="42.8611391824053" lon="13.57549423837436"><ele>169.0</ele><time>2026-05-02T09:19:22.999Z</time></trkpt><trkpt lat="42.86111500760118" lon="13.575710468539366"><ele>167.0</ele><time>2026-05-02T09:19:23.999Z</time></trkpt><trkpt lat="42.86109527277185" lon="13.575949721079951"><ele>165.0</ele><time>2026-05-02T09:19:24.999Z</time></trkpt><trkpt lat="42.86107866958582" lon="13.576171973395416"><ele>164.5</ele><time>2026-05-02T09:19:25.999Z</time></trkpt><trkpt lat="42.86106155963531" lon="13.57638720753299"><ele>164.0</ele><time>2026-05-02T09:19:26.999Z</time></trkpt><trkpt lat="42.861045815417654" lon="13.576592917575333"><ele>163.5</ele><time>2026-05-02T09:19:27.999Z</time></trkpt><trkpt lat="42.861033735686746" lon="13.576776981625125"><ele>163.0</ele><time>2026-05-02T09:19:28.999Z</time></trkpt><trkpt lat="42.86101913945488" lon="13.576923842010485"><ele>164.66666666666669</ele><time>2026-05-02T09:19:29.999Z</time></trkpt><trkpt lat="42.86101214559237" lon="13.57705415526315"><ele>166.33333333333334</ele><time>2026-05-02T09:19:30.999Z</time></trkpt><trkpt lat="42.86100658082987" lon="13.577155115149935"><ele>168.0</ele><time>2026-05-02T09:19:31.999Z</time></trkpt><trkpt lat="42.86099759023789" lon="13.577245682196315"><ele>169.66666666666666</ele><time>2026-05-02T09:19:33.999Z</time></trkpt><trkpt lat="42.86097585481004" lon="13.577379102337563"><ele>171.33333333333331</ele><time>2026-05-02T09:19:35.999Z</time></trkpt><trkpt lat="42.86093685801443" lon="13.57750189457332"><ele>173.0</ele><time>2026-05-02T09:19:36.999Z</time></trkpt><trkpt lat="42.860933890593" lon="13.577627946015019"><ele>175.75</ele><time>2026-05-02T09:19:37.999Z</time></trkpt><trkpt lat="42.860949001552385" lon="13.577763853129346"><ele>178.5</ele><time>2026-05-02T09:19:38.999Z</time></trkpt><trkpt lat="42.86095404513137" lon="13.577922938369676"><ele>181.25</ele><time>2026-05-02T09:19:39.999Z</time></trkpt><trkpt lat="42.86092523090972" lon="13.578096940756492"><ele>184.0</ele><time>2026-05-02T09:19:40.999Z</time></trkpt><trkpt lat="42.86091827116153" lon="13.578268233522053"><ele>175.33333333333334</ele><time>2026-05-02T09:19:41.999Z</time></trkpt><trkpt lat="42.86089958280627" lon="13.578465280904739"><ele>166.66666666666666</ele><time>2026-05-02T09:19:42.999Z</time></trkpt><trkpt lat="42.860889292779255" lon="13.578676420673812"><ele>158.0</ele><time>2026-05-02T09:19:43.999Z</time></trkpt><trkpt lat="42.86087615450413" lon="13.578896564020038"><ele>158.0</ele><time>2026-05-02T09:19:44.999Z</time></trkpt><trkpt lat="42.860864461648056" lon="13.5791324136214"><ele>158.0</ele><time>2026-05-02T09:19:45.999Z</time></trkpt><trkpt lat="42.86086137519943" lon="13.579379772747739"><ele>158.0</ele><time>2026-05-02T09:19:46.999Z</time></trkpt><trkpt lat="42.86086892057587" lon="13.579625370125447"><ele>156.66666666666666</ele><time>2026-05-02T09:19:47.999Z</time></trkpt><trkpt lat="42.860885786973604" lon="13.579876132673043"><ele>155.33333333333334</ele><time>2026-05-02T09:19:48.999Z</time></trkpt><trkpt lat="42.860912141735696" lon="13.580132371685858"><ele>154.0</ele><time>2026-05-02T09:19:49.999Z</time></trkpt><trkpt lat="42.860945844061284" lon="13.580385602309747"><ele>153.0</ele><time>2026-05-02T09:19:50.999Z</time></trkpt><trkpt lat="42.86098388780472" lon="13.580635926115633"><ele>152.0</ele><time>2026-05-02T09:19:51.999Z</time></trkpt><trkpt lat="42.8610198956555" lon="13.58089347730174"><ele>151.0</ele><time>2026-05-02T09:19:52.999Z</time></trkpt><trkpt lat="42.86105554808699" lon="13.581155667452864"><ele>148.66666666666669</ele><time>2026-05-02T09:19:53.999Z</time></trkpt><trkpt lat="42.86109226834433" lon="13.58142165939765"><ele>146.33333333333334</ele><time>2026-05-02T09:19:54.999Z</time></trkpt><trkpt lat="42.86112965781355" lon="13.581691903893393"><ele>144.0</ele><time>2026-05-02T09:19:55.999Z</time></trkpt><trkpt lat="42.861169085598554" lon="13.581967319033598"><ele>142.0</ele><time>2026-05-02T09:19:56.999Z</time></trkpt><trkpt lat="42.86120843607847" lon="13.582241939363705"><ele>140.0</ele><time>2026-05-02T09:19:57.999Z</time></trkpt><trkpt lat="42.86124813810008" lon="13.582517157028551"><ele>138.0</ele><time>2026-05-02T09:19:58.999Z</time></trkpt><trkpt lat="42.86128620759878" lon="13.582787253391801"><ele>133.66666666666666</ele><time>2026-05-02T09:19:59.999Z</time></trkpt><trkpt lat="42.86132753367596" lon="13.58306177330257"><ele>129.33333333333331</ele><time>2026-05-02T09:20:00.999Z</time></trkpt><trkpt lat="42.86136972705571" lon="13.583350406989961"><ele>125.0</ele><time>2026-05-02T09:20:01.999Z</time></trkpt><trkpt lat="42.86141287623406" lon="13.583643594968581"><ele>129.0</ele><time>2026-05-02T09:20:02.999Z</time></trkpt><trkpt lat="42.861456675347355" lon="13.58394573210231"><ele>133.0</ele><time>2026-05-02T09:20:03.999Z</time></trkpt><trkpt lat="42.86150169173797" lon="13.584251743345162"><ele>141.5</ele><time>2026-05-02T09:20:04.999Z</time></trkpt><trkpt lat="42.861545711092525" lon="13.584561246499625"><ele>150.0</ele><time>2026-05-02T09:20:05.998Z</time></trkpt><trkpt lat="42.86158892468948" lon="13.584872385918672"><ele>150.0</ele><time>2026-05-02T09:20:07Z</time></trkpt><trkpt lat="42.86162472989312" lon="13.585182139965008"><ele>150.0</ele><time>2026-05-02T09:20:08Z</time></trkpt><trkpt lat="42.86165808437555" lon="13.585506402515483"><ele>153.0</ele><time>2026-05-02T09:20:09Z</time></trkpt><trkpt lat="42.8616841633865" lon="13.585825114222649"><ele>156.0</ele><time>2026-05-02T09:20:10Z</time></trkpt><trkpt lat="42.86171076745996" lon="13.586136087257554"><ele>156.5</ele><time>2026-05-02T09:20:11Z</time></trkpt><trkpt lat="42.861737567635934" lon="13.586461329709758"><ele>157.0</ele><time>2026-05-02T09:20:12Z</time></trkpt><trkpt lat="42.861767437073034" lon="13.586776611711672"><ele>172.5</ele><time>2026-05-02T09:20:13Z</time></trkpt><trkpt lat="42.86179534387309" lon="13.587090867515323"><ele>188.0</ele><time>2026-05-02T09:20:14Z</time></trkpt><trkpt lat="42.86182100043486" lon="13.587405214557979"><ele>188.0</ele><time>2026-05-02T09:20:15Z</time></trkpt><trkpt lat="42.86184898975002" lon="13.587681419826156"><ele>188.0</ele><time>2026-05-02T09:20:16Z</time></trkpt><trkpt lat="42.86188146283259" lon="13.58793231559292"><ele>188.0</ele><time>2026-05-02T09:20:17Z</time></trkpt><trkpt lat="42.86192516617314" lon="13.588210027762418"><ele>187.0</ele><time>2026-05-02T09:20:18Z</time></trkpt><trkpt lat="42.86196062544398" lon="13.588487031126173"><ele>186.0</ele><time>2026-05-02T09:20:19Z</time></trkpt><trkpt lat="42.86201419031619" lon="13.588734931627895"><ele>185.0</ele><time>2026-05-02T09:20:20Z</time></trkpt><trkpt lat="42.8620366084176" lon="13.588981765503702"><ele>183.33333333333331</ele><time>2026-05-02T09:20:21Z</time></trkpt><trkpt lat="42.8621053525911" lon="13.589234621901596"><ele>181.66666666666666</ele><time>2026-05-02T09:20:22Z</time></trkpt><trkpt lat="42.86216741358102" lon="13.589475760053933"><ele>180.0</ele><time>2026-05-02T09:20:23Z</time></trkpt><trkpt lat="42.86223786731676" lon="13.589735913306747"><ele>178.66666666666666</ele><time>2026-05-02T09:20:24Z</time></trkpt><trkpt lat="42.862298124422885" lon="13.589998286598396"><ele>177.33333333333331</ele><time>2026-05-02T09:20:25Z</time></trkpt><trkpt lat="42.86236367257331" lon="13.590274041372728"><ele>176.0</ele><time>2026-05-02T09:20:26Z</time></trkpt><trkpt lat="42.8624198461023" lon="13.59055141961693"><ele>172.66666666666666</ele><time>2026-05-02T09:20:27Z</time></trkpt><trkpt lat="42.86246175390158" lon="13.590812796228676"><ele>169.33333333333334</ele><time>2026-05-02T09:20:28Z</time></trkpt><trkpt lat="42.86250492245871" lon="13.591079257583065"><ele>166.0</ele><time>2026-05-02T09:20:29Z</time></trkpt><trkpt lat="42.86254343154564" lon="13.591333018799459"><ele>162.66666666666669</ele><time>2026-05-02T09:20:30Z</time></trkpt><trkpt lat="42.86258380837713" lon="13.591592303103088"><ele>159.33333333333334</ele><time>2026-05-02T09:20:31Z</time></trkpt><trkpt lat="42.86261874151755" lon="13.591828965740122"><ele>156.0</ele><time>2026-05-02T09:20:32Z</time></trkpt><trkpt lat="42.86265624093165" lon="13.592067364693454"><ele>167.33333333333334</ele><time>2026-05-02T09:20:33Z</time></trkpt><trkpt lat="42.862663493999584" lon="13.59229576099587"><ele>178.66666666666669</ele><time>2026-05-02T09:20:34Z</time></trkpt><trkpt lat="42.862661754520865" lon="13.59251583322835"><ele>190.0</ele><time>2026-05-02T09:20:35Z</time></trkpt><trkpt lat="42.862657757602705" lon="13.592738721925262"><ele>185.33333333333334</ele><time>2026-05-02T09:20:36Z</time></trkpt><trkpt lat="42.86262840247944" lon="13.592947854675879"><ele>180.66666666666666</ele><time>2026-05-02T09:20:37Z</time></trkpt><trkpt lat="42.86259297791192" lon="13.59316384727677"><ele>176.0</ele><time>2026-05-02T09:20:38Z</time></trkpt><trkpt lat="42.86253938070153" lon="13.593373283542698"><ele>171.66666666666666</ele><time>2026-05-02T09:20:39Z</time></trkpt><trkpt lat="42.86247816927709" lon="13.59357361434427"><ele>167.33333333333334</ele><time>2026-05-02T09:20:40Z</time></trkpt><trkpt lat="42.862397415603695" lon="13.593762019240843"><ele>163.0</ele><time>2026-05-02T09:20:41Z</time></trkpt><trkpt lat="42.862300210560015" lon="13.593946636494449"><ele>163.0</ele><time>2026-05-02T09:20:42Z</time></trkpt><trkpt lat="42.862197731397686" lon="13.594124278813155"><ele>163.0</ele><time>2026-05-02T09:20:43Z</time></trkpt><trkpt lat="42.862097585461406" lon="13.594286081814465"><ele>163.0</ele><time>2026-05-02T09:20:44Z</time></trkpt><trkpt lat="42.86199281251159" lon="13.594434697530753"><ele>161.0</ele><time>2026-05-02T09:20:45Z</time></trkpt><trkpt lat="42.861878154857294" lon="13.594569697580006"><ele>159.0</ele><time>2026-05-02T09:20:46Z</time></trkpt><trkpt lat="42.86176195487997" lon="13.594689181751631"><ele>157.0</ele><time>2026-05-02T09:20:47Z</time></trkpt><trkpt lat="42.86164146027374" lon="13.594802439655842"><ele>155.0</ele><time>2026-05-02T09:20:48Z</time></trkpt><trkpt lat="42.8615157749489" lon="13.594930102460214"><ele>155.0</ele><time>2026-05-02T09:20:49Z</time></trkpt><trkpt lat="42.86137504915495" lon="13.595077179487392"><ele>155.0</ele><time>2026-05-02T09:20:49.999Z</time></trkpt><trkpt lat="42.86122673264566" lon="13.595226220436095"><ele>155.0</ele><time>2026-05-02T09:20:50.999Z</time></trkpt><trkpt lat="42.86107844423682" lon="13.595365380507882"><ele>153.0</ele><time>2026-05-02T09:20:51.999Z</time></trkpt><trkpt lat="42.86094094782633" lon="13.595489987938757"><ele>151.0</ele><time>2026-05-02T09:20:52.999Z</time></trkpt><trkpt lat="42.86081264601833" lon="13.595593523244347"><ele>149.0</ele><time>2026-05-02T09:20:53.999Z</time></trkpt><trkpt lat="42.860686681495125" lon="13.595712590153655"><ele>149.0</ele><time>2026-05-02T09:20:54.999Z</time></trkpt><trkpt lat="42.86056327749834" lon="13.595812192596018"><ele>149.0</ele><time>2026-05-02T09:20:55.999Z</time></trkpt><trkpt lat="42.86044229090817" lon="13.595915209171881"><ele>149.0</ele><time>2026-05-02T09:20:56.999Z</time></trkpt><trkpt lat="42.860325904134186" lon="13.596015015579253"><ele>149.0</ele><time>2026-05-02T09:20:57.999Z</time></trkpt><trkpt lat="42.86021412014238" lon="13.596111771306985"><ele>149.6</ele><time>2026-05-02T09:20:58.999Z</time></trkpt><trkpt lat="42.86010986484854" lon="13.596195286011042"><ele>150.2</ele><time>2026-05-02T09:20:59.999Z</time></trkpt><trkpt lat="42.86000824383564" lon="13.59626491149638"><ele>150.79999999999998</ele><time>2026-05-02T09:21:00.999Z</time></trkpt><trkpt lat="42.85993333444904" lon="13.596362735115775"><ele>151.4</ele><time>2026-05-02T09:21:01.999Z</time></trkpt><trkpt lat="42.85984539171076" lon="13.596426491202763"><ele>152.0</ele><time>2026-05-02T09:21:02.999Z</time></trkpt><trkpt lat="42.859775043486025" lon="13.596505688011806"><ele>152.0</ele><time>2026-05-02T09:21:03.999Z</time></trkpt><trkpt lat="42.85970762244796" lon="13.59659594032656"><ele>152.0</ele><time>2026-05-02T09:21:04.999Z</time></trkpt><trkpt lat="42.85965875484498" lon="13.596710062254443"><ele>152.0</ele><time>2026-05-02T09:21:05.999Z</time></trkpt><trkpt lat="42.85958770085906" lon="13.596826479746559"><ele>152.0</ele><time>2026-05-02T09:21:06.999Z</time></trkpt><trkpt lat="42.85954168595209" lon="13.596937607042655"><ele>152.0</ele><time>2026-05-02T09:21:07.999Z</time></trkpt><trkpt lat="42.85950498321059" lon="13.597051452254505"><ele>153.4</ele><time>2026-05-02T09:21:08.999Z</time></trkpt><trkpt lat="42.85946540972743" lon="13.597149232937047"><ele>154.79999999999998</ele><time>2026-05-02T09:21:09.999Z</time></trkpt><trkpt lat="42.85943953686799" lon="13.597239702385345"><ele>156.2</ele><time>2026-05-02T09:21:10.999Z</time></trkpt><trkpt lat="42.859407511359265" lon="13.597413506489257"><ele>157.6</ele><time>2026-05-02T09:21:12.999Z</time></trkpt><trkpt lat="42.859351590066616" lon="13.59753056337144"><ele>159.0</ele><time>2026-05-02T09:21:14.999Z</time></trkpt><trkpt lat="42.85931736161529" lon="13.59762229123253"><ele>157.5</ele><time>2026-05-02T09:21:15.999Z</time></trkpt><trkpt lat="42.85927690599212" lon="13.597712483862106"><ele>156.0</ele><time>2026-05-02T09:21:16.999Z</time></trkpt><trkpt lat="42.85923158255884" lon="13.597801783944595"><ele>154.5</ele><time>2026-05-02T09:21:17.999Z</time></trkpt><trkpt lat="42.859180213115536" lon="13.59789293164156"><ele>153.0</ele><time>2026-05-02T09:21:18.999Z</time></trkpt><trkpt lat="42.859127269884866" lon="13.597982648840414"><ele>151.5</ele><time>2026-05-02T09:21:19.999Z</time></trkpt><trkpt lat="42.859089933255866" lon="13.59807428965698"><ele>150.0</ele><time>2026-05-02T09:21:20.999Z</time></trkpt><trkpt lat="42.85904199541928" lon="13.598140123514009"><ele>148.8</ele><time>2026-05-02T09:21:21.999Z</time></trkpt><trkpt lat="42.858977170894214" lon="13.59819127147338"><ele>147.6</ele><time>2026-05-02T09:21:22.999Z</time></trkpt><trkpt lat="42.858910488346275" lon="13.598265289906424"><ele>146.4</ele><time>2026-05-02T09:21:23.999Z</time></trkpt><trkpt lat="42.85883053319125" lon="13.598345170740233"><ele>145.2</ele><time>2026-05-02T09:21:24.999Z</time></trkpt><trkpt lat="42.858745989701696" lon="13.598422161882432"><ele>144.0</ele><time>2026-05-02T09:21:25.999Z</time></trkpt><trkpt lat="42.85866516636554" lon="13.598489321496057"><ele>144.0</ele><time>2026-05-02T09:21:26.999Z</time></trkpt><trkpt lat="42.85858350133049" lon="13.59854520352475"><ele>144.0</ele><time>2026-05-02T09:21:27.999Z</time></trkpt><trkpt lat="42.858496034937744" lon="13.598619039291583"><ele>144.0</ele><time>2026-05-02T09:21:28.999Z</time></trkpt><trkpt lat="42.85838999776848" lon="13.598661230529178"><ele>144.0</ele><time>2026-05-02T09:21:29.999Z</time></trkpt><trkpt lat="42.858270535687375" lon="13.598675707149413"><ele>144.0</ele><time>2026-05-02T09:21:30.999Z</time></trkpt><trkpt lat="42.85814890878887" lon="13.598727994874322"><ele>144.75</ele><time>2026-05-02T09:21:31.999Z</time></trkpt><trkpt lat="42.85801226855941" lon="13.598747477995481"><ele>145.5</ele><time>2026-05-02T09:21:32.999Z</time></trkpt><trkpt lat="42.85786441110716" lon="13.598750560147854"><ele>146.25</ele><time>2026-05-02T09:21:33.999Z</time></trkpt><trkpt lat="42.8577317436065" lon="13.598751208207958"><ele>147.0</ele><time>2026-05-02T09:21:34.999Z</time></trkpt><trkpt lat="42.85760677655711" lon="13.598765678657985"><ele>147.0</ele><time>2026-05-02T09:21:35.999Z</time></trkpt><trkpt lat="42.85747993105742" lon="13.598799262647892"><ele>147.0</ele><time>2026-05-02T09:21:36.999Z</time></trkpt><trkpt lat="42.85735327151204" lon="13.598855097565883"><ele>147.0</ele><time>2026-05-02T09:21:37.999Z</time></trkpt><trkpt lat="42.85722421730059" lon="13.59892543403315"><ele>147.0</ele><time>2026-05-02T09:21:38.999Z</time></trkpt><trkpt lat="42.85709688718198" lon="13.599016884009991"><ele>147.0</ele><time>2026-05-02T09:21:39.999Z</time></trkpt><trkpt lat="42.8569730867378" lon="13.599126205485"><ele>147.0</ele><time>2026-05-02T09:21:40.999Z</time></trkpt><trkpt lat="42.85685252945069" lon="13.599244860234949"><ele>147.0</ele><time>2026-05-02T09:21:41.999Z</time></trkpt><trkpt lat="42.85672996732673" lon="13.599370760957639"><ele>148.0</ele><time>2026-05-02T09:21:42.999Z</time></trkpt><trkpt lat="42.856608120488495" lon="13.599492203655492"><ele>149.0</ele><time>2026-05-02T09:21:43.999Z</time></trkpt><trkpt lat="42.8564795814287" lon="13.599612120710672"><ele>150.0</ele><time>2026-05-02T09:21:44.999Z</time></trkpt><trkpt lat="42.85634889508975" lon="13.599734131948006"><ele>150.0</ele><time>2026-05-02T09:21:45.999Z</time></trkpt><trkpt lat="42.856216787147055" lon="13.59986095164567"><ele>150.0</ele><time>2026-05-02T09:21:46.999Z</time></trkpt><trkpt lat="42.85608132916521" lon="13.599995785922559"><ele>150.0</ele><time>2026-05-02T09:21:47.999Z</time></trkpt><trkpt lat="42.85594307312935" lon="13.600135235769196"><ele>149.0</ele><time>2026-05-02T09:21:48.999Z</time></trkpt><trkpt lat="42.855809674238294" lon="13.600268342974639"><ele>148.0</ele><time>2026-05-02T09:21:49.999Z</time></trkpt><trkpt lat="42.85569309018352" lon="13.60039575468174"><ele>147.0</ele><time>2026-05-02T09:21:50.999Z</time></trkpt><trkpt lat="42.855583285456284" lon="13.600537888523432"><ele>147.0</ele><time>2026-05-02T09:21:51.999Z</time></trkpt><trkpt lat="42.855480497535574" lon="13.600699613242607"><ele>147.0</ele><time>2026-05-02T09:21:52.999Z</time></trkpt><trkpt lat="42.855386211980495" lon="13.600865577942162"><ele>147.0</ele><time>2026-05-02T09:21:53.999Z</time></trkpt><trkpt lat="42.855306298950225" lon="13.601016890112568"><ele>147.0</ele><time>2026-05-02T09:21:54.999Z</time></trkpt><trkpt lat="42.855230871339714" lon="13.601157633246086"><ele>148.75</ele><time>2026-05-02T09:21:55.999Z</time></trkpt><trkpt lat="42.855156915691865" lon="13.601295566815072"><ele>150.5</ele><time>2026-05-02T09:21:56.999Z</time></trkpt><trkpt lat="42.85507387984916" lon="13.601448184391863"><ele>152.25</ele><time>2026-05-02T09:21:57.999Z</time></trkpt><trkpt lat="42.85498616678008" lon="13.601610106049932"><ele>154.0</ele><time>2026-05-02T09:21:58.999Z</time></trkpt><trkpt lat="42.854902732723566" lon="13.601773410517287"><ele>153.0</ele><time>2026-05-02T09:21:59.999Z</time></trkpt><trkpt lat="42.85481582199474" lon="13.601944674688829"><ele>152.0</ele><time>2026-05-02T09:22:00.999Z</time></trkpt><trkpt lat="42.8547278388128" lon="13.60211021471141"><ele>151.0</ele><time>2026-05-02T09:22:01.999Z</time></trkpt><trkpt lat="42.8546492936614" lon="13.602254678246391"><ele>150.0</ele><time>2026-05-02T09:22:02.999Z</time></trkpt><trkpt lat="42.85455779686473" lon="13.60243054642383"><ele>150.0</ele><time>2026-05-02T09:22:03.999Z</time></trkpt><trkpt lat="42.854472299431244" lon="13.602591450188855"><ele>150.0</ele><time>2026-05-02T09:22:04.999Z</time></trkpt><trkpt lat="42.85438679385917" lon="13.602751550044015"><ele>150.0</ele><time>2026-05-02T09:22:05.999Z</time></trkpt><trkpt lat="42.8543020173519" lon="13.602904557195227"><ele>150.0</ele><time>2026-05-02T09:22:06.999Z</time></trkpt><trkpt lat="42.85422072060341" lon="13.603055826422533"><ele>149.25</ele><time>2026-05-02T09:22:07.999Z</time></trkpt><trkpt lat="42.854141168355476" lon="13.603199318897135"><ele>148.5</ele><time>2026-05-02T09:22:08.999Z</time></trkpt><trkpt lat="42.854061950805" lon="13.603352290903047"><ele>147.75</ele><time>2026-05-02T09:22:09.999Z</time></trkpt><trkpt lat="42.853984911392715" lon="13.603494348587786"><ele>147.0</ele><time>2026-05-02T09:22:10.998Z</time></trkpt><trkpt lat="42.8538942564121" lon="13.603636459653549"><ele>150.25</ele><time>2026-05-02T09:22:11.998Z</time></trkpt><trkpt lat="42.85381477453844" lon="13.603794423660478"><ele>153.5</ele><time>2026-05-02T09:22:13Z</time></trkpt><trkpt lat="42.853736544109" lon="13.603934835124234"><ele>156.75</ele><time>2026-05-02T09:22:14Z</time></trkpt><trkpt lat="42.85366631212676" lon="13.604064734659838"><ele>160.0</ele><time>2026-05-02T09:22:15Z</time></trkpt><trkpt lat="42.853587354187276" lon="13.604204861239939"><ele>160.0</ele><time>2026-05-02T09:22:16Z</time></trkpt><trkpt lat="42.853490490708495" lon="13.604370628455086"><ele>160.0</ele><time>2026-05-02T09:22:17Z</time></trkpt><trkpt lat="42.853379466398174" lon="13.60453562668109"><ele>160.0</ele><time>2026-05-02T09:22:18Z</time></trkpt><trkpt lat="42.85325878333558" lon="13.604719887336053"><ele>156.33333333333334</ele><time>2026-05-02T09:22:19Z</time></trkpt><trkpt lat="42.85312775730662" lon="13.604883335681603"><ele>152.66666666666666</ele><time>2026-05-02T09:22:20Z</time></trkpt><trkpt lat="42.85300488789358" lon="13.605046164066017"><ele>149.0</ele><time>2026-05-02T09:22:21Z</time></trkpt><trkpt lat="42.852877645663604" lon="13.6051905176171"><ele>148.66666666666666</ele><time>2026-05-02T09:22:22Z</time></trkpt><trkpt lat="42.852763840884926" lon="13.605344336475664"><ele>148.33333333333334</ele><time>2026-05-02T09:22:23Z</time></trkpt><trkpt lat="42.852638812376675" lon="13.605497238650068"><ele>148.0</ele><time>2026-05-02T09:22:24Z</time></trkpt><trkpt lat="42.85251290242044" lon="13.605655943364575"><ele>146.66666666666669</ele><time>2026-05-02T09:22:25Z</time></trkpt><trkpt lat="42.8523959898694" lon="13.605825892908726"><ele>145.33333333333334</ele><time>2026-05-02T09:22:26Z</time></trkpt><trkpt lat="42.85229716137259" lon="13.606017916881664"><ele>144.0</ele><time>2026-05-02T09:22:27Z</time></trkpt><trkpt lat="42.85222148322598" lon="13.606224239217823"><ele>142.33333333333334</ele><time>2026-05-02T09:22:28Z</time></trkpt><trkpt lat="42.85215836834907" lon="13.606441245748366"><ele>140.66666666666669</ele><time>2026-05-02T09:22:29Z</time></trkpt><trkpt lat="42.85210145890405" lon="13.606657966533826"><ele>139.0</ele><time>2026-05-02T09:22:30Z</time></trkpt><trkpt lat="42.85204201451021" lon="13.6068648869217"><ele>136.66666666666669</ele><time>2026-05-02T09:22:31Z</time></trkpt><trkpt lat="42.85198505426478" lon="13.607056096668389"><ele>134.33333333333334</ele><time>2026-05-02T09:22:32Z</time></trkpt><trkpt lat="42.85192736982758" lon="13.60725245737345"><ele>132.0</ele><time>2026-05-02T09:22:33Z</time></trkpt><trkpt lat="42.85187297597709" lon="13.60745036793253"><ele>132.0</ele><time>2026-05-02T09:22:34Z</time></trkpt><trkpt lat="42.85181423944376" lon="13.607649423625812"><ele>132.0</ele><time>2026-05-02T09:22:35Z</time></trkpt><trkpt lat="42.85175347727808" lon="13.607831823292582"><ele>132.0</ele><time>2026-05-02T09:22:36Z</time></trkpt><trkpt lat="42.85170238152585" lon="13.608027053782225"><ele>131.5</ele><time>2026-05-02T09:22:37Z</time></trkpt><trkpt lat="42.85165097691563" lon="13.60820674086127"><ele>131.0</ele><time>2026-05-02T09:22:38Z</time></trkpt><trkpt lat="42.85159485607514" lon="13.608377557080553"><ele>130.5</ele><time>2026-05-02T09:22:39Z</time></trkpt><trkpt lat="42.85151748223313" lon="13.60853534805849"><ele>130.0</ele><time>2026-05-02T09:22:40Z</time></trkpt><trkpt lat="42.851451719344304" lon="13.608710567207208"><ele>130.0</ele><time>2026-05-02T09:22:41Z</time></trkpt><trkpt lat="42.851410638032476" lon="13.608890882861475"><ele>130.0</ele><time>2026-05-02T09:22:42Z</time></trkpt><trkpt lat="42.85136367755038" lon="13.609087019072671"><ele>130.0</ele><time>2026-05-02T09:22:43Z</time></trkpt><trkpt lat="42.851318112264636" lon="13.60926927792622"><ele>130.0</ele><time>2026-05-02T09:22:44Z</time></trkpt><trkpt lat="42.8512682170807" lon="13.609435446236901"><ele>131.0</ele><time>2026-05-02T09:22:45Z</time></trkpt><trkpt lat="42.85121585223155" lon="13.609590666926476"><ele>132.0</ele><time>2026-05-02T09:22:46Z</time></trkpt><trkpt lat="42.851157684766406" lon="13.609745195376737"><ele>133.0</ele><time>2026-05-02T09:22:47Z</time></trkpt><trkpt lat="42.85112905606724" lon="13.609905634561871"><ele>134.0</ele><time>2026-05-02T09:22:48Z</time></trkpt><trkpt lat="42.851091043943775" lon="13.610054280118327"><ele>134.0</ele><time>2026-05-02T09:22:49Z</time></trkpt><trkpt lat="42.85104575107806" lon="13.610203604903825"><ele>134.0</ele><time>2026-05-02T09:22:50Z</time></trkpt><trkpt lat="42.85099956123903" lon="13.610381596284357"><ele>134.0</ele><time>2026-05-02T09:22:51Z</time></trkpt><trkpt lat="42.8509532763884" lon="13.610537291024569"><ele>134.0</ele><time>2026-05-02T09:22:52Z</time></trkpt><trkpt lat="42.850909617276976" lon="13.610687756904248"><ele>132.6</ele><time>2026-05-02T09:22:53Z</time></trkpt><trkpt lat="42.85086943820464" lon="13.61083168415923"><ele>131.2</ele><time>2026-05-02T09:22:54Z</time></trkpt><trkpt lat="42.850831194480755" lon="13.610970048731827"><ele>129.79999999999998</ele><time>2026-05-02T09:22:55Z</time></trkpt><trkpt lat="42.85079894586298" lon="13.61110441277257"><ele>128.4</ele><time>2026-05-02T09:22:56Z</time></trkpt><trkpt lat="42.85076748818638" lon="13.611230575561986"><ele>127.0</ele><time>2026-05-02T09:22:57Z</time></trkpt><trkpt lat="42.85072714381782" lon="13.611352525291348"><ele>126.83333333333334</ele><time>2026-05-02T09:22:58Z</time></trkpt><trkpt lat="42.850693703846524" lon="13.611469196289017"><ele>126.66666666666667</ele><time>2026-05-02T09:22:59Z</time></trkpt><trkpt lat="42.85067614062989" lon="13.611559214980522"><ele>126.5</ele><time>2026-05-02T09:23:00Z</time></trkpt><trkpt lat="42.85064870784694" lon="13.61165687611166"><ele>126.33333333333334</ele><time>2026-05-02T09:23:02Z</time></trkpt><trkpt lat="42.85058710114342" lon="13.61182979784294"><ele>126.16666666666667</ele><time>2026-05-02T09:23:04.999Z</time></trkpt><trkpt lat="42.85054834716061" lon="13.611905733553725"><ele>126.0</ele><time>2026-05-02T09:23:05.999Z</time></trkpt><trkpt lat="42.85049075807595" lon="13.612074738307577"><ele>126.0</ele><time>2026-05-02T09:23:07.999Z</time></trkpt><trkpt lat="42.85049005605048" lon="13.612207459307548"><ele>126.0</ele><time>2026-05-02T09:23:08.999Z</time></trkpt><trkpt lat="42.85048547377171" lon="13.612329186868209"><ele>126.0</ele><time>2026-05-02T09:23:09.999Z</time></trkpt><trkpt lat="42.85047828657832" lon="13.612466654132605"><ele>126.0</ele><time>2026-05-02T09:23:10.999Z</time></trkpt><trkpt lat="42.8504649800596" lon="13.612628285531047"><ele>126.0</ele><time>2026-05-02T09:23:11.999Z</time></trkpt><trkpt lat="42.85044658527729" lon="13.612796252979138"><ele>126.25</ele><time>2026-05-02T09:23:12.999Z</time></trkpt><trkpt lat="42.85043608243075" lon="13.612994614909681"><ele>126.5</ele><time>2026-05-02T09:23:13.999Z</time></trkpt><trkpt lat="42.85043597438778" lon="13.61316899613119"><ele>126.75</ele><time>2026-05-02T09:23:14.999Z</time></trkpt><trkpt lat="42.850438521252066" lon="13.61333667215827"><ele>127.0</ele><time>2026-05-02T09:23:15.999Z</time></trkpt><trkpt lat="42.85043451051095" lon="13.61348495092953"><ele>127.00000000000001</ele><time>2026-05-02T09:23:16.999Z</time></trkpt><trkpt lat="42.85043254386306" lon="13.613618813518338"><ele>127.0</ele><time>2026-05-02T09:23:17.999Z</time></trkpt><trkpt lat="42.85042743916347" lon="13.613737826985432"><ele>127.0</ele><time>2026-05-02T09:23:18.999Z</time></trkpt><trkpt lat="42.85042380643946" lon="13.61383733105114"><ele>127.0</ele><time>2026-05-02T09:23:19.999Z</time></trkpt><trkpt lat="42.85040952182475" lon="13.613943367182605"><ele>127.00000000000001</ele><time>2026-05-02T09:23:21.999Z</time></trkpt><trkpt lat="42.85040752022637" lon="13.614036946136684"><ele>127.0</ele><time>2026-05-02T09:23:25.999Z</time></trkpt><trkpt lat="42.85037924336149" lon="13.614153721325893"><ele>127.0</ele><time>2026-05-02T09:23:47.999Z</time></trkpt><trkpt lat="42.85037827149181" lon="13.614280645899676"><ele>127.0</ele><time>2026-05-02T09:23:48.999Z</time></trkpt><trkpt lat="42.85037514501488" lon="13.614444239152933"><ele>127.0</ele><time>2026-05-02T09:23:49.999Z</time></trkpt><trkpt lat="42.8503779606349" lon="13.614607170120028"><ele>127.0</ele><time>2026-05-02T09:23:50.999Z</time></trkpt><trkpt lat="42.850376578542075" lon="13.614778816133876"><ele>126.39999999999999</ele><time>2026-05-02T09:23:51.999Z</time></trkpt><trkpt lat="42.850371643460825" lon="13.614963801929033"><ele>125.79999999999998</ele><time>2026-05-02T09:23:52.999Z</time></trkpt><trkpt lat="42.85038267738772" lon="13.615119046449848"><ele>125.2</ele><time>2026-05-02T09:23:53.999Z</time></trkpt><trkpt lat="42.850384100793256" lon="13.61524458870812"><ele>124.6</ele><time>2026-05-02T09:23:54.999Z</time></trkpt><trkpt lat="42.850387059156134" lon="13.615350075167896"><ele>124.0</ele><time>2026-05-02T09:23:55.999Z</time></trkpt><trkpt lat="42.85039304431582" lon="13.61547841115305"><ele>123.6</ele><time>2026-05-02T09:23:57.999Z</time></trkpt><trkpt lat="42.85039138490182" lon="13.61556465593013"><ele>123.2</ele><time>2026-05-02T09:23:59.999Z</time></trkpt><trkpt lat="42.85038386367145" lon="13.61567039922035"><ele>122.79999999999998</ele><time>2026-05-02T09:24:10.999Z</time></trkpt><trkpt lat="42.85038235079914" lon="13.615766790840196"><ele>122.39999999999999</ele><time>2026-05-02T09:24:11.999Z</time></trkpt><trkpt lat="42.85038275801886" lon="13.615961232480709"><ele>122.0</ele><time>2026-05-02T09:24:13.999Z</time></trkpt><trkpt lat="42.85037955300641" lon="13.616123160119942"><ele>122.0</ele><time>2026-05-02T09:24:14.999Z</time></trkpt><trkpt lat="42.850379430224656" lon="13.616287109478257"><ele>122.0</ele><time>2026-05-02T09:24:15.999Z</time></trkpt><trkpt lat="42.85037381080407" lon="13.616454225974403"><ele>122.0</ele><time>2026-05-02T09:24:16.999Z</time></trkpt><trkpt lat="42.850357293458444" lon="13.61661141319"><ele>122.0</ele><time>2026-05-02T09:24:17.999Z</time></trkpt><trkpt lat="42.850355792460256" lon="13.616792526072333"><ele>122.0</ele><time>2026-05-02T09:24:19Z</time></trkpt><trkpt lat="42.850350163355664" lon="13.616963740565641"><ele>122.0</ele><time>2026-05-02T09:24:20Z</time></trkpt><trkpt lat="42.85033675301196" lon="13.617133631372015"><ele>122.0</ele><time>2026-05-02T09:24:21Z</time></trkpt><trkpt lat="42.850327373823745" lon="13.617289021564343"><ele>122.0</ele><time>2026-05-02T09:24:22Z</time></trkpt><trkpt lat="42.850320590273746" lon="13.6174330162172"><ele>121.85714285714283</ele><time>2026-05-02T09:24:23Z</time></trkpt><trkpt lat="42.85032710006675" lon="13.6175394810333"><ele>121.71428571428571</ele><time>2026-05-02T09:24:24Z</time></trkpt><trkpt lat="42.85031506264195" lon="13.617634473353142"><ele>121.57142857142856</ele><time>2026-05-02T09:24:25Z</time></trkpt><trkpt lat="42.850312409596356" lon="13.61772519625602"><ele>121.42857142857142</ele><time>2026-05-02T09:24:26Z</time></trkpt><trkpt lat="42.8503095503629" lon="13.617815757423541"><ele>121.28571428571428</ele><time>2026-05-02T09:24:27Z</time></trkpt><trkpt lat="42.85030239796723" lon="13.617905185784004"><ele>121.14285714285714</ele><time>2026-05-02T09:24:28Z</time></trkpt><trkpt lat="42.850299208281434" lon="13.618022006728271"><ele>121.0</ele><time>2026-05-02T09:24:29Z</time></trkpt><trkpt lat="42.850308425887654" lon="13.618144386955976"><ele>120.8</ele><time>2026-05-02T09:24:30Z</time></trkpt><trkpt lat="42.85031782998294" lon="13.618256006031006"><ele>120.6</ele><time>2026-05-02T09:24:31Z</time></trkpt><trkpt lat="42.85031587970709" lon="13.6183646330188"><ele>120.4</ele><time>2026-05-02T09:24:32Z</time></trkpt><trkpt lat="42.85030770754457" lon="13.618480677331496"><ele>120.2</ele><time>2026-05-02T09:24:33Z</time></trkpt><trkpt lat="42.85029873354502" lon="13.618630743569852"><ele>120.0</ele><time>2026-05-02T09:24:34Z</time></trkpt><trkpt lat="42.85028582025907" lon="13.618821336047382"><ele>120.66666666666666</ele><time>2026-05-02T09:24:35Z</time></trkpt><trkpt lat="42.850265954395184" lon="13.619049362830953"><ele>121.33333333333333</ele><time>2026-05-02T09:24:36Z</time></trkpt><trkpt lat="42.85024762779601" lon="13.619301803183228"><ele>122.0</ele><time>2026-05-02T09:24:37Z</time></trkpt><trkpt lat="42.850235389910196" lon="13.61956043359479"><ele>123.0</ele><time>2026-05-02T09:24:38Z</time></trkpt><trkpt lat="42.85022993340262" lon="13.61983232533374"><ele>124.0</ele><time>2026-05-02T09:24:39Z</time></trkpt><trkpt lat="42.85022866327592" lon="13.620119742662025"><ele>125.0</ele><time>2026-05-02T09:24:40Z</time></trkpt><trkpt lat="42.85022770267623" lon="13.620426148315678"><ele>125.66666666666666</ele><time>2026-05-02T09:24:41Z</time></trkpt><trkpt lat="42.850220712117604" lon="13.620728405204549"><ele>126.33333333333334</ele><time>2026-05-02T09:24:42Z</time></trkpt><trkpt lat="42.85021357434766" lon="13.621029324839041"><ele>127.0</ele><time>2026-05-02T09:24:43Z</time></trkpt><trkpt lat="42.850201387345045" lon="13.621322764063274"><ele>124.66666666666667</ele><time>2026-05-02T09:24:44Z</time></trkpt><trkpt lat="42.85018771623933" lon="13.621590056618297"><ele>122.33333333333334</ele><time>2026-05-02T09:24:45Z</time></trkpt><trkpt lat="42.85017923446461" lon="13.621839986387862"><ele>120.0</ele><time>2026-05-02T09:24:46Z</time></trkpt><trkpt lat="42.850170328251146" lon="13.622079874228024"><ele>119.33333333333334</ele><time>2026-05-02T09:24:47Z</time></trkpt><trkpt lat="42.850162343405806" lon="13.622306634198667"><ele>118.66666666666667</ele><time>2026-05-02T09:24:48Z</time></trkpt><trkpt lat="42.85015664728256" lon="13.62252090668849"><ele>118.0</ele><time>2026-05-02T09:24:49Z</time></trkpt><trkpt lat="42.850152574259674" lon="13.622721013888201"><ele>117.80000000000001</ele><time>2026-05-02T09:24:50Z</time></trkpt><trkpt lat="42.85014808006337" lon="13.62289345125368"><ele>117.60000000000001</ele><time>2026-05-02T09:24:51Z</time></trkpt><trkpt lat="42.85014561685828" lon="13.623036178823583"><ele>117.39999999999999</ele><time>2026-05-02T09:24:52Z</time></trkpt><trkpt lat="42.850120087391474" lon="13.62316079487628"><ele>117.19999999999999</ele><time>2026-05-02T09:24:53Z</time></trkpt><trkpt lat="42.85007662439542" lon="13.623275235414223"><ele>117.0</ele><time>2026-05-02T09:24:54Z</time></trkpt><trkpt lat="42.85006667066" lon="13.623401564481364"><ele>116.25</ele><time>2026-05-02T09:24:55Z</time></trkpt><trkpt lat="42.85009649396431" lon="13.623549722060718"><ele>115.5</ele><time>2026-05-02T09:24:56Z</time></trkpt><trkpt lat="42.85013983882652" lon="13.623708355595523"><ele>114.75</ele><time>2026-05-02T09:24:57Z</time></trkpt><trkpt lat="42.850165848219326" lon="13.62385703187249"><ele>114.0</ele><time>2026-05-02T09:24:58Z</time></trkpt><trkpt lat="42.850170471228424" lon="13.624032830369233"><ele>115.33333333333334</ele><time>2026-05-02T09:24:59Z</time></trkpt><trkpt lat="42.85016146354309" lon="13.624250793361215"><ele>116.66666666666667</ele><time>2026-05-02T09:25:00Z</time></trkpt><trkpt lat="42.85014859085182" lon="13.62449851112036"><ele>118.0</ele><time>2026-05-02T09:25:01Z</time></trkpt><trkpt lat="42.85014137611924" lon="13.624738484494587"><ele>118.0</ele><time>2026-05-02T09:25:02Z</time></trkpt><trkpt lat="42.85013216076173" lon="13.624980928082028"><ele>118.0</ele><time>2026-05-02T09:25:03Z</time></trkpt><trkpt lat="42.850121377834746" lon="13.625219400125134"><ele>118.0</ele><time>2026-05-02T09:25:04Z</time></trkpt><trkpt lat="42.85011373903351" lon="13.625457705884017"><ele>117.0</ele><time>2026-05-02T09:25:05Z</time></trkpt><trkpt lat="42.85010745671126" lon="13.625694966122134"><ele>116.0</ele><time>2026-05-02T09:25:06Z</time></trkpt><trkpt lat="42.85010099251448" lon="13.625933128758165"><ele>115.0</ele><time>2026-05-02T09:25:07Z</time></trkpt><trkpt lat="42.8500950856917" lon="13.62617658116583"><ele>115.0</ele><time>2026-05-02T09:25:08Z</time></trkpt><trkpt lat="42.850082697967935" lon="13.62642270301538"><ele>115.0</ele><time>2026-05-02T09:25:09Z</time></trkpt><trkpt lat="42.85006777879297" lon="13.626667509368499"><ele>115.0</ele><time>2026-05-02T09:25:10Z</time></trkpt><trkpt lat="42.85005987435093" lon="13.626919557739651"><ele>115.33333333333334</ele><time>2026-05-02T09:25:11Z</time></trkpt><trkpt lat="42.85005107372163" lon="13.627175849645855"><ele>115.66666666666666</ele><time>2026-05-02T09:25:12Z</time></trkpt><trkpt lat="42.85004793323004" lon="13.627431874986797"><ele>116.0</ele><time>2026-05-02T09:25:13Z</time></trkpt><trkpt lat="42.85003836175697" lon="13.627687297623313"><ele>115.0</ele><time>2026-05-02T09:25:14Z</time></trkpt><trkpt lat="42.850032149193886" lon="13.627949830965928"><ele>114.0</ele><time>2026-05-02T09:25:15Z</time></trkpt><trkpt lat="42.85002544678811" lon="13.628221341125183"><ele>113.0</ele><time>2026-05-02T09:25:16Z</time></trkpt><trkpt lat="42.85002370016079" lon="13.628510934078907"><ele>112.33333333333333</ele><time>2026-05-02T09:25:16.999Z</time></trkpt><trkpt lat="42.850018683144604" lon="13.628812332211348"><ele>111.66666666666666</ele><time>2026-05-02T09:25:17.999Z</time></trkpt><trkpt lat="42.850009526798495" lon="13.629117916674934"><ele>111.0</ele><time>2026-05-02T09:25:18.999Z</time></trkpt><trkpt lat="42.84999876583526" lon="13.629428680450323"><ele>110.66666666666666</ele><time>2026-05-02T09:25:19.999Z</time></trkpt><trkpt lat="42.84999150151809" lon="13.629742954556601"><ele>110.33333333333333</ele><time>2026-05-02T09:25:20.999Z</time></trkpt><trkpt lat="42.84998539365737" lon="13.630030823841265"><ele>110.0</ele><time>2026-05-02T09:25:21.999Z</time></trkpt><trkpt lat="42.84997586094759" lon="13.630304259467088"><ele>110.33333333333333</ele><time>2026-05-02T09:25:22.999Z</time></trkpt><trkpt lat="42.84996480008211" lon="13.630575530017992"><ele>110.66666666666666</ele><time>2026-05-02T09:25:23.999Z</time></trkpt><trkpt lat="42.84995429644637" lon="13.630844405426057"><ele>111.0</ele><time>2026-05-02T09:25:24.999Z</time></trkpt><trkpt lat="42.84994433866947" lon="13.631124479478187"><ele>109.66666666666666</ele><time>2026-05-02T09:25:25.999Z</time></trkpt><trkpt lat="42.84993893174575" lon="13.631412340354016"><ele>108.33333333333333</ele><time>2026-05-02T09:25:26.999Z</time></trkpt><trkpt lat="42.84993302615304" lon="13.631709813007573"><ele>107.0</ele><time>2026-05-02T09:25:27.999Z</time></trkpt><trkpt lat="42.84993018344601" lon="13.632007629855496"><ele>106.66666666666666</ele><time>2026-05-02T09:25:28.999Z</time></trkpt><trkpt lat="42.84992682001456" lon="13.632288524634085"><ele>106.33333333333334</ele><time>2026-05-02T09:25:29.999Z</time></trkpt><trkpt lat="42.84991921622711" lon="13.632560544956917"><ele>106.0</ele><time>2026-05-02T09:25:30.999Z</time></trkpt><trkpt lat="42.849906798340484" lon="13.632823793173136"><ele>106.0</ele><time>2026-05-02T09:25:31.999Z</time></trkpt><trkpt lat="42.849879141134224" lon="13.633072643146416"><ele>106.0</ele><time>2026-05-02T09:25:32.999Z</time></trkpt><trkpt lat="42.849830485848685" lon="13.633317070203216"><ele>106.0</ele><time>2026-05-02T09:25:33.999Z</time></trkpt><trkpt lat="42.849760660072995" lon="13.633579541083922"><ele>105.66666666666667</ele><time>2026-05-02T09:25:34.999Z</time></trkpt><trkpt lat="42.84967691151285" lon="13.633837377526218"><ele>105.33333333333334</ele><time>2026-05-02T09:25:35.999Z</time></trkpt><trkpt lat="42.84958673491221" lon="13.634080312847033"><ele>105.0</ele><time>2026-05-02T09:25:36.999Z</time></trkpt><trkpt lat="42.849495880708616" lon="13.634306508166604"><ele>104.66666666666666</ele><time>2026-05-02T09:25:37.999Z</time></trkpt><trkpt lat="42.84941565143024" lon="13.634527364926758"><ele>104.33333333333333</ele><time>2026-05-02T09:25:38.999Z</time></trkpt><trkpt lat="42.84933798284879" lon="13.63474116730295"><ele>104.0</ele><time>2026-05-02T09:25:39.999Z</time></trkpt><trkpt lat="42.849266823936816" lon="13.634933403120964"><ele>103.25</ele><time>2026-05-02T09:25:40.999Z</time></trkpt><trkpt lat="42.849224137282526" lon="13.635106747993976"><ele>102.5</ele><time>2026-05-02T09:25:41.999Z</time></trkpt><trkpt lat="42.84919733376743" lon="13.635283265107278"><ele>101.75</ele><time>2026-05-02T09:25:42.999Z</time></trkpt><trkpt lat="42.849184924741785" lon="13.635451811630123"><ele>101.0</ele><time>2026-05-02T09:25:43.999Z</time></trkpt><trkpt lat="42.84918742677723" lon="13.63560100784267"><ele>100.4</ele><time>2026-05-02T09:25:44.999Z</time></trkpt><trkpt lat="42.849201496725414" lon="13.63574370620424"><ele>99.8</ele><time>2026-05-02T09:25:45.999Z</time></trkpt><trkpt lat="42.849232560440214" lon="13.635883966630788"><ele>99.2</ele><time>2026-05-02T09:25:46.999Z</time></trkpt><trkpt lat="42.84927424245308" lon="13.636020085095078"><ele>98.60000000000001</ele><time>2026-05-02T09:25:47.999Z</time></trkpt><trkpt lat="42.849324403838466" lon="13.636148123289066"><ele>98.0</ele><time>2026-05-02T09:25:48.999Z</time></trkpt><trkpt lat="42.84938681550472" lon="13.636274242782672"><ele>97.60000000000001</ele><time>2026-05-02T09:25:49.999Z</time></trkpt><trkpt lat="42.8494595803766" lon="13.636396987434201"><ele>97.2</ele><time>2026-05-02T09:25:50.999Z</time></trkpt><trkpt lat="42.84953740064277" lon="13.63650841552035"><ele>96.8</ele><time>2026-05-02T09:25:51.999Z</time></trkpt><trkpt lat="42.84961865179916" lon="13.636602847750797"><ele>96.4</ele><time>2026-05-02T09:25:52.999Z</time></trkpt><trkpt lat="42.849709575354986" lon="13.636683730409828"><ele>96.0</ele><time>2026-05-02T09:25:53.999Z</time></trkpt><trkpt lat="42.84981605629282" lon="13.636757059533993"><ele>96.0</ele><time>2026-05-02T09:25:54.999Z</time></trkpt><trkpt lat="42.84992704208528" lon="13.636816637330508"><ele>96.0</ele><time>2026-05-02T09:25:55.999Z</time></trkpt><trkpt lat="42.85002826654415" lon="13.63686550333835"><ele>96.0</ele><time>2026-05-02T09:25:56.999Z</time></trkpt><trkpt lat="42.8501267066989" lon="13.636912152703983"><ele>96.0</ele><time>2026-05-02T09:25:57.999Z</time></trkpt><trkpt lat="42.85022902497918" lon="13.636955956249079"><ele>96.0</ele><time>2026-05-02T09:25:58.999Z</time></trkpt><trkpt lat="42.85033575608343" lon="13.637005868058184"><ele>95.0</ele><time>2026-05-02T09:25:59.999Z</time></trkpt><trkpt lat="42.85044340825831" lon="13.637065016444911"><ele>94.0</ele><time>2026-05-02T09:26:00.999Z</time></trkpt><trkpt lat="42.85055806213641" lon="13.637120998688767"><ele>93.0</ele><time>2026-05-02T09:26:01.999Z</time></trkpt><trkpt lat="42.85067257181858" lon="13.637183984875989"><ele>92.0</ele><time>2026-05-02T09:26:02.999Z</time></trkpt><trkpt lat="42.850790295547235" lon="13.637257777667365"><ele>92.0</ele><time>2026-05-02T09:26:03.999Z</time></trkpt><trkpt lat="42.85090954128643" lon="13.637345696170867"><ele>92.0</ele><time>2026-05-02T09:26:04.999Z</time></trkpt><trkpt lat="42.85101967050729" lon="13.637443428223959"><ele>92.0</ele><time>2026-05-02T09:26:05.999Z</time></trkpt><trkpt lat="42.851110434956645" lon="13.637543870723334"><ele>92.0</ele><time>2026-05-02T09:26:06.999Z</time></trkpt><trkpt lat="42.851199160030234" lon="13.637646645358041"><ele>93.25</ele><time>2026-05-02T09:26:07.999Z</time></trkpt><trkpt lat="42.85129171107831" lon="13.63774330827581"><ele>94.5</ele><time>2026-05-02T09:26:08.999Z</time></trkpt><trkpt lat="42.85139692038236" lon="13.637854402241954"><ele>95.75</ele><time>2026-05-02T09:26:09.999Z</time></trkpt><trkpt lat="42.85151485304696" lon="13.637976824864532"><ele>97.0</ele><time>2026-05-02T09:26:10.999Z</time></trkpt><trkpt lat="42.851625086405065" lon="13.638131443497263"><ele>97.0</ele><time>2026-05-02T09:26:11.999Z</time></trkpt><trkpt lat="42.85173886390799" lon="13.638260617272469"><ele>97.0</ele><time>2026-05-02T09:26:12.999Z</time></trkpt><trkpt lat="42.851869976776115" lon="13.63837701250941"><ele>97.0</ele><time>2026-05-02T09:26:13.999Z</time></trkpt><trkpt lat="42.851974873654484" lon="13.638521737927885"><ele>95.75</ele><time>2026-05-02T09:26:14.999Z</time></trkpt><trkpt lat="42.85209378841654" lon="13.638626152176593"><ele>94.5</ele><time>2026-05-02T09:26:15.999Z</time></trkpt><trkpt lat="42.85220074023799" lon="13.638747958983803"><ele>93.25</ele><time>2026-05-02T09:26:16.999Z</time></trkpt><trkpt lat="42.852307314526506" lon="13.638863267561149"><ele>92.0</ele><time>2026-05-02T09:26:17.999Z</time></trkpt><trkpt lat="42.85241778567457" lon="13.638975822582372"><ele>92.0</ele><time>2026-05-02T09:26:18.999Z</time></trkpt><trkpt lat="42.852519153983515" lon="13.639091215269495"><ele>92.0</ele><time>2026-05-02T09:26:19.999Z</time></trkpt><trkpt lat="42.85261589222339" lon="13.639199092576707"><ele>92.0</ele><time>2026-05-02T09:26:20.999Z</time></trkpt><trkpt lat="42.852702840106154" lon="13.639298934448334"><ele>92.0</ele><time>2026-05-02T09:26:21.999Z</time></trkpt><trkpt lat="42.85276329099806" lon="13.639411765911174"><ele>91.83333333333334</ele><time>2026-05-02T09:26:22.999Z</time></trkpt><trkpt lat="42.85283239346581" lon="13.639490600217417"><ele>91.66666666666667</ele><time>2026-05-02T09:26:23.999Z</time></trkpt><trkpt lat="42.85289760160494" lon="13.639541952432243"><ele>91.5</ele><time>2026-05-02T09:26:25Z</time></trkpt><trkpt lat="42.852934449325765" lon="13.639611602556574"><ele>91.33333333333333</ele><time>2026-05-02T09:26:26Z</time></trkpt><trkpt lat="42.852985163209574" lon="13.639701372603637"><ele>91.16666666666666</ele><time>2026-05-02T09:26:28Z</time></trkpt><trkpt lat="42.85306632734918" lon="13.639778620491663"><ele>91.0</ele><time>2026-05-02T09:26:57Z</time></trkpt><trkpt lat="42.85313494936851" lon="13.63986118236274"><ele>91.0</ele><time>2026-05-02T09:26:58Z</time></trkpt><trkpt lat="42.8532102596472" lon="13.639966267309827"><ele>91.0</ele><time>2026-05-02T09:26:59Z</time></trkpt><trkpt lat="42.853287532824034" lon="13.640081378431255"><ele>91.0</ele><time>2026-05-02T09:27:00Z</time></trkpt><trkpt lat="42.85336451470582" lon="13.640211554194494"><ele>91.0</ele><time>2026-05-02T09:27:01Z</time></trkpt><trkpt lat="42.853438429604104" lon="13.640361132215833"><ele>95.5</ele><time>2026-05-02T09:27:02Z</time></trkpt><trkpt lat="42.85350405645159" lon="13.640524835962301"><ele>100.0</ele><time>2026-05-02T09:27:03Z</time></trkpt><trkpt lat="42.853560063282856" lon="13.640712661748388"><ele>104.5</ele><time>2026-05-02T09:27:04Z</time></trkpt><trkpt lat="42.853600813254246" lon="13.640927632506573"><ele>109.0</ele><time>2026-05-02T09:27:05Z</time></trkpt><trkpt lat="42.85362156157367" lon="13.641150707523037"><ele>109.0</ele><time>2026-05-02T09:27:06Z</time></trkpt><trkpt lat="42.8536263389729" lon="13.641377200976976"><ele>109.0</ele><time>2026-05-02T09:27:07Z</time></trkpt><trkpt lat="42.853591541922746" lon="13.641613093647704"><ele>109.0</ele><time>2026-05-02T09:27:08Z</time></trkpt><trkpt lat="42.85352832715626" lon="13.641858106674126"><ele>104.66666666666667</ele><time>2026-05-02T09:27:09Z</time></trkpt><trkpt lat="42.85345157300794" lon="13.642113573607467"><ele>100.33333333333334</ele><time>2026-05-02T09:27:10Z</time></trkpt><trkpt lat="42.85338368560175" lon="13.642387695894854"><ele>96.0</ele><time>2026-05-02T09:27:11Z</time></trkpt><trkpt lat="42.85330855819697" lon="13.642661348859908"><ele>100.33333333333334</ele><time>2026-05-02T09:27:12Z</time></trkpt><trkpt lat="42.85323315551066" lon="13.642931470363598"><ele>104.66666666666667</ele><time>2026-05-02T09:27:13Z</time></trkpt><trkpt lat="42.853154157363875" lon="13.643210121767892"><ele>109.0</ele><time>2026-05-02T09:27:14Z</time></trkpt><trkpt lat="42.85307448096367" lon="13.643491738746187"><ele>117.0</ele><time>2026-05-02T09:27:15Z</time></trkpt><trkpt lat="42.85299708288242" lon="13.643780933743564"><ele>125.0</ele><time>2026-05-02T09:27:16Z</time></trkpt><trkpt lat="42.8529145242863" lon="13.644069265791869"><ele>125.0</ele><time>2026-05-02T09:27:17Z</time></trkpt><trkpt lat="42.85283957204035" lon="13.644330620620345"><ele>125.0</ele><time>2026-05-02T09:27:18Z</time></trkpt><trkpt lat="42.85277517893413" lon="13.644594546796807"><ele>125.0</ele><time>2026-05-02T09:27:19Z</time></trkpt><trkpt lat="42.85273019691284" lon="13.644867516974825"><ele>127.66666666666666</ele><time>2026-05-02T09:27:20Z</time></trkpt><trkpt lat="42.85270099545555" lon="13.645149092873842"><ele>130.33333333333334</ele><time>2026-05-02T09:27:21Z</time></trkpt><trkpt lat="42.85268656277165" lon="13.645433051080573"><ele>133.0</ele><time>2026-05-02T09:27:22Z</time></trkpt><trkpt lat="42.8526778678031" lon="13.645720364546646"><ele>133.66666666666669</ele><time>2026-05-02T09:27:23Z</time></trkpt><trkpt lat="42.85267423663987" lon="13.645990712170784"><ele>134.33333333333334</ele><time>2026-05-02T09:27:23.999Z</time></trkpt><trkpt lat="42.852670634825365" lon="13.646221885395013"><ele>135.0</ele><time>2026-05-02T09:27:24.999Z</time></trkpt><trkpt lat="42.85265224503726" lon="13.646417180758888"><ele>127.4</ele><time>2026-05-02T09:27:25.999Z</time></trkpt><trkpt lat="42.852622840350804" lon="13.646581545901144"><ele>119.8</ele><time>2026-05-02T09:27:26.999Z</time></trkpt><trkpt lat="42.852596591339314" lon="13.646707442225974"><ele>112.19999999999999</ele><time>2026-05-02T09:27:27.999Z</time></trkpt><trkpt lat="42.852573608949385" lon="13.646793097588182"><ele>104.6</ele><time>2026-05-02T09:27:28.999Z</time></trkpt><trkpt lat="42.85253604227909" lon="13.646899961696796"><ele>97.0</ele><time>2026-05-02T09:27:30.999Z</time></trkpt><trkpt lat="42.8526157665206" lon="13.647097049572746"><ele>103.75</ele><time>2026-05-02T09:27:34.999Z</time></trkpt><trkpt lat="42.85265260093653" lon="13.647234747438155"><ele>110.5</ele><time>2026-05-02T09:27:35.999Z</time></trkpt><trkpt lat="42.85268136657835" lon="13.647380945711669"><ele>117.25</ele><time>2026-05-02T09:27:36.999Z</time></trkpt><trkpt lat="42.85270561218922" lon="13.64753571146389"><ele>124.0</ele><time>2026-05-02T09:27:37.999Z</time></trkpt><trkpt lat="42.85273889910539" lon="13.647707448140341"><ele>122.5</ele><time>2026-05-02T09:27:38.999Z</time></trkpt><trkpt lat="42.852777499215016" lon="13.64787739490508"><ele>121.0</ele><time>2026-05-02T09:27:39.999Z</time></trkpt><trkpt lat="42.85281847209441" lon="13.648043379836226"><ele>119.5</ele><time>2026-05-02T09:27:40.999Z</time></trkpt><trkpt lat="42.85286839143593" lon="13.648219239089123"><ele>118.0</ele><time>2026-05-02T09:27:41.999Z</time></trkpt><trkpt lat="42.8529219135362" lon="13.64840478024589"><ele>118.0</ele><time>2026-05-02T09:27:42.999Z</time></trkpt><trkpt lat="42.85298216578127" lon="13.648593855398136"><ele>118.0</ele><time>2026-05-02T09:27:43.999Z</time></trkpt><trkpt lat="42.853049695885595" lon="13.648781415495574"><ele>118.0</ele><time>2026-05-02T09:27:44.999Z</time></trkpt><trkpt lat="42.85312656874518" lon="13.648950086744861"><ele>117.25</ele><time>2026-05-02T09:27:45.999Z</time></trkpt><trkpt lat="42.853202867067" lon="13.649074287912693"><ele>116.5</ele><time>2026-05-02T09:27:46.999Z</time></trkpt><trkpt lat="42.85330070023564" lon="13.649174424205524"><ele>115.75</ele><time>2026-05-02T09:27:47.999Z</time></trkpt><trkpt lat="42.85342237053553" lon="13.649226225721014"><ele>115.0</ele><time>2026-05-02T09:27:48.999Z</time></trkpt><trkpt lat="42.853549071016545" lon="13.64923279213568"><ele>115.0</ele><time>2026-05-02T09:27:49.999Z</time></trkpt><trkpt lat="42.85367347161476" lon="13.64919661823961"><ele>115.0</ele><time>2026-05-02T09:27:50.999Z</time></trkpt><trkpt lat="42.85379794150107" lon="13.649122119724188"><ele>115.0</ele><time>2026-05-02T09:27:51.999Z</time></trkpt><trkpt lat="42.853945847713796" lon="13.648982602610731"><ele>115.0</ele><time>2026-05-02T09:27:52.999Z</time></trkpt><trkpt lat="42.854103711216986" lon="13.648868062308221"><ele>115.0</ele><time>2026-05-02T09:27:53.999Z</time></trkpt><trkpt lat="42.85424187908121" lon="13.648793377523512"><ele>115.0</ele><time>2026-05-02T09:27:54.999Z</time></trkpt><trkpt lat="42.854384324126684" lon="13.648722410764366"><ele>115.0</ele><time>2026-05-02T09:27:55.999Z</time></trkpt><trkpt lat="42.854565044449906" lon="13.64862179093658"><ele>120.0</ele><time>2026-05-02T09:27:56.999Z</time></trkpt><trkpt lat="42.85474755022753" lon="13.648500088664953"><ele>125.0</ele><time>2026-05-02T09:27:57.999Z</time></trkpt><trkpt lat="42.85490140982308" lon="13.648401358436686"><ele>130.0</ele><time>2026-05-02T09:27:58.999Z</time></trkpt><trkpt lat="42.85505832259298" lon="13.648308567837626"><ele>128.25</ele><time>2026-05-02T09:27:59.999Z</time></trkpt><trkpt lat="42.85520206118448" lon="13.648225784949764"><ele>126.5</ele><time>2026-05-02T09:28:00.999Z</time></trkpt><trkpt lat="42.855308198031345" lon="13.648118801555567"><ele>124.75</ele><time>2026-05-02T09:28:01.999Z</time></trkpt><trkpt lat="42.855417326106334" lon="13.647971546450911"><ele>123.0</ele><time>2026-05-02T09:28:02.999Z</time></trkpt><trkpt lat="42.85550311795837" lon="13.647794433240179"><ele>127.66666666666666</ele><time>2026-05-02T09:28:03.999Z</time></trkpt><trkpt lat="42.85558198430416" lon="13.647601446147734"><ele>132.33333333333331</ele><time>2026-05-02T09:28:04.999Z</time></trkpt><trkpt lat="42.85566712088421" lon="13.647398829949411"><ele>137.0</ele><time>2026-05-02T09:28:05.999Z</time></trkpt><trkpt lat="42.85576860724581" lon="13.647205341054315"><ele>137.0</ele><time>2026-05-02T09:28:06.999Z</time></trkpt><trkpt lat="42.85589009234655" lon="13.6470395553859"><ele>137.0</ele><time>2026-05-02T09:28:07.999Z</time></trkpt><trkpt lat="42.85602779251496" lon="13.64688881978509"><ele>137.0</ele><time>2026-05-02T09:28:08.999Z</time></trkpt><trkpt lat="42.856174613416954" lon="13.646810083477819"><ele>139.25</ele><time>2026-05-02T09:28:09.999Z</time></trkpt><trkpt lat="42.85631057720313" lon="13.646733726788423"><ele>141.5</ele><time>2026-05-02T09:28:10.999Z</time></trkpt><trkpt lat="42.85645785047431" lon="13.646695578193313"><ele>143.75</ele><time>2026-05-02T09:28:11.999Z</time></trkpt><trkpt lat="42.85658872276598" lon="13.646666113443104"><ele>146.0</ele><time>2026-05-02T09:28:12.999Z</time></trkpt><trkpt lat="42.85668689723264" lon="13.646625846647783"><ele>146.0</ele><time>2026-05-02T09:28:13.999Z</time></trkpt><trkpt lat="42.85675230856394" lon="13.646579856890908"><ele>146.0</ele><time>2026-05-02T09:28:14.999Z</time></trkpt><trkpt lat="42.85679296762296" lon="13.646509351310437"><ele>146.0</ele><time>2026-05-02T09:28:15.999Z</time></trkpt><trkpt lat="42.856783402315465" lon="13.646388663958726"><ele>146.0</ele><time>2026-05-02T09:28:16.999Z</time></trkpt><trkpt lat="42.85673719208285" lon="13.646292728252913"><ele>146.0</ele><time>2026-05-02T09:28:17.999Z</time></trkpt><trkpt lat="42.8566444830609" lon="13.64622995015713"><ele>146.0</ele><time>2026-05-02T09:28:18.999Z</time></trkpt><trkpt lat="42.856522514775484" lon="13.646253477856233"><ele>146.0</ele><time>2026-05-02T09:28:19.999Z</time></trkpt><trkpt lat="42.85638928805561" lon="13.64629165219726"><ele>146.0</ele><time>2026-05-02T09:28:20.999Z</time></trkpt><trkpt lat="42.856238958282354" lon="13.646310328719844"><ele>146.0</ele><time>2026-05-02T09:28:21.999Z</time></trkpt><trkpt lat="42.85609344148603" lon="13.64629933166643"><ele>146.0</ele><time>2026-05-02T09:28:22.999Z</time></trkpt><trkpt lat="42.855953964984494" lon="13.646276770581364"><ele>147.0</ele><time>2026-05-02T09:28:23.999Z</time></trkpt><trkpt lat="42.855829985944" lon="13.646254742814053"><ele>148.0</ele><time>2026-05-02T09:28:24.999Z</time></trkpt><trkpt lat="42.85571327662597" lon="13.64623816979174"><ele>149.0</ele><time>2026-05-02T09:28:25.999Z</time></trkpt><trkpt lat="42.855600607183945" lon="13.646270644154555"><ele>150.0</ele><time>2026-05-02T09:28:26.999Z</time></trkpt><trkpt lat="42.85548680032093" lon="13.646307592008856"><ele>150.0</ele><time>2026-05-02T09:28:27.999Z</time></trkpt><trkpt lat="42.8553786662961" lon="13.646347027772244"><ele>150.0</ele><time>2026-05-02T09:28:28.999Z</time></trkpt><trkpt lat="42.85527786557792" lon="13.646387157416244"><ele>150.0</ele><time>2026-05-02T09:28:29.999Z</time></trkpt><trkpt lat="42.85518112221062" lon="13.646426993668564"><ele>150.0</ele><time>2026-05-02T09:28:31Z</time></trkpt><trkpt lat="42.8550866289773" lon="13.64646856979349"><ele>150.0</ele><time>2026-05-02T09:28:32Z</time></trkpt><trkpt lat="42.85499048759768" lon="13.646512656297832"><ele>150.66666666666666</ele><time>2026-05-02T09:28:33Z</time></trkpt><trkpt lat="42.854897212962136" lon="13.646554980830652"><ele>151.33333333333334</ele><time>2026-05-02T09:28:34Z</time></trkpt><trkpt lat="42.85480721049028" lon="13.646563941109878"><ele>152.0</ele><time>2026-05-02T09:28:35Z</time></trkpt><trkpt lat="42.85473413199777" lon="13.646600318300496"><ele>152.66666666666669</ele><time>2026-05-02T09:28:36Z</time></trkpt><trkpt lat="42.85467215980011" lon="13.646575138671569"><ele>153.33333333333334</ele><time>2026-05-02T09:28:37Z</time></trkpt><trkpt lat="42.85462459567079" lon="13.64650086068053"><ele>154.0</ele><time>2026-05-02T09:28:38Z</time></trkpt><trkpt lat="42.85461202764649" lon="13.646400540854813"><ele>154.0</ele><time>2026-05-02T09:28:39Z</time></trkpt><trkpt lat="42.854647229895434" lon="13.646303762460875"><ele>154.0</ele><time>2026-05-02T09:28:40Z</time></trkpt><trkpt lat="42.854706611138866" lon="13.646216093509668"><ele>154.0</ele><time>2026-05-02T09:28:41Z</time></trkpt><trkpt lat="42.854790658495645" lon="13.646128709030691"><ele>154.0</ele><time>2026-05-02T09:28:42Z</time></trkpt><trkpt lat="42.854864876120615" lon="13.646048460805346"><ele>154.0</ele><time>2026-05-02T09:28:43Z</time></trkpt><trkpt lat="42.854965088301135" lon="13.645967164695664"><ele>156.66666666666669</ele><time>2026-05-02T09:28:44Z</time></trkpt><trkpt lat="42.855084923286576" lon="13.645853929390427"><ele>159.33333333333334</ele><time>2026-05-02T09:28:45Z</time></trkpt><trkpt lat="42.85522580084954" lon="13.645720810425784"><ele>162.0</ele><time>2026-05-02T09:28:46Z</time></trkpt><trkpt lat="42.85537589587174" lon="13.645578244988746"><ele>162.0</ele><time>2026-05-02T09:28:47Z</time></trkpt><trkpt lat="42.85551450511423" lon="13.645422959323577"><ele>162.0</ele><time>2026-05-02T09:28:48Z</time></trkpt><trkpt lat="42.85566961653023" lon="13.645283261598435"><ele>162.0</ele><time>2026-05-02T09:28:49Z</time></trkpt><trkpt lat="42.85582104606764" lon="13.645137449272392"><ele>163.25</ele><time>2026-05-02T09:28:50Z</time></trkpt><trkpt lat="42.85595021273237" lon="13.645019505083198"><ele>164.5</ele><time>2026-05-02T09:28:51Z</time></trkpt><trkpt lat="42.85605910582681" lon="13.644915618063878"><ele>165.75</ele><time>2026-05-02T09:28:52Z</time></trkpt><trkpt lat="42.85614286437807" lon="13.644812978608266"><ele>167.0</ele><time>2026-05-02T09:28:53Z</time></trkpt><trkpt lat="42.85620049743432" lon="13.644678675569846"><ele>167.0</ele><time>2026-05-02T09:28:54Z</time></trkpt><trkpt lat="42.856238288220325" lon="13.64450937458301"><ele>167.0</ele><time>2026-05-02T09:28:55Z</time></trkpt><trkpt lat="42.8562653741708" lon="13.644311859411356"><ele>167.0</ele><time>2026-05-02T09:28:56Z</time></trkpt><trkpt lat="42.856299337438536" lon="13.644107560307997"><ele>167.0</ele><time>2026-05-02T09:28:57Z</time></trkpt><trkpt lat="42.85635993373961" lon="13.643912932584923"><ele>170.33333333333331</ele><time>2026-05-02T09:28:58Z</time></trkpt><trkpt lat="42.85646316839375" lon="13.643742911086154"><ele>173.66666666666666</ele><time>2026-05-02T09:28:59Z</time></trkpt><trkpt lat="42.8565904929229" lon="13.643594642575051"><ele>177.0</ele><time>2026-05-02T09:29:00Z</time></trkpt><trkpt lat="42.85672613242544" lon="13.643477917480384"><ele>179.5</ele><time>2026-05-02T09:29:01Z</time></trkpt><trkpt lat="42.85683356200908" lon="13.64338353340735"><ele>182.0</ele><time>2026-05-02T09:29:02Z</time></trkpt><trkpt lat="42.85689959921361" lon="13.643250201154721"><ele>184.5</ele><time>2026-05-02T09:29:03Z</time></trkpt><trkpt lat="42.8569345040237" lon="13.643080357383628"><ele>187.0</ele><time>2026-05-02T09:29:04Z</time></trkpt><trkpt lat="42.85695392390439" lon="13.642906004913835"><ele>188.5</ele><time>2026-05-02T09:29:05Z</time></trkpt><trkpt lat="42.85697546471114" lon="13.642751386928701"><ele>190.0</ele><time>2026-05-02T09:29:06Z</time></trkpt><trkpt lat="42.85704728354477" lon="13.642626641774948"><ele>191.5</ele><time>2026-05-02T09:29:07Z</time></trkpt><trkpt lat="42.857121232489725" lon="13.6425009236375"><ele>193.0</ele><time>2026-05-02T09:29:08Z</time></trkpt><trkpt lat="42.85722238744969" lon="13.642417601900805"><ele>193.0</ele><time>2026-05-02T09:29:09Z</time></trkpt><trkpt lat="42.857338147264706" lon="13.642375191782033"><ele>193.0</ele><time>2026-05-02T09:29:10Z</time></trkpt><trkpt lat="42.857459972594555" lon="13.642362677021673"><ele>193.0</ele><time>2026-05-02T09:29:11Z</time></trkpt><trkpt lat="42.85759137813084" lon="13.642361643165856"><ele>193.0</ele><time>2026-05-02T09:29:12Z</time></trkpt><trkpt lat="42.85772965584517" lon="13.642374751257872"><ele>194.0</ele><time>2026-05-02T09:29:13Z</time></trkpt><trkpt lat="42.85787147985851" lon="13.642389018562808"><ele>195.0</ele><time>2026-05-02T09:29:14Z</time></trkpt><trkpt lat="42.85801131304667" lon="13.6424043447974"><ele>196.0</ele><time>2026-05-02T09:29:15Z</time></trkpt><trkpt lat="42.85814664039986" lon="13.642410894558301"><ele>197.0</ele><time>2026-05-02T09:29:16Z</time></trkpt><trkpt lat="42.85828004451121" lon="13.642411835503111"><ele>197.0</ele><time>2026-05-02T09:29:17Z</time></trkpt><trkpt lat="42.85840044656563" lon="13.642389387145355"><ele>197.0</ele><time>2026-05-02T09:29:18Z</time></trkpt><trkpt lat="42.85850777104362" lon="13.642333814143878"><ele>197.0</ele><time>2026-05-02T09:29:19Z</time></trkpt><trkpt lat="42.85860165582646" lon="13.642232370468166"><ele>197.0</ele><time>2026-05-02T09:29:20Z</time></trkpt><trkpt lat="42.85867409774597" lon="13.64209854826771"><ele>198.0</ele><time>2026-05-02T09:29:21Z</time></trkpt><trkpt lat="42.858741093143635" lon="13.641958955349159"><ele>199.0</ele><time>2026-05-02T09:29:22Z</time></trkpt><trkpt lat="42.8588002602367" lon="13.64182100534882"><ele>200.0</ele><time>2026-05-02T09:29:23Z</time></trkpt><trkpt lat="42.85886329213529" lon="13.641686450810573"><ele>201.0</ele><time>2026-05-02T09:29:24Z</time></trkpt><trkpt lat="42.85895624730573" lon="13.641590143766317"><ele>201.0</ele><time>2026-05-02T09:29:25Z</time></trkpt><trkpt lat="42.8590484961892" lon="13.64150012972777"><ele>201.0</ele><time>2026-05-02T09:29:26Z</time></trkpt><trkpt lat="42.85916867580546" lon="13.64146716573898"><ele>201.0</ele><time>2026-05-02T09:29:27Z</time></trkpt><trkpt lat="42.85929947459659" lon="13.641488558446323"><ele>201.0</ele><time>2026-05-02T09:29:28Z</time></trkpt><trkpt lat="42.859431369526845" lon="13.641527552719781"><ele>201.0</ele><time>2026-05-02T09:29:29Z</time></trkpt><trkpt lat="42.85957955693721" lon="13.641548545137017"><ele>201.0</ele><time>2026-05-02T09:29:30Z</time></trkpt><trkpt lat="42.85972916077036" lon="13.641590473706701"><ele>201.0</ele><time>2026-05-02T09:29:31Z</time></trkpt><trkpt lat="42.8598847687016" lon="13.641612173560215"><ele>201.0</ele><time>2026-05-02T09:29:32Z</time></trkpt><trkpt lat="42.86004520105031" lon="13.641620410317763"><ele>201.0</ele><time>2026-05-02T09:29:32.999Z</time></trkpt><trkpt lat="42.86020378432857" lon="13.64166667111447"><ele>201.0</ele><time>2026-05-02T09:29:33.999Z</time></trkpt><trkpt lat="42.86036417786151" lon="13.641695802128709"><ele>201.33333333333331</ele><time>2026-05-02T09:29:34.999Z</time></trkpt><trkpt lat="42.86053388719779" lon="13.64172662503223"><ele>201.66666666666666</ele><time>2026-05-02T09:29:35.999Z</time></trkpt><trkpt lat="42.86069597432005" lon="13.641755217021986"><ele>202.0</ele><time>2026-05-02T09:29:36.999Z</time></trkpt><trkpt lat="42.86086512940343" lon="13.641775382888591"><ele>203.33333333333331</ele><time>2026-05-02T09:29:37.999Z</time></trkpt><trkpt lat="42.861041220773295" lon="13.641754495628689"><ele>204.66666666666669</ele><time>2026-05-02T09:29:38.999Z</time></trkpt><trkpt lat="42.86121466207966" lon="13.64173545702837"><ele>206.0</ele><time>2026-05-02T09:29:39.999Z</time></trkpt><trkpt lat="42.861376505404074" lon="13.641711515627135"><ele>206.0</ele><time>2026-05-02T09:29:40.999Z</time></trkpt><trkpt lat="42.86151993115721" lon="13.641713807110566"><ele>206.0</ele><time>2026-05-02T09:29:41.999Z</time></trkpt><trkpt lat="42.86167051631581" lon="13.641697244939428"><ele>206.0</ele><time>2026-05-02T09:29:42.999Z</time></trkpt><trkpt lat="42.861821319801734" lon="13.641679678566856"><ele>206.0</ele><time>2026-05-02T09:29:43.999Z</time></trkpt><trkpt lat="42.8619417574749" lon="13.641637418141775"><ele>206.20000000000002</ele><time>2026-05-02T09:29:44.999Z</time></trkpt><trkpt lat="42.862027960621425" lon="13.64162103534617"><ele>206.4</ele><time>2026-05-02T09:29:45.999Z</time></trkpt><trkpt lat="42.86210246506268" lon="13.641576904212018"><ele>206.6</ele><time>2026-05-02T09:29:47.999Z</time></trkpt><trkpt lat="42.86221089751167" lon="13.641491004943529"><ele>206.8</ele><time>2026-05-02T09:29:49.999Z</time></trkpt><trkpt lat="42.86230210914767" lon="13.6414251864419"><ele>207.0</ele><time>2026-05-02T09:29:50.999Z</time></trkpt><trkpt lat="42.86238269519883" lon="13.64135323056165"><ele>207.0</ele><time>2026-05-02T09:29:51.999Z</time></trkpt><trkpt lat="42.86248158582551" lon="13.6412591620383"><ele>207.0</ele><time>2026-05-02T09:29:52.999Z</time></trkpt><trkpt lat="42.86256571378961" lon="13.641153547354142"><ele>207.0</ele><time>2026-05-02T09:29:53.999Z</time></trkpt><trkpt lat="42.86264793620565" lon="13.641072457675499"><ele>207.0</ele><time>2026-05-02T09:29:54.999Z</time></trkpt><trkpt lat="42.862738171095415" lon="13.6410109725614"><ele>207.0</ele><time>2026-05-02T09:29:55.999Z</time></trkpt><trkpt lat="42.86280656785234" lon="13.64091877376474"><ele>207.0</ele><time>2026-05-02T09:29:56.999Z</time></trkpt><trkpt lat="42.86288117647928" lon="13.64085888108483"><ele>207.0</ele><time>2026-05-02T09:29:57.999Z</time></trkpt><trkpt lat="42.86295181839212" lon="13.640782526448639"><ele>207.0</ele><time>2026-05-02T09:29:58.999Z</time></trkpt><trkpt lat="42.863025847456896" lon="13.64073481066113"><ele>207.0</ele><time>2026-05-02T09:29:59.999Z</time></trkpt><trkpt lat="42.863085349118215" lon="13.640678451115146"><ele>207.0</ele><time>2026-05-02T09:30:00.999Z</time></trkpt><trkpt lat="42.863141943526145" lon="13.640608191657908"><ele>207.0</ele><time>2026-05-02T09:30:01.999Z</time></trkpt><trkpt lat="42.86321885189477" lon="13.64053973710207"><ele>207.0</ele><time>2026-05-02T09:30:02.999Z</time></trkpt><trkpt lat="42.863308286290504" lon="13.640442747540128"><ele>207.0</ele><time>2026-05-02T09:30:03.999Z</time></trkpt><trkpt lat="42.86341741626035" lon="13.640339573607788"><ele>207.0</ele><time>2026-05-02T09:30:04.999Z</time></trkpt><trkpt lat="42.8635195892111" lon="13.640249996915651"><ele>207.0</ele><time>2026-05-02T09:30:05.999Z</time></trkpt><trkpt lat="42.86362122738109" lon="13.640154981399366"><ele>208.6</ele><time>2026-05-02T09:30:06.999Z</time></trkpt><trkpt lat="42.86371554274793" lon="13.640051843689397"><ele>210.2</ele><time>2026-05-02T09:30:07.999Z</time></trkpt><trkpt lat="42.863806209947754" lon="13.639968475175554"><ele>211.8</ele><time>2026-05-02T09:30:08.999Z</time></trkpt><trkpt lat="42.86388160003244" lon="13.639906968349209"><ele>213.4</ele><time>2026-05-02T09:30:09.999Z</time></trkpt><trkpt lat="42.863961184926985" lon="13.63985388924454"><ele>215.0</ele><time>2026-05-02T09:30:10.999Z</time></trkpt><trkpt lat="42.86405697706114" lon="13.639835695566504"><ele>215.0</ele><time>2026-05-02T09:30:11.999Z</time></trkpt><trkpt lat="42.86415964715848" lon="13.639804166428675"><ele>215.0</ele><time>2026-05-02T09:30:12.999Z</time></trkpt><trkpt lat="42.864279815245084" lon="13.639774177074578"><ele>215.0</ele><time>2026-05-02T09:30:13.999Z</time></trkpt><trkpt lat="42.8644125012513" lon="13.639744368077992"><ele>215.0</ele><time>2026-05-02T09:30:14.999Z</time></trkpt><trkpt lat="42.86454629811806" lon="13.639694939669234"><ele>215.0</ele><time>2026-05-02T09:30:15.999Z</time></trkpt><trkpt lat="42.864671207725756" lon="13.639672932968908"><ele>215.0</ele><time>2026-05-02T09:30:16.999Z</time></trkpt><trkpt lat="42.86478879603694" lon="13.639646663280393"><ele>215.0</ele><time>2026-05-02T09:30:17.999Z</time></trkpt><trkpt lat="42.86491484147529" lon="13.639616906141486"><ele>215.0</ele><time>2026-05-02T09:30:18.999Z</time></trkpt><trkpt lat="42.86505023715265" lon="13.639582832437444"><ele>217.0</ele><time>2026-05-02T09:30:19.999Z</time></trkpt><trkpt lat="42.86519166256262" lon="13.639539983007612"><ele>219.0</ele><time>2026-05-02T09:30:20.999Z</time></trkpt><trkpt lat="42.86533947744553" lon="13.639478984585395"><ele>221.0</ele><time>2026-05-02T09:30:21.999Z</time></trkpt><trkpt lat="42.865486234411904" lon="13.639407223032224"><ele>221.0</ele><time>2026-05-02T09:30:22.999Z</time></trkpt><trkpt lat="42.865617650502536" lon="13.639336227098534"><ele>221.0</ele><time>2026-05-02T09:30:23.999Z</time></trkpt><trkpt lat="42.86573384797123" lon="13.639269213892803"><ele>221.0</ele><time>2026-05-02T09:30:24.999Z</time></trkpt><trkpt lat="42.865840752283454" lon="13.639201692673184"><ele>221.0</ele><time>2026-05-02T09:30:25.999Z</time></trkpt><trkpt lat="42.86594883587205" lon="13.639130727525083"><ele>222.0</ele><time>2026-05-02T09:30:26.999Z</time></trkpt><trkpt lat="42.86606226226897" lon="13.639065265827801"><ele>223.0</ele><time>2026-05-02T09:30:27.999Z</time></trkpt><trkpt lat="42.86618424314767" lon="13.638991925309737"><ele>224.0</ele><time>2026-05-02T09:30:28.999Z</time></trkpt><trkpt lat="42.866318850015155" lon="13.638909596944014"><ele>225.0</ele><time>2026-05-02T09:30:29.999Z</time></trkpt><trkpt lat="42.86647131796821" lon="13.638818069777912"><ele>225.0</ele><time>2026-05-02T09:30:30.999Z</time></trkpt><trkpt lat="42.866636617163785" lon="13.638716262606708"><ele>225.0</ele><time>2026-05-02T09:30:31.999Z</time></trkpt><trkpt lat="42.86681106481344" lon="13.638615234217802"><ele>225.0</ele><time>2026-05-02T09:30:32.999Z</time></trkpt><trkpt lat="42.866989598987516" lon="13.638514620024631"><ele>226.33333333333331</ele><time>2026-05-02T09:30:33.999Z</time></trkpt><trkpt lat="42.86715761865022" lon="13.63842185179173"><ele>227.66666666666666</ele><time>2026-05-02T09:30:34.999Z</time></trkpt><trkpt lat="42.867329397722706" lon="13.63833019590118"><ele>229.0</ele><time>2026-05-02T09:30:35.999Z</time></trkpt><trkpt lat="42.86750505280318" lon="13.638239205715037"><ele>226.0</ele><time>2026-05-02T09:30:37Z</time></trkpt><trkpt lat="42.867684294756906" lon="13.638148514438564"><ele>223.0</ele><time>2026-05-02T09:30:38Z</time></trkpt><trkpt lat="42.86784935395311" lon="13.638062570161239"><ele>220.0</ele><time>2026-05-02T09:30:39Z</time></trkpt><trkpt lat="42.86800976785424" lon="13.637978657749041"><ele>220.0</ele><time>2026-05-02T09:30:40Z</time></trkpt><trkpt lat="42.86816583376485" lon="13.637893559475527"><ele>220.0</ele><time>2026-05-02T09:30:41Z</time></trkpt><trkpt lat="42.868317827533325" lon="13.637814829062693"><ele>220.0</ele><time>2026-05-02T09:30:42Z</time></trkpt><trkpt lat="42.86847050168299" lon="13.637732126317552"><ele>216.0</ele><time>2026-05-02T09:30:43Z</time></trkpt><trkpt lat="42.86860635391611" lon="13.637655895256092"><ele>212.0</ele><time>2026-05-02T09:30:44Z</time></trkpt><trkpt lat="42.868728926611176" lon="13.637572621171902"><ele>208.0</ele><time>2026-05-02T09:30:45Z</time></trkpt><trkpt lat="42.868830478816264" lon="13.637472762411925"><ele>204.0</ele><time>2026-05-02T09:30:46Z</time></trkpt><trkpt lat="42.86892023695637" lon="13.637342323150888"><ele>204.0</ele><time>2026-05-02T09:30:47Z</time></trkpt><trkpt lat="42.869003337724614" lon="13.637191835873933"><ele>204.0</ele><time>2026-05-02T09:30:48Z</time></trkpt><trkpt lat="42.86906841668561" lon="13.637025688403341"><ele>204.0</ele><time>2026-05-02T09:30:49Z</time></trkpt><trkpt lat="42.8691149691377" lon="13.636851296691678"><ele>204.0</ele><time>2026-05-02T09:30:50Z</time></trkpt><trkpt lat="42.86914474437772" lon="13.636660821884366"><ele>204.75</ele><time>2026-05-02T09:30:51Z</time></trkpt><trkpt lat="42.86915288014638" lon="13.636461705929884"><ele>205.5</ele><time>2026-05-02T09:30:52Z</time></trkpt><trkpt lat="42.86914924999747" lon="13.636271560026108"><ele>206.25</ele><time>2026-05-02T09:30:53Z</time></trkpt><trkpt lat="42.86914169108643" lon="13.636086262677685"><ele>207.0</ele><time>2026-05-02T09:30:54Z</time></trkpt><trkpt lat="42.869145040970174" lon="13.635912549957652"><ele>207.0</ele><time>2026-05-02T09:30:55Z</time></trkpt><trkpt lat="42.86916245476544" lon="13.63575478824536"><ele>207.0</ele><time>2026-05-02T09:30:56Z</time></trkpt><trkpt lat="42.869201200369886" lon="13.635618801634552"><ele>207.0</ele><time>2026-05-02T09:30:57Z</time></trkpt><trkpt lat="42.86926561700617" lon="13.635489237714756"><ele>207.0</ele><time>2026-05-02T09:30:58Z</time></trkpt><trkpt lat="42.8693568063564" lon="13.635369599070547"><ele>203.0</ele><time>2026-05-02T09:30:59Z</time></trkpt><trkpt lat="42.86947281455435" lon="13.635268510502614"><ele>199.0</ele><time>2026-05-02T09:31:00Z</time></trkpt><trkpt lat="42.869615242021084" lon="13.635208084970845"><ele>195.0</ele><time>2026-05-02T09:31:01Z</time></trkpt><trkpt lat="42.869759829715974" lon="13.635225320301378"><ele>191.0</ele><time>2026-05-02T09:31:02Z</time></trkpt><trkpt lat="42.86988512117478" lon="13.635276912800336"><ele>191.66666666666666</ele><time>2026-05-02T09:31:03Z</time></trkpt><trkpt lat="42.870023544617005" lon="13.635347122830163"><ele>192.33333333333331</ele><time>2026-05-02T09:31:04Z</time></trkpt><trkpt lat="42.87018614104269" lon="13.635421680157174"><ele>193.0</ele><time>2026-05-02T09:31:05Z</time></trkpt><trkpt lat="42.87036253275644" lon="13.635520563523237"><ele>193.66666666666666</ele><time>2026-05-02T09:31:06Z</time></trkpt><trkpt lat="42.87055300604601" lon="13.635617995189362"><ele>194.33333333333331</ele><time>2026-05-02T09:31:07Z</time></trkpt><trkpt lat="42.870751384288326" lon="13.635718599431213"><ele>195.0</ele><time>2026-05-02T09:31:08Z</time></trkpt><trkpt lat="42.870956737786926" lon="13.635826419786603"><ele>198.0</ele><time>2026-05-02T09:31:09Z</time></trkpt><trkpt lat="42.871163726370824" lon="13.63593927155966"><ele>201.0</ele><time>2026-05-02T09:31:10Z</time></trkpt><trkpt lat="42.87136228264526" lon="13.636041692165305"><ele>204.0</ele><time>2026-05-02T09:31:11Z</time></trkpt><trkpt lat="42.87155975465598" lon="13.636139912588384"><ele>204.0</ele><time>2026-05-02T09:31:12Z</time></trkpt><trkpt lat="42.871744684597246" lon="13.636230907695273"><ele>204.0</ele><time>2026-05-02T09:31:13Z</time></trkpt><trkpt lat="42.871902958325855" lon="13.636303152512978"><ele>204.0</ele><time>2026-05-02T09:31:14Z</time></trkpt><trkpt lat="42.872043854313816" lon="13.636352559959722"><ele>204.66666666666669</ele><time>2026-05-02T09:31:15Z</time></trkpt><trkpt lat="42.872191958913994" lon="13.636361839626671"><ele>205.33333333333334</ele><time>2026-05-02T09:31:16Z</time></trkpt><trkpt lat="42.8723564763354" lon="13.63634885357319"><ele>206.0</ele><time>2026-05-02T09:31:17Z</time></trkpt><trkpt lat="42.87251226643299" lon="13.636300139825142"><ele>203.66666666666669</ele><time>2026-05-02T09:31:18Z</time></trkpt><trkpt lat="42.872648730970155" lon="13.636223934259407"><ele>201.33333333333331</ele><time>2026-05-02T09:31:19Z</time></trkpt><trkpt lat="42.872781499541574" lon="13.636105163867086"><ele>199.0</ele><time>2026-05-02T09:31:20Z</time></trkpt><trkpt lat="42.87291417615361" lon="13.635941181730283"><ele>204.33333333333331</ele><time>2026-05-02T09:31:21Z</time></trkpt><trkpt lat="42.873058169906294" lon="13.635795709351113"><ele>209.66666666666669</ele><time>2026-05-02T09:31:22Z</time></trkpt><trkpt lat="42.87320490118278" lon="13.635648043162268"><ele>215.0</ele><time>2026-05-02T09:31:23Z</time></trkpt><trkpt lat="42.873341099000505" lon="13.63552585846502"><ele>216.66666666666669</ele><time>2026-05-02T09:31:24Z</time></trkpt><trkpt lat="42.87347758492522" lon="13.635448710929476"><ele>218.33333333333331</ele><time>2026-05-02T09:31:25Z</time></trkpt><trkpt lat="42.87363175585279" lon="13.635404152639014"><ele>220.0</ele><time>2026-05-02T09:31:26Z</time></trkpt><trkpt lat="42.87379025850576" lon="13.635426848484196"><ele>220.0</ele><time>2026-05-02T09:31:27Z</time></trkpt><trkpt lat="42.87394309633698" lon="13.635446271427337"><ele>220.0</ele><time>2026-05-02T09:31:28Z</time></trkpt><trkpt lat="42.87408280337829" lon="13.635552369417619"><ele>220.0</ele><time>2026-05-02T09:31:29Z</time></trkpt><trkpt lat="42.874210576712684" lon="13.635667220881782"><ele>221.66666666666666</ele><time>2026-05-02T09:31:30Z</time></trkpt><trkpt lat="42.87431425351243" lon="13.635820580175505"><ele>223.33333333333331</ele><time>2026-05-02T09:31:31Z</time></trkpt><trkpt lat="42.874407970393435" lon="13.636010482931868"><ele>225.0</ele><time>2026-05-02T09:31:32Z</time></trkpt><trkpt lat="42.87449403782946" lon="13.636218971919522"><ele>225.0</ele><time>2026-05-02T09:31:33Z</time></trkpt><trkpt lat="42.874587595591606" lon="13.636431389663981"><ele>225.0</ele><time>2026-05-02T09:31:34Z</time></trkpt><trkpt lat="42.8746901062745" lon="13.636618120676163"><ele>225.0</ele><time>2026-05-02T09:31:35Z</time></trkpt><trkpt lat="42.8747897424904" lon="13.636747890193915"><ele>225.0</ele><time>2026-05-02T09:31:36Z</time></trkpt><trkpt lat="42.87491128435993" lon="13.636830028614455"><ele>225.0</ele><time>2026-05-02T09:31:37Z</time></trkpt><trkpt lat="42.87506162425751" lon="13.636858460178487"><ele>225.0</ele><time>2026-05-02T09:31:38Z</time></trkpt><trkpt lat="42.87521205994305" lon="13.636847614969456"><ele>225.0</ele><time>2026-05-02T09:31:39Z</time></trkpt><trkpt lat="42.875363838599" lon="13.636794286314085"><ele>225.66666666666669</ele><time>2026-05-02T09:31:40Z</time></trkpt><trkpt lat="42.87552235659118" lon="13.636709316478733"><ele>226.33333333333334</ele><time>2026-05-02T09:31:41Z</time></trkpt><trkpt lat="42.87569335162047" lon="13.636607406191603"><ele>227.0</ele><time>2026-05-02T09:31:42Z</time></trkpt><trkpt lat="42.875872114620556" lon="13.636496153702783"><ele>225.66666666666669</ele><time>2026-05-02T09:31:43Z</time></trkpt><trkpt lat="42.87606387864188" lon="13.636378431939729"><ele>224.33333333333331</ele><time>2026-05-02T09:31:44Z</time></trkpt><trkpt lat="42.87626297057173" lon="13.63626634439958"><ele>223.0</ele><time>2026-05-02T09:31:45Z</time></trkpt><trkpt lat="42.87646187137151" lon="13.636152933521881"><ele>228.0</ele><time>2026-05-02T09:31:45.999Z</time></trkpt><trkpt lat="42.876657730900625" lon="13.63604078880994"><ele>233.0</ele><time>2026-05-02T09:31:46.999Z</time></trkpt><trkpt lat="42.87685378016636" lon="13.635931418089887"><ele>238.0</ele><time>2026-05-02T09:31:47.999Z</time></trkpt><trkpt lat="42.877055130972614" lon="13.635815333803267"><ele>238.0</ele><time>2026-05-02T09:31:48.999Z</time></trkpt><trkpt lat="42.87726059583175" lon="13.635698654972495"><ele>238.0</ele><time>2026-05-02T09:31:49.999Z</time></trkpt><trkpt lat="42.87746388829618" lon="13.63558607151233"><ele>238.0</ele><time>2026-05-02T09:31:50.999Z</time></trkpt><trkpt lat="42.87766037861057" lon="13.635469293191113"><ele>236.66666666666666</ele><time>2026-05-02T09:31:51.999Z</time></trkpt><trkpt lat="42.87785790506551" lon="13.635337457323084"><ele>235.33333333333331</ele><time>2026-05-02T09:31:52.999Z</time></trkpt><trkpt lat="42.87804711081038" lon="13.635203758847052"><ele>234.0</ele><time>2026-05-02T09:31:53.999Z</time></trkpt><trkpt lat="42.878215954954605" lon="13.635076961352498"><ele>238.33333333333331</ele><time>2026-05-02T09:31:54.999Z</time></trkpt><trkpt lat="42.87837077580264" lon="13.634961768909509"><ele>242.66666666666666</ele><time>2026-05-02T09:31:55.999Z</time></trkpt><trkpt lat="42.878502366760635" lon="13.634864602161311"><ele>247.0</ele><time>2026-05-02T09:31:56.999Z</time></trkpt><trkpt lat="42.87862208032754" lon="13.634794543077657"><ele>247.0</ele><time>2026-05-02T09:31:57.999Z</time></trkpt><trkpt lat="42.878736239065944" lon="13.634774089341894"><ele>247.0</ele><time>2026-05-02T09:31:58.999Z</time></trkpt><trkpt lat="42.8788658773771" lon="13.634808132443748"><ele>247.0</ele><time>2026-05-02T09:31:59.999Z</time></trkpt><trkpt lat="42.87901577133892" lon="13.634830025802358"><ele>247.0</ele><time>2026-05-02T09:32:00.999Z</time></trkpt><trkpt lat="42.8791357308926" lon="13.634876423126673"><ele>247.0</ele><time>2026-05-02T09:32:01.999Z</time></trkpt><trkpt lat="42.8792512799465" lon="13.634877970128873"><ele>247.0</ele><time>2026-05-02T09:32:02.999Z</time></trkpt><trkpt lat="42.87935612441474" lon="13.634829607669166"><ele>247.0</ele><time>2026-05-02T09:32:03.999Z</time></trkpt><trkpt lat="42.879451218578495" lon="13.634720812844755"><ele>247.0</ele><time>2026-05-02T09:32:04.999Z</time></trkpt><trkpt lat="42.87952900266328" lon="13.63456034208691"><ele>248.0</ele><time>2026-05-02T09:32:05.999Z</time></trkpt><trkpt lat="42.879591125299186" lon="13.634359175033122"><ele>249.0</ele><time>2026-05-02T09:32:06.999Z</time></trkpt><trkpt lat="42.879640832874045" lon="13.634131053309725"><ele>250.0</ele><time>2026-05-02T09:32:07.999Z</time></trkpt><trkpt lat="42.87971093197175" lon="13.63391910937419"><ele>250.0</ele><time>2026-05-02T09:32:08.999Z</time></trkpt><trkpt lat="42.87980249879143" lon="13.633687767420332"><ele>250.0</ele><time>2026-05-02T09:32:09.999Z</time></trkpt><trkpt lat="42.879898983037826" lon="13.633488315746362"><ele>250.0</ele><time>2026-05-02T09:32:10.999Z</time></trkpt><trkpt lat="42.880015750466285" lon="13.63330671928898"><ele>250.66666666666666</ele><time>2026-05-02T09:32:11.999Z</time></trkpt><trkpt lat="42.88015976927563" lon="13.633155969169337"><ele>251.33333333333331</ele><time>2026-05-02T09:32:12.999Z</time></trkpt><trkpt lat="42.880320218138735" lon="13.63301963837949"><ele>252.0</ele><time>2026-05-02T09:32:13.999Z</time></trkpt><trkpt lat="42.880495128076184" lon="13.632897224429632"><ele>255.0</ele><time>2026-05-02T09:32:14.999Z</time></trkpt><trkpt lat="42.880680573795345" lon="13.632787182696138"><ele>258.0</ele><time>2026-05-02T09:32:15.999Z</time></trkpt><trkpt lat="42.88087741854575" lon="13.632668530475037"><ele>261.0</ele><time>2026-05-02T09:32:16.999Z</time></trkpt><trkpt lat="42.88107308938179" lon="13.63252846540367"><ele>261.0</ele><time>2026-05-02T09:32:17.999Z</time></trkpt><trkpt lat="42.881282495580024" lon="13.632403790051907"><ele>261.0</ele><time>2026-05-02T09:32:18.999Z</time></trkpt><trkpt lat="42.88148703067141" lon="13.632285581264771"><ele>261.0</ele><time>2026-05-02T09:32:19.999Z</time></trkpt><trkpt lat="42.88169217636758" lon="13.632163982128061"><ele>261.0</ele><time>2026-05-02T09:32:20.999Z</time></trkpt><trkpt lat="42.881904368840246" lon="13.632040169920714"><ele>263.5</ele><time>2026-05-02T09:32:21.999Z</time></trkpt><trkpt lat="42.88212046426666" lon="13.631911530807717"><ele>266.0</ele><time>2026-05-02T09:32:22.999Z</time></trkpt><trkpt lat="42.88234029130879" lon="13.631779003808278"><ele>266.0</ele><time>2026-05-02T09:32:23.999Z</time></trkpt><trkpt lat="42.882561027930365" lon="13.631645151387792"><ele>266.0</ele><time>2026-05-02T09:32:24.999Z</time></trkpt><trkpt lat="42.882786072564926" lon="13.631509260673809"><ele>264.5</ele><time>2026-05-02T09:32:25.999Z</time></trkpt><trkpt lat="42.88301112724417" lon="13.63137488681246"><ele>263.0</ele><time>2026-05-02T09:32:26.999Z</time></trkpt><trkpt lat="42.88324342557138" lon="13.631241524194438"><ele>267.0</ele><time>2026-05-02T09:32:27.999Z</time></trkpt><trkpt lat="42.88347273986941" lon="13.63111139493118"><ele>271.0</ele><time>2026-05-02T09:32:28.999Z</time></trkpt><trkpt lat="42.88370681906467" lon="13.630984786905397"><ele>271.0</ele><time>2026-05-02T09:32:29.999Z</time></trkpt><trkpt lat="42.883941007420844" lon="13.630874266122149"><ele>271.0</ele><time>2026-05-02T09:32:30.999Z</time></trkpt><trkpt lat="42.88418536321014" lon="13.63077219546226"><ele>274.0</ele><time>2026-05-02T09:32:31.999Z</time></trkpt><trkpt lat="42.884429781935616" lon="13.630671741617217"><ele>277.0</ele><time>2026-05-02T09:32:32.999Z</time></trkpt><trkpt lat="42.884670120084365" lon="13.630568297679513"><ele>277.0</ele><time>2026-05-02T09:32:33.999Z</time></trkpt><trkpt lat="42.88489151519348" lon="13.63046914253233"><ele>277.0</ele><time>2026-05-02T09:32:34.999Z</time></trkpt><trkpt lat="42.88509247255048" lon="13.630379494744"><ele>277.0</ele><time>2026-05-02T09:32:35.999Z</time></trkpt><trkpt lat="42.8852584970221" lon="13.63030826308083"><ele>275.0</ele><time>2026-05-02T09:32:36.999Z</time></trkpt><trkpt lat="42.885408299413854" lon="13.630248874006233"><ele>273.0</ele><time>2026-05-02T09:32:37.999Z</time></trkpt><trkpt lat="42.88555010051282" lon="13.630222496382961"><ele>271.0</ele><time>2026-05-02T09:32:38.999Z</time></trkpt><trkpt lat="42.88569744832823" lon="13.630279898658525"><ele>273.66666666666663</ele><time>2026-05-02T09:32:39.999Z</time></trkpt><trkpt lat="42.88585125047685" lon="13.63035260497717"><ele>276.3333333333333</ele><time>2026-05-02T09:32:40.999Z</time></trkpt><trkpt lat="42.886001864566694" lon="13.6304757031325"><ele>279.0</ele><time>2026-05-02T09:32:41.999Z</time></trkpt><trkpt lat="42.88615644150618" lon="13.630608785374449"><ele>279.0</ele><time>2026-05-02T09:32:43Z</time></trkpt><trkpt lat="42.886305813033395" lon="13.630776583773985"><ele>279.0</ele><time>2026-05-02T09:32:44Z</time></trkpt><trkpt lat="42.88646972471702" lon="13.630955821851176"><ele>279.0</ele><time>2026-05-02T09:32:45Z</time></trkpt><trkpt lat="42.886615210071476" lon="13.631120519486787"><ele>280.3333333333333</ele><time>2026-05-02T09:32:46Z</time></trkpt><trkpt lat="42.8867509505453" lon="13.631274801869813"><ele>281.66666666666663</ele><time>2026-05-02T09:32:47Z</time></trkpt><trkpt lat="42.886875786587446" lon="13.631383268538888"><ele>283.0</ele><time>2026-05-02T09:32:48Z</time></trkpt><trkpt lat="42.886998748606565" lon="13.63144819428245"><ele>283.0</ele><time>2026-05-02T09:32:49Z</time></trkpt><trkpt lat="42.887139945571235" lon="13.631476266374044"><ele>283.0</ele><time>2026-05-02T09:32:50Z</time></trkpt><trkpt lat="42.887299078322755" lon="13.631471800511108"><ele>283.0</ele><time>2026-05-02T09:32:51Z</time></trkpt><trkpt lat="42.88748087108367" lon="13.631446385465694"><ele>283.3333333333333</ele><time>2026-05-02T09:32:52Z</time></trkpt><trkpt lat="42.88768752434039" lon="13.631428200464862"><ele>283.6666666666667</ele><time>2026-05-02T09:32:53Z</time></trkpt><trkpt lat="42.887912898455056" lon="13.631414410707434"><ele>284.0</ele><time>2026-05-02T09:32:54Z</time></trkpt><trkpt lat="42.88812940399919" lon="13.631408676445327"><ele>284.0</ele><time>2026-05-02T09:32:55Z</time></trkpt><trkpt lat="42.88834536234892" lon="13.631396385804823"><ele>284.0</ele><time>2026-05-02T09:32:56Z</time></trkpt><trkpt lat="42.88856348003556" lon="13.631383805982844"><ele>284.0</ele><time>2026-05-02T09:32:57Z</time></trkpt><trkpt lat="42.888782320175714" lon="13.63137718035305"><ele>284.6666666666667</ele><time>2026-05-02T09:32:58Z</time></trkpt><trkpt lat="42.88900204114868" lon="13.631369618608785"><ele>285.3333333333333</ele><time>2026-05-02T09:32:59Z</time></trkpt><trkpt lat="42.88921990675852" lon="13.631364622286359"><ele>286.0</ele><time>2026-05-02T09:33:00Z</time></trkpt><trkpt lat="42.88943915860593" lon="13.631360202513928"><ele>288.3333333333333</ele><time>2026-05-02T09:33:01Z</time></trkpt><trkpt lat="42.88965632540118" lon="13.6313658512698"><ele>290.6666666666667</ele><time>2026-05-02T09:33:02Z</time></trkpt><trkpt lat="42.88987228142636" lon="13.631374484780391"><ele>293.0</ele><time>2026-05-02T09:33:03Z</time></trkpt><trkpt lat="42.890094021246036" lon="13.631384320785465"><ele>294.0</ele><time>2026-05-02T09:33:04Z</time></trkpt><trkpt lat="42.890305164292734" lon="13.631405894947669"><ele>295.0</ele><time>2026-05-02T09:33:05Z</time></trkpt><trkpt lat="42.89051823844629" lon="13.63142433702648"><ele>296.0</ele><time>2026-05-02T09:33:06Z</time></trkpt><trkpt lat="42.89073139602999" lon="13.631436296411723"><ele>298.33333333333337</ele><time>2026-05-02T09:33:07Z</time></trkpt><trkpt lat="42.89094051739546" lon="13.631452654360611"><ele>300.6666666666667</ele><time>2026-05-02T09:33:08Z</time></trkpt><trkpt lat="42.89112673554374" lon="13.631467206256744"><ele>303.0</ele><time>2026-05-02T09:33:09Z</time></trkpt><trkpt lat="42.89129773609834" lon="13.631477671171174"><ele>303.0</ele><time>2026-05-02T09:33:10Z</time></trkpt><trkpt lat="42.89146949208246" lon="13.631495166515384"><ele>303.0</ele><time>2026-05-02T09:33:11Z</time></trkpt><trkpt lat="42.8916443590617" lon="13.6315086878417"><ele>303.0</ele><time>2026-05-02T09:33:12Z</time></trkpt><trkpt lat="42.891802812921014" lon="13.63151689456438"><ele>302.6666666666667</ele><time>2026-05-02T09:33:13Z</time></trkpt><trkpt lat="42.891967655289065" lon="13.631528471008577"><ele>302.33333333333337</ele><time>2026-05-02T09:33:14Z</time></trkpt><trkpt lat="42.892128881325746" lon="13.631532880916524"><ele>302.0</ele><time>2026-05-02T09:33:15Z</time></trkpt><trkpt lat="42.89227886008301" lon="13.631535455239726"><ele>302.0</ele><time>2026-05-02T09:33:16Z</time></trkpt><trkpt lat="42.8924189186606" lon="13.631536540512583"><ele>302.0</ele><time>2026-05-02T09:33:17Z</time></trkpt><trkpt lat="42.89254989072888" lon="13.63153927984412"><ele>302.0</ele><time>2026-05-02T09:33:18Z</time></trkpt><trkpt lat="42.89268470689515" lon="13.631556196180794"><ele>302.0</ele><time>2026-05-02T09:33:19Z</time></trkpt><trkpt lat="42.8928255772753" lon="13.631596895532383"><ele>301.6666666666667</ele><time>2026-05-02T09:33:20Z</time></trkpt><trkpt lat="42.89296835609969" lon="13.631666876844061"><ele>301.3333333333333</ele><time>2026-05-02T09:33:21Z</time></trkpt><trkpt lat="42.89311168223104" lon="13.631753677784307"><ele>301.0</ele><time>2026-05-02T09:33:22Z</time></trkpt><trkpt lat="42.89324988495147" lon="13.631863897362201"><ele>300.0</ele><time>2026-05-02T09:33:23Z</time></trkpt><trkpt lat="42.89338214346755" lon="13.631983449061336"><ele>299.0</ele><time>2026-05-02T09:33:24Z</time></trkpt><trkpt lat="42.89350636472618" lon="13.632102638803474"><ele>298.0</ele><time>2026-05-02T09:33:25Z</time></trkpt><trkpt lat="42.893629690943676" lon="13.632223407097387"><ele>300.3333333333333</ele><time>2026-05-02T09:33:26Z</time></trkpt><trkpt lat="42.89375430356874" lon="13.632344016256875"><ele>302.6666666666667</ele><time>2026-05-02T09:33:27Z</time></trkpt><trkpt lat="42.8938804648468" lon="13.632462047286381"><ele>305.0</ele><time>2026-05-02T09:33:28Z</time></trkpt><trkpt lat="42.894005554114244" lon="13.632581131880237"><ele>305.0</ele><time>2026-05-02T09:33:29Z</time></trkpt><trkpt lat="42.894126333137194" lon="13.632712668067173"><ele>305.0</ele><time>2026-05-02T09:33:30Z</time></trkpt><trkpt lat="42.89424773491696" lon="13.632866835871411"><ele>305.0</ele><time>2026-05-02T09:33:31Z</time></trkpt><trkpt lat="42.894362065143746" lon="13.633048224594159"><ele>305.0</ele><time>2026-05-02T09:33:32Z</time></trkpt><trkpt lat="42.89446970799239" lon="13.633238932976518"><ele>305.0</ele><time>2026-05-02T09:33:33Z</time></trkpt><trkpt lat="42.89457195565832" lon="13.633436612894048"><ele>305.0</ele><time>2026-05-02T09:33:34Z</time></trkpt><trkpt lat="42.89466757136328" lon="13.633632718002323"><ele>309.0</ele><time>2026-05-02T09:33:35Z</time></trkpt><trkpt lat="42.89475247213757" lon="13.633803195295103"><ele>313.0</ele><time>2026-05-02T09:33:36Z</time></trkpt><trkpt lat="42.89484958952431" lon="13.633972669214252"><ele>317.0</ele><time>2026-05-02T09:33:37Z</time></trkpt><trkpt lat="42.894976998469765" lon="13.634124231648906"><ele>316.33333333333337</ele><time>2026-05-02T09:33:38Z</time></trkpt><trkpt lat="42.89512019506175" lon="13.634246848784597"><ele>315.6666666666667</ele><time>2026-05-02T09:33:39Z</time></trkpt><trkpt lat="42.8952714312935" lon="13.634341583986851"><ele>315.0</ele><time>2026-05-02T09:33:40Z</time></trkpt><trkpt lat="42.895407708796114" lon="13.634411445608464"><ele>316.5</ele><time>2026-05-02T09:33:41Z</time></trkpt><trkpt lat="42.89554795675279" lon="13.634482616396568"><ele>318.0</ele><time>2026-05-02T09:33:42Z</time></trkpt><trkpt lat="42.89568736018862" lon="13.63456198644822"><ele>319.5</ele><time>2026-05-02T09:33:43Z</time></trkpt><trkpt lat="42.8958198993154" lon="13.634643415415393"><ele>321.0</ele><time>2026-05-02T09:33:44Z</time></trkpt><trkpt lat="42.8959271352821" lon="13.634714071645792"><ele>321.0</ele><time>2026-05-02T09:33:45Z</time></trkpt><trkpt lat="42.896019014120895" lon="13.634824654053714"><ele>321.0</ele><time>2026-05-02T09:33:46Z</time></trkpt><trkpt lat="42.89610915512355" lon="13.634959727441982"><ele>321.0</ele><time>2026-05-02T09:33:47Z</time></trkpt><trkpt lat="42.896211072330125" lon="13.635102066755092"><ele>321.0</ele><time>2026-05-02T09:33:48Z</time></trkpt><trkpt lat="42.896285487179426" lon="13.635267809075568"><ele>324.75</ele><time>2026-05-02T09:33:49Z</time></trkpt><trkpt lat="42.89635674970466" lon="13.635414726341322"><ele>328.5</ele><time>2026-05-02T09:33:50Z</time></trkpt><trkpt lat="42.89643407192483" lon="13.635551892233932"><ele>332.25</ele><time>2026-05-02T09:33:51Z</time></trkpt><trkpt lat="42.89651732190324" lon="13.635685788095936"><ele>336.0</ele><time>2026-05-02T09:33:52Z</time></trkpt><trkpt lat="42.89661081692279" lon="13.635806062715648"><ele>336.0</ele><time>2026-05-02T09:33:53Z</time></trkpt><trkpt lat="42.89671833982156" lon="13.635893877609833"><ele>336.0</ele><time>2026-05-02T09:33:54Z</time></trkpt><trkpt lat="42.89684334686273" lon="13.635949986356925"><ele>336.0</ele><time>2026-05-02T09:33:54.999Z</time></trkpt><trkpt lat="42.896969262513274" lon="13.635973363623803"><ele>336.0</ele><time>2026-05-02T09:33:55.999Z</time></trkpt><trkpt lat="42.897095301212275" lon="13.635966198603239"><ele>339.0</ele><time>2026-05-02T09:33:56.999Z</time></trkpt><trkpt lat="42.89721996075644" lon="13.635924746061821"><ele>342.0</ele><time>2026-05-02T09:33:57.999Z</time></trkpt><trkpt lat="42.89733775074633" lon="13.635837324457995"><ele>345.0</ele><time>2026-05-02T09:33:58.999Z</time></trkpt><trkpt lat="42.89744637527767" lon="13.635719373185468"><ele>348.0</ele><time>2026-05-02T09:33:59.999Z</time></trkpt><trkpt lat="42.89754237770222" lon="13.6355790608702"><ele>352.25</ele><time>2026-05-02T09:34:00.999Z</time></trkpt><trkpt lat="42.89761839284532" lon="13.635415657647243"><ele>356.5</ele><time>2026-05-02T09:34:01.999Z</time></trkpt><trkpt lat="42.89766628556371" lon="13.635228789418491"><ele>360.75</ele><time>2026-05-02T09:34:02.999Z</time></trkpt><trkpt lat="42.8977042996188" lon="13.635037513231461"><ele>365.0</ele><time>2026-05-02T09:34:03.999Z</time></trkpt><trkpt lat="42.89773260968448" lon="13.634835521850217"><ele>365.0</ele><time>2026-05-02T09:34:04.999Z</time></trkpt><trkpt lat="42.89776183744772" lon="13.634627724771393"><ele>365.0</ele><time>2026-05-02T09:34:05.999Z</time></trkpt><trkpt lat="42.89779367919086" lon="13.634439034085114"><ele>365.0</ele><time>2026-05-02T09:34:06.999Z</time></trkpt><trkpt lat="42.89782905116886" lon="13.63424894082495"><ele>365.0</ele><time>2026-05-02T09:34:07.999Z</time></trkpt><trkpt lat="42.897863823889374" lon="13.634046483590717"><ele>364.0</ele><time>2026-05-02T09:34:08.999Z</time></trkpt><trkpt lat="42.89789522374812" lon="13.63385283238493"><ele>363.0</ele><time>2026-05-02T09:34:09.999Z</time></trkpt><trkpt lat="42.897925368073146" lon="13.633673886998873"><ele>362.0</ele><time>2026-05-02T09:34:10.999Z</time></trkpt><trkpt lat="42.89797451970991" lon="13.633525638520595"><ele>361.0</ele><time>2026-05-02T09:34:11.999Z</time></trkpt><trkpt lat="42.89803237102392" lon="13.633393406848324"><ele>358.75</ele><time>2026-05-02T09:34:12.999Z</time></trkpt><trkpt lat="42.89810142855844" lon="13.63328161991115"><ele>356.5</ele><time>2026-05-02T09:34:13.999Z</time></trkpt><trkpt lat="42.8982286735834" lon="13.63323810228587"><ele>354.25</ele><time>2026-05-02T09:34:14.999Z</time></trkpt><trkpt lat="42.8983487434203" lon="13.633184063956538"><ele>352.0</ele><time>2026-05-02T09:34:15.999Z</time></trkpt><trkpt lat="42.89848213860704" lon="13.633201718829516"><ele>349.3333333333333</ele><time>2026-05-02T09:34:16.999Z</time></trkpt><trkpt lat="42.89862554122129" lon="13.63325143484604"><ele>346.6666666666667</ele><time>2026-05-02T09:34:17.999Z</time></trkpt><trkpt lat="42.898782856763276" lon="13.63333497032269"><ele>344.0</ele><time>2026-05-02T09:34:18.999Z</time></trkpt><trkpt lat="42.898960251548544" lon="13.633434568178934"><ele>344.0</ele><time>2026-05-02T09:34:19.999Z</time></trkpt><trkpt lat="42.899130685977326" lon="13.633538664793953"><ele>344.0</ele><time>2026-05-02T09:34:20.999Z</time></trkpt><trkpt lat="42.89929173179259" lon="13.633648273763791"><ele>344.0</ele><time>2026-05-02T09:34:21.999Z</time></trkpt><trkpt lat="42.8994424894051" lon="13.63375816616077"><ele>347.6666666666667</ele><time>2026-05-02T09:34:22.999Z</time></trkpt><trkpt lat="42.89957887684337" lon="13.633857091096448"><ele>351.3333333333333</ele><time>2026-05-02T09:34:23.999Z</time></trkpt><trkpt lat="42.89972024557897" lon="13.633953844852412"><ele>355.0</ele><time>2026-05-02T09:34:24.999Z</time></trkpt><trkpt lat="42.89986199013459" lon="13.634032165426747"><ele>355.0</ele><time>2026-05-02T09:34:25.999Z</time></trkpt><trkpt lat="42.900002892357875" lon="13.634083606190208"><ele>355.0</ele><time>2026-05-02T09:34:26.999Z</time></trkpt><trkpt lat="42.90016017965682" lon="13.634093765708446"><ele>355.0</ele><time>2026-05-02T09:34:27.999Z</time></trkpt><trkpt lat="42.90032762970276" lon="13.63406529371231"><ele>356.3333333333333</ele><time>2026-05-02T09:34:28.999Z</time></trkpt><trkpt lat="42.900497092680524" lon="13.634005875109004"><ele>357.6666666666667</ele><time>2026-05-02T09:34:29.999Z</time></trkpt><trkpt lat="42.90065377635066" lon="13.633933978093449"><ele>359.0</ele><time>2026-05-02T09:34:30.999Z</time></trkpt><trkpt lat="42.90080199431833" lon="13.633845916521452"><ele>359.6666666666667</ele><time>2026-05-02T09:34:31.999Z</time></trkpt><trkpt lat="42.900944506575456" lon="13.633726820069281"><ele>360.3333333333333</ele><time>2026-05-02T09:34:32.999Z</time></trkpt><trkpt lat="42.90108199150177" lon="13.633586769159491"><ele>361.0</ele><time>2026-05-02T09:34:33.999Z</time></trkpt><trkpt lat="42.90120489909873" lon="13.633421122021444"><ele>361.0</ele><time>2026-05-02T09:34:34.999Z</time></trkpt><trkpt lat="42.90131874885947" lon="13.633244027360607"><ele>361.0</ele><time>2026-05-02T09:34:35.999Z</time></trkpt><trkpt lat="42.901433562291686" lon="13.633087616522957"><ele>361.0</ele><time>2026-05-02T09:34:36.999Z</time></trkpt><trkpt lat="42.90154778699628" lon="13.632961651771046"><ele>361.0</ele><time>2026-05-02T09:34:37.999Z</time></trkpt><trkpt lat="42.90167840720927" lon="13.632838479251273"><ele>361.0</ele><time>2026-05-02T09:34:38.999Z</time></trkpt><trkpt lat="42.901832212421475" lon="13.632723351125877"><ele>361.0</ele><time>2026-05-02T09:34:39.999Z</time></trkpt><trkpt lat="42.90201047966589" lon="13.632645124186487"><ele>359.3333333333333</ele><time>2026-05-02T09:34:40.999Z</time></trkpt><trkpt lat="42.90218749882683" lon="13.632569513699112"><ele>357.6666666666667</ele><time>2026-05-02T09:34:41.999Z</time></trkpt><trkpt lat="42.902356436210326" lon="13.63252786987361"><ele>356.0</ele><time>2026-05-02T09:34:42.999Z</time></trkpt><trkpt lat="42.9025373262818" lon="13.632497170835165"><ele>356.0</ele><time>2026-05-02T09:34:43.999Z</time></trkpt><trkpt lat="42.90272033204208" lon="13.632450087904719"><ele>356.0</ele><time>2026-05-02T09:34:44.999Z</time></trkpt><trkpt lat="42.90291109094521" lon="13.632448229539623"><ele>356.0</ele><time>2026-05-02T09:34:45.999Z</time></trkpt><trkpt lat="42.903099196292" lon="13.63240104370528"><ele>356.0</ele><time>2026-05-02T09:34:46.999Z</time></trkpt><trkpt lat="42.903283256362975" lon="13.63237576614997"><ele>356.0</ele><time>2026-05-02T09:34:47.999Z</time></trkpt><trkpt lat="42.90347442195126" lon="13.632371728195844"><ele>356.0</ele><time>2026-05-02T09:34:49Z</time></trkpt><trkpt lat="42.90368443429591" lon="13.632343144508225"><ele>355.5</ele><time>2026-05-02T09:34:50Z</time></trkpt><trkpt lat="42.90391230895353" lon="13.632309642732356"><ele>355.0</ele><time>2026-05-02T09:34:51Z</time></trkpt><trkpt lat="42.90414969700006" lon="13.63228928409524"><ele>357.0</ele><time>2026-05-02T09:34:52Z</time></trkpt><trkpt lat="42.904382765528965" lon="13.63226011126056"><ele>359.0</ele><time>2026-05-02T09:34:53Z</time></trkpt><trkpt lat="42.90459858399295" lon="13.632210514240459"><ele>359.0</ele><time>2026-05-02T09:34:54Z</time></trkpt><trkpt lat="42.90482113084879" lon="13.632188564882584"><ele>359.0</ele><time>2026-05-02T09:34:55Z</time></trkpt><trkpt lat="42.90503415681031" lon="13.632155270430333"><ele>359.0</ele><time>2026-05-02T09:34:56Z</time></trkpt><trkpt lat="42.90524637111115" lon="13.632122834601239"><ele>357.6666666666667</ele><time>2026-05-02T09:34:57Z</time></trkpt><trkpt lat="42.905433807315774" lon="13.632094900166841"><ele>356.3333333333333</ele><time>2026-05-02T09:34:58Z</time></trkpt><trkpt lat="42.90559936791482" lon="13.63206287967769"><ele>355.0</ele><time>2026-05-02T09:34:59Z</time></trkpt><trkpt lat="42.90574577941452" lon="13.63201347324391"><ele>356.66666666666663</ele><time>2026-05-02T09:35:00Z</time></trkpt><trkpt lat="42.90588954462202" lon="13.631916242951682"><ele>358.3333333333333</ele><time>2026-05-02T09:35:01Z</time></trkpt><trkpt lat="42.90604859765275" lon="13.631772665499945"><ele>360.0</ele><time>2026-05-02T09:35:02Z</time></trkpt><trkpt lat="42.90621368495542" lon="13.631589297085293"><ele>360.0</ele><time>2026-05-02T09:35:03Z</time></trkpt><trkpt lat="42.90636863493292" lon="13.631398803596317"><ele>360.0</ele><time>2026-05-02T09:35:04Z</time></trkpt><trkpt lat="42.90652529154571" lon="13.631198304547151"><ele>360.0</ele><time>2026-05-02T09:35:05Z</time></trkpt><trkpt lat="42.90666955298698" lon="13.630992036518737"><ele>358.5</ele><time>2026-05-02T09:35:06Z</time></trkpt><trkpt lat="42.90682736479698" lon="13.630768518695952"><ele>357.0</ele><time>2026-05-02T09:35:07Z</time></trkpt><trkpt lat="42.90697072116164" lon="13.63051087505128"><ele>361.6666666666667</ele><time>2026-05-02T09:35:08Z</time></trkpt><trkpt lat="42.90712255271081" lon="13.630281331314203"><ele>366.33333333333337</ele><time>2026-05-02T09:35:09Z</time></trkpt><trkpt lat="42.90727004550878" lon="13.630061083131025"><ele>371.0</ele><time>2026-05-02T09:35:10Z</time></trkpt><trkpt lat="42.90739790892066" lon="13.629865921630952"><ele>371.0</ele><time>2026-05-02T09:35:11Z</time></trkpt><trkpt lat="42.90751615412285" lon="13.629678420245344"><ele>371.0</ele><time>2026-05-02T09:35:12Z</time></trkpt><trkpt lat="42.90762156439278" lon="13.629462830273937"><ele>371.0</ele><time>2026-05-02T09:35:13Z</time></trkpt><trkpt lat="42.90771048659706" lon="13.629209682446099"><ele>369.6666666666667</ele><time>2026-05-02T09:35:14Z</time></trkpt><trkpt lat="42.90780394142104" lon="13.62894509872517"><ele>368.3333333333333</ele><time>2026-05-02T09:35:15Z</time></trkpt><trkpt lat="42.9079100008859" lon="13.628692304393862"><ele>367.0</ele><time>2026-05-02T09:35:16Z</time></trkpt><trkpt lat="42.90798768578029" lon="13.628422802467183"><ele>370.66666666666663</ele><time>2026-05-02T09:35:17Z</time></trkpt><trkpt lat="42.908083888572946" lon="13.628220212996272"><ele>374.3333333333333</ele><time>2026-05-02T09:35:18Z</time></trkpt><trkpt lat="42.908170315815745" lon="13.628056262969942"><ele>378.0</ele><time>2026-05-02T09:35:19Z</time></trkpt><trkpt lat="42.908281144000355" lon="13.627913146993809"><ele>379.0</ele><time>2026-05-02T09:35:20Z</time></trkpt><trkpt lat="42.90841832828027" lon="13.627801837592603"><ele>380.0</ele><time>2026-05-02T09:35:21Z</time></trkpt><trkpt lat="42.90857404410754" lon="13.627724507390575"><ele>381.0</ele><time>2026-05-02T09:35:22Z</time></trkpt><trkpt lat="42.90873269045338" lon="13.627624557951327"><ele>381.0</ele><time>2026-05-02T09:35:23Z</time></trkpt><trkpt lat="42.908887159876315" lon="13.6274959517269"><ele>381.0</ele><time>2026-05-02T09:35:24Z</time></trkpt><trkpt lat="42.90902328548848" lon="13.627340237939388"><ele>381.0</ele><time>2026-05-02T09:35:25Z</time></trkpt><trkpt lat="42.909131903565275" lon="13.627153713954355"><ele>383.66666666666663</ele><time>2026-05-02T09:35:26Z</time></trkpt><trkpt lat="42.909216146879565" lon="13.626934374494798"><ele>386.3333333333333</ele><time>2026-05-02T09:35:27Z</time></trkpt><trkpt lat="42.90929741932345" lon="13.626696072557838"><ele>389.0</ele><time>2026-05-02T09:35:28Z</time></trkpt><trkpt lat="42.90940419534931" lon="13.62645762113541"><ele>387.66666666666663</ele><time>2026-05-02T09:35:29Z</time></trkpt><trkpt lat="42.90950352811537" lon="13.626194931207003"><ele>386.33333333333337</ele><time>2026-05-02T09:35:30Z</time></trkpt><trkpt lat="42.909597960942456" lon="13.625943191551993"><ele>385.0</ele><time>2026-05-02T09:35:31Z</time></trkpt><trkpt lat="42.909693360632225" lon="13.6256888748061"><ele>385.0</ele><time>2026-05-02T09:35:32Z</time></trkpt><trkpt lat="42.90979348526156" lon="13.62542375041822"><ele>385.0</ele><time>2026-05-02T09:35:33Z</time></trkpt><trkpt lat="42.90989677685741" lon="13.62515717478244"><ele>385.0</ele><time>2026-05-02T09:35:34Z</time></trkpt><trkpt lat="42.90997900059558" lon="13.624878427661988"><ele>383.6666666666667</ele><time>2026-05-02T09:35:35Z</time></trkpt><trkpt lat="42.9100774261475" lon="13.624635756841627"><ele>382.33333333333337</ele><time>2026-05-02T09:35:36Z</time></trkpt><trkpt lat="42.910175202557085" lon="13.624398514600406"><ele>381.0</ele><time>2026-05-02T09:35:37Z</time></trkpt><trkpt lat="42.91025976205068" lon="13.624166878927936"><ele>381.0</ele><time>2026-05-02T09:35:38Z</time></trkpt><trkpt lat="42.91032994351137" lon="13.623966548526264"><ele>381.0</ele><time>2026-05-02T09:35:39Z</time></trkpt><trkpt lat="42.910384094344295" lon="13.623788518102304"><ele>381.0</ele><time>2026-05-02T09:35:40Z</time></trkpt><trkpt lat="42.910415221005124" lon="13.62360483796525"><ele>381.0</ele><time>2026-05-02T09:35:41Z</time></trkpt><trkpt lat="42.91041777157779" lon="13.623391059461849"><ele>382.33333333333337</ele><time>2026-05-02T09:35:42Z</time></trkpt><trkpt lat="42.91040485798695" lon="13.623156188666139"><ele>383.6666666666667</ele><time>2026-05-02T09:35:43Z</time></trkpt><trkpt lat="42.910406809737474" lon="13.622913622646887"><ele>385.0</ele><time>2026-05-02T09:35:44Z</time></trkpt><trkpt lat="42.910432371667234" lon="13.622691419128785"><ele>388.0</ele><time>2026-05-02T09:35:45Z</time></trkpt><trkpt lat="42.91049712659626" lon="13.6224951138991"><ele>391.0</ele><time>2026-05-02T09:35:45.999Z</time></trkpt><trkpt lat="42.910573826142134" lon="13.622281234293801"><ele>394.0</ele><time>2026-05-02T09:35:46.999Z</time></trkpt><trkpt lat="42.91066816469632" lon="13.62205383713386"><ele>397.6666666666667</ele><time>2026-05-02T09:35:47.999Z</time></trkpt><trkpt lat="42.910756503878225" lon="13.62181222773958"><ele>401.33333333333337</ele><time>2026-05-02T09:35:48.999Z</time></trkpt><trkpt lat="42.910862220287" lon="13.621591632780762"><ele>405.0</ele><time>2026-05-02T09:35:49.999Z</time></trkpt><trkpt lat="42.91094875305271" lon="13.621360549572627"><ele>400.33333333333337</ele><time>2026-05-02T09:35:50.999Z</time></trkpt><trkpt lat="42.911022040153966" lon="13.621095835790074"><ele>395.6666666666667</ele><time>2026-05-02T09:35:51.999Z</time></trkpt><trkpt lat="42.911098822576996" lon="13.620808240670437"><ele>391.0</ele><time>2026-05-02T09:35:52.999Z</time></trkpt><trkpt lat="42.91118234815791" lon="13.620499330602769"><ele>394.0</ele><time>2026-05-02T09:35:53.999Z</time></trkpt><trkpt lat="42.911272476091206" lon="13.620186535584741"><ele>397.0</ele><time>2026-05-02T09:35:54.999Z</time></trkpt><trkpt lat="42.9113606753433" lon="13.619882488099215"><ele>397.0</ele><time>2026-05-02T09:35:55.999Z</time></trkpt><trkpt lat="42.91145095996147" lon="13.619573691909517"><ele>397.0</ele><time>2026-05-02T09:35:56.999Z</time></trkpt><trkpt lat="42.911545992650254" lon="13.61926412417884"><ele>400.0</ele><time>2026-05-02T09:35:57.999Z</time></trkpt><trkpt lat="42.91163685437974" lon="13.618944138920488"><ele>403.0</ele><time>2026-05-02T09:35:58.999Z</time></trkpt><trkpt lat="42.91172032860861" lon="13.618620566419027"><ele>398.0</ele><time>2026-05-02T09:35:59.999Z</time></trkpt><trkpt lat="42.91180134600808" lon="13.61830500645029"><ele>393.0</ele><time>2026-05-02T09:36:00.999Z</time></trkpt><trkpt lat="42.911879862373894" lon="13.618013719107934"><ele>395.33333333333337</ele><time>2026-05-02T09:36:01.999Z</time></trkpt><trkpt lat="42.911961539690424" lon="13.617726852201852"><ele>397.6666666666667</ele><time>2026-05-02T09:36:02.999Z</time></trkpt><trkpt lat="42.9120431406005" lon="13.617443192133313"><ele>400.0</ele><time>2026-05-02T09:36:03.999Z</time></trkpt><trkpt lat="42.91211801865402" lon="13.617185684263903"><ele>401.6666666666667</ele><time>2026-05-02T09:36:04.999Z</time></trkpt><trkpt lat="42.912192037321496" lon="13.616939165527159"><ele>403.33333333333337</ele><time>2026-05-02T09:36:05.999Z</time></trkpt><trkpt lat="42.91227512193651" lon="13.616697253144787"><ele>405.0</ele><time>2026-05-02T09:36:06.999Z</time></trkpt><trkpt lat="42.912395153517096" lon="13.616481673020672"><ele>405.0</ele><time>2026-05-02T09:36:07.999Z</time></trkpt><trkpt lat="42.9125172293579" lon="13.616275250701056"><ele>405.0</ele><time>2026-05-02T09:36:08.999Z</time></trkpt><trkpt lat="42.91267159067008" lon="13.61610178338063"><ele>405.0</ele><time>2026-05-02T09:36:09.999Z</time></trkpt><trkpt lat="42.91284004696604" lon="13.615916852406968"><ele>403.0</ele><time>2026-05-02T09:36:10.999Z</time></trkpt><trkpt lat="42.91301440127945" lon="13.615721382735027"><ele>401.0</ele><time>2026-05-02T09:36:11.999Z</time></trkpt><trkpt lat="42.91320263701447" lon="13.61552534158534"><ele>401.0</ele><time>2026-05-02T09:36:12.999Z</time></trkpt><trkpt lat="42.91338331245016" lon="13.615328947250964"><ele>401.0</ele><time>2026-05-02T09:36:13.999Z</time></trkpt><trkpt lat="42.91356597097003" lon="13.615139128500841"><ele>401.3333333333333</ele><time>2026-05-02T09:36:14.999Z</time></trkpt><trkpt lat="42.91374617187212" lon="13.614951598586213"><ele>401.66666666666663</ele><time>2026-05-02T09:36:15.999Z</time></trkpt><trkpt lat="42.91391774956319" lon="13.614760730070756"><ele>402.0</ele><time>2026-05-02T09:36:16.999Z</time></trkpt><trkpt lat="42.91408383877841" lon="13.61457332128752"><ele>398.33333333333337</ele><time>2026-05-02T09:36:17.999Z</time></trkpt><trkpt lat="42.9142392446141" lon="13.61437873427081"><ele>394.6666666666667</ele><time>2026-05-02T09:36:18.999Z</time></trkpt><trkpt lat="42.914395698676216" lon="13.614162796573671"><ele>391.0</ele><time>2026-05-02T09:36:19.999Z</time></trkpt><trkpt lat="42.91455500163347" lon="13.613949312677468"><ele>391.0</ele><time>2026-05-02T09:36:20.999Z</time></trkpt><trkpt lat="42.91472454701522" lon="13.613725081916076"><ele>391.0</ele><time>2026-05-02T09:36:21.999Z</time></trkpt><trkpt lat="42.91489054520151" lon="13.613495350881417"><ele>390.5</ele><time>2026-05-02T09:36:22.999Z</time></trkpt><trkpt lat="42.91505791653451" lon="13.6132547364913"><ele>390.0</ele><time>2026-05-02T09:36:23.999Z</time></trkpt><trkpt lat="42.91521436665181" lon="13.613031075491277"><ele>390.0</ele><time>2026-05-02T09:36:24.999Z</time></trkpt><trkpt lat="42.915364441169814" lon="13.61282418068688"><ele>390.0</ele><time>2026-05-02T09:36:25.999Z</time></trkpt><trkpt lat="42.915503509132954" lon="13.61263882182798"><ele>390.0</ele><time>2026-05-02T09:36:26.999Z</time></trkpt><trkpt lat="42.915648253805266" lon="13.61246745542718"><ele>392.33333333333337</ele><time>2026-05-02T09:36:27.999Z</time></trkpt><trkpt lat="42.91581724886478" lon="13.612327510600776"><ele>394.6666666666667</ele><time>2026-05-02T09:36:28.999Z</time></trkpt><trkpt lat="42.91601003256412" lon="13.6122271930906"><ele>397.0</ele><time>2026-05-02T09:36:29.999Z</time></trkpt><trkpt lat="42.91621644885251" lon="13.612166503915129"><ele>397.0</ele><time>2026-05-02T09:36:30.999Z</time></trkpt><trkpt lat="42.916415373158024" lon="13.61211351485836"><ele>397.0</ele><time>2026-05-02T09:36:31.999Z</time></trkpt><trkpt lat="42.916588704705184" lon="13.612040713970435"><ele>397.0</ele><time>2026-05-02T09:36:32.999Z</time></trkpt><trkpt lat="42.916761316785184" lon="13.611944819289699"><ele>398.0</ele><time>2026-05-02T09:36:33.999Z</time></trkpt><trkpt lat="42.91690329993729" lon="13.611817342165113"><ele>399.0</ele><time>2026-05-02T09:36:34.999Z</time></trkpt><trkpt lat="42.91702569795436" lon="13.61164561217087"><ele>400.0</ele><time>2026-05-02T09:36:35.999Z</time></trkpt><trkpt lat="42.91713800017648" lon="13.611444314435637"><ele>400.0</ele><time>2026-05-02T09:36:36.999Z</time></trkpt><trkpt lat="42.917241397088894" lon="13.61121153661689"><ele>400.0</ele><time>2026-05-02T09:36:37.999Z</time></trkpt><trkpt lat="42.91732591983154" lon="13.610959068392326"><ele>400.0</ele><time>2026-05-02T09:36:38.999Z</time></trkpt><trkpt lat="42.917398972497935" lon="13.61068652502507"><ele>403.6666666666667</ele><time>2026-05-02T09:36:39.999Z</time></trkpt><trkpt lat="42.91746687737812" lon="13.610402766370107"><ele>407.33333333333337</ele><time>2026-05-02T09:36:40.999Z</time></trkpt><trkpt lat="42.91753646893275" lon="13.610125644534666"><ele>411.0</ele><time>2026-05-02T09:36:41.999Z</time></trkpt><trkpt lat="42.91761758364727" lon="13.609846241955074"><ele>411.33333333333337</ele><time>2026-05-02T09:36:42.999Z</time></trkpt><trkpt lat="42.91770232810054" lon="13.609569549872905"><ele>411.6666666666667</ele><time>2026-05-02T09:36:43.999Z</time></trkpt><trkpt lat="42.91777567477194" lon="13.609314926053282"><ele>412.0</ele><time>2026-05-02T09:36:44.999Z</time></trkpt><trkpt lat="42.91784533339512" lon="13.609073103693992"><ele>412.0</ele><time>2026-05-02T09:36:45.999Z</time></trkpt><trkpt lat="42.917913625065445" lon="13.60882975066653"><ele>412.0</ele><time>2026-05-02T09:36:46.999Z</time></trkpt><trkpt lat="42.917981339553506" lon="13.608583705858354"><ele>412.0</ele><time>2026-05-02T09:36:47.999Z</time></trkpt><trkpt lat="42.91805386830056" lon="13.60833576101872"><ele>412.0</ele><time>2026-05-02T09:36:48.999Z</time></trkpt><trkpt lat="42.91812112976736" lon="13.608078661646154"><ele>412.0</ele><time>2026-05-02T09:36:49.999Z</time></trkpt><trkpt lat="42.91818029855787" lon="13.607811960051135"><ele>412.0</ele><time>2026-05-02T09:36:50.999Z</time></trkpt><trkpt lat="42.91823922553916" lon="13.607536819695541"><ele>412.0</ele><time>2026-05-02T09:36:51.999Z</time></trkpt><trkpt lat="42.91829507069064" lon="13.607260615524359"><ele>412.0</ele><time>2026-05-02T09:36:52.999Z</time></trkpt><trkpt lat="42.91835175600461" lon="13.606978396554249"><ele>412.0</ele><time>2026-05-02T09:36:53.999Z</time></trkpt><trkpt lat="42.91840695661045" lon="13.606696830288932"><ele>409.33333333333337</ele><time>2026-05-02T09:36:55Z</time></trkpt><trkpt lat="42.918463157992754" lon="13.606417275309438"><ele>406.66666666666663</ele><time>2026-05-02T09:36:56Z</time></trkpt><trkpt lat="42.91852644071624" lon="13.606133090963214"><ele>404.0</ele><time>2026-05-02T09:36:57Z</time></trkpt><trkpt lat="42.91857373638631" lon="13.60585037163681"><ele>404.0</ele><time>2026-05-02T09:36:58Z</time></trkpt><trkpt lat="42.9186245369044" lon="13.605588501640511"><ele>404.0</ele><time>2026-05-02T09:36:59Z</time></trkpt><trkpt lat="42.91867667727052" lon="13.605344884377429"><ele>404.0</ele><time>2026-05-02T09:37:00Z</time></trkpt><trkpt lat="42.91873909741146" lon="13.605127207852208"><ele>405.3333333333333</ele><time>2026-05-02T09:37:01Z</time></trkpt><trkpt lat="42.918823644480845" lon="13.604936999902753"><ele>406.66666666666663</ele><time>2026-05-02T09:37:02Z</time></trkpt><trkpt lat="42.91893795041184" lon="13.604785305795568"><ele>408.0</ele><time>2026-05-02T09:37:03Z</time></trkpt><trkpt lat="42.91906933478128" lon="13.604660395690843"><ele>408.0</ele><time>2026-05-02T09:37:04Z</time></trkpt><trkpt lat="42.91922938265126" lon="13.604563251168909"><ele>408.0</ele><time>2026-05-02T09:37:05Z</time></trkpt><trkpt lat="42.91940150961304" lon="13.604459031824325"><ele>408.0</ele><time>2026-05-02T09:37:06Z</time></trkpt><trkpt lat="42.91958786988895" lon="13.6043419372923"><ele>408.66666666666663</ele><time>2026-05-02T09:37:07Z</time></trkpt><trkpt lat="42.91977857832519" lon="13.604216165505843"><ele>409.3333333333333</ele><time>2026-05-02T09:37:08Z</time></trkpt><trkpt lat="42.91997660061594" lon="13.604091427294684"><ele>410.0</ele><time>2026-05-02T09:37:09Z</time></trkpt><trkpt lat="42.92016650094634" lon="13.603969146269629"><ele>409.3333333333333</ele><time>2026-05-02T09:37:10Z</time></trkpt><trkpt lat="42.92033257731077" lon="13.603848035491094"><ele>408.66666666666663</ele><time>2026-05-02T09:37:11Z</time></trkpt><trkpt lat="42.92049295841029" lon="13.6037125918236"><ele>408.0</ele><time>2026-05-02T09:37:12Z</time></trkpt><trkpt lat="42.920646722840644" lon="13.603542000748583"><ele>408.0</ele><time>2026-05-02T09:37:13Z</time></trkpt><trkpt lat="42.92079831955598" lon="13.603354287601546"><ele>408.0</ele><time>2026-05-02T09:37:14Z</time></trkpt><trkpt lat="42.92094188031962" lon="13.60315909357473"><ele>408.0</ele><time>2026-05-02T09:37:15Z</time></trkpt><trkpt lat="42.92109795631332" lon="13.602970103674519"><ele>410.0</ele><time>2026-05-02T09:37:16Z</time></trkpt><trkpt lat="42.9212470352051" lon="13.602796563247926"><ele>412.0</ele><time>2026-05-02T09:37:17Z</time></trkpt><trkpt lat="42.92138353834861" lon="13.602643538516395"><ele>414.0</ele><time>2026-05-02T09:37:18Z</time></trkpt><trkpt lat="42.921502983040924" lon="13.60246483007129"><ele>414.0</ele><time>2026-05-02T09:37:19Z</time></trkpt><trkpt lat="42.92160858732887" lon="13.602245013294992"><ele>414.0</ele><time>2026-05-02T09:37:20Z</time></trkpt><trkpt lat="42.921710387537445" lon="13.602007302835469"><ele>414.0</ele><time>2026-05-02T09:37:21Z</time></trkpt><trkpt lat="42.92181611351288" lon="13.601795091145068"><ele>415.33333333333337</ele><time>2026-05-02T09:37:22Z</time></trkpt><trkpt lat="42.92193212335272" lon="13.601636026340493"><ele>416.6666666666667</ele><time>2026-05-02T09:37:23Z</time></trkpt><trkpt lat="42.92207277427214" lon="13.601513219734823"><ele>418.0</ele><time>2026-05-02T09:37:24Z</time></trkpt><trkpt lat="42.92223750339944" lon="13.601403945350954"><ele>418.0</ele><time>2026-05-02T09:37:25Z</time></trkpt><trkpt lat="42.922417978339496" lon="13.601315339482763"><ele>418.0</ele><time>2026-05-02T09:37:26Z</time></trkpt><trkpt lat="42.92261904819772" lon="13.601231369403614"><ele>418.0</ele><time>2026-05-02T09:37:27Z</time></trkpt><trkpt lat="42.92278952634604" lon="13.60113481286004"><ele>424.0</ele><time>2026-05-02T09:37:28Z</time></trkpt><trkpt lat="42.92296003640709" lon="13.601037074136274"><ele>430.0</ele><time>2026-05-02T09:37:29Z</time></trkpt><trkpt lat="42.923130072284245" lon="13.600924317278121"><ele>436.0</ele><time>2026-05-02T09:37:30Z</time></trkpt><trkpt lat="42.9232889187933" lon="13.600801327807993"><ele>434.0</ele><time>2026-05-02T09:37:31Z</time></trkpt><trkpt lat="42.923448514738055" lon="13.600693223042912"><ele>432.0</ele><time>2026-05-02T09:37:32Z</time></trkpt><trkpt lat="42.92360633893937" lon="13.60058924665913"><ele>430.0</ele><time>2026-05-02T09:37:33Z</time></trkpt><trkpt lat="42.92375788512175" lon="13.600484774790496"><ele>430.0</ele><time>2026-05-02T09:37:34Z</time></trkpt><trkpt lat="42.923907360937896" lon="13.600374539819876"><ele>430.0</ele><time>2026-05-02T09:37:35Z</time></trkpt><trkpt lat="42.92405085454907" lon="13.60026935511856"><ele>430.0</ele><time>2026-05-02T09:37:36Z</time></trkpt><trkpt lat="42.92419088546025" lon="13.600169434941353"><ele>430.75</ele><time>2026-05-02T09:37:37Z</time></trkpt><trkpt lat="42.92431896243427" lon="13.600075352365979"><ele>431.5</ele><time>2026-05-02T09:37:38Z</time></trkpt><trkpt lat="42.924421385326845" lon="13.599984663378992"><ele>432.25</ele><time>2026-05-02T09:37:39Z</time></trkpt><trkpt lat="42.92451698539522" lon="13.599872958967877"><ele>433.0</ele><time>2026-05-02T09:37:40Z</time></trkpt><trkpt lat="42.92460573079707" lon="13.5997288770202"><ele>433.0</ele><time>2026-05-02T09:37:41Z</time></trkpt><trkpt lat="42.92469090541815" lon="13.599558293651294"><ele>433.0</ele><time>2026-05-02T09:37:42Z</time></trkpt><trkpt lat="42.92480156439037" lon="13.599395763108674"><ele>433.0</ele><time>2026-05-02T09:37:43Z</time></trkpt><trkpt lat="42.92490176955412" lon="13.5992150978987"><ele>434.0</ele><time>2026-05-02T09:37:44Z</time></trkpt><trkpt lat="42.92500810767246" lon="13.599032892988483"><ele>435.0</ele><time>2026-05-02T09:37:45Z</time></trkpt><trkpt lat="42.925117326528095" lon="13.598884903906812"><ele>436.0</ele><time>2026-05-02T09:37:46Z</time></trkpt><trkpt lat="42.925246730908064" lon="13.5987569455551"><ele>441.33333333333337</ele><time>2026-05-02T09:37:47Z</time></trkpt><trkpt lat="42.925399685761235" lon="13.598651094705874"><ele>446.66666666666663</ele><time>2026-05-02T09:37:48Z</time></trkpt><trkpt lat="42.925561363168626" lon="13.598550495434907"><ele>452.0</ele><time>2026-05-02T09:37:49Z</time></trkpt><trkpt lat="42.925721925881994" lon="13.598428065847878"><ele>452.0</ele><time>2026-05-02T09:37:50Z</time></trkpt><trkpt lat="42.925880169800486" lon="13.598333359956332"><ele>452.0</ele><time>2026-05-02T09:37:51Z</time></trkpt><trkpt lat="42.926008123475846" lon="13.59825297956433"><ele>452.0</ele><time>2026-05-02T09:37:52Z</time></trkpt><trkpt lat="42.926093972757" lon="13.59818119187373"><ele>452.0</ele><time>2026-05-02T09:37:53Z</time></trkpt><trkpt lat="42.92614915552769" lon="13.598086376516667"><ele>450.20000000000005</ele><time>2026-05-02T09:37:54Z</time></trkpt><trkpt lat="42.92619544635908" lon="13.59797275447954"><ele>448.40000000000003</ele><time>2026-05-02T09:37:55Z</time></trkpt><trkpt lat="42.926258697295765" lon="13.597859263844986"><ele>446.59999999999997</ele><time>2026-05-02T09:37:56Z</time></trkpt><trkpt lat="42.92630210214446" lon="13.597710133298303"><ele>444.79999999999995</ele><time>2026-05-02T09:37:57Z</time></trkpt><trkpt lat="42.92635676926367" lon="13.597551529340155"><ele>443.0</ele><time>2026-05-02T09:37:58Z</time></trkpt><trkpt lat="42.926395732718596" lon="13.597371794595919"><ele>443.0</ele><time>2026-05-02T09:37:59Z</time></trkpt><trkpt lat="42.92641482379833" lon="13.597178836498896"><ele>443.0</ele><time>2026-05-02T09:38:00Z</time></trkpt><trkpt lat="42.926407028087176" lon="13.596979545749473"><ele>443.0</ele><time>2026-05-02T09:38:01Z</time></trkpt><trkpt lat="42.92637720837831" lon="13.59676522953629"><ele>443.0</ele><time>2026-05-02T09:38:02Z</time></trkpt><trkpt lat="42.92633158859726" lon="13.59652909595777"><ele>443.0</ele><time>2026-05-02T09:38:03Z</time></trkpt><trkpt lat="42.92628682001607" lon="13.596274088189984"><ele>443.0</ele><time>2026-05-02T09:38:04Z</time></trkpt><trkpt lat="42.9262510174089" lon="13.596033846360568"><ele>443.0</ele><time>2026-05-02T09:38:05Z</time></trkpt><trkpt lat="42.92622463897277" lon="13.595825622692583"><ele>445.0</ele><time>2026-05-02T09:38:06Z</time></trkpt><trkpt lat="42.9262345580949" lon="13.595629329487153"><ele>447.0</ele><time>2026-05-02T09:38:07Z</time></trkpt><trkpt lat="42.926270879342084" lon="13.595436546032357"><ele>449.0</ele><time>2026-05-02T09:38:08Z</time></trkpt><trkpt lat="42.92632263006857" lon="13.595225835608353"><ele>451.66666666666663</ele><time>2026-05-02T09:38:09Z</time></trkpt><trkpt lat="42.926407177803085" lon="13.595015817659235"><ele>454.33333333333337</ele><time>2026-05-02T09:38:10Z</time></trkpt><trkpt lat="42.92648612359541" lon="13.594793226799602"><ele>457.0</ele><time>2026-05-02T09:38:11Z</time></trkpt><trkpt lat="42.92658627900937" lon="13.59459160298217"><ele>456.5</ele><time>2026-05-02T09:38:12Z</time></trkpt><trkpt lat="42.92666741474179" lon="13.594402673030283"><ele>456.0</ele><time>2026-05-02T09:38:13Z</time></trkpt><trkpt lat="42.926714600919695" lon="13.594225155714923"><ele>455.5</ele><time>2026-05-02T09:38:14Z</time></trkpt><trkpt lat="42.92673690299934" lon="13.594023162884922"><ele>455.0</ele><time>2026-05-02T09:38:15Z</time></trkpt><trkpt lat="42.92673958112624" lon="13.593816845137978"><ele>459.25</ele><time>2026-05-02T09:38:16Z</time></trkpt><trkpt lat="42.926786692069726" lon="13.59363087402509"><ele>463.5</ele><time>2026-05-02T09:38:17Z</time></trkpt><trkpt lat="42.926846012885555" lon="13.5934841463761"><ele>467.75</ele><time>2026-05-02T09:38:18Z</time></trkpt><trkpt lat="42.92693864213656" lon="13.593363323242468"><ele>472.0</ele><time>2026-05-02T09:38:19Z</time></trkpt><trkpt lat="42.92705039562482" lon="13.593250000824966"><ele>472.0</ele><time>2026-05-02T09:38:20Z</time></trkpt><trkpt lat="42.927175841698606" lon="13.593196355977343"><ele>472.0</ele><time>2026-05-02T09:38:21Z</time></trkpt><trkpt lat="42.927296719045636" lon="13.59316467365419"><ele>472.0</ele><time>2026-05-02T09:38:22Z</time></trkpt><trkpt lat="42.92742922745911" lon="13.59315199377477"><ele>472.0</ele><time>2026-05-02T09:38:23Z</time></trkpt><trkpt lat="42.927566052109015" lon="13.593178468710704"><ele>473.6666666666667</ele><time>2026-05-02T09:38:24Z</time></trkpt><trkpt lat="42.92770480276763" lon="13.593245072130218"><ele>475.33333333333337</ele><time>2026-05-02T09:38:25Z</time></trkpt><trkpt lat="42.927851134159035" lon="13.59333425573096"><ele>477.0</ele><time>2026-05-02T09:38:26Z</time></trkpt><trkpt lat="42.9280075389181" lon="13.593407738729923"><ele>477.0</ele><time>2026-05-02T09:38:27Z</time></trkpt><trkpt lat="42.92816370904685" lon="13.59343809455611"><ele>477.0</ele><time>2026-05-02T09:38:28Z</time></trkpt><trkpt lat="42.92833192698824" lon="13.593440940397612"><ele>477.0</ele><time>2026-05-02T09:38:29Z</time></trkpt><trkpt lat="42.928508102399505" lon="13.593417956373901"><ele>480.66666666666663</ele><time>2026-05-02T09:38:30Z</time></trkpt><trkpt lat="42.928691121614506" lon="13.59340645737414"><ele>484.3333333333333</ele><time>2026-05-02T09:38:31Z</time></trkpt><trkpt lat="42.92886515935835" lon="13.59342538879228"><ele>488.0</ele><time>2026-05-02T09:38:32Z</time></trkpt><trkpt lat="42.92900916947428" lon="13.593474076352708"><ele>488.0</ele><time>2026-05-02T09:38:33Z</time></trkpt><trkpt lat="42.92912361835387" lon="13.593560683393994"><ele>488.0</ele><time>2026-05-02T09:38:33.999Z</time></trkpt><trkpt lat="42.9292229315514" lon="13.593682306030328"><ele>488.0</ele><time>2026-05-02T09:38:34.999Z</time></trkpt><trkpt lat="42.92931271789424" lon="13.593792358486697"><ele>488.0</ele><time>2026-05-02T09:38:35.999Z</time></trkpt><trkpt lat="42.92940246756513" lon="13.5938577134251"><ele>484.25</ele><time>2026-05-02T09:38:36.999Z</time></trkpt><trkpt lat="42.929503285343735" lon="13.593877209395634"><ele>480.5</ele><time>2026-05-02T09:38:37.999Z</time></trkpt><trkpt lat="42.92961578610656" lon="13.593858397114474"><ele>476.75</ele><time>2026-05-02T09:38:38.999Z</time></trkpt><trkpt lat="42.92974113900108" lon="13.593813660555165"><ele>473.0</ele><time>2026-05-02T09:38:39.999Z</time></trkpt><trkpt lat="42.92987056158269" lon="13.593752852704279"><ele>472.25</ele><time>2026-05-02T09:38:40.999Z</time></trkpt><trkpt lat="42.93000740563572" lon="13.593667746045325"><ele>471.5</ele><time>2026-05-02T09:38:41.999Z</time></trkpt><trkpt lat="42.93014348891388" lon="13.593576601518988"><ele>470.75</ele><time>2026-05-02T09:38:42.999Z</time></trkpt><trkpt lat="42.93026349424577" lon="13.593481007503128"><ele>470.0</ele><time>2026-05-02T09:38:43.999Z</time></trkpt><trkpt lat="42.93037578646425" lon="13.59336327519045"><ele>470.0</ele><time>2026-05-02T09:38:44.999Z</time></trkpt><trkpt lat="42.93046605704008" lon="13.593228903267699"><ele>470.0</ele><time>2026-05-02T09:38:45.999Z</time></trkpt><trkpt lat="42.93054874905212" lon="13.593089583621301"><ele>470.0</ele><time>2026-05-02T09:38:46.999Z</time></trkpt><trkpt lat="42.930637850390355" lon="13.592955344613795"><ele>470.0</ele><time>2026-05-02T09:38:47.999Z</time></trkpt><trkpt lat="42.93073841910696" lon="13.592835415749366"><ele>468.75</ele><time>2026-05-02T09:38:48.999Z</time></trkpt><trkpt lat="42.930858249942006" lon="13.592762862796672"><ele>467.5</ele><time>2026-05-02T09:38:49.999Z</time></trkpt><trkpt lat="42.93097221183902" lon="13.592688853688891"><ele>466.25</ele><time>2026-05-02T09:38:50.999Z</time></trkpt><trkpt lat="42.93108340388465" lon="13.592610610148833"><ele>465.0</ele><time>2026-05-02T09:38:51.999Z</time></trkpt><trkpt lat="42.93119800374573" lon="13.592561961693605"><ele>465.0</ele><time>2026-05-02T09:38:52.999Z</time></trkpt><trkpt lat="42.931303317431976" lon="13.59249704363701"><ele>465.0</ele><time>2026-05-02T09:38:53.999Z</time></trkpt><trkpt lat="42.93139421196493" lon="13.592400366937936"><ele>465.0</ele><time>2026-05-02T09:38:54.999Z</time></trkpt><trkpt lat="42.93146676530857" lon="13.592281660470032"><ele>465.0</ele><time>2026-05-02T09:38:55.999Z</time></trkpt><trkpt lat="42.9315138747615" lon="13.592116390131535"><ele>464.75</ele><time>2026-05-02T09:38:56.999Z</time></trkpt><trkpt lat="42.9315305513314" lon="13.591941371846666"><ele>464.5</ele><time>2026-05-02T09:38:57.999Z</time></trkpt><trkpt lat="42.93152153430503" lon="13.591783666067759"><ele>464.25</ele><time>2026-05-02T09:38:58.999Z</time></trkpt><trkpt lat="42.93146900639456" lon="13.591628964638124"><ele>464.0</ele><time>2026-05-02T09:38:59.999Z</time></trkpt><trkpt lat="42.93138369808448" lon="13.591497127887441"><ele>464.0</ele><time>2026-05-02T09:39:01.001Z</time></trkpt><trkpt lat="42.931278520439555" lon="13.591394940118239"><ele>464.0</ele><time>2026-05-02T09:39:02.001Z</time></trkpt><trkpt lat="42.93117161181371" lon="13.591289943857543"><ele>464.0</ele><time>2026-05-02T09:39:03.001Z</time></trkpt><trkpt lat="42.93108097569729" lon="13.591178451563435"><ele>464.0</ele><time>2026-05-02T09:39:04.001Z</time></trkpt><trkpt lat="42.931008625307925" lon="13.591060260451592"><ele>460.25</ele><time>2026-05-02T09:39:05.001Z</time></trkpt><trkpt lat="42.93096548916322" lon="13.590926971064814"><ele>456.5</ele><time>2026-05-02T09:39:06.001Z</time></trkpt><trkpt lat="42.930953178689926" lon="13.59076383731185"><ele>452.75</ele><time>2026-05-02T09:39:07.001Z</time></trkpt><trkpt lat="42.93097840916793" lon="13.590569358669217"><ele>449.0</ele><time>2026-05-02T09:39:08.001Z</time></trkpt><trkpt lat="42.93101814734897" lon="13.590373977613757"><ele>448.0</ele><time>2026-05-02T09:39:09.001Z</time></trkpt><trkpt lat="42.93105789902468" lon="13.590167670267315"><ele>447.0</ele><time>2026-05-02T09:39:10.001Z</time></trkpt><trkpt lat="42.9310754535653" lon="13.589975672026151"><ele>446.0</ele><time>2026-05-02T09:39:11.001Z</time></trkpt><trkpt lat="42.93107559160913" lon="13.589796495760966"><ele>445.0</ele><time>2026-05-02T09:39:12.001Z</time></trkpt><trkpt lat="42.931048483160744" lon="13.589609338479429"><ele>444.0</ele><time>2026-05-02T09:39:13.001Z</time></trkpt><trkpt lat="42.93098953775202" lon="13.589429844146759"><ele>443.0</ele><time>2026-05-02T09:39:14.001Z</time></trkpt><trkpt lat="42.93090596891134" lon="13.589258654238519"><ele>442.0</ele><time>2026-05-02T09:39:15.001Z</time></trkpt><trkpt lat="42.93081508826785" lon="13.589084623660911"><ele>446.5</ele><time>2026-05-02T09:39:16.001Z</time></trkpt><trkpt lat="42.93073570428674" lon="13.588891698056619"><ele>451.0</ele><time>2026-05-02T09:39:17.001Z</time></trkpt><trkpt lat="42.93068296230886" lon="13.588728247838018"><ele>455.5</ele><time>2026-05-02T09:39:18.001Z</time></trkpt><trkpt lat="42.93066397065845" lon="13.5885969508974"><ele>460.0</ele><time>2026-05-02T09:39:19.001Z</time></trkpt><trkpt lat="42.9306869133188" lon="13.588454489790083"><ele>460.0</ele><time>2026-05-02T09:39:20.001Z</time></trkpt><trkpt lat="42.93071889116686" lon="13.588273854334686"><ele>460.0</ele><time>2026-05-02T09:39:21.001Z</time></trkpt><trkpt lat="42.930749762716225" lon="13.58806219506357"><ele>460.0</ele><time>2026-05-02T09:39:22.001Z</time></trkpt><trkpt lat="42.930784887221414" lon="13.587835002906566"><ele>459.6666666666667</ele><time>2026-05-02T09:39:23.001Z</time></trkpt><trkpt lat="42.9308163656222" lon="13.58759922409434"><ele>459.33333333333337</ele><time>2026-05-02T09:39:24Z</time></trkpt><trkpt lat="42.930830726842196" lon="13.587366796176157"><ele>459.0</ele><time>2026-05-02T09:39:25Z</time></trkpt><trkpt lat="42.93081659323216" lon="13.587153604356395"><ele>458.0</ele><time>2026-05-02T09:39:26Z</time></trkpt><trkpt lat="42.93077607067404" lon="13.58693842244464"><ele>457.0</ele><time>2026-05-02T09:39:27Z</time></trkpt><trkpt lat="42.9307216366759" lon="13.586720000001254"><ele>456.0</ele><time>2026-05-02T09:39:28Z</time></trkpt><trkpt lat="42.93067896576183" lon="13.586524319343237"><ele>456.0</ele><time>2026-05-02T09:39:29Z</time></trkpt><trkpt lat="42.930687451753876" lon="13.586348847639748"><ele>456.0</ele><time>2026-05-02T09:39:30Z</time></trkpt><trkpt lat="42.93071139945497" lon="13.586187135640051"><ele>456.0</ele><time>2026-05-02T09:39:31Z</time></trkpt><trkpt lat="42.93078517770047" lon="13.586042280111158"><ele>456.0</ele><time>2026-05-02T09:39:32Z</time></trkpt><trkpt lat="42.93086792200773" lon="13.585885711982597"><ele>458.75</ele><time>2026-05-02T09:39:33Z</time></trkpt><trkpt lat="42.93093708450407" lon="13.585745106785929"><ele>461.5</ele><time>2026-05-02T09:39:34Z</time></trkpt><trkpt lat="42.93104143990805" lon="13.585668369395277"><ele>464.25</ele><time>2026-05-02T09:39:35Z</time></trkpt><trkpt lat="42.93115340184907" lon="13.585594381808821"><ele>467.0</ele><time>2026-05-02T09:39:36Z</time></trkpt><trkpt lat="42.93129452890124" lon="13.585601783826892"><ele>467.0</ele><time>2026-05-02T09:39:36.999Z</time></trkpt><trkpt lat="42.93143501790032" lon="13.585658728701798"><ele>467.0</ele><time>2026-05-02T09:39:37.999Z</time></trkpt><trkpt lat="42.93157575404426" lon="13.585765543847566"><ele>467.0</ele><time>2026-05-02T09:39:38.999Z</time></trkpt><trkpt lat="42.93171672864792" lon="13.585894278599582"><ele>471.3333333333333</ele><time>2026-05-02T09:39:39.999Z</time></trkpt><trkpt lat="42.93186817213191" lon="13.586003515155461"><ele>475.66666666666663</ele><time>2026-05-02T09:39:40.999Z</time></trkpt><trkpt lat="42.93204667926445" lon="13.58607914071243"><ele>480.0</ele><time>2026-05-02T09:39:41.999Z</time></trkpt><trkpt lat="42.93223043035459" lon="13.586129465266241"><ele>480.0</ele><time>2026-05-02T09:39:42.999Z</time></trkpt><trkpt lat="42.932420473501146" lon="13.586174086692127"><ele>480.0</ele><time>2026-05-02T09:39:43.999Z</time></trkpt><trkpt lat="42.932618914393174" lon="13.58623144376023"><ele>480.0</ele><time>2026-05-02T09:39:44.999Z</time></trkpt><trkpt lat="42.93281032252711" lon="13.58629687236588"><ele>475.75</ele><time>2026-05-02T09:39:45.999Z</time></trkpt><trkpt lat="42.9329696977703" lon="13.586357996582516"><ele>471.5</ele><time>2026-05-02T09:39:46.999Z</time></trkpt><trkpt lat="42.93310054258851" lon="13.586406938283766"><ele>467.25</ele><time>2026-05-02T09:39:47.999Z</time></trkpt><trkpt lat="42.93322593581215" lon="13.586411013650165"><ele>463.0</ele><time>2026-05-02T09:39:48.999Z</time></trkpt><trkpt lat="42.93336455515462" lon="13.586360966406106"><ele>465.6666666666667</ele><time>2026-05-02T09:39:49.999Z</time></trkpt><trkpt lat="42.93350790736725" lon="13.586268070349773"><ele>468.33333333333337</ele><time>2026-05-02T09:39:50.999Z</time></trkpt><trkpt lat="42.933647778367565" lon="13.58615469943546"><ele>471.0</ele><time>2026-05-02T09:39:51.999Z</time></trkpt><trkpt lat="42.933777460165956" lon="13.586061161089217"><ele>476.0</ele><time>2026-05-02T09:39:52.999Z</time></trkpt><trkpt lat="42.933894120692855" lon="13.586013027825768"><ele>481.0</ele><time>2026-05-02T09:39:53.999Z</time></trkpt><trkpt lat="42.93401520992264" lon="13.586017941128313"><ele>486.0</ele><time>2026-05-02T09:39:54.999Z</time></trkpt><trkpt lat="42.934131265514345" lon="13.586070086424145"><ele>491.0</ele><time>2026-05-02T09:39:55.999Z</time></trkpt><trkpt lat="42.93423220301071" lon="13.586186001134275"><ele>491.0</ele><time>2026-05-02T09:39:56.999Z</time></trkpt><trkpt lat="42.93430181891967" lon="13.586355362324205"><ele>491.0</ele><time>2026-05-02T09:39:57.999Z</time></trkpt><trkpt lat="42.93439413949194" lon="13.586529984695446"><ele>491.0</ele><time>2026-05-02T09:39:58.999Z</time></trkpt><trkpt lat="42.9344655647226" lon="13.586698719329492"><ele>491.0</ele><time>2026-05-02T09:39:59.999Z</time></trkpt><trkpt lat="42.934544197712725" lon="13.586813546856042"><ele>491.0</ele><time>2026-05-02T09:40:00.999Z</time></trkpt><trkpt lat="42.93465091717621" lon="13.586886957235205"><ele>491.0</ele><time>2026-05-02T09:40:01.999Z</time></trkpt><trkpt lat="42.93479753606465" lon="13.586905722974304"><ele>491.0</ele><time>2026-05-02T09:40:02.999Z</time></trkpt><trkpt lat="42.93496338349181" lon="13.586901085794135"><ele>491.0</ele><time>2026-05-02T09:40:03.999Z</time></trkpt><trkpt lat="42.93513475688441" lon="13.586903262585011"><ele>491.3333333333333</ele><time>2026-05-02T09:40:04.999Z</time></trkpt><trkpt lat="42.93530229562448" lon="13.586917290898961"><ele>491.66666666666663</ele><time>2026-05-02T09:40:05.999Z</time></trkpt><trkpt lat="42.935441385695576" lon="13.586950470490441"><ele>492.0</ele><time>2026-05-02T09:40:06.999Z</time></trkpt><trkpt lat="42.935564784785576" lon="13.587059202649659"><ele>488.33333333333337</ele><time>2026-05-02T09:40:07.999Z</time></trkpt><trkpt lat="42.93570432648197" lon="13.587170735401903"><ele>484.6666666666667</ele><time>2026-05-02T09:40:08.999Z</time></trkpt><trkpt lat="42.93584873917435" lon="13.587314279257285"><ele>481.0</ele><time>2026-05-02T09:40:09.999Z</time></trkpt><trkpt lat="42.93601384189364" lon="13.587423010724082"><ele>481.0</ele><time>2026-05-02T09:40:10.999Z</time></trkpt><trkpt lat="42.93617035427998" lon="13.587501768844007"><ele>481.0</ele><time>2026-05-02T09:40:11.999Z</time></trkpt><trkpt lat="42.93634494911806" lon="13.587561585424496"><ele>481.0</ele><time>2026-05-02T09:40:12.999Z</time></trkpt><trkpt lat="42.936530999714414" lon="13.587601450976289"><ele>481.0</ele><time>2026-05-02T09:40:13.999Z</time></trkpt><trkpt lat="42.93672728069782" lon="13.587617873579124"><ele>481.0</ele><time>2026-05-02T09:40:14.999Z</time></trkpt><trkpt lat="42.93690474369804" lon="13.58761675915335"><ele>481.0</ele><time>2026-05-02T09:40:15.999Z</time></trkpt><trkpt lat="42.937060809351536" lon="13.587614368740372"><ele>481.0</ele><time>2026-05-02T09:40:16.999Z</time></trkpt><trkpt lat="42.93720356689051" lon="13.587620446344038"><ele>481.0</ele><time>2026-05-02T09:40:17.999Z</time></trkpt><trkpt lat="42.937328340697874" lon="13.587626738113752"><ele>481.0</ele><time>2026-05-02T09:40:18.999Z</time></trkpt><trkpt lat="42.93743555015861" lon="13.587631984933049"><ele>481.0</ele><time>2026-05-02T09:40:19.999Z</time></trkpt><trkpt lat="42.93752436990752" lon="13.587638449323817"><ele>481.0</ele><time>2026-05-02T09:40:20.999Z</time></trkpt><trkpt lat="42.93763012299229" lon="13.587642526804043"><ele>481.0</ele><time>2026-05-02T09:40:22.999Z</time></trkpt><trkpt lat="42.937703656360746" lon="13.587634367752695"><ele>481.0</ele><time>2026-05-02T09:40:25.999Z</time></trkpt><trkpt lat="42.93766015784884" lon="13.587457871024826"><ele>481.0</ele><time>2026-05-02T09:40:27.999Z</time></trkpt><trkpt lat="42.93758114892398" lon="13.5874163271119"><ele>481.0</ele><time>2026-05-02T09:40:28.999Z</time></trkpt><trkpt lat="42.937498616556354" lon="13.58733772615409"><ele>481.0</ele><time>2026-05-02T09:40:29.999Z</time></trkpt><trkpt lat="42.93739719444412" lon="13.58726302129099"><ele>481.0</ele><time>2026-05-02T09:40:30.999Z</time></trkpt><trkpt lat="42.93728965572399" lon="13.587177270098262"><ele>481.0</ele><time>2026-05-02T09:40:31.999Z</time></trkpt><trkpt lat="42.937160734894654" lon="13.587067712913745"><ele>481.0</ele><time>2026-05-02T09:40:32.999Z</time></trkpt><trkpt lat="42.93703482460021" lon="13.586960773581392"><ele>480.75</ele><time>2026-05-02T09:40:33.999Z</time></trkpt><trkpt lat="42.93692789696656" lon="13.586871758553208"><ele>480.5</ele><time>2026-05-02T09:40:34.999Z</time></trkpt><trkpt lat="42.93680938951298" lon="13.586783795549877"><ele>480.25</ele><time>2026-05-02T09:40:35.999Z</time></trkpt><trkpt lat="42.93672986234909" lon="13.586623983314043"><ele>480.0</ele><time>2026-05-02T09:40:36.999Z</time></trkpt><trkpt lat="42.93665528027626" lon="13.586452990503522"><ele>482.33333333333337</ele><time>2026-05-02T09:40:37.999Z</time></trkpt><trkpt lat="42.936594225473335" lon="13.58626022620389"><ele>484.6666666666667</ele><time>2026-05-02T09:40:38.999Z</time></trkpt><trkpt lat="42.936526332634905" lon="13.586058696992428"><ele>487.0</ele><time>2026-05-02T09:40:39.999Z</time></trkpt><trkpt lat="42.93644557522844" lon="13.585863972825882"><ele>487.20000000000005</ele><time>2026-05-02T09:40:40.999Z</time></trkpt><trkpt lat="42.936378387291285" lon="13.58567921072018"><ele>487.40000000000003</ele><time>2026-05-02T09:40:41.999Z</time></trkpt><trkpt lat="42.936319837934" lon="13.585530800261848"><ele>487.59999999999997</ele><time>2026-05-02T09:40:42.999Z</time></trkpt><trkpt lat="42.93627423920342" lon="13.585434132287917"><ele>487.79999999999995</ele><time>2026-05-02T09:40:43.999Z</time></trkpt><trkpt lat="42.93621050338653" lon="13.585373651266547"><ele>488.0</ele><time>2026-05-02T09:40:44.999Z</time></trkpt><trkpt lat="42.936140406985" lon="13.585332718822396"><ele>488.0</ele><time>2026-05-02T09:40:45.999Z</time></trkpt><trkpt lat="42.93603405904209" lon="13.585440834270493"><ele>488.0</ele><time>2026-05-02T09:40:46.999Z</time></trkpt><trkpt lat="42.935935525632416" lon="13.585544399355873"><ele>488.0</ele><time>2026-05-02T09:40:47.999Z</time></trkpt><trkpt lat="42.93582326444625" lon="13.58566433506428"><ele>488.0</ele><time>2026-05-02T09:40:48.998Z</time></trkpt><trkpt lat="42.9357030852992" lon="13.585792247059597"><ele>491.0</ele><time>2026-05-02T09:40:49.998Z</time></trkpt><trkpt lat="42.9355903916904" lon="13.585919761421591"><ele>494.0</ele><time>2026-05-02T09:40:50.998Z</time></trkpt><trkpt lat="42.935472030603655" lon="13.585998905287958"><ele>497.0</ele><time>2026-05-02T09:40:51.998Z</time></trkpt><trkpt lat="42.935374990362995" lon="13.586057010819182"><ele>500.0</ele><time>2026-05-02T09:40:52.998Z</time></trkpt><trkpt lat="42.93529821840069" lon="13.586070709749853"><ele>500.0</ele><time>2026-05-02T09:40:53.998Z</time></trkpt><trkpt lat="42.93525390794134" lon="13.585996215790303"><ele>500.0</ele><time>2026-05-02T09:40:54.998Z</time></trkpt><trkpt lat="42.93523061354791" lon="13.585826427889572"><ele>500.0</ele><time>2026-05-02T09:40:56.998Z</time></trkpt><trkpt lat="42.935271707359696" lon="13.585687390804527"><ele>500.0</ele><time>2026-05-02T09:40:57.998Z</time></trkpt><trkpt lat="42.935320202383686" lon="13.585532533113176"><ele>500.0</ele><time>2026-05-02T09:40:58.998Z</time></trkpt><trkpt lat="42.93534604253368" lon="13.58537586515066"><ele>499.8</ele><time>2026-05-02T09:40:59.998Z</time></trkpt><trkpt lat="42.935336539393234" lon="13.585230739358524"><ele>499.6</ele><time>2026-05-02T09:41:00.998Z</time></trkpt><trkpt lat="42.93529084029275" lon="13.585107401422148"><ele>499.4</ele><time>2026-05-02T09:41:01.998Z</time></trkpt><trkpt lat="42.935224972411035" lon="13.585029030617461"><ele>499.2</ele><time>2026-05-02T09:41:02.998Z</time></trkpt><trkpt lat="42.935143214763045" lon="13.584998345517572"><ele>499.0</ele><time>2026-05-02T09:41:03.998Z</time></trkpt><trkpt lat="42.935059412304255" lon="13.585007336796151"><ele>501.50000000000006</ele><time>2026-05-02T09:41:04.998Z</time></trkpt><trkpt lat="42.934985185275856" lon="13.585102283962156"><ele>504.0</ele><time>2026-05-02T09:41:05.998Z</time></trkpt><trkpt lat="42.934921414238154" lon="13.585207307730002"><ele>506.5</ele><time>2026-05-02T09:41:07Z</time></trkpt><trkpt lat="42.934836780579964" lon="13.585277346393651"><ele>509.0</ele><time>2026-05-02T09:41:08Z</time></trkpt><trkpt lat="42.934766272067215" lon="13.585287565089512"><ele>511.50000000000006</ele><time>2026-05-02T09:41:09Z</time></trkpt><trkpt lat="42.93470656668615" lon="13.585228306214589"><ele>514.0</ele><time>2026-05-02T09:41:10Z</time></trkpt><trkpt lat="42.93466643976777" lon="13.585129324337434"><ele>514.0</ele><time>2026-05-02T09:41:11Z</time></trkpt><trkpt lat="42.934650726200935" lon="13.584979462720842"><ele>514.0</ele><time>2026-05-02T09:41:12Z</time></trkpt><trkpt lat="42.93461094283031" lon="13.584806892122135"><ele>514.0</ele><time>2026-05-02T09:41:13Z</time></trkpt><trkpt lat="42.9345956519337" lon="13.584613880195407"><ele>514.0</ele><time>2026-05-02T09:41:14Z</time></trkpt><trkpt lat="42.9345751228403" lon="13.584435970579117"><ele>514.6</ele><time>2026-05-02T09:41:15Z</time></trkpt><trkpt lat="42.934558182914586" lon="13.584290759766759"><ele>515.2</ele><time>2026-05-02T09:41:16Z</time></trkpt><trkpt lat="42.93453429114786" lon="13.58416611674423"><ele>515.8000000000001</ele><time>2026-05-02T09:41:17Z</time></trkpt><trkpt lat="42.9344790844344" lon="13.584053795010655"><ele>516.4</ele><time>2026-05-02T09:41:18Z</time></trkpt><trkpt lat="42.93439019983705" lon="13.583968348792572"><ele>517.0</ele><time>2026-05-02T09:41:19Z</time></trkpt><trkpt lat="42.934271440072436" lon="13.583913294011005"><ele>519.5</ele><time>2026-05-02T09:41:20Z</time></trkpt><trkpt lat="42.93413401309227" lon="13.583877989452295"><ele>522.0</ele><time>2026-05-02T09:41:21Z</time></trkpt><trkpt lat="42.93398925248828" lon="13.583809463667196"><ele>524.5</ele><time>2026-05-02T09:41:22Z</time></trkpt><trkpt lat="42.93384265555974" lon="13.583736893650082"><ele>527.0</ele><time>2026-05-02T09:41:23Z</time></trkpt><trkpt lat="42.93369096916931" lon="13.583643545704494"><ele>532.0</ele><time>2026-05-02T09:41:24Z</time></trkpt><trkpt lat="42.93352878526784" lon="13.583537265118046"><ele>537.0</ele><time>2026-05-02T09:41:25Z</time></trkpt><trkpt lat="42.93335473768121" lon="13.583423210326073"><ele>542.0</ele><time>2026-05-02T09:41:26Z</time></trkpt><trkpt lat="42.93319218365377" lon="13.583309547556318"><ele>544.3333333333333</ele><time>2026-05-02T09:41:27Z</time></trkpt><trkpt lat="42.9330368639079" lon="13.583193379796866"><ele>546.6666666666666</ele><time>2026-05-02T09:41:28Z</time></trkpt><trkpt lat="42.932886059862305" lon="13.583110486614425"><ele>549.0</ele><time>2026-05-02T09:41:29Z</time></trkpt><trkpt lat="42.93276063674944" lon="13.583034473282295"><ele>549.0</ele><time>2026-05-02T09:41:30Z</time></trkpt><trkpt lat="42.932634918927114" lon="13.5829942184946"><ele>549.0</ele><time>2026-05-02T09:41:31Z</time></trkpt><trkpt lat="42.93249887452144" lon="13.583004127645001"><ele>549.0</ele><time>2026-05-02T09:41:32Z</time></trkpt><trkpt lat="42.93236358552987" lon="13.583040539948634"><ele>549.0</ele><time>2026-05-02T09:41:33Z</time></trkpt><trkpt lat="42.93224939188689" lon="13.58303673691049"><ele>550.25</ele><time>2026-05-02T09:41:34Z</time></trkpt><trkpt lat="42.932154565346345" lon="13.582997872003434"><ele>551.5</ele><time>2026-05-02T09:41:35Z</time></trkpt><trkpt lat="42.93203597644923" lon="13.582937822377115"><ele>552.75</ele><time>2026-05-02T09:41:36Z</time></trkpt><trkpt lat="42.93192362467934" lon="13.582811556490125"><ele>554.0</ele><time>2026-05-02T09:41:37Z</time></trkpt><trkpt lat="42.93179928084389" lon="13.582682558656181"><ele>562.0</ele><time>2026-05-02T09:41:38Z</time></trkpt><trkpt lat="42.93167297143831" lon="13.582537805982847"><ele>570.0</ele><time>2026-05-02T09:41:38.999Z</time></trkpt><trkpt lat="42.93152847923644" lon="13.582419607660826"><ele>578.0</ele><time>2026-05-02T09:41:39.999Z</time></trkpt><trkpt lat="42.93141164744881" lon="13.582316082829186"><ele>578.0</ele><time>2026-05-02T09:41:40.999Z</time></trkpt><trkpt lat="42.931333787415454" lon="13.582219049717292"><ele>578.0</ele><time>2026-05-02T09:41:41.999Z</time></trkpt><trkpt lat="42.93127855685173" lon="13.582153372285008"><ele>578.0</ele><time>2026-05-02T09:41:42.999Z</time></trkpt><trkpt lat="42.93124112190999" lon="13.58201890148977"><ele>578.0</ele><time>2026-05-02T09:41:44.999Z</time></trkpt><trkpt lat="42.931298215062746" lon="13.581944640765636"><ele>578.0</ele><time>2026-05-02T09:41:45.999Z</time></trkpt><trkpt lat="42.93138171942581" lon="13.581921168141685"><ele>578.0</ele><time>2026-05-02T09:41:46.999Z</time></trkpt><trkpt lat="42.93147868918421" lon="13.581950881996107"><ele>578.0</ele><time>2026-05-02T09:41:47.999Z</time></trkpt><trkpt lat="42.931587255012786" lon="13.58200018929717"><ele>578.0</ele><time>2026-05-02T09:41:48.999Z</time></trkpt><trkpt lat="42.931723287610026" lon="13.58202676573237"><ele>578.0</ele><time>2026-05-02T09:41:49.999Z</time></trkpt><trkpt lat="42.93186355721484" lon="13.582008422621696"><ele>578.0</ele><time>2026-05-02T09:41:50.999Z</time></trkpt><trkpt lat="42.932007154559116" lon="13.581971097310786"><ele>581.25</ele><time>2026-05-02T09:41:51.999Z</time></trkpt><trkpt lat="42.93213781258182" lon="13.5818930769899"><ele>584.5</ele><time>2026-05-02T09:41:52.999Z</time></trkpt><trkpt lat="42.93225324974465" lon="13.581797248826627"><ele>587.75</ele><time>2026-05-02T09:41:53.999Z</time></trkpt><trkpt lat="42.93238482098164" lon="13.581691669995484"><ele>591.0</ele><time>2026-05-02T09:41:54.999Z</time></trkpt><trkpt lat="42.93252505431441" lon="13.581596384486408"><ele>588.0</ele><time>2026-05-02T09:41:55.999Z</time></trkpt><trkpt lat="42.932670449576456" lon="13.581498047986699"><ele>585.0</ele><time>2026-05-02T09:41:56.999Z</time></trkpt><trkpt lat="42.9327945129279" lon="13.581400467352825"><ele>582.0</ele><time>2026-05-02T09:41:57.999Z</time></trkpt><trkpt lat="42.93288658143623" lon="13.581310653108423"><ele>579.0</ele><time>2026-05-02T09:41:58.999Z</time></trkpt><trkpt lat="42.93294542198077" lon="13.581211066000686"><ele>579.5</ele><time>2026-05-02T09:41:59.999Z</time></trkpt><trkpt lat="42.93298745118322" lon="13.581087706206684"><ele>580.0</ele><time>2026-05-02T09:42:00.999Z</time></trkpt><trkpt lat="42.93298635929884" lon="13.58094348902799"><ele>580.5</ele><time>2026-05-02T09:42:01.999Z</time></trkpt><trkpt lat="42.932955236754296" lon="13.580781894382229"><ele>581.0</ele><time>2026-05-02T09:42:02.999Z</time></trkpt><trkpt lat="42.93289902463235" lon="13.580613013506596"><ele>581.0</ele><time>2026-05-02T09:42:03.999Z</time></trkpt><trkpt lat="42.93282189495621" lon="13.580403039702498"><ele>581.0</ele><time>2026-05-02T09:42:04.999Z</time></trkpt><trkpt lat="42.932745548230905" lon="13.580186876225127"><ele>581.0</ele><time>2026-05-02T09:42:05.999Z</time></trkpt><trkpt lat="42.93266669050302" lon="13.580011085139812"><ele>579.3333333333333</ele><time>2026-05-02T09:42:06.999Z</time></trkpt><trkpt lat="42.932566683385765" lon="13.579878130059436"><ele>577.6666666666666</ele><time>2026-05-02T09:42:07.999Z</time></trkpt><trkpt lat="42.93244074033469" lon="13.579741655753374"><ele>576.0</ele><time>2026-05-02T09:42:08.999Z</time></trkpt><trkpt lat="42.93230405689581" lon="13.579584456413544"><ele>580.6666666666666</ele><time>2026-05-02T09:42:09.999Z</time></trkpt><trkpt lat="42.932172200202615" lon="13.579415873424804"><ele>585.3333333333333</ele><time>2026-05-02T09:42:10.999Z</time></trkpt><trkpt lat="42.932037151982684" lon="13.579255282507052"><ele>590.0</ele><time>2026-05-02T09:42:11.999Z</time></trkpt><trkpt lat="42.931896509477646" lon="13.579101858223968"><ele>590.0</ele><time>2026-05-02T09:42:12.999Z</time></trkpt><trkpt lat="42.93175403609034" lon="13.578944370102105"><ele>590.0</ele><time>2026-05-02T09:42:13.999Z</time></trkpt><trkpt lat="42.93162788753651" lon="13.578815756276796"><ele>590.0</ele><time>2026-05-02T09:42:14.999Z</time></trkpt><trkpt lat="42.93151956611985" lon="13.578694350432995"><ele>593.5</ele><time>2026-05-02T09:42:15.999Z</time></trkpt><trkpt lat="42.931440895669866" lon="13.578572781093415"><ele>597.0</ele><time>2026-05-02T09:42:16.999Z</time></trkpt><trkpt lat="42.93140434446432" lon="13.5784367663096"><ele>600.5</ele><time>2026-05-02T09:42:17.999Z</time></trkpt><trkpt lat="42.931404072255894" lon="13.578274889837205"><ele>604.0</ele><time>2026-05-02T09:42:18.999Z</time></trkpt><trkpt lat="42.93144383276732" lon="13.5780946188796"><ele>604.0</ele><time>2026-05-02T09:42:19.999Z</time></trkpt><trkpt lat="42.93144963892027" lon="13.577918761133798"><ele>604.0</ele><time>2026-05-02T09:42:20.999Z</time></trkpt><trkpt lat="42.931456352661314" lon="13.577759329975327"><ele>604.0</ele><time>2026-05-02T09:42:21.999Z</time></trkpt><trkpt lat="42.93143306472213" lon="13.577588598119391"><ele>604.0</ele><time>2026-05-02T09:42:22.999Z</time></trkpt><trkpt lat="42.93136952031344" lon="13.577403528271219"><ele>604.6666666666667</ele><time>2026-05-02T09:42:23.999Z</time></trkpt><trkpt lat="42.93127979998666" lon="13.577213637956444"><ele>605.3333333333334</ele><time>2026-05-02T09:42:24.999Z</time></trkpt><trkpt lat="42.93119136910146" lon="13.576996929795976"><ele>606.0</ele><time>2026-05-02T09:42:25.999Z</time></trkpt><trkpt lat="42.93111021445576" lon="13.57676568994166"><ele>604.6666666666666</ele><time>2026-05-02T09:42:26.999Z</time></trkpt><trkpt lat="42.93106959269192" lon="13.576544337730178"><ele>603.3333333333333</ele><time>2026-05-02T09:42:27.999Z</time></trkpt><trkpt lat="42.93102659828687" lon="13.576338348289738"><ele>602.0</ele><time>2026-05-02T09:42:28.999Z</time></trkpt><trkpt lat="42.93101216010595" lon="13.576144315670048"><ele>600.0</ele><time>2026-05-02T09:42:29.999Z</time></trkpt><trkpt lat="42.930988427925" lon="13.575990341691588"><ele>598.0</ele><time>2026-05-02T09:42:30.999Z</time></trkpt><trkpt lat="42.930940939140186" lon="13.575871577305021"><ele>596.0</ele><time>2026-05-02T09:42:31.999Z</time></trkpt><trkpt lat="42.93086499931925" lon="13.575775099665657"><ele>594.0</ele><time>2026-05-02T09:42:32.999Z</time></trkpt><trkpt lat="42.93075782406845" lon="13.575697057350798"><ele>592.0</ele><time>2026-05-02T09:42:33.999Z</time></trkpt><trkpt lat="42.93065781907992" lon="13.575609957975852"><ele>596.25</ele><time>2026-05-02T09:42:34.999Z</time></trkpt><trkpt lat="42.930601379091506" lon="13.575473369448254"><ele>600.5</ele><time>2026-05-02T09:42:35.999Z</time></trkpt><trkpt lat="42.93057932024879" lon="13.575297206429976"><ele>604.75</ele><time>2026-05-02T09:42:36.999Z</time></trkpt><trkpt lat="42.930582722997066" lon="13.575118670973236"><ele>609.0</ele><time>2026-05-02T09:42:37.999Z</time></trkpt><trkpt lat="42.93056498906896" lon="13.5749740898528"><ele>609.0</ele><time>2026-05-02T09:42:38.999Z</time></trkpt><trkpt lat="42.93052335971782" lon="13.574840305674515"><ele>609.0</ele><time>2026-05-02T09:42:39.999Z</time></trkpt><trkpt lat="42.93049873780635" lon="13.574704592086078"><ele>609.0</ele><time>2026-05-02T09:42:40.999Z</time></trkpt><trkpt lat="42.930532898873295" lon="13.574572743003365"><ele>609.0</ele><time>2026-05-02T09:42:41.999Z</time></trkpt><trkpt lat="42.93062994247702" lon="13.5744882562837"><ele>609.0</ele><time>2026-05-02T09:42:42.999Z</time></trkpt><trkpt lat="42.93070490212624" lon="13.574375021258554"><ele>611.0</ele><time>2026-05-02T09:42:43.999Z</time></trkpt><trkpt lat="42.93075545846515" lon="13.574269853754226"><ele>613.0</ele><time>2026-05-02T09:42:44.999Z</time></trkpt><trkpt lat="42.930763393173386" lon="13.574115538746502"><ele>615.0</ele><time>2026-05-02T09:42:45.999Z</time></trkpt><trkpt lat="42.93076766517598" lon="13.573937213834437"><ele>617.0</ele><time>2026-05-02T09:42:46.999Z</time></trkpt><trkpt lat="42.93078464021664" lon="13.573781958207539"><ele>619.0</ele><time>2026-05-02T09:42:47.999Z</time></trkpt><trkpt lat="42.930847712053584" lon="13.573643575207795"><ele>621.0</ele><time>2026-05-02T09:42:48.999Z</time></trkpt><trkpt lat="42.93095770526788" lon="13.573532883295911"><ele>623.0</ele><time>2026-05-02T09:42:49.999Z</time></trkpt><trkpt lat="42.931089089275005" lon="13.57344401633077"><ele>625.0</ele><time>2026-05-02T09:42:50.999Z</time></trkpt><trkpt lat="42.93120133471731" lon="13.573388174133285"><ele>625.0</ele><time>2026-05-02T09:42:51.999Z</time></trkpt><trkpt lat="42.93129198323844" lon="13.573306633911875"><ele>625.0</ele><time>2026-05-02T09:42:52.999Z</time></trkpt><trkpt lat="42.93135769063571" lon="13.573183507593209"><ele>625.0</ele><time>2026-05-02T09:42:53.999Z</time></trkpt><trkpt lat="42.93140367478959" lon="13.573019662236986"><ele>625.0</ele><time>2026-05-02T09:42:54.999Z</time></trkpt><trkpt lat="42.931430796712924" lon="13.572811005066033"><ele>623.3333333333334</ele><time>2026-05-02T09:42:55.999Z</time></trkpt><trkpt lat="42.93146531358099" lon="13.572585152949243"><ele>621.6666666666666</ele><time>2026-05-02T09:42:56.999Z</time></trkpt><trkpt lat="42.93150460787678" lon="13.572378836250975"><ele>620.0</ele><time>2026-05-02T09:42:57.999Z</time></trkpt><trkpt lat="42.93152745957651" lon="13.572196282254831"><ele>620.0</ele><time>2026-05-02T09:42:58.999Z</time></trkpt><trkpt lat="42.931517673542665" lon="13.572032260630055"><ele>620.0</ele><time>2026-05-02T09:42:59.999Z</time></trkpt><trkpt lat="42.931481167147844" lon="13.571882639446898"><ele>620.0</ele><time>2026-05-02T09:43:00.998Z</time></trkpt><trkpt lat="42.931426013288124" lon="13.571710502582365"><ele>620.0</ele><time>2026-05-02T09:43:01.998Z</time></trkpt><trkpt lat="42.93133421678225" lon="13.571533604024234"><ele>617.3333333333333</ele><time>2026-05-02T09:43:02.998Z</time></trkpt><trkpt lat="42.93123562163626" lon="13.571352432348403"><ele>614.6666666666666</ele><time>2026-05-02T09:43:03.998Z</time></trkpt><trkpt lat="42.93113821982102" lon="13.571183809000441"><ele>612.0</ele><time>2026-05-02T09:43:04.998Z</time></trkpt><trkpt lat="42.93105116806657" lon="13.571006863893636"><ele>612.0</ele><time>2026-05-02T09:43:05.998Z</time></trkpt><trkpt lat="42.930948666585266" lon="13.57084736886594"><ele>612.0</ele><time>2026-05-02T09:43:06.998Z</time></trkpt><trkpt lat="42.9308415783201" lon="13.570700529349354"><ele>612.0</ele><time>2026-05-02T09:43:07.998Z</time></trkpt><trkpt lat="42.93076720269226" lon="13.570524451582706"><ele>615.75</ele><time>2026-05-02T09:43:08.998Z</time></trkpt><trkpt lat="42.93068171402347" lon="13.570366546572005"><ele>619.5</ele><time>2026-05-02T09:43:09.998Z</time></trkpt><trkpt lat="42.93062640252951" lon="13.570204657483627"><ele>623.25</ele><time>2026-05-02T09:43:10.998Z</time></trkpt><trkpt lat="42.93058372582094" lon="13.570071963097494"><ele>627.0</ele><time>2026-05-02T09:43:12Z</time></trkpt><trkpt lat="42.93054035353392" lon="13.569963849799406"><ele>627.0</ele><time>2026-05-02T09:43:13Z</time></trkpt><trkpt lat="42.93053132799249" lon="13.56987646958514"><ele>627.0</ele><time>2026-05-02T09:43:14Z</time></trkpt><trkpt lat="42.93060827206098" lon="13.569747653044667"><ele>627.0</ele><time>2026-05-02T09:43:16Z</time></trkpt><trkpt lat="42.93069391408168" lon="13.569711779944125"><ele>627.0</ele><time>2026-05-02T09:43:17Z</time></trkpt><trkpt lat="42.93077915889541" lon="13.569741558473625"><ele>627.0</ele><time>2026-05-02T09:43:18Z</time></trkpt><trkpt lat="42.930842137065476" lon="13.569776291365551"><ele>627.0</ele><time>2026-05-02T09:43:19Z</time></trkpt><trkpt lat="42.93089744500551" lon="13.569830825833606"><ele>628.5</ele><time>2026-05-02T09:43:20Z</time></trkpt><trkpt lat="42.93095515635581" lon="13.569893359979636"><ele>630.0</ele><time>2026-05-02T09:43:21Z</time></trkpt><trkpt lat="42.93100573349317" lon="13.56994978848336"><ele>631.5</ele><time>2026-05-02T09:43:22Z</time></trkpt><trkpt lat="42.931072513318874" lon="13.570005546883129"><ele>633.0</ele><time>2026-05-02T09:43:23Z</time></trkpt><trkpt lat="42.9311377632491" lon="13.570076150361265"><ele>634.5</ele><time>2026-05-02T09:43:24Z</time></trkpt><trkpt lat="42.93120740882668" lon="13.570154150151362"><ele>636.0</ele><time>2026-05-02T09:43:25Z</time></trkpt><trkpt lat="42.93130132551236" lon="13.570201208515796"><ele>636.0</ele><time>2026-05-02T09:43:26Z</time></trkpt><trkpt lat="42.931406803892685" lon="13.570213500822902"><ele>636.0</ele><time>2026-05-02T09:43:27Z</time></trkpt><trkpt lat="42.93150608701866" lon="13.570178810392383"><ele>636.0</ele><time>2026-05-02T09:43:28Z</time></trkpt><trkpt lat="42.931592338805004" lon="13.570184589143775"><ele>636.0</ele><time>2026-05-02T09:43:29Z</time></trkpt><trkpt lat="42.93165976700666" lon="13.570226612931746"><ele>636.0</ele><time>2026-05-02T09:43:30Z</time></trkpt><trkpt lat="42.93172432250819" lon="13.570300203298101"><ele>634.6666666666666</ele><time>2026-05-02T09:43:31Z</time></trkpt><trkpt lat="42.931769329658245" lon="13.570396168044638"><ele>633.3333333333334</ele><time>2026-05-02T09:43:32Z</time></trkpt><trkpt lat="42.93182074514816" lon="13.570493468150078"><ele>632.0</ele><time>2026-05-02T09:43:33Z</time></trkpt><trkpt lat="42.93187783122132" lon="13.570559499829354"><ele>630.6666666666667</ele><time>2026-05-02T09:43:34Z</time></trkpt><trkpt lat="42.931956573456276" lon="13.57058941214906"><ele>629.3333333333334</ele><time>2026-05-02T09:43:35Z</time></trkpt><trkpt lat="42.9320451183001" lon="13.570612257831012"><ele>628.0</ele><time>2026-05-02T09:43:36Z</time></trkpt><trkpt lat="42.93214242490851" lon="13.570653752593353"><ele>628.0</ele><time>2026-05-02T09:43:37Z</time></trkpt><trkpt lat="42.93223582441872" lon="13.570736265322566"><ele>628.0</ele><time>2026-05-02T09:43:38Z</time></trkpt><trkpt lat="42.9323281820797" lon="13.570829560332472"><ele>628.0</ele><time>2026-05-02T09:43:39Z</time></trkpt><trkpt lat="42.932426474507864" lon="13.57090615816851"><ele>628.0</ele><time>2026-05-02T09:43:40Z</time></trkpt><trkpt lat="42.932540685346815" lon="13.570943603112351"><ele>630.25</ele><time>2026-05-02T09:43:41Z</time></trkpt><trkpt lat="42.932658694213934" lon="13.57097844916268"><ele>632.5</ele><time>2026-05-02T09:43:42Z</time></trkpt><trkpt lat="42.93277704146467" lon="13.57102134994473"><ele>634.75</ele><time>2026-05-02T09:43:43Z</time></trkpt><trkpt lat="42.932898958783866" lon="13.571067806423235"><ele>637.0</ele><time>2026-05-02T09:43:44Z</time></trkpt><trkpt lat="42.9330192122677" lon="13.571090674111858"><ele>637.0</ele><time>2026-05-02T09:43:45Z</time></trkpt><trkpt lat="42.93313442757598" lon="13.571115461067272"><ele>637.0</ele><time>2026-05-02T09:43:46Z</time></trkpt><trkpt lat="42.93325573178276" lon="13.571099038508969"><ele>637.0</ele><time>2026-05-02T09:43:47Z</time></trkpt><trkpt lat="42.933385082813146" lon="13.571065630306906"><ele>637.0</ele><time>2026-05-02T09:43:48Z</time></trkpt><trkpt lat="42.93351791527142" lon="13.57099523926615"><ele>634.3333333333334</ele><time>2026-05-02T09:43:49Z</time></trkpt><trkpt lat="42.93366322125056" lon="13.570940344900816"><ele>631.6666666666666</ele><time>2026-05-02T09:43:49.999Z</time></trkpt><trkpt lat="42.933809939243105" lon="13.570892207122311"><ele>629.0</ele><time>2026-05-02T09:43:50.999Z</time></trkpt><trkpt lat="42.93396025770515" lon="13.570831056265774"><ele>629.0</ele><time>2026-05-02T09:43:51.999Z</time></trkpt><trkpt lat="42.934103260406104" lon="13.570775647328759"><ele>629.0</ele><time>2026-05-02T09:43:52.999Z</time></trkpt><trkpt lat="42.93423167142074" lon="13.57071857135917"><ele>629.0</ele><time>2026-05-02T09:43:53.999Z</time></trkpt><trkpt lat="42.934356522682414" lon="13.57064234781938"><ele>629.0</ele><time>2026-05-02T09:43:54.999Z</time></trkpt><trkpt lat="42.93447302682332" lon="13.57053447920741"><ele>629.0</ele><time>2026-05-02T09:43:55.999Z</time></trkpt><trkpt lat="42.934583368558954" lon="13.57039358812135"><ele>629.0</ele><time>2026-05-02T09:43:56.999Z</time></trkpt><trkpt lat="42.93467564542837" lon="13.570252996889545"><ele>629.0</ele><time>2026-05-02T09:43:57.999Z</time></trkpt><trkpt lat="42.93475391129173" lon="13.57012408689014"><ele>629.0</ele><time>2026-05-02T09:43:58.999Z</time></trkpt><trkpt lat="42.93483008281818" lon="13.570028880075904"><ele>629.0</ele><time>2026-05-02T09:43:59.999Z</time></trkpt><trkpt lat="42.934899421398896" lon="13.569975026435396"><ele>629.0</ele><time>2026-05-02T09:44:00.999Z</time></trkpt><trkpt lat="42.93496928971014" lon="13.56990298892813"><ele>629.0</ele><time>2026-05-02T09:44:02.999Z</time></trkpt><trkpt lat="42.935069632374415" lon="13.569888909071116"><ele>629.0</ele><time>2026-05-02T09:44:04.999Z</time></trkpt><trkpt lat="42.935163459988225" lon="13.569835955629674"><ele>629.0</ele><time>2026-05-02T09:44:06.999Z</time></trkpt><trkpt lat="42.93527103012431" lon="13.569776787245155"><ele>627.2857142857142</ele><time>2026-05-02T09:44:08.999Z</time></trkpt><trkpt lat="42.93533027856719" lon="13.569741619732142"><ele>625.5714285714287</ele><time>2026-05-02T09:44:09.999Z</time></trkpt><trkpt lat="42.93539158663988" lon="13.569710018723597"><ele>623.8571428571429</ele><time>2026-05-02T09:44:10.999Z</time></trkpt><trkpt lat="42.93545617748229" lon="13.56968496440772"><ele>622.1428571428571</ele><time>2026-05-02T09:44:11.999Z</time></trkpt><trkpt lat="42.93552225902272" lon="13.569663719058068"><ele>620.4285714285713</ele><time>2026-05-02T09:44:12.999Z</time></trkpt><trkpt lat="42.93558896970957" lon="13.569652650554456"><ele>618.7142857142858</ele><time>2026-05-02T09:44:13.999Z</time></trkpt><trkpt lat="42.935660343738924" lon="13.569660955423572"><ele>617.0</ele><time>2026-05-02T09:44:14.999Z</time></trkpt><trkpt lat="42.93572852129817" lon="13.569684516518738"><ele>617.0</ele><time>2026-05-02T09:44:15.999Z</time></trkpt><trkpt lat="42.9357924557753" lon="13.569718627582853"><ele>617.0</ele><time>2026-05-02T09:44:16.999Z</time></trkpt><trkpt lat="42.93585882824541" lon="13.569749639626353"><ele>617.0</ele><time>2026-05-02T09:44:17.999Z</time></trkpt><trkpt lat="42.93592177773351" lon="13.569768611978946"><ele>617.0</ele><time>2026-05-02T09:44:18.999Z</time></trkpt><trkpt lat="42.935994096269276" lon="13.569769531013353"><ele>617.0</ele><time>2026-05-02T09:44:19.999Z</time></trkpt><trkpt lat="42.936070682879155" lon="13.569753843258272"><ele>617.0</ele><time>2026-05-02T09:44:20.999Z</time></trkpt><trkpt lat="42.93615168109918" lon="13.569726350281893"><ele>617.0</ele><time>2026-05-02T09:44:21.999Z</time></trkpt><trkpt lat="42.9362380139091" lon="13.5696769636734"><ele>616.6666666666666</ele><time>2026-05-02T09:44:22.999Z</time></trkpt><trkpt lat="42.93631016316188" lon="13.569620389772014"><ele>616.3333333333333</ele><time>2026-05-02T09:44:23.999Z</time></trkpt><trkpt lat="42.93636972909678" lon="13.569559957721804"><ele>616.0</ele><time>2026-05-02T09:44:24.999Z</time></trkpt><trkpt lat="42.93641955693336" lon="13.569503430989993"><ele>615.6666666666666</ele><time>2026-05-02T09:44:25.999Z</time></trkpt><trkpt lat="42.93649831616847" lon="13.569425609178108"><ele>615.3333333333334</ele><time>2026-05-02T09:44:27.999Z</time></trkpt><trkpt lat="42.93657880206261" lon="13.569397013251157"><ele>615.0</ele><time>2026-05-02T09:44:35.999Z</time></trkpt><trkpt lat="42.93664353843109" lon="13.569468663536474"><ele>611.4</ele><time>2026-05-02T09:44:37.999Z</time></trkpt><trkpt lat="42.93673439437419" lon="13.569536868378567"><ele>607.8</ele><time>2026-05-02T09:44:39.999Z</time></trkpt><trkpt lat="42.936829501703144" lon="13.569621138481162"><ele>604.2</ele><time>2026-05-02T09:44:41.999Z</time></trkpt><trkpt lat="42.93692666365854" lon="13.569698696144913"><ele>600.6</ele><time>2026-05-02T09:44:43.999Z</time></trkpt><trkpt lat="42.937019262016975" lon="13.569773883222577"><ele>597.0</ele><time>2026-05-02T09:44:45.999Z</time></trkpt><trkpt lat="42.937105329626895" lon="13.569842791267245"><ele>597.0</ele><time>2026-05-02T09:44:47.999Z</time></trkpt><trkpt lat="42.93715651660906" lon="13.569937416196092"><ele>597.0</ele><time>2026-05-02T09:44:49.999Z</time></trkpt><trkpt lat="42.93711988263898" lon="13.57007342824678"><ele>597.0</ele><time>2026-05-02T09:44:51.999Z</time></trkpt><trkpt lat="42.93704058419925" lon="13.570170232280164"><ele>597.0</ele><time>2026-05-02T09:44:53.999Z</time></trkpt><trkpt lat="42.936950697571554" lon="13.57028347095322"><ele>597.0</ele><time>2026-05-02T09:44:55.999Z</time></trkpt><trkpt lat="42.93688042672127" lon="13.570391305339884"><ele>596.1428571428572</ele><time>2026-05-02T09:44:57.999Z</time></trkpt><trkpt lat="42.93686269924759" lon="13.570476457103805"><ele>595.2857142857143</ele><time>2026-05-02T09:45:00.999Z</time></trkpt><trkpt lat="42.936829574363074" lon="13.570550295554403"><ele>594.4285714285714</ele><time>2026-05-02T09:45:08.999Z</time></trkpt><trkpt lat="42.93682340965687" lon="13.570655611154788"><ele>593.5714285714287</ele><time>2026-05-02T09:45:10.999Z</time></trkpt><trkpt lat="42.93682955683809" lon="13.57077321889201"><ele>592.7142857142858</ele><time>2026-05-02T09:45:13.998Z</time></trkpt><trkpt lat="42.93683726798906" lon="13.570661885707876"><ele>591.8571428571429</ele><time>2026-05-02T09:45:35Z</time></trkpt><trkpt lat="42.93683938119469" lon="13.570563973202907"><ele>591.0</ele><time>2026-05-02T09:45:37Z</time></trkpt><trkpt lat="42.93689335408696" lon="13.570375266727632"><ele>592.0</ele><time>2026-05-02T09:45:39Z</time></trkpt><trkpt lat="42.936944821749236" lon="13.57029209347922"><ele>593.0</ele><time>2026-05-02T09:45:40Z</time></trkpt><trkpt lat="42.93701358418949" lon="13.570217671870617"><ele>594.0</ele><time>2026-05-02T09:45:41Z</time></trkpt><trkpt lat="42.93709055044035" lon="13.570138060416555"><ele>595.0</ele><time>2026-05-02T09:45:42Z</time></trkpt><trkpt lat="42.937142461271456" lon="13.570070266747233"><ele>596.0</ele><time>2026-05-02T09:45:43Z</time></trkpt><trkpt lat="42.93717583486541" lon="13.569951097345559"><ele>597.0</ele><time>2026-05-02T09:45:45Z</time></trkpt><trkpt lat="42.93711952561233" lon="13.569818666586219"><ele>597.0</ele><time>2026-05-02T09:45:47Z</time></trkpt><trkpt lat="42.93705537162022" lon="13.569770135610375"><ele>597.0</ele><time>2026-05-02T09:45:48Z</time></trkpt><trkpt lat="42.936970686728685" lon="13.569717767664777"><ele>597.0</ele><time>2026-05-02T09:45:49Z</time></trkpt><trkpt lat="42.936875284485915" lon="13.56964818894591"><ele>597.0</ele><time>2026-05-02T09:45:50Z</time></trkpt><trkpt lat="42.93678562529127" lon="13.569571448671837"><ele>597.0</ele><time>2026-05-02T09:45:51Z</time></trkpt><trkpt lat="42.936711191595435" lon="13.569473238699711"><ele>599.4</ele><time>2026-05-02T09:45:52Z</time></trkpt><trkpt lat="42.93664008656265" lon="13.569412984219529"><ele>601.8000000000001</ele><time>2026-05-02T09:45:53Z</time></trkpt><trkpt lat="42.936548461611956" lon="13.569368539044422"><ele>604.2</ele><time>2026-05-02T09:45:54.999Z</time></trkpt><trkpt lat="42.936441983626565" lon="13.56943066296852"><ele>606.6</ele><time>2026-05-02T09:45:56.999Z</time></trkpt><trkpt lat="42.93637320100649" lon="13.569507259948143"><ele>609.0</ele><time>2026-05-02T09:45:57.999Z</time></trkpt><trkpt lat="42.936291805664226" lon="13.569585913891386"><ele>609.0</ele><time>2026-05-02T09:45:58.999Z</time></trkpt><trkpt lat="42.93619896786129" lon="13.569663775606537"><ele>609.0</ele><time>2026-05-02T09:45:59.999Z</time></trkpt><trkpt lat="42.93611866918131" lon="13.569711243948333"><ele>609.0</ele><time>2026-05-02T09:46:00.999Z</time></trkpt><trkpt lat="42.93604920437069" lon="13.569728683904527"><ele>609.0</ele><time>2026-05-02T09:46:01.999Z</time></trkpt><trkpt lat="42.93597875480492" lon="13.569735642961732"><ele>609.0</ele><time>2026-05-02T09:46:02.999Z</time></trkpt><trkpt lat="42.935907316834275" lon="13.569730165344147"><ele>609.0</ele><time>2026-05-02T09:46:03.999Z</time></trkpt><trkpt lat="42.93584450225735" lon="13.569695028481902"><ele>610.6</ele><time>2026-05-02T09:46:04.999Z</time></trkpt><trkpt lat="42.935765722016455" lon="13.569664901024295"><ele>612.2</ele><time>2026-05-02T09:46:05.999Z</time></trkpt><trkpt lat="42.935673353265365" lon="13.569635047685985"><ele>613.8000000000001</ele><time>2026-05-02T09:46:06.999Z</time></trkpt><trkpt lat="42.93557034354766" lon="13.569624244946464"><ele>615.4</ele><time>2026-05-02T09:46:07.999Z</time></trkpt><trkpt lat="42.9354623037953" lon="13.56967364881666"><ele>617.0</ele><time>2026-05-02T09:46:08.999Z</time></trkpt><trkpt lat="42.93535517315555" lon="13.569723330757201"><ele>617.0</ele><time>2026-05-02T09:46:09.999Z</time></trkpt><trkpt lat="42.93524574171218" lon="13.569779051117003"><ele>617.0</ele><time>2026-05-02T09:46:10.999Z</time></trkpt><trkpt lat="42.935148223939926" lon="13.569845966756178"><ele>617.0</ele><time>2026-05-02T09:46:11.999Z</time></trkpt><trkpt lat="42.93507125323655" lon="13.56989760467773"><ele>617.0</ele><time>2026-05-02T09:46:12.999Z</time></trkpt><trkpt lat="42.93500293026495" lon="13.569916806715742"><ele>617.0</ele><time>2026-05-02T09:46:13.999Z</time></trkpt><trkpt lat="42.93494688614235" lon="13.569957437774702"><ele>617.0</ele><time>2026-05-02T09:46:15.999Z</time></trkpt><trkpt lat="42.93506781296365" lon="13.569852983143683"><ele>617.0</ele><time>2026-05-02T09:46:21.999Z</time></trkpt><trkpt lat="42.9351528281191" lon="13.569684045212318"><ele>617.0</ele><time>2026-05-02T09:46:22.999Z</time></trkpt><trkpt lat="42.93523900905987" lon="13.569614989693415"><ele>617.0</ele><time>2026-05-02T09:46:23.999Z</time></trkpt><trkpt lat="42.935321882616584" lon="13.569570870893994"><ele>617.0</ele><time>2026-05-02T09:46:24.999Z</time></trkpt><trkpt lat="42.93539219722819" lon="13.569514020333454"><ele>617.0</ele><time>2026-05-02T09:46:25.999Z</time></trkpt><trkpt lat="42.93544651613744" lon="13.569454980907828"><ele>619.8000000000001</ele><time>2026-05-02T09:46:26.999Z</time></trkpt><trkpt lat="42.935546114425144" lon="13.56940155115731"><ele>622.6</ele><time>2026-05-02T09:46:28.999Z</time></trkpt><trkpt lat="42.93560077530893" lon="13.569334224869058"><ele>625.4000000000001</ele><time>2026-05-02T09:46:30.999Z</time></trkpt><trkpt lat="42.93563120610551" lon="13.569218257898573"><ele>628.2</ele><time>2026-05-02T09:46:32.999Z</time></trkpt><trkpt lat="42.935701024251465" lon="13.569055783273564"><ele>631.0</ele><time>2026-05-02T09:46:34.999Z</time></trkpt><trkpt lat="42.9357439756641" lon="13.568952092674577"><ele>631.0</ele><time>2026-05-02T09:46:35.999Z</time></trkpt><trkpt lat="42.935776653550306" lon="13.568865173074196"><ele>631.0</ele><time>2026-05-02T09:46:36.999Z</time></trkpt><trkpt lat="42.93585164972713" lon="13.568735642608221"><ele>631.0</ele><time>2026-05-02T09:46:38.999Z</time></trkpt><trkpt lat="42.93590761622445" lon="13.568619034686213"><ele>631.0</ele><time>2026-05-02T09:46:40.999Z</time></trkpt><trkpt lat="42.935946971646004" lon="13.568540930389725"><ele>631.0</ele><time>2026-05-02T09:46:47.999Z</time></trkpt><trkpt lat="42.9359891298703" lon="13.568459287083769"><ele>631.0</ele><time>2026-05-02T09:46:49.999Z</time></trkpt><trkpt lat="42.936026769574575" lon="13.568386165024016"><ele>628.0</ele><time>2026-05-02T09:46:50.999Z</time></trkpt><trkpt lat="42.93606307931329" lon="13.568309689856461"><ele>625.0</ele><time>2026-05-02T09:46:51.999Z</time></trkpt><trkpt lat="42.9361047447154" lon="13.568231917983544"><ele>622.0</ele><time>2026-05-02T09:46:52.999Z</time></trkpt><trkpt lat="42.93614847313149" lon="13.56811067069908"><ele>619.0</ele><time>2026-05-02T09:46:53.999Z</time></trkpt><trkpt lat="42.936160983875794" lon="13.567951917629152"><ele>616.0</ele><time>2026-05-02T09:46:55.999Z</time></trkpt><trkpt lat="42.936139779120936" lon="13.56771265174191"><ele>616.0</ele><time>2026-05-02T09:46:57.999Z</time></trkpt><trkpt lat="42.93609517660811" lon="13.567623745714654"><ele>616.0</ele><time>2026-05-02T09:46:58.999Z</time></trkpt><trkpt lat="42.93592894954698" lon="13.568045126957822"><ele>616.0</ele><time>2026-05-02T09:47:02.999Z</time></trkpt><trkpt lat="42.93597993135148" lon="13.568113436044973"><ele>616.0</ele><time>2026-05-02T09:47:04.999Z</time></trkpt><trkpt lat="42.93600105052342" lon="13.568231301445728"><ele>616.0</ele><time>2026-05-02T09:47:07.999Z</time></trkpt><trkpt lat="42.935985350372306" lon="13.568347830262894"><ele>616.0</ele><time>2026-05-02T09:47:09.999Z</time></trkpt><trkpt lat="42.935957139366494" lon="13.568470526717027"><ele>616.0</ele><time>2026-05-02T09:47:11.998Z</time></trkpt><trkpt lat="42.93590767775354" lon="13.56853197637227"><ele>616.0</ele><time>2026-05-02T09:47:13.998Z</time></trkpt><trkpt lat="42.935836731987635" lon="13.568512868515166"><ele>616.0</ele><time>2026-05-02T09:47:15.998Z</time></trkpt><trkpt lat="42.935760145268745" lon="13.568371664986197"><ele>619.8</ele><time>2026-05-02T09:47:17.998Z</time></trkpt><trkpt lat="42.93568797978104" lon="13.568297422437691"><ele>623.6</ele><time>2026-05-02T09:47:18.998Z</time></trkpt><trkpt lat="42.93559957379105" lon="13.568203591700893"><ele>627.4</ele><time>2026-05-02T09:47:19.998Z</time></trkpt><trkpt lat="42.93550457462946" lon="13.568101452865767"><ele>631.2</ele><time>2026-05-02T09:47:20.998Z</time></trkpt><trkpt lat="42.93541212541001" lon="13.568001241493777"><ele>635.0</ele><time>2026-05-02T09:47:21.998Z</time></trkpt><trkpt lat="42.93530764837672" lon="13.567887953780106"><ele>633.0</ele><time>2026-05-02T09:47:23Z</time></trkpt><trkpt lat="42.93519436942329" lon="13.567779375766209"><ele>631.0</ele><time>2026-05-02T09:47:24Z</time></trkpt><trkpt lat="42.93509860882196" lon="13.567634526239209"><ele>629.0</ele><time>2026-05-02T09:47:25Z</time></trkpt><trkpt lat="42.93499502030944" lon="13.567498556101784"><ele>627.0</ele><time>2026-05-02T09:47:26Z</time></trkpt><trkpt lat="42.93491218446712" lon="13.567398255589685"><ele>630.0</ele><time>2026-05-02T09:47:27Z</time></trkpt><trkpt lat="42.93484070276231" lon="13.567353399126745"><ele>633.0</ele><time>2026-05-02T09:47:28Z</time></trkpt><trkpt lat="42.93478856518686" lon="13.567297916466462"><ele>636.0</ele><time>2026-05-02T09:47:29Z</time></trkpt><trkpt lat="42.93470976318284" lon="13.567298876616235"><ele>639.0</ele><time>2026-05-02T09:47:30Z</time></trkpt><trkpt lat="42.93463692817396" lon="13.567361479555593"><ele>642.0</ele><time>2026-05-02T09:47:31Z</time></trkpt><trkpt lat="42.93457952602419" lon="13.56743607615916"><ele>645.0</ele><time>2026-05-02T09:47:32Z</time></trkpt><trkpt lat="42.93454024145432" lon="13.567522547554626"><ele>645.0</ele><time>2026-05-02T09:47:33Z</time></trkpt><trkpt lat="42.93450773553018" lon="13.567620431964201"><ele>645.0</ele><time>2026-05-02T09:47:34Z</time></trkpt><trkpt lat="42.93449060075303" lon="13.56779018579688"><ele>645.0</ele><time>2026-05-02T09:47:36Z</time></trkpt><trkpt lat="42.934500254265814" lon="13.56789208650652"><ele>645.0</ele><time>2026-05-02T09:47:37Z</time></trkpt><trkpt lat="42.93451825016951" lon="13.5679915080294"><ele>645.0</ele><time>2026-05-02T09:47:38Z</time></trkpt><trkpt lat="42.93458141643617" lon="13.56811301552035"><ele>646.5</ele><time>2026-05-02T09:47:40Z</time></trkpt><trkpt lat="42.93463941053666" lon="13.56816682284681"><ele>648.0</ele><time>2026-05-02T09:47:41Z</time></trkpt><trkpt lat="42.93470167166536" lon="13.568221663885458"><ele>649.5</ele><time>2026-05-02T09:47:42Z</time></trkpt><trkpt lat="42.93475854798283" lon="13.568281297741859"><ele>651.0</ele><time>2026-05-02T09:47:43Z</time></trkpt><trkpt lat="42.93481505421114" lon="13.568344166890258"><ele>652.5</ele><time>2026-05-02T09:47:44Z</time></trkpt><trkpt lat="42.934870382376936" lon="13.568481438920207"><ele>654.0</ele><time>2026-05-02T09:47:46Z</time></trkpt><trkpt lat="42.9348369926674" lon="13.568597939172731"><ele>654.0</ele><time>2026-05-02T09:47:48Z</time></trkpt><trkpt lat="42.93474897431823" lon="13.568649800412013"><ele>654.0</ele><time>2026-05-02T09:47:50Z</time></trkpt><trkpt lat="42.93463578623485" lon="13.568624430053744"><ele>654.0</ele><time>2026-05-02T09:47:52Z</time></trkpt><trkpt lat="42.934564849406314" lon="13.568628653893123"><ele>654.0</ele><time>2026-05-02T09:47:53Z</time></trkpt><trkpt lat="42.93449049922714" lon="13.568633594569123"><ele>654.0</ele><time>2026-05-02T09:47:54Z</time></trkpt><trkpt lat="42.934416841491064" lon="13.568639697550175"><ele>654.0</ele><time>2026-05-02T09:47:55Z</time></trkpt><trkpt lat="42.93434018899901" lon="13.568646048663581"><ele>654.0</ele><time>2026-05-02T09:47:56Z</time></trkpt><trkpt lat="42.93426265857892" lon="13.568651623613796"><ele>654.0</ele><time>2026-05-02T09:47:57Z</time></trkpt><trkpt lat="42.934177907328205" lon="13.568655524997663"><ele>654.0</ele><time>2026-05-02T09:47:58Z</time></trkpt><trkpt lat="42.93409441975235" lon="13.568659368210122"><ele>654.0</ele><time>2026-05-02T09:47:59Z</time></trkpt><trkpt lat="42.93401720333451" lon="13.568659939086192"><ele>654.0</ele><time>2026-05-02T09:48:00Z</time></trkpt><trkpt lat="42.933934354666185" lon="13.568658017529863"><ele>654.0</ele><time>2026-05-02T09:48:01Z</time></trkpt><trkpt lat="42.933834225877185" lon="13.568635808825274"><ele>656.8000000000001</ele><time>2026-05-02T09:48:02Z</time></trkpt><trkpt lat="42.93372900923803" lon="13.568598597220058"><ele>659.6</ele><time>2026-05-02T09:48:02.999Z</time></trkpt><trkpt lat="42.93361615085844" lon="13.568559026260841"><ele>662.4</ele><time>2026-05-02T09:48:03.999Z</time></trkpt><trkpt lat="42.93352179634151" lon="13.568523787608347"><ele>665.2</ele><time>2026-05-02T09:48:04.999Z</time></trkpt><trkpt lat="42.933425559546414" lon="13.568502252588502"><ele>668.0</ele><time>2026-05-02T09:48:05.999Z</time></trkpt><trkpt lat="42.93333196979545" lon="13.568439042504004"><ele>670.0</ele><time>2026-05-02T09:48:06.999Z</time></trkpt><trkpt lat="42.93323575810311" lon="13.56838348643105"><ele>672.0</ele><time>2026-05-02T09:48:07.999Z</time></trkpt><trkpt lat="42.933157117134364" lon="13.56833116645027"><ele>674.0</ele><time>2026-05-02T09:48:08.999Z</time></trkpt><trkpt lat="42.933104455075366" lon="13.568283390110524"><ele>676.0</ele><time>2026-05-02T09:48:09.999Z</time></trkpt><trkpt lat="42.93299784284906" lon="13.568187930126134"><ele>678.0</ele><time>2026-05-02T09:48:11.999Z</time></trkpt><trkpt lat="42.9329268814383" lon="13.568121275428679"><ele>678.0</ele><time>2026-05-02T09:48:12.999Z</time></trkpt><trkpt lat="42.932840337462494" lon="13.568064508634661"><ele>678.0</ele><time>2026-05-02T09:48:13.999Z</time></trkpt><trkpt lat="42.932787601264934" lon="13.567973385763612"><ele>678.0</ele><time>2026-05-02T09:48:14.999Z</time></trkpt><trkpt lat="42.93272533820723" lon="13.567891614436698"><ele>678.0</ele><time>2026-05-02T09:48:15.999Z</time></trkpt><trkpt lat="42.93266946933056" lon="13.567799170871389"><ele>678.0</ele><time>2026-05-02T09:48:16.999Z</time></trkpt><trkpt lat="42.9326253468537" lon="13.567697835183289"><ele>678.0</ele><time>2026-05-02T09:48:17.999Z</time></trkpt><trkpt lat="42.93258768779339" lon="13.567579349810604"><ele>677.2</ele><time>2026-05-02T09:48:18.999Z</time></trkpt><trkpt lat="42.932570425034605" lon="13.567440667130066"><ele>676.4</ele><time>2026-05-02T09:48:19.999Z</time></trkpt><trkpt lat="42.93255928493787" lon="13.567286702376801"><ele>675.6</ele><time>2026-05-02T09:48:20.999Z</time></trkpt><trkpt lat="42.93254064401546" lon="13.56713599186828"><ele>674.8000000000001</ele><time>2026-05-02T09:48:21.999Z</time></trkpt><trkpt lat="42.93252660809915" lon="13.566978318877617"><ele>674.0</ele><time>2026-05-02T09:48:22.999Z</time></trkpt><trkpt lat="42.9325425148757" lon="13.566820766684247"><ele>673.6</ele><time>2026-05-02T09:48:23.999Z</time></trkpt><trkpt lat="42.932541264504565" lon="13.566674520789805"><ele>673.2</ele><time>2026-05-02T09:48:24.999Z</time></trkpt><trkpt lat="42.93261004300291" lon="13.566575418863227"><ele>672.8000000000001</ele><time>2026-05-02T09:48:25.999Z</time></trkpt><trkpt lat="42.93264879088915" lon="13.566457926194616"><ele>672.4000000000001</ele><time>2026-05-02T09:48:26.999Z</time></trkpt><trkpt lat="42.93269586558776" lon="13.566363778819317"><ele>672.0</ele><time>2026-05-02T09:48:27.999Z</time></trkpt><trkpt lat="42.93271927448564" lon="13.566279795260328"><ele>671.3333333333334</ele><time>2026-05-02T09:48:28.999Z</time></trkpt><trkpt lat="42.93271514559789" lon="13.5661925118777"><ele>670.6666666666666</ele><time>2026-05-02T09:48:29.999Z</time></trkpt><trkpt lat="42.932677500720665" lon="13.566118891883672"><ele>670.0</ele><time>2026-05-02T09:48:30.999Z</time></trkpt><trkpt lat="42.93261775049054" lon="13.566079706916483"><ele>669.3333333333333</ele><time>2026-05-02T09:48:31.999Z</time></trkpt><trkpt lat="42.9325395447339" lon="13.566035025377053"><ele>668.6666666666666</ele><time>2026-05-02T09:48:32.999Z</time></trkpt><trkpt lat="42.93243201258231" lon="13.56602036323462"><ele>668.0</ele><time>2026-05-02T09:48:33.999Z</time></trkpt><trkpt lat="42.93229723303592" lon="13.566024262071906"><ele>672.0</ele><time>2026-05-02T09:48:34.999Z</time></trkpt><trkpt lat="42.9321620321196" lon="13.566002086949235"><ele>676.0</ele><time>2026-05-02T09:48:35.999Z</time></trkpt><trkpt lat="42.93204753255267" lon="13.565956172840092"><ele>680.0</ele><time>2026-05-02T09:48:36.999Z</time></trkpt><trkpt lat="42.93193972943741" lon="13.565926518812553"><ele>684.0</ele><time>2026-05-02T09:48:37.999Z</time></trkpt><trkpt lat="42.931836495470876" lon="13.56589608865122"><ele>684.0</ele><time>2026-05-02T09:48:38.999Z</time></trkpt><trkpt lat="42.93173144867024" lon="13.565870610357395"><ele>684.0</ele><time>2026-05-02T09:48:39.999Z</time></trkpt><trkpt lat="42.93161850974525" lon="13.565860030696198"><ele>684.0</ele><time>2026-05-02T09:48:40.999Z</time></trkpt><trkpt lat="42.9315087384254" lon="13.565859829507433"><ele>684.0</ele><time>2026-05-02T09:48:41.999Z</time></trkpt><trkpt lat="42.93140088659129" lon="13.565863317033521"><ele>684.0</ele><time>2026-05-02T09:48:42.999Z</time></trkpt><trkpt lat="42.931289088780176" lon="13.565874722438181"><ele>685.4000000000001</ele><time>2026-05-02T09:48:43.999Z</time></trkpt><trkpt lat="42.931183003154956" lon="13.565896654565668"><ele>686.8</ele><time>2026-05-02T09:48:44.999Z</time></trkpt><trkpt lat="42.93109725575681" lon="13.56594462758358"><ele>688.2</ele><time>2026-05-02T09:48:45.999Z</time></trkpt><trkpt lat="42.931008420114445" lon="13.565965676415852"><ele>689.5999999999999</ele><time>2026-05-02T09:48:46.999Z</time></trkpt><trkpt lat="42.93092158108975" lon="13.565992996866958"><ele>691.0</ele><time>2026-05-02T09:48:47.999Z</time></trkpt><trkpt lat="42.93084005952744" lon="13.565990000769737"><ele>691.8333333333334</ele><time>2026-05-02T09:48:48.999Z</time></trkpt><trkpt lat="42.93076149470845" lon="13.566001674489305"><ele>692.6666666666667</ele><time>2026-05-02T09:48:49.999Z</time></trkpt><trkpt lat="42.93068318841672" lon="13.566000051187528"><ele>693.5</ele><time>2026-05-02T09:48:50.999Z</time></trkpt><trkpt lat="42.93060497309274" lon="13.56598197820951"><ele>694.3333333333334</ele><time>2026-05-02T09:48:51.999Z</time></trkpt><trkpt lat="42.930534113200395" lon="13.565943767573543"><ele>695.1666666666666</ele><time>2026-05-02T09:48:52.999Z</time></trkpt><trkpt lat="42.930464041902994" lon="13.565898801335402"><ele>696.0</ele><time>2026-05-02T09:48:53.999Z</time></trkpt><trkpt lat="42.93039386272927" lon="13.565848362211073"><ele>696.0</ele><time>2026-05-02T09:48:54.999Z</time></trkpt><trkpt lat="42.93031922292238" lon="13.56579946003121"><ele>696.0</ele><time>2026-05-02T09:48:55.999Z</time></trkpt><trkpt lat="42.930239345273" lon="13.565755087192928"><ele>696.0</ele><time>2026-05-02T09:48:56.999Z</time></trkpt><trkpt lat="42.9301611292093" lon="13.565709787865474"><ele>696.0</ele><time>2026-05-02T09:48:57.999Z</time></trkpt><trkpt lat="42.93010043246813" lon="13.565671111731644"><ele>696.0</ele><time>2026-05-02T09:48:58.999Z</time></trkpt><trkpt lat="42.92999618256171" lon="13.56560051107643"><ele>696.0</ele><time>2026-05-02T09:49:00.999Z</time></trkpt><trkpt lat="42.92992266699734" lon="13.565533540137977"><ele>695.8</ele><time>2026-05-02T09:49:02.999Z</time></trkpt><trkpt lat="42.929888321124906" lon="13.565425647241149"><ele>695.5999999999999</ele><time>2026-05-02T09:49:04.999Z</time></trkpt><trkpt lat="42.92993661086115" lon="13.565322156053208"><ele>695.4</ele><time>2026-05-02T09:49:06.999Z</time></trkpt><trkpt lat="42.93002516011962" lon="13.565184316966725"><ele>695.2</ele><time>2026-05-02T09:49:08.999Z</time></trkpt><trkpt lat="42.9300814294" lon="13.565086079513732"><ele>695.0</ele><time>2026-05-02T09:49:09.999Z</time></trkpt><trkpt lat="42.93014676937862" lon="13.564968462465828"><ele>695.0</ele><time>2026-05-02T09:49:10.999Z</time></trkpt><trkpt lat="42.93020330294269" lon="13.564851510875954"><ele>695.0</ele><time>2026-05-02T09:49:11.999Z</time></trkpt><trkpt lat="42.930262915160384" lon="13.564739796688661"><ele>695.0</ele><time>2026-05-02T09:49:12.999Z</time></trkpt><trkpt lat="42.93032466128311" lon="13.564621009749741"><ele>695.0</ele><time>2026-05-02T09:49:13.999Z</time></trkpt><trkpt lat="42.93038275358807" lon="13.564495902198114"><ele>695.0</ele><time>2026-05-02T09:49:14.999Z</time></trkpt><trkpt lat="42.930446277957394" lon="13.56436402838309"><ele>698.2</ele><time>2026-05-02T09:49:15.999Z</time></trkpt><trkpt lat="42.93050986048632" lon="13.564221423855068"><ele>701.4</ele><time>2026-05-02T09:49:16.999Z</time></trkpt><trkpt lat="42.930566805441785" lon="13.56409707291234"><ele>704.5999999999999</ele><time>2026-05-02T09:49:17.999Z</time></trkpt><trkpt lat="42.93061326427672" lon="13.56401334239217"><ele>707.8</ele><time>2026-05-02T09:49:18.999Z</time></trkpt><trkpt lat="42.93069861198917" lon="13.563869696571574"><ele>711.0</ele><time>2026-05-02T09:49:20.999Z</time></trkpt><trkpt lat="42.930745652951686" lon="13.563787117733762"><ele>711.0</ele><time>2026-05-02T09:49:21.999Z</time></trkpt><trkpt lat="42.93079826736482" lon="13.563710120003714"><ele>711.0</ele><time>2026-05-02T09:49:22.998Z</time></trkpt><trkpt lat="42.93084334674987" lon="13.563643450537384"><ele>711.0</ele><time>2026-05-02T09:49:23.998Z</time></trkpt><trkpt lat="42.930877099856815" lon="13.563485908183655"><ele>711.0</ele><time>2026-05-02T09:49:25.998Z</time></trkpt><trkpt lat="42.93086643842989" lon="13.563392400334607"><ele>711.0</ele><time>2026-05-02T09:49:26.998Z</time></trkpt><trkpt lat="42.9308275969566" lon="13.563323482862987"><ele>711.0</ele><time>2026-05-02T09:49:28Z</time></trkpt><trkpt lat="42.930773245703115" lon="13.563273417238971"><ele>712.5999999999999</ele><time>2026-05-02T09:49:29Z</time></trkpt><trkpt lat="42.93069731318911" lon="13.563239713202686"><ele>714.2</ele><time>2026-05-02T09:49:31Z</time></trkpt><trkpt lat="42.93062565123815" lon="13.563279431066015"><ele>715.8</ele><time>2026-05-02T09:49:33Z</time></trkpt><trkpt lat="42.93054564615882" lon="13.5634215326068"><ele>717.4000000000001</ele><time>2026-05-02T09:49:35Z</time></trkpt><trkpt lat="42.9304875561017" lon="13.56353137083596"><ele>719.0</ele><time>2026-05-02T09:49:36Z</time></trkpt><trkpt lat="42.930409345937775" lon="13.56364793634008"><ele>717.0</ele><time>2026-05-02T09:49:37Z</time></trkpt><trkpt lat="42.93032653739448" lon="13.56375069846677"><ele>715.0</ele><time>2026-05-02T09:49:38Z</time></trkpt><trkpt lat="42.93022851649219" lon="13.563868154822671"><ele>713.0</ele><time>2026-05-02T09:49:39Z</time></trkpt><trkpt lat="42.93012882604857" lon="13.56400823863613"><ele>711.0</ele><time>2026-05-02T09:49:40Z</time></trkpt><trkpt lat="42.93003023994781" lon="13.564136245387674"><ele>715.5999999999999</ele><time>2026-05-02T09:49:41Z</time></trkpt><trkpt lat="42.92994184486096" lon="13.564243456025851"><ele>720.2</ele><time>2026-05-02T09:49:42Z</time></trkpt><trkpt lat="42.929867133329374" lon="13.56435906495479"><ele>724.8</ele><time>2026-05-02T09:49:43Z</time></trkpt><trkpt lat="42.92980054982438" lon="13.564450649787494"><ele>729.4000000000001</ele><time>2026-05-02T09:49:44Z</time></trkpt><trkpt lat="42.9297376872107" lon="13.56451909154835"><ele>734.0</ele><time>2026-05-02T09:49:45Z</time></trkpt><trkpt lat="42.929623212015755" lon="13.564518527306923"><ele>734.0</ele><time>2026-05-02T09:49:47Z</time></trkpt><trkpt lat="42.929583061469174" lon="13.564437550088853"><ele>734.0</ele><time>2026-05-02T09:49:48Z</time></trkpt><trkpt lat="42.92952569875977" lon="13.564363962018712"><ele>734.0</ele><time>2026-05-02T09:49:49Z</time></trkpt><trkpt lat="42.92945043094146" lon="13.56428302047785"><ele>734.0</ele><time>2026-05-02T09:49:50Z</time></trkpt><trkpt lat="42.92936653520316" lon="13.564191541841216"><ele>734.0</ele><time>2026-05-02T09:49:51Z</time></trkpt><trkpt lat="42.929284811073494" lon="13.564095920301638"><ele>734.0</ele><time>2026-05-02T09:49:52Z</time></trkpt><trkpt lat="42.929225832408015" lon="13.564008873994553"><ele>734.0</ele><time>2026-05-02T09:49:53Z</time></trkpt><trkpt lat="42.92918057734024" lon="13.563941145006615"><ele>734.0</ele><time>2026-05-02T09:49:54Z</time></trkpt><trkpt lat="42.92909875060803" lon="13.563831952683513"><ele>734.0</ele><time>2026-05-02T09:49:56Z</time></trkpt><trkpt lat="42.929049045406735" lon="13.563778365849185"><ele>734.0</ele><time>2026-05-02T09:49:57Z</time></trkpt><trkpt lat="42.92894106629127" lon="13.563686342861256"><ele>736.6666666666666</ele><time>2026-05-02T09:49:59Z</time></trkpt><trkpt lat="42.92887630729764" lon="13.563637717178613"><ele>739.3333333333333</ele><time>2026-05-02T09:50:00Z</time></trkpt><trkpt lat="42.9288050544056" lon="13.563577866041987"><ele>742.0</ele><time>2026-05-02T09:50:01Z</time></trkpt><trkpt lat="42.928723898874615" lon="13.563520952621367"><ele>744.6666666666666</ele><time>2026-05-02T09:50:02Z</time></trkpt><trkpt lat="42.92864018890724" lon="13.563456463934186"><ele>747.3333333333334</ele><time>2026-05-02T09:50:03Z</time></trkpt><trkpt lat="42.928574397799586" lon="13.563399347450252"><ele>750.0</ele><time>2026-05-02T09:50:04Z</time></trkpt><trkpt lat="42.928543465800665" lon="13.563321978995535"><ele>750.0</ele><time>2026-05-02T09:50:05Z</time></trkpt><trkpt lat="42.92849594041479" lon="13.563261923047856"><ele>750.0</ele><time>2026-05-02T09:50:06Z</time></trkpt><trkpt lat="42.92849678507306" lon="13.563159412199731"><ele>750.0</ele><time>2026-05-02T09:50:07Z</time></trkpt><trkpt lat="42.928484004647345" lon="13.563022263850394"><ele>750.0</ele><time>2026-05-02T09:50:08.999Z</time></trkpt><trkpt lat="42.928499814431326" lon="13.563144356188014"><ele>750.0</ele><time>2026-05-02T09:50:36.999Z</time></trkpt><trkpt lat="42.92851190901401" lon="13.563240215586992"><ele>750.0</ele><time>2026-05-02T09:50:45.999Z</time></trkpt><trkpt lat="42.92852237224237" lon="13.563334712785323"><ele>750.0</ele><time>2026-05-02T09:50:47.999Z</time></trkpt><trkpt lat="42.92859824092238" lon="13.563424215916145"><ele>750.0</ele><time>2026-05-02T09:50:49.999Z</time></trkpt><trkpt lat="42.92869217603612" lon="13.563509831003374"><ele>750.0</ele><time>2026-05-02T09:50:51.999Z</time></trkpt><trkpt lat="42.92879396398405" lon="13.563591181258575"><ele>750.0</ele><time>2026-05-02T09:50:53.999Z</time></trkpt><trkpt lat="42.92890176402406" lon="13.56363083749745"><ele>750.0</ele><time>2026-05-02T09:50:55.999Z</time></trkpt><trkpt lat="42.92901378316692" lon="13.563711984723845"><ele>748.0</ele><time>2026-05-02T09:50:57.999Z</time></trkpt><trkpt lat="42.929086810781975" lon="13.563832177852314"><ele>746.0</ele><time>2026-05-02T09:50:59.999Z</time></trkpt><trkpt lat="42.92915029883286" lon="13.563920476352543"><ele>744.0</ele><time>2026-05-02T09:51:01.999Z</time></trkpt><trkpt lat="42.92920764892029" lon="13.56404361475609"><ele>742.0</ele><time>2026-05-02T09:51:03.999Z</time></trkpt><trkpt lat="42.92925642738099" lon="13.564101856083422"><ele>740.0</ele><time>2026-05-02T09:51:04.999Z</time></trkpt><trkpt lat="42.929308365235784" lon="13.564165451994286"><ele>738.0</ele><time>2026-05-02T09:51:05.999Z</time></trkpt><trkpt lat="42.92936757933442" lon="13.56423660752647"><ele>737.3333333333334</ele><time>2026-05-02T09:51:06.999Z</time></trkpt><trkpt lat="42.92943326830773" lon="13.564309581756469"><ele>736.6666666666666</ele><time>2026-05-02T09:51:07.999Z</time></trkpt><trkpt lat="42.929502047756664" lon="13.564384164226702"><ele>736.0</ele><time>2026-05-02T09:51:08.999Z</time></trkpt><trkpt lat="42.929563712812566" lon="13.564453168690607"><ele>735.3333333333333</ele><time>2026-05-02T09:51:09.999Z</time></trkpt><trkpt lat="42.929615444432" lon="13.564510660511464"><ele>734.6666666666666</ele><time>2026-05-02T09:51:10.999Z</time></trkpt><trkpt lat="42.92972581068893" lon="13.564546977200637"><ele>734.0</ele><time>2026-05-02T09:51:12.999Z</time></trkpt><trkpt lat="42.92978930667909" lon="13.564514778029679"><ele>734.0</ele><time>2026-05-02T09:51:13.999Z</time></trkpt><trkpt lat="42.92985079877057" lon="13.56443095992344"><ele>734.0</ele><time>2026-05-02T09:51:14.999Z</time></trkpt><trkpt lat="42.92990531786817" lon="13.564344207792137"><ele>734.0</ele><time>2026-05-02T09:51:15.999Z</time></trkpt><trkpt lat="42.92996263528397" lon="13.564258489099725"><ele>734.0</ele><time>2026-05-02T09:51:16.999Z</time></trkpt><trkpt lat="42.93001687367476" lon="13.564180009747027"><ele>734.0</ele><time>2026-05-02T09:51:17.999Z</time></trkpt><trkpt lat="42.9300729986971" lon="13.564105115273485"><ele>734.0</ele><time>2026-05-02T09:51:18.999Z</time></trkpt><trkpt lat="42.9301275506694" lon="13.564035097081488"><ele>731.0</ele><time>2026-05-02T09:51:19.999Z</time></trkpt><trkpt lat="42.930213619844224" lon="13.563925420710035"><ele>728.0</ele><time>2026-05-02T09:51:21.999Z</time></trkpt><trkpt lat="42.930282250795365" lon="13.563830946772057"><ele>725.0</ele><time>2026-05-02T09:51:23.999Z</time></trkpt><trkpt lat="42.93033116885171" lon="13.563774356722387"><ele>722.0</ele><time>2026-05-02T09:51:25.998Z</time></trkpt><trkpt lat="42.93039282992216" lon="13.563697776656719"><ele>719.0</ele><time>2026-05-02T09:52:43.999Z</time></trkpt><trkpt lat="42.93046122501506" lon="13.563602411155639"><ele>719.0</ele><time>2026-05-02T09:52:45.999Z</time></trkpt><trkpt lat="42.9305340890701" lon="13.56348918859895"><ele>719.0</ele><time>2026-05-02T09:52:47.999Z</time></trkpt><trkpt lat="42.93059397017652" lon="13.563375913273223"><ele>719.0</ele><time>2026-05-02T09:52:49.999Z</time></trkpt><trkpt lat="42.93065737902289" lon="13.563297168957915"><ele>719.0</ele><time>2026-05-02T09:52:51.999Z</time></trkpt><trkpt lat="42.93073580315909" lon="13.563289331087011"><ele>719.0</ele><time>2026-05-02T09:52:54.999Z</time></trkpt><trkpt lat="42.93080020814276" lon="13.563308288641386"><ele>719.0</ele><time>2026-05-02T09:52:56.999Z</time></trkpt><trkpt lat="42.93086480268352" lon="13.5634356300359"><ele>718.9999999999999</ele><time>2026-05-02T09:52:58.999Z</time></trkpt><trkpt lat="42.9308624505895" lon="13.563522223571608"><ele>719.0</ele><time>2026-05-02T09:52:59.999Z</time></trkpt><trkpt lat="42.93084136558756" lon="13.56360359452691"><ele>719.0</ele><time>2026-05-02T09:53:00.999Z</time></trkpt><trkpt lat="42.930803300471155" lon="13.563675449365366"><ele>719.0</ele><time>2026-05-02T09:53:01.999Z</time></trkpt><trkpt lat="42.93074501672139" lon="13.563726118336747"><ele>719.0</ele><time>2026-05-02T09:53:02.999Z</time></trkpt><trkpt lat="42.93069767957334" lon="13.563792104975686"><ele>718.9999999999999</ele><time>2026-05-02T09:53:03.999Z</time></trkpt><trkpt lat="42.93064890505943" lon="13.563874249841675"><ele>719.0</ele><time>2026-05-02T09:53:04.999Z</time></trkpt><trkpt lat="42.93060827161769" lon="13.56395080229251"><ele>717.4000000000001</ele><time>2026-05-02T09:53:05.999Z</time></trkpt><trkpt lat="42.93057144939394" lon="13.564024573093079"><ele>715.8</ele><time>2026-05-02T09:53:06.999Z</time></trkpt><trkpt lat="42.93051604118946" lon="13.564143364709867"><ele>714.2</ele><time>2026-05-02T09:53:08.999Z</time></trkpt><trkpt lat="42.93044838635281" lon="13.564290797165548"><ele>712.5999999999999</ele><time>2026-05-02T09:53:10.999Z</time></trkpt><trkpt lat="42.93040641834214" lon="13.564377985727946"><ele>711.0</ele><time>2026-05-02T09:53:11.999Z</time></trkpt><trkpt lat="42.93036167857297" lon="13.564466941669904"><ele>711.7142857142858</ele><time>2026-05-02T09:53:12.999Z</time></trkpt><trkpt lat="42.93031788061217" lon="13.564553300321608"><ele>712.4285714285714</ele><time>2026-05-02T09:53:13.999Z</time></trkpt><trkpt lat="42.93027457706608" lon="13.564636572032464"><ele>713.1428571428571</ele><time>2026-05-02T09:53:14.999Z</time></trkpt><trkpt lat="42.93023352087155" lon="13.564714753299654"><ele>713.8571428571429</ele><time>2026-05-02T09:53:15.999Z</time></trkpt><trkpt lat="42.93019205483698" lon="13.564791660256006"><ele>714.5714285714286</ele><time>2026-05-02T09:53:16.999Z</time></trkpt><trkpt lat="42.93015091985225" lon="13.564867953380519"><ele>715.2857142857143</ele><time>2026-05-02T09:53:17.999Z</time></trkpt><trkpt lat="42.930108755574196" lon="13.564945700576144"><ele>716.0</ele><time>2026-05-02T09:53:18.999Z</time></trkpt><trkpt lat="42.93002561654811" lon="13.565094858031037"><ele>716.0</ele><time>2026-05-02T09:53:20.999Z</time></trkpt><trkpt lat="42.92997957897844" lon="13.565177452443479"><ele>716.0</ele><time>2026-05-02T09:53:21.999Z</time></trkpt><trkpt lat="42.929940378256674" lon="13.565247780924633"><ele>716.0</ele><time>2026-05-02T09:53:22.999Z</time></trkpt><trkpt lat="42.92987281119795" lon="13.565368898374276"><ele>716.0</ele><time>2026-05-02T09:53:24.999Z</time></trkpt><trkpt lat="42.92986844889676" lon="13.565517667843409"><ele>716.0</ele><time>2026-05-02T09:53:26.999Z</time></trkpt><trkpt lat="42.929901249665285" lon="13.565595626786298"><ele>716.0</ele><time>2026-05-02T09:53:27.999Z</time></trkpt><trkpt lat="42.92997428040911" lon="13.565633845790572"><ele>713.4285714285714</ele><time>2026-05-02T09:53:28.999Z</time></trkpt><trkpt lat="42.930036920168234" lon="13.56566285785302"><ele>710.8571428571429</ele><time>2026-05-02T09:53:29.999Z</time></trkpt><trkpt lat="42.9300988431484" lon="13.565720172791755"><ele>708.2857142857142</ele><time>2026-05-02T09:53:30.999Z</time></trkpt><trkpt lat="42.93018045202597" lon="13.565771647550177"><ele>705.7142857142858</ele><time>2026-05-02T09:53:31.999Z</time></trkpt><trkpt lat="42.93024475075884" lon="13.565806916704231"><ele>703.1428571428571</ele><time>2026-05-02T09:53:32.999Z</time></trkpt><trkpt lat="42.930316008115845" lon="13.56582821053266"><ele>700.5714285714286</ele><time>2026-05-02T09:53:33.999Z</time></trkpt><trkpt lat="42.930380403948966" lon="13.565875792163657"><ele>698.0</ele><time>2026-05-02T09:53:34.999Z</time></trkpt><trkpt lat="42.93045068456652" lon="13.56592357507856"><ele>697.6666666666666</ele><time>2026-05-02T09:53:35.999Z</time></trkpt><trkpt lat="42.93052069199371" lon="13.565973533624952"><ele>697.3333333333333</ele><time>2026-05-02T09:53:36.999Z</time></trkpt><trkpt lat="42.930595577027795" lon="13.566009100904788"><ele>697.0</ele><time>2026-05-02T09:53:37.998Z</time></trkpt><trkpt lat="42.93067749100105" lon="13.566040050218323"><ele>696.6666666666666</ele><time>2026-05-02T09:53:39Z</time></trkpt><trkpt lat="42.93076217299433" lon="13.566059721233373"><ele>696.3333333333334</ele><time>2026-05-02T09:53:40Z</time></trkpt><trkpt lat="42.93085387762564" lon="13.566051852607806"><ele>696.0</ele><time>2026-05-02T09:53:40.999Z</time></trkpt><trkpt lat="42.93094232371859" lon="13.56601295840851"><ele>695.1666666666666</ele><time>2026-05-02T09:53:41.999Z</time></trkpt><trkpt lat="42.93101946807979" lon="13.565975625879176"><ele>694.3333333333334</ele><time>2026-05-02T09:53:42.999Z</time></trkpt><trkpt lat="42.93108697320484" lon="13.565975476104073"><ele>693.5</ele><time>2026-05-02T09:53:44Z</time></trkpt><trkpt lat="42.93115644978531" lon="13.56594156199546"><ele>692.6666666666667</ele><time>2026-05-02T09:53:44.999Z</time></trkpt><trkpt lat="42.93123762252569" lon="13.565915575042345"><ele>691.8333333333334</ele><time>2026-05-02T09:53:46Z</time></trkpt><trkpt lat="42.93132819025833" lon="13.565902079270705"><ele>691.0</ele><time>2026-05-02T09:53:47Z</time></trkpt><trkpt lat="42.93142887067587" lon="13.565891138131622"><ele>691.0</ele><time>2026-05-02T09:53:48Z</time></trkpt><trkpt lat="42.93153157459445" lon="13.565886350553281"><ele>691.0</ele><time>2026-05-02T09:53:49Z</time></trkpt><trkpt lat="42.93162590484221" lon="13.565894418309883"><ele>691.0</ele><time>2026-05-02T09:53:50Z</time></trkpt><trkpt lat="42.931721353838164" lon="13.565907074292603"><ele>691.0</ele><time>2026-05-02T09:53:51Z</time></trkpt><trkpt lat="42.93181998465543" lon="13.565929201469503"><ele>691.0</ele><time>2026-05-02T09:53:52Z</time></trkpt><trkpt lat="42.931918287827784" lon="13.565957043354894"><ele>689.5999999999999</ele><time>2026-05-02T09:53:53Z</time></trkpt><trkpt lat="42.93200919039399" lon="13.565984442296731"><ele>688.2</ele><time>2026-05-02T09:53:54Z</time></trkpt><trkpt lat="42.9320863898195" lon="13.566008083031688"><ele>686.8</ele><time>2026-05-02T09:53:54.999Z</time></trkpt><trkpt lat="42.93215373262447" lon="13.56601742784749"><ele>685.4000000000001</ele><time>2026-05-02T09:53:55.999Z</time></trkpt><trkpt lat="42.932272783577446" lon="13.566028185792247"><ele>684.0</ele><time>2026-05-02T09:53:57.999Z</time></trkpt><trkpt lat="42.93238138739121" lon="13.566045920336977"><ele>684.0</ele><time>2026-05-02T09:53:59.999Z</time></trkpt><trkpt lat="42.932485179026216" lon="13.566063692867154"><ele>684.0</ele><time>2026-05-02T09:54:01.999Z</time></trkpt><trkpt lat="42.932590007297" lon="13.566093368048383"><ele>684.0</ele><time>2026-05-02T09:54:03.999Z</time></trkpt><trkpt lat="42.93268159004844" lon="13.566161392153361"><ele>684.0</ele><time>2026-05-02T09:54:05.999Z</time></trkpt><trkpt lat="42.932698571197335" lon="13.566290802918925"><ele>684.0</ele><time>2026-05-02T09:54:07.999Z</time></trkpt><trkpt lat="42.93265916203734" lon="13.566415757965078"><ele>684.8000000000001</ele><time>2026-05-02T09:54:09.999Z</time></trkpt><trkpt lat="42.93261585854752" lon="13.566499421024131"><ele>685.6</ele><time>2026-05-02T09:54:11.999Z</time></trkpt><trkpt lat="42.93257876721729" lon="13.566594782941413"><ele>686.4</ele><time>2026-05-02T09:54:13.999Z</time></trkpt><trkpt lat="42.9325157652724" lon="13.566707007916143"><ele>687.2</ele><time>2026-05-02T09:54:15.999Z</time></trkpt><trkpt lat="42.932516505703504" lon="13.566856795716044"><ele>688.0</ele><time>2026-05-02T09:54:17.999Z</time></trkpt><trkpt lat="42.93252117784673" lon="13.567020478614202"><ele>687.7142857142858</ele><time>2026-05-02T09:54:19.999Z</time></trkpt><trkpt lat="42.93252469596965" lon="13.567110584564054"><ele>687.4285714285714</ele><time>2026-05-02T09:54:20.999Z</time></trkpt><trkpt lat="42.93252885689799" lon="13.567198852730504"><ele>687.1428571428571</ele><time>2026-05-02T09:54:21.999Z</time></trkpt><trkpt lat="42.93253563653295" lon="13.567289925576405"><ele>686.8571428571429</ele><time>2026-05-02T09:54:22.999Z</time></trkpt><trkpt lat="42.93254279064564" lon="13.56738107503296"><ele>686.5714285714286</ele><time>2026-05-02T09:54:23.999Z</time></trkpt><trkpt lat="42.93255019549965" lon="13.567467494783129"><ele>686.2857142857143</ele><time>2026-05-02T09:54:24.999Z</time></trkpt><trkpt lat="42.93257304650241" lon="13.56762499545049"><ele>686.0</ele><time>2026-05-02T09:54:26.999Z</time></trkpt><trkpt lat="42.93262027666796" lon="13.567775143567426"><ele>684.8571428571429</ele><time>2026-05-02T09:54:28.999Z</time></trkpt><trkpt lat="42.93266011225861" lon="13.567849099161354"><ele>683.7142857142858</ele><time>2026-05-02T09:54:29.999Z</time></trkpt><trkpt lat="42.93270293905084" lon="13.567922063283268"><ele>682.5714285714286</ele><time>2026-05-02T09:54:30.999Z</time></trkpt><trkpt lat="42.932746730544686" lon="13.5679860603862"><ele>681.4285714285714</ele><time>2026-05-02T09:54:31.999Z</time></trkpt><trkpt lat="42.932823032931225" lon="13.568072518847586"><ele>680.2857142857143</ele><time>2026-05-02T09:54:33.999Z</time></trkpt><trkpt lat="42.93287692391094" lon="13.568129418166423"><ele>679.1428571428571</ele><time>2026-05-02T09:54:36.999Z</time></trkpt><trkpt lat="42.932938400272064" lon="13.568160659211884"><ele>678.0</ele><time>2026-05-02T09:56:22.999Z</time></trkpt><trkpt lat="42.93301025852166" lon="13.568260563744975"><ele>678.0</ele><time>2026-05-02T09:56:24.999Z</time></trkpt><trkpt lat="42.93307236828145" lon="13.568316044579934"><ele>678.0</ele><time>2026-05-02T09:56:26.999Z</time></trkpt><trkpt lat="42.93314664776293" lon="13.568381007099987"><ele>678.0</ele><time>2026-05-02T09:56:29.999Z</time></trkpt><trkpt lat="42.93323509131753" lon="13.568443576195634"><ele>678.0</ele><time>2026-05-02T09:56:31.999Z</time></trkpt><trkpt lat="42.93330606640877" lon="13.568479634772366"><ele>678.0</ele><time>2026-05-02T09:56:32.999Z</time></trkpt><trkpt lat="42.933373138276245" lon="13.56851354837541"><ele>678.0</ele><time>2026-05-02T09:56:33.999Z</time></trkpt><trkpt lat="42.93344094382444" lon="13.568539689744988"><ele>676.3333333333334</ele><time>2026-05-02T09:56:34.999Z</time></trkpt><trkpt lat="42.93350367082801" lon="13.568561024770759"><ele>674.6666666666666</ele><time>2026-05-02T09:56:35.999Z</time></trkpt><trkpt lat="42.93356554329183" lon="13.568584033607745"><ele>673.0</ele><time>2026-05-02T09:56:36.999Z</time></trkpt><trkpt lat="42.93362559788173" lon="13.568613973620284"><ele>671.3333333333333</ele><time>2026-05-02T09:56:37.999Z</time></trkpt><trkpt lat="42.933696494358855" lon="13.56863393543798"><ele>669.6666666666666</ele><time>2026-05-02T09:56:38.999Z</time></trkpt><trkpt lat="42.93382559511187" lon="13.568668955962625"><ele>668.0</ele><time>2026-05-02T09:56:40.999Z</time></trkpt><trkpt lat="42.933894069640445" lon="13.568683163917504"><ele>668.0</ele><time>2026-05-02T09:56:41.999Z</time></trkpt><trkpt lat="42.93397083732589" lon="13.568700398465513"><ele>668.0</ele><time>2026-05-02T09:56:42.999Z</time></trkpt><trkpt lat="42.934046200017214" lon="13.568693372968106"><ele>668.0</ele><time>2026-05-02T09:56:43.999Z</time></trkpt><trkpt lat="42.934118991140835" lon="13.568691659762603"><ele>668.0</ele><time>2026-05-02T09:56:44.999Z</time></trkpt><trkpt lat="42.93418240840873" lon="13.568692996690766"><ele>668.0</ele><time>2026-05-02T09:56:45.999Z</time></trkpt><trkpt lat="42.934256808380084" lon="13.568683128987082"><ele>668.0</ele><time>2026-05-02T09:56:46.999Z</time></trkpt><trkpt lat="42.93433860796629" lon="13.568678048126204"><ele>668.0</ele><time>2026-05-02T09:56:47.999Z</time></trkpt><trkpt lat="42.93441635826765" lon="13.568679862296056"><ele>665.6666666666666</ele><time>2026-05-02T09:56:48.999Z</time></trkpt><trkpt lat="42.93449240817595" lon="13.568677058287568"><ele>663.3333333333333</ele><time>2026-05-02T09:56:49.999Z</time></trkpt><trkpt lat="42.93456773334991" lon="13.568666048668339"><ele>661.0</ele><time>2026-05-02T09:56:50.999Z</time></trkpt><trkpt lat="42.93464438330361" lon="13.568659968759594"><ele>658.6666666666666</ele><time>2026-05-02T09:56:51.999Z</time></trkpt><trkpt lat="42.9347121004032" lon="13.56865995459357"><ele>656.3333333333334</ele><time>2026-05-02T09:56:52.999Z</time></trkpt><trkpt lat="42.93477747363685" lon="13.568652831194568"><ele>654.0</ele><time>2026-05-02T09:56:53.999Z</time></trkpt><trkpt lat="42.934867543881126" lon="13.568640770472882"><ele>654.0</ele><time>2026-05-02T09:56:55.999Z</time></trkpt><trkpt lat="42.93489012632129" lon="13.568459723561"><ele>654.0</ele><time>2026-05-02T09:56:57.999Z</time></trkpt><trkpt lat="42.93485361470763" lon="13.568341656341627"><ele>654.0</ele><time>2026-05-02T09:56:59.999Z</time></trkpt><trkpt lat="42.9347540824467" lon="13.568247727232285"><ele>654.0</ele><time>2026-05-02T09:57:01.999Z</time></trkpt><trkpt lat="42.934691593215874" lon="13.568187508941618"><ele>654.0</ele><time>2026-05-02T09:57:02.999Z</time></trkpt><trkpt lat="42.934641886558296" lon="13.568114444490204"><ele>654.0</ele><time>2026-05-02T09:57:03.999Z</time></trkpt><trkpt lat="42.93456833533461" lon="13.568010133896308"><ele>654.0</ele><time>2026-05-02T09:57:05.999Z</time></trkpt><trkpt lat="42.93454032433036" lon="13.567914682129057"><ele>654.0</ele><time>2026-05-02T09:57:07.999Z</time></trkpt><trkpt lat="42.93450633842594" lon="13.567757156866762"><ele>654.0</ele><time>2026-05-02T09:57:09.999Z</time></trkpt><trkpt lat="42.93453444758437" lon="13.567599324963615"><ele>654.0</ele><time>2026-05-02T09:57:11.999Z</time></trkpt><trkpt lat="42.93456068772046" lon="13.56751139328354"><ele>652.2</ele><time>2026-05-02T09:57:12.999Z</time></trkpt><trkpt lat="42.93460513522888" lon="13.567429947851881"><ele>650.4000000000001</ele><time>2026-05-02T09:57:13.999Z</time></trkpt><trkpt lat="42.93471024566517" lon="13.567353411733665"><ele>648.6</ele><time>2026-05-02T09:57:15.999Z</time></trkpt><trkpt lat="42.93483403253315" lon="13.567371510604014"><ele>646.8</ele><time>2026-05-02T09:57:17.999Z</time></trkpt><trkpt lat="42.93489159310727" lon="13.56741493700647"><ele>645.0</ele><time>2026-05-02T09:57:18.999Z</time></trkpt><trkpt lat="42.93495252155165" lon="13.567482508225403"><ele>645.0</ele><time>2026-05-02T09:57:19.999Z</time></trkpt><trkpt lat="42.9350138414797" lon="13.567566514508151"><ele>645.0</ele><time>2026-05-02T09:57:20.999Z</time></trkpt><trkpt lat="42.93507981031426" lon="13.567657983447749"><ele>645.0</ele><time>2026-05-02T09:57:21.999Z</time></trkpt><trkpt lat="42.9351413198406" lon="13.567737059026301"><ele>645.0</ele><time>2026-05-02T09:57:22.999Z</time></trkpt><trkpt lat="42.93520540680748" lon="13.567813371354049"><ele>645.0</ele><time>2026-05-02T09:57:23.999Z</time></trkpt><trkpt lat="42.93526349072377" lon="13.567883342976776"><ele>645.0</ele><time>2026-05-02T09:57:24.999Z</time></trkpt><trkpt lat="42.93532745800255" lon="13.567946840159413"><ele>643.3333333333334</ele><time>2026-05-02T09:57:25.999Z</time></trkpt><trkpt lat="42.935398789822095" lon="13.568021365725919"><ele>641.6666666666666</ele><time>2026-05-02T09:57:26.999Z</time></trkpt><trkpt lat="42.93546270899493" lon="13.56809854284441"><ele>640.0</ele><time>2026-05-02T09:57:27.999Z</time></trkpt><trkpt lat="42.93552421994618" lon="13.568170392301903"><ele>638.3333333333333</ele><time>2026-05-02T09:57:28.999Z</time></trkpt><trkpt lat="42.93558494829527" lon="13.568240145635144"><ele>636.6666666666666</ele><time>2026-05-02T09:57:29.999Z</time></trkpt><trkpt lat="42.9356445841328" lon="13.5682965448763"><ele>635.0</ele><time>2026-05-02T09:57:30.999Z</time></trkpt><trkpt lat="42.93570486235559" lon="13.568360912149329"><ele>635.0</ele><time>2026-05-02T09:57:31.999Z</time></trkpt><trkpt lat="42.93575831006156" lon="13.568413205073998"><ele>635.0</ele><time>2026-05-02T09:57:32.999Z</time></trkpt><trkpt lat="42.93584436865651" lon="13.568513149476635"><ele>635.0</ele><time>2026-05-02T09:57:34.999Z</time></trkpt><trkpt lat="42.93589024123708" lon="13.568584138019297"><ele>635.0</ele><time>2026-05-02T09:57:38.999Z</time></trkpt><trkpt lat="42.935844297293954" lon="13.568689190884172"><ele>635.0</ele><time>2026-05-02T09:57:41.999Z</time></trkpt><trkpt lat="42.93578089305194" lon="13.568795493784608"><ele>635.0</ele><time>2026-05-02T09:57:43.999Z</time></trkpt><trkpt lat="42.93572030137183" lon="13.568934067568293"><ele>634.3333333333333</ele><time>2026-05-02T09:57:45.999Z</time></trkpt><trkpt lat="42.93568868235761" lon="13.569012598257212"><ele>633.6666666666666</ele><time>2026-05-02T09:57:46.999Z</time></trkpt><trkpt lat="42.935669261276615" lon="13.569099687175816"><ele>633.0</ele><time>2026-05-02T09:57:47.999Z</time></trkpt><trkpt lat="42.93561611491243" lon="13.569233700009953"><ele>632.3333333333334</ele><time>2026-05-02T09:57:49.999Z</time></trkpt><trkpt lat="42.93555375171827" lon="13.569315147508084"><ele>631.6666666666667</ele><time>2026-05-02T09:57:52Z</time></trkpt><trkpt lat="42.935489469946084" lon="13.569391397711026"><ele>631.0</ele><time>2026-05-02T09:57:54Z</time></trkpt><trkpt lat="42.93536996575662" lon="13.569466962781476"><ele>630.6</ele><time>2026-05-02T09:57:56Z</time></trkpt><trkpt lat="42.93530054996288" lon="13.569539792103471"><ele>630.2</ele><time>2026-05-02T09:57:57Z</time></trkpt><trkpt lat="42.935221454171845" lon="13.569618512418751"><ele>629.8</ele><time>2026-05-02T09:57:58Z</time></trkpt><trkpt lat="42.935137657802315" lon="13.569694015163305"><ele>629.4</ele><time>2026-05-02T09:57:58.999Z</time></trkpt><trkpt lat="42.93504031411853" lon="13.569782626396897"><ele>629.0</ele><time>2026-05-02T09:57:59.999Z</time></trkpt><trkpt lat="42.934945594456416" lon="13.569869937199694"><ele>629.0</ele><time>2026-05-02T09:58:01Z</time></trkpt><trkpt lat="42.93485222833393" lon="13.569941499236293"><ele>629.0</ele><time>2026-05-02T09:58:02Z</time></trkpt><trkpt lat="42.93478114560109" lon="13.570060718433918"><ele>629.0</ele><time>2026-05-02T09:58:03Z</time></trkpt><trkpt lat="42.93469803433547" lon="13.570173175241733"><ele>629.0</ele><time>2026-05-02T09:58:04Z</time></trkpt><trkpt lat="42.93461810528642" lon="13.570293751463318"><ele>624.75</ele><time>2026-05-02T09:58:05Z</time></trkpt><trkpt lat="42.93453439221856" lon="13.570430554958774"><ele>620.5</ele><time>2026-05-02T09:58:06Z</time></trkpt><trkpt lat="42.934435466043865" lon="13.570511801443342"><ele>616.25</ele><time>2026-05-02T09:58:07Z</time></trkpt><trkpt lat="42.93434096015627" lon="13.5705868992068"><ele>612.0</ele><time>2026-05-02T09:58:08Z</time></trkpt><trkpt lat="42.93425132303524" lon="13.570647091559506"><ele>615.4</ele><time>2026-05-02T09:58:09Z</time></trkpt><trkpt lat="42.9341583207541" lon="13.570702946550186"><ele>618.8000000000001</ele><time>2026-05-02T09:58:10Z</time></trkpt><trkpt lat="42.93406868512814" lon="13.570772538235914"><ele>622.2</ele><time>2026-05-02T09:58:11Z</time></trkpt><trkpt lat="42.93396650425234" lon="13.570813617318603"><ele>625.6</ele><time>2026-05-02T09:58:12Z</time></trkpt><trkpt lat="42.933862845308354" lon="13.570851458046306"><ele>629.0</ele><time>2026-05-02T09:58:13Z</time></trkpt><trkpt lat="42.93374858459901" lon="13.57086987675625"><ele>629.0</ele><time>2026-05-02T09:58:14Z</time></trkpt><trkpt lat="42.93364617187569" lon="13.57092646742864"><ele>629.0</ele><time>2026-05-02T09:58:15Z</time></trkpt><trkpt lat="42.93353853546522" lon="13.570968790402013"><ele>629.0</ele><time>2026-05-02T09:58:16Z</time></trkpt><trkpt lat="42.93343161235442" lon="13.571002967230957"><ele>629.0</ele><time>2026-05-02T09:58:17Z</time></trkpt><trkpt lat="42.93332105043438" lon="13.571033550726915"><ele>629.0</ele><time>2026-05-02T09:58:18Z</time></trkpt><trkpt lat="42.93319969910989" lon="13.571055832818937"><ele>631.0</ele><time>2026-05-02T09:58:19Z</time></trkpt><trkpt lat="42.933076571250595" lon="13.571062247908552"><ele>633.0</ele><time>2026-05-02T09:58:20Z</time></trkpt><trkpt lat="42.93294976044573" lon="13.571042251481218"><ele>635.0</ele><time>2026-05-02T09:58:21Z</time></trkpt><trkpt lat="42.9328226008695" lon="13.571018174430872"><ele>637.0</ele><time>2026-05-02T09:58:22Z</time></trkpt><trkpt lat="42.93270401003236" lon="13.57096071891099"><ele>637.0</ele><time>2026-05-02T09:58:23Z</time></trkpt><trkpt lat="42.93258406783848" lon="13.570942161739495"><ele>637.0</ele><time>2026-05-02T09:58:24Z</time></trkpt><trkpt lat="42.93247747390295" lon="13.570899075437437"><ele>637.0</ele><time>2026-05-02T09:58:25Z</time></trkpt><trkpt lat="42.93237411615971" lon="13.570848278502682"><ele>637.0</ele><time>2026-05-02T09:58:26Z</time></trkpt><trkpt lat="42.932278267902475" lon="13.570774966990662"><ele>635.2</ele><time>2026-05-02T09:58:27Z</time></trkpt><trkpt lat="42.93219784661754" lon="13.57066001285032"><ele>633.4000000000001</ele><time>2026-05-02T09:58:28Z</time></trkpt><trkpt lat="42.93209933492268" lon="13.570602724657709"><ele>631.5999999999999</ele><time>2026-05-02T09:58:29Z</time></trkpt><trkpt lat="42.932002090527234" lon="13.570563068704093"><ele>629.8</ele><time>2026-05-02T09:58:30Z</time></trkpt><trkpt lat="42.93190697210516" lon="13.570546402669272"><ele>628.0</ele><time>2026-05-02T09:58:31Z</time></trkpt><trkpt lat="42.93182851280561" lon="13.570492169276763"><ele>628.0</ele><time>2026-05-02T09:58:32Z</time></trkpt><trkpt lat="42.93179062717653" lon="13.570367615686097"><ele>628.0</ele><time>2026-05-02T09:58:33Z</time></trkpt><trkpt lat="42.93174825365959" lon="13.570268548322163"><ele>628.0</ele><time>2026-05-02T09:58:34Z</time></trkpt><trkpt lat="42.93167658485244" lon="13.570208154037383"><ele>628.0</ele><time>2026-05-02T09:58:35Z</time></trkpt><trkpt lat="42.93159759657469" lon="13.570164876680682"><ele>628.0</ele><time>2026-05-02T09:58:36Z</time></trkpt><trkpt lat="42.93150023603084" lon="13.570145997977384"><ele>629.6</ele><time>2026-05-02T09:58:37Z</time></trkpt><trkpt lat="42.93140397542764" lon="13.570151065329414"><ele>631.1999999999999</ele><time>2026-05-02T09:58:38Z</time></trkpt><trkpt lat="42.93130824637362" lon="13.570161895508368"><ele>632.8</ele><time>2026-05-02T09:58:39Z</time></trkpt><trkpt lat="42.93121757764394" lon="13.57012941167692"><ele>634.4</ele><time>2026-05-02T09:58:39.999Z</time></trkpt><trkpt lat="42.93112672413672" lon="13.570062280475856"><ele>636.0</ele><time>2026-05-02T09:58:40.999Z</time></trkpt><trkpt lat="42.93105314898402" lon="13.569946031280493"><ele>636.0</ele><time>2026-05-02T09:58:41.999Z</time></trkpt><trkpt lat="42.930962743572486" lon="13.569870092493334"><ele>636.0</ele><time>2026-05-02T09:58:42.999Z</time></trkpt><trkpt lat="42.93089246801149" lon="13.569785804023532"><ele>636.0</ele><time>2026-05-02T09:58:43.999Z</time></trkpt><trkpt lat="42.93082791020876" lon="13.569723300846077"><ele>636.0</ele><time>2026-05-02T09:58:44.999Z</time></trkpt><trkpt lat="42.93075958472463" lon="13.569686821058747"><ele>636.0</ele><time>2026-05-02T09:58:45.999Z</time></trkpt><trkpt lat="42.930687589476555" lon="13.569685788134052"><ele>636.0</ele><time>2026-05-02T09:58:46.999Z</time></trkpt><trkpt lat="42.93061111400409" lon="13.569694505532702"><ele>634.5</ele><time>2026-05-02T09:58:47.999Z</time></trkpt><trkpt lat="42.93054326520874" lon="13.56975102384557"><ele>633.0</ele><time>2026-05-02T09:58:48.999Z</time></trkpt><trkpt lat="42.93051667174351" lon="13.569833679310104"><ele>631.5</ele><time>2026-05-02T09:58:49.999Z</time></trkpt><trkpt lat="42.930498948654446" lon="13.569993070032206"><ele>630.0</ele><time>2026-05-02T09:58:51.999Z</time></trkpt><trkpt lat="42.93054802210055" lon="13.57008414394024"><ele>628.5</ele><time>2026-05-02T09:58:52.999Z</time></trkpt><trkpt lat="42.930598519409024" lon="13.570171845364944"><ele>627.0</ele><time>2026-05-02T09:58:53.999Z</time></trkpt><trkpt lat="42.930638188052924" lon="13.570271358008277"><ele>628.75</ele><time>2026-05-02T09:58:54.999Z</time></trkpt><trkpt lat="42.930677835460855" lon="13.570400055115956"><ele>630.5</ele><time>2026-05-02T09:58:55.999Z</time></trkpt><trkpt lat="42.93073318214296" lon="13.570544143461593"><ele>632.25</ele><time>2026-05-02T09:58:56.999Z</time></trkpt><trkpt lat="42.93081196171041" lon="13.570692367797552"><ele>634.0</ele><time>2026-05-02T09:58:57.999Z</time></trkpt><trkpt lat="42.93090785421484" lon="13.570832259212773"><ele>626.6666666666667</ele><time>2026-05-02T09:58:58.999Z</time></trkpt><trkpt lat="42.93099224528756" lon="13.570982124626855"><ele>619.3333333333334</ele><time>2026-05-02T09:58:59.999Z</time></trkpt><trkpt lat="42.93109729611192" lon="13.571135494201428"><ele>612.0</ele><time>2026-05-02T09:59:00.999Z</time></trkpt><trkpt lat="42.93118093727461" lon="13.571321811402703"><ele>611.5</ele><time>2026-05-02T09:59:01.999Z</time></trkpt><trkpt lat="42.9312692208222" lon="13.571508288385552"><ele>611.0</ele><time>2026-05-02T09:59:02.999Z</time></trkpt><trkpt lat="42.93134417284256" lon="13.571657056487844"><ele>610.5</ele><time>2026-05-02T09:59:03.999Z</time></trkpt><trkpt lat="42.93140954329182" lon="13.571778049757974"><ele>610.0</ele><time>2026-05-02T09:59:04.999Z</time></trkpt><trkpt lat="42.93146497649618" lon="13.571886365719598"><ele>610.0</ele><time>2026-05-02T09:59:05.999Z</time></trkpt><trkpt lat="42.931498706084625" lon="13.571989440820456"><ele>610.0</ele><time>2026-05-02T09:59:06.999Z</time></trkpt><trkpt lat="42.931510448274764" lon="13.572098860485276"><ele>610.0</ele><time>2026-05-02T09:59:07.999Z</time></trkpt><trkpt lat="42.931508092907485" lon="13.572223781385233"><ele>610.0</ele><time>2026-05-02T09:59:08.999Z</time></trkpt><trkpt lat="42.93149538489754" lon="13.572368749148827"><ele>610.0</ele><time>2026-05-02T09:59:09.999Z</time></trkpt><trkpt lat="42.931451507895154" lon="13.572528769479794"><ele>612.0</ele><time>2026-05-02T09:59:10.999Z</time></trkpt><trkpt lat="42.93143715126042" lon="13.572697997927568"><ele>614.0</ele><time>2026-05-02T09:59:11.999Z</time></trkpt><trkpt lat="42.93140795018673" lon="13.57285234375492"><ele>616.0</ele><time>2026-05-02T09:59:12.999Z</time></trkpt><trkpt lat="42.93138382271506" lon="13.57299111925773"><ele>618.0</ele><time>2026-05-02T09:59:13.999Z</time></trkpt><trkpt lat="42.93135696116446" lon="13.57311656978405"><ele>620.0</ele><time>2026-05-02T09:59:14.999Z</time></trkpt><trkpt lat="42.93132159825326" lon="13.573229707456848"><ele>621.0</ele><time>2026-05-02T09:59:15.999Z</time></trkpt><trkpt lat="42.93125100474777" lon="13.573319728376127"><ele>622.0</ele><time>2026-05-02T09:59:16.999Z</time></trkpt><trkpt lat="42.931151023256035" lon="13.57336920250285"><ele>623.0</ele><time>2026-05-02T09:59:17.999Z</time></trkpt><trkpt lat="42.9310509832198" lon="13.57342419022339"><ele>624.0</ele><time>2026-05-02T09:59:18.999Z</time></trkpt><trkpt lat="42.93095058634505" lon="13.57348703933785"><ele>625.0</ele><time>2026-05-02T09:59:19.999Z</time></trkpt><trkpt lat="42.93087213880005" lon="13.573583555511757"><ele>625.8</ele><time>2026-05-02T09:59:20.999Z</time></trkpt><trkpt lat="42.930806246735436" lon="13.573676647920504"><ele>626.6</ele><time>2026-05-02T09:59:21.999Z</time></trkpt><trkpt lat="42.930759049235945" lon="13.573804190937096"><ele>627.4</ele><time>2026-05-02T09:59:22.999Z</time></trkpt><trkpt lat="42.93072488267104" lon="13.573941587285288"><ele>628.2</ele><time>2026-05-02T09:59:23.999Z</time></trkpt><trkpt lat="42.93071622558466" lon="13.5741026215598"><ele>629.0</ele><time>2026-05-02T09:59:24.999Z</time></trkpt><trkpt lat="42.930734054997" lon="13.574258196873343"><ele>626.6</ele><time>2026-05-02T09:59:25.999Z</time></trkpt><trkpt lat="42.93069233247677" lon="13.574371327470429"><ele>624.2</ele><time>2026-05-02T09:59:26.999Z</time></trkpt><trkpt lat="42.93062251285195" lon="13.574441738625872"><ele>621.8000000000001</ele><time>2026-05-02T09:59:27.999Z</time></trkpt><trkpt lat="42.930549255725545" lon="13.574516083178644"><ele>619.4</ele><time>2026-05-02T09:59:28.999Z</time></trkpt><trkpt lat="42.93049544106988" lon="13.574623476375974"><ele>617.0</ele><time>2026-05-02T09:59:29.999Z</time></trkpt><trkpt lat="42.93046513595519" lon="13.574748736862826"><ele>616.5</ele><time>2026-05-02T09:59:30.999Z</time></trkpt><trkpt lat="42.93048003308772" lon="13.574896738000275"><ele>616.0</ele><time>2026-05-02T09:59:31.999Z</time></trkpt><trkpt lat="42.930527823199455" lon="13.575057524955715"><ele>615.5</ele><time>2026-05-02T09:59:32.999Z</time></trkpt><trkpt lat="42.930577646263316" lon="13.575231120515385"><ele>615.0</ele><time>2026-05-02T09:59:33.999Z</time></trkpt><trkpt lat="42.93057029732308" lon="13.575392619204388"><ele>615.0</ele><time>2026-05-02T09:59:34.999Z</time></trkpt><trkpt lat="42.93060283102767" lon="13.575524182248467"><ele>615.0</ele><time>2026-05-02T09:59:35.999Z</time></trkpt><trkpt lat="42.93064276552216" lon="13.575643917269769"><ele>615.0</ele><time>2026-05-02T09:59:36.999Z</time></trkpt><trkpt lat="42.93072652645076" lon="13.57574621422763"><ele>615.0</ele><time>2026-05-02T09:59:37.999Z</time></trkpt><trkpt lat="42.930835267612274" lon="13.575838220770587"><ele>615.0</ele><time>2026-05-02T09:59:38.999Z</time></trkpt><trkpt lat="42.930940188271684" lon="13.575936728081931"><ele>611.75</ele><time>2026-05-02T09:59:39.999Z</time></trkpt><trkpt lat="42.93097667861843" lon="13.576073048990995"><ele>608.5</ele><time>2026-05-02T09:59:40.999Z</time></trkpt><trkpt lat="42.930989031750144" lon="13.576206388686952"><ele>605.25</ele><time>2026-05-02T09:59:41.999Z</time></trkpt><trkpt lat="42.93100893205882" lon="13.576357257619168"><ele>602.0</ele><time>2026-05-02T09:59:42.999Z</time></trkpt><trkpt lat="42.931034900502134" lon="13.576538980531021"><ele>602.0</ele><time>2026-05-02T09:59:43.999Z</time></trkpt><trkpt lat="42.93106977977676" lon="13.576743820518125"><ele>602.0</ele><time>2026-05-02T09:59:44.999Z</time></trkpt><trkpt lat="42.9311368755716" lon="13.576949305477145"><ele>602.0</ele><time>2026-05-02T09:59:45.999Z</time></trkpt><trkpt lat="42.93119918049165" lon="13.577132234364592"><ele>603.0</ele><time>2026-05-02T09:59:46.999Z</time></trkpt><trkpt lat="42.93128251288645" lon="13.577296998967766"><ele>604.0</ele><time>2026-05-02T09:59:47.999Z</time></trkpt><trkpt lat="42.93136861249193" lon="13.577465456342727"><ele>605.0</ele><time>2026-05-02T09:59:48.999Z</time></trkpt><trkpt lat="42.93140400469804" lon="13.577633180831537"><ele>606.0</ele><time>2026-05-02T09:59:49.999Z</time></trkpt><trkpt lat="42.93142296764009" lon="13.577775118842165"><ele>605.5</ele><time>2026-05-02T09:59:50.999Z</time></trkpt><trkpt lat="42.93142041292819" lon="13.577930682723357"><ele>605.0</ele><time>2026-05-02T09:59:51.999Z</time></trkpt><trkpt lat="42.93140952105092" lon="13.578109000984306"><ele>604.5</ele><time>2026-05-02T09:59:52.999Z</time></trkpt><trkpt lat="42.93140276514749" lon="13.578288647304893"><ele>604.0</ele><time>2026-05-02T09:59:53.999Z</time></trkpt><trkpt lat="42.931418368934786" lon="13.578449929042918"><ele>604.0</ele><time>2026-05-02T09:59:54.999Z</time></trkpt><trkpt lat="42.931437209196964" lon="13.578593156575549"><ele>604.0</ele><time>2026-05-02T09:59:55.999Z</time></trkpt><trkpt lat="42.93148438465663" lon="13.57872507098231"><ele>604.0</ele><time>2026-05-02T09:59:57Z</time></trkpt><trkpt lat="42.93156813383174" lon="13.578830113726525"><ele>604.0</ele><time>2026-05-02T09:59:58Z</time></trkpt><trkpt lat="42.93167745427714" lon="13.578928100336404"><ele>600.5</ele><time>2026-05-02T09:59:59Z</time></trkpt><trkpt lat="42.93180756051644" lon="13.579026440307512"><ele>597.0</ele><time>2026-05-02T10:00:00Z</time></trkpt><trkpt lat="42.93191316625481" lon="13.579143237043173"><ele>593.5</ele><time>2026-05-02T10:00:01Z</time></trkpt><trkpt lat="42.932025462680095" lon="13.57926887163249"><ele>590.0</ele><time>2026-05-02T10:00:02Z</time></trkpt><trkpt lat="42.93213428765967" lon="13.579396389419905"><ele>591.25</ele><time>2026-05-02T10:00:03Z</time></trkpt><trkpt lat="42.93224550201831" lon="13.579530517743157"><ele>592.5</ele><time>2026-05-02T10:00:04Z</time></trkpt><trkpt lat="42.93235432836295" lon="13.579667782469025"><ele>593.75</ele><time>2026-05-02T10:00:05Z</time></trkpt><trkpt lat="42.93246137990637" lon="13.579804214935153"><ele>595.0</ele><time>2026-05-02T10:00:06Z</time></trkpt><trkpt lat="42.932566249170364" lon="13.579931739459532"><ele>591.5</ele><time>2026-05-02T10:00:07Z</time></trkpt><trkpt lat="42.93266236784732" lon="13.580058399715272"><ele>588.0</ele><time>2026-05-02T10:00:08Z</time></trkpt><trkpt lat="42.932728367978896" lon="13.58022759227584"><ele>584.5</ele><time>2026-05-02T10:00:09Z</time></trkpt><trkpt lat="42.93278674928212" lon="13.580388535117192"><ele>581.0</ele><time>2026-05-02T10:00:10Z</time></trkpt><trkpt lat="42.93283515462838" lon="13.580547193414091"><ele>581.0</ele><time>2026-05-02T10:00:11Z</time></trkpt><trkpt lat="42.932896393271115" lon="13.580699235995583"><ele>581.0</ele><time>2026-05-02T10:00:12Z</time></trkpt><trkpt lat="42.932932060201296" lon="13.580844175508924"><ele>581.0</ele><time>2026-05-02T10:00:13Z</time></trkpt><trkpt lat="42.93294123110258" lon="13.580972137831584"><ele>581.0</ele><time>2026-05-02T10:00:14Z</time></trkpt><trkpt lat="42.93294119704335" lon="13.58107229148504"><ele>581.0</ele><time>2026-05-02T10:00:15Z</time></trkpt><trkpt lat="42.932920483213415" lon="13.581173134950674"><ele>580.6</ele><time>2026-05-02T10:00:16Z</time></trkpt><trkpt lat="42.93285926074237" lon="13.58125561503345"><ele>580.2</ele><time>2026-05-02T10:00:17Z</time></trkpt><trkpt lat="42.932778951606494" lon="13.581350966085743"><ele>579.8</ele><time>2026-05-02T10:00:18Z</time></trkpt><trkpt lat="42.9326749187152" lon="13.581433790789719"><ele>579.4</ele><time>2026-05-02T10:00:19Z</time></trkpt><trkpt lat="42.932563783121395" lon="13.581517151586839"><ele>579.0</ele><time>2026-05-02T10:00:20Z</time></trkpt><trkpt lat="42.932447844688625" lon="13.581599177619763"><ele>582.0</ele><time>2026-05-02T10:00:21Z</time></trkpt><trkpt lat="42.93232001081283" lon="13.581688218725011"><ele>585.0</ele><time>2026-05-02T10:00:22Z</time></trkpt><trkpt lat="42.93219219060269" lon="13.581782737142188"><ele>588.0</ele><time>2026-05-02T10:00:23Z</time></trkpt><trkpt lat="42.932073686324394" lon="13.581868269866709"><ele>591.0</ele><time>2026-05-02T10:00:24Z</time></trkpt><trkpt lat="42.931963701752494" lon="13.58192833686313"><ele>591.0</ele><time>2026-05-02T10:00:25Z</time></trkpt><trkpt lat="42.931860060807345" lon="13.58196581688155"><ele>591.0</ele><time>2026-05-02T10:00:26Z</time></trkpt><trkpt lat="42.93175556542713" lon="13.581974954269556"><ele>591.0</ele><time>2026-05-02T10:00:27Z</time></trkpt><trkpt lat="42.931647083690066" lon="13.581958922888113"><ele>591.0</ele><time>2026-05-02T10:00:28Z</time></trkpt><trkpt lat="42.93153674169904" lon="13.58193744990864"><ele>591.0</ele><time>2026-05-02T10:00:29Z</time></trkpt><trkpt lat="42.93143689191724" lon="13.581917997399849"><ele>591.6666666666666</ele><time>2026-05-02T10:00:30Z</time></trkpt><trkpt lat="42.93135984228784" lon="13.581925289880699"><ele>592.3333333333334</ele><time>2026-05-02T10:00:31Z</time></trkpt><trkpt lat="42.931293946737554" lon="13.581903069474988"><ele>593.0</ele><time>2026-05-02T10:00:32Z</time></trkpt><trkpt lat="42.931230450759614" lon="13.581950865354015"><ele>593.6666666666667</ele><time>2026-05-02T10:00:33Z</time></trkpt><trkpt lat="42.931212492203706" lon="13.582068374358943"><ele>594.3333333333334</ele><time>2026-05-02T10:00:34Z</time></trkpt><trkpt lat="42.931205642589084" lon="13.582157999213326"><ele>595.0</ele><time>2026-05-02T10:00:35Z</time></trkpt><trkpt lat="42.93127748034184" lon="13.58224528723019"><ele>591.6</ele><time>2026-05-02T10:00:36Z</time></trkpt><trkpt lat="42.93135762466422" lon="13.582319451315074"><ele>588.2</ele><time>2026-05-02T10:00:37Z</time></trkpt><trkpt lat="42.931457960124156" lon="13.582393214791592"><ele>584.8</ele><time>2026-05-02T10:00:38Z</time></trkpt><trkpt lat="42.93156034217589" lon="13.582474763793233"><ele>581.4</ele><time>2026-05-02T10:00:39Z</time></trkpt><trkpt lat="42.93165530752356" lon="13.582565878669502"><ele>578.0</ele><time>2026-05-02T10:00:40Z</time></trkpt><trkpt lat="42.93174935456264" lon="13.582663559035778"><ele>576.5</ele><time>2026-05-02T10:00:41Z</time></trkpt><trkpt lat="42.9318466363175" lon="13.582757688122022"><ele>575.0</ele><time>2026-05-02T10:00:42Z</time></trkpt><trkpt lat="42.93194812840315" lon="13.58285113704105"><ele>573.5</ele><time>2026-05-02T10:00:43Z</time></trkpt><trkpt lat="42.93204564099059" lon="13.582951178617003"><ele>572.0</ele><time>2026-05-02T10:00:44Z</time></trkpt><trkpt lat="42.93212783378156" lon="13.583038947065972"><ele>568.4</ele><time>2026-05-02T10:00:45Z</time></trkpt><trkpt lat="42.93221186127868" lon="13.583099469423413"><ele>564.8000000000001</ele><time>2026-05-02T10:00:46Z</time></trkpt><trkpt lat="42.93229980902579" lon="13.58312079683978"><ele>561.2</ele><time>2026-05-02T10:00:47Z</time></trkpt><trkpt lat="42.9324006880599" lon="13.583097971554631"><ele>557.6</ele><time>2026-05-02T10:00:48Z</time></trkpt><trkpt lat="42.932498104084125" lon="13.583061984904157"><ele>554.0</ele><time>2026-05-02T10:00:49Z</time></trkpt><trkpt lat="42.93260315810085" lon="13.583031535851594"><ele>552.75</ele><time>2026-05-02T10:00:50Z</time></trkpt><trkpt lat="42.932706599304716" lon="13.583038811087992"><ele>551.5</ele><time>2026-05-02T10:00:51Z</time></trkpt><trkpt lat="42.9328218395458" lon="13.583097112344854"><ele>550.25</ele><time>2026-05-02T10:00:52Z</time></trkpt><trkpt lat="42.932938193216685" lon="13.58317101566979"><ele>549.0</ele><time>2026-05-02T10:00:53Z</time></trkpt><trkpt lat="42.933054779544904" lon="13.583266738516278"><ele>549.0</ele><time>2026-05-02T10:00:54Z</time></trkpt><trkpt lat="42.933172760798875" lon="13.58335774743906"><ele>549.0</ele><time>2026-05-02T10:00:55Z</time></trkpt><trkpt lat="42.93329647326966" lon="13.583440911043473"><ele>549.0</ele><time>2026-05-02T10:00:56Z</time></trkpt><trkpt lat="42.93342260786629" lon="13.583523113866127"><ele>549.0</ele><time>2026-05-02T10:00:57Z</time></trkpt><trkpt lat="42.933545715099186" lon="13.583602032868141"><ele>543.5</ele><time>2026-05-02T10:00:58Z</time></trkpt><trkpt lat="42.93366889113626" lon="13.58368472810211"><ele>538.0</ele><time>2026-05-02T10:00:59Z</time></trkpt><trkpt lat="42.93379250543428" lon="13.583756080955737"><ele>532.5</ele><time>2026-05-02T10:01:00Z</time></trkpt><trkpt lat="42.93392028025542" lon="13.583825267350418"><ele>527.0</ele><time>2026-05-02T10:01:01Z</time></trkpt><trkpt lat="42.93404883724395" lon="13.583880691022506"><ele>527.0</ele><time>2026-05-02T10:01:02Z</time></trkpt><trkpt lat="42.93417748194799" lon="13.58392615151646"><ele>527.0</ele><time>2026-05-02T10:01:03Z</time></trkpt><trkpt lat="42.93428887710889" lon="13.583968294034278"><ele>527.0</ele><time>2026-05-02T10:01:04Z</time></trkpt><trkpt lat="42.934382115947216" lon="13.584007954412384"><ele>527.0</ele><time>2026-05-02T10:01:05Z</time></trkpt><trkpt lat="42.93446590364449" lon="13.584071806358185"><ele>527.0</ele><time>2026-05-02T10:01:06Z</time></trkpt><trkpt lat="42.93453010281677" lon="13.584180607834398"><ele>524.5</ele><time>2026-05-02T10:01:07Z</time></trkpt><trkpt lat="42.93454003256359" lon="13.584347286886976"><ele>522.0</ele><time>2026-05-02T10:01:08Z</time></trkpt><trkpt lat="42.93456033800551" lon="13.584527494239783"><ele>519.5</ele><time>2026-05-02T10:01:09Z</time></trkpt><trkpt lat="42.93459254838011" lon="13.584701640020441"><ele>517.0</ele><time>2026-05-02T10:01:10Z</time></trkpt><trkpt lat="42.934608195704854" lon="13.584868303102796"><ele>516.4</ele><time>2026-05-02T10:01:11Z</time></trkpt><trkpt lat="42.93463183121617" lon="13.585023912138096"><ele>515.8000000000001</ele><time>2026-05-02T10:01:12Z</time></trkpt><trkpt lat="42.93465707372725" lon="13.585161747577947"><ele>515.2</ele><time>2026-05-02T10:01:13Z</time></trkpt><trkpt lat="42.934689490798405" lon="13.585258088290507"><ele>514.6</ele><time>2026-05-02T10:01:14Z</time></trkpt><trkpt lat="42.934747606615616" lon="13.585324782709108"><ele>514.0</ele><time>2026-05-02T10:01:15Z</time></trkpt><trkpt lat="42.93482408818386" lon="13.585344031162785"><ele>514.0</ele><time>2026-05-02T10:01:15.999Z</time></trkpt><trkpt lat="42.93490038591981" lon="13.58530957686846"><ele>514.0</ele><time>2026-05-02T10:01:16.999Z</time></trkpt><trkpt lat="42.93497681294003" lon="13.585227821830129"><ele>514.0</ele><time>2026-05-02T10:01:17.999Z</time></trkpt><trkpt lat="42.935046369677664" lon="13.585132102757399"><ele>514.0</ele><time>2026-05-02T10:01:18.999Z</time></trkpt><trkpt lat="42.93511106703612" lon="13.585059534907765"><ele>514.0</ele><time>2026-05-02T10:01:19.999Z</time></trkpt><trkpt lat="42.93517856328707" lon="13.585037257884434"><ele>514.0</ele><time>2026-05-02T10:01:20.999Z</time></trkpt><trkpt lat="42.93530292597179" lon="13.585172674305184"><ele>511.2</ele><time>2026-05-02T10:01:22.999Z</time></trkpt><trkpt lat="42.93531592455302" lon="13.585326520694682"><ele>508.4</ele><time>2026-05-02T10:01:23.999Z</time></trkpt><trkpt lat="42.93530712552471" lon="13.585476415634822"><ele>505.6</ele><time>2026-05-02T10:01:24.999Z</time></trkpt><trkpt lat="42.93527546503887" lon="13.58561025410158"><ele>502.8</ele><time>2026-05-02T10:01:25.999Z</time></trkpt><trkpt lat="42.93523729260542" lon="13.585748551162164"><ele>500.0</ele><time>2026-05-02T10:01:26.999Z</time></trkpt><trkpt lat="42.935226297060424" lon="13.585870850804634"><ele>499.99999999999994</ele><time>2026-05-02T10:01:27.999Z</time></trkpt><trkpt lat="42.93522021807132" lon="13.585968541176912"><ele>500.0</ele><time>2026-05-02T10:01:28.999Z</time></trkpt><trkpt lat="42.93524932337547" lon="13.586063866763318"><ele>500.0</ele><time>2026-05-02T10:01:29.999Z</time></trkpt><trkpt lat="42.93531397935253" lon="13.586122070452536"><ele>500.0</ele><time>2026-05-02T10:01:30.999Z</time></trkpt><trkpt lat="42.935400147159015" lon="13.58612804606778"><ele>499.99999999999994</ele><time>2026-05-02T10:01:31.999Z</time></trkpt><trkpt lat="42.93549223913662" lon="13.586071075008826"><ele>500.0</ele><time>2026-05-02T10:01:32.999Z</time></trkpt><trkpt lat="42.93558332007789" lon="13.585979052751885"><ele>500.0</ele><time>2026-05-02T10:01:33.999Z</time></trkpt><trkpt lat="42.93567783957648" lon="13.58586737548799"><ele>500.0</ele><time>2026-05-02T10:01:34.999Z</time></trkpt><trkpt lat="42.93577320899103" lon="13.58575668686855"><ele>500.0</ele><time>2026-05-02T10:01:35.999Z</time></trkpt><trkpt lat="42.93586689428773" lon="13.585650899875516"><ele>500.0</ele><time>2026-05-02T10:01:36.999Z</time></trkpt><trkpt lat="42.93596106767428" lon="13.585562231023966"><ele>497.99999999999994</ele><time>2026-05-02T10:01:37.999Z</time></trkpt><trkpt lat="42.93605450415584" lon="13.585483228538855"><ele>496.0</ele><time>2026-05-02T10:01:38.999Z</time></trkpt><trkpt lat="42.936134285588196" lon="13.585429379451783"><ele>494.0</ele><time>2026-05-02T10:01:39.999Z</time></trkpt><trkpt lat="42.93620317898855" lon="13.585406485531102"><ele>492.0</ele><time>2026-05-02T10:01:40.999Z</time></trkpt><trkpt lat="42.936265976560044" lon="13.585444054469468"><ele>489.99999999999994</ele><time>2026-05-02T10:01:41.999Z</time></trkpt><trkpt lat="42.936322006621026" lon="13.585534520277495"><ele>488.0</ele><time>2026-05-02T10:01:42.999Z</time></trkpt><trkpt lat="42.93635288258442" lon="13.585681971778506"><ele>488.0</ele><time>2026-05-02T10:01:43.999Z</time></trkpt><trkpt lat="42.93642188748065" lon="13.585830966155497"><ele>488.0</ele><time>2026-05-02T10:01:44.999Z</time></trkpt><trkpt lat="42.93648063249931" lon="13.585993629048241"><ele>488.0</ele><time>2026-05-02T10:01:45.999Z</time></trkpt><trkpt lat="42.93653753439581" lon="13.586162692321594"><ele>488.0</ele><time>2026-05-02T10:01:46.999Z</time></trkpt><trkpt lat="42.936588231248976" lon="13.586324766684012"><ele>487.75</ele><time>2026-05-02T10:01:47.999Z</time></trkpt><trkpt lat="42.93663807211331" lon="13.586482070932552"><ele>487.5</ele><time>2026-05-02T10:01:48.999Z</time></trkpt><trkpt lat="42.93669051409326" lon="13.586624626247943"><ele>487.25</ele><time>2026-05-02T10:01:49.999Z</time></trkpt><trkpt lat="42.93675809975291" lon="13.58675619874495"><ele>487.0</ele><time>2026-05-02T10:01:50.999Z</time></trkpt><trkpt lat="42.93684995845666" lon="13.586872225362633"><ele>485.5</ele><time>2026-05-02T10:01:51.999Z</time></trkpt><trkpt lat="42.93696591046606" lon="13.586963111700472"><ele>484.0</ele><time>2026-05-02T10:01:52.999Z</time></trkpt><trkpt lat="42.93709314554639" lon="13.58706294404915"><ele>482.5</ele><time>2026-05-02T10:01:53.999Z</time></trkpt><trkpt lat="42.93722076266695" lon="13.587162775439582"><ele>481.0</ele><time>2026-05-02T10:01:54.999Z</time></trkpt><trkpt lat="42.937343220266946" lon="13.587263881526985"><ele>481.0</ele><time>2026-05-02T10:01:55.999Z</time></trkpt><trkpt lat="42.93746850080133" lon="13.587367679323188"><ele>481.0</ele><time>2026-05-02T10:01:56.999Z</time></trkpt><trkpt lat="42.93759163063761" lon="13.587461021512999"><ele>481.0</ele><time>2026-05-02T10:01:57.999Z</time></trkpt><trkpt lat="42.93767994931291" lon="13.587519396334308"><ele>481.0</ele><time>2026-05-02T10:01:58.999Z</time></trkpt><trkpt lat="42.93774118532981" lon="13.58755681874617"><ele>481.0</ele><time>2026-05-02T10:02:00.999Z</time></trkpt><trkpt lat="42.93775628379811" lon="13.587650441081246"><ele>481.0</ele><time>2026-05-02T10:02:07.001Z</time></trkpt><trkpt lat="42.93783869868131" lon="13.58765422500855"><ele>481.0</ele><time>2026-05-02T10:02:08.001Z</time></trkpt><trkpt lat="42.93792541128867" lon="13.587663577050082"><ele>481.0</ele><time>2026-05-02T10:02:09.001Z</time></trkpt><trkpt lat="42.93803921858538" lon="13.587676654245868"><ele>481.0</ele><time>2026-05-02T10:02:10.001Z</time></trkpt><trkpt lat="42.93816456559614" lon="13.587715847424253"><ele>481.0</ele><time>2026-05-02T10:02:11.001Z</time></trkpt><trkpt lat="42.938298262603" lon="13.587786155793204"><ele>481.0</ele><time>2026-05-02T10:02:12.001Z</time></trkpt><trkpt lat="42.93842341721047" lon="13.587874384617415"><ele>481.0</ele><time>2026-05-02T10:02:13.001Z</time></trkpt><trkpt lat="42.93855283323235" lon="13.587986903429803"><ele>481.0</ele><time>2026-05-02T10:02:14Z</time></trkpt><trkpt lat="42.93866742237277" lon="13.588138470254187"><ele>476.6666666666667</ele><time>2026-05-02T10:02:15.001Z</time></trkpt><trkpt lat="42.93876442463144" lon="13.588309210009687"><ele>472.33333333333337</ele><time>2026-05-02T10:02:16.001Z</time></trkpt><trkpt lat="42.93885063998317" lon="13.58850854324926"><ele>468.0</ele><time>2026-05-02T10:02:17Z</time></trkpt><trkpt lat="42.938926693753515" lon="13.588726375143438"><ele>468.0</ele><time>2026-05-02T10:02:18Z</time></trkpt><trkpt lat="42.93900488081652" lon="13.588966607479147"><ele>468.0</ele><time>2026-05-02T10:02:19Z</time></trkpt><trkpt lat="42.93907968475197" lon="13.589226702446412"><ele>468.0</ele><time>2026-05-02T10:02:20Z</time></trkpt><trkpt lat="42.939153036948156" lon="13.589481516825938"><ele>466.0</ele><time>2026-05-02T10:02:21Z</time></trkpt><trkpt lat="42.939223346914076" lon="13.589738509656947"><ele>464.0</ele><time>2026-05-02T10:02:22Z</time></trkpt><trkpt lat="42.93929047103861" lon="13.589982976343734"><ele>462.0</ele><time>2026-05-02T10:02:23Z</time></trkpt><trkpt lat="42.93936049683837" lon="13.590222011745807"><ele>464.66666666666663</ele><time>2026-05-02T10:02:24Z</time></trkpt><trkpt lat="42.939440051713625" lon="13.590443491720237"><ele>467.3333333333333</ele><time>2026-05-02T10:02:25Z</time></trkpt><trkpt lat="42.93953160174007" lon="13.590635686144635"><ele>470.0</ele><time>2026-05-02T10:02:26Z</time></trkpt><trkpt lat="42.939637833828726" lon="13.590786077887609"><ele>470.0</ele><time>2026-05-02T10:02:27Z</time></trkpt><trkpt lat="42.939776202423666" lon="13.590919137699212"><ele>470.0</ele><time>2026-05-02T10:02:28Z</time></trkpt><trkpt lat="42.93993774641853" lon="13.591051249763646"><ele>470.0</ele><time>2026-05-02T10:02:29Z</time></trkpt><trkpt lat="42.94010648970657" lon="13.591182206644568"><ele>472.3333333333333</ele><time>2026-05-02T10:02:30Z</time></trkpt><trkpt lat="42.940272048317915" lon="13.591317551051391"><ele>474.66666666666663</ele><time>2026-05-02T10:02:31Z</time></trkpt><trkpt lat="42.94043678600637" lon="13.591442688587405"><ele>477.0</ele><time>2026-05-02T10:02:32Z</time></trkpt><trkpt lat="42.94060601015069" lon="13.591570286282911"><ele>477.0</ele><time>2026-05-02T10:02:33Z</time></trkpt><trkpt lat="42.940772351131166" lon="13.59170182265913"><ele>477.0</ele><time>2026-05-02T10:02:34Z</time></trkpt><trkpt lat="42.94094134187184" lon="13.591842831351679"><ele>477.0</ele><time>2026-05-02T10:02:35Z</time></trkpt><trkpt lat="42.941110439531904" lon="13.591989155532314"><ele>477.33333333333337</ele><time>2026-05-02T10:02:36Z</time></trkpt><trkpt lat="42.94128409201362" lon="13.592136067127118"><ele>477.6666666666667</ele><time>2026-05-02T10:02:37Z</time></trkpt><trkpt lat="42.941448619945156" lon="13.592270237433262"><ele>478.0</ele><time>2026-05-02T10:02:38Z</time></trkpt><trkpt lat="42.94160573420002" lon="13.59239655317361"><ele>475.0</ele><time>2026-05-02T10:02:39Z</time></trkpt><trkpt lat="42.94174922029093" lon="13.592506617328304"><ele>472.0</ele><time>2026-05-02T10:02:40Z</time></trkpt><trkpt lat="42.941884167849885" lon="13.592608322206331"><ele>469.0</ele><time>2026-05-02T10:02:41Z</time></trkpt><trkpt lat="42.94200768097379" lon="13.59271242319758"><ele>469.0</ele><time>2026-05-02T10:02:42Z</time></trkpt><trkpt lat="42.942128495946385" lon="13.59282996683836"><ele>469.0</ele><time>2026-05-02T10:02:43Z</time></trkpt><trkpt lat="42.94224307277247" lon="13.592977891663104"><ele>469.0</ele><time>2026-05-02T10:02:44Z</time></trkpt><trkpt lat="42.94233894261591" lon="13.593146995266823"><ele>470.0</ele><time>2026-05-02T10:02:45Z</time></trkpt><trkpt lat="42.94242660711436" lon="13.593330771682556"><ele>471.0</ele><time>2026-05-02T10:02:46Z</time></trkpt><trkpt lat="42.94249997808196" lon="13.593536375580987"><ele>472.0</ele><time>2026-05-02T10:02:47Z</time></trkpt><trkpt lat="42.94257334560933" lon="13.593761250555751"><ele>468.0</ele><time>2026-05-02T10:02:48Z</time></trkpt><trkpt lat="42.94265000170199" lon="13.593995533703286"><ele>464.0</ele><time>2026-05-02T10:02:49Z</time></trkpt><trkpt lat="42.94273300992196" lon="13.594229644631277"><ele>460.0</ele><time>2026-05-02T10:02:50Z</time></trkpt><trkpt lat="42.942810690585226" lon="13.59446539069554"><ele>459.6666666666667</ele><time>2026-05-02T10:02:51Z</time></trkpt><trkpt lat="42.94288440890917" lon="13.594686728603142"><ele>459.33333333333337</ele><time>2026-05-02T10:02:52Z</time></trkpt><trkpt lat="42.94295250864631" lon="13.594898646252386"><ele>459.0</ele><time>2026-05-02T10:02:53Z</time></trkpt><trkpt lat="42.94301720685488" lon="13.595102834346665"><ele>459.0</ele><time>2026-05-02T10:02:54Z</time></trkpt><trkpt lat="42.94307410900426" lon="13.595291165601214"><ele>459.0</ele><time>2026-05-02T10:02:55Z</time></trkpt><trkpt lat="42.94311307942568" lon="13.595474262870281"><ele>459.0</ele><time>2026-05-02T10:02:56Z</time></trkpt><trkpt lat="42.94310612667045" lon="13.595682483406039"><ele>459.0</ele><time>2026-05-02T10:02:57Z</time></trkpt><trkpt lat="42.94308493321085" lon="13.595899291365091"><ele>458.25</ele><time>2026-05-02T10:02:58Z</time></trkpt><trkpt lat="42.94306817298592" lon="13.59608866537527"><ele>457.5</ele><time>2026-05-02T10:02:59Z</time></trkpt><trkpt lat="42.94299732725781" lon="13.596265947880209"><ele>456.75</ele><time>2026-05-02T10:03:00Z</time></trkpt><trkpt lat="42.94292644944775" lon="13.596462971487695"><ele>456.0</ele><time>2026-05-02T10:03:01Z</time></trkpt><trkpt lat="42.94280588070794" lon="13.5966339354619"><ele>452.33333333333337</ele><time>2026-05-02T10:03:02Z</time></trkpt><trkpt lat="42.94269417897491" lon="13.596806320997118"><ele>448.6666666666667</ele><time>2026-05-02T10:03:03Z</time></trkpt><trkpt lat="42.94257327844473" lon="13.596985500804225"><ele>445.0</ele><time>2026-05-02T10:03:04Z</time></trkpt><trkpt lat="42.94247566254266" lon="13.59714689786179"><ele>445.0</ele><time>2026-05-02T10:03:05Z</time></trkpt><trkpt lat="42.942366846115" lon="13.597320646563876"><ele>445.0</ele><time>2026-05-02T10:03:06Z</time></trkpt><trkpt lat="42.94226189554622" lon="13.597469652176725"><ele>445.0</ele><time>2026-05-02T10:03:07Z</time></trkpt><trkpt lat="42.942157873521815" lon="13.597630354747752"><ele>445.0</ele><time>2026-05-02T10:03:08Z</time></trkpt><trkpt lat="42.942058991549814" lon="13.597792185986195"><ele>445.0</ele><time>2026-05-02T10:03:09Z</time></trkpt><trkpt lat="42.94195872471181" lon="13.597939070522983"><ele>445.0</ele><time>2026-05-02T10:03:10Z</time></trkpt><trkpt lat="42.94187576355987" lon="13.598113135094133"><ele>444.6666666666667</ele><time>2026-05-02T10:03:11Z</time></trkpt><trkpt lat="42.9418001630534" lon="13.59828404751516"><ele>444.33333333333337</ele><time>2026-05-02T10:03:12Z</time></trkpt><trkpt lat="42.94171055452628" lon="13.598451971961751"><ele>444.0</ele><time>2026-05-02T10:03:13Z</time></trkpt><trkpt lat="42.94162532633999" lon="13.598635496433504"><ele>442.25</ele><time>2026-05-02T10:03:14Z</time></trkpt><trkpt lat="42.94155103661066" lon="13.598804283917259"><ele>440.5</ele><time>2026-05-02T10:03:15Z</time></trkpt><trkpt lat="42.94149100907463" lon="13.59898343857594"><ele>438.75</ele><time>2026-05-02T10:03:16Z</time></trkpt><trkpt lat="42.941447981644984" lon="13.59916344109159"><ele>437.0</ele><time>2026-05-02T10:03:17Z</time></trkpt><trkpt lat="42.941419186195745" lon="13.599326435805914"><ele>437.0</ele><time>2026-05-02T10:03:18Z</time></trkpt><trkpt lat="42.941386164466245" lon="13.599498516678864"><ele>437.00000000000006</ele><time>2026-05-02T10:03:19Z</time></trkpt><trkpt lat="42.94135511207496" lon="13.599639034712416"><ele>437.00000000000006</ele><time>2026-05-02T10:03:20Z</time></trkpt><trkpt lat="42.941324934745396" lon="13.599754142411452"><ele>437.0</ele><time>2026-05-02T10:03:21Z</time></trkpt><trkpt lat="42.94130471028734" lon="13.599844038624209"><ele>437.0</ele><time>2026-05-02T10:03:22Z</time></trkpt><trkpt lat="42.941302685733916" lon="13.599955191490855"><ele>435.25</ele><time>2026-05-02T10:03:24Z</time></trkpt><trkpt lat="42.94146682183997" lon="13.599912412934643"><ele>433.5</ele><time>2026-05-02T10:03:30Z</time></trkpt><trkpt lat="42.94151290174804" lon="13.599816325923776"><ele>431.75</ele><time>2026-05-02T10:03:31Z</time></trkpt><trkpt lat="42.941579463033484" lon="13.599705150562244"><ele>430.0</ele><time>2026-05-02T10:03:32Z</time></trkpt><trkpt lat="42.94164702590695" lon="13.599587313947481"><ele>426.5</ele><time>2026-05-02T10:03:33Z</time></trkpt><trkpt lat="42.941727312462326" lon="13.599443392849077"><ele>423.0</ele><time>2026-05-02T10:03:34Z</time></trkpt><trkpt lat="42.941810564807945" lon="13.59928435020422"><ele>419.5</ele><time>2026-05-02T10:03:35Z</time></trkpt><trkpt lat="42.94188507924672" lon="13.599113199128094"><ele>416.0</ele><time>2026-05-02T10:03:36Z</time></trkpt><trkpt lat="42.941949958817574" lon="13.598925308208702"><ele>416.0</ele><time>2026-05-02T10:03:37Z</time></trkpt><trkpt lat="42.94200370778503" lon="13.598758162903147"><ele>416.0</ele><time>2026-05-02T10:03:38Z</time></trkpt><trkpt lat="42.94206480342057" lon="13.59861153612822"><ele>416.0</ele><time>2026-05-02T10:03:39Z</time></trkpt><trkpt lat="42.9421509076502" lon="13.598464735318682"><ele>416.0</ele><time>2026-05-02T10:03:40Z</time></trkpt><trkpt lat="42.94225659667542" lon="13.598303657837508"><ele>419.66666666666663</ele><time>2026-05-02T10:03:40.999Z</time></trkpt><trkpt lat="42.94237833374799" lon="13.598120566484667"><ele>423.33333333333337</ele><time>2026-05-02T10:03:41.999Z</time></trkpt><trkpt lat="42.942516068598735" lon="13.597965901403944"><ele>427.0</ele><time>2026-05-02T10:03:42.999Z</time></trkpt><trkpt lat="42.9426594455162" lon="13.597808417534162"><ele>427.0</ele><time>2026-05-02T10:03:43.999Z</time></trkpt><trkpt lat="42.942815968005945" lon="13.597647872815141"><ele>427.0</ele><time>2026-05-02T10:03:44.999Z</time></trkpt><trkpt lat="42.942952915438326" lon="13.597480622327572"><ele>427.0</ele><time>2026-05-02T10:03:45.999Z</time></trkpt><trkpt lat="42.943075245498896" lon="13.597335691011612"><ele>427.0</ele><time>2026-05-02T10:03:46.999Z</time></trkpt><trkpt lat="42.94319283857154" lon="13.59721426551135"><ele>427.0</ele><time>2026-05-02T10:03:47.999Z</time></trkpt><trkpt lat="42.943292500864864" lon="13.597112046682268"><ele>427.0</ele><time>2026-05-02T10:03:48.999Z</time></trkpt><trkpt lat="42.94340137466948" lon="13.597028953758034"><ele>427.0</ele><time>2026-05-02T10:03:49.999Z</time></trkpt><trkpt lat="42.943514463232525" lon="13.596970830545608"><ele>426.5</ele><time>2026-05-02T10:03:50.999Z</time></trkpt><trkpt lat="42.94363083740691" lon="13.596952427890516"><ele>426.0</ele><time>2026-05-02T10:03:51.999Z</time></trkpt><trkpt lat="42.9437516715475" lon="13.596999160356217"><ele>425.5</ele><time>2026-05-02T10:03:52.999Z</time></trkpt><trkpt lat="42.94388635037226" lon="13.597050189199434"><ele>425.0</ele><time>2026-05-02T10:03:53.999Z</time></trkpt><trkpt lat="42.94403429888758" lon="13.597139518783212"><ele>425.0</ele><time>2026-05-02T10:03:54.999Z</time></trkpt><trkpt lat="42.94419468814929" lon="13.597217611225117"><ele>425.0</ele><time>2026-05-02T10:03:55.999Z</time></trkpt><trkpt lat="42.94436480009791" lon="13.597286489749035"><ele>425.0</ele><time>2026-05-02T10:03:56.999Z</time></trkpt><trkpt lat="42.94453079066193" lon="13.597343641579945"><ele>426.0</ele><time>2026-05-02T10:03:57.999Z</time></trkpt><trkpt lat="42.94470557640685" lon="13.59737849711218"><ele>427.0</ele><time>2026-05-02T10:03:58.999Z</time></trkpt><trkpt lat="42.94489055012096" lon="13.597390705797736"><ele>428.0</ele><time>2026-05-02T10:03:59.999Z</time></trkpt><trkpt lat="42.945071083587344" lon="13.597404685506156"><ele>428.0</ele><time>2026-05-02T10:04:00.999Z</time></trkpt><trkpt lat="42.945248710766826" lon="13.59742036165346"><ele>428.0</ele><time>2026-05-02T10:04:01.999Z</time></trkpt><trkpt lat="42.945421526022834" lon="13.597431345879263"><ele>428.0</ele><time>2026-05-02T10:04:02.999Z</time></trkpt><trkpt lat="42.9455860825695" lon="13.597441690599593"><ele>428.0</ele><time>2026-05-02T10:04:03.999Z</time></trkpt><trkpt lat="42.945728908750915" lon="13.597447546708889"><ele>428.0</ele><time>2026-05-02T10:04:04.999Z</time></trkpt><trkpt lat="42.94587174060918" lon="13.59743619918905"><ele>428.0</ele><time>2026-05-02T10:04:05.999Z</time></trkpt><trkpt lat="42.94602079139279" lon="13.597379631594727"><ele>428.0</ele><time>2026-05-02T10:04:06.999Z</time></trkpt><trkpt lat="42.94617726319581" lon="13.597290182109335"><ele>428.0</ele><time>2026-05-02T10:04:07.999Z</time></trkpt><trkpt lat="42.94633717013019" lon="13.597191807780414"><ele>428.0</ele><time>2026-05-02T10:04:09.001Z</time></trkpt><trkpt lat="42.94648841330196" lon="13.597109384941891"><ele>428.0</ele><time>2026-05-02T10:04:10.001Z</time></trkpt><trkpt lat="42.946626356246256" lon="13.597034140204453"><ele>425.75</ele><time>2026-05-02T10:04:11.001Z</time></trkpt><trkpt lat="42.94675586182199" lon="13.596966463261833"><ele>423.5</ele><time>2026-05-02T10:04:12.001Z</time></trkpt><trkpt lat="42.94687673653635" lon="13.596903450603165"><ele>421.25</ele><time>2026-05-02T10:04:13.001Z</time></trkpt><trkpt lat="42.94698645169804" lon="13.5968430585543"><ele>419.0</ele><time>2026-05-02T10:04:14.001Z</time></trkpt><trkpt lat="42.947072704249244" lon="13.596769906038991"><ele>419.0</ele><time>2026-05-02T10:04:15.001Z</time></trkpt><trkpt lat="42.94713967864062" lon="13.596665238585883"><ele>419.0</ele><time>2026-05-02T10:04:16.001Z</time></trkpt><trkpt lat="42.94718065061802" lon="13.596533960669476"><ele>419.0</ele><time>2026-05-02T10:04:17.001Z</time></trkpt><trkpt lat="42.94720557440321" lon="13.596389550316168"><ele>419.0</ele><time>2026-05-02T10:04:18.001Z</time></trkpt><trkpt lat="42.947234380548984" lon="13.59623256295194"><ele>419.0</ele><time>2026-05-02T10:04:19.001Z</time></trkpt><trkpt lat="42.94726864157971" lon="13.5960704794192"><ele>419.25</ele><time>2026-05-02T10:04:20.001Z</time></trkpt><trkpt lat="42.94730771282923" lon="13.595906493060264"><ele>419.5</ele><time>2026-05-02T10:04:21.001Z</time></trkpt><trkpt lat="42.94734163047156" lon="13.59574572889176"><ele>419.75</ele><time>2026-05-02T10:04:22.001Z</time></trkpt><trkpt lat="42.94738413226941" lon="13.59558811029095"><ele>420.0</ele><time>2026-05-02T10:04:23.001Z</time></trkpt><trkpt lat="42.94743832223867" lon="13.595421296834587"><ele>422.25</ele><time>2026-05-02T10:04:24.001Z</time></trkpt><trkpt lat="42.94750856713516" lon="13.595281573303417"><ele>424.5</ele><time>2026-05-02T10:04:25.001Z</time></trkpt><trkpt lat="42.947595448584956" lon="13.595166483791393"><ele>426.75</ele><time>2026-05-02T10:04:26.001Z</time></trkpt><trkpt lat="42.94770392527756" lon="13.595070018205275"><ele>429.0</ele><time>2026-05-02T10:04:27.001Z</time></trkpt><trkpt lat="42.94782933398662" lon="13.59498058535949"><ele>423.0</ele><time>2026-05-02T10:04:28.001Z</time></trkpt><trkpt lat="42.94796708649582" lon="13.594897180084814"><ele>417.0</ele><time>2026-05-02T10:04:29.001Z</time></trkpt><trkpt lat="42.948106506590356" lon="13.594804563395336"><ele>411.0</ele><time>2026-05-02T10:04:30.001Z</time></trkpt><trkpt lat="42.94825273506504" lon="13.59471139793633"><ele>410.5</ele><time>2026-05-02T10:04:31Z</time></trkpt><trkpt lat="42.9483886320085" lon="13.594615625233942"><ele>410.0</ele><time>2026-05-02T10:04:32Z</time></trkpt><trkpt lat="42.948508796209026" lon="13.594513622737859"><ele>409.5</ele><time>2026-05-02T10:04:33Z</time></trkpt><trkpt lat="42.94861900920726" lon="13.594402695822403"><ele>409.0</ele><time>2026-05-02T10:04:34Z</time></trkpt><trkpt lat="42.948731092333034" lon="13.594285629438968"><ele>409.0</ele><time>2026-05-02T10:04:35Z</time></trkpt><trkpt lat="42.948837838450515" lon="13.594171955160288"><ele>409.0</ele><time>2026-05-02T10:04:36Z</time></trkpt><trkpt lat="42.94894763945266" lon="13.594072004772375"><ele>409.0</ele><time>2026-05-02T10:04:37Z</time></trkpt><trkpt lat="42.94904498378493" lon="13.593974110110164"><ele>409.0</ele><time>2026-05-02T10:04:38Z</time></trkpt><trkpt lat="42.949137565962545" lon="13.593882045837834"><ele>408.4</ele><time>2026-05-02T10:04:39Z</time></trkpt><trkpt lat="42.949233539936195" lon="13.593791038827355"><ele>407.79999999999995</ele><time>2026-05-02T10:04:40Z</time></trkpt><trkpt lat="42.9493350279562" lon="13.593732433566306"><ele>407.20000000000005</ele><time>2026-05-02T10:04:41Z</time></trkpt><trkpt lat="42.94944119748012" lon="13.593712430711882"><ele>406.6</ele><time>2026-05-02T10:04:42Z</time></trkpt><trkpt lat="42.94954539265783" lon="13.593733064459405"><ele>406.0</ele><time>2026-05-02T10:04:43Z</time></trkpt><trkpt lat="42.94964667421351" lon="13.593795158527396"><ele>406.0</ele><time>2026-05-02T10:04:44Z</time></trkpt><trkpt lat="42.94976423821687" lon="13.593829094307424"><ele>406.0</ele><time>2026-05-02T10:04:45Z</time></trkpt><trkpt lat="42.94988631241671" lon="13.593884975173905"><ele>406.0</ele><time>2026-05-02T10:04:46Z</time></trkpt><trkpt lat="42.95001535450148" lon="13.59393774835577"><ele>406.0</ele><time>2026-05-02T10:04:47Z</time></trkpt><trkpt lat="42.95014104596343" lon="13.59399188680786"><ele>405.5</ele><time>2026-05-02T10:04:48Z</time></trkpt><trkpt lat="42.95026043247059" lon="13.594042301188052"><ele>405.0</ele><time>2026-05-02T10:04:49Z</time></trkpt><trkpt lat="42.95037010968739" lon="13.594088514010682"><ele>404.5</ele><time>2026-05-02T10:04:50Z</time></trkpt><trkpt lat="42.95047688561383" lon="13.594126652264245"><ele>404.0</ele><time>2026-05-02T10:04:51Z</time></trkpt><trkpt lat="42.95057738979432" lon="13.594166746863019"><ele>404.0</ele><time>2026-05-02T10:04:52Z</time></trkpt><trkpt lat="42.950671339773145" lon="13.594210352216429"><ele>404.0</ele><time>2026-05-02T10:04:53Z</time></trkpt><trkpt lat="42.95074788830707" lon="13.594251981867183"><ele>404.0</ele><time>2026-05-02T10:04:54Z</time></trkpt><trkpt lat="42.95084523168731" lon="13.594309138358566"><ele>404.0</ele><time>2026-05-02T10:04:56Z</time></trkpt><trkpt lat="42.95090977307954" lon="13.594328776174988"><ele>404.0</ele><time>2026-05-02T10:04:59Z</time></trkpt><trkpt lat="42.9510130671543" lon="13.59440369348843"><ele>402.5</ele><time>2026-05-02T10:05:18Z</time></trkpt><trkpt lat="42.95108963561517" lon="13.594457408743752"><ele>401.0</ele><time>2026-05-02T10:05:19Z</time></trkpt><trkpt lat="42.95119076413159" lon="13.59451469285123"><ele>399.5</ele><time>2026-05-02T10:05:20Z</time></trkpt><trkpt lat="42.95129674753146" lon="13.594584075827244"><ele>398.0</ele><time>2026-05-02T10:05:21Z</time></trkpt><trkpt lat="42.951427305062715" lon="13.594655023640252"><ele>397.3333333333333</ele><time>2026-05-02T10:05:22Z</time></trkpt><trkpt lat="42.951567563414166" lon="13.594745935847497"><ele>396.66666666666663</ele><time>2026-05-02T10:05:23Z</time></trkpt><trkpt lat="42.9517087881211" lon="13.594833841303346"><ele>396.0</ele><time>2026-05-02T10:05:24Z</time></trkpt><trkpt lat="42.95185556433823" lon="13.594922835198112"><ele>395.66666666666663</ele><time>2026-05-02T10:05:25Z</time></trkpt><trkpt lat="42.952012881983634" lon="13.59502042965528"><ele>395.3333333333333</ele><time>2026-05-02T10:05:26Z</time></trkpt><trkpt lat="42.9521808138224" lon="13.595131533627331"><ele>395.0</ele><time>2026-05-02T10:05:27Z</time></trkpt><trkpt lat="42.95235041060493" lon="13.595241428612542"><ele>394.66666666666663</ele><time>2026-05-02T10:05:28Z</time></trkpt><trkpt lat="42.95252187893151" lon="13.595353076542791"><ele>394.33333333333337</ele><time>2026-05-02T10:05:29Z</time></trkpt><trkpt lat="42.95269967661806" lon="13.59546770637057"><ele>394.0</ele><time>2026-05-02T10:05:30Z</time></trkpt><trkpt lat="42.952862256500644" lon="13.59558376600326"><ele>395.6666666666667</ele><time>2026-05-02T10:05:31Z</time></trkpt><trkpt lat="42.95300605511621" lon="13.59570458725899"><ele>397.33333333333337</ele><time>2026-05-02T10:05:32Z</time></trkpt><trkpt lat="42.95313996700388" lon="13.59582904225374"><ele>399.0</ele><time>2026-05-02T10:05:33Z</time></trkpt><trkpt lat="42.953259865500264" lon="13.595957274306267"><ele>399.0</ele><time>2026-05-02T10:05:34Z</time></trkpt><trkpt lat="42.953358176816394" lon="13.596082280458267"><ele>399.0</ele><time>2026-05-02T10:05:35Z</time></trkpt><trkpt lat="42.95345999278446" lon="13.596215149606346"><ele>399.0</ele><time>2026-05-02T10:05:36Z</time></trkpt><trkpt lat="42.95354897110479" lon="13.596379249928585"><ele>399.0</ele><time>2026-05-02T10:05:37Z</time></trkpt><trkpt lat="42.95362288884752" lon="13.59656758184274"><ele>399.25</ele><time>2026-05-02T10:05:38Z</time></trkpt><trkpt lat="42.953652857477415" lon="13.596745538708324"><ele>399.5</ele><time>2026-05-02T10:05:39Z</time></trkpt><trkpt lat="42.95369977278887" lon="13.596921353690902"><ele>399.75</ele><time>2026-05-02T10:05:40Z</time></trkpt><trkpt lat="42.95371883848501" lon="13.59712516333179"><ele>400.0</ele><time>2026-05-02T10:05:41Z</time></trkpt><trkpt lat="42.95374361140257" lon="13.597326990332707"><ele>400.0</ele><time>2026-05-02T10:05:42Z</time></trkpt><trkpt lat="42.953777519266374" lon="13.597517636782934"><ele>400.0</ele><time>2026-05-02T10:05:43Z</time></trkpt><trkpt lat="42.95382714297122" lon="13.597670764069612"><ele>400.0</ele><time>2026-05-02T10:05:44Z</time></trkpt><trkpt lat="42.95389250691371" lon="13.597812234970434"><ele>400.0</ele><time>2026-05-02T10:05:45Z</time></trkpt><trkpt lat="42.953967574295866" lon="13.597932703725512"><ele>398.75</ele><time>2026-05-02T10:05:46Z</time></trkpt><trkpt lat="42.95405695238667" lon="13.598046614170887"><ele>397.5</ele><time>2026-05-02T10:05:47Z</time></trkpt><trkpt lat="42.95415354661967" lon="13.598147771023072"><ele>396.25</ele><time>2026-05-02T10:05:48Z</time></trkpt><trkpt lat="42.95426648463404" lon="13.598238244423545"><ele>395.0</ele><time>2026-05-02T10:05:49Z</time></trkpt><trkpt lat="42.954407802534824" lon="13.598315569159878"><ele>395.0</ele><time>2026-05-02T10:05:49.999Z</time></trkpt><trkpt lat="42.954553418659756" lon="13.598389505182395"><ele>395.0</ele><time>2026-05-02T10:05:50.999Z</time></trkpt><trkpt lat="42.95469237803087" lon="13.598452428672106"><ele>395.0</ele><time>2026-05-02T10:05:51.999Z</time></trkpt><trkpt lat="42.95482828972754" lon="13.598524303381954"><ele>395.0</ele><time>2026-05-02T10:05:52.999Z</time></trkpt><trkpt lat="42.954965104955086" lon="13.598611657985872"><ele>393.66666666666663</ele><time>2026-05-02T10:05:53.999Z</time></trkpt><trkpt lat="42.95509846397967" lon="13.598733066012738"><ele>392.33333333333337</ele><time>2026-05-02T10:05:54.999Z</time></trkpt><trkpt lat="42.95523184025446" lon="13.59889318033098"><ele>391.0</ele><time>2026-05-02T10:05:55.999Z</time></trkpt><trkpt lat="42.95537323715733" lon="13.599090111183411"><ele>391.0</ele><time>2026-05-02T10:05:56.999Z</time></trkpt><trkpt lat="42.955523098408655" lon="13.599301270045371"><ele>391.0</ele><time>2026-05-02T10:05:57.999Z</time></trkpt><trkpt lat="42.95567536053551" lon="13.59950746113318"><ele>391.0</ele><time>2026-05-02T10:05:58.999Z</time></trkpt><trkpt lat="42.95583826943961" lon="13.599689251389403"><ele>392.0</ele><time>2026-05-02T10:05:59.999Z</time></trkpt><trkpt lat="42.95601834707284" lon="13.59986476949803"><ele>393.0</ele><time>2026-05-02T10:06:00.999Z</time></trkpt><trkpt lat="42.95620059595891" lon="13.600026386701236"><ele>394.0</ele><time>2026-05-02T10:06:01.999Z</time></trkpt><trkpt lat="42.95636871150303" lon="13.600181266151768"><ele>393.0</ele><time>2026-05-02T10:06:02.999Z</time></trkpt><trkpt lat="42.95653915383211" lon="13.600334032168998"><ele>392.0</ele><time>2026-05-02T10:06:03.999Z</time></trkpt><trkpt lat="42.956718267880596" lon="13.600474325651282"><ele>391.0</ele><time>2026-05-02T10:06:04.999Z</time></trkpt><trkpt lat="42.9568900816326" lon="13.600603360529439"><ele>391.0</ele><time>2026-05-02T10:06:05.999Z</time></trkpt><trkpt lat="42.95704483200053" lon="13.600728333310608"><ele>391.0</ele><time>2026-05-02T10:06:06.999Z</time></trkpt><trkpt lat="42.95717499826026" lon="13.600849930066982"><ele>391.0</ele><time>2026-05-02T10:06:07.999Z</time></trkpt><trkpt lat="42.95727533818363" lon="13.600974580849751"><ele>391.0</ele><time>2026-05-02T10:06:08.999Z</time></trkpt><trkpt lat="42.95735140363152" lon="13.601110851368283"><ele>391.0</ele><time>2026-05-02T10:06:09.999Z</time></trkpt><trkpt lat="42.95740566952717" lon="13.601268626005243"><ele>391.0</ele><time>2026-05-02T10:06:10.999Z</time></trkpt><trkpt lat="42.957449141454106" lon="13.601458843602716"><ele>391.0</ele><time>2026-05-02T10:06:11.999Z</time></trkpt><trkpt lat="42.957482058091934" lon="13.601671528389057"><ele>391.0</ele><time>2026-05-02T10:06:12.999Z</time></trkpt><trkpt lat="42.95747200920962" lon="13.601890508890028"><ele>391.0</ele><time>2026-05-02T10:06:13.999Z</time></trkpt><trkpt lat="42.95744261002779" lon="13.602101746554997"><ele>391.0</ele><time>2026-05-02T10:06:15.001Z</time></trkpt><trkpt lat="42.957401229856636" lon="13.602312736647944"><ele>391.0</ele><time>2026-05-02T10:06:16.001Z</time></trkpt><trkpt lat="42.9573707583523" lon="13.602512326538989"><ele>391.0</ele><time>2026-05-02T10:06:17.001Z</time></trkpt><trkpt lat="42.95732235469437" lon="13.602714958262679"><ele>391.0</ele><time>2026-05-02T10:06:18.001Z</time></trkpt><trkpt lat="42.957296830302575" lon="13.60292804846819"><ele>390.6666666666667</ele><time>2026-05-02T10:06:19.001Z</time></trkpt><trkpt lat="42.95729378564202" lon="13.60312745474715"><ele>390.33333333333337</ele><time>2026-05-02T10:06:20.001Z</time></trkpt><trkpt lat="42.95730777708178" lon="13.60332442265601"><ele>390.0</ele><time>2026-05-02T10:06:21.001Z</time></trkpt><trkpt lat="42.957333612903824" lon="13.603544821691536"><ele>389.0</ele><time>2026-05-02T10:06:22.001Z</time></trkpt><trkpt lat="42.95737004579651" lon="13.603761837667355"><ele>388.0</ele><time>2026-05-02T10:06:23.001Z</time></trkpt><trkpt lat="42.957398101574036" lon="13.603977939255358"><ele>387.0</ele><time>2026-05-02T10:06:24.001Z</time></trkpt><trkpt lat="42.957413662364615" lon="13.604204799205187"><ele>387.0</ele><time>2026-05-02T10:06:25.001Z</time></trkpt><trkpt lat="42.957415226286884" lon="13.604439749611245"><ele>387.0</ele><time>2026-05-02T10:06:26.001Z</time></trkpt><trkpt lat="42.957402870532555" lon="13.604691214021875"><ele>387.0</ele><time>2026-05-02T10:06:27.001Z</time></trkpt><trkpt lat="42.957378965373934" lon="13.604953833883625"><ele>385.3333333333333</ele><time>2026-05-02T10:06:28.001Z</time></trkpt><trkpt lat="42.957358548145166" lon="13.60520043808473"><ele>383.66666666666663</ele><time>2026-05-02T10:06:29.001Z</time></trkpt><trkpt lat="42.957342737765174" lon="13.605428238649113"><ele>382.0</ele><time>2026-05-02T10:06:30.001Z</time></trkpt><trkpt lat="42.95733214348601" lon="13.605626970044854"><ele>381.75</ele><time>2026-05-02T10:06:31.001Z</time></trkpt><trkpt lat="42.957329768508316" lon="13.605793805021804"><ele>381.5</ele><time>2026-05-02T10:06:32.001Z</time></trkpt><trkpt lat="42.95734454886189" lon="13.605945351776631"><ele>381.25</ele><time>2026-05-02T10:06:33.001Z</time></trkpt><trkpt lat="42.9573765163126" lon="13.606089006156244"><ele>381.0</ele><time>2026-05-02T10:06:34.001Z</time></trkpt><trkpt lat="42.95743321942628" lon="13.60621416275036"><ele>380.25</ele><time>2026-05-02T10:06:35.001Z</time></trkpt><trkpt lat="42.957522886647986" lon="13.606339562285953"><ele>379.5</ele><time>2026-05-02T10:06:36Z</time></trkpt><trkpt lat="42.9576452208707" lon="13.606458537182192"><ele>378.75</ele><time>2026-05-02T10:06:37Z</time></trkpt><trkpt lat="42.957786662629076" lon="13.60657578459611"><ele>378.0</ele><time>2026-05-02T10:06:38Z</time></trkpt><trkpt lat="42.95794045759561" lon="13.6067097449341"><ele>378.0</ele><time>2026-05-02T10:06:39Z</time></trkpt><trkpt lat="42.95808976914653" lon="13.606846542136442"><ele>378.0</ele><time>2026-05-02T10:06:40Z</time></trkpt><trkpt lat="42.95823064977286" lon="13.60701203204245"><ele>378.0</ele><time>2026-05-02T10:06:41Z</time></trkpt><trkpt lat="42.9583668769463" lon="13.607168389387553"><ele>375.6666666666667</ele><time>2026-05-02T10:06:42Z</time></trkpt><trkpt lat="42.95850611779199" lon="13.607320491694276"><ele>373.33333333333337</ele><time>2026-05-02T10:06:43Z</time></trkpt><trkpt lat="42.95863724589222" lon="13.607511312311688"><ele>371.0</ele><time>2026-05-02T10:06:44Z</time></trkpt><trkpt lat="42.95876738186416" lon="13.60770943244841"><ele>371.6666666666667</ele><time>2026-05-02T10:06:45Z</time></trkpt><trkpt lat="42.95889163007566" lon="13.607913586637306"><ele>372.3333333333333</ele><time>2026-05-02T10:06:46Z</time></trkpt><trkpt lat="42.959013932424384" lon="13.60814164335483"><ele>373.0</ele><time>2026-05-02T10:06:47Z</time></trkpt><trkpt lat="42.95913543466599" lon="13.608400301294166"><ele>373.0</ele><time>2026-05-02T10:06:48Z</time></trkpt><trkpt lat="42.95924977620411" lon="13.608652362216858"><ele>373.0</ele><time>2026-05-02T10:06:49Z</time></trkpt><trkpt lat="42.95934993953213" lon="13.608886663767718"><ele>373.0</ele><time>2026-05-02T10:06:50Z</time></trkpt><trkpt lat="42.959425462795814" lon="13.60913541119452"><ele>373.0</ele><time>2026-05-02T10:06:51Z</time></trkpt><trkpt lat="42.95947382861892" lon="13.609398132269432"><ele>373.0</ele><time>2026-05-02T10:06:52Z</time></trkpt><trkpt lat="42.9595059421683" lon="13.609675208659182"><ele>373.0</ele><time>2026-05-02T10:06:53Z</time></trkpt><trkpt lat="42.95952207976718" lon="13.60996208559615"><ele>373.66666666666663</ele><time>2026-05-02T10:06:54Z</time></trkpt><trkpt lat="42.959531629888865" lon="13.610256087344286"><ele>374.3333333333333</ele><time>2026-05-02T10:06:55Z</time></trkpt><trkpt lat="42.959546592455816" lon="13.610526611160333"><ele>375.0</ele><time>2026-05-02T10:06:56Z</time></trkpt><trkpt lat="42.95957054161165" lon="13.610772843696944"><ele>375.3333333333333</ele><time>2026-05-02T10:06:57Z</time></trkpt><trkpt lat="42.959611748066926" lon="13.61100065794012"><ele>375.66666666666663</ele><time>2026-05-02T10:06:58Z</time></trkpt><trkpt lat="42.959670911645205" lon="13.611227333302757"><ele>376.0</ele><time>2026-05-02T10:06:59Z</time></trkpt><trkpt lat="42.95973249451022" lon="13.611447129418378"><ele>375.0</ele><time>2026-05-02T10:07:00Z</time></trkpt><trkpt lat="42.959788030380636" lon="13.61167732229959"><ele>374.0</ele><time>2026-05-02T10:07:01Z</time></trkpt><trkpt lat="42.959822997413305" lon="13.611898113191165"><ele>373.0</ele><time>2026-05-02T10:07:02Z</time></trkpt><trkpt lat="42.9598161405837" lon="13.612136162483518"><ele>370.66666666666663</ele><time>2026-05-02T10:07:03Z</time></trkpt><trkpt lat="42.959821665821906" lon="13.612387674914363"><ele>368.3333333333333</ele><time>2026-05-02T10:07:04Z</time></trkpt><trkpt lat="42.959792426705675" lon="13.612625912476513"><ele>366.0</ele><time>2026-05-02T10:07:05Z</time></trkpt><trkpt lat="42.95973681860704" lon="13.612845825683523"><ele>364.6666666666667</ele><time>2026-05-02T10:07:06Z</time></trkpt><trkpt lat="42.95966581146892" lon="13.613059226443756"><ele>363.33333333333337</ele><time>2026-05-02T10:07:07Z</time></trkpt><trkpt lat="42.95957708000799" lon="13.613256794421039"><ele>362.0</ele><time>2026-05-02T10:07:08Z</time></trkpt><trkpt lat="42.959468624192425" lon="13.613426207859623"><ele>362.0</ele><time>2026-05-02T10:07:09Z</time></trkpt><trkpt lat="42.95933649013196" lon="13.613574270406007"><ele>362.0</ele><time>2026-05-02T10:07:10Z</time></trkpt><trkpt lat="42.959195716137714" lon="13.61371397494612"><ele>362.0</ele><time>2026-05-02T10:07:11Z</time></trkpt><trkpt lat="42.95906811372048" lon="13.613850115202093"><ele>361.75</ele><time>2026-05-02T10:07:12Z</time></trkpt><trkpt lat="42.95894548394282" lon="13.61396647237297"><ele>361.5</ele><time>2026-05-02T10:07:13Z</time></trkpt><trkpt lat="42.95883469037135" lon="13.614082842549836"><ele>361.25</ele><time>2026-05-02T10:07:14Z</time></trkpt><trkpt lat="42.958745726325866" lon="13.614186601748644"><ele>361.0</ele><time>2026-05-02T10:07:15Z</time></trkpt><trkpt lat="42.95867461811204" lon="13.614282708355885"><ele>361.0</ele><time>2026-05-02T10:07:16Z</time></trkpt><trkpt lat="42.95862494402064" lon="13.614376550151222"><ele>361.0</ele><time>2026-05-02T10:07:17Z</time></trkpt><trkpt lat="42.95862162291977" lon="13.614519780626628"><ele>361.0</ele><time>2026-05-02T10:07:19Z</time></trkpt><trkpt lat="42.95868143701047" lon="13.614575386846244"><ele>361.0</ele><time>2026-05-02T10:07:21Z</time></trkpt><trkpt lat="42.958788248443724" lon="13.614523012044957"><ele>361.0</ele><time>2026-05-02T10:07:23Z</time></trkpt><trkpt lat="42.958862627549856" lon="13.614445007732973"><ele>361.0</ele><time>2026-05-02T10:07:24Z</time></trkpt><trkpt lat="42.958949599711296" lon="13.614390543406511"><ele>361.0</ele><time>2026-05-02T10:07:25Z</time></trkpt><trkpt lat="42.959063514897345" lon="13.61436538960541"><ele>361.0</ele><time>2026-05-02T10:07:26Z</time></trkpt><trkpt lat="42.959185889360256" lon="13.614333859515614"><ele>361.0</ele><time>2026-05-02T10:07:27Z</time></trkpt><trkpt lat="42.9593151613301" lon="13.614297518906824"><ele>358.75</ele><time>2026-05-02T10:07:28Z</time></trkpt><trkpt lat="42.95946168660697" lon="13.614277246993026"><ele>356.5</ele><time>2026-05-02T10:07:29Z</time></trkpt><trkpt lat="42.95961304471597" lon="13.61423880159407"><ele>354.25</ele><time>2026-05-02T10:07:30Z</time></trkpt><trkpt lat="42.95975095150024" lon="13.61419096898199"><ele>352.0</ele><time>2026-05-02T10:07:31Z</time></trkpt><trkpt lat="42.9598985394067" lon="13.614135115307334"><ele>349.0</ele><time>2026-05-02T10:07:32Z</time></trkpt><trkpt lat="42.960033968793155" lon="13.614072832991432"><ele>346.0</ele><time>2026-05-02T10:07:33Z</time></trkpt><trkpt lat="42.9601636019157" lon="13.613996478157137"><ele>343.0</ele><time>2026-05-02T10:07:34Z</time></trkpt><trkpt lat="42.96028915802271" lon="13.613902318707199"><ele>340.0</ele><time>2026-05-02T10:07:35Z</time></trkpt><trkpt lat="42.960405406469654" lon="13.613804121052128"><ele>340.0</ele><time>2026-05-02T10:07:36Z</time></trkpt><trkpt lat="42.9605130022209" lon="13.61371327044773"><ele>340.0</ele><time>2026-05-02T10:07:37Z</time></trkpt><trkpt lat="42.96062163885904" lon="13.61362280516644"><ele>340.0</ele><time>2026-05-02T10:07:38Z</time></trkpt><trkpt lat="42.96073783076602" lon="13.613522766222637"><ele>340.0</ele><time>2026-05-02T10:07:39Z</time></trkpt><trkpt lat="42.96085527259925" lon="13.613432947883817"><ele>339.0</ele><time>2026-05-02T10:07:40Z</time></trkpt><trkpt lat="42.96098012100195" lon="13.613354776228197"><ele>338.0</ele><time>2026-05-02T10:07:41Z</time></trkpt><trkpt lat="42.96111141868338" lon="13.613295204752397"><ele>337.0</ele><time>2026-05-02T10:07:42Z</time></trkpt><trkpt lat="42.96124088195076" lon="13.613249062598793"><ele>336.0</ele><time>2026-05-02T10:07:43Z</time></trkpt><trkpt lat="42.96137063872521" lon="13.613197403207781"><ele>336.0</ele><time>2026-05-02T10:07:44Z</time></trkpt><trkpt lat="42.96150249946059" lon="13.613141002573139"><ele>336.0</ele><time>2026-05-02T10:07:45Z</time></trkpt><trkpt lat="42.96162637913522" lon="13.613064622232567"><ele>336.0</ele><time>2026-05-02T10:07:46Z</time></trkpt><trkpt lat="42.961741488470004" lon="13.612968171419359"><ele>336.0</ele><time>2026-05-02T10:07:47Z</time></trkpt><trkpt lat="42.96185259874776" lon="13.612839983825316"><ele>333.0</ele><time>2026-05-02T10:07:48Z</time></trkpt><trkpt lat="42.96197360690802" lon="13.612691341783599"><ele>330.0</ele><time>2026-05-02T10:07:49Z</time></trkpt><trkpt lat="42.962105039962104" lon="13.61253702800338"><ele>327.0</ele><time>2026-05-02T10:07:50Z</time></trkpt><trkpt lat="42.962240495746336" lon="13.612380770301472"><ele>327.0</ele><time>2026-05-02T10:07:51Z</time></trkpt><trkpt lat="42.9623743211182" lon="13.612225948176564"><ele>327.0</ele><time>2026-05-02T10:07:52Z</time></trkpt><trkpt lat="42.962502257156565" lon="13.61207382529888"><ele>327.0</ele><time>2026-05-02T10:07:53Z</time></trkpt><trkpt lat="42.96262903464936" lon="13.611922376479928"><ele>323.6666666666667</ele><time>2026-05-02T10:07:53.999Z</time></trkpt><trkpt lat="42.96275657120127" lon="13.611775758770683"><ele>320.33333333333337</ele><time>2026-05-02T10:07:54.999Z</time></trkpt><trkpt lat="42.96287717246504" lon="13.61163937497291"><ele>317.0</ele><time>2026-05-02T10:07:55.999Z</time></trkpt><trkpt lat="42.96298713009017" lon="13.611513535503079"><ele>317.0</ele><time>2026-05-02T10:07:56.999Z</time></trkpt><trkpt lat="42.96309167357534" lon="13.611386584744457"><ele>317.0</ele><time>2026-05-02T10:07:57.999Z</time></trkpt><trkpt lat="42.963191855670345" lon="13.611253113336673"><ele>317.0</ele><time>2026-05-02T10:07:58.999Z</time></trkpt><trkpt lat="42.96328167245624" lon="13.611110788236775"><ele>317.0</ele><time>2026-05-02T10:07:59.999Z</time></trkpt><trkpt lat="42.96335876359869" lon="13.610964918184443"><ele>315.0</ele><time>2026-05-02T10:08:00.999Z</time></trkpt><trkpt lat="42.96342096946012" lon="13.610835891451343"><ele>313.0</ele><time>2026-05-02T10:08:01.999Z</time></trkpt><trkpt lat="42.96348456400765" lon="13.61073048990923"><ele>311.0</ele><time>2026-05-02T10:08:02.999Z</time></trkpt><trkpt lat="42.963561485291294" lon="13.610655737447306"><ele>309.0</ele><time>2026-05-02T10:08:03.999Z</time></trkpt><trkpt lat="42.96366087971794" lon="13.610613169002132"><ele>307.0</ele><time>2026-05-02T10:08:04.999Z</time></trkpt><trkpt lat="42.96377799456481" lon="13.610605754451822"><ele>307.0</ele><time>2026-05-02T10:08:05.999Z</time></trkpt><trkpt lat="42.96388659441852" lon="13.610681748165137"><ele>307.0</ele><time>2026-05-02T10:08:06.999Z</time></trkpt><trkpt lat="42.96401406850714" lon="13.610750818585744"><ele>307.0</ele><time>2026-05-02T10:08:07.999Z</time></trkpt><trkpt lat="42.964136497892106" lon="13.610864917535254"><ele>307.0</ele><time>2026-05-02T10:08:08.999Z</time></trkpt><trkpt lat="42.96426213793382" lon="13.610961097860537"><ele>304.75</ele><time>2026-05-02T10:08:09.999Z</time></trkpt><trkpt lat="42.96437110765949" lon="13.611054280485215"><ele>302.5</ele><time>2026-05-02T10:08:10.999Z</time></trkpt><trkpt lat="42.964498653542556" lon="13.611135446973508"><ele>300.25</ele><time>2026-05-02T10:08:11.999Z</time></trkpt><trkpt lat="42.96464646009099" lon="13.611196376542033"><ele>298.0</ele><time>2026-05-02T10:08:12.999Z</time></trkpt><trkpt lat="42.96482425997935" lon="13.611235877683603"><ele>295.0</ele><time>2026-05-02T10:08:13.999Z</time></trkpt><trkpt lat="42.96497186962309" lon="13.611296475334973"><ele>292.0</ele><time>2026-05-02T10:08:14.999Z</time></trkpt><trkpt lat="42.96515457912221" lon="13.61136825373716"><ele>289.0</ele><time>2026-05-02T10:08:15.999Z</time></trkpt><trkpt lat="42.965350971426986" lon="13.611455377595963"><ele>286.0</ele><time>2026-05-02T10:08:16.999Z</time></trkpt><trkpt lat="42.965528441165446" lon="13.611519422970071"><ele>283.0</ele><time>2026-05-02T10:08:17.999Z</time></trkpt><trkpt lat="42.96570411636795" lon="13.611590216348056"><ele>280.0</ele><time>2026-05-02T10:08:18.999Z</time></trkpt><trkpt lat="42.96586814799106" lon="13.61165933081988"><ele>277.66666666666663</ele><time>2026-05-02T10:08:19.999Z</time></trkpt><trkpt lat="42.96603666093613" lon="13.61172731461683"><ele>275.3333333333333</ele><time>2026-05-02T10:08:21.001Z</time></trkpt><trkpt lat="42.96619374107337" lon="13.611799104366755"><ele>273.0</ele><time>2026-05-02T10:08:22.001Z</time></trkpt><trkpt lat="42.966348624412625" lon="13.611872039939968"><ele>273.0</ele><time>2026-05-02T10:08:23.001Z</time></trkpt><trkpt lat="42.96649169854848" lon="13.611935976092326"><ele>273.0</ele><time>2026-05-02T10:08:24.001Z</time></trkpt><trkpt lat="42.96663134050146" lon="13.611996611160011"><ele>273.0</ele><time>2026-05-02T10:08:25.001Z</time></trkpt><trkpt lat="42.966776293439224" lon="13.612045187926709"><ele>273.0</ele><time>2026-05-02T10:08:26.001Z</time></trkpt><trkpt lat="42.966927787046046" lon="13.61206578343413"><ele>269.75</ele><time>2026-05-02T10:08:27.001Z</time></trkpt><trkpt lat="42.96707750929329" lon="13.61208415282692"><ele>266.5</ele><time>2026-05-02T10:08:28.001Z</time></trkpt><trkpt lat="42.967212753793135" lon="13.61209633008699"><ele>263.25</ele><time>2026-05-02T10:08:29.001Z</time></trkpt><trkpt lat="42.96733051309901" lon="13.612107983315056"><ele>260.0</ele><time>2026-05-02T10:08:30.001Z</time></trkpt><trkpt lat="42.96743248287836" lon="13.612137375816072"><ele>260.0</ele><time>2026-05-02T10:08:31.001Z</time></trkpt><trkpt lat="42.96752673837201" lon="13.612113334402668"><ele>260.0</ele><time>2026-05-02T10:08:32.001Z</time></trkpt><trkpt lat="42.9676139198155" lon="13.612178976933892"><ele>260.0</ele><time>2026-05-02T10:08:34.001Z</time></trkpt><trkpt lat="42.96760734946696" lon="13.612307699904841"><ele>260.0</ele><time>2026-05-02T10:08:37.001Z</time></trkpt><trkpt lat="42.9674713186814" lon="13.612441131299908"><ele>260.0</ele><time>2026-05-02T10:08:39.001Z</time></trkpt><trkpt lat="42.96735563431671" lon="13.612535659030419"><ele>260.0</ele><time>2026-05-02T10:08:40.001Z</time></trkpt><trkpt lat="42.96722505212824" lon="13.612632537718506"><ele>260.0</ele><time>2026-05-02T10:08:41.001Z</time></trkpt><trkpt lat="42.967081177329135" lon="13.612715720380761"><ele>260.0</ele><time>2026-05-02T10:08:42.001Z</time></trkpt><trkpt lat="42.96691382968686" lon="13.61278723067343"><ele>258.33333333333337</ele><time>2026-05-02T10:08:43.001Z</time></trkpt><trkpt lat="42.966743170445056" lon="13.612847650916585"><ele>256.6666666666667</ele><time>2026-05-02T10:08:44Z</time></trkpt><trkpt lat="42.96657280757069" lon="13.612910022337363"><ele>255.0</ele><time>2026-05-02T10:08:45Z</time></trkpt><trkpt lat="42.96639155504482" lon="13.612981043736404"><ele>255.0</ele><time>2026-05-02T10:08:46Z</time></trkpt><trkpt lat="42.96622429565457" lon="13.613048003681666"><ele>255.0</ele><time>2026-05-02T10:08:47Z</time></trkpt><trkpt lat="42.96607364092942" lon="13.613109341305918"><ele>255.0</ele><time>2026-05-02T10:08:48Z</time></trkpt><trkpt lat="42.96594200486727" lon="13.613175322079776"><ele>257.0</ele><time>2026-05-02T10:08:49Z</time></trkpt><trkpt lat="42.96581739497195" lon="13.61328228501595"><ele>259.0</ele><time>2026-05-02T10:08:50Z</time></trkpt><trkpt lat="42.96569406410281" lon="13.613432918421617"><ele>261.0</ele><time>2026-05-02T10:08:51Z</time></trkpt><trkpt lat="42.965569552983155" lon="13.613625349188109"><ele>258.3333333333333</ele><time>2026-05-02T10:08:52Z</time></trkpt><trkpt lat="42.965441819546186" lon="13.613835544173407"><ele>255.66666666666666</ele><time>2026-05-02T10:08:53Z</time></trkpt><trkpt lat="42.96531279545475" lon="13.614051214176875"><ele>253.0</ele><time>2026-05-02T10:08:54Z</time></trkpt><trkpt lat="42.96517842324177" lon="13.614272345349594"><ele>252.33333333333331</ele><time>2026-05-02T10:08:55Z</time></trkpt><trkpt lat="42.965040325306205" lon="13.6145014130347"><ele>251.66666666666669</ele><time>2026-05-02T10:08:56Z</time></trkpt><trkpt lat="42.96490347823249" lon="13.614726484510557"><ele>251.0</ele><time>2026-05-02T10:08:57Z</time></trkpt><trkpt lat="42.96476509452925" lon="13.614954143710985"><ele>251.0</ele><time>2026-05-02T10:08:58Z</time></trkpt><trkpt lat="42.964628863447835" lon="13.615177944131121"><ele>251.0</ele><time>2026-05-02T10:08:59Z</time></trkpt><trkpt lat="42.964500543412065" lon="13.615381243485796"><ele>251.0</ele><time>2026-05-02T10:09:00Z</time></trkpt><trkpt lat="42.96438523848676" lon="13.61556866118227"><ele>250.66666666666669</ele><time>2026-05-02T10:09:01Z</time></trkpt><trkpt lat="42.9642854852578" lon="13.615750661417003"><ele>250.33333333333331</ele><time>2026-05-02T10:09:02Z</time></trkpt><trkpt lat="42.96420205409451" lon="13.615923848660113"><ele>250.0</ele><time>2026-05-02T10:09:03Z</time></trkpt><trkpt lat="42.96414291364089" lon="13.616122971985707"><ele>249.0</ele><time>2026-05-02T10:09:04Z</time></trkpt><trkpt lat="42.96412055098231" lon="13.616352103821526"><ele>248.0</ele><time>2026-05-02T10:09:05Z</time></trkpt><trkpt lat="42.964129486318626" lon="13.61656780699133"><ele>247.0</ele><time>2026-05-02T10:09:06Z</time></trkpt><trkpt lat="42.964169548561046" lon="13.616800570454883"><ele>248.0</ele><time>2026-05-02T10:09:07Z</time></trkpt><trkpt lat="42.964231283979316" lon="13.617060184895488"><ele>249.0</ele><time>2026-05-02T10:09:08Z</time></trkpt><trkpt lat="42.96429140888826" lon="13.617334189232055"><ele>250.0</ele><time>2026-05-02T10:09:09Z</time></trkpt><trkpt lat="42.964342238742105" lon="13.617603118991378"><ele>252.33333333333331</ele><time>2026-05-02T10:09:10Z</time></trkpt><trkpt lat="42.964393580994994" lon="13.617856738113385"><ele>254.66666666666669</ele><time>2026-05-02T10:09:11Z</time></trkpt><trkpt lat="42.964428725188085" lon="13.618071302234238"><ele>257.0</ele><time>2026-05-02T10:09:12Z</time></trkpt><trkpt lat="42.96444967604125" lon="13.618262797461204"><ele>257.0</ele><time>2026-05-02T10:09:13Z</time></trkpt><trkpt lat="42.96444085639575" lon="13.618442057631741"><ele>257.0</ele><time>2026-05-02T10:09:14Z</time></trkpt><trkpt lat="42.96440620733567" lon="13.618632644663554"><ele>257.0</ele><time>2026-05-02T10:09:15Z</time></trkpt><trkpt lat="42.96433577107932" lon="13.618821618863091"><ele>257.0</ele><time>2026-05-02T10:09:16Z</time></trkpt><trkpt lat="42.9642215443531" lon="13.619014557342396"><ele>255.66666666666669</ele><time>2026-05-02T10:09:17Z</time></trkpt><trkpt lat="42.964085492482894" lon="13.619220265000443"><ele>254.33333333333331</ele><time>2026-05-02T10:09:18Z</time></trkpt><trkpt lat="42.96393740892032" lon="13.619423240874106"><ele>253.0</ele><time>2026-05-02T10:09:19Z</time></trkpt><trkpt lat="42.96379425263845" lon="13.61963176641061"><ele>257.66666666666663</ele><time>2026-05-02T10:09:20Z</time></trkpt><trkpt lat="42.963618723149196" lon="13.619812409051601"><ele>262.3333333333333</ele><time>2026-05-02T10:09:21Z</time></trkpt><trkpt lat="42.96348267102953" lon="13.62000841829372"><ele>267.0</ele><time>2026-05-02T10:09:22Z</time></trkpt><trkpt lat="42.9633675545369" lon="13.620194405381833"><ele>263.0</ele><time>2026-05-02T10:09:23Z</time></trkpt><trkpt lat="42.963253259428996" lon="13.620407965571705"><ele>259.0</ele><time>2026-05-02T10:09:24Z</time></trkpt><trkpt lat="42.96316243997513" lon="13.620670804803995"><ele>255.0</ele><time>2026-05-02T10:09:25Z</time></trkpt><trkpt lat="42.96306802583498" lon="13.620933218930146"><ele>257.6666666666667</ele><time>2026-05-02T10:09:26Z</time></trkpt><trkpt lat="42.96297987826192" lon="13.621177231557386"><ele>260.33333333333337</ele><time>2026-05-02T10:09:27Z</time></trkpt><trkpt lat="42.962879074758774" lon="13.621424830347076"><ele>263.0</ele><time>2026-05-02T10:09:28Z</time></trkpt><trkpt lat="42.96279040792503" lon="13.621645438401732"><ele>263.0</ele><time>2026-05-02T10:09:29Z</time></trkpt><trkpt lat="42.96272417598631" lon="13.621819375605526"><ele>263.0</ele><time>2026-05-02T10:09:30Z</time></trkpt><trkpt lat="42.962675942364875" lon="13.621963468414297"><ele>263.0</ele><time>2026-05-02T10:09:31Z</time></trkpt><trkpt lat="42.96265152554908" lon="13.622133956068135"><ele>263.0</ele><time>2026-05-02T10:09:32Z</time></trkpt><trkpt lat="42.96263854462482" lon="13.62235834879093"><ele>265.6666666666667</ele><time>2026-05-02T10:09:33Z</time></trkpt><trkpt lat="42.96261077735675" lon="13.62261534282683"><ele>268.3333333333333</ele><time>2026-05-02T10:09:34Z</time></trkpt><trkpt lat="42.962580719825795" lon="13.62288128845994"><ele>271.0</ele><time>2026-05-02T10:09:35Z</time></trkpt><trkpt lat="42.96253323103141" lon="13.623114631948898"><ele>265.3333333333333</ele><time>2026-05-02T10:09:36Z</time></trkpt><trkpt lat="42.962446004008605" lon="13.623328765511058"><ele>259.6666666666667</ele><time>2026-05-02T10:09:37Z</time></trkpt><trkpt lat="42.96233681988247" lon="13.623532545690164"><ele>254.0</ele><time>2026-05-02T10:09:38Z</time></trkpt><trkpt lat="42.96222702513867" lon="13.623698687374974"><ele>254.0</ele><time>2026-05-02T10:09:39Z</time></trkpt><trkpt lat="42.96214667120084" lon="13.62387614238312"><ele>254.0</ele><time>2026-05-02T10:09:40Z</time></trkpt><trkpt lat="42.96209518833607" lon="13.624071924449057"><ele>254.0</ele><time>2026-05-02T10:09:41Z</time></trkpt><trkpt lat="42.96206886848352" lon="13.624309599823397"><ele>254.33333333333334</ele><time>2026-05-02T10:09:42Z</time></trkpt><trkpt lat="42.96206182238222" lon="13.624589458203896"><ele>254.66666666666669</ele><time>2026-05-02T10:09:43Z</time></trkpt><trkpt lat="42.96205449239915" lon="13.624888040887122"><ele>255.0</ele><time>2026-05-02T10:09:44Z</time></trkpt><trkpt lat="42.96201161674648" lon="13.625166707444528"><ele>254.5</ele><time>2026-05-02T10:09:45Z</time></trkpt><trkpt lat="42.961969617391325" lon="13.625466493981833"><ele>254.0</ele><time>2026-05-02T10:09:46Z</time></trkpt><trkpt lat="42.961891823895975" lon="13.625763208133627"><ele>254.0</ele><time>2026-05-02T10:09:47Z</time></trkpt><trkpt lat="42.961819507573125" lon="13.626045017771816"><ele>254.0</ele><time>2026-05-02T10:09:48Z</time></trkpt><trkpt lat="42.96175839959313" lon="13.626290423276195"><ele>254.0</ele><time>2026-05-02T10:09:49Z</time></trkpt><trkpt lat="42.96170246859383" lon="13.626544054793463"><ele>248.66666666666669</ele><time>2026-05-02T10:09:50Z</time></trkpt><trkpt lat="42.96166706091512" lon="13.62680251637132"><ele>243.33333333333331</ele><time>2026-05-02T10:09:51Z</time></trkpt><trkpt lat="42.96164112530553" lon="13.627062717626192"><ele>238.0</ele><time>2026-05-02T10:09:52Z</time></trkpt><trkpt lat="42.96163661609748" lon="13.627350892399503"><ele>238.33333333333331</ele><time>2026-05-02T10:09:53Z</time></trkpt><trkpt lat="42.961650302119644" lon="13.627641579351936"><ele>238.66666666666669</ele><time>2026-05-02T10:09:54Z</time></trkpt><trkpt lat="42.9616781865239" lon="13.627941194499513"><ele>239.0</ele><time>2026-05-02T10:09:55Z</time></trkpt><trkpt lat="42.9617100419204" lon="13.628257396318833"><ele>239.0</ele><time>2026-05-02T10:09:56Z</time></trkpt><trkpt lat="42.96173201206966" lon="13.62858406866017"><ele>239.0</ele><time>2026-05-02T10:09:57Z</time></trkpt><trkpt lat="42.96175392557553" lon="13.628914085429926"><ele>239.66666666666669</ele><time>2026-05-02T10:09:58Z</time></trkpt><trkpt lat="42.9617812749711" lon="13.629219665054684"><ele>240.33333333333331</ele><time>2026-05-02T10:09:59Z</time></trkpt><trkpt lat="42.96180472614182" lon="13.629520797824256"><ele>241.0</ele><time>2026-05-02T10:10:00Z</time></trkpt><trkpt lat="42.96182650700705" lon="13.629800639673006"><ele>241.33333333333331</ele><time>2026-05-02T10:10:00.999Z</time></trkpt><trkpt lat="42.96185904389582" lon="13.630082343676385"><ele>241.66666666666669</ele><time>2026-05-02T10:10:01.999Z</time></trkpt><trkpt lat="42.961906483527315" lon="13.63037474611092"><ele>242.0</ele><time>2026-05-02T10:10:02.999Z</time></trkpt><trkpt lat="42.96195690300971" lon="13.630665662173344"><ele>240.66666666666669</ele><time>2026-05-02T10:10:03.999Z</time></trkpt><trkpt lat="42.962007611158135" lon="13.630936857834687"><ele>239.33333333333331</ele><time>2026-05-02T10:10:04.999Z</time></trkpt><trkpt lat="42.962068998587334" lon="13.631211159498738"><ele>238.0</ele><time>2026-05-02T10:10:05.999Z</time></trkpt><trkpt lat="42.96215208687135" lon="13.631502636282683"><ele>236.33333333333331</ele><time>2026-05-02T10:10:06.999Z</time></trkpt><trkpt lat="42.962244146437676" lon="13.631788842997349"><ele>234.66666666666669</ele><time>2026-05-02T10:10:07.999Z</time></trkpt><trkpt lat="42.96232800850858" lon="13.632046370471759"><ele>233.0</ele><time>2026-05-02T10:10:08.999Z</time></trkpt><trkpt lat="42.962397873003574" lon="13.63227167969542"><ele>232.0</ele><time>2026-05-02T10:10:09.999Z</time></trkpt><trkpt lat="42.96245957205506" lon="13.632461990856369"><ele>231.0</ele><time>2026-05-02T10:10:10.999Z</time></trkpt><trkpt lat="42.96253049047142" lon="13.632630921428134"><ele>230.0</ele><time>2026-05-02T10:10:11.999Z</time></trkpt><trkpt lat="42.96263638297022" lon="13.632790761396654"><ele>230.66666666666669</ele><time>2026-05-02T10:10:12.999Z</time></trkpt><trkpt lat="42.96277842992969" lon="13.632944730007571"><ele>231.33333333333331</ele><time>2026-05-02T10:10:13.999Z</time></trkpt><trkpt lat="42.96292705909463" lon="13.63308830583031"><ele>232.0</ele><time>2026-05-02T10:10:14.999Z</time></trkpt><trkpt lat="42.96306977017752" lon="13.633212966283176"><ele>232.0</ele><time>2026-05-02T10:10:15.999Z</time></trkpt><trkpt lat="42.96318604439429" lon="13.633366209224278"><ele>232.0</ele><time>2026-05-02T10:10:16.999Z</time></trkpt><trkpt lat="42.963275637053364" lon="13.633558012150806"><ele>232.0</ele><time>2026-05-02T10:10:17.999Z</time></trkpt><trkpt lat="42.96335437012511" lon="13.633783239864716"><ele>235.33333333333331</ele><time>2026-05-02T10:10:18.999Z</time></trkpt><trkpt lat="42.963423394761776" lon="13.634025443400192"><ele>238.66666666666669</ele><time>2026-05-02T10:10:19.999Z</time></trkpt><trkpt lat="42.963467834767954" lon="13.634241084574636"><ele>242.0</ele><time>2026-05-02T10:10:20.999Z</time></trkpt><trkpt lat="42.96350932663428" lon="13.634427666113123"><ele>237.66666666666669</ele><time>2026-05-02T10:10:21.999Z</time></trkpt><trkpt lat="42.96357327470902" lon="13.634618246593739"><ele>233.33333333333331</ele><time>2026-05-02T10:10:22.999Z</time></trkpt><trkpt lat="42.963671990407974" lon="13.63480824399202"><ele>229.0</ele><time>2026-05-02T10:10:23.999Z</time></trkpt><trkpt lat="42.96380835909816" lon="13.63500366614835"><ele>229.0</ele><time>2026-05-02T10:10:24.999Z</time></trkpt><trkpt lat="42.9639757413562" lon="13.635174654439453"><ele>229.0</ele><time>2026-05-02T10:10:25.999Z</time></trkpt><trkpt lat="42.96414412660477" lon="13.63535624215834"><ele>229.0</ele><time>2026-05-02T10:10:27.001Z</time></trkpt><trkpt lat="42.96432835580692" lon="13.635538539459654"><ele>229.0</ele><time>2026-05-02T10:10:28.001Z</time></trkpt><trkpt lat="42.96451573148599" lon="13.635760690538154"><ele>229.0</ele><time>2026-05-02T10:10:29.001Z</time></trkpt><trkpt lat="42.964711213799674" lon="13.635965919028237"><ele>229.5</ele><time>2026-05-02T10:10:30.001Z</time></trkpt><trkpt lat="42.96490076225216" lon="13.636170795785793"><ele>230.0</ele><time>2026-05-02T10:10:31.001Z</time></trkpt><trkpt lat="42.96509181909239" lon="13.636390451387728"><ele>230.0</ele><time>2026-05-02T10:10:32.001Z</time></trkpt><trkpt lat="42.96527996320324" lon="13.636597029176452"><ele>230.0</ele><time>2026-05-02T10:10:33.001Z</time></trkpt><trkpt lat="42.96545561121577" lon="13.63679068505278"><ele>227.66666666666669</ele><time>2026-05-02T10:10:34.001Z</time></trkpt><trkpt lat="42.96562099889386" lon="13.636970926213971"><ele>225.33333333333331</ele><time>2026-05-02T10:10:35.001Z</time></trkpt><trkpt lat="42.96577930905018" lon="13.63713326712039"><ele>223.0</ele><time>2026-05-02T10:10:36.001Z</time></trkpt><trkpt lat="42.96594890965675" lon="13.637268470261185"><ele>223.0</ele><time>2026-05-02T10:10:37.001Z</time></trkpt><trkpt lat="42.96614825405862" lon="13.637382939990655"><ele>223.0</ele><time>2026-05-02T10:10:38.001Z</time></trkpt><trkpt lat="42.966337851314265" lon="13.637500863437973"><ele>223.0</ele><time>2026-05-02T10:10:39.001Z</time></trkpt><trkpt lat="42.9665047697168" lon="13.637620199642912"><ele>223.0</ele><time>2026-05-02T10:10:40.001Z</time></trkpt><trkpt lat="42.966653488170756" lon="13.637744968352747"><ele>223.0</ele><time>2026-05-02T10:10:41.001Z</time></trkpt><trkpt lat="42.966797840644716" lon="13.637889827007944"><ele>223.0</ele><time>2026-05-02T10:10:42.001Z</time></trkpt><trkpt lat="42.96693475129918" lon="13.63807100866023"><ele>223.66666666666666</ele><time>2026-05-02T10:10:43.001Z</time></trkpt><trkpt lat="42.96706073477159" lon="13.638274013624036"><ele>224.33333333333331</ele><time>2026-05-02T10:10:44.001Z</time></trkpt><trkpt lat="42.967184904773404" lon="13.638477110641608"><ele>225.0</ele><time>2026-05-02T10:10:45.001Z</time></trkpt><trkpt lat="42.96731599869752" lon="13.638681252469711"><ele>227.0</ele><time>2026-05-02T10:10:46.001Z</time></trkpt><trkpt lat="42.96746885963965" lon="13.638878336353836"><ele>229.0</ele><time>2026-05-02T10:10:47.001Z</time></trkpt><trkpt lat="42.967642978886296" lon="13.639055240026117"><ele>231.0</ele><time>2026-05-02T10:10:48.001Z</time></trkpt><trkpt lat="42.96782194260051" lon="13.63922891937078"><ele>231.0</ele><time>2026-05-02T10:10:49.001Z</time></trkpt><trkpt lat="42.96799752428929" lon="13.639402920891918"><ele>231.0</ele><time>2026-05-02T10:10:50Z</time></trkpt><trkpt lat="42.96817108218372" lon="13.639581434276836"><ele>231.0</ele><time>2026-05-02T10:10:51Z</time></trkpt><trkpt lat="42.96834832260829" lon="13.63976402912307"><ele>231.0</ele><time>2026-05-02T10:10:52Z</time></trkpt><trkpt lat="42.96853333334948" lon="13.63994899828408"><ele>231.0</ele><time>2026-05-02T10:10:53Z</time></trkpt><trkpt lat="42.96870288077087" lon="13.64011766063614"><ele>231.0</ele><time>2026-05-02T10:10:54Z</time></trkpt><trkpt lat="42.968861298086125" lon="13.640284673197737"><ele>230.0</ele><time>2026-05-02T10:10:55Z</time></trkpt><trkpt lat="42.9690127802315" lon="13.640470728997068"><ele>229.0</ele><time>2026-05-02T10:10:56Z</time></trkpt><trkpt lat="42.96915489891912" lon="13.64069145249592"><ele>228.0</ele><time>2026-05-02T10:10:57Z</time></trkpt><trkpt lat="42.969279809734516" lon="13.640924111739356"><ele>225.33333333333331</ele><time>2026-05-02T10:10:58Z</time></trkpt><trkpt lat="42.969384113721325" lon="13.64114880796631"><ele>222.66666666666666</ele><time>2026-05-02T10:10:59Z</time></trkpt><trkpt lat="42.96947596366133" lon="13.641383778098858"><ele>220.0</ele><time>2026-05-02T10:11:00Z</time></trkpt><trkpt lat="42.96954367205741" lon="13.641647337169047"><ele>220.0</ele><time>2026-05-02T10:11:01Z</time></trkpt><trkpt lat="42.969604225084964" lon="13.641937635860359"><ele>220.0</ele><time>2026-05-02T10:11:02Z</time></trkpt><trkpt lat="42.969663338059554" lon="13.642245127332293"><ele>218.5</ele><time>2026-05-02T10:11:03Z</time></trkpt><trkpt lat="42.96971824753258" lon="13.642567587949252"><ele>217.0</ele><time>2026-05-02T10:11:04Z</time></trkpt><trkpt lat="42.96976586018304" lon="13.642872561491318"><ele>214.0</ele><time>2026-05-02T10:11:05Z</time></trkpt><trkpt lat="42.96981331103755" lon="13.643177079810762"><ele>211.0</ele><time>2026-05-02T10:11:05.999Z</time></trkpt><trkpt lat="42.96986046241182" lon="13.643473680372745"><ele>210.33333333333331</ele><time>2026-05-02T10:11:06.999Z</time></trkpt><trkpt lat="42.969904234220884" lon="13.643750738018909"><ele>209.66666666666669</ele><time>2026-05-02T10:11:07.999Z</time></trkpt><trkpt lat="42.96995215805274" lon="13.644012362906926"><ele>209.0</ele><time>2026-05-02T10:11:08.999Z</time></trkpt><trkpt lat="42.97002111969701" lon="13.64427126611984"><ele>210.33333333333334</ele><time>2026-05-02T10:11:09.999Z</time></trkpt><trkpt lat="42.97011288425145" lon="13.644520110628996"><ele>211.66666666666669</ele><time>2026-05-02T10:11:10.999Z</time></trkpt><trkpt lat="42.970221453896684" lon="13.64475361321365"><ele>213.0</ele><time>2026-05-02T10:11:11.999Z</time></trkpt><trkpt lat="42.970320890890264" lon="13.644998087507064"><ele>213.0</ele><time>2026-05-02T10:11:12.999Z</time></trkpt><trkpt lat="42.970427336303885" lon="13.645250842561"><ele>213.0</ele><time>2026-05-02T10:11:13.999Z</time></trkpt><trkpt lat="42.970620487897996" lon="13.645430483445157"><ele>213.0</ele><time>2026-05-02T10:11:14.999Z</time></trkpt><trkpt lat="42.97075501862693" lon="13.645623976661795"><ele>216.33333333333331</ele><time>2026-05-02T10:11:15.999Z</time></trkpt><trkpt lat="42.97087203921121" lon="13.64579345584951"><ele>219.66666666666666</ele><time>2026-05-02T10:11:16.999Z</time></trkpt><trkpt lat="42.970976091012695" lon="13.645955694065758"><ele>223.0</ele><time>2026-05-02T10:11:17.999Z</time></trkpt><trkpt lat="42.9710587257507" lon="13.646120467977283"><ele>221.33333333333331</ele><time>2026-05-02T10:11:18.999Z</time></trkpt><trkpt lat="42.97111786056382" lon="13.64630683793866"><ele>219.66666666666669</ele><time>2026-05-02T10:11:19.999Z</time></trkpt><trkpt lat="42.97113790114379" lon="13.646520714172496"><ele>218.0</ele><time>2026-05-02T10:11:20.999Z</time></trkpt><trkpt lat="42.97111241534227" lon="13.646747161465772"><ele>217.66666666666669</ele><time>2026-05-02T10:11:21.999Z</time></trkpt><trkpt lat="42.971069057018305" lon="13.646983984808797"><ele>217.33333333333331</ele><time>2026-05-02T10:11:22.999Z</time></trkpt><trkpt lat="42.971006519280344" lon="13.647242147784278"><ele>217.0</ele><time>2026-05-02T10:11:23.999Z</time></trkpt><trkpt lat="42.97095784577204" lon="13.647510072531695"><ele>217.0</ele><time>2026-05-02T10:11:24.999Z</time></trkpt><trkpt lat="42.970927784399954" lon="13.647754843226076"><ele>217.0</ele><time>2026-05-02T10:11:25.999Z</time></trkpt><trkpt lat="42.97090588272369" lon="13.647994076836166"><ele>217.0</ele><time>2026-05-02T10:11:26.999Z</time></trkpt><trkpt lat="42.9709013816315" lon="13.648254142962514"><ele>217.66666666666666</ele><time>2026-05-02T10:11:27.999Z</time></trkpt><trkpt lat="42.97091259325064" lon="13.64853712899552"><ele>218.33333333333331</ele><time>2026-05-02T10:11:28.999Z</time></trkpt><trkpt lat="42.97093378754477" lon="13.6488341396972"><ele>219.0</ele><time>2026-05-02T10:11:29.999Z</time></trkpt><trkpt lat="42.97095152078108" lon="13.649130570514348"><ele>219.0</ele><time>2026-05-02T10:11:30.999Z</time></trkpt><trkpt lat="42.97096824472964" lon="13.649399606699873"><ele>219.0</ele><time>2026-05-02T10:11:31.999Z</time></trkpt><trkpt lat="42.97099802795803" lon="13.64964100616485"><ele>219.0</ele><time>2026-05-02T10:11:32.999Z</time></trkpt><trkpt lat="42.9710633318335" lon="13.649885540563684"><ele>217.0</ele><time>2026-05-02T10:11:33.999Z</time></trkpt><trkpt lat="42.97115783143708" lon="13.650147292864478"><ele>215.0</ele><time>2026-05-02T10:11:34.999Z</time></trkpt><trkpt lat="42.97126178467491" lon="13.650436003936383"><ele>213.0</ele><time>2026-05-02T10:11:35.999Z</time></trkpt><trkpt lat="42.971365288297726" lon="13.65074084236626"><ele>209.0</ele><time>2026-05-02T10:11:36.999Z</time></trkpt><trkpt lat="42.97146598168523" lon="13.651043258178882"><ele>205.0</ele><time>2026-05-02T10:11:37.999Z</time></trkpt><trkpt lat="42.97157030471989" lon="13.65135783477694"><ele>202.5</ele><time>2026-05-02T10:11:38.999Z</time></trkpt><trkpt lat="42.9716737396542" lon="13.65167868509915"><ele>200.0</ele><time>2026-05-02T10:11:39.999Z</time></trkpt><trkpt lat="42.97177684685117" lon="13.652009286405647"><ele>205.0</ele><time>2026-05-02T10:11:40.999Z</time></trkpt><trkpt lat="42.971869421306955" lon="13.652329362246393"><ele>210.0</ele><time>2026-05-02T10:11:41.999Z</time></trkpt><trkpt lat="42.97196082063479" lon="13.652631572137347"><ele>207.0</ele><time>2026-05-02T10:11:42.999Z</time></trkpt><trkpt lat="42.97205809137965" lon="13.652933407641461"><ele>204.0</ele><time>2026-05-02T10:11:43.999Z</time></trkpt><trkpt lat="42.97215818479422" lon="13.653214914430128"><ele>204.0</ele><time>2026-05-02T10:11:44.999Z</time></trkpt><trkpt lat="42.97225597466218" lon="13.653468489997929"><ele>204.0</ele><time>2026-05-02T10:11:45.999Z</time></trkpt><trkpt lat="42.97234663371743" lon="13.653712428399956"><ele>204.0</ele><time>2026-05-02T10:11:46.999Z</time></trkpt><trkpt lat="42.97241132025726" lon="13.65394424595537"><ele>202.33333333333331</ele><time>2026-05-02T10:11:47.999Z</time></trkpt><trkpt lat="42.972440228729006" lon="13.654176793605465"><ele>200.66666666666666</ele><time>2026-05-02T10:11:48.999Z</time></trkpt><trkpt lat="42.97244827975743" lon="13.654420323664231"><ele>199.0</ele><time>2026-05-02T10:11:49.999Z</time></trkpt><trkpt lat="42.97242615806034" lon="13.654680337104008"><ele>198.0</ele><time>2026-05-02T10:11:50.999Z</time></trkpt><trkpt lat="42.97239414403688" lon="13.654956309785687"><ele>197.0</ele><time>2026-05-02T10:11:51.999Z</time></trkpt><trkpt lat="42.97236087805206" lon="13.65525629039422"><ele>196.0</ele><time>2026-05-02T10:11:52.999Z</time></trkpt><trkpt lat="42.9723345600163" lon="13.655574364229828"><ele>195.5</ele><time>2026-05-02T10:11:53.999Z</time></trkpt><trkpt lat="42.97231006099392" lon="13.655897219537652"><ele>195.0</ele><time>2026-05-02T10:11:54.999Z</time></trkpt><trkpt lat="42.972288367191695" lon="13.656207037604826"><ele>195.0</ele><time>2026-05-02T10:11:55.999Z</time></trkpt><trkpt lat="42.97226426660753" lon="13.656491321079656"><ele>195.0</ele><time>2026-05-02T10:11:56.999Z</time></trkpt><trkpt lat="42.97223781150096" lon="13.656776473341031"><ele>195.0</ele><time>2026-05-02T10:11:57.999Z</time></trkpt><trkpt lat="42.97221377569412" lon="13.657073898386207"><ele>196.0</ele><time>2026-05-02T10:11:58.999Z</time></trkpt><trkpt lat="42.97219792282857" lon="13.657377921768235"><ele>197.0</ele><time>2026-05-02T10:11:59.999Z</time></trkpt><trkpt lat="42.97219330055605" lon="13.657695590638967"><ele>197.5</ele><time>2026-05-02T10:12:00.999Z</time></trkpt><trkpt lat="42.97221081687576" lon="13.658025810192784"><ele>198.0</ele><time>2026-05-02T10:12:01.999Z</time></trkpt><trkpt lat="42.97222251791072" lon="13.658326752683775"><ele>198.0</ele><time>2026-05-02T10:12:02.999Z</time></trkpt><trkpt lat="42.9722319135001" lon="13.658605762334922"><ele>198.0</ele><time>2026-05-02T10:12:03.999Z</time></trkpt><trkpt lat="42.97224330458697" lon="13.658874462154815"><ele>198.0</ele><time>2026-05-02T10:12:04.998Z</time></trkpt><trkpt lat="42.97225379358712" lon="13.659130990335292"><ele>197.33333333333331</ele><time>2026-05-02T10:12:05.998Z</time></trkpt><trkpt lat="42.97226232923485" lon="13.659370856804824"><ele>196.66666666666666</ele><time>2026-05-02T10:12:06.998Z</time></trkpt><trkpt lat="42.97227197532259" lon="13.659594912325378"><ele>196.0</ele><time>2026-05-02T10:12:07.998Z</time></trkpt><trkpt lat="42.97228014050453" lon="13.659808934926906"><ele>195.66666666666666</ele><time>2026-05-02T10:12:08.998Z</time></trkpt><trkpt lat="42.97228579019288" lon="13.660006339779411"><ele>195.33333333333331</ele><time>2026-05-02T10:12:09.998Z</time></trkpt><trkpt lat="42.97229834289928" lon="13.660220618268058"><ele>195.0</ele><time>2026-05-02T10:12:10.998Z</time></trkpt><trkpt lat="42.9723035107061" lon="13.660442949288045"><ele>195.0</ele><time>2026-05-02T10:12:11.998Z</time></trkpt><trkpt lat="42.97231079712849" lon="13.660670717685699"><ele>195.0</ele><time>2026-05-02T10:12:12.998Z</time></trkpt><trkpt lat="42.97231142030881" lon="13.660908486502098"><ele>195.0</ele><time>2026-05-02T10:12:13.998Z</time></trkpt><trkpt lat="42.972310492884176" lon="13.661152424490306"><ele>194.0</ele><time>2026-05-02T10:12:14.998Z</time></trkpt><trkpt lat="42.972295947150826" lon="13.661402471461763"><ele>193.0</ele><time>2026-05-02T10:12:15.998Z</time></trkpt><trkpt lat="42.972268620429894" lon="13.66165109803363"><ele>192.0</ele><time>2026-05-02T10:12:16.998Z</time></trkpt><trkpt lat="42.97224150700787" lon="13.661879178573022"><ele>192.25</ele><time>2026-05-02T10:12:17.998Z</time></trkpt><trkpt lat="42.97219938409716" lon="13.662085731672473"><ele>192.5</ele><time>2026-05-02T10:12:18.998Z</time></trkpt><trkpt lat="42.97219238552278" lon="13.662282014182209"><ele>192.75</ele><time>2026-05-02T10:12:19.998Z</time></trkpt><trkpt lat="42.97216846310967" lon="13.662461212300844"><ele>193.0</ele><time>2026-05-02T10:12:20.998Z</time></trkpt><trkpt lat="42.97213509422122" lon="13.662627934715987"><ele>194.75</ele><time>2026-05-02T10:12:21.998Z</time></trkpt><trkpt lat="42.97210627933938" lon="13.662790081019626"><ele>196.5</ele><time>2026-05-02T10:12:22.998Z</time></trkpt><trkpt lat="42.97206796808691" lon="13.662970528411135"><ele>198.25</ele><time>2026-05-02T10:12:23.998Z</time></trkpt><trkpt lat="42.97201544535442" lon="13.663176444888235"><ele>200.0</ele><time>2026-05-02T10:12:24.998Z</time></trkpt><trkpt lat="42.97194450655582" lon="13.663405354889605"><ele>201.66666666666669</ele><time>2026-05-02T10:12:25.998Z</time></trkpt><trkpt lat="42.97186699327219" lon="13.663646796130378"><ele>203.33333333333331</ele><time>2026-05-02T10:12:26.998Z</time></trkpt><trkpt lat="42.97179016086654" lon="13.663879423198575"><ele>205.0</ele><time>2026-05-02T10:12:27.998Z</time></trkpt><trkpt lat="42.97172568136112" lon="13.664085435558812"><ele>200.0</ele><time>2026-05-02T10:12:28.998Z</time></trkpt><trkpt lat="42.971679264370934" lon="13.664302332515096"><ele>195.0</ele><time>2026-05-02T10:12:29.998Z</time></trkpt><trkpt lat="42.971609851231136" lon="13.664496824647383"><ele>190.0</ele><time>2026-05-02T10:12:30.998Z</time></trkpt><trkpt lat="42.971576657345686" lon="13.664709414980853"><ele>190.0</ele><time>2026-05-02T10:12:31.998Z</time></trkpt><trkpt lat="42.9715351062444" lon="13.664921862903162"><ele>190.0</ele><time>2026-05-02T10:12:33Z</time></trkpt><trkpt lat="42.971501830799596" lon="13.665138916660245"><ele>190.0</ele><time>2026-05-02T10:12:34Z</time></trkpt><trkpt lat="42.9714587353444" lon="13.66534101900204"><ele>190.0</ele><time>2026-05-02T10:12:35Z</time></trkpt><trkpt lat="42.97145608537741" lon="13.665556036843535"><ele>190.0</ele><time>2026-05-02T10:12:36Z</time></trkpt><trkpt lat="42.97142785318089" lon="13.66575583961711"><ele>190.0</ele><time>2026-05-02T10:12:37Z</time></trkpt><trkpt lat="42.97141878671854" lon="13.66596773188312"><ele>191.5</ele><time>2026-05-02T10:12:38Z</time></trkpt><trkpt lat="42.97141218284701" lon="13.666169094419311"><ele>193.0</ele><time>2026-05-02T10:12:39Z</time></trkpt><trkpt lat="42.97142715536181" lon="13.666360118856465"><ele>194.5</ele><time>2026-05-02T10:12:40Z</time></trkpt><trkpt lat="42.97142317770985" lon="13.66655807406003"><ele>196.0</ele><time>2026-05-02T10:12:41Z</time></trkpt><trkpt lat="42.97139919221876" lon="13.666759424565573"><ele>196.66666666666666</ele><time>2026-05-02T10:12:42Z</time></trkpt><trkpt lat="42.97138316693262" lon="13.666966591296685"><ele>197.33333333333331</ele><time>2026-05-02T10:12:43Z</time></trkpt><trkpt lat="42.97135966723692" lon="13.667169863994994"><ele>198.0</ele><time>2026-05-02T10:12:44Z</time></trkpt><trkpt lat="42.971315519824444" lon="13.667373757046162"><ele>198.0</ele><time>2026-05-02T10:12:45Z</time></trkpt><trkpt lat="42.97124913384219" lon="13.667593647882885"><ele>198.0</ele><time>2026-05-02T10:12:46Z</time></trkpt><trkpt lat="42.97117377012924" lon="13.667815851935634"><ele>198.0</ele><time>2026-05-02T10:12:47Z</time></trkpt><trkpt lat="42.9710924040566" lon="13.668051727254454"><ele>194.5</ele><time>2026-05-02T10:12:48Z</time></trkpt><trkpt lat="42.97099973476791" lon="13.66831758526245"><ele>191.0</ele><time>2026-05-02T10:12:49Z</time></trkpt><trkpt lat="42.97089787708877" lon="13.668605736171102"><ele>187.33333333333331</ele><time>2026-05-02T10:12:50Z</time></trkpt><trkpt lat="42.97079989578189" lon="13.6688906797869"><ele>183.66666666666666</ele><time>2026-05-02T10:12:51Z</time></trkpt><trkpt lat="42.97070727100574" lon="13.669157548254859"><ele>180.0</ele><time>2026-05-02T10:12:52Z</time></trkpt><trkpt lat="42.97061930770433" lon="13.66940256498063"><ele>179.66666666666666</ele><time>2026-05-02T10:12:53Z</time></trkpt><trkpt lat="42.970538453240735" lon="13.669633481444764"><ele>179.33333333333331</ele><time>2026-05-02T10:12:54Z</time></trkpt><trkpt lat="42.97047094908064" lon="13.669868852709106"><ele>179.0</ele><time>2026-05-02T10:12:55Z</time></trkpt><trkpt lat="42.97039084161996" lon="13.670102232057026"><ele>180.0</ele><time>2026-05-02T10:12:56Z</time></trkpt><trkpt lat="42.97030975705618" lon="13.670344448621512"><ele>181.0</ele><time>2026-05-02T10:12:57Z</time></trkpt><trkpt lat="42.97023183551908" lon="13.670595390225268"><ele>182.0</ele><time>2026-05-02T10:12:58Z</time></trkpt><trkpt lat="42.97016910779046" lon="13.670856277032904"><ele>183.33333333333331</ele><time>2026-05-02T10:12:58.999Z</time></trkpt><trkpt lat="42.9701284260122" lon="13.671130220545583"><ele>184.66666666666666</ele><time>2026-05-02T10:12:59.999Z</time></trkpt><trkpt lat="42.97009270769161" lon="13.671409459655516"><ele>186.0</ele><time>2026-05-02T10:13:00.999Z</time></trkpt><trkpt lat="42.97005208442491" lon="13.671688411518618"><ele>184.0</ele><time>2026-05-02T10:13:01.999Z</time></trkpt><trkpt lat="42.9700066359357" lon="13.671970667452504"><ele>182.0</ele><time>2026-05-02T10:13:02.999Z</time></trkpt><trkpt lat="42.969959036702726" lon="13.672249966351583"><ele>180.0</ele><time>2026-05-02T10:13:03.999Z</time></trkpt><trkpt lat="42.969910509345254" lon="13.672523405962831"><ele>181.0</ele><time>2026-05-02T10:13:04.999Z</time></trkpt><trkpt lat="42.969864099646074" lon="13.672781646003648"><ele>182.0</ele><time>2026-05-02T10:13:05.999Z</time></trkpt><trkpt lat="42.969820532239204" lon="13.67301887887691"><ele>183.0</ele><time>2026-05-02T10:13:06.999Z</time></trkpt><trkpt lat="42.9697779426426" lon="13.673224586158131"><ele>183.0</ele><time>2026-05-02T10:13:07.999Z</time></trkpt><trkpt lat="42.96972285150062" lon="13.673410801979841"><ele>183.0</ele><time>2026-05-02T10:13:08.999Z</time></trkpt><trkpt lat="42.96964494215224" lon="13.673577921666444"><ele>183.0</ele><time>2026-05-02T10:13:09.999Z</time></trkpt><trkpt lat="42.96952324672683" lon="13.67372191153291"><ele>182.66666666666666</ele><time>2026-05-02T10:13:10.999Z</time></trkpt><trkpt lat="42.96940259735278" lon="13.673894181067158"><ele>182.33333333333331</ele><time>2026-05-02T10:13:11.999Z</time></trkpt><trkpt lat="42.9692708520896" lon="13.674073242189216"><ele>182.0</ele><time>2026-05-02T10:13:12.999Z</time></trkpt><trkpt lat="42.96913149858732" lon="13.674260485306174"><ele>181.33333333333331</ele><time>2026-05-02T10:13:13.999Z</time></trkpt><trkpt lat="42.96898557837655" lon="13.674459952017655"><ele>180.66666666666666</ele><time>2026-05-02T10:13:14.999Z</time></trkpt><trkpt lat="42.96884289040953" lon="13.67468612133577"><ele>180.0</ele><time>2026-05-02T10:13:15.999Z</time></trkpt><trkpt lat="42.96867933850245" lon="13.674903759724337"><ele>180.0</ele><time>2026-05-02T10:13:16.999Z</time></trkpt><trkpt lat="42.96850705122106" lon="13.675132729170159"><ele>180.0</ele><time>2026-05-02T10:13:17.999Z</time></trkpt><trkpt lat="42.9683301298521" lon="13.675374768424419"><ele>177.5</ele><time>2026-05-02T10:13:18.999Z</time></trkpt><trkpt lat="42.96815399749681" lon="13.675615584021434"><ele>175.0</ele><time>2026-05-02T10:13:19.999Z</time></trkpt><trkpt lat="42.96798327157756" lon="13.675856785278322"><ele>175.0</ele><time>2026-05-02T10:13:20.999Z</time></trkpt><trkpt lat="42.96780417635971" lon="13.67610201921659"><ele>175.0</ele><time>2026-05-02T10:13:21.999Z</time></trkpt><trkpt lat="42.96762107802602" lon="13.676347283684715"><ele>173.0</ele><time>2026-05-02T10:13:22.999Z</time></trkpt><trkpt lat="42.967432735947746" lon="13.676600103353877"><ele>171.0</ele><time>2026-05-02T10:13:23.999Z</time></trkpt><trkpt lat="42.96724335570759" lon="13.676855922904142"><ele>173.5</ele><time>2026-05-02T10:13:24.999Z</time></trkpt><trkpt lat="42.96705535956583" lon="13.677111254593688"><ele>176.0</ele><time>2026-05-02T10:13:25.999Z</time></trkpt><trkpt lat="42.96686246926107" lon="13.677375534758106"><ele>173.5</ele><time>2026-05-02T10:13:26.999Z</time></trkpt><trkpt lat="42.96667374645267" lon="13.677636607281983"><ele>171.0</ele><time>2026-05-02T10:13:27.999Z</time></trkpt><trkpt lat="42.96649821809534" lon="13.677880854374646"><ele>171.0</ele><time>2026-05-02T10:13:28.999Z</time></trkpt><trkpt lat="42.96632591029947" lon="13.678114562919566"><ele>171.0</ele><time>2026-05-02T10:13:29.999Z</time></trkpt><trkpt lat="42.966153002170806" lon="13.678341417538357"><ele>171.0</ele><time>2026-05-02T10:13:30.999Z</time></trkpt><trkpt lat="42.96597205559078" lon="13.678563604107811"><ele>171.0</ele><time>2026-05-02T10:13:31.999Z</time></trkpt><trkpt lat="42.965798134019586" lon="13.678800356608996"><ele>171.0</ele><time>2026-05-02T10:13:32.999Z</time></trkpt><trkpt lat="42.96563915959064" lon="13.679054764364091"><ele>171.0</ele><time>2026-05-02T10:13:33.999Z</time></trkpt><trkpt lat="42.96547879471952" lon="13.679305681269335"><ele>178.0</ele><time>2026-05-02T10:13:34.999Z</time></trkpt><trkpt lat="42.96532912705288" lon="13.679571526398155"><ele>185.0</ele><time>2026-05-02T10:13:35.999Z</time></trkpt><trkpt lat="42.965186111539765" lon="13.679845635660064"><ele>185.0</ele><time>2026-05-02T10:13:36.999Z</time></trkpt><trkpt lat="42.96504639078157" lon="13.680132046099166"><ele>185.0</ele><time>2026-05-02T10:13:37.999Z</time></trkpt><trkpt lat="42.96490900784948" lon="13.680428002198394"><ele>178.5</ele><time>2026-05-02T10:13:38.999Z</time></trkpt><trkpt lat="42.964775913607184" lon="13.680738243743852"><ele>172.0</ele><time>2026-05-02T10:13:39.999Z</time></trkpt><trkpt lat="42.964647566160274" lon="13.681048460777792"><ele>174.5</ele><time>2026-05-02T10:13:40.999Z</time></trkpt><trkpt lat="42.964529668748455" lon="13.68133650425391"><ele>177.0</ele><time>2026-05-02T10:13:41.999Z</time></trkpt><trkpt lat="42.96442372596119" lon="13.681604874244028"><ele>177.0</ele><time>2026-05-02T10:13:42.999Z</time></trkpt><trkpt lat="42.96433268286303" lon="13.681868970026121"><ele>177.0</ele><time>2026-05-02T10:13:43.999Z</time></trkpt><trkpt lat="42.96425701404021" lon="13.6821515628945"><ele>177.0</ele><time>2026-05-02T10:13:44.999Z</time></trkpt><trkpt lat="42.964200393127506" lon="13.68246231805239"><ele>170.5</ele><time>2026-05-02T10:13:45.999Z</time></trkpt><trkpt lat="42.964159016381764" lon="13.68278881278116"><ele>164.0</ele><time>2026-05-02T10:13:46.999Z</time></trkpt><trkpt lat="42.96412556492949" lon="13.683129094717913"><ele>164.0</ele><time>2026-05-02T10:13:47.999Z</time></trkpt><trkpt lat="42.9640957827813" lon="13.683478104229723"><ele>164.0</ele><time>2026-05-02T10:13:48.999Z</time></trkpt><trkpt lat="42.9640617041904" lon="13.683836346568475"><ele>164.0</ele><time>2026-05-02T10:13:49.999Z</time></trkpt><trkpt lat="42.96402553380551" lon="13.684200316107288"><ele>164.0</ele><time>2026-05-02T10:13:50.999Z</time></trkpt><trkpt lat="42.96398999051592" lon="13.684562946889452"><ele>164.0</ele><time>2026-05-02T10:13:51.999Z</time></trkpt><trkpt lat="42.963951801847735" lon="13.68493079484987"><ele>164.0</ele><time>2026-05-02T10:13:52.999Z</time></trkpt><trkpt lat="42.96391440021171" lon="13.685272399360585"><ele>162.5</ele><time>2026-05-02T10:13:53.999Z</time></trkpt><trkpt lat="42.963877696791656" lon="13.685607754768368"><ele>161.0</ele><time>2026-05-02T10:13:54.999Z</time></trkpt><trkpt lat="42.96384222551958" lon="13.68594362471595"><ele>160.5</ele><time>2026-05-02T10:13:55.999Z</time></trkpt><trkpt lat="42.963809704636475" lon="13.686261083270841"><ele>160.0</ele><time>2026-05-02T10:13:56.999Z</time></trkpt><trkpt lat="42.963783104049355" lon="13.68657832876525"><ele>160.0</ele><time>2026-05-02T10:13:57.999Z</time></trkpt><trkpt lat="42.96377292942223" lon="13.686884171752304"><ele>160.0</ele><time>2026-05-02T10:13:58.999Z</time></trkpt><trkpt lat="42.96377844201761" lon="13.687175980641873"><ele>160.0</ele><time>2026-05-02T10:13:59.999Z</time></trkpt><trkpt lat="42.96381003722383" lon="13.68747334735414"><ele>159.5</ele><time>2026-05-02T10:14:00.999Z</time></trkpt><trkpt lat="42.963859444861875" lon="13.687772728004672"><ele>159.0</ele><time>2026-05-02T10:14:01.999Z</time></trkpt><trkpt lat="42.96392924909714" lon="13.68807495449863"><ele>159.0</ele><time>2026-05-02T10:14:02.999Z</time></trkpt><trkpt lat="42.964008824451" lon="13.68838729177021"><ele>159.0</ele><time>2026-05-02T10:14:03.999Z</time></trkpt><trkpt lat="42.96410534991503" lon="13.688708039040051"><ele>157.66666666666666</ele><time>2026-05-02T10:14:04.999Z</time></trkpt><trkpt lat="42.964185966193305" lon="13.688997669099367"><ele>156.33333333333331</ele><time>2026-05-02T10:14:05.999Z</time></trkpt><trkpt lat="42.964253426050135" lon="13.689278772378003"><ele>155.0</ele><time>2026-05-02T10:14:06.999Z</time></trkpt><trkpt lat="42.96429137194595" lon="13.689594827540565"><ele>160.0</ele><time>2026-05-02T10:14:07.999Z</time></trkpt><trkpt lat="42.96435921969828" lon="13.689904819883955"><ele>165.0</ele><time>2026-05-02T10:14:08.999Z</time></trkpt><trkpt lat="42.96430967131201" lon="13.69027696756082"><ele>165.5</ele><time>2026-05-02T10:14:09.999Z</time></trkpt><trkpt lat="42.96430493142453" lon="13.69063785022794"><ele>166.0</ele><time>2026-05-02T10:14:10.999Z</time></trkpt><trkpt lat="42.96430426902308" lon="13.691007654187537"><ele>165.5</ele><time>2026-05-02T10:14:11.999Z</time></trkpt><trkpt lat="42.96429861830002" lon="13.6913643215301"><ele>165.0</ele><time>2026-05-02T10:14:12.999Z</time></trkpt><trkpt lat="42.964294017392206" lon="13.691708328605674"><ele>165.0</ele><time>2026-05-02T10:14:13.999Z</time></trkpt><trkpt lat="42.964284502189535" lon="13.692051281157966"><ele>165.0</ele><time>2026-05-02T10:14:14.999Z</time></trkpt><trkpt lat="42.96427840062925" lon="13.692400236081212"><ele>165.0</ele><time>2026-05-02T10:14:15.999Z</time></trkpt><trkpt lat="42.96428841788548" lon="13.69272862512488"><ele>165.0</ele><time>2026-05-02T10:14:16.999Z</time></trkpt><trkpt lat="42.964314968324146" lon="13.693037669055856"><ele>162.0</ele><time>2026-05-02T10:14:17.998Z</time></trkpt><trkpt lat="42.96436912329354" lon="13.69336130214078"><ele>159.0</ele><time>2026-05-02T10:14:18.998Z</time></trkpt><trkpt lat="42.96444827057142" lon="13.693693992511779"><ele>156.5</ele><time>2026-05-02T10:14:19.998Z</time></trkpt><trkpt lat="42.964542114060364" lon="13.694029594571447"><ele>154.0</ele><time>2026-05-02T10:14:20.998Z</time></trkpt><trkpt lat="42.964639565843854" lon="13.694373449287333"><ele>152.0</ele><time>2026-05-02T10:14:21.998Z</time></trkpt><trkpt lat="42.96473478954386" lon="13.694720560515835"><ele>150.0</ele><time>2026-05-02T10:14:22.998Z</time></trkpt><trkpt lat="42.964827394309204" lon="13.695072506683514"><ele>148.0</ele><time>2026-05-02T10:14:23.998Z</time></trkpt><trkpt lat="42.96492160919006" lon="13.695413982649773"><ele>146.0</ele><time>2026-05-02T10:14:24.998Z</time></trkpt><trkpt lat="42.965019989370475" lon="13.695736745184963"><ele>147.0</ele><time>2026-05-02T10:14:25.998Z</time></trkpt><trkpt lat="42.96513728397631" lon="13.696056384486393"><ele>148.0</ele><time>2026-05-02T10:14:26.998Z</time></trkpt><trkpt lat="42.9652773606072" lon="13.696374616249587"><ele>148.0</ele><time>2026-05-02T10:14:27.998Z</time></trkpt><trkpt lat="42.9654278225331" lon="13.69668977989008"><ele>148.0</ele><time>2026-05-02T10:14:28.998Z</time></trkpt><trkpt lat="42.96558254500232" lon="13.697017869810937"><ele>146.5</ele><time>2026-05-02T10:14:29.998Z</time></trkpt><trkpt lat="42.96573633853192" lon="13.697331546981562"><ele>145.0</ele><time>2026-05-02T10:14:30.998Z</time></trkpt><trkpt lat="42.9658917953472" lon="13.697652778262217"><ele>147.5</ele><time>2026-05-02T10:14:31.998Z</time></trkpt><trkpt lat="42.9660467581334" lon="13.697981548945071"><ele>150.0</ele><time>2026-05-02T10:14:32.998Z</time></trkpt><trkpt lat="42.9661975411321" lon="13.698312914200237"><ele>148.0</ele><time>2026-05-02T10:14:33.998Z</time></trkpt><trkpt lat="42.96634457997133" lon="13.698646851632795"><ele>146.0</ele><time>2026-05-02T10:14:34.998Z</time></trkpt><trkpt lat="42.96648793276506" lon="13.6989896154772"><ele>146.0</ele><time>2026-05-02T10:14:35.998Z</time></trkpt><trkpt lat="42.96661603089248" lon="13.699339131128218"><ele>146.0</ele><time>2026-05-02T10:14:36.998Z</time></trkpt><trkpt lat="42.96672997430661" lon="13.699705476362155"><ele>149.5</ele><time>2026-05-02T10:14:37.998Z</time></trkpt><trkpt lat="42.96682459216541" lon="13.700074551507454"><ele>153.0</ele><time>2026-05-02T10:14:39Z</time></trkpt><trkpt lat="42.96691100697579" lon="13.700454169844594"><ele>153.0</ele><time>2026-05-02T10:14:40Z</time></trkpt><trkpt lat="42.96698808547589" lon="13.700829202181833"><ele>153.0</ele><time>2026-05-02T10:14:41Z</time></trkpt><trkpt lat="42.96706544941804" lon="13.701216436168483"><ele>151.0</ele><time>2026-05-02T10:14:42Z</time></trkpt><trkpt lat="42.96713823557122" lon="13.701590898049965"><ele>149.0</ele><time>2026-05-02T10:14:43Z</time></trkpt><trkpt lat="42.96721064667732" lon="13.701969121256386"><ele>147.0</ele><time>2026-05-02T10:14:44Z</time></trkpt><trkpt lat="42.96728346931038" lon="13.70234021734093"><ele>145.0</ele><time>2026-05-02T10:14:45Z</time></trkpt><trkpt lat="42.96735896093839" lon="13.70271545969746"><ele>144.0</ele><time>2026-05-02T10:14:46Z</time></trkpt><trkpt lat="42.96743698625726" lon="13.703087994721988"><ele>143.0</ele><time>2026-05-02T10:14:47Z</time></trkpt><trkpt lat="42.967513092567955" lon="13.703455849075898"><ele>146.0</ele><time>2026-05-02T10:14:48Z</time></trkpt><trkpt lat="42.96758848490098" lon="13.703819325220435"><ele>149.0</ele><time>2026-05-02T10:14:49Z</time></trkpt><trkpt lat="42.9676617524854" lon="13.704173253554877"><ele>147.0</ele><time>2026-05-02T10:14:50Z</time></trkpt><trkpt lat="42.967727548820804" lon="13.704500793843277"><ele>145.0</ele><time>2026-05-02T10:14:51Z</time></trkpt><trkpt lat="42.967789902610185" lon="13.704818836868359"><ele>145.0</ele><time>2026-05-02T10:14:52Z</time></trkpt><trkpt lat="42.96785519763512" lon="13.705136609272632"><ele>145.0</ele><time>2026-05-02T10:14:53Z</time></trkpt><trkpt lat="42.96792109418597" lon="13.705461331691868"><ele>142.5</ele><time>2026-05-02T10:14:54Z</time></trkpt><trkpt lat="42.96798359049369" lon="13.705777940199942"><ele>140.0</ele><time>2026-05-02T10:14:55Z</time></trkpt><trkpt lat="42.9680490645155" lon="13.706093558560415"><ele>138.5</ele><time>2026-05-02T10:14:56Z</time></trkpt><trkpt lat="42.96811588865861" lon="13.70640656474652"><ele>137.0</ele><time>2026-05-02T10:14:57Z</time></trkpt><trkpt lat="42.96817836114227" lon="13.70670268180298"><ele>137.0</ele><time>2026-05-02T10:14:58Z</time></trkpt><trkpt lat="42.968232723298186" lon="13.706977668334506"><ele>137.0</ele><time>2026-05-02T10:14:59Z</time></trkpt><trkpt lat="42.96828459957725" lon="13.707239422700015"><ele>137.0</ele><time>2026-05-02T10:15:00Z</time></trkpt><trkpt lat="42.96833589262067" lon="13.707496214447614"><ele>137.66666666666666</ele><time>2026-05-02T10:15:01Z</time></trkpt><trkpt lat="42.9683902149375" lon="13.707768263877146"><ele>138.33333333333334</ele><time>2026-05-02T10:15:02Z</time></trkpt><trkpt lat="42.968447517047856" lon="13.708053598025389"><ele>139.0</ele><time>2026-05-02T10:15:03Z</time></trkpt><trkpt lat="42.968508146226085" lon="13.708343689783373"><ele>138.0</ele><time>2026-05-02T10:15:04Z</time></trkpt><trkpt lat="42.96856554473787" lon="13.708623782287715"><ele>137.0</ele><time>2026-05-02T10:15:04.999Z</time></trkpt><trkpt lat="42.96861744654303" lon="13.708882674451633"><ele>136.0</ele><time>2026-05-02T10:15:05.999Z</time></trkpt><trkpt lat="42.968666050321424" lon="13.709119374881862"><ele>136.0</ele><time>2026-05-02T10:15:06.999Z</time></trkpt><trkpt lat="42.96871122890659" lon="13.709350343115847"><ele>136.0</ele><time>2026-05-02T10:15:07.999Z</time></trkpt><trkpt lat="42.96876296484802" lon="13.709596230175741"><ele>136.0</ele><time>2026-05-02T10:15:08.999Z</time></trkpt><trkpt lat="42.968817250560996" lon="13.709849064751571"><ele>135.0</ele><time>2026-05-02T10:15:09.999Z</time></trkpt><trkpt lat="42.968864392729344" lon="13.710078493008147"><ele>134.0</ele><time>2026-05-02T10:15:10.999Z</time></trkpt><trkpt lat="42.96890540389955" lon="13.710295041519112"><ele>133.0</ele><time>2026-05-02T10:15:11.999Z</time></trkpt><trkpt lat="42.968947675983685" lon="13.71050670581097"><ele>132.25</ele><time>2026-05-02T10:15:12.999Z</time></trkpt><trkpt lat="42.968987911197914" lon="13.710705892040936"><ele>131.5</ele><time>2026-05-02T10:15:13.999Z</time></trkpt><trkpt lat="42.96902393370135" lon="13.710888547717046"><ele>130.75</ele><time>2026-05-02T10:15:14.999Z</time></trkpt><trkpt lat="42.9690579937773" lon="13.711051160507733"><ele>130.0</ele><time>2026-05-02T10:15:15.999Z</time></trkpt><trkpt lat="42.96908400305302" lon="13.711184852252762"><ele>130.0</ele><time>2026-05-02T10:15:16.999Z</time></trkpt><trkpt lat="42.969097729536806" lon="13.711299488952948"><ele>130.0</ele><time>2026-05-02T10:15:17.999Z</time></trkpt><trkpt lat="42.96908278764039" lon="13.71140155025464"><ele>130.0</ele><time>2026-05-02T10:15:18.999Z</time></trkpt><trkpt lat="42.96904636500271" lon="13.71150825766562"><ele>130.0</ele><time>2026-05-02T10:15:19.999Z</time></trkpt><trkpt lat="42.96898404849181" lon="13.711596598052362"><ele>130.0</ele><time>2026-05-02T10:15:20.999Z</time></trkpt><trkpt lat="42.96889560911056" lon="13.711646851687577"><ele>130.0</ele><time>2026-05-02T10:15:21.999Z</time></trkpt><trkpt lat="42.96878043738563" lon="13.711667053604382"><ele>130.0</ele><time>2026-05-02T10:15:22.999Z</time></trkpt><trkpt lat="42.96864943381032" lon="13.711630233198166"><ele>130.0</ele><time>2026-05-02T10:15:23.999Z</time></trkpt><trkpt lat="42.96849216165231" lon="13.711651465167876"><ele>130.0</ele><time>2026-05-02T10:15:24.999Z</time></trkpt><trkpt lat="42.96833691558416" lon="13.711643924709144"><ele>130.0</ele><time>2026-05-02T10:15:25.999Z</time></trkpt><trkpt lat="42.968202671229086" lon="13.711643428831046"><ele>130.0</ele><time>2026-05-02T10:15:26.999Z</time></trkpt><trkpt lat="42.96807200258134" lon="13.711643361413131"><ele>130.0</ele><time>2026-05-02T10:15:27.999Z</time></trkpt><trkpt lat="42.96794990205747" lon="13.711644861566851"><ele>130.0</ele><time>2026-05-02T10:15:28.999Z</time></trkpt><trkpt lat="42.967841364922336" lon="13.711639505566842"><ele>130.0</ele><time>2026-05-02T10:15:29.999Z</time></trkpt><trkpt lat="42.96774172617994" lon="13.711634430479997"><ele>130.0</ele><time>2026-05-02T10:15:30.999Z</time></trkpt><trkpt lat="42.96764541276404" lon="13.71164168408645"><ele>130.0</ele><time>2026-05-02T10:15:31.999Z</time></trkpt><trkpt lat="42.967546729731055" lon="13.71164643297117"><ele>130.0</ele><time>2026-05-02T10:15:32.999Z</time></trkpt><trkpt lat="42.96745279945465" lon="13.711643828858909"><ele>130.0</ele><time>2026-05-02T10:15:33.999Z</time></trkpt><trkpt lat="42.96737092015739" lon="13.71163069301835"><ele>130.0</ele><time>2026-05-02T10:15:34.999Z</time></trkpt><trkpt lat="42.96728769343012" lon="13.711609736576031"><ele>130.0</ele><time>2026-05-02T10:15:35.999Z</time></trkpt><trkpt lat="42.96720299968529" lon="13.711541617206684"><ele>130.0</ele><time>2026-05-02T10:15:36.999Z</time></trkpt><trkpt lat="42.96711118790845" lon="13.71150854637246"><ele>130.0</ele><time>2026-05-02T10:15:37.999Z</time></trkpt><trkpt lat="42.96701324299051" lon="13.711532318338037"><ele>130.0</ele><time>2026-05-02T10:15:38.999Z</time></trkpt><trkpt lat="42.966931231116696" lon="13.71150836253628"><ele>130.0</ele><time>2026-05-02T10:15:39.999Z</time></trkpt><trkpt lat="42.966851738502996" lon="13.711445685813642"><ele>130.0</ele><time>2026-05-02T10:15:40.999Z</time></trkpt><trkpt lat="42.96677187256787" lon="13.711366445916324"><ele>130.0</ele><time>2026-05-02T10:15:41.999Z</time></trkpt><trkpt lat="42.96670338472445" lon="13.71125114800102"><ele>130.0</ele><time>2026-05-02T10:15:42.999Z</time></trkpt><trkpt lat="42.96662170712985" lon="13.711151009499138"><ele>130.0</ele><time>2026-05-02T10:15:43.999Z</time></trkpt><trkpt lat="42.96653414952642" lon="13.711057516631483"><ele>130.0</ele><time>2026-05-02T10:15:44.999Z</time></trkpt><trkpt lat="42.96644087719616" lon="13.710976389035748"><ele>131.25</ele><time>2026-05-02T10:15:45.999Z</time></trkpt><trkpt lat="42.96633044683011" lon="13.710918271076745"><ele>132.5</ele><time>2026-05-02T10:15:46.999Z</time></trkpt><trkpt lat="42.96621508226135" lon="13.710848249323423"><ele>133.75</ele><time>2026-05-02T10:15:47.999Z</time></trkpt><trkpt lat="42.96610290111595" lon="13.7107937674803"><ele>135.0</ele><time>2026-05-02T10:15:48.999Z</time></trkpt><trkpt lat="42.96599310089188" lon="13.71074961067079"><ele>135.0</ele><time>2026-05-02T10:15:49.999Z</time></trkpt><trkpt lat="42.96587663811175" lon="13.7107145334997"><ele>135.0</ele><time>2026-05-02T10:15:50.999Z</time></trkpt><trkpt lat="42.9657585514197" lon="13.710659873114304"><ele>135.0</ele><time>2026-05-02T10:15:51.999Z</time></trkpt><trkpt lat="42.9656391344848" lon="13.710629789362155"><ele>135.0</ele><time>2026-05-02T10:15:52.999Z</time></trkpt><trkpt lat="42.96552735988961" lon="13.710611196161704"><ele>137.0</ele><time>2026-05-02T10:15:53.999Z</time></trkpt><trkpt lat="42.96541602809675" lon="13.710626205025902"><ele>139.0</ele><time>2026-05-02T10:15:54.999Z</time></trkpt><trkpt lat="42.965303813131946" lon="13.710648090234674"><ele>141.0</ele><time>2026-05-02T10:15:55.999Z</time></trkpt><trkpt lat="42.96519050209227" lon="13.710697898273542"><ele>143.0</ele><time>2026-05-02T10:15:56.999Z</time></trkpt><trkpt lat="42.96508648198942" lon="13.71074827793086"><ele>144.6</ele><time>2026-05-02T10:15:57.999Z</time></trkpt><trkpt lat="42.96498752896505" lon="13.710814709409807"><ele>146.20000000000002</ele><time>2026-05-02T10:15:58.999Z</time></trkpt><trkpt lat="42.96488725281292" lon="13.710888718731088"><ele>147.8</ele><time>2026-05-02T10:15:59.999Z</time></trkpt><trkpt lat="42.96479742590751" lon="13.71095678931298"><ele>149.4</ele><time>2026-05-02T10:16:00.999Z</time></trkpt><trkpt lat="42.9647028658043" lon="13.711028664115485"><ele>151.0</ele><time>2026-05-02T10:16:01.999Z</time></trkpt><trkpt lat="42.96459616600645" lon="13.711101277009009"><ele>151.75</ele><time>2026-05-02T10:16:02.999Z</time></trkpt><trkpt lat="42.9644801678204" lon="13.711135963743141"><ele>152.5</ele><time>2026-05-02T10:16:03.999Z</time></trkpt><trkpt lat="42.964374011743864" lon="13.7111767471352"><ele>153.25</ele><time>2026-05-02T10:16:04.999Z</time></trkpt><trkpt lat="42.96426944332173" lon="13.71122368015836"><ele>154.0</ele><time>2026-05-02T10:16:05.999Z</time></trkpt><trkpt lat="42.964141693773534" lon="13.71124427508503"><ele>155.25</ele><time>2026-05-02T10:16:06.999Z</time></trkpt><trkpt lat="42.96400395667703" lon="13.711230344541825"><ele>156.5</ele><time>2026-05-02T10:16:07.999Z</time></trkpt><trkpt lat="42.96387260253449" lon="13.711231324605102"><ele>157.75</ele><time>2026-05-02T10:16:08.999Z</time></trkpt><trkpt lat="42.96375685455187" lon="13.711228576882029"><ele>159.0</ele><time>2026-05-02T10:16:09.999Z</time></trkpt><trkpt lat="42.96363017568798" lon="13.71122297319209"><ele>159.0</ele><time>2026-05-02T10:16:10.999Z</time></trkpt><trkpt lat="42.963499490262095" lon="13.711217192264925"><ele>159.0</ele><time>2026-05-02T10:16:11.999Z</time></trkpt><trkpt lat="42.96337112810701" lon="13.71123348606412"><ele>159.0</ele><time>2026-05-02T10:16:12.999Z</time></trkpt><trkpt lat="42.96324822373044" lon="13.711224952664104"><ele>159.0</ele><time>2026-05-02T10:16:13.999Z</time></trkpt><trkpt lat="42.96312278151739" lon="13.711219225699333"><ele>159.5</ele><time>2026-05-02T10:16:14.999Z</time></trkpt><trkpt lat="42.962988761651175" lon="13.711216976153581"><ele>160.0</ele><time>2026-05-02T10:16:15.999Z</time></trkpt><trkpt lat="42.96285313489866" lon="13.711216015507086"><ele>160.5</ele><time>2026-05-02T10:16:16.999Z</time></trkpt><trkpt lat="42.9627127394705" lon="13.711195323904352"><ele>161.0</ele><time>2026-05-02T10:16:17.999Z</time></trkpt><trkpt lat="42.96257074248549" lon="13.71119431141155"><ele>162.25</ele><time>2026-05-02T10:16:18.999Z</time></trkpt><trkpt lat="42.96242902170742" lon="13.711192560177455"><ele>163.5</ele><time>2026-05-02T10:16:19.999Z</time></trkpt><trkpt lat="42.96227900123826" lon="13.711215502072443"><ele>164.75</ele><time>2026-05-02T10:16:20.998Z</time></trkpt><trkpt lat="42.962127867414836" lon="13.711211176827948"><ele>166.0</ele><time>2026-05-02T10:16:21.998Z</time></trkpt><trkpt lat="42.96197352808034" lon="13.711204190418995"><ele>166.0</ele><time>2026-05-02T10:16:22.998Z</time></trkpt><trkpt lat="42.961822731517266" lon="13.71119544537399"><ele>166.0</ele><time>2026-05-02T10:16:23.998Z</time></trkpt><trkpt lat="42.96168940550347" lon="13.711156881251004"><ele>166.0</ele><time>2026-05-02T10:16:24.998Z</time></trkpt><trkpt lat="42.96156203165748" lon="13.711127401639853"><ele>166.0</ele><time>2026-05-02T10:16:25.998Z</time></trkpt><trkpt lat="42.96142547220356" lon="13.711080494527806"><ele>167.75</ele><time>2026-05-02T10:16:26.998Z</time></trkpt><trkpt lat="42.961289160483005" lon="13.711023205856504"><ele>169.5</ele><time>2026-05-02T10:16:27.998Z</time></trkpt><trkpt lat="42.96116746750458" lon="13.710958925904196"><ele>171.25</ele><time>2026-05-02T10:16:28.998Z</time></trkpt><trkpt lat="42.96105432652664" lon="13.710876260964676"><ele>173.0</ele><time>2026-05-02T10:16:29.998Z</time></trkpt><trkpt lat="42.96093800059242" lon="13.710771041626135"><ele>173.66666666666666</ele><time>2026-05-02T10:16:30.998Z</time></trkpt><trkpt lat="42.96081535473374" lon="13.710636445474107"><ele>174.33333333333334</ele><time>2026-05-02T10:16:31.998Z</time></trkpt><trkpt lat="42.96067613813537" lon="13.710474672100496"><ele>175.0</ele><time>2026-05-02T10:16:32.998Z</time></trkpt><trkpt lat="42.96052454657419" lon="13.710298455882212"><ele>176.0</ele><time>2026-05-02T10:16:33.998Z</time></trkpt><trkpt lat="42.9603562246059" lon="13.710103545549384"><ele>177.0</ele><time>2026-05-02T10:16:34.998Z</time></trkpt><trkpt lat="42.96018955084842" lon="13.709913273263368"><ele>178.0</ele><time>2026-05-02T10:16:35.998Z</time></trkpt><trkpt lat="42.96001233615079" lon="13.709719139948255"><ele>180.5</ele><time>2026-05-02T10:16:36.998Z</time></trkpt><trkpt lat="42.959817096255414" lon="13.709511315365248"><ele>183.0</ele><time>2026-05-02T10:16:37.998Z</time></trkpt><trkpt lat="42.959608377013204" lon="13.709319132488718"><ele>186.0</ele><time>2026-05-02T10:16:38.998Z</time></trkpt><trkpt lat="42.95943634537872" lon="13.709077876435344"><ele>189.0</ele><time>2026-05-02T10:16:39.998Z</time></trkpt><trkpt lat="42.95925375808653" lon="13.708893360160323"><ele>192.0</ele><time>2026-05-02T10:16:40.998Z</time></trkpt><trkpt lat="42.95905351477673" lon="13.708736922943263"><ele>195.0</ele><time>2026-05-02T10:16:41.998Z</time></trkpt><trkpt lat="42.958875809959466" lon="13.708545285509114"><ele>198.0</ele><time>2026-05-02T10:16:42.998Z</time></trkpt><trkpt lat="42.95870009943517" lon="13.708346678847645"><ele>201.0</ele><time>2026-05-02T10:16:43.998Z</time></trkpt><trkpt lat="42.9585208208458" lon="13.70816412195522"><ele>202.0</ele><time>2026-05-02T10:16:45Z</time></trkpt><trkpt lat="42.958337169530104" lon="13.708003702509975"><ele>203.0</ele><time>2026-05-02T10:16:46Z</time></trkpt><trkpt lat="42.9581502124733" lon="13.70784613880249"><ele>204.0</ele><time>2026-05-02T10:16:47Z</time></trkpt><trkpt lat="42.95796130675973" lon="13.707710605610567"><ele>206.66666666666669</ele><time>2026-05-02T10:16:48Z</time></trkpt><trkpt lat="42.9577608850905" lon="13.707578285672094"><ele>209.33333333333334</ele><time>2026-05-02T10:16:49Z</time></trkpt><trkpt lat="42.95757755515953" lon="13.70745244376981"><ele>212.0</ele><time>2026-05-02T10:16:50Z</time></trkpt><trkpt lat="42.95741946597875" lon="13.707341303830644"><ele>213.25</ele><time>2026-05-02T10:16:51Z</time></trkpt><trkpt lat="42.9572815121996" lon="13.707242566641515"><ele>214.5</ele><time>2026-05-02T10:16:52Z</time></trkpt><trkpt lat="42.95716305966459" lon="13.707168743364942"><ele>215.75</ele><time>2026-05-02T10:16:53Z</time></trkpt><trkpt lat="42.957062699118445" lon="13.707138825668178"><ele>217.0</ele><time>2026-05-02T10:16:54Z</time></trkpt><trkpt lat="42.956959155509495" lon="13.707154336128509"><ele>217.0</ele><time>2026-05-02T10:16:55Z</time></trkpt><trkpt lat="42.9568263149802" lon="13.707196895587314"><ele>217.0</ele><time>2026-05-02T10:16:56Z</time></trkpt><trkpt lat="42.95666155352293" lon="13.707193897646277"><ele>217.0</ele><time>2026-05-02T10:16:57Z</time></trkpt><trkpt lat="42.95648005171169" lon="13.70722532830022"><ele>219.0</ele><time>2026-05-02T10:16:58Z</time></trkpt><trkpt lat="42.956278889760135" lon="13.707215674969534"><ele>221.0</ele><time>2026-05-02T10:16:59Z</time></trkpt><trkpt lat="42.95608865769599" lon="13.707224629697258"><ele>223.0</ele><time>2026-05-02T10:17:00Z</time></trkpt><trkpt lat="42.955903244490024" lon="13.707234149672157"><ele>225.66666666666666</ele><time>2026-05-02T10:17:01Z</time></trkpt><trkpt lat="42.95571621899515" lon="13.707263276274817"><ele>228.33333333333331</ele><time>2026-05-02T10:17:02Z</time></trkpt><trkpt lat="42.95553901388586" lon="13.7072537159383"><ele>231.0</ele><time>2026-05-02T10:17:03Z</time></trkpt><trkpt lat="42.95538821867056" lon="13.707306845080717"><ele>231.0</ele><time>2026-05-02T10:17:04Z</time></trkpt><trkpt lat="42.95522736102076" lon="13.707365219305936"><ele>231.0</ele><time>2026-05-02T10:17:05Z</time></trkpt><trkpt lat="42.95507335568909" lon="13.707462732351717"><ele>231.0</ele><time>2026-05-02T10:17:06Z</time></trkpt><trkpt lat="42.95492263349363" lon="13.707604741980465"><ele>232.66666666666669</ele><time>2026-05-02T10:17:07Z</time></trkpt><trkpt lat="42.9547710754344" lon="13.707774942599018"><ele>234.33333333333334</ele><time>2026-05-02T10:17:08Z</time></trkpt><trkpt lat="42.95460202123131" lon="13.707942729361452"><ele>236.0</ele><time>2026-05-02T10:17:09Z</time></trkpt><trkpt lat="42.95443041591524" lon="13.708080688191089"><ele>236.0</ele><time>2026-05-02T10:17:09.999Z</time></trkpt><trkpt lat="42.954270625484554" lon="13.708191348641343"><ele>236.0</ele><time>2026-05-02T10:17:10.999Z</time></trkpt><trkpt lat="42.95409460938569" lon="13.708291728826172"><ele>236.0</ele><time>2026-05-02T10:17:11.999Z</time></trkpt><trkpt lat="42.953909022350935" lon="13.70838772671652"><ele>239.66666666666669</ele><time>2026-05-02T10:17:12.999Z</time></trkpt><trkpt lat="42.95371081168633" lon="13.708485217652647"><ele>243.33333333333331</ele><time>2026-05-02T10:17:13.999Z</time></trkpt><trkpt lat="42.95351789965287" lon="13.7085737439404"><ele>247.0</ele><time>2026-05-02T10:17:14.999Z</time></trkpt><trkpt lat="42.95333944020752" lon="13.708655531530765"><ele>247.66666666666666</ele><time>2026-05-02T10:17:15.999Z</time></trkpt><trkpt lat="42.95317852678134" lon="13.708732244439354"><ele>248.33333333333331</ele><time>2026-05-02T10:17:16.999Z</time></trkpt><trkpt lat="42.95302191261532" lon="13.708803577402175"><ele>249.0</ele><time>2026-05-02T10:17:17.999Z</time></trkpt><trkpt lat="42.95286968890417" lon="13.70887143929662"><ele>249.0</ele><time>2026-05-02T10:17:18.999Z</time></trkpt><trkpt lat="42.9527228749095" lon="13.708939138374692"><ele>249.0</ele><time>2026-05-02T10:17:19.999Z</time></trkpt><trkpt lat="42.95258026962586" lon="13.708992956027474"><ele>249.0</ele><time>2026-05-02T10:17:20.999Z</time></trkpt><trkpt lat="42.95243499045095" lon="13.70903066739587"><ele>252.5</ele><time>2026-05-02T10:17:21.999Z</time></trkpt><trkpt lat="42.95229608212923" lon="13.709052989251864"><ele>256.0</ele><time>2026-05-02T10:17:22.999Z</time></trkpt><trkpt lat="42.95215823285277" lon="13.709060000758544"><ele>259.5</ele><time>2026-05-02T10:17:23.999Z</time></trkpt><trkpt lat="42.95201579187501" lon="13.709053483633179"><ele>263.0</ele><time>2026-05-02T10:17:24.999Z</time></trkpt><trkpt lat="42.95186800867339" lon="13.70903851667206"><ele>263.0</ele><time>2026-05-02T10:17:25.999Z</time></trkpt><trkpt lat="42.95173644653625" lon="13.709020208516884"><ele>263.0</ele><time>2026-05-02T10:17:26.999Z</time></trkpt><trkpt lat="42.951612888931976" lon="13.709023985416012"><ele>263.0</ele><time>2026-05-02T10:17:27.999Z</time></trkpt><trkpt lat="42.951492357701895" lon="13.708998458416133"><ele>263.0</ele><time>2026-05-02T10:17:28.999Z</time></trkpt><trkpt lat="42.95137145041902" lon="13.708983010812066"><ele>265.0</ele><time>2026-05-02T10:17:29.999Z</time></trkpt><trkpt lat="42.95124624655112" lon="13.708941938959516"><ele>267.0</ele><time>2026-05-02T10:17:30.999Z</time></trkpt><trkpt lat="42.95111172082442" lon="13.708914328619292"><ele>269.0</ele><time>2026-05-02T10:17:31.999Z</time></trkpt><trkpt lat="42.95095797922772" lon="13.708882365703927"><ele>271.0</ele><time>2026-05-02T10:17:32.999Z</time></trkpt><trkpt lat="42.95080127130362" lon="13.70884978610635"><ele>272.66666666666663</ele><time>2026-05-02T10:17:33.999Z</time></trkpt><trkpt lat="42.950617546293216" lon="13.70881185342096"><ele>274.3333333333333</ele><time>2026-05-02T10:17:34.999Z</time></trkpt><trkpt lat="42.95042242576407" lon="13.708773722323636"><ele>276.0</ele><time>2026-05-02T10:17:35.999Z</time></trkpt><trkpt lat="42.950243338286676" lon="13.708762774508989"><ele>276.0</ele><time>2026-05-02T10:17:36.999Z</time></trkpt><trkpt lat="42.95008485852412" lon="13.708727876838207"><ele>276.0</ele><time>2026-05-02T10:17:37.999Z</time></trkpt><trkpt lat="42.94994699947582" lon="13.708661370265846"><ele>276.0</ele><time>2026-05-02T10:17:38.999Z</time></trkpt><trkpt lat="42.94982584304455" lon="13.708603622753147"><ele>276.0</ele><time>2026-05-02T10:17:39.999Z</time></trkpt><trkpt lat="42.94970763382923" lon="13.708529990498723"><ele>280.25</ele><time>2026-05-02T10:17:40.999Z</time></trkpt><trkpt lat="42.94959184730937" lon="13.70844329655615"><ele>284.5</ele><time>2026-05-02T10:17:41.999Z</time></trkpt><trkpt lat="42.9494729542503" lon="13.708352279795482"><ele>288.75</ele><time>2026-05-02T10:17:42.999Z</time></trkpt><trkpt lat="42.94936168172154" lon="13.708255603299587"><ele>293.0</ele><time>2026-05-02T10:17:43.999Z</time></trkpt><trkpt lat="42.9492589349072" lon="13.708167101943127"><ele>293.6</ele><time>2026-05-02T10:17:44.999Z</time></trkpt><trkpt lat="42.94917312669009" lon="13.708093190612201"><ele>294.20000000000005</ele><time>2026-05-02T10:17:45.999Z</time></trkpt><trkpt lat="42.94909289100863" lon="13.708024423941788"><ele>294.8</ele><time>2026-05-02T10:17:46.999Z</time></trkpt><trkpt lat="42.94901860208238" lon="13.70796098560663"><ele>295.40000000000003</ele><time>2026-05-02T10:17:47.999Z</time></trkpt><trkpt lat="42.94895463197006" lon="13.707908360100898"><ele>296.0</ele><time>2026-05-02T10:17:48.999Z</time></trkpt><trkpt lat="42.948863285154324" lon="13.707839815145482"><ele>296.0</ele><time>2026-05-02T10:17:50.999Z</time></trkpt><trkpt lat="42.948787301618395" lon="13.707795899694263"><ele>296.0</ele><time>2026-05-02T10:18:05.999Z</time></trkpt><trkpt lat="42.94870671054268" lon="13.707757001423744"><ele>296.0</ele><time>2026-05-02T10:18:08.999Z</time></trkpt><trkpt lat="42.948677764805595" lon="13.707971013481728"><ele>296.0</ele><time>2026-05-02T10:18:09.999Z</time></trkpt><trkpt lat="42.948669850631795" lon="13.70810767284355"><ele>296.0</ele><time>2026-05-02T10:18:10.999Z</time></trkpt><trkpt lat="42.948663151729" lon="13.708257913140063"><ele>296.0</ele><time>2026-05-02T10:18:11.999Z</time></trkpt><trkpt lat="42.94864349921673" lon="13.708428023334994"><ele>296.0</ele><time>2026-05-02T10:18:12.999Z</time></trkpt><trkpt lat="42.948624968431616" lon="13.708582271628384"><ele>296.0</ele><time>2026-05-02T10:18:13.999Z</time></trkpt><trkpt lat="42.94859727946234" lon="13.708731989945408"><ele>296.0</ele><time>2026-05-02T10:18:14.999Z</time></trkpt><trkpt lat="42.94858049271246" lon="13.708871229006004"><ele>294.5</ele><time>2026-05-02T10:18:15.999Z</time></trkpt><trkpt lat="42.94855519697541" lon="13.709014269568426"><ele>293.0</ele><time>2026-05-02T10:18:16.999Z</time></trkpt><trkpt lat="42.948541573181316" lon="13.709167984694453"><ele>291.5</ele><time>2026-05-02T10:18:17.999Z</time></trkpt><trkpt lat="42.94852888362598" lon="13.709349230522001"><ele>290.0</ele><time>2026-05-02T10:18:18.999Z</time></trkpt><trkpt lat="42.94851738216751" lon="13.709555951247106"><ele>288.33333333333337</ele><time>2026-05-02T10:18:19.999Z</time></trkpt><trkpt lat="42.948499534812825" lon="13.709776691072307"><ele>286.6666666666667</ele><time>2026-05-02T10:18:20.999Z</time></trkpt><trkpt lat="42.9484904561124" lon="13.710016936900253"><ele>285.0</ele><time>2026-05-02T10:18:21.999Z</time></trkpt><trkpt lat="42.9484826565242" lon="13.710273284866313"><ele>282.6666666666667</ele><time>2026-05-02T10:18:22.999Z</time></trkpt><trkpt lat="42.94847940944297" lon="13.710530349721969"><ele>280.33333333333337</ele><time>2026-05-02T10:18:23.999Z</time></trkpt><trkpt lat="42.94847864787331" lon="13.71081440255617"><ele>278.0</ele><time>2026-05-02T10:18:24.999Z</time></trkpt><trkpt lat="42.9484796229064" lon="13.71111506124051"><ele>276.33333333333337</ele><time>2026-05-02T10:18:25.999Z</time></trkpt><trkpt lat="42.94848118498114" lon="13.711399391153199"><ele>274.6666666666667</ele><time>2026-05-02T10:18:26.999Z</time></trkpt><trkpt lat="42.948482822906726" lon="13.711697527435073"><ele>273.0</ele><time>2026-05-02T10:18:27.999Z</time></trkpt><trkpt lat="42.94848298251886" lon="13.71202044037563"><ele>272.3333333333333</ele><time>2026-05-02T10:18:28.999Z</time></trkpt><trkpt lat="42.94848392202792" lon="13.7123343509645"><ele>271.66666666666663</ele><time>2026-05-02T10:18:29.998Z</time></trkpt><trkpt lat="42.948487391367635" lon="13.712614335277177"><ele>271.0</ele><time>2026-05-02T10:18:30.998Z</time></trkpt><trkpt lat="42.94850695604619" lon="13.712876859188388"><ele>270.3333333333333</ele><time>2026-05-02T10:18:31.998Z</time></trkpt><trkpt lat="42.94850999270019" lon="13.71314790186566"><ele>269.6666666666667</ele><time>2026-05-02T10:18:32.998Z</time></trkpt><trkpt lat="42.94848975102943" lon="13.713415900351004"><ele>269.0</ele><time>2026-05-02T10:18:33.998Z</time></trkpt><trkpt lat="42.94846116360544" lon="13.713657196074921"><ele>267.0</ele><time>2026-05-02T10:18:34.998Z</time></trkpt><trkpt lat="42.94841068980344" lon="13.713896000172474"><ele>265.0</ele><time>2026-05-02T10:18:35.998Z</time></trkpt><trkpt lat="42.94835112750837" lon="13.714132306213932"><ele>263.0</ele><time>2026-05-02T10:18:36.998Z</time></trkpt><trkpt lat="42.94830262432634" lon="13.714360164634185"><ele>268.33333333333337</ele><time>2026-05-02T10:18:37.998Z</time></trkpt><trkpt lat="42.94829449200585" lon="13.714594678474652"><ele>273.6666666666667</ele><time>2026-05-02T10:18:38.998Z</time></trkpt><trkpt lat="42.94828352619919" lon="13.714813411390965"><ele>279.0</ele><time>2026-05-02T10:18:39.998Z</time></trkpt><trkpt lat="42.948247100996554" lon="13.715014479891023"><ele>279.0</ele><time>2026-05-02T10:18:40.998Z</time></trkpt><trkpt lat="42.948187665172334" lon="13.715202416345504"><ele>279.0</ele><time>2026-05-02T10:18:41.998Z</time></trkpt><trkpt lat="42.948086102748746" lon="13.71537327962677"><ele>279.0</ele><time>2026-05-02T10:18:42.998Z</time></trkpt><trkpt lat="42.947949584754895" lon="13.715540798037162"><ele>276.3333333333333</ele><time>2026-05-02T10:18:43.998Z</time></trkpt><trkpt lat="42.947791929650506" lon="13.715724452814966"><ele>273.66666666666663</ele><time>2026-05-02T10:18:44.998Z</time></trkpt><trkpt lat="42.94763398244807" lon="13.715939825186537"><ele>271.0</ele><time>2026-05-02T10:18:45.998Z</time></trkpt><trkpt lat="42.94746978670927" lon="13.7161509906211"><ele>271.0</ele><time>2026-05-02T10:18:46.998Z</time></trkpt><trkpt lat="42.947322505035864" lon="13.716376347098763"><ele>271.0</ele><time>2026-05-02T10:18:47.998Z</time></trkpt><trkpt lat="42.94718020291115" lon="13.716628103058335"><ele>271.0</ele><time>2026-05-02T10:18:48.998Z</time></trkpt><trkpt lat="42.947039574562005" lon="13.716900856012087"><ele>271.0</ele><time>2026-05-02T10:18:49.998Z</time></trkpt><trkpt lat="42.94691444963947" lon="13.717145525728794"><ele>271.3333333333333</ele><time>2026-05-02T10:18:50.999Z</time></trkpt><trkpt lat="42.94679891436392" lon="13.717370221375655"><ele>271.6666666666667</ele><time>2026-05-02T10:18:51.999Z</time></trkpt><trkpt lat="42.946693027247456" lon="13.717593411690508"><ele>272.0</ele><time>2026-05-02T10:18:52.999Z</time></trkpt><trkpt lat="42.946608374830035" lon="13.71780942259585"><ele>275.0</ele><time>2026-05-02T10:18:53.999Z</time></trkpt><trkpt lat="42.94654371282662" lon="13.718035199867003"><ele>278.0</ele><time>2026-05-02T10:18:54.999Z</time></trkpt><trkpt lat="42.94651861050652" lon="13.718267565531008"><ele>281.0</ele><time>2026-05-02T10:18:55.999Z</time></trkpt><trkpt lat="42.94652495712159" lon="13.718524768126267"><ele>280.6666666666667</ele><time>2026-05-02T10:18:56.999Z</time></trkpt><trkpt lat="42.94655312016966" lon="13.718805769850285"><ele>280.3333333333333</ele><time>2026-05-02T10:18:57.999Z</time></trkpt><trkpt lat="42.94658871137797" lon="13.719104175285583"><ele>280.0</ele><time>2026-05-02T10:18:58.999Z</time></trkpt><trkpt lat="42.946633829454505" lon="13.719407157169556"><ele>280.0</ele><time>2026-05-02T10:18:59.999Z</time></trkpt><trkpt lat="42.94668609771241" lon="13.719684773427485"><ele>280.0</ele><time>2026-05-02T10:19:01Z</time></trkpt><trkpt lat="42.946723361162306" lon="13.719931879081585"><ele>280.0</ele><time>2026-05-02T10:19:02Z</time></trkpt><trkpt lat="42.94674877254715" lon="13.72016172307548"><ele>285.5</ele><time>2026-05-02T10:19:02.999Z</time></trkpt><trkpt lat="42.94675684826971" lon="13.720371901170816"><ele>291.0</ele><time>2026-05-02T10:19:03.999Z</time></trkpt><trkpt lat="42.94674722367534" lon="13.720558305399615"><ele>296.5</ele><time>2026-05-02T10:19:04.999Z</time></trkpt><trkpt lat="42.94672981662529" lon="13.720714726653311"><ele>302.0</ele><time>2026-05-02T10:19:05.999Z</time></trkpt><trkpt lat="42.94671637033428" lon="13.720846057666398"><ele>302.0</ele><time>2026-05-02T10:19:06.999Z</time></trkpt><trkpt lat="42.94671012079391" lon="13.720955544394833"><ele>302.0</ele><time>2026-05-02T10:19:07.999Z</time></trkpt><trkpt lat="42.94670549436438" lon="13.72108097264211"><ele>302.0</ele><time>2026-05-02T10:19:09.999Z</time></trkpt><trkpt lat="42.946803496850265" lon="13.721048536679987"><ele>302.0</ele><time>2026-05-02T10:19:13.999Z</time></trkpt><trkpt lat="42.946844410386" lon="13.720915741700944"><ele>302.0</ele><time>2026-05-02T10:19:15.999Z</time></trkpt><trkpt lat="42.94683705170834" lon="13.720825469933066"><ele>302.0</ele><time>2026-05-02T10:19:16.999Z</time></trkpt><trkpt lat="42.94686084105058" lon="13.72071679793526"><ele>302.0</ele><time>2026-05-02T10:19:17.999Z</time></trkpt><trkpt lat="42.94690257866034" lon="13.720649577043547"><ele>302.0</ele><time>2026-05-02T10:19:19.999Z</time></trkpt><trkpt lat="42.94696685618867" lon="13.720653453938839"><ele>302.0</ele><time>2026-05-02T10:19:21.999Z</time></trkpt><trkpt lat="42.947040148561015" lon="13.720618746308817"><ele>302.0</ele><time>2026-05-02T10:19:23.999Z</time></trkpt><trkpt lat="42.94707587338403" lon="13.720689841196897"><ele>302.0</ele><time>2026-05-02T10:19:26.999Z</time></trkpt></trkseg></trk></gpx>